<?xml version='1.0' encoding='UTF-8'?><gpx version="1.1" creator="JPX - https://github.com/jenetics/jpx" xmlns="http://www.topografix.com/GPX/1/1"><trk><trkseg><trkpt lat="45.69518426993616" lon="9.215212251176705"><ele>268.0</ele><time>2026-04-26T07:10:48Z</time></trkpt><trkpt lat="45.69526860790555" lon="9.215252737522448"><ele>268.0</ele><time>2026-04-26T07:11:35Z</time></trkpt><trkpt lat="45.69531955060138" lon="9.215321856540397"><ele>268.0</ele><time>2026-04-26T07:11:37Z</time></trkpt><trkpt lat="45.69535971354754" lon="9.215392896106854"><ele>268.0</ele><time>2026-04-26T07:11:39Z</time></trkpt><trkpt lat="45.695446355466196" lon="9.215335907740267"><ele>268.0</ele><time>2026-04-26T07:12:19Z</time></trkpt><trkpt lat="45.69549064508565" lon="9.2152073106055"><ele>268.0</ele><time>2026-04-26T07:12:21Z</time></trkpt><trkpt lat="45.6955424629818" lon="9.215152880780519"><ele>268.0</ele><time>2026-04-26T07:12:23Z</time></trkpt><trkpt lat="45.69562593249669" lon="9.215021152029363"><ele>268.0</ele><time>2026-04-26T07:12:25.001Z</time></trkpt><trkpt lat="45.6956873087644" lon="9.214988102718927"><ele>268.0</ele><time>2026-04-26T07:12:26.001Z</time></trkpt><trkpt lat="45.69576303640678" lon="9.214864685789122"><ele>268.0</ele><time>2026-04-26T07:12:28.001Z</time></trkpt><trkpt lat="45.695831860905216" lon="9.214748625763892"><ele>268.0</ele><time>2026-04-26T07:12:30.001Z</time></trkpt><trkpt lat="45.6958696704252" lon="9.214643332936149"><ele>268.2</ele><time>2026-04-26T07:12:32.001Z</time></trkpt><trkpt lat="45.69593786097739" lon="9.214653866791688"><ele>268.4</ele><time>2026-04-26T07:12:34.001Z</time></trkpt><trkpt lat="45.69603942034546" lon="9.214714827142934"><ele>268.59999999999997</ele><time>2026-04-26T07:12:36.001Z</time></trkpt><trkpt lat="45.696165461982176" lon="9.21476550866882"><ele>268.8</ele><time>2026-04-26T07:12:38.001Z</time></trkpt><trkpt lat="45.69623737714048" lon="9.214808933288797"><ele>269.0</ele><time>2026-04-26T07:12:39.001Z</time></trkpt><trkpt lat="45.69629405916662" lon="9.214889788451355"><ele>269.1666666666667</ele><time>2026-04-26T07:12:40.001Z</time></trkpt><trkpt lat="45.69634241882448" lon="9.214979043735253"><ele>269.33333333333337</ele><time>2026-04-26T07:12:41.001Z</time></trkpt><trkpt lat="45.696407040594444" lon="9.215012257446798"><ele>269.5</ele><time>2026-04-26T07:12:42Z</time></trkpt><trkpt lat="45.69647599744484" lon="9.214990247770846"><ele>269.6666666666667</ele><time>2026-04-26T07:12:43Z</time></trkpt><trkpt lat="45.696554095863114" lon="9.214955582853745"><ele>269.8333333333333</ele><time>2026-04-26T07:12:44Z</time></trkpt><trkpt lat="45.696648522607646" lon="9.214928333226482"><ele>270.0</ele><time>2026-04-26T07:12:45Z</time></trkpt><trkpt lat="45.69675060275764" lon="9.214940710409161"><ele>270.0</ele><time>2026-04-26T07:12:46Z</time></trkpt><trkpt lat="45.696848338101866" lon="9.214991575758912"><ele>270.0</ele><time>2026-04-26T07:12:47Z</time></trkpt><trkpt lat="45.696949341865434" lon="9.21504524252974"><ele>270.0</ele><time>2026-04-26T07:12:48Z</time></trkpt><trkpt lat="45.69706138623225" lon="9.215111192302595"><ele>270.0</ele><time>2026-04-26T07:12:49Z</time></trkpt><trkpt lat="45.697200280067996" lon="9.215185800402372"><ele>271.3333333333333</ele><time>2026-04-26T07:12:50Z</time></trkpt><trkpt lat="45.69735549758709" lon="9.215273594184831"><ele>272.66666666666663</ele><time>2026-04-26T07:12:51Z</time></trkpt><trkpt lat="45.69752911809349" lon="9.21535240436901"><ele>274.0</ele><time>2026-04-26T07:12:52Z</time></trkpt><trkpt lat="45.69769047205295" lon="9.215400647886566"><ele>274.0</ele><time>2026-04-26T07:12:53Z</time></trkpt><trkpt lat="45.6978321796899" lon="9.21547029694321"><ele>274.0</ele><time>2026-04-26T07:12:54Z</time></trkpt><trkpt lat="45.69798173449748" lon="9.215528635921697"><ele>274.0</ele><time>2026-04-26T07:12:55Z</time></trkpt><trkpt lat="45.698103376836926" lon="9.215595655867803"><ele>274.0</ele><time>2026-04-26T07:12:56Z</time></trkpt><trkpt lat="45.6982197853447" lon="9.21564962682748"><ele>273.8</ele><time>2026-04-26T07:12:57Z</time></trkpt><trkpt lat="45.69831831154283" lon="9.215714721779877"><ele>273.59999999999997</ele><time>2026-04-26T07:12:58Z</time></trkpt><trkpt lat="45.6984212406359" lon="9.215782721621515"><ele>273.4</ele><time>2026-04-26T07:12:59Z</time></trkpt><trkpt lat="45.69850430521652" lon="9.215858039474137"><ele>273.2</ele><time>2026-04-26T07:13:00Z</time></trkpt><trkpt lat="45.698596621186205" lon="9.215914292589114"><ele>273.0</ele><time>2026-04-26T07:13:01Z</time></trkpt><trkpt lat="45.69866032194607" lon="9.215919099000883"><ele>273.75</ele><time>2026-04-26T07:13:02Z</time></trkpt><trkpt lat="45.69877960301146" lon="9.21591038577564"><ele>274.5</ele><time>2026-04-26T07:13:03Z</time></trkpt><trkpt lat="45.69889397615338" lon="9.215926404385415"><ele>275.25</ele><time>2026-04-26T07:13:04Z</time></trkpt><trkpt lat="45.69902216566692" lon="9.215976057558793"><ele>276.0</ele><time>2026-04-26T07:13:05Z</time></trkpt><trkpt lat="45.69915224735812" lon="9.216044528726878"><ele>276.0</ele><time>2026-04-26T07:13:06Z</time></trkpt><trkpt lat="45.699299241343056" lon="9.216103766043021"><ele>276.0</ele><time>2026-04-26T07:13:07Z</time></trkpt><trkpt lat="45.69945165472716" lon="9.216151482607671"><ele>276.0</ele><time>2026-04-26T07:13:08Z</time></trkpt><trkpt lat="45.69960388778069" lon="9.216234417976226"><ele>276.3333333333333</ele><time>2026-04-26T07:13:09Z</time></trkpt><trkpt lat="45.69976151443014" lon="9.21629127522088"><ele>276.66666666666663</ele><time>2026-04-26T07:13:10Z</time></trkpt><trkpt lat="45.6999198209702" lon="9.21633494074067"><ele>277.0</ele><time>2026-04-26T07:13:11Z</time></trkpt><trkpt lat="45.70007554955691" lon="9.2163369929684"><ele>277.0</ele><time>2026-04-26T07:13:12Z</time></trkpt><trkpt lat="45.70023992811824" lon="9.216352159341714"><ele>277.0</ele><time>2026-04-26T07:13:13Z</time></trkpt><trkpt lat="45.70040802811992" lon="9.216347376948752"><ele>277.0</ele><time>2026-04-26T07:13:14Z</time></trkpt><trkpt lat="45.70057246087648" lon="9.216318344694606"><ele>277.75</ele><time>2026-04-26T07:13:15Z</time></trkpt><trkpt lat="45.70072861614804" lon="9.21631392510092"><ele>278.5</ele><time>2026-04-26T07:13:16Z</time></trkpt><trkpt lat="45.70086401830478" lon="9.21629472081245"><ele>279.25</ele><time>2026-04-26T07:13:17Z</time></trkpt><trkpt lat="45.70100918879779" lon="9.216255224502794"><ele>280.0</ele><time>2026-04-26T07:13:18Z</time></trkpt><trkpt lat="45.7011617012859" lon="9.216232001931022"><ele>280.25</ele><time>2026-04-26T07:13:19Z</time></trkpt><trkpt lat="45.701311666474396" lon="9.2162126299977"><ele>280.5</ele><time>2026-04-26T07:13:20Z</time></trkpt><trkpt lat="45.701454290445575" lon="9.216184064987948"><ele>280.75</ele><time>2026-04-26T07:13:21Z</time></trkpt><trkpt lat="45.70159823434324" lon="9.21616339840122"><ele>281.0</ele><time>2026-04-26T07:13:22Z</time></trkpt><trkpt lat="45.7017409459271" lon="9.216148236269037"><ele>281.0</ele><time>2026-04-26T07:13:23Z</time></trkpt><trkpt lat="45.701878875919434" lon="9.216147916232215"><ele>281.0</ele><time>2026-04-26T07:13:24Z</time></trkpt><trkpt lat="45.701996036223555" lon="9.21611835696997"><ele>281.0</ele><time>2026-04-26T07:13:25Z</time></trkpt><trkpt lat="45.702113743458" lon="9.216119535621168"><ele>281.0</ele><time>2026-04-26T07:13:26Z</time></trkpt><trkpt lat="45.70221428436631" lon="9.216146688277028"><ele>281.40000000000003</ele><time>2026-04-26T07:13:27Z</time></trkpt><trkpt lat="45.70231840809684" lon="9.21620241805455"><ele>281.8</ele><time>2026-04-26T07:13:28Z</time></trkpt><trkpt lat="45.70240158250763" lon="9.216263580101575"><ele>282.20000000000005</ele><time>2026-04-26T07:13:29Z</time></trkpt><trkpt lat="45.702494884275126" lon="9.216289033974126"><ele>282.6</ele><time>2026-04-26T07:13:30Z</time></trkpt><trkpt lat="45.70259663744965" lon="9.216261607251102"><ele>283.0</ele><time>2026-04-26T07:13:31Z</time></trkpt><trkpt lat="45.70270395959736" lon="9.21618903197581"><ele>283.5</ele><time>2026-04-26T07:13:32Z</time></trkpt><trkpt lat="45.70277872665028" lon="9.216064083161758"><ele>284.0</ele><time>2026-04-26T07:13:33Z</time></trkpt><trkpt lat="45.702912153228716" lon="9.216002812461015"><ele>284.5</ele><time>2026-04-26T07:13:34Z</time></trkpt><trkpt lat="45.703053562703346" lon="9.215969039036105"><ele>285.0</ele><time>2026-04-26T07:13:35Z</time></trkpt><trkpt lat="45.70321335615741" lon="9.21594603959764"><ele>285.0</ele><time>2026-04-26T07:13:36Z</time></trkpt><trkpt lat="45.70338348704896" lon="9.215921556228924"><ele>285.0</ele><time>2026-04-26T07:13:37Z</time></trkpt><trkpt lat="45.703553937692625" lon="9.21588858512146"><ele>285.0</ele><time>2026-04-26T07:13:38Z</time></trkpt><trkpt lat="45.703728003493715" lon="9.215884810795103"><ele>286.0</ele><time>2026-04-26T07:13:39Z</time></trkpt><trkpt lat="45.70391006784692" lon="9.215855768571066"><ele>287.0</ele><time>2026-04-26T07:13:40Z</time></trkpt><trkpt lat="45.70409811309808" lon="9.215814705800797"><ele>288.0</ele><time>2026-04-26T07:13:41Z</time></trkpt><trkpt lat="45.70428812479506" lon="9.215779580712578"><ele>288.3333333333333</ele><time>2026-04-26T07:13:42Z</time></trkpt><trkpt lat="45.70448040441994" lon="9.215753965919275"><ele>288.66666666666663</ele><time>2026-04-26T07:13:43Z</time></trkpt><trkpt lat="45.70465399360181" lon="9.215725750755796"><ele>289.0</ele><time>2026-04-26T07:13:44Z</time></trkpt><trkpt lat="45.70483492587422" lon="9.215700053550918"><ele>289.0</ele><time>2026-04-26T07:13:45Z</time></trkpt><trkpt lat="45.70501232137254" lon="9.215678256248808"><ele>289.0</ele><time>2026-04-26T07:13:46Z</time></trkpt><trkpt lat="45.705205999420755" lon="9.215664860812314"><ele>289.0</ele><time>2026-04-26T07:13:47Z</time></trkpt><trkpt lat="45.70539574325631" lon="9.215644400072149"><ele>289.0</ele><time>2026-04-26T07:13:48Z</time></trkpt><trkpt lat="45.705604009601615" lon="9.21560895814155"><ele>289.0</ele><time>2026-04-26T07:13:49Z</time></trkpt><trkpt lat="45.705806805932" lon="9.215572973813545"><ele>289.0</ele><time>2026-04-26T07:13:50Z</time></trkpt><trkpt lat="45.7060242853559" lon="9.215545035591592"><ele>288.66666666666663</ele><time>2026-04-26T07:13:51Z</time></trkpt><trkpt lat="45.70624294453741" lon="9.21551744107395"><ele>288.3333333333333</ele><time>2026-04-26T07:13:52Z</time></trkpt><trkpt lat="45.7064549033335" lon="9.215483839284785"><ele>288.0</ele><time>2026-04-26T07:13:53Z</time></trkpt><trkpt lat="45.70666169518102" lon="9.21546575892753"><ele>288.0</ele><time>2026-04-26T07:13:54Z</time></trkpt><trkpt lat="45.706856551786174" lon="9.215431621780805"><ele>288.0</ele><time>2026-04-26T07:13:55Z</time></trkpt><trkpt lat="45.70704897444168" lon="9.215391571343261"><ele>288.0</ele><time>2026-04-26T07:13:56Z</time></trkpt><trkpt lat="45.707221999882904" lon="9.21537502518697"><ele>288.3333333333333</ele><time>2026-04-26T07:13:57Z</time></trkpt><trkpt lat="45.70738909354178" lon="9.215344763283065"><ele>288.66666666666663</ele><time>2026-04-26T07:13:58Z</time></trkpt><trkpt lat="45.70755905874191" lon="9.215303203375584"><ele>289.0</ele><time>2026-04-26T07:13:59Z</time></trkpt><trkpt lat="45.707738263648146" lon="9.215272630306302"><ele>289.3333333333333</ele><time>2026-04-26T07:14:00Z</time></trkpt><trkpt lat="45.707929418201516" lon="9.215249293612345"><ele>289.6666666666667</ele><time>2026-04-26T07:14:01Z</time></trkpt><trkpt lat="45.70812386662212" lon="9.215217653928702"><ele>290.0</ele><time>2026-04-26T07:14:02.001Z</time></trkpt><trkpt lat="45.708310163153" lon="9.21520053035291"><ele>290.0</ele><time>2026-04-26T07:14:03.001Z</time></trkpt><trkpt lat="45.70850771340021" lon="9.215174998968548"><ele>290.0</ele><time>2026-04-26T07:14:04.001Z</time></trkpt><trkpt lat="45.708702777625966" lon="9.215149978887833"><ele>290.0</ele><time>2026-04-26T07:14:05.001Z</time></trkpt><trkpt lat="45.708893748265815" lon="9.215120059592945"><ele>290.6666666666667</ele><time>2026-04-26T07:14:06.001Z</time></trkpt><trkpt lat="45.70908912373197" lon="9.215083121191196"><ele>291.3333333333333</ele><time>2026-04-26T07:14:07.001Z</time></trkpt><trkpt lat="45.70929798519067" lon="9.215044820684795"><ele>292.0</ele><time>2026-04-26T07:14:08.001Z</time></trkpt><trkpt lat="45.7095337819476" lon="9.214995912077669"><ele>292.0</ele><time>2026-04-26T07:14:09.001Z</time></trkpt><trkpt lat="45.709755785865006" lon="9.214962195081384"><ele>292.0</ele><time>2026-04-26T07:14:10.001Z</time></trkpt><trkpt lat="45.709978325415356" lon="9.214936346135064"><ele>292.0</ele><time>2026-04-26T07:14:11.001Z</time></trkpt><trkpt lat="45.71019994525954" lon="9.214908134619057"><ele>291.3333333333333</ele><time>2026-04-26T07:14:12.001Z</time></trkpt><trkpt lat="45.71041280505492" lon="9.214875869422222"><ele>290.6666666666667</ele><time>2026-04-26T07:14:13.001Z</time></trkpt><trkpt lat="45.7106244937045" lon="9.214838314481458"><ele>290.0</ele><time>2026-04-26T07:14:14.001Z</time></trkpt><trkpt lat="45.71081538731117" lon="9.214823095902062"><ele>290.0</ele><time>2026-04-26T07:14:15.001Z</time></trkpt><trkpt lat="45.710993381860106" lon="9.214824258704285"><ele>290.0</ele><time>2026-04-26T07:14:16.001Z</time></trkpt><trkpt lat="45.7111700142821" lon="9.214823475970823"><ele>290.0</ele><time>2026-04-26T07:14:17.001Z</time></trkpt><trkpt lat="45.71135300171081" lon="9.21484594695385"><ele>290.0</ele><time>2026-04-26T07:14:18.001Z</time></trkpt><trkpt lat="45.7115563811493" lon="9.214894890763125"><ele>290.0</ele><time>2026-04-26T07:14:19.001Z</time></trkpt><trkpt lat="45.71177179555432" lon="9.214950264270009"><ele>290.0</ele><time>2026-04-26T07:14:20.001Z</time></trkpt><trkpt lat="45.71198878056537" lon="9.215016768217716"><ele>290.33333333333337</ele><time>2026-04-26T07:14:21.001Z</time></trkpt><trkpt lat="45.712205433762236" lon="9.215100060112775"><ele>290.6666666666667</ele><time>2026-04-26T07:14:22.001Z</time></trkpt><trkpt lat="45.712410077789606" lon="9.215182790362023"><ele>291.0</ele><time>2026-04-26T07:14:23.001Z</time></trkpt><trkpt lat="45.71259416167006" lon="9.215257816783975"><ele>291.0</ele><time>2026-04-26T07:14:24.001Z</time></trkpt><trkpt lat="45.71277823325653" lon="9.215331439114653"><ele>291.0</ele><time>2026-04-26T07:14:25.001Z</time></trkpt><trkpt lat="45.71297359690444" lon="9.215393801533164"><ele>291.0</ele><time>2026-04-26T07:14:26.001Z</time></trkpt><trkpt lat="45.71316343898113" lon="9.215478968876235"><ele>291.0</ele><time>2026-04-26T07:14:27.001Z</time></trkpt><trkpt lat="45.713352649114285" lon="9.215556377566912"><ele>291.0</ele><time>2026-04-26T07:14:28.001Z</time></trkpt><trkpt lat="45.7135334513149" lon="9.215624837914623"><ele>291.0</ele><time>2026-04-26T07:14:29.001Z</time></trkpt><trkpt lat="45.71371101004659" lon="9.215707744798891"><ele>293.0</ele><time>2026-04-26T07:14:30.001Z</time></trkpt><trkpt lat="45.713887120182584" lon="9.215775651638083"><ele>295.0</ele><time>2026-04-26T07:14:31.001Z</time></trkpt><trkpt lat="45.7140666289219" lon="9.215849616389166"><ele>297.0</ele><time>2026-04-26T07:14:32.001Z</time></trkpt><trkpt lat="45.71424966267862" lon="9.215925033599117"><ele>297.6666666666667</ele><time>2026-04-26T07:14:33.001Z</time></trkpt><trkpt lat="45.71442523309668" lon="9.215996320708737"><ele>298.33333333333337</ele><time>2026-04-26T07:14:34.001Z</time></trkpt><trkpt lat="45.71458419398171" lon="9.216059895425802"><ele>299.0</ele><time>2026-04-26T07:14:35.001Z</time></trkpt><trkpt lat="45.71474952991796" lon="9.216125707481195"><ele>299.0</ele><time>2026-04-26T07:14:36.001Z</time></trkpt><trkpt lat="45.71491489595147" lon="9.216183204860487"><ele>299.0</ele><time>2026-04-26T07:14:37.001Z</time></trkpt><trkpt lat="45.71507653553748" lon="9.216224823957527"><ele>299.0</ele><time>2026-04-26T07:14:38.001Z</time></trkpt><trkpt lat="45.71519587438504" lon="9.21624873066625"><ele>298.8</ele><time>2026-04-26T07:14:39.001Z</time></trkpt><trkpt lat="45.71529016048697" lon="9.216262521209913"><ele>298.59999999999997</ele><time>2026-04-26T07:14:40.001Z</time></trkpt><trkpt lat="45.71538454945672" lon="9.216274247160545"><ele>298.4</ele><time>2026-04-26T07:14:41.001Z</time></trkpt><trkpt lat="45.71547536983628" lon="9.21623425420336"><ele>298.2</ele><time>2026-04-26T07:14:42.001Z</time></trkpt><trkpt lat="45.715573668305666" lon="9.216236863095894"><ele>298.0</ele><time>2026-04-26T07:14:44.001Z</time></trkpt><trkpt lat="45.71563395373036" lon="9.216287049697138"><ele>298.0</ele><time>2026-04-26T07:14:45.001Z</time></trkpt><trkpt lat="45.715734333115456" lon="9.216268204136123"><ele>298.0</ele><time>2026-04-26T07:14:46.001Z</time></trkpt><trkpt lat="45.71580970345901" lon="9.216266233927406"><ele>298.0</ele><time>2026-04-26T07:14:47.001Z</time></trkpt><trkpt lat="45.71601244880051" lon="9.216170450885167"><ele>298.0</ele><time>2026-04-26T07:14:48.001Z</time></trkpt><trkpt lat="45.7161489376853" lon="9.216163407528706"><ele>299.3333333333333</ele><time>2026-04-26T07:14:49.001Z</time></trkpt><trkpt lat="45.71630032839166" lon="9.216155096403904"><ele>300.6666666666667</ele><time>2026-04-26T07:14:50.001Z</time></trkpt><trkpt lat="45.71647392221774" lon="9.216129714350682"><ele>302.0</ele><time>2026-04-26T07:14:51.001Z</time></trkpt><trkpt lat="45.7166796106644" lon="9.216124791969303"><ele>302.0</ele><time>2026-04-26T07:14:52Z</time></trkpt><trkpt lat="45.7169230486304" lon="9.21609461987011"><ele>302.0</ele><time>2026-04-26T07:14:53Z</time></trkpt><trkpt lat="45.717203202536325" lon="9.216059640602182"><ele>302.0</ele><time>2026-04-26T07:14:54Z</time></trkpt><trkpt lat="45.71745395051149" lon="9.215972704021485"><ele>302.0</ele><time>2026-04-26T07:14:55Z</time></trkpt><trkpt lat="45.717690827295094" lon="9.215956194798586"><ele>301.6666666666667</ele><time>2026-04-26T07:14:56Z</time></trkpt><trkpt lat="45.717896995342414" lon="9.21592477720619"><ele>301.3333333333333</ele><time>2026-04-26T07:14:57Z</time></trkpt><trkpt lat="45.71809385064275" lon="9.215911489754246"><ele>301.0</ele><time>2026-04-26T07:14:58Z</time></trkpt><trkpt lat="45.7182668417637" lon="9.215895739361086"><ele>301.0</ele><time>2026-04-26T07:14:59Z</time></trkpt><trkpt lat="45.718420750563574" lon="9.215902924709948"><ele>301.0</ele><time>2026-04-26T07:15:00Z</time></trkpt><trkpt lat="45.71855115739462" lon="9.215894526617445"><ele>301.0</ele><time>2026-04-26T07:15:01Z</time></trkpt><trkpt lat="45.71865223404995" lon="9.215875664288339"><ele>301.0</ele><time>2026-04-26T07:15:02Z</time></trkpt><trkpt lat="45.71874192845428" lon="9.215920573580812"><ele>301.0</ele><time>2026-04-26T07:15:03Z</time></trkpt><trkpt lat="45.71884302940478" lon="9.215975556307955"><ele>301.0</ele><time>2026-04-26T07:15:04Z</time></trkpt><trkpt lat="45.71893221585253" lon="9.215987153014579"><ele>301.0</ele><time>2026-04-26T07:15:05Z</time></trkpt><trkpt lat="45.719016352147044" lon="9.215939966902289"><ele>301.0</ele><time>2026-04-26T07:15:06Z</time></trkpt><trkpt lat="45.71911541848156" lon="9.21585618046709"><ele>301.0</ele><time>2026-04-26T07:15:07Z</time></trkpt><trkpt lat="45.71923163973144" lon="9.215792589034544"><ele>301.0</ele><time>2026-04-26T07:15:08Z</time></trkpt><trkpt lat="45.71936561762047" lon="9.21578325326271"><ele>301.0</ele><time>2026-04-26T07:15:09Z</time></trkpt><trkpt lat="45.719501824579126" lon="9.215765716252506"><ele>301.0</ele><time>2026-04-26T07:15:10Z</time></trkpt><trkpt lat="45.71964107935474" lon="9.215747950268078"><ele>301.0</ele><time>2026-04-26T07:15:11Z</time></trkpt><trkpt lat="45.71978710236546" lon="9.21572932929552"><ele>301.75</ele><time>2026-04-26T07:15:12Z</time></trkpt><trkpt lat="45.71992893246308" lon="9.215711241015168"><ele>302.5</ele><time>2026-04-26T07:15:13Z</time></trkpt><trkpt lat="45.72005323821043" lon="9.215695387703194"><ele>303.25</ele><time>2026-04-26T07:15:14Z</time></trkpt><trkpt lat="45.72016687955976" lon="9.215680894457455"><ele>304.0</ele><time>2026-04-26T07:15:15Z</time></trkpt><trkpt lat="45.72027697489436" lon="9.215633496140006"><ele>304.4</ele><time>2026-04-26T07:15:16Z</time></trkpt><trkpt lat="45.72037228552145" lon="9.215627508541736"><ele>304.79999999999995</ele><time>2026-04-26T07:15:17Z</time></trkpt><trkpt lat="45.72045580669999" lon="9.215622205295412"><ele>305.20000000000005</ele><time>2026-04-26T07:15:18Z</time></trkpt><trkpt lat="45.7205576759549" lon="9.215598528838262"><ele>305.6</ele><time>2026-04-26T07:15:19Z</time></trkpt><trkpt lat="45.720658546273036" lon="9.21558295295089"><ele>306.0</ele><time>2026-04-26T07:15:20Z</time></trkpt><trkpt lat="45.72076605044913" lon="9.215569552234216"><ele>306.0</ele><time>2026-04-26T07:15:21Z</time></trkpt><trkpt lat="45.72087976928291" lon="9.215543023305157"><ele>306.0</ele><time>2026-04-26T07:15:22Z</time></trkpt><trkpt lat="45.72100845647469" lon="9.215520370823679"><ele>306.0</ele><time>2026-04-26T07:15:23Z</time></trkpt><trkpt lat="45.7211566062986" lon="9.215508726248702"><ele>306.0</ele><time>2026-04-26T07:15:24Z</time></trkpt><trkpt lat="45.72130521818014" lon="9.215491249959024"><ele>305.6666666666667</ele><time>2026-04-26T07:15:25Z</time></trkpt><trkpt lat="45.721478311635515" lon="9.215477173926109"><ele>305.33333333333337</ele><time>2026-04-26T07:15:26Z</time></trkpt><trkpt lat="45.72164773775289" lon="9.215446151722762"><ele>305.0</ele><time>2026-04-26T07:15:27Z</time></trkpt><trkpt lat="45.72181616896046" lon="9.215419717868334"><ele>306.6666666666667</ele><time>2026-04-26T07:15:28Z</time></trkpt><trkpt lat="45.721981332988655" lon="9.215389763389954"><ele>308.3333333333333</ele><time>2026-04-26T07:15:29Z</time></trkpt><trkpt lat="45.722148980410715" lon="9.215371465280295"><ele>310.0</ele><time>2026-04-26T07:15:30Z</time></trkpt><trkpt lat="45.72232180951203" lon="9.215410664003642"><ele>310.0</ele><time>2026-04-26T07:15:31Z</time></trkpt><trkpt lat="45.72247696360436" lon="9.21539226860672"><ele>310.0</ele><time>2026-04-26T07:15:32Z</time></trkpt><trkpt lat="45.722637674315486" lon="9.215373214401067"><ele>310.0</ele><time>2026-04-26T07:15:33Z</time></trkpt><trkpt lat="45.72280056726626" lon="9.215351502187982"><ele>310.3333333333333</ele><time>2026-04-26T07:15:34Z</time></trkpt><trkpt lat="45.72295832306035" lon="9.215330493277792"><ele>310.6666666666667</ele><time>2026-04-26T07:15:35Z</time></trkpt><trkpt lat="45.72311229955657" lon="9.215311403863577"><ele>311.0</ele><time>2026-04-26T07:15:36Z</time></trkpt><trkpt lat="45.72326703807366" lon="9.215291972252778"><ele>311.0</ele><time>2026-04-26T07:15:37Z</time></trkpt><trkpt lat="45.723409542545674" lon="9.215273869572899"><ele>311.0</ele><time>2026-04-26T07:15:38Z</time></trkpt><trkpt lat="45.72354044233821" lon="9.215257149700594"><ele>311.0</ele><time>2026-04-26T07:15:39Z</time></trkpt><trkpt lat="45.72366392721494" lon="9.21524223786025"><ele>311.0</ele><time>2026-04-26T07:15:40Z</time></trkpt><trkpt lat="45.72380852687944" lon="9.21522465175577"><ele>311.25</ele><time>2026-04-26T07:15:41Z</time></trkpt><trkpt lat="45.723958222120295" lon="9.215206445928684"><ele>311.5</ele><time>2026-04-26T07:15:42Z</time></trkpt><trkpt lat="45.72409593434769" lon="9.21514125168523"><ele>311.75</ele><time>2026-04-26T07:15:43Z</time></trkpt><trkpt lat="45.724235878198286" lon="9.215131605096797"><ele>312.0</ele><time>2026-04-26T07:15:44Z</time></trkpt><trkpt lat="45.72436547664155" lon="9.215113892379877"><ele>312.25</ele><time>2026-04-26T07:15:45Z</time></trkpt><trkpt lat="45.7244889060029" lon="9.215100181047589"><ele>312.5</ele><time>2026-04-26T07:15:46Z</time></trkpt><trkpt lat="45.72459584491284" lon="9.215083655101132"><ele>312.75</ele><time>2026-04-26T07:15:47Z</time></trkpt><trkpt lat="45.72470643948489" lon="9.215111614857193"><ele>313.0</ele><time>2026-04-26T07:15:48Z</time></trkpt><trkpt lat="45.72481451203676" lon="9.215044870593061"><ele>313.0</ele><time>2026-04-26T07:15:49Z</time></trkpt><trkpt lat="45.724934984173196" lon="9.215042359629622"><ele>313.0</ele><time>2026-04-26T07:15:50Z</time></trkpt><trkpt lat="45.725040986729205" lon="9.215037062028188"><ele>313.0</ele><time>2026-04-26T07:15:51Z</time></trkpt><trkpt lat="45.725128424896845" lon="9.215017247531279"><ele>313.0</ele><time>2026-04-26T07:15:52Z</time></trkpt><trkpt lat="45.7251926413022" lon="9.21501321593217"><ele>313.0</ele><time>2026-04-26T07:15:53Z</time></trkpt><trkpt lat="45.725266674767674" lon="9.215032480514553"><ele>313.6</ele><time>2026-04-26T07:15:55Z</time></trkpt><trkpt lat="45.725343483720266" lon="9.21504947012529"><ele>314.20000000000005</ele><time>2026-04-26T07:15:57Z</time></trkpt><trkpt lat="45.72547519909268" lon="9.21502445327411"><ele>314.8</ele><time>2026-04-26T07:15:59Z</time></trkpt><trkpt lat="45.72556603184782" lon="9.215028111173549"><ele>315.40000000000003</ele><time>2026-04-26T07:16:00Z</time></trkpt><trkpt lat="45.72566185647512" lon="9.215042103469782"><ele>316.0</ele><time>2026-04-26T07:16:01Z</time></trkpt><trkpt lat="45.725744604432364" lon="9.215048424394649"><ele>316.0</ele><time>2026-04-26T07:16:02Z</time></trkpt><trkpt lat="45.72581881995877" lon="9.215027939079748"><ele>316.0</ele><time>2026-04-26T07:16:03Z</time></trkpt><trkpt lat="45.72589934837517" lon="9.214996356956956"><ele>316.0</ele><time>2026-04-26T07:16:04Z</time></trkpt><trkpt lat="45.72598592441661" lon="9.214959597803286"><ele>316.0</ele><time>2026-04-26T07:16:05Z</time></trkpt><trkpt lat="45.72605025126041" lon="9.214941601651256"><ele>316.0</ele><time>2026-04-26T07:16:06Z</time></trkpt><trkpt lat="45.72612221692304" lon="9.214920575968097"><ele>316.0</ele><time>2026-04-26T07:16:07.001Z</time></trkpt><trkpt lat="45.726193825279296" lon="9.214915787937517"><ele>316.8</ele><time>2026-04-26T07:16:08.001Z</time></trkpt><trkpt lat="45.72631339270028" lon="9.214890427888552"><ele>317.6</ele><time>2026-04-26T07:16:10.001Z</time></trkpt><trkpt lat="45.726390233950546" lon="9.214869479438564"><ele>318.4</ele><time>2026-04-26T07:16:11.001Z</time></trkpt><trkpt lat="45.726489566565114" lon="9.214888363568825"><ele>319.2</ele><time>2026-04-26T07:16:12.001Z</time></trkpt><trkpt lat="45.72660010318418" lon="9.214874207867965"><ele>320.0</ele><time>2026-04-26T07:16:13.001Z</time></trkpt><trkpt lat="45.72674868674978" lon="9.214854109603175"><ele>320.0</ele><time>2026-04-26T07:16:14.001Z</time></trkpt><trkpt lat="45.72688671528278" lon="9.214837172234104"><ele>320.0</ele><time>2026-04-26T07:16:15.001Z</time></trkpt><trkpt lat="45.72703119466225" lon="9.214819443285"><ele>320.0</ele><time>2026-04-26T07:16:16.001Z</time></trkpt><trkpt lat="45.72718858436016" lon="9.214776932827869"><ele>320.0</ele><time>2026-04-26T07:16:17.001Z</time></trkpt><trkpt lat="45.72734552280738" lon="9.214768799664428"><ele>321.33333333333337</ele><time>2026-04-26T07:16:18.001Z</time></trkpt><trkpt lat="45.72750332808565" lon="9.214757609813699"><ele>322.6666666666667</ele><time>2026-04-26T07:16:19.001Z</time></trkpt><trkpt lat="45.727669143176946" lon="9.214731010946256"><ele>324.0</ele><time>2026-04-26T07:16:20.001Z</time></trkpt><trkpt lat="45.7278256664084" lon="9.214714926388048"><ele>324.6666666666667</ele><time>2026-04-26T07:16:21.001Z</time></trkpt><trkpt lat="45.727995579800215" lon="9.214701038237857"><ele>325.33333333333337</ele><time>2026-04-26T07:16:22.001Z</time></trkpt><trkpt lat="45.72815754510985" lon="9.21468132720758"><ele>326.0</ele><time>2026-04-26T07:16:23.001Z</time></trkpt><trkpt lat="45.728322269519914" lon="9.2146627617513"><ele>326.0</ele><time>2026-04-26T07:16:24.001Z</time></trkpt><trkpt lat="45.72847597271916" lon="9.214629194196677"><ele>326.0</ele><time>2026-04-26T07:16:25.001Z</time></trkpt><trkpt lat="45.72864471939717" lon="9.214607654553394"><ele>326.0</ele><time>2026-04-26T07:16:26.001Z</time></trkpt><trkpt lat="45.72881173958807" lon="9.21458761623862"><ele>325.33333333333337</ele><time>2026-04-26T07:16:27.001Z</time></trkpt><trkpt lat="45.72898188656559" lon="9.214563413596366"><ele>324.6666666666667</ele><time>2026-04-26T07:16:28.001Z</time></trkpt><trkpt lat="45.72915090605297" lon="9.214543606527563"><ele>324.0</ele><time>2026-04-26T07:16:29.001Z</time></trkpt><trkpt lat="45.72931110132854" lon="9.214519007063842"><ele>323.0</ele><time>2026-04-26T07:16:30.001Z</time></trkpt><trkpt lat="45.729472570779386" lon="9.214500765588292"><ele>322.0</ele><time>2026-04-26T07:16:31.001Z</time></trkpt><trkpt lat="45.729638573154304" lon="9.21447382758983"><ele>321.0</ele><time>2026-04-26T07:16:32.001Z</time></trkpt><trkpt lat="45.72980040565573" lon="9.21445751824603"><ele>321.0</ele><time>2026-04-26T07:16:33.001Z</time></trkpt><trkpt lat="45.72995887672064" lon="9.214434553255378"><ele>321.0</ele><time>2026-04-26T07:16:34.001Z</time></trkpt><trkpt lat="45.73009981330373" lon="9.214416540002375"><ele>321.0</ele><time>2026-04-26T07:16:35.001Z</time></trkpt><trkpt lat="45.730248854962944" lon="9.21440695708716"><ele>321.25</ele><time>2026-04-26T07:16:36.001Z</time></trkpt><trkpt lat="45.730391255706756" lon="9.21439197547175"><ele>321.5</ele><time>2026-04-26T07:16:37.001Z</time></trkpt><trkpt lat="45.73053113684653" lon="9.214368222047769"><ele>321.75</ele><time>2026-04-26T07:16:38.001Z</time></trkpt><trkpt lat="45.73067453170152" lon="9.214352746193338"><ele>322.0</ele><time>2026-04-26T07:16:39.001Z</time></trkpt><trkpt lat="45.73079962814597" lon="9.214344187633335"><ele>322.0</ele><time>2026-04-26T07:16:40.001Z</time></trkpt><trkpt lat="45.73093605120818" lon="9.214313572930688"><ele>322.0</ele><time>2026-04-26T07:16:41.001Z</time></trkpt><trkpt lat="45.731060055503136" lon="9.214287528341343"><ele>322.0</ele><time>2026-04-26T07:16:42.001Z</time></trkpt><trkpt lat="45.73117060092397" lon="9.214277277618937"><ele>322.0</ele><time>2026-04-26T07:16:43.001Z</time></trkpt><trkpt lat="45.73128158664227" lon="9.21429746577389"><ele>323.0</ele><time>2026-04-26T07:16:44.001Z</time></trkpt><trkpt lat="45.73139231805279" lon="9.21427091409264"><ele>324.0</ele><time>2026-04-26T07:16:45.001Z</time></trkpt><trkpt lat="45.731481348670876" lon="9.214195846314686"><ele>325.0</ele><time>2026-04-26T07:16:46.001Z</time></trkpt><trkpt lat="45.731574075427005" lon="9.21410155356063"><ele>326.0</ele><time>2026-04-26T07:16:47.001Z</time></trkpt><trkpt lat="45.73167410052641" lon="9.214012501055741"><ele>327.0</ele><time>2026-04-26T07:16:48.001Z</time></trkpt><trkpt lat="45.731800841604596" lon="9.213956249472838"><ele>331.3333333333333</ele><time>2026-04-26T07:16:49.001Z</time></trkpt><trkpt lat="45.73193924296659" lon="9.213895542956433"><ele>335.66666666666663</ele><time>2026-04-26T07:16:50.001Z</time></trkpt><trkpt lat="45.732084810249994" lon="9.213822350454217"><ele>340.0</ele><time>2026-04-26T07:16:51.001Z</time></trkpt><trkpt lat="45.73224632070438" lon="9.21374439322693"><ele>340.0</ele><time>2026-04-26T07:16:52.001Z</time></trkpt><trkpt lat="45.73240266268056" lon="9.213664421079649"><ele>340.0</ele><time>2026-04-26T07:16:53.001Z</time></trkpt><trkpt lat="45.73257229447824" lon="9.213581213831663"><ele>340.0</ele><time>2026-04-26T07:16:54.001Z</time></trkpt><trkpt lat="45.73275006091206" lon="9.21349540154301"><ele>340.66666666666663</ele><time>2026-04-26T07:16:55.001Z</time></trkpt><trkpt lat="45.73292994532085" lon="9.213414283682344"><ele>341.3333333333333</ele><time>2026-04-26T07:16:56.001Z</time></trkpt><trkpt lat="45.73310805953184" lon="9.213313838157985"><ele>342.0</ele><time>2026-04-26T07:16:57.001Z</time></trkpt><trkpt lat="45.73328883913889" lon="9.213218510542635"><ele>344.3333333333333</ele><time>2026-04-26T07:16:58.001Z</time></trkpt><trkpt lat="45.73347695246925" lon="9.213139709246455"><ele>346.66666666666663</ele><time>2026-04-26T07:16:59.001Z</time></trkpt><trkpt lat="45.73367609489214" lon="9.213062139137005"><ele>349.0</ele><time>2026-04-26T07:17:00.001Z</time></trkpt><trkpt lat="45.73387086393634" lon="9.212989628029082"><ele>350.3333333333333</ele><time>2026-04-26T07:17:01.001Z</time></trkpt><trkpt lat="45.734062104833086" lon="9.212922619178778"><ele>351.6666666666667</ele><time>2026-04-26T07:17:02.001Z</time></trkpt><trkpt lat="45.73425296931686" lon="9.212876393101206"><ele>353.0</ele><time>2026-04-26T07:17:03.001Z</time></trkpt><trkpt lat="45.73445704251471" lon="9.21285520220162"><ele>353.33333333333337</ele><time>2026-04-26T07:17:04.001Z</time></trkpt><trkpt lat="45.73465497793681" lon="9.212856915988633"><ele>353.6666666666667</ele><time>2026-04-26T07:17:05.001Z</time></trkpt><trkpt lat="45.73485494674729" lon="9.212893162256828"><ele>354.0</ele><time>2026-04-26T07:17:06.001Z</time></trkpt><trkpt lat="45.73505508065293" lon="9.212955402714737"><ele>352.3333333333333</ele><time>2026-04-26T07:17:07.001Z</time></trkpt><trkpt lat="45.73525690215608" lon="9.213043922890249"><ele>350.66666666666663</ele><time>2026-04-26T07:17:08.001Z</time></trkpt><trkpt lat="45.73544172498263" lon="9.213148982868375"><ele>349.0</ele><time>2026-04-26T07:17:09.001Z</time></trkpt><trkpt lat="45.73563266816213" lon="9.213271233357863"><ele>349.0</ele><time>2026-04-26T07:17:10.001Z</time></trkpt><trkpt lat="45.735827994212066" lon="9.213388316093369"><ele>349.0</ele><time>2026-04-26T07:17:11.001Z</time></trkpt><trkpt lat="45.7360219414163" lon="9.213495193034616"><ele>349.0</ele><time>2026-04-26T07:17:12.001Z</time></trkpt><trkpt lat="45.73620211528833" lon="9.213579540116655"><ele>350.3333333333333</ele><time>2026-04-26T07:17:13.001Z</time></trkpt><trkpt lat="45.73640156423917" lon="9.213683625463783"><ele>351.6666666666667</ele><time>2026-04-26T07:17:14.001Z</time></trkpt><trkpt lat="45.73659786892477" lon="9.21378913299411"><ele>353.0</ele><time>2026-04-26T07:17:15.001Z</time></trkpt><trkpt lat="45.73678263182274" lon="9.21388647388998"><ele>354.0</ele><time>2026-04-26T07:17:16Z</time></trkpt><trkpt lat="45.73695680057798" lon="9.213976600578093"><ele>355.0</ele><time>2026-04-26T07:17:17Z</time></trkpt><trkpt lat="45.737151336503516" lon="9.214085002335366"><ele>356.0</ele><time>2026-04-26T07:17:18Z</time></trkpt><trkpt lat="45.73734985945369" lon="9.214187850155835"><ele>356.0</ele><time>2026-04-26T07:17:19Z</time></trkpt><trkpt lat="45.7375370296692" lon="9.214274367612571"><ele>356.0</ele><time>2026-04-26T07:17:20Z</time></trkpt><trkpt lat="45.73772524493174" lon="9.214352652978917"><ele>356.0</ele><time>2026-04-26T07:17:21Z</time></trkpt><trkpt lat="45.73791868789683" lon="9.214424790568804"><ele>355.33333333333337</ele><time>2026-04-26T07:17:22Z</time></trkpt><trkpt lat="45.738123516480236" lon="9.214497190052574"><ele>354.6666666666667</ele><time>2026-04-26T07:17:23Z</time></trkpt><trkpt lat="45.73830610105315" lon="9.214533942365664"><ele>354.0</ele><time>2026-04-26T07:17:24Z</time></trkpt><trkpt lat="45.73849760315126" lon="9.214583747596514"><ele>351.3333333333333</ele><time>2026-04-26T07:17:25Z</time></trkpt><trkpt lat="45.73867854362014" lon="9.214627853306036"><ele>348.66666666666663</ele><time>2026-04-26T07:17:26Z</time></trkpt><trkpt lat="45.738853810958666" lon="9.214667052246279"><ele>346.0</ele><time>2026-04-26T07:17:27Z</time></trkpt><trkpt lat="45.739018012901155" lon="9.214702338685035"><ele>346.0</ele><time>2026-04-26T07:17:28Z</time></trkpt><trkpt lat="45.739171831579746" lon="9.21473420052713"><ele>346.0</ele><time>2026-04-26T07:17:29Z</time></trkpt><trkpt lat="45.73934636469276" lon="9.214775530835077"><ele>346.0</ele><time>2026-04-26T07:17:30Z</time></trkpt><trkpt lat="45.7394854484012" lon="9.214800120319085"><ele>347.75</ele><time>2026-04-26T07:17:31Z</time></trkpt><trkpt lat="45.73962067644217" lon="9.214870027428532"><ele>349.5</ele><time>2026-04-26T07:17:32Z</time></trkpt><trkpt lat="45.73975459119156" lon="9.214906810462288"><ele>351.25</ele><time>2026-04-26T07:17:33Z</time></trkpt><trkpt lat="45.73988768335483" lon="9.214956787754176"><ele>353.0</ele><time>2026-04-26T07:17:34Z</time></trkpt><trkpt lat="45.740022669378256" lon="9.214986899423353"><ele>353.0</ele><time>2026-04-26T07:17:35Z</time></trkpt><trkpt lat="45.74015864684592" lon="9.2150174920729"><ele>353.0</ele><time>2026-04-26T07:17:36Z</time></trkpt><trkpt lat="45.740299028731904" lon="9.215065305081806"><ele>353.0</ele><time>2026-04-26T07:17:37Z</time></trkpt><trkpt lat="45.74043043691767" lon="9.215106351955665"><ele>353.0</ele><time>2026-04-26T07:17:38Z</time></trkpt><trkpt lat="45.74056489418485" lon="9.215133282436474"><ele>353.5</ele><time>2026-04-26T07:17:39Z</time></trkpt><trkpt lat="45.74070312005939" lon="9.21516987919441"><ele>354.0</ele><time>2026-04-26T07:17:40Z</time></trkpt><trkpt lat="45.74084729077187" lon="9.215202956129906"><ele>354.5</ele><time>2026-04-26T07:17:41Z</time></trkpt><trkpt lat="45.74098970344242" lon="9.215242446584622"><ele>355.0</ele><time>2026-04-26T07:17:42Z</time></trkpt><trkpt lat="45.74114043679048" lon="9.215280385445038"><ele>356.0</ele><time>2026-04-26T07:17:43Z</time></trkpt><trkpt lat="45.7412924457142" lon="9.215320875616634"><ele>357.0</ele><time>2026-04-26T07:17:44Z</time></trkpt><trkpt lat="45.741448995076055" lon="9.215370687730505"><ele>358.0</ele><time>2026-04-26T07:17:45Z</time></trkpt><trkpt lat="45.7416113571723" lon="9.215432881210255"><ele>358.0</ele><time>2026-04-26T07:17:46Z</time></trkpt><trkpt lat="45.74177318864387" lon="9.21550045922581"><ele>358.0</ele><time>2026-04-26T07:17:47Z</time></trkpt><trkpt lat="45.74193564925739" lon="9.215597371573057"><ele>358.0</ele><time>2026-04-26T07:17:48Z</time></trkpt><trkpt lat="45.742103180795176" lon="9.215712187208924"><ele>357.3333333333333</ele><time>2026-04-26T07:17:49Z</time></trkpt><trkpt lat="45.74226204937752" lon="9.215860935406438"><ele>356.6666666666667</ele><time>2026-04-26T07:17:50Z</time></trkpt><trkpt lat="45.74243217528377" lon="9.216055687712085"><ele>356.0</ele><time>2026-04-26T07:17:51Z</time></trkpt><trkpt lat="45.74257393932773" lon="9.216207733317388"><ele>356.0</ele><time>2026-04-26T07:17:52Z</time></trkpt><trkpt lat="45.742695571810295" lon="9.216324058404084"><ele>356.0</ele><time>2026-04-26T07:17:53Z</time></trkpt><trkpt lat="45.74281836764577" lon="9.216472706921143"><ele>356.0</ele><time>2026-04-26T07:17:54Z</time></trkpt><trkpt lat="45.74294858456244" lon="9.216624392974685"><ele>355.33333333333337</ele><time>2026-04-26T07:17:55Z</time></trkpt><trkpt lat="45.74307927065701" lon="9.216762024696068"><ele>354.6666666666667</ele><time>2026-04-26T07:17:56Z</time></trkpt><trkpt lat="45.743219332308776" lon="9.216902197907146"><ele>354.0</ele><time>2026-04-26T07:17:57Z</time></trkpt><trkpt lat="45.74336657148248" lon="9.217065519385308"><ele>354.0</ele><time>2026-04-26T07:17:58Z</time></trkpt><trkpt lat="45.74351506438111" lon="9.217225095152768"><ele>354.0</ele><time>2026-04-26T07:17:59Z</time></trkpt><trkpt lat="45.743652617691815" lon="9.217380321879574"><ele>354.0</ele><time>2026-04-26T07:18:00Z</time></trkpt><trkpt lat="45.74379393508466" lon="9.21753541628437"><ele>352.3333333333333</ele><time>2026-04-26T07:18:01Z</time></trkpt><trkpt lat="45.743936242372214" lon="9.217688603020177"><ele>350.66666666666663</ele><time>2026-04-26T07:18:02Z</time></trkpt><trkpt lat="45.744081074181686" lon="9.217851814550928"><ele>349.0</ele><time>2026-04-26T07:18:03Z</time></trkpt><trkpt lat="45.744233648228935" lon="9.218016025471904"><ele>347.0</ele><time>2026-04-26T07:18:04Z</time></trkpt><trkpt lat="45.744402156698385" lon="9.21816106313244"><ele>345.0</ele><time>2026-04-26T07:18:05Z</time></trkpt><trkpt lat="45.7445517125851" lon="9.218320894091395"><ele>343.0</ele><time>2026-04-26T07:18:06Z</time></trkpt><trkpt lat="45.74471930485906" lon="9.21851357496964"><ele>343.0</ele><time>2026-04-26T07:18:07Z</time></trkpt><trkpt lat="45.74477211722758" lon="9.218582205102564"><ele>343.0</ele><time>2026-04-26T07:18:08.001Z</time></trkpt><trkpt lat="45.74490928347848" lon="9.218746535531315"><ele>343.0</ele><time>2026-04-26T07:18:09.001Z</time></trkpt><trkpt lat="45.74504708081346" lon="9.218893779243675"><ele>343.0</ele><time>2026-04-26T07:18:10.001Z</time></trkpt><trkpt lat="45.74517539880768" lon="9.219040443512917"><ele>341.66666666666663</ele><time>2026-04-26T07:18:11.001Z</time></trkpt><trkpt lat="45.74530497893457" lon="9.219174081860794"><ele>340.3333333333333</ele><time>2026-04-26T07:18:12.001Z</time></trkpt><trkpt lat="45.74544460578659" lon="9.219299499528315"><ele>339.0</ele><time>2026-04-26T07:18:13.001Z</time></trkpt><trkpt lat="45.74559232830888" lon="9.219420000737564"><ele>339.0</ele><time>2026-04-26T07:18:14.001Z</time></trkpt><trkpt lat="45.74574480171159" lon="9.219532567097534"><ele>339.0</ele><time>2026-04-26T07:18:15.001Z</time></trkpt><trkpt lat="45.74590034919031" lon="9.219626780947094"><ele>339.0</ele><time>2026-04-26T07:18:16.001Z</time></trkpt><trkpt lat="45.746055469904434" lon="9.219693594561553"><ele>339.0</ele><time>2026-04-26T07:18:17.001Z</time></trkpt><trkpt lat="45.74621396646209" lon="9.219729240930544"><ele>339.0</ele><time>2026-04-26T07:18:18.001Z</time></trkpt><trkpt lat="45.74638600424848" lon="9.219764567378867"><ele>339.0</ele><time>2026-04-26T07:18:19.001Z</time></trkpt><trkpt lat="45.74653758727133" lon="9.219804448636863"><ele>338.6666666666667</ele><time>2026-04-26T07:18:20.001Z</time></trkpt><trkpt lat="45.74669966523805" lon="9.219832995379601"><ele>338.33333333333337</ele><time>2026-04-26T07:18:21.001Z</time></trkpt><trkpt lat="45.74686034724602" lon="9.219875860754366"><ele>338.0</ele><time>2026-04-26T07:18:22.001Z</time></trkpt><trkpt lat="45.74701866650151" lon="9.219915350883298"><ele>338.0</ele><time>2026-04-26T07:18:23.001Z</time></trkpt><trkpt lat="45.747164205656" lon="9.219953302201597"><ele>338.0</ele><time>2026-04-26T07:18:24.001Z</time></trkpt><trkpt lat="45.747307389614875" lon="9.219993359139067"><ele>338.0</ele><time>2026-04-26T07:18:25.001Z</time></trkpt><trkpt lat="45.747453276891534" lon="9.220039258707521"><ele>338.0</ele><time>2026-04-26T07:18:26.001Z</time></trkpt><trkpt lat="45.74759535115584" lon="9.220090072347427"><ele>338.0</ele><time>2026-04-26T07:18:27.001Z</time></trkpt><trkpt lat="45.74774173158982" lon="9.220126008773446"><ele>338.0</ele><time>2026-04-26T07:18:28.001Z</time></trkpt><trkpt lat="45.747881694011646" lon="9.220160364588411"><ele>338.0</ele><time>2026-04-26T07:18:29.001Z</time></trkpt><trkpt lat="45.74799416459518" lon="9.22017808061451"><ele>338.0</ele><time>2026-04-26T07:18:30.001Z</time></trkpt><trkpt lat="45.74808828419907" lon="9.22020441817514"><ele>338.0</ele><time>2026-04-26T07:18:31.001Z</time></trkpt><trkpt lat="45.74815894365582" lon="9.2202248196517"><ele>338.0</ele><time>2026-04-26T07:18:32.001Z</time></trkpt><trkpt lat="45.74821593627896" lon="9.22027072486402"><ele>338.0</ele><time>2026-04-26T07:18:33.001Z</time></trkpt><trkpt lat="45.74831588109182" lon="9.220372982166682"><ele>338.0</ele><time>2026-04-26T07:18:35.001Z</time></trkpt><trkpt lat="45.74837678849619" lon="9.220425327479186"><ele>338.0</ele><time>2026-04-26T07:18:36.001Z</time></trkpt><trkpt lat="45.74846592069384" lon="9.220455600557356"><ele>338.0</ele><time>2026-04-26T07:18:37.001Z</time></trkpt><trkpt lat="45.748581029858435" lon="9.220449272223481"><ele>338.0</ele><time>2026-04-26T07:18:38.001Z</time></trkpt><trkpt lat="45.748716356425206" lon="9.220421807654722"><ele>338.0</ele><time>2026-04-26T07:18:39.001Z</time></trkpt><trkpt lat="45.74884616510011" lon="9.220403455047764"><ele>338.0</ele><time>2026-04-26T07:18:40.001Z</time></trkpt><trkpt lat="45.74898491552965" lon="9.220401651641794"><ele>338.0</ele><time>2026-04-26T07:18:41.001Z</time></trkpt><trkpt lat="45.749112563615505" lon="9.220415082369884"><ele>338.0</ele><time>2026-04-26T07:18:42.001Z</time></trkpt><trkpt lat="45.74923470104782" lon="9.220436174966538"><ele>338.0</ele><time>2026-04-26T07:18:43.001Z</time></trkpt><trkpt lat="45.749365523964876" lon="9.220464527994553"><ele>338.0</ele><time>2026-04-26T07:18:44.001Z</time></trkpt><trkpt lat="45.74949044479841" lon="9.22050326311683"><ele>338.0</ele><time>2026-04-26T07:18:45.001Z</time></trkpt><trkpt lat="45.74962119655222" lon="9.220556532269546"><ele>338.33333333333337</ele><time>2026-04-26T07:18:46.001Z</time></trkpt><trkpt lat="45.74976007619493" lon="9.220633756987558"><ele>338.6666666666667</ele><time>2026-04-26T07:18:47.001Z</time></trkpt><trkpt lat="45.749898113219075" lon="9.22072077456185"><ele>339.0</ele><time>2026-04-26T07:18:48.001Z</time></trkpt><trkpt lat="45.750031470385224" lon="9.220829268673992"><ele>338.75</ele><time>2026-04-26T07:18:49.001Z</time></trkpt><trkpt lat="45.750161497672345" lon="9.220933679354987"><ele>338.5</ele><time>2026-04-26T07:18:50.001Z</time></trkpt><trkpt lat="45.75029187358059" lon="9.221031146344627"><ele>338.25</ele><time>2026-04-26T07:18:51.001Z</time></trkpt><trkpt lat="45.75042228231678" lon="9.221124353447912"><ele>338.0</ele><time>2026-04-26T07:18:52.001Z</time></trkpt><trkpt lat="45.75054525650906" lon="9.22120518554073"><ele>338.0</ele><time>2026-04-26T07:18:53.001Z</time></trkpt><trkpt lat="45.75065751144786" lon="9.221285457492241"><ele>338.0</ele><time>2026-04-26T07:18:54.001Z</time></trkpt><trkpt lat="45.75076701660826" lon="9.221364924000524"><ele>338.0</ele><time>2026-04-26T07:18:55.001Z</time></trkpt><trkpt lat="45.75086850115357" lon="9.221434311612294"><ele>338.0</ele><time>2026-04-26T07:18:56.001Z</time></trkpt><trkpt lat="45.75096040640852" lon="9.221486372071295"><ele>337.83333333333337</ele><time>2026-04-26T07:18:57.001Z</time></trkpt><trkpt lat="45.751042746638795" lon="9.221563769622549"><ele>337.6666666666667</ele><time>2026-04-26T07:18:58.001Z</time></trkpt><trkpt lat="45.75111689815374" lon="9.22164009055881"><ele>337.5</ele><time>2026-04-26T07:18:59.001Z</time></trkpt><trkpt lat="45.75118602410278" lon="9.22168964920044"><ele>337.3333333333333</ele><time>2026-04-26T07:19:00.001Z</time></trkpt><trkpt lat="45.75125833172702" lon="9.221728806530365"><ele>337.16666666666663</ele><time>2026-04-26T07:19:01.001Z</time></trkpt><trkpt lat="45.75134523740777" lon="9.221777784224898"><ele>337.0</ele><time>2026-04-26T07:19:05.001Z</time></trkpt><trkpt lat="45.751426693939486" lon="9.221827896231604"><ele>337.0</ele><time>2026-04-26T07:19:06.001Z</time></trkpt><trkpt lat="45.75152958996952" lon="9.221911559402459"><ele>337.0</ele><time>2026-04-26T07:19:07.001Z</time></trkpt><trkpt lat="45.7516251932976" lon="9.221986893579048"><ele>337.0</ele><time>2026-04-26T07:19:08.001Z</time></trkpt><trkpt lat="45.75173811433334" lon="9.222065326941202"><ele>337.0</ele><time>2026-04-26T07:19:09.001Z</time></trkpt><trkpt lat="45.75185523221891" lon="9.22215827289229"><ele>336.66666666666663</ele><time>2026-04-26T07:19:10.001Z</time></trkpt><trkpt lat="45.751997901356475" lon="9.222259483697938"><ele>336.3333333333333</ele><time>2026-04-26T07:19:11.001Z</time></trkpt><trkpt lat="45.75216813976348" lon="9.222377478891437"><ele>336.0</ele><time>2026-04-26T07:19:12.001Z</time></trkpt><trkpt lat="45.752349708087905" lon="9.222491335058372"><ele>336.3333333333333</ele><time>2026-04-26T07:19:13.001Z</time></trkpt><trkpt lat="45.752514682583104" lon="9.222612902621659"><ele>336.66666666666663</ele><time>2026-04-26T07:19:14.001Z</time></trkpt><trkpt lat="45.75268119835394" lon="9.222711600340535"><ele>337.0</ele><time>2026-04-26T07:19:15.001Z</time></trkpt><trkpt lat="45.75282546526553" lon="9.222821480905525"><ele>337.0</ele><time>2026-04-26T07:19:16.001Z</time></trkpt><trkpt lat="45.752967849818766" lon="9.222904794554559"><ele>337.0</ele><time>2026-04-26T07:19:17.001Z</time></trkpt><trkpt lat="45.75309267655838" lon="9.222991557554412"><ele>337.0</ele><time>2026-04-26T07:19:18.001Z</time></trkpt><trkpt lat="45.753212653414806" lon="9.223082039988284"><ele>337.0</ele><time>2026-04-26T07:19:19.001Z</time></trkpt><trkpt lat="45.75330979282487" lon="9.223184913186213"><ele>336.8</ele><time>2026-04-26T07:19:20.001Z</time></trkpt><trkpt lat="45.753389269357754" lon="9.223284965807279"><ele>336.6</ele><time>2026-04-26T07:19:21.001Z</time></trkpt><trkpt lat="45.753458415069" lon="9.223373894262284"><ele>336.40000000000003</ele><time>2026-04-26T07:19:22.001Z</time></trkpt><trkpt lat="45.75353626520698" lon="9.223419155668422"><ele>336.20000000000005</ele><time>2026-04-26T07:19:23.001Z</time></trkpt><trkpt lat="45.753615279438044" lon="9.223427409706495"><ele>336.0</ele><time>2026-04-26T07:19:24.001Z</time></trkpt><trkpt lat="45.75372033000393" lon="9.223417195632338"><ele>336.0</ele><time>2026-04-26T07:19:25.001Z</time></trkpt><trkpt lat="45.75383401976522" lon="9.223419984081849"><ele>336.0</ele><time>2026-04-26T07:19:26.001Z</time></trkpt><trkpt lat="45.753944530726336" lon="9.223501422357394"><ele>336.0</ele><time>2026-04-26T07:19:27.001Z</time></trkpt><trkpt lat="45.75406285723032" lon="9.223577080467859"><ele>336.0</ele><time>2026-04-26T07:19:28.001Z</time></trkpt><trkpt lat="45.75420696203904" lon="9.22364817135072"><ele>336.0</ele><time>2026-04-26T07:19:29.001Z</time></trkpt><trkpt lat="45.754348107019496" lon="9.223745899247124"><ele>336.0</ele><time>2026-04-26T07:19:30.001Z</time></trkpt><trkpt lat="45.754507054408336" lon="9.22384893838759"><ele>336.0</ele><time>2026-04-26T07:19:31.001Z</time></trkpt><trkpt lat="45.75466192319867" lon="9.223957562809215"><ele>336.3333333333333</ele><time>2026-04-26T07:19:32.001Z</time></trkpt><trkpt lat="45.754817895229735" lon="9.224057739790627"><ele>336.66666666666663</ele><time>2026-04-26T07:19:33.001Z</time></trkpt><trkpt lat="45.754979705185704" lon="9.22415831246147"><ele>337.0</ele><time>2026-04-26T07:19:34Z</time></trkpt><trkpt lat="45.75514641212314" lon="9.224256837728412"><ele>335.66666666666663</ele><time>2026-04-26T07:19:35Z</time></trkpt><trkpt lat="45.75530912616627" lon="9.22436292068559"><ele>334.3333333333333</ele><time>2026-04-26T07:19:36Z</time></trkpt><trkpt lat="45.755457855366295" lon="9.224458214805455"><ele>333.0</ele><time>2026-04-26T07:19:37Z</time></trkpt><trkpt lat="45.755596485044585" lon="9.224557157052772"><ele>333.0</ele><time>2026-04-26T07:19:38Z</time></trkpt><trkpt lat="45.75574052024502" lon="9.224648157538578"><ele>333.0</ele><time>2026-04-26T07:19:39Z</time></trkpt><trkpt lat="45.7558840634498" lon="9.224738610393093"><ele>333.0</ele><time>2026-04-26T07:19:40Z</time></trkpt><trkpt lat="45.756015607414895" lon="9.224825918592918"><ele>332.25</ele><time>2026-04-26T07:19:41Z</time></trkpt><trkpt lat="45.75614870862336" lon="9.224907605175513"><ele>331.5</ele><time>2026-04-26T07:19:42Z</time></trkpt><trkpt lat="45.756272099952916" lon="9.224986573758331"><ele>330.75</ele><time>2026-04-26T07:19:43Z</time></trkpt><trkpt lat="45.756384363744935" lon="9.225056616013655"><ele>330.0</ele><time>2026-04-26T07:19:44Z</time></trkpt><trkpt lat="45.756484167450466" lon="9.225128061675628"><ele>330.0</ele><time>2026-04-26T07:19:45Z</time></trkpt><trkpt lat="45.75658074024225" lon="9.225198592056072"><ele>330.0</ele><time>2026-04-26T07:19:46Z</time></trkpt><trkpt lat="45.756660845589394" lon="9.225265059516731"><ele>330.0</ele><time>2026-04-26T07:19:47Z</time></trkpt><trkpt lat="45.75672866551969" lon="9.225343158455551"><ele>330.0</ele><time>2026-04-26T07:19:48Z</time></trkpt><trkpt lat="45.75680263243454" lon="9.225397013998034"><ele>330.0</ele><time>2026-04-26T07:19:49Z</time></trkpt><trkpt lat="45.756896680386326" lon="9.225413076737546"><ele>329.25</ele><time>2026-04-26T07:19:50Z</time></trkpt><trkpt lat="45.757016881977954" lon="9.22541101387508"><ele>328.5</ele><time>2026-04-26T07:19:51Z</time></trkpt><trkpt lat="45.757148461178915" lon="9.225454027984012"><ele>327.75</ele><time>2026-04-26T07:19:52Z</time></trkpt><trkpt lat="45.75726073670011" lon="9.225508942499562"><ele>327.0</ele><time>2026-04-26T07:19:53Z</time></trkpt><trkpt lat="45.7573503028609" lon="9.225537275765735"><ele>327.0</ele><time>2026-04-26T07:19:54Z</time></trkpt><trkpt lat="45.757413348195165" lon="9.225554598393195"><ele>327.0</ele><time>2026-04-26T07:19:55Z</time></trkpt><trkpt lat="45.75752589363542" lon="9.2256249210316"><ele>327.0</ele><time>2026-04-26T07:19:57Z</time></trkpt><trkpt lat="45.757582767834215" lon="9.22569380439383"><ele>327.0</ele><time>2026-04-26T07:19:58Z</time></trkpt><trkpt lat="45.75763245257985" lon="9.225751604515905"><ele>327.0</ele><time>2026-04-26T07:19:59Z</time></trkpt><trkpt lat="45.75769378650456" lon="9.225788602411248"><ele>327.0</ele><time>2026-04-26T07:20:00Z</time></trkpt><trkpt lat="45.75775807109538" lon="9.225785554573127"><ele>326.42857142857144</ele><time>2026-04-26T07:20:01Z</time></trkpt><trkpt lat="45.75781769288428" lon="9.225754813180014"><ele>325.8571428571429</ele><time>2026-04-26T07:20:02Z</time></trkpt><trkpt lat="45.75787886624793" lon="9.225715849046235"><ele>325.28571428571433</ele><time>2026-04-26T07:20:03Z</time></trkpt><trkpt lat="45.75795088751066" lon="9.225678990712069"><ele>324.7142857142857</ele><time>2026-04-26T07:20:04Z</time></trkpt><trkpt lat="45.758029100443856" lon="9.225663207061595"><ele>324.14285714285717</ele><time>2026-04-26T07:20:05Z</time></trkpt><trkpt lat="45.75810240964304" lon="9.225688923016728"><ele>323.5714285714286</ele><time>2026-04-26T07:20:06Z</time></trkpt><trkpt lat="45.7581901383187" lon="9.225692218008609"><ele>323.0</ele><time>2026-04-26T07:20:07Z</time></trkpt><trkpt lat="45.75827803529775" lon="9.225730810356007"><ele>323.0</ele><time>2026-04-26T07:20:08Z</time></trkpt><trkpt lat="45.75838093669838" lon="9.225758328414482"><ele>323.0</ele><time>2026-04-26T07:20:09Z</time></trkpt><trkpt lat="45.758492895580666" lon="9.225788843086594"><ele>323.0</ele><time>2026-04-26T07:20:10Z</time></trkpt><trkpt lat="45.758632195562384" lon="9.225826285023919"><ele>323.0</ele><time>2026-04-26T07:20:11Z</time></trkpt><trkpt lat="45.75880187421378" lon="9.22588207837073"><ele>323.0</ele><time>2026-04-26T07:20:12Z</time></trkpt><trkpt lat="45.75897764544471" lon="9.225938878297848"><ele>323.0</ele><time>2026-04-26T07:20:13Z</time></trkpt><trkpt lat="45.759143341436854" lon="9.225991687448552"><ele>323.0</ele><time>2026-04-26T07:20:14Z</time></trkpt><trkpt lat="45.75929419890749" lon="9.226045917976517"><ele>324.6666666666667</ele><time>2026-04-26T07:20:15Z</time></trkpt><trkpt lat="45.75944160840789" lon="9.22607951003414"><ele>326.3333333333333</ele><time>2026-04-26T07:20:16Z</time></trkpt><trkpt lat="45.75958925712614" lon="9.226120813671752"><ele>328.0</ele><time>2026-04-26T07:20:17Z</time></trkpt><trkpt lat="45.75976058641877" lon="9.226163705320452"><ele>328.0</ele><time>2026-04-26T07:20:18Z</time></trkpt><trkpt lat="45.759960813993885" lon="9.226211761336446"><ele>328.0</ele><time>2026-04-26T07:20:19Z</time></trkpt><trkpt lat="45.760168658260895" lon="9.226286540926896"><ele>328.0</ele><time>2026-04-26T07:20:20Z</time></trkpt><trkpt lat="45.7603802463163" lon="9.226364769289976"><ele>325.0</ele><time>2026-04-26T07:20:21Z</time></trkpt><trkpt lat="45.76060374881941" lon="9.226453860564522"><ele>322.0</ele><time>2026-04-26T07:20:22Z</time></trkpt><trkpt lat="45.76082541087325" lon="9.226602594780166"><ele>318.5</ele><time>2026-04-26T07:20:23Z</time></trkpt><trkpt lat="45.7610397573384" lon="9.226783011285441"><ele>315.0</ele><time>2026-04-26T07:20:24Z</time></trkpt><trkpt lat="45.76125388329902" lon="9.226978519253185"><ele>315.0</ele><time>2026-04-26T07:20:25Z</time></trkpt><trkpt lat="45.761456945254594" lon="9.227173391391798"><ele>315.0</ele><time>2026-04-26T07:20:26Z</time></trkpt><trkpt lat="45.761686091584664" lon="9.227364234800962"><ele>309.5</ele><time>2026-04-26T07:20:27Z</time></trkpt><trkpt lat="45.76187977163958" lon="9.227556008622889"><ele>304.0</ele><time>2026-04-26T07:20:28Z</time></trkpt><trkpt lat="45.762080619152215" lon="9.22774242463086"><ele>304.0</ele><time>2026-04-26T07:20:29Z</time></trkpt><trkpt lat="45.76227757986947" lon="9.227926153962892"><ele>304.0</ele><time>2026-04-26T07:20:30Z</time></trkpt><trkpt lat="45.76246386721097" lon="9.228095518348466"><ele>304.0</ele><time>2026-04-26T07:20:31Z</time></trkpt><trkpt lat="45.76265171578054" lon="9.228255930472054"><ele>304.0</ele><time>2026-04-26T07:20:32Z</time></trkpt><trkpt lat="45.76285800340004" lon="9.228378008291935"><ele>304.0</ele><time>2026-04-26T07:20:33Z</time></trkpt><trkpt lat="45.76307010626732" lon="9.228453486767286"><ele>304.0</ele><time>2026-04-26T07:20:34Z</time></trkpt><trkpt lat="45.7632857432388" lon="9.228511280187892"><ele>304.0</ele><time>2026-04-26T07:20:35Z</time></trkpt><trkpt lat="45.76350977255961" lon="9.228542424742823"><ele>304.0</ele><time>2026-04-26T07:20:36Z</time></trkpt><trkpt lat="45.763719507042474" lon="9.228578873164503"><ele>304.0</ele><time>2026-04-26T07:20:37Z</time></trkpt><trkpt lat="45.76392250110357" lon="9.228619588229593"><ele>304.0</ele><time>2026-04-26T07:20:38Z</time></trkpt><trkpt lat="45.76411350487957" lon="9.228659769274564"><ele>304.0</ele><time>2026-04-26T07:20:39Z</time></trkpt><trkpt lat="45.7642953404685" lon="9.2286876181759"><ele>303.66666666666663</ele><time>2026-04-26T07:20:40Z</time></trkpt><trkpt lat="45.764453766493205" lon="9.228739354376664"><ele>303.3333333333333</ele><time>2026-04-26T07:20:41Z</time></trkpt><trkpt lat="45.764609282685626" lon="9.228749310285286"><ele>303.0</ele><time>2026-04-26T07:20:42Z</time></trkpt><trkpt lat="45.76476213941862" lon="9.228794813344445"><ele>303.0</ele><time>2026-04-26T07:20:43Z</time></trkpt><trkpt lat="45.764921867282105" lon="9.228827619152058"><ele>303.0</ele><time>2026-04-26T07:20:44Z</time></trkpt><trkpt lat="45.7650660282485" lon="9.228851695377172"><ele>303.0</ele><time>2026-04-26T07:20:45Z</time></trkpt><trkpt lat="45.76520463900554" lon="9.228878364396156"><ele>303.0</ele><time>2026-04-26T07:20:46Z</time></trkpt><trkpt lat="45.765327159119444" lon="9.228907333818123"><ele>303.0</ele><time>2026-04-26T07:20:47Z</time></trkpt><trkpt lat="45.76542034751794" lon="9.228940598010656"><ele>303.0</ele><time>2026-04-26T07:20:48Z</time></trkpt><trkpt lat="45.76550999080965" lon="9.228986770560264"><ele>303.0</ele><time>2026-04-26T07:20:49Z</time></trkpt><trkpt lat="45.76556751970836" lon="9.22908226776865"><ele>303.0</ele><time>2026-04-26T07:20:50Z</time></trkpt><trkpt lat="45.76565879578135" lon="9.229130462056986"><ele>303.0</ele><time>2026-04-26T07:20:51Z</time></trkpt><trkpt lat="45.76576484365121" lon="9.229161651139853"><ele>303.0</ele><time>2026-04-26T07:20:52Z</time></trkpt><trkpt lat="45.76585370705998" lon="9.229142536410048"><ele>303.0</ele><time>2026-04-26T07:20:53Z</time></trkpt><trkpt lat="45.765943499458274" lon="9.229085101592066"><ele>303.0</ele><time>2026-04-26T07:20:54Z</time></trkpt><trkpt lat="45.766042067886524" lon="9.229038726566722"><ele>303.0</ele><time>2026-04-26T07:20:55Z</time></trkpt><trkpt lat="45.7661539368984" lon="9.229073531098635"><ele>303.0</ele><time>2026-04-26T07:20:56Z</time></trkpt><trkpt lat="45.76628284282218" lon="9.229100137677602"><ele>302.75</ele><time>2026-04-26T07:20:57Z</time></trkpt><trkpt lat="45.76641971094443" lon="9.22912730235673"><ele>302.5</ele><time>2026-04-26T07:20:58Z</time></trkpt><trkpt lat="45.766553909548996" lon="9.229153937185233"><ele>302.25</ele><time>2026-04-26T07:20:59Z</time></trkpt><trkpt lat="45.76670088003758" lon="9.229183106896075"><ele>302.0</ele><time>2026-04-26T07:21:00Z</time></trkpt><trkpt lat="45.766841639557924" lon="9.22921168822884"><ele>301.6666666666667</ele><time>2026-04-26T07:21:01Z</time></trkpt><trkpt lat="45.766996268839726" lon="9.229242565805283"><ele>301.3333333333333</ele><time>2026-04-26T07:21:02Z</time></trkpt><trkpt lat="45.76715771686826" lon="9.229274890432622"><ele>301.0</ele><time>2026-04-26T07:21:03Z</time></trkpt><trkpt lat="45.76732140254194" lon="9.2293089392253"><ele>301.0</ele><time>2026-04-26T07:21:04Z</time></trkpt><trkpt lat="45.767482490403104" lon="9.229342655310203"><ele>301.0</ele><time>2026-04-26T07:21:05Z</time></trkpt><trkpt lat="45.767633489317525" lon="9.229374209483217"><ele>301.0</ele><time>2026-04-26T07:21:06.001Z</time></trkpt><trkpt lat="45.767779630923805" lon="9.229404732221491"><ele>301.3333333333333</ele><time>2026-04-26T07:21:07.001Z</time></trkpt><trkpt lat="45.76793953257699" lon="9.229438207887654"><ele>301.6666666666667</ele><time>2026-04-26T07:21:08.001Z</time></trkpt><trkpt lat="45.76811773120516" lon="9.229475691042493"><ele>302.0</ele><time>2026-04-26T07:21:09.001Z</time></trkpt><trkpt lat="45.76826786639353" lon="9.229507270606058"><ele>302.0</ele><time>2026-04-26T07:21:10.001Z</time></trkpt><trkpt lat="45.76841985260847" lon="9.229526862535577"><ele>302.0</ele><time>2026-04-26T07:21:11.001Z</time></trkpt><trkpt lat="45.76850779557522" lon="9.229556521285952"><ele>302.0</ele><time>2026-04-26T07:21:12.001Z</time></trkpt><trkpt lat="45.76858918473332" lon="9.229572621704504"><ele>302.0</ele><time>2026-04-26T07:21:13.001Z</time></trkpt><trkpt lat="45.76867734930138" lon="9.229579853141816"><ele>302.0</ele><time>2026-04-26T07:21:14.001Z</time></trkpt><trkpt lat="45.76874333885114" lon="9.229597810940232"><ele>302.0</ele><time>2026-04-26T07:21:15.001Z</time></trkpt><trkpt lat="45.76882205825694" lon="9.229610319844062"><ele>302.0</ele><time>2026-04-26T07:21:16.001Z</time></trkpt><trkpt lat="45.76890705121963" lon="9.22962479985854"><ele>302.0</ele><time>2026-04-26T07:21:17.001Z</time></trkpt><trkpt lat="45.76898993706032" lon="9.229642090424596"><ele>302.0</ele><time>2026-04-26T07:21:18.001Z</time></trkpt><trkpt lat="45.769090896403426" lon="9.2296692573132"><ele>302.0</ele><time>2026-04-26T07:21:19.001Z</time></trkpt><trkpt lat="45.769206508004245" lon="9.229694789968748"><ele>302.0</ele><time>2026-04-26T07:21:20.001Z</time></trkpt><trkpt lat="45.76935322015166" lon="9.229716353737974"><ele>302.0</ele><time>2026-04-26T07:21:21.001Z</time></trkpt><trkpt lat="45.76953147641543" lon="9.229757008560314"><ele>302.0</ele><time>2026-04-26T07:21:22.001Z</time></trkpt><trkpt lat="45.76971589913823" lon="9.229803640826667"><ele>302.6666666666667</ele><time>2026-04-26T07:21:23.001Z</time></trkpt><trkpt lat="45.76988044353997" lon="9.229856561444716"><ele>303.3333333333333</ele><time>2026-04-26T07:21:24.001Z</time></trkpt><trkpt lat="45.770043426786486" lon="9.22988869456972"><ele>304.0</ele><time>2026-04-26T07:21:25.001Z</time></trkpt><trkpt lat="45.770217191547275" lon="9.229918972670365"><ele>304.66666666666663</ele><time>2026-04-26T07:21:26.001Z</time></trkpt><trkpt lat="45.770379212777954" lon="9.229959627295328"><ele>305.3333333333333</ele><time>2026-04-26T07:21:27.001Z</time></trkpt><trkpt lat="45.770538974820624" lon="9.229999748973983"><ele>306.0</ele><time>2026-04-26T07:21:28.001Z</time></trkpt><trkpt lat="45.77069766414017" lon="9.230025131885009"><ele>306.0</ele><time>2026-04-26T07:21:29.001Z</time></trkpt><trkpt lat="45.77088110712801" lon="9.230049515743998"><ele>306.0</ele><time>2026-04-26T07:21:30.001Z</time></trkpt><trkpt lat="45.77105225483916" lon="9.230064462768791"><ele>306.0</ele><time>2026-04-26T07:21:31.001Z</time></trkpt><trkpt lat="45.77122556168985" lon="9.230103958454157"><ele>307.6666666666667</ele><time>2026-04-26T07:21:32.001Z</time></trkpt><trkpt lat="45.771393207068826" lon="9.230138262715236"><ele>309.33333333333337</ele><time>2026-04-26T07:21:33.001Z</time></trkpt><trkpt lat="45.77155452041895" lon="9.230149870798996"><ele>311.0</ele><time>2026-04-26T07:21:34.001Z</time></trkpt><trkpt lat="45.77172816671281" lon="9.230145145461979"><ele>310.6666666666667</ele><time>2026-04-26T07:21:35.001Z</time></trkpt><trkpt lat="45.771914806148956" lon="9.23015412810519"><ele>310.3333333333333</ele><time>2026-04-26T07:21:36.001Z</time></trkpt><trkpt lat="45.772104817230364" lon="9.230168115244357"><ele>310.0</ele><time>2026-04-26T07:21:37.001Z</time></trkpt><trkpt lat="45.77230384860864" lon="9.23017205950225"><ele>310.0</ele><time>2026-04-26T07:21:38.001Z</time></trkpt><trkpt lat="45.772501509231226" lon="9.230187616076362"><ele>310.0</ele><time>2026-04-26T07:21:39Z</time></trkpt><trkpt lat="45.772696840862494" lon="9.230186341068631"><ele>310.0</ele><time>2026-04-26T07:21:40Z</time></trkpt><trkpt lat="45.77290102922397" lon="9.230185215868294"><ele>309.3333333333333</ele><time>2026-04-26T07:21:41Z</time></trkpt><trkpt lat="45.773104710625816" lon="9.23017544251517"><ele>308.6666666666667</ele><time>2026-04-26T07:21:42Z</time></trkpt><trkpt lat="45.773293051373756" lon="9.230166441728633"><ele>308.0</ele><time>2026-04-26T07:21:43Z</time></trkpt><trkpt lat="45.773482425068885" lon="9.230163523417055"><ele>308.0</ele><time>2026-04-26T07:21:44Z</time></trkpt><trkpt lat="45.77366950163746" lon="9.23017592751736"><ele>308.0</ele><time>2026-04-26T07:21:45Z</time></trkpt><trkpt lat="45.773850285038264" lon="9.23017062390908"><ele>308.0</ele><time>2026-04-26T07:21:46Z</time></trkpt><trkpt lat="45.774025512386096" lon="9.23016193404539"><ele>308.0</ele><time>2026-04-26T07:21:47Z</time></trkpt><trkpt lat="45.774197317029305" lon="9.2301627406389"><ele>308.0</ele><time>2026-04-26T07:21:48Z</time></trkpt><trkpt lat="45.77436286202609" lon="9.230162194811095"><ele>308.0</ele><time>2026-04-26T07:21:49Z</time></trkpt><trkpt lat="45.77451913883433" lon="9.230177780646667"><ele>308.0</ele><time>2026-04-26T07:21:50Z</time></trkpt><trkpt lat="45.77467605189925" lon="9.230184200629973"><ele>308.0</ele><time>2026-04-26T07:21:51Z</time></trkpt><trkpt lat="45.77483087685586" lon="9.230189980426196"><ele>308.0</ele><time>2026-04-26T07:21:52Z</time></trkpt><trkpt lat="45.77499247601736" lon="9.23019772110668"><ele>308.0</ele><time>2026-04-26T07:21:53Z</time></trkpt><trkpt lat="45.77515161071082" lon="9.230186428443663"><ele>308.0</ele><time>2026-04-26T07:21:54Z</time></trkpt><trkpt lat="45.775313465307306" lon="9.230193995201486"><ele>308.0</ele><time>2026-04-26T07:21:55Z</time></trkpt><trkpt lat="45.77545621898249" lon="9.230198477037582"><ele>307.6666666666667</ele><time>2026-04-26T07:21:56Z</time></trkpt><trkpt lat="45.77560153424431" lon="9.23020630717153"><ele>307.3333333333333</ele><time>2026-04-26T07:21:57Z</time></trkpt><trkpt lat="45.7757579382219" lon="9.230214831444968"><ele>307.0</ele><time>2026-04-26T07:21:58Z</time></trkpt><trkpt lat="45.77590583954226" lon="9.230236931343958"><ele>309.66666666666663</ele><time>2026-04-26T07:21:59Z</time></trkpt><trkpt lat="45.77605134502763" lon="9.2302710787605"><ele>312.3333333333333</ele><time>2026-04-26T07:22:00Z</time></trkpt><trkpt lat="45.77619923179651" lon="9.230318080929138"><ele>315.0</ele><time>2026-04-26T07:22:01Z</time></trkpt><trkpt lat="45.77634477970056" lon="9.230380465460525"><ele>315.0</ele><time>2026-04-26T07:22:02Z</time></trkpt><trkpt lat="45.77648931945969" lon="9.230459769004032"><ele>315.0</ele><time>2026-04-26T07:22:03Z</time></trkpt><trkpt lat="45.77662727257396" lon="9.230551369079802"><ele>315.0</ele><time>2026-04-26T07:22:04Z</time></trkpt><trkpt lat="45.776759467215285" lon="9.230658666447841"><ele>313.5</ele><time>2026-04-26T07:22:05Z</time></trkpt><trkpt lat="45.77688987549484" lon="9.230768331324086"><ele>312.0</ele><time>2026-04-26T07:22:06Z</time></trkpt><trkpt lat="45.777008024227335" lon="9.230900308403958"><ele>310.5</ele><time>2026-04-26T07:22:07Z</time></trkpt><trkpt lat="45.77712200174931" lon="9.23102399497056"><ele>309.0</ele><time>2026-04-26T07:22:08Z</time></trkpt><trkpt lat="45.77722835662309" lon="9.231160120296774"><ele>309.0</ele><time>2026-04-26T07:22:09Z</time></trkpt><trkpt lat="45.77734797303734" lon="9.231321115456339"><ele>309.0</ele><time>2026-04-26T07:22:10Z</time></trkpt><trkpt lat="45.77745270964909" lon="9.231484258637384"><ele>309.0</ele><time>2026-04-26T07:22:11Z</time></trkpt><trkpt lat="45.77755983151442" lon="9.231669696551565"><ele>308.0</ele><time>2026-04-26T07:22:12Z</time></trkpt><trkpt lat="45.77765811443441" lon="9.23188141589502"><ele>307.0</ele><time>2026-04-26T07:22:13Z</time></trkpt><trkpt lat="45.77776364014955" lon="9.232102418143414"><ele>306.0</ele><time>2026-04-26T07:22:14Z</time></trkpt><trkpt lat="45.77785376663722" lon="9.232337283069123"><ele>304.6666666666667</ele><time>2026-04-26T07:22:15Z</time></trkpt><trkpt lat="45.777932491294415" lon="9.232556518017573"><ele>303.33333333333337</ele><time>2026-04-26T07:22:16Z</time></trkpt><trkpt lat="45.77800835815616" lon="9.232782358279719"><ele>302.0</ele><time>2026-04-26T07:22:17Z</time></trkpt><trkpt lat="45.7780619795823" lon="9.232988426817045"><ele>301.5</ele><time>2026-04-26T07:22:18Z</time></trkpt><trkpt lat="45.77812701268469" lon="9.233178722215118"><ele>301.0</ele><time>2026-04-26T07:22:19Z</time></trkpt><trkpt lat="45.77819690486312" lon="9.233356200106028"><ele>300.5</ele><time>2026-04-26T07:22:20Z</time></trkpt><trkpt lat="45.77826993631261" lon="9.233519133259962"><ele>300.0</ele><time>2026-04-26T07:22:21Z</time></trkpt><trkpt lat="45.778343366938984" lon="9.233657808877336"><ele>300.0</ele><time>2026-04-26T07:22:22Z</time></trkpt><trkpt lat="45.778416579974106" lon="9.23380295609085"><ele>300.0</ele><time>2026-04-26T07:22:23Z</time></trkpt><trkpt lat="45.77847361402342" lon="9.233945859916501"><ele>300.0</ele><time>2026-04-26T07:22:24Z</time></trkpt><trkpt lat="45.778546651027135" lon="9.234097907487444"><ele>300.0</ele><time>2026-04-26T07:22:25Z</time></trkpt><trkpt lat="45.77863024049311" lon="9.234237517635282"><ele>299.25</ele><time>2026-04-26T07:22:26Z</time></trkpt><trkpt lat="45.77867729826154" lon="9.234383720247536"><ele>298.5</ele><time>2026-04-26T07:22:27Z</time></trkpt><trkpt lat="45.778753156239596" lon="9.234537927444238"><ele>297.75</ele><time>2026-04-26T07:22:28Z</time></trkpt><trkpt lat="45.778818965331546" lon="9.234688196866761"><ele>297.0</ele><time>2026-04-26T07:22:29Z</time></trkpt><trkpt lat="45.77888999555553" lon="9.234845029481555"><ele>297.0</ele><time>2026-04-26T07:22:30Z</time></trkpt><trkpt lat="45.77898602852119" lon="9.23501323458835"><ele>297.0</ele><time>2026-04-26T07:22:31Z</time></trkpt><trkpt lat="45.779068541511236" lon="9.235195153906497"><ele>297.0</ele><time>2026-04-26T07:22:32Z</time></trkpt><trkpt lat="45.779160039998686" lon="9.235399617344054"><ele>297.0</ele><time>2026-04-26T07:22:33Z</time></trkpt><trkpt lat="45.77925744233722" lon="9.235608059137036"><ele>297.0</ele><time>2026-04-26T07:22:34Z</time></trkpt><trkpt lat="45.77937545918849" lon="9.23582441733"><ele>297.0</ele><time>2026-04-26T07:22:35Z</time></trkpt><trkpt lat="45.77948809852919" lon="9.23603750109796"><ele>292.6666666666667</ele><time>2026-04-26T07:22:36Z</time></trkpt><trkpt lat="45.77960457719069" lon="9.236222380249721"><ele>288.33333333333337</ele><time>2026-04-26T07:22:37Z</time></trkpt><trkpt lat="45.77973704164913" lon="9.236387524545874"><ele>284.0</ele><time>2026-04-26T07:22:38Z</time></trkpt><trkpt lat="45.779876876518045" lon="9.236545715911975"><ele>283.6666666666667</ele><time>2026-04-26T07:22:39Z</time></trkpt><trkpt lat="45.780017203262226" lon="9.23669143795862"><ele>283.3333333333333</ele><time>2026-04-26T07:22:40Z</time></trkpt><trkpt lat="45.78016249663101" lon="9.236837635271524"><ele>283.0</ele><time>2026-04-26T07:22:41Z</time></trkpt><trkpt lat="45.78032885288799" lon="9.236966807089273"><ele>283.0</ele><time>2026-04-26T07:22:42Z</time></trkpt><trkpt lat="45.78049763679547" lon="9.237080499501527"><ele>283.0</ele><time>2026-04-26T07:22:43Z</time></trkpt><trkpt lat="45.780665741107846" lon="9.237182401808003"><ele>283.0</ele><time>2026-04-26T07:22:44Z</time></trkpt><trkpt lat="45.78085324324392" lon="9.237291645773807"><ele>282.3333333333333</ele><time>2026-04-26T07:22:45Z</time></trkpt><trkpt lat="45.78103628338511" lon="9.237390131869686"><ele>281.6666666666667</ele><time>2026-04-26T07:22:46Z</time></trkpt><trkpt lat="45.78121192328272" lon="9.237475525715974"><ele>281.0</ele><time>2026-04-26T07:22:47Z</time></trkpt><trkpt lat="45.78139214095894" lon="9.237578436715637"><ele>281.0</ele><time>2026-04-26T07:22:48Z</time></trkpt><trkpt lat="45.78157776577812" lon="9.237685183936579"><ele>281.0</ele><time>2026-04-26T07:22:49Z</time></trkpt><trkpt lat="45.78175923945278" lon="9.237792832521205"><ele>281.0</ele><time>2026-04-26T07:22:50Z</time></trkpt><trkpt lat="45.78192960804903" lon="9.237885786648626"><ele>281.0</ele><time>2026-04-26T07:22:51Z</time></trkpt><trkpt lat="45.78209484258625" lon="9.237981050912971"><ele>281.0</ele><time>2026-04-26T07:22:52Z</time></trkpt><trkpt lat="45.78224714868754" lon="9.238070225279852"><ele>281.0</ele><time>2026-04-26T07:22:53Z</time></trkpt><trkpt lat="45.78240833607339" lon="9.238149584930953"><ele>281.0</ele><time>2026-04-26T07:22:54Z</time></trkpt><trkpt lat="45.78257665838099" lon="9.238239170727018"><ele>281.0</ele><time>2026-04-26T07:22:55Z</time></trkpt><trkpt lat="45.78274035974723" lon="9.238314242367004"><ele>281.0</ele><time>2026-04-26T07:22:56Z</time></trkpt><trkpt lat="45.782903073623245" lon="9.23839957258569"><ele>281.0</ele><time>2026-04-26T07:22:57Z</time></trkpt><trkpt lat="45.783066548779196" lon="9.2384876175596"><ele>281.0</ele><time>2026-04-26T07:22:58Z</time></trkpt><trkpt lat="45.78322599702031" lon="9.238581282119695"><ele>281.0</ele><time>2026-04-26T07:22:59Z</time></trkpt><trkpt lat="45.78338363593517" lon="9.238666122265824"><ele>281.33333333333337</ele><time>2026-04-26T07:23:00Z</time></trkpt><trkpt lat="45.783537797877464" lon="9.238756843348666"><ele>281.6666666666667</ele><time>2026-04-26T07:23:01Z</time></trkpt><trkpt lat="45.78369068333319" lon="9.238848188763287"><ele>282.0</ele><time>2026-04-26T07:23:02Z</time></trkpt><trkpt lat="45.78383855189909" lon="9.238953483668803"><ele>281.6666666666667</ele><time>2026-04-26T07:23:03Z</time></trkpt><trkpt lat="45.78397886380943" lon="9.239061986331619"><ele>281.33333333333337</ele><time>2026-04-26T07:23:04Z</time></trkpt><trkpt lat="45.78411971877878" lon="9.2391855425405"><ele>281.0</ele><time>2026-04-26T07:23:05Z</time></trkpt><trkpt lat="45.78426004060438" lon="9.239311404292401"><ele>279.33333333333337</ele><time>2026-04-26T07:23:06Z</time></trkpt><trkpt lat="45.784401765496604" lon="9.239446382129898"><ele>277.6666666666667</ele><time>2026-04-26T07:23:07Z</time></trkpt><trkpt lat="45.78454513934259" lon="9.239600616119105"><ele>276.0</ele><time>2026-04-26T07:23:08Z</time></trkpt><trkpt lat="45.78467269619434" lon="9.239752994997408"><ele>275.6666666666667</ele><time>2026-04-26T07:23:09Z</time></trkpt><trkpt lat="45.78480539243482" lon="9.239917637162765"><ele>275.33333333333337</ele><time>2026-04-26T07:23:10Z</time></trkpt><trkpt lat="45.78493289532536" lon="9.240077816144249"><ele>275.0</ele><time>2026-04-26T07:23:11Z</time></trkpt><trkpt lat="45.785053600691214" lon="9.240243916182349"><ele>275.0</ele><time>2026-04-26T07:23:12.001Z</time></trkpt><trkpt lat="45.7851784747888" lon="9.240409275262852"><ele>275.0</ele><time>2026-04-26T07:23:13.001Z</time></trkpt><trkpt lat="45.78529858164216" lon="9.24056630137272"><ele>275.0</ele><time>2026-04-26T07:23:14.001Z</time></trkpt><trkpt lat="45.7854216681345" lon="9.240725024482675"><ele>272.33333333333337</ele><time>2026-04-26T07:23:15.001Z</time></trkpt><trkpt lat="45.78554418404804" lon="9.240887231321416"><ele>269.6666666666667</ele><time>2026-04-26T07:23:16.001Z</time></trkpt><trkpt lat="45.785669645251495" lon="9.241054898535726"><ele>267.0</ele><time>2026-04-26T07:23:17.001Z</time></trkpt><trkpt lat="45.785795901294456" lon="9.241227424877446"><ele>267.0</ele><time>2026-04-26T07:23:18.001Z</time></trkpt><trkpt lat="45.785926247265735" lon="9.24140376695813"><ele>267.0</ele><time>2026-04-26T07:23:19.001Z</time></trkpt><trkpt lat="45.78605763765495" lon="9.241580185316803"><ele>267.0</ele><time>2026-04-26T07:23:20.001Z</time></trkpt><trkpt lat="45.78619223946717" lon="9.241742854141211"><ele>265.6666666666667</ele><time>2026-04-26T07:23:21.001Z</time></trkpt><trkpt lat="45.78633879697413" lon="9.24188310941082"><ele>264.33333333333337</ele><time>2026-04-26T07:23:22.001Z</time></trkpt><trkpt lat="45.7864957104554" lon="9.242005985311902"><ele>263.0</ele><time>2026-04-26T07:23:23.001Z</time></trkpt><trkpt lat="45.78665816957261" lon="9.242114802487038"><ele>262.6666666666667</ele><time>2026-04-26T07:23:24.001Z</time></trkpt><trkpt lat="45.786848094310685" lon="9.24217267882853"><ele>262.3333333333333</ele><time>2026-04-26T07:23:25.001Z</time></trkpt><trkpt lat="45.78700803924518" lon="9.242289567191515"><ele>262.0</ele><time>2026-04-26T07:23:26.001Z</time></trkpt><trkpt lat="45.78718833032346" lon="9.24236147370844"><ele>262.0</ele><time>2026-04-26T07:23:27.001Z</time></trkpt><trkpt lat="45.78735749377102" lon="9.242418828594094"><ele>262.0</ele><time>2026-04-26T07:23:28.001Z</time></trkpt><trkpt lat="45.787534932912244" lon="9.242483500379219"><ele>262.0</ele><time>2026-04-26T07:23:29.001Z</time></trkpt><trkpt lat="45.78771131623491" lon="9.2425473892741"><ele>262.0</ele><time>2026-04-26T07:23:30.001Z</time></trkpt><trkpt lat="45.787889945494946" lon="9.242607976813028"><ele>262.0</ele><time>2026-04-26T07:23:31.001Z</time></trkpt><trkpt lat="45.788062498116005" lon="9.242668965917332"><ele>262.0</ele><time>2026-04-26T07:23:32.001Z</time></trkpt><trkpt lat="45.78823684126862" lon="9.242731300536839"><ele>262.0</ele><time>2026-04-26T07:23:33Z</time></trkpt><trkpt lat="45.788408477395805" lon="9.242797028063725"><ele>262.0</ele><time>2026-04-26T07:23:34Z</time></trkpt><trkpt lat="45.78858112095815" lon="9.242860967648637"><ele>262.0</ele><time>2026-04-26T07:23:35Z</time></trkpt><trkpt lat="45.78874906535767" lon="9.242928471805598"><ele>262.0</ele><time>2026-04-26T07:23:36Z</time></trkpt><trkpt lat="45.788916057071994" lon="9.24299387208394"><ele>262.0</ele><time>2026-04-26T07:23:37Z</time></trkpt><trkpt lat="45.78908697311937" lon="9.24304862064359"><ele>262.0</ele><time>2026-04-26T07:23:38Z</time></trkpt><trkpt lat="45.78926113714525" lon="9.243105474065647"><ele>261.3333333333333</ele><time>2026-04-26T07:23:39Z</time></trkpt><trkpt lat="45.789438915498145" lon="9.243169611229453"><ele>260.6666666666667</ele><time>2026-04-26T07:23:40Z</time></trkpt><trkpt lat="45.78961811087871" lon="9.243241405917525"><ele>260.0</ele><time>2026-04-26T07:23:41Z</time></trkpt><trkpt lat="45.789798121352185" lon="9.243304111117654"><ele>260.0</ele><time>2026-04-26T07:23:42Z</time></trkpt><trkpt lat="45.78997095746744" lon="9.243373954794214"><ele>260.0</ele><time>2026-04-26T07:23:43Z</time></trkpt><trkpt lat="45.79014872839569" lon="9.243439948965115"><ele>260.0</ele><time>2026-04-26T07:23:44Z</time></trkpt><trkpt lat="45.79032805126997" lon="9.243503994479079"><ele>259.33333333333337</ele><time>2026-04-26T07:23:45Z</time></trkpt><trkpt lat="45.790509922668434" lon="9.24356999959641"><ele>258.6666666666667</ele><time>2026-04-26T07:23:46Z</time></trkpt><trkpt lat="45.790691484644576" lon="9.243632167612231"><ele>258.0</ele><time>2026-04-26T07:23:47Z</time></trkpt><trkpt lat="45.79087071419061" lon="9.243691426291436"><ele>259.0</ele><time>2026-04-26T07:23:48Z</time></trkpt><trkpt lat="45.791048791473465" lon="9.243745633080481"><ele>260.0</ele><time>2026-04-26T07:23:49Z</time></trkpt><trkpt lat="45.79123127901387" lon="9.243795724072104"><ele>261.0</ele><time>2026-04-26T07:23:50Z</time></trkpt><trkpt lat="45.79140857380558" lon="9.243807795408577"><ele>261.0</ele><time>2026-04-26T07:23:51Z</time></trkpt><trkpt lat="45.79159594759404" lon="9.243810489921316"><ele>261.0</ele><time>2026-04-26T07:23:52Z</time></trkpt><trkpt lat="45.79177801516459" lon="9.2438128926806"><ele>261.0</ele><time>2026-04-26T07:23:53Z</time></trkpt><trkpt lat="45.791952882866994" lon="9.243776035998067"><ele>262.0</ele><time>2026-04-26T07:23:54Z</time></trkpt><trkpt lat="45.79212409065057" lon="9.24369687593146"><ele>263.0</ele><time>2026-04-26T07:23:55Z</time></trkpt><trkpt lat="45.79229552037597" lon="9.24361128320861"><ele>264.0</ele><time>2026-04-26T07:23:56Z</time></trkpt><trkpt lat="45.79246152832122" lon="9.243502457255232"><ele>264.0</ele><time>2026-04-26T07:23:57Z</time></trkpt><trkpt lat="45.792620884705414" lon="9.243392886966893"><ele>264.0</ele><time>2026-04-26T07:23:58Z</time></trkpt><trkpt lat="45.79277334653603" lon="9.243276641502016"><ele>264.0</ele><time>2026-04-26T07:23:59Z</time></trkpt><trkpt lat="45.792928363358044" lon="9.243170545760535"><ele>263.6666666666667</ele><time>2026-04-26T07:24:00Z</time></trkpt><trkpt lat="45.79308681542567" lon="9.243065361143113"><ele>263.33333333333337</ele><time>2026-04-26T07:24:01Z</time></trkpt><trkpt lat="45.79324511675512" lon="9.242958416604607"><ele>263.0</ele><time>2026-04-26T07:24:02Z</time></trkpt><trkpt lat="45.793398393568566" lon="9.242855466221755"><ele>262.6666666666667</ele><time>2026-04-26T07:24:03Z</time></trkpt><trkpt lat="45.79354960233304" lon="9.242747410352807"><ele>262.3333333333333</ele><time>2026-04-26T07:24:04Z</time></trkpt><trkpt lat="45.7937023388806" lon="9.24263823850453"><ele>262.0</ele><time>2026-04-26T07:24:05Z</time></trkpt><trkpt lat="45.7938541408599" lon="9.24252881466182"><ele>262.0</ele><time>2026-04-26T07:24:06Z</time></trkpt><trkpt lat="45.79400185918607" lon="9.242420814336405"><ele>262.0</ele><time>2026-04-26T07:24:07Z</time></trkpt><trkpt lat="45.79415363513733" lon="9.24231393773145"><ele>262.0</ele><time>2026-04-26T07:24:08Z</time></trkpt><trkpt lat="45.79431315869819" lon="9.242195938222116"><ele>262.66666666666663</ele><time>2026-04-26T07:24:09Z</time></trkpt><trkpt lat="45.79446042149461" lon="9.242085519529795"><ele>263.3333333333333</ele><time>2026-04-26T07:24:10Z</time></trkpt><trkpt lat="45.79460065031538" lon="9.2420083655221"><ele>264.0</ele><time>2026-04-26T07:24:11Z</time></trkpt><trkpt lat="45.794722783691356" lon="9.241926145055684"><ele>264.0</ele><time>2026-04-26T07:24:12Z</time></trkpt><trkpt lat="45.79482550990345" lon="9.241860852031865"><ele>264.0</ele><time>2026-04-26T07:24:13Z</time></trkpt><trkpt lat="45.79492682319186" lon="9.241812344681378"><ele>264.0</ele><time>2026-04-26T07:24:14Z</time></trkpt><trkpt lat="45.79502584961943" lon="9.241791431477514"><ele>264.0</ele><time>2026-04-26T07:24:15Z</time></trkpt><trkpt lat="45.79511747461725" lon="9.241759258664235"><ele>264.0</ele><time>2026-04-26T07:24:16Z</time></trkpt><trkpt lat="45.795202941506425" lon="9.241692691972359"><ele>264.0</ele><time>2026-04-26T07:24:17Z</time></trkpt><trkpt lat="45.79526841291132" lon="9.24161289141069"><ele>264.0</ele><time>2026-04-26T07:24:18Z</time></trkpt><trkpt lat="45.795340666491825" lon="9.241529480798928"><ele>264.0</ele><time>2026-04-26T07:24:19Z</time></trkpt><trkpt lat="45.795415288086524" lon="9.24147322219484"><ele>264.0</ele><time>2026-04-26T07:24:20Z</time></trkpt><trkpt lat="45.7954902449253" lon="9.241428101664495"><ele>264.0</ele><time>2026-04-26T07:24:21Z</time></trkpt><trkpt lat="45.795559408805666" lon="9.241383180546109"><ele>264.0</ele><time>2026-04-26T07:24:22Z</time></trkpt><trkpt lat="45.795631148397945" lon="9.24133110834678"><ele>264.2</ele><time>2026-04-26T07:24:23Z</time></trkpt><trkpt lat="45.79569779382757" lon="9.241264993386679"><ele>264.4</ele><time>2026-04-26T07:24:24Z</time></trkpt><trkpt lat="45.7957659662763" lon="9.241184104323782"><ele>264.6</ele><time>2026-04-26T07:24:25Z</time></trkpt><trkpt lat="45.79584758014609" lon="9.241093294824205"><ele>264.8</ele><time>2026-04-26T07:24:26Z</time></trkpt><trkpt lat="45.79594741276466" lon="9.241018031461495"><ele>265.0</ele><time>2026-04-26T07:24:27Z</time></trkpt><trkpt lat="45.79607239015752" lon="9.24097966762616"><ele>265.3333333333333</ele><time>2026-04-26T07:24:28Z</time></trkpt><trkpt lat="45.79618535887812" lon="9.240906547107755"><ele>265.6666666666667</ele><time>2026-04-26T07:24:29Z</time></trkpt><trkpt lat="45.79631023626798" lon="9.240802729469074"><ele>266.0</ele><time>2026-04-26T07:24:30Z</time></trkpt><trkpt lat="45.79648082959915" lon="9.240702370075168"><ele>266.0</ele><time>2026-04-26T07:24:31Z</time></trkpt><trkpt lat="45.79665779352261" lon="9.240579662725002"><ele>266.0</ele><time>2026-04-26T07:24:32Z</time></trkpt><trkpt lat="45.79683760158717" lon="9.24045528295597"><ele>266.0</ele><time>2026-04-26T07:24:33Z</time></trkpt><trkpt lat="45.79702436606215" lon="9.240326164445694"><ele>266.33333333333337</ele><time>2026-04-26T07:24:34Z</time></trkpt><trkpt lat="45.79721106753912" lon="9.240197093984822"><ele>266.6666666666667</ele><time>2026-04-26T07:24:35Z</time></trkpt><trkpt lat="45.79738237895342" lon="9.240078675667267"><ele>267.0</ele><time>2026-04-26T07:24:36Z</time></trkpt><trkpt lat="45.79754979168478" lon="9.239962952091759"><ele>267.0</ele><time>2026-04-26T07:24:37Z</time></trkpt><trkpt lat="45.79772060160017" lon="9.239844737159977"><ele>267.0</ele><time>2026-04-26T07:24:38Z</time></trkpt><trkpt lat="45.797888606031954" lon="9.239728344089517"><ele>267.0</ele><time>2026-04-26T07:24:39Z</time></trkpt><trkpt lat="45.7979896990279" lon="9.2394759390775"><ele>267.0</ele><time>2026-04-26T07:24:40Z</time></trkpt><trkpt lat="45.79813805659019" lon="9.239461626849724"><ele>267.0</ele><time>2026-04-26T07:24:41Z</time></trkpt><trkpt lat="45.79830081650426" lon="9.239377775675393"><ele>267.0</ele><time>2026-04-26T07:24:42Z</time></trkpt><trkpt lat="45.79846076710359" lon="9.239279555491038"><ele>268.0</ele><time>2026-04-26T07:24:43Z</time></trkpt><trkpt lat="45.798616268825675" lon="9.239181540927087"><ele>269.0</ele><time>2026-04-26T07:24:44Z</time></trkpt><trkpt lat="45.79876368223958" lon="9.239088548337286"><ele>270.0</ele><time>2026-04-26T07:24:45Z</time></trkpt><trkpt lat="45.79891038555383" lon="9.238993999892926"><ele>270.0</ele><time>2026-04-26T07:24:46Z</time></trkpt><trkpt lat="45.799067122339395" lon="9.238895790958258"><ele>270.0</ele><time>2026-04-26T07:24:47Z</time></trkpt><trkpt lat="45.799219416869896" lon="9.23879359361149"><ele>270.0</ele><time>2026-04-26T07:24:48Z</time></trkpt><trkpt lat="45.799364316931936" lon="9.238695204468016"><ele>270.0</ele><time>2026-04-26T07:24:49Z</time></trkpt><trkpt lat="45.79953205074956" lon="9.238576818877785"><ele>270.0</ele><time>2026-04-26T07:24:50Z</time></trkpt><trkpt lat="45.79970391297555" lon="9.238454972509967"><ele>270.0</ele><time>2026-04-26T07:24:51Z</time></trkpt><trkpt lat="45.79987903181104" lon="9.238335722620313"><ele>270.0</ele><time>2026-04-26T07:24:52Z</time></trkpt><trkpt lat="45.80004350904085" lon="9.238236359699298"><ele>270.0</ele><time>2026-04-26T07:24:53Z</time></trkpt><trkpt lat="45.800190971894175" lon="9.238142847622157"><ele>270.0</ele><time>2026-04-26T07:24:54Z</time></trkpt><trkpt lat="45.80032822205461" lon="9.238051270953289"><ele>270.25</ele><time>2026-04-26T07:24:55Z</time></trkpt><trkpt lat="45.80045672718704" lon="9.237962514015907"><ele>270.5</ele><time>2026-04-26T07:24:56Z</time></trkpt><trkpt lat="45.800572874721844" lon="9.237881959717685"><ele>270.75</ele><time>2026-04-26T07:24:57Z</time></trkpt><trkpt lat="45.80067885857704" lon="9.23780121777101"><ele>271.0</ele><time>2026-04-26T07:24:58Z</time></trkpt><trkpt lat="45.800786167547756" lon="9.23771393813384"><ele>271.0</ele><time>2026-04-26T07:24:59Z</time></trkpt><trkpt lat="45.80088855685913" lon="9.237623979192193"><ele>271.0</ele><time>2026-04-26T07:25:00Z</time></trkpt><trkpt lat="45.80099309138403" lon="9.2375500588921"><ele>271.0</ele><time>2026-04-26T07:25:01Z</time></trkpt><trkpt lat="45.801105337752674" lon="9.237470015156816"><ele>271.0</ele><time>2026-04-26T07:25:02Z</time></trkpt><trkpt lat="45.80122471198187" lon="9.237397694653135"><ele>271.0</ele><time>2026-04-26T07:25:03Z</time></trkpt><trkpt lat="45.801352047763245" lon="9.237332992576667"><ele>271.0</ele><time>2026-04-26T07:25:04Z</time></trkpt><trkpt lat="45.801480830410945" lon="9.237257345056051"><ele>271.0</ele><time>2026-04-26T07:25:05Z</time></trkpt><trkpt lat="45.80159610010887" lon="9.237183755758949"><ele>271.0</ele><time>2026-04-26T07:25:06Z</time></trkpt><trkpt lat="45.80169682095246" lon="9.237111969790629"><ele>271.2</ele><time>2026-04-26T07:25:07Z</time></trkpt><trkpt lat="45.80180387734383" lon="9.23705760194481"><ele>271.40000000000003</ele><time>2026-04-26T07:25:08Z</time></trkpt><trkpt lat="45.801907654291966" lon="9.237030793308483"><ele>271.6</ele><time>2026-04-26T07:25:09Z</time></trkpt><trkpt lat="45.80199885912859" lon="9.237014078617687"><ele>271.8</ele><time>2026-04-26T07:25:10Z</time></trkpt><trkpt lat="45.80209495742654" lon="9.23700068840039"><ele>272.0</ele><time>2026-04-26T07:25:11Z</time></trkpt><trkpt lat="45.802214019699896" lon="9.236905502439567"><ele>272.0</ele><time>2026-04-26T07:25:12Z</time></trkpt><trkpt lat="45.80233492033245" lon="9.236770404121119"><ele>272.0</ele><time>2026-04-26T07:25:13Z</time></trkpt><trkpt lat="45.802471004149105" lon="9.236640765353306"><ele>272.0</ele><time>2026-04-26T07:25:14Z</time></trkpt><trkpt lat="45.802617326986756" lon="9.236508517589405"><ele>272.6666666666667</ele><time>2026-04-26T07:25:15Z</time></trkpt><trkpt lat="45.80279127363528" lon="9.23637976904668"><ele>273.3333333333333</ele><time>2026-04-26T07:25:16Z</time></trkpt><trkpt lat="45.80298766618901" lon="9.236247357387802"><ele>274.0</ele><time>2026-04-26T07:25:17Z</time></trkpt><trkpt lat="45.80318401667082" lon="9.236125970153582"><ele>274.0</ele><time>2026-04-26T07:25:18Z</time></trkpt><trkpt lat="45.80338731086393" lon="9.236005202802088"><ele>274.0</ele><time>2026-04-26T07:25:19Z</time></trkpt><trkpt lat="45.80357609553409" lon="9.235891132624017"><ele>274.0</ele><time>2026-04-26T07:25:20Z</time></trkpt><trkpt lat="45.80373582074677" lon="9.235783822024052"><ele>274.0</ele><time>2026-04-26T07:25:21Z</time></trkpt><trkpt lat="45.80388986327258" lon="9.235675046728232"><ele>274.0</ele><time>2026-04-26T07:25:22Z</time></trkpt><trkpt lat="45.80403253086867" lon="9.235576222457485"><ele>274.0</ele><time>2026-04-26T07:25:23Z</time></trkpt><trkpt lat="45.80417029595676" lon="9.23547578930169"><ele>274.25</ele><time>2026-04-26T07:25:24Z</time></trkpt><trkpt lat="45.80430689873287" lon="9.235374194163407"><ele>274.5</ele><time>2026-04-26T07:25:25Z</time></trkpt><trkpt lat="45.80442161049063" lon="9.235270388772825"><ele>274.75</ele><time>2026-04-26T07:25:26Z</time></trkpt><trkpt lat="45.80454676287307" lon="9.235158955752752"><ele>275.0</ele><time>2026-04-26T07:25:27Z</time></trkpt><trkpt lat="45.80465273081501" lon="9.235037802861765"><ele>275.2</ele><time>2026-04-26T07:25:28Z</time></trkpt><trkpt lat="45.80476248596594" lon="9.234933794557561"><ele>275.4</ele><time>2026-04-26T07:25:29Z</time></trkpt><trkpt lat="45.80485475034395" lon="9.234843096551485"><ele>275.6</ele><time>2026-04-26T07:25:30Z</time></trkpt><trkpt lat="45.80494354212198" lon="9.234757335018218"><ele>275.8</ele><time>2026-04-26T07:25:31Z</time></trkpt><trkpt lat="45.8050253419419" lon="9.23468126449956"><ele>276.0</ele><time>2026-04-26T07:25:32Z</time></trkpt><trkpt lat="45.80509367883921" lon="9.234630506775432"><ele>276.2</ele><time>2026-04-26T07:25:33Z</time></trkpt><trkpt lat="45.805159019802396" lon="9.234612041456566"><ele>276.40000000000003</ele><time>2026-04-26T07:25:36Z</time></trkpt><trkpt lat="45.80526719785808" lon="9.234647139108873"><ele>276.6</ele><time>2026-04-26T07:25:41Z</time></trkpt><trkpt lat="45.805349845009864" lon="9.234723625044186"><ele>276.8</ele><time>2026-04-26T07:25:42Z</time></trkpt><trkpt lat="45.805405082460375" lon="9.234829360979122"><ele>277.0</ele><time>2026-04-26T07:25:43Z</time></trkpt><trkpt lat="45.80544962968826" lon="9.234962049747399"><ele>277.25</ele><time>2026-04-26T07:25:44Z</time></trkpt><trkpt lat="45.80549119740627" lon="9.235111491878072"><ele>277.5</ele><time>2026-04-26T07:25:45Z</time></trkpt><trkpt lat="45.805528718435035" lon="9.23528003513093"><ele>277.75</ele><time>2026-04-26T07:25:46Z</time></trkpt><trkpt lat="45.805574802806724" lon="9.235469979447371"><ele>278.0</ele><time>2026-04-26T07:25:47Z</time></trkpt><trkpt lat="45.80561678569035" lon="9.235650910720377"><ele>278.0</ele><time>2026-04-26T07:25:48Z</time></trkpt><trkpt lat="45.80565792451143" lon="9.235844284683925"><ele>278.0</ele><time>2026-04-26T07:25:49Z</time></trkpt><trkpt lat="45.805698604772395" lon="9.236056174965016"><ele>278.0</ele><time>2026-04-26T07:25:50Z</time></trkpt><trkpt lat="45.80575023315936" lon="9.236267977520079"><ele>277.33333333333337</ele><time>2026-04-26T07:25:51Z</time></trkpt><trkpt lat="45.80576552750487" lon="9.236513712949545"><ele>276.6666666666667</ele><time>2026-04-26T07:25:52Z</time></trkpt><trkpt lat="45.805811587068334" lon="9.236768500519474"><ele>276.0</ele><time>2026-04-26T07:25:53Z</time></trkpt><trkpt lat="45.80586360134758" lon="9.237020263057127"><ele>276.0</ele><time>2026-04-26T07:25:54Z</time></trkpt><trkpt lat="45.80591135125712" lon="9.237251634206295"><ele>276.0</ele><time>2026-04-26T07:25:55Z</time></trkpt><trkpt lat="45.80595407100945" lon="9.237501863209825"><ele>276.0</ele><time>2026-04-26T07:25:56Z</time></trkpt><trkpt lat="45.80605770155955" lon="9.23757158559129"><ele>276.0</ele><time>2026-04-26T07:25:57Z</time></trkpt><trkpt lat="45.80610740245603" lon="9.237807876167428"><ele>276.0</ele><time>2026-04-26T07:25:58Z</time></trkpt><trkpt lat="45.80616226297243" lon="9.23805602996834"><ele>276.0</ele><time>2026-04-26T07:25:59Z</time></trkpt><trkpt lat="45.8062129077635" lon="9.238327758433092"><ele>276.3333333333333</ele><time>2026-04-26T07:26:00Z</time></trkpt><trkpt lat="45.80627278138309" lon="9.23860258452363"><ele>276.66666666666663</ele><time>2026-04-26T07:26:01Z</time></trkpt><trkpt lat="45.80632739648956" lon="9.23887643616743"><ele>277.0</ele><time>2026-04-26T07:26:02Z</time></trkpt><trkpt lat="45.80638584231132" lon="9.239156053376085"><ele>276.3333333333333</ele><time>2026-04-26T07:26:03Z</time></trkpt><trkpt lat="45.806442845116486" lon="9.239413709903669"><ele>275.6666666666667</ele><time>2026-04-26T07:26:04Z</time></trkpt><trkpt lat="45.80648402057199" lon="9.239668278529706"><ele>275.0</ele><time>2026-04-26T07:26:05Z</time></trkpt><trkpt lat="45.80653292087242" lon="9.23989591030332"><ele>274.6666666666667</ele><time>2026-04-26T07:26:06Z</time></trkpt><trkpt lat="45.806577057220515" lon="9.2401118498509"><ele>274.3333333333333</ele><time>2026-04-26T07:26:07Z</time></trkpt><trkpt lat="45.80661642915606" lon="9.240328445706934"><ele>274.0</ele><time>2026-04-26T07:26:08Z</time></trkpt><trkpt lat="45.8066536877677" lon="9.240535878922001"><ele>273.3333333333333</ele><time>2026-04-26T07:26:09Z</time></trkpt><trkpt lat="45.8066937545067" lon="9.240732587977899"><ele>272.6666666666667</ele><time>2026-04-26T07:26:10Z</time></trkpt><trkpt lat="45.80674069754798" lon="9.240938216877213"><ele>272.0</ele><time>2026-04-26T07:26:11Z</time></trkpt><trkpt lat="45.8067886228777" lon="9.241159539097268"><ele>272.33333333333337</ele><time>2026-04-26T07:26:12Z</time></trkpt><trkpt lat="45.80685163704047" lon="9.241410193752941"><ele>272.6666666666667</ele><time>2026-04-26T07:26:13Z</time></trkpt><trkpt lat="45.80692981826002" lon="9.241729424683381"><ele>273.0</ele><time>2026-04-26T07:26:14Z</time></trkpt><trkpt lat="45.807006029741416" lon="9.242096713026394"><ele>273.0</ele><time>2026-04-26T07:26:15Z</time></trkpt><trkpt lat="45.80706273049543" lon="9.24243721734089"><ele>273.0</ele><time>2026-04-26T07:26:16Z</time></trkpt><trkpt lat="45.80711998240818" lon="9.242738850989678"><ele>273.0</ele><time>2026-04-26T07:26:17Z</time></trkpt><trkpt lat="45.80718133704241" lon="9.243026907790407"><ele>273.0</ele><time>2026-04-26T07:26:18Z</time></trkpt><trkpt lat="45.80723857517307" lon="9.243311519319588"><ele>273.0</ele><time>2026-04-26T07:26:19Z</time></trkpt><trkpt lat="45.8073036536723" lon="9.243603339149074"><ele>273.3333333333333</ele><time>2026-04-26T07:26:20Z</time></trkpt><trkpt lat="45.80734717125963" lon="9.243882259137635"><ele>273.66666666666663</ele><time>2026-04-26T07:26:21Z</time></trkpt><trkpt lat="45.80739072150155" lon="9.244158059173019"><ele>274.0</ele><time>2026-04-26T07:26:22Z</time></trkpt><trkpt lat="45.80742639542474" lon="9.244434341716492"><ele>273.3333333333333</ele><time>2026-04-26T07:26:23Z</time></trkpt><trkpt lat="45.80744657893162" lon="9.244703829117748"><ele>272.6666666666667</ele><time>2026-04-26T07:26:24Z</time></trkpt><trkpt lat="45.80745744188278" lon="9.244959995656508"><ele>272.0</ele><time>2026-04-26T07:26:25Z</time></trkpt><trkpt lat="45.807461131941565" lon="9.245203618791997"><ele>270.6666666666667</ele><time>2026-04-26T07:26:26Z</time></trkpt><trkpt lat="45.80746539184047" lon="9.245431574104645"><ele>269.3333333333333</ele><time>2026-04-26T07:26:27Z</time></trkpt><trkpt lat="45.807470429290596" lon="9.24564683063618"><ele>268.0</ele><time>2026-04-26T07:26:28Z</time></trkpt><trkpt lat="45.80747564219791" lon="9.245848562314363"><ele>267.8333333333333</ele><time>2026-04-26T07:26:29Z</time></trkpt><trkpt lat="45.80747972903501" lon="9.246018242496127"><ele>267.66666666666663</ele><time>2026-04-26T07:26:30Z</time></trkpt><trkpt lat="45.807483728380376" lon="9.246161050330453"><ele>267.5</ele><time>2026-04-26T07:26:31Z</time></trkpt><trkpt lat="45.80748588746517" lon="9.246276116490941"><ele>267.3333333333333</ele><time>2026-04-26T07:26:32Z</time></trkpt><trkpt lat="45.807478952330655" lon="9.246381865175033"><ele>267.1666666666667</ele><time>2026-04-26T07:26:33Z</time></trkpt><trkpt lat="45.807447530224195" lon="9.246476942412205"><ele>267.0</ele><time>2026-04-26T07:26:34Z</time></trkpt><trkpt lat="45.80742195872402" lon="9.246562943605767"><ele>266.5</ele><time>2026-04-26T07:26:35Z</time></trkpt><trkpt lat="45.80741187447648" lon="9.246665373994196"><ele>266.0</ele><time>2026-04-26T07:26:36Z</time></trkpt><trkpt lat="45.8074328434068" lon="9.246832901640031"><ele>265.5</ele><time>2026-04-26T07:26:37Z</time></trkpt><trkpt lat="45.80746931027332" lon="9.247034383389423"><ele>265.0</ele><time>2026-04-26T07:26:38Z</time></trkpt><trkpt lat="45.8074829223539" lon="9.24725705647744"><ele>265.0</ele><time>2026-04-26T07:26:39Z</time></trkpt><trkpt lat="45.80747059805446" lon="9.247524640854445"><ele>265.0</ele><time>2026-04-26T07:26:40Z</time></trkpt><trkpt lat="45.807452779488905" lon="9.247817738107788"><ele>265.0</ele><time>2026-04-26T07:26:41Z</time></trkpt><trkpt lat="45.80743126379758" lon="9.248130745734311"><ele>265.66666666666663</ele><time>2026-04-26T07:26:42Z</time></trkpt><trkpt lat="45.80741771835354" lon="9.248456282870212"><ele>266.3333333333333</ele><time>2026-04-26T07:26:43Z</time></trkpt><trkpt lat="45.80741425311421" lon="9.248764300389912"><ele>267.0</ele><time>2026-04-26T07:26:44Z</time></trkpt><trkpt lat="45.807411770424416" lon="9.24904004957905"><ele>267.6666666666667</ele><time>2026-04-26T07:26:45Z</time></trkpt><trkpt lat="45.807405983115224" lon="9.249290107374003"><ele>268.33333333333337</ele><time>2026-04-26T07:26:46Z</time></trkpt><trkpt lat="45.80739779162097" lon="9.249523374954004"><ele>269.0</ele><time>2026-04-26T07:26:47Z</time></trkpt><trkpt lat="45.80739113039294" lon="9.249752461033722"><ele>269.0</ele><time>2026-04-26T07:26:48Z</time></trkpt><trkpt lat="45.80736598464378" lon="9.249969629625447"><ele>269.0</ele><time>2026-04-26T07:26:49Z</time></trkpt><trkpt lat="45.8073538766191" lon="9.250200092326429"><ele>269.0</ele><time>2026-04-26T07:26:50Z</time></trkpt><trkpt lat="45.80734102329519" lon="9.250444364459998"><ele>268.6666666666667</ele><time>2026-04-26T07:26:51Z</time></trkpt><trkpt lat="45.8073269060772" lon="9.250709890767169"><ele>268.3333333333333</ele><time>2026-04-26T07:26:52Z</time></trkpt><trkpt lat="45.80731297913409" lon="9.250971381120824"><ele>268.0</ele><time>2026-04-26T07:26:53Z</time></trkpt><trkpt lat="45.80731517688388" lon="9.251244881638204"><ele>268.3333333333333</ele><time>2026-04-26T07:26:54Z</time></trkpt><trkpt lat="45.80728969051802" lon="9.251517912204092"><ele>268.6666666666667</ele><time>2026-04-26T07:26:55Z</time></trkpt><trkpt lat="45.807273300062064" lon="9.251775692704935"><ele>269.0</ele><time>2026-04-26T07:26:56Z</time></trkpt><trkpt lat="45.80726021045662" lon="9.252025465276294"><ele>269.0</ele><time>2026-04-26T07:26:57Z</time></trkpt><trkpt lat="45.80725045112061" lon="9.252275527480267"><ele>269.0</ele><time>2026-04-26T07:26:58Z</time></trkpt><trkpt lat="45.807237338490346" lon="9.252512955446171"><ele>269.0</ele><time>2026-04-26T07:26:59Z</time></trkpt><trkpt lat="45.80723083986218" lon="9.252755579957087"><ele>268.6666666666667</ele><time>2026-04-26T07:27:00Z</time></trkpt><trkpt lat="45.80722931587545" lon="9.25298681548712"><ele>268.3333333333333</ele><time>2026-04-26T07:27:01Z</time></trkpt><trkpt lat="45.807228871946755" lon="9.253213360193373"><ele>268.0</ele><time>2026-04-26T07:27:02Z</time></trkpt><trkpt lat="45.80722504873937" lon="9.253438217932732"><ele>269.66666666666663</ele><time>2026-04-26T07:27:03Z</time></trkpt><trkpt lat="45.80722851208601" lon="9.253667221408651"><ele>271.3333333333333</ele><time>2026-04-26T07:27:04Z</time></trkpt><trkpt lat="45.8072304553506" lon="9.253898560596303"><ele>273.0</ele><time>2026-04-26T07:27:05Z</time></trkpt><trkpt lat="45.80725381170549" lon="9.254127282954316"><ele>273.0</ele><time>2026-04-26T07:27:06Z</time></trkpt><trkpt lat="45.80729381892358" lon="9.254357265515706"><ele>273.0</ele><time>2026-04-26T07:27:07Z</time></trkpt><trkpt lat="45.807315549289555" lon="9.25458836576627"><ele>273.0</ele><time>2026-04-26T07:27:08Z</time></trkpt><trkpt lat="45.8073443086826" lon="9.254823303668802"><ele>271.6666666666667</ele><time>2026-04-26T07:27:09Z</time></trkpt><trkpt lat="45.80737337025995" lon="9.255052959368447"><ele>270.33333333333337</ele><time>2026-04-26T07:27:10Z</time></trkpt><trkpt lat="45.80739848457832" lon="9.255273596899675"><ele>269.0</ele><time>2026-04-26T07:27:11Z</time></trkpt><trkpt lat="45.80742866033711" lon="9.25549317224756"><ele>268.6666666666667</ele><time>2026-04-26T07:27:12Z</time></trkpt><trkpt lat="45.80745521097188" lon="9.255721882764178"><ele>268.3333333333333</ele><time>2026-04-26T07:27:13Z</time></trkpt><trkpt lat="45.807483955493765" lon="9.255947052869457"><ele>268.0</ele><time>2026-04-26T07:27:14Z</time></trkpt><trkpt lat="45.807505017691895" lon="9.256176894014027"><ele>268.0</ele><time>2026-04-26T07:27:15Z</time></trkpt><trkpt lat="45.807533539790036" lon="9.256404353781418"><ele>268.0</ele><time>2026-04-26T07:27:16Z</time></trkpt><trkpt lat="45.80756049182374" lon="9.256630268873298"><ele>268.0</ele><time>2026-04-26T07:27:17Z</time></trkpt><trkpt lat="45.807587994824374" lon="9.256856983480814"><ele>267.3333333333333</ele><time>2026-04-26T07:27:18Z</time></trkpt><trkpt lat="45.80760536176481" lon="9.257084277222337"><ele>266.6666666666667</ele><time>2026-04-26T07:27:19Z</time></trkpt><trkpt lat="45.80765136516385" lon="9.257305468468083"><ele>266.0</ele><time>2026-04-26T07:27:20Z</time></trkpt><trkpt lat="45.807694789192055" lon="9.257550312369366"><ele>267.33333333333337</ele><time>2026-04-26T07:27:21Z</time></trkpt><trkpt lat="45.80771252302773" lon="9.257767630626715"><ele>268.6666666666667</ele><time>2026-04-26T07:27:22Z</time></trkpt><trkpt lat="45.80774225855543" lon="9.257983126763929"><ele>270.0</ele><time>2026-04-26T07:27:23Z</time></trkpt><trkpt lat="45.80776983617632" lon="9.25821084188919"><ele>270.0</ele><time>2026-04-26T07:27:24Z</time></trkpt><trkpt lat="45.80780145981441" lon="9.25843504712419"><ele>270.0</ele><time>2026-04-26T07:27:25Z</time></trkpt><trkpt lat="45.807844091065014" lon="9.258653199124485"><ele>270.0</ele><time>2026-04-26T07:27:26Z</time></trkpt><trkpt lat="45.80789670944611" lon="9.258879764674331"><ele>269.6666666666667</ele><time>2026-04-26T07:27:27Z</time></trkpt><trkpt lat="45.80795689722089" lon="9.25909685733258"><ele>269.33333333333337</ele><time>2026-04-26T07:27:28Z</time></trkpt><trkpt lat="45.80801147334025" lon="9.25931075070272"><ele>269.0</ele><time>2026-04-26T07:27:29Z</time></trkpt><trkpt lat="45.80807466280904" lon="9.259529985918745"><ele>269.0</ele><time>2026-04-26T07:27:30Z</time></trkpt><trkpt lat="45.8081389966725" lon="9.259751047365752"><ele>269.0</ele><time>2026-04-26T07:27:31Z</time></trkpt><trkpt lat="45.80820432051138" lon="9.259971558103922"><ele>269.0</ele><time>2026-04-26T07:27:32Z</time></trkpt><trkpt lat="45.808267872419265" lon="9.260206843941345"><ele>267.6666666666667</ele><time>2026-04-26T07:27:33Z</time></trkpt><trkpt lat="45.80833298943148" lon="9.260427119586508"><ele>266.3333333333333</ele><time>2026-04-26T07:27:34Z</time></trkpt><trkpt lat="45.808402644562996" lon="9.260677566952591"><ele>265.0</ele><time>2026-04-26T07:27:35Z</time></trkpt><trkpt lat="45.80845995889027" lon="9.26088627620025"><ele>266.0</ele><time>2026-04-26T07:27:36Z</time></trkpt><trkpt lat="45.80852167759989" lon="9.261089993469756"><ele>267.0</ele><time>2026-04-26T07:27:37Z</time></trkpt><trkpt lat="45.80858269851617" lon="9.261301941621838"><ele>268.0</ele><time>2026-04-26T07:27:38Z</time></trkpt><trkpt lat="45.80864110315295" lon="9.261511891922893"><ele>268.0</ele><time>2026-04-26T07:27:39Z</time></trkpt><trkpt lat="45.80869508812061" lon="9.261718889805202"><ele>268.0</ele><time>2026-04-26T07:27:40Z</time></trkpt><trkpt lat="45.80875222306939" lon="9.261925466489647"><ele>268.0</ele><time>2026-04-26T07:27:41Z</time></trkpt><trkpt lat="45.80881039759655" lon="9.262131572146565"><ele>267.66666666666663</ele><time>2026-04-26T07:27:42Z</time></trkpt><trkpt lat="45.808868927522504" lon="9.262335924793453"><ele>267.3333333333333</ele><time>2026-04-26T07:27:43Z</time></trkpt><trkpt lat="45.808931405294516" lon="9.26254799767664"><ele>267.0</ele><time>2026-04-26T07:27:44Z</time></trkpt><trkpt lat="45.808982986968644" lon="9.262753147475799"><ele>267.0</ele><time>2026-04-26T07:27:45Z</time></trkpt><trkpt lat="45.80904398046726" lon="9.262953598311539"><ele>267.0</ele><time>2026-04-26T07:27:46Z</time></trkpt><trkpt lat="45.80911355044761" lon="9.263161578769399"><ele>267.0</ele><time>2026-04-26T07:27:47Z</time></trkpt><trkpt lat="45.80918350973082" lon="9.2633642713092"><ele>266.3333333333333</ele><time>2026-04-26T07:27:48Z</time></trkpt><trkpt lat="45.80926906043579" lon="9.263563696266726"><ele>265.66666666666663</ele><time>2026-04-26T07:27:49Z</time></trkpt><trkpt lat="45.80934615638967" lon="9.263768312374484"><ele>265.0</ele><time>2026-04-26T07:27:50Z</time></trkpt><trkpt lat="45.80943886111768" lon="9.263962534126584"><ele>268.3333333333333</ele><time>2026-04-26T07:27:51Z</time></trkpt><trkpt lat="45.80954212144066" lon="9.264160478315395"><ele>271.6666666666667</ele><time>2026-04-26T07:27:52Z</time></trkpt><trkpt lat="45.80965530125028" lon="9.264389480333909"><ele>275.0</ele><time>2026-04-26T07:27:53Z</time></trkpt><trkpt lat="45.809804688207116" lon="9.264632761031406"><ele>270.5</ele><time>2026-04-26T07:27:54Z</time></trkpt><trkpt lat="45.80997958368031" lon="9.264880203425353"><ele>266.0</ele><time>2026-04-26T07:27:55Z</time></trkpt><trkpt lat="45.81015860549744" lon="9.265158028815291"><ele>270.5</ele><time>2026-04-26T07:27:56Z</time></trkpt><trkpt lat="45.81031794787999" lon="9.265435927334563"><ele>275.0</ele><time>2026-04-26T07:27:57Z</time></trkpt><trkpt lat="45.81046210744829" lon="9.265713419911323"><ele>275.0</ele><time>2026-04-26T07:27:58Z</time></trkpt><trkpt lat="45.81060630620433" lon="9.266037213289394"><ele>275.0</ele><time>2026-04-26T07:27:59Z</time></trkpt><trkpt lat="45.8107368694222" lon="9.266297164719234"><ele>277.33333333333337</ele><time>2026-04-26T07:28:00Z</time></trkpt><trkpt lat="45.81086209813767" lon="9.2665495832326"><ele>279.6666666666667</ele><time>2026-04-26T07:28:01Z</time></trkpt><trkpt lat="45.81099190743862" lon="9.26678601828707"><ele>282.0</ele><time>2026-04-26T07:28:02Z</time></trkpt><trkpt lat="45.81109757241561" lon="9.267004207035301"><ele>282.0</ele><time>2026-04-26T07:28:03Z</time></trkpt><trkpt lat="45.811204653369344" lon="9.267224453111492"><ele>282.0</ele><time>2026-04-26T07:28:04Z</time></trkpt><trkpt lat="45.81131294255465" lon="9.267425071844121"><ele>282.0</ele><time>2026-04-26T07:28:05Z</time></trkpt><trkpt lat="45.81141430759416" lon="9.267621349552579"><ele>279.5</ele><time>2026-04-26T07:28:06Z</time></trkpt><trkpt lat="45.81148824941658" lon="9.267802847778706"><ele>277.0</ele><time>2026-04-26T07:28:07Z</time></trkpt><trkpt lat="45.81154937756161" lon="9.267957755641044"><ele>274.5</ele><time>2026-04-26T07:28:08Z</time></trkpt><trkpt lat="45.81160659240489" lon="9.268090791863491"><ele>272.0</ele><time>2026-04-26T07:28:09Z</time></trkpt><trkpt lat="45.81166932267524" lon="9.268209406516206"><ele>270.75</ele><time>2026-04-26T07:28:10Z</time></trkpt><trkpt lat="45.81174411750233" lon="9.268336084794207"><ele>269.5</ele><time>2026-04-26T07:28:11Z</time></trkpt><trkpt lat="45.811824221891" lon="9.268477724951147"><ele>268.25</ele><time>2026-04-26T07:28:12Z</time></trkpt><trkpt lat="45.81189350022614" lon="9.268628253111752"><ele>267.0</ele><time>2026-04-26T07:28:13Z</time></trkpt><trkpt lat="45.81193593706025" lon="9.268782233865116"><ele>268.1666666666667</ele><time>2026-04-26T07:28:14Z</time></trkpt><trkpt lat="45.81197238265909" lon="9.268913468006707"><ele>269.3333333333333</ele><time>2026-04-26T07:28:15Z</time></trkpt><trkpt lat="45.81198923814301" lon="9.269034865772182"><ele>270.5</ele><time>2026-04-26T07:28:16Z</time></trkpt><trkpt lat="45.81200165333843" lon="9.26916496366595"><ele>271.66666666666663</ele><time>2026-04-26T07:28:17Z</time></trkpt><trkpt lat="45.812000273404145" lon="9.26925979170569"><ele>272.8333333333333</ele><time>2026-04-26T07:28:18Z</time></trkpt><trkpt lat="45.812005920203056" lon="9.26935331629107"><ele>274.0</ele><time>2026-04-26T07:28:19Z</time></trkpt><trkpt lat="45.812008445233595" lon="9.269457828296378"><ele>274.0</ele><time>2026-04-26T07:28:20Z</time></trkpt><trkpt lat="45.812021057802525" lon="9.269585877224939"><ele>274.0</ele><time>2026-04-26T07:28:21Z</time></trkpt><trkpt lat="45.81203831770359" lon="9.26972884177223"><ele>274.0</ele><time>2026-04-26T07:28:22Z</time></trkpt><trkpt lat="45.81212066887824" lon="9.269868102640336"><ele>274.0</ele><time>2026-04-26T07:28:23Z</time></trkpt><trkpt lat="45.812223732586936" lon="9.26998793858638"><ele>270.66666666666663</ele><time>2026-04-26T07:28:24Z</time></trkpt><trkpt lat="45.81235697252234" lon="9.270121652632392"><ele>267.3333333333333</ele><time>2026-04-26T07:28:25Z</time></trkpt><trkpt lat="45.81249930986756" lon="9.27031480114294"><ele>264.0</ele><time>2026-04-26T07:28:26Z</time></trkpt><trkpt lat="45.812647505853555" lon="9.270504289245954"><ele>269.0</ele><time>2026-04-26T07:28:27Z</time></trkpt><trkpt lat="45.81279391377051" lon="9.270706935976655"><ele>274.0</ele><time>2026-04-26T07:28:28Z</time></trkpt><trkpt lat="45.81294081773447" lon="9.270921295869837"><ele>279.0</ele><time>2026-04-26T07:28:29Z</time></trkpt><trkpt lat="45.81305965720103" lon="9.271134081779339"><ele>279.0</ele><time>2026-04-26T07:28:30Z</time></trkpt><trkpt lat="45.81317246446328" lon="9.271355505506973"><ele>279.0</ele><time>2026-04-26T07:28:31Z</time></trkpt><trkpt lat="45.813268485996204" lon="9.27158169665704"><ele>279.0</ele><time>2026-04-26T07:28:32Z</time></trkpt><trkpt lat="45.813348067106894" lon="9.27182247541111"><ele>276.3333333333333</ele><time>2026-04-26T07:28:33Z</time></trkpt><trkpt lat="45.81341014580625" lon="9.272081471010278"><ele>273.66666666666663</ele><time>2026-04-26T07:28:34Z</time></trkpt><trkpt lat="45.81343981584246" lon="9.272322006023725"><ele>271.0</ele><time>2026-04-26T07:28:35Z</time></trkpt><trkpt lat="45.81345313300399" lon="9.272572839637284"><ele>268.66666666666663</ele><time>2026-04-26T07:28:36Z</time></trkpt><trkpt lat="45.813466709363695" lon="9.272824609570865"><ele>266.3333333333333</ele><time>2026-04-26T07:28:37Z</time></trkpt><trkpt lat="45.81350208008651" lon="9.27306907498761"><ele>264.0</ele><time>2026-04-26T07:28:38Z</time></trkpt><trkpt lat="45.81356085320828" lon="9.273288877118963"><ele>269.6666666666667</ele><time>2026-04-26T07:28:39Z</time></trkpt><trkpt lat="45.81360709523288" lon="9.273505807928803"><ele>275.33333333333337</ele><time>2026-04-26T07:28:40Z</time></trkpt><trkpt lat="45.81367689130421" lon="9.27371019046364"><ele>281.0</ele><time>2026-04-26T07:28:41Z</time></trkpt><trkpt lat="45.81373138897845" lon="9.273920851387896"><ele>279.0</ele><time>2026-04-26T07:28:42Z</time></trkpt><trkpt lat="45.81379358454152" lon="9.274130588750626"><ele>277.0</ele><time>2026-04-26T07:28:43Z</time></trkpt><trkpt lat="45.81385293084312" lon="9.274331855960591"><ele>275.0</ele><time>2026-04-26T07:28:44Z</time></trkpt><trkpt lat="45.81389355881727" lon="9.274539757148455"><ele>275.0</ele><time>2026-04-26T07:28:45Z</time></trkpt><trkpt lat="45.813928868300465" lon="9.274753932598115"><ele>275.0</ele><time>2026-04-26T07:28:46Z</time></trkpt><trkpt lat="45.81396508080105" lon="9.2749944499733"><ele>275.0</ele><time>2026-04-26T07:28:47Z</time></trkpt><trkpt lat="45.81400501738239" lon="9.275254016713731"><ele>273.33333333333337</ele><time>2026-04-26T07:28:48Z</time></trkpt><trkpt lat="45.81404410330786" lon="9.275510013682853"><ele>271.6666666666667</ele><time>2026-04-26T07:28:49Z</time></trkpt><trkpt lat="45.814081808496226" lon="9.275758434930676"><ele>270.0</ele><time>2026-04-26T07:28:50Z</time></trkpt><trkpt lat="45.81411996204368" lon="9.276008035284104"><ele>270.0</ele><time>2026-04-26T07:28:51Z</time></trkpt><trkpt lat="45.8141546914853" lon="9.276234101608653"><ele>270.0</ele><time>2026-04-26T07:28:52Z</time></trkpt><trkpt lat="45.814184039472465" lon="9.276434031077835"><ele>270.0</ele><time>2026-04-26T07:28:53Z</time></trkpt><trkpt lat="45.81420402885968" lon="9.276622387811662"><ele>270.0</ele><time>2026-04-26T07:28:54Z</time></trkpt><trkpt lat="45.81419542923588" lon="9.276793463532316"><ele>269.25</ele><time>2026-04-26T07:28:55Z</time></trkpt><trkpt lat="45.814182489509925" lon="9.276978130518877"><ele>268.5</ele><time>2026-04-26T07:28:56Z</time></trkpt><trkpt lat="45.81416858316775" lon="9.277146454032232"><ele>267.75</ele><time>2026-04-26T07:28:57Z</time></trkpt><trkpt lat="45.81415107401528" lon="9.277324989827562"><ele>267.0</ele><time>2026-04-26T07:28:58Z</time></trkpt><trkpt lat="45.81413365739" lon="9.277517887048456"><ele>267.0</ele><time>2026-04-26T07:28:59Z</time></trkpt><trkpt lat="45.814117699098325" lon="9.27771257243771"><ele>267.0</ele><time>2026-04-26T07:29:00Z</time></trkpt><trkpt lat="45.81409765290783" lon="9.277895458656852"><ele>267.0</ele><time>2026-04-26T07:29:01Z</time></trkpt><trkpt lat="45.81406434610964" lon="9.278064254949046"><ele>267.0</ele><time>2026-04-26T07:29:02Z</time></trkpt><trkpt lat="45.814013226840366" lon="9.278196144967527"><ele>267.25</ele><time>2026-04-26T07:29:03Z</time></trkpt><trkpt lat="45.81395215145608" lon="9.278345453805464"><ele>267.5</ele><time>2026-04-26T07:29:04Z</time></trkpt><trkpt lat="45.81388881511348" lon="9.278498833105816"><ele>267.75</ele><time>2026-04-26T07:29:05Z</time></trkpt><trkpt lat="45.81383245944304" lon="9.27863453819715"><ele>268.0</ele><time>2026-04-26T07:29:06Z</time></trkpt><trkpt lat="45.81378075248583" lon="9.278758002203832"><ele>268.0</ele><time>2026-04-26T07:29:07Z</time></trkpt><trkpt lat="45.81373167766236" lon="9.278875074207274"><ele>268.0</ele><time>2026-04-26T07:29:08Z</time></trkpt><trkpt lat="45.81368399471416" lon="9.27898701174879"><ele>268.0</ele><time>2026-04-26T07:29:09Z</time></trkpt><trkpt lat="45.81363352010006" lon="9.27910682928476"><ele>268.0</ele><time>2026-04-26T07:29:10Z</time></trkpt><trkpt lat="45.81358931216288" lon="9.279220293584324"><ele>268.0</ele><time>2026-04-26T07:29:11Z</time></trkpt><trkpt lat="45.813549454885205" lon="9.279348184063016"><ele>268.0</ele><time>2026-04-26T07:29:12Z</time></trkpt><trkpt lat="45.81353062379967" lon="9.279475033136393"><ele>268.0</ele><time>2026-04-26T07:29:13Z</time></trkpt><trkpt lat="45.81352064168959" lon="9.279612546956162"><ele>268.0</ele><time>2026-04-26T07:29:14Z</time></trkpt><trkpt lat="45.81350869367678" lon="9.27974928293121"><ele>268.0</ele><time>2026-04-26T07:29:15Z</time></trkpt><trkpt lat="45.813506634106275" lon="9.279875578705504"><ele>268.0</ele><time>2026-04-26T07:29:16Z</time></trkpt><trkpt lat="45.813504589213224" lon="9.280000974518263"><ele>268.0</ele><time>2026-04-26T07:29:17Z</time></trkpt><trkpt lat="45.81350308264971" lon="9.280108203755372"><ele>268.0</ele><time>2026-04-26T07:29:18Z</time></trkpt><trkpt lat="45.81350143978265" lon="9.280260125741332"><ele>268.0</ele><time>2026-04-26T07:29:20Z</time></trkpt><trkpt lat="45.81349978660329" lon="9.280360080504137"><ele>268.0</ele><time>2026-04-26T07:29:22Z</time></trkpt><trkpt lat="45.81355738441043" lon="9.280491827140553"><ele>268.0</ele><time>2026-04-26T07:36:35Z</time></trkpt><trkpt lat="45.813547250501074" lon="9.280586855439859"><ele>268.0</ele><time>2026-04-26T07:36:49Z</time></trkpt><trkpt lat="45.813494643286944" lon="9.280680717182777"><ele>266.8</ele><time>2026-04-26T07:36:50Z</time></trkpt><trkpt lat="45.81346658669407" lon="9.28078887154558"><ele>265.6</ele><time>2026-04-26T07:36:51Z</time></trkpt><trkpt lat="45.81344822875096" lon="9.280929550411715"><ele>264.4</ele><time>2026-04-26T07:36:52Z</time></trkpt><trkpt lat="45.81344582501376" lon="9.281076533315083"><ele>263.2</ele><time>2026-04-26T07:36:53Z</time></trkpt><trkpt lat="45.8134291083533" lon="9.281229445783913"><ele>262.0</ele><time>2026-04-26T07:36:54Z</time></trkpt><trkpt lat="45.81343739941646" lon="9.281393850666534"><ele>262.2</ele><time>2026-04-26T07:36:55Z</time></trkpt><trkpt lat="45.81344138325701" lon="9.28154377880453"><ele>262.4</ele><time>2026-04-26T07:36:56Z</time></trkpt><trkpt lat="45.81344495445212" lon="9.28166317673117"><ele>262.6</ele><time>2026-04-26T07:36:57Z</time></trkpt><trkpt lat="45.81343976914505" lon="9.281786016096193"><ele>262.8</ele><time>2026-04-26T07:36:58Z</time></trkpt><trkpt lat="45.81343868380437" lon="9.281942640550643"><ele>263.0</ele><time>2026-04-26T07:36:59Z</time></trkpt><trkpt lat="45.8134525505564" lon="9.282130261109309"><ele>263.0</ele><time>2026-04-26T07:37:00Z</time></trkpt><trkpt lat="45.813453796598345" lon="9.282362214031744"><ele>263.0</ele><time>2026-04-26T07:37:01Z</time></trkpt><trkpt lat="45.813462201751676" lon="9.282628527577398"><ele>263.0</ele><time>2026-04-26T07:37:02Z</time></trkpt><trkpt lat="45.8134697335248" lon="9.2828907672682"><ele>262.6666666666667</ele><time>2026-04-26T07:37:03Z</time></trkpt><trkpt lat="45.813478452575694" lon="9.283166150974658"><ele>262.3333333333333</ele><time>2026-04-26T07:37:04Z</time></trkpt><trkpt lat="45.81348709356974" lon="9.28343044943061"><ele>262.0</ele><time>2026-04-26T07:37:05Z</time></trkpt><trkpt lat="45.81349379615488" lon="9.283657311121505"><ele>264.3333333333333</ele><time>2026-04-26T07:37:06Z</time></trkpt><trkpt lat="45.81350033448838" lon="9.283880415980633"><ele>266.6666666666667</ele><time>2026-04-26T07:37:07Z</time></trkpt><trkpt lat="45.81350744962018" lon="9.284123202876943"><ele>269.0</ele><time>2026-04-26T07:37:08Z</time></trkpt><trkpt lat="45.81351388428373" lon="9.28434303475597"><ele>269.0</ele><time>2026-04-26T07:37:09Z</time></trkpt><trkpt lat="45.81352064633307" lon="9.284558569240192"><ele>269.0</ele><time>2026-04-26T07:37:10Z</time></trkpt><trkpt lat="45.81348732183535" lon="9.284759008083896"><ele>269.0</ele><time>2026-04-26T07:37:11Z</time></trkpt><trkpt lat="45.81348834627611" lon="9.28494351207484"><ele>269.0</ele><time>2026-04-26T07:37:12Z</time></trkpt><trkpt lat="45.813492182252325" lon="9.285108902896598"><ele>269.0</ele><time>2026-04-26T07:37:13Z</time></trkpt><trkpt lat="45.81328186895502" lon="9.285130094167124"><ele>269.0</ele><time>2026-04-26T07:37:14Z</time></trkpt><trkpt lat="45.813203445820776" lon="9.285218428864969"><ele>269.0</ele><time>2026-04-26T07:37:15Z</time></trkpt><trkpt lat="45.81356925865382" lon="9.285708343144222"><ele>269.0</ele><time>2026-04-26T07:37:16Z</time></trkpt><trkpt lat="45.81358280313673" lon="9.28590093424154"><ele>269.0</ele><time>2026-04-26T07:37:17Z</time></trkpt><trkpt lat="45.81359104830652" lon="9.28609540933545"><ele>269.0</ele><time>2026-04-26T07:37:17.999Z</time></trkpt><trkpt lat="45.813587674194764" lon="9.286272656366634"><ele>269.0</ele><time>2026-04-26T07:37:18.999Z</time></trkpt><trkpt lat="45.81358146765143" lon="9.286402115712738"><ele>268.8</ele><time>2026-04-26T07:37:19.999Z</time></trkpt><trkpt lat="45.81359366735663" lon="9.286565932726479"><ele>268.59999999999997</ele><time>2026-04-26T07:37:21.999Z</time></trkpt><trkpt lat="45.81357972985517" lon="9.286661853339202"><ele>268.4</ele><time>2026-04-26T07:37:22.999Z</time></trkpt><trkpt lat="45.81359122427715" lon="9.286776089074225"><ele>268.2</ele><time>2026-04-26T07:37:23.999Z</time></trkpt><trkpt lat="45.81356224208821" lon="9.286926970691143"><ele>268.0</ele><time>2026-04-26T07:37:24.999Z</time></trkpt><trkpt lat="45.81356533174521" lon="9.287114608499154"><ele>268.75</ele><time>2026-04-26T07:37:25.999Z</time></trkpt><trkpt lat="45.81357720567584" lon="9.287279678399038"><ele>269.5</ele><time>2026-04-26T07:37:26.999Z</time></trkpt><trkpt lat="45.8135926095199" lon="9.28743271295337"><ele>270.25</ele><time>2026-04-26T07:37:27.999Z</time></trkpt><trkpt lat="45.81361459769832" lon="9.28761581483479"><ele>271.0</ele><time>2026-04-26T07:37:28.999Z</time></trkpt><trkpt lat="45.81365722927106" lon="9.28781948012117"><ele>271.0</ele><time>2026-04-26T07:37:29.999Z</time></trkpt><trkpt lat="45.81366858204178" lon="9.288024937368437"><ele>271.0</ele><time>2026-04-26T07:37:30.999Z</time></trkpt><trkpt lat="45.81374255337493" lon="9.28829927557576"><ele>271.0</ele><time>2026-04-26T07:37:31.999Z</time></trkpt><trkpt lat="45.81375304565201" lon="9.28854840230447"><ele>269.0</ele><time>2026-04-26T07:37:32.999Z</time></trkpt><trkpt lat="45.81381428209758" lon="9.288958512077865"><ele>267.0</ele><time>2026-04-26T07:37:33.999Z</time></trkpt><trkpt lat="45.813866080013355" lon="9.289342992792665"><ele>267.0</ele><time>2026-04-26T07:37:34.999Z</time></trkpt><trkpt lat="45.81393788906269" lon="9.289621604202438"><ele>267.0</ele><time>2026-04-26T07:37:35.999Z</time></trkpt><trkpt lat="45.81399754390421" lon="9.289888442961708"><ele>267.0</ele><time>2026-04-26T07:37:36.999Z</time></trkpt><trkpt lat="45.81406853526263" lon="9.2901241483115"><ele>267.0</ele><time>2026-04-26T07:37:37.999Z</time></trkpt><trkpt lat="45.81413582279438" lon="9.290316710788503"><ele>267.0</ele><time>2026-04-26T07:37:38.999Z</time></trkpt><trkpt lat="45.81417632790086" lon="9.290502191118529"><ele>267.0</ele><time>2026-04-26T07:37:39.999Z</time></trkpt><trkpt lat="45.81419399076208" lon="9.29065697163786"><ele>267.0</ele><time>2026-04-26T07:37:40.999Z</time></trkpt><trkpt lat="45.81420827363138" lon="9.290789945679629"><ele>266.2</ele><time>2026-04-26T07:37:41.999Z</time></trkpt><trkpt lat="45.81420408236351" lon="9.290899161245106"><ele>265.4</ele><time>2026-04-26T07:37:42.999Z</time></trkpt><trkpt lat="45.81416737105266" lon="9.29101073843188"><ele>264.6</ele><time>2026-04-26T07:37:44.999Z</time></trkpt><trkpt lat="45.81416266079591" lon="9.29114478806304"><ele>263.8</ele><time>2026-04-26T07:37:46.999Z</time></trkpt><trkpt lat="45.8142001843103" lon="9.291312603138124"><ele>263.0</ele><time>2026-04-26T07:37:48.999Z</time></trkpt><trkpt lat="45.81424934925235" lon="9.291401670481212"><ele>262.6</ele><time>2026-04-26T07:37:49.999Z</time></trkpt><trkpt lat="45.814310262872375" lon="9.291481437192614"><ele>262.20000000000005</ele><time>2026-04-26T07:37:50.999Z</time></trkpt><trkpt lat="45.81437125974595" lon="9.291574050369418"><ele>261.8</ele><time>2026-04-26T07:37:51.999Z</time></trkpt><trkpt lat="45.81442369576285" lon="9.291691378750217"><ele>261.40000000000003</ele><time>2026-04-26T07:37:52.999Z</time></trkpt><trkpt lat="45.8144926941058" lon="9.291826780782076"><ele>261.0</ele><time>2026-04-26T07:37:54Z</time></trkpt><trkpt lat="45.81454776139101" lon="9.291979703087664"><ele>262.3333333333333</ele><time>2026-04-26T07:37:55Z</time></trkpt><trkpt lat="45.81457642269068" lon="9.292185199235172"><ele>263.66666666666663</ele><time>2026-04-26T07:37:56Z</time></trkpt><trkpt lat="45.814612285962234" lon="9.29241156655794"><ele>265.0</ele><time>2026-04-26T07:37:57Z</time></trkpt><trkpt lat="45.81466442843991" lon="9.29269924929175"><ele>265.0</ele><time>2026-04-26T07:37:58Z</time></trkpt><trkpt lat="45.81475081644195" lon="9.293024855698908"><ele>265.0</ele><time>2026-04-26T07:37:59Z</time></trkpt><trkpt lat="45.81486012922731" lon="9.293397498942648"><ele>265.0</ele><time>2026-04-26T07:38:00Z</time></trkpt><trkpt lat="45.81498970574996" lon="9.293775348131485"><ele>265.0</ele><time>2026-04-26T07:38:01Z</time></trkpt><trkpt lat="45.81511281357035" lon="9.294090952295415"><ele>267.25</ele><time>2026-04-26T07:38:02Z</time></trkpt><trkpt lat="45.815190994964624" lon="9.294310467224248"><ele>269.5</ele><time>2026-04-26T07:38:03Z</time></trkpt><trkpt lat="45.8152502505473" lon="9.294470104345777"><ele>271.75</ele><time>2026-04-26T07:38:04Z</time></trkpt><trkpt lat="45.81530266306739" lon="9.294597930339217"><ele>274.0</ele><time>2026-04-26T07:38:06Z</time></trkpt><trkpt lat="45.81535386185407" lon="9.294739160207659"><ele>273.75</ele><time>2026-04-26T07:38:08Z</time></trkpt><trkpt lat="45.815397382667385" lon="9.294860321899014"><ele>273.5</ele><time>2026-04-26T07:38:09Z</time></trkpt><trkpt lat="45.8154405564531" lon="9.295001795982312"><ele>273.25</ele><time>2026-04-26T07:38:10Z</time></trkpt><trkpt lat="45.81549237365006" lon="9.295160888811262"><ele>273.0</ele><time>2026-04-26T07:38:11Z</time></trkpt><trkpt lat="45.81554837275441" lon="9.295342322148572"><ele>273.0</ele><time>2026-04-26T07:38:12Z</time></trkpt><trkpt lat="45.81558669805544" lon="9.295526283271515"><ele>273.0</ele><time>2026-04-26T07:38:13Z</time></trkpt><trkpt lat="45.815645229099935" lon="9.295693769281316"><ele>273.0</ele><time>2026-04-26T07:38:14Z</time></trkpt><trkpt lat="45.81567868044526" lon="9.295883740567525"><ele>273.0</ele><time>2026-04-26T07:38:15Z</time></trkpt><trkpt lat="45.81571677407023" lon="9.296080182236665"><ele>273.25</ele><time>2026-04-26T07:38:16Z</time></trkpt><trkpt lat="45.81575270930397" lon="9.29625439923202"><ele>273.5</ele><time>2026-04-26T07:38:17Z</time></trkpt><trkpt lat="45.81579967089751" lon="9.296440439811546"><ele>273.75</ele><time>2026-04-26T07:38:18Z</time></trkpt><trkpt lat="45.81581473274522" lon="9.296622843658536"><ele>274.0</ele><time>2026-04-26T07:38:19Z</time></trkpt><trkpt lat="45.81584345952364" lon="9.296804264601588"><ele>274.0</ele><time>2026-04-26T07:38:20Z</time></trkpt><trkpt lat="45.81586830731123" lon="9.296970070505068"><ele>274.0</ele><time>2026-04-26T07:38:21Z</time></trkpt><trkpt lat="45.81588803986443" lon="9.297123386220026"><ele>274.0</ele><time>2026-04-26T07:38:22Z</time></trkpt><trkpt lat="45.81590216349484" lon="9.297267905427292"><ele>274.0</ele><time>2026-04-26T07:38:23Z</time></trkpt><trkpt lat="45.815910324715695" lon="9.297429323584073"><ele>274.0</ele><time>2026-04-26T07:38:24Z</time></trkpt><trkpt lat="45.815914418863166" lon="9.29759756712649"><ele>274.0</ele><time>2026-04-26T07:38:25Z</time></trkpt><trkpt lat="45.81591736759847" lon="9.297775005703928"><ele>274.0</ele><time>2026-04-26T07:38:26Z</time></trkpt><trkpt lat="45.815916456502535" lon="9.297912117817575"><ele>274.0</ele><time>2026-04-26T07:38:27Z</time></trkpt><trkpt lat="45.81591231532376" lon="9.298010073306228"><ele>274.0</ele><time>2026-04-26T07:38:28Z</time></trkpt><trkpt lat="45.81590544152012" lon="9.298147222629689"><ele>274.0</ele><time>2026-04-26T07:38:30Z</time></trkpt><trkpt lat="45.81588111370257" lon="9.298271078329657"><ele>273.8</ele><time>2026-04-26T07:38:32Z</time></trkpt><trkpt lat="45.81581106306395" lon="9.29839437528666"><ele>273.59999999999997</ele><time>2026-04-26T07:38:34Z</time></trkpt><trkpt lat="45.815765387431085" lon="9.298538215005062"><ele>273.4</ele><time>2026-04-26T07:38:36Z</time></trkpt><trkpt lat="45.81582529851069" lon="9.298655832916335"><ele>273.2</ele><time>2026-04-26T07:38:38Z</time></trkpt><trkpt lat="45.81590282752955" lon="9.298763804899554"><ele>273.0</ele><time>2026-04-26T07:38:40Z</time></trkpt><trkpt lat="45.815939670693865" lon="9.298910038844998"><ele>273.4</ele><time>2026-04-26T07:38:42Z</time></trkpt><trkpt lat="45.815956947813035" lon="9.299038863258517"><ele>273.8</ele><time>2026-04-26T07:38:43Z</time></trkpt><trkpt lat="45.81593511984753" lon="9.29916571460161"><ele>274.2</ele><time>2026-04-26T07:38:44Z</time></trkpt><trkpt lat="45.81593595620492" lon="9.29932409830872"><ele>274.6</ele><time>2026-04-26T07:38:45Z</time></trkpt><trkpt lat="45.81593595620544" lon="9.299531481823207"><ele>275.0</ele><time>2026-04-26T07:38:46Z</time></trkpt><trkpt lat="45.8159373985973" lon="9.299797842798093"><ele>276.0</ele><time>2026-04-26T07:38:47Z</time></trkpt><trkpt lat="45.81594087701889" lon="9.300118746391759"><ele>277.0</ele><time>2026-04-26T07:38:48Z</time></trkpt><trkpt lat="45.815943157823106" lon="9.300494916144622"><ele>278.0</ele><time>2026-04-26T07:38:49Z</time></trkpt><trkpt lat="45.815959689542034" lon="9.300801578617811"><ele>279.0</ele><time>2026-04-26T07:38:50Z</time></trkpt><trkpt lat="45.81600327621046" lon="9.301071459193514"><ele>280.0</ele><time>2026-04-26T07:38:51Z</time></trkpt><trkpt lat="45.8160517685062" lon="9.301326360864449"><ele>280.66666666666663</ele><time>2026-04-26T07:38:52Z</time></trkpt><trkpt lat="45.81611579918284" lon="9.301578760061574"><ele>281.3333333333333</ele><time>2026-04-26T07:38:53Z</time></trkpt><trkpt lat="45.81617995634941" lon="9.301813972576694"><ele>282.0</ele><time>2026-04-26T07:38:54Z</time></trkpt><trkpt lat="45.816254865007174" lon="9.302045073822802"><ele>281.0</ele><time>2026-04-26T07:38:55Z</time></trkpt><trkpt lat="45.81636309798373" lon="9.302282515961874"><ele>280.0</ele><time>2026-04-26T07:38:56Z</time></trkpt><trkpt lat="45.81645679431832" lon="9.30252529061896"><ele>279.0</ele><time>2026-04-26T07:38:57Z</time></trkpt><trkpt lat="45.816525693099265" lon="9.302731633206665"><ele>279.0</ele><time>2026-04-26T07:38:58Z</time></trkpt><trkpt lat="45.81659736570761" lon="9.302929108221516"><ele>279.0</ele><time>2026-04-26T07:38:59Z</time></trkpt><trkpt lat="45.81666273922491" lon="9.30313196079301"><ele>279.0</ele><time>2026-04-26T07:39:00Z</time></trkpt><trkpt lat="45.81672872710361" lon="9.303309699202778"><ele>280.25</ele><time>2026-04-26T07:39:01Z</time></trkpt><trkpt lat="45.81678490323718" lon="9.303472509272169"><ele>281.5</ele><time>2026-04-26T07:39:02Z</time></trkpt><trkpt lat="45.81683339125472" lon="9.303640347494508"><ele>282.75</ele><time>2026-04-26T07:39:03Z</time></trkpt><trkpt lat="45.81687346327315" lon="9.303810667018155"><ele>284.0</ele><time>2026-04-26T07:39:04Z</time></trkpt><trkpt lat="45.816903483447284" lon="9.30396341144716"><ele>286.5</ele><time>2026-04-26T07:39:05Z</time></trkpt><trkpt lat="45.8169414976822" lon="9.304130136097427"><ele>289.0</ele><time>2026-04-26T07:39:06Z</time></trkpt><trkpt lat="45.81698349589294" lon="9.304297938313796"><ele>291.5</ele><time>2026-04-26T07:39:07Z</time></trkpt><trkpt lat="45.81701477677459" lon="9.304467498030547"><ele>294.0</ele><time>2026-04-26T07:39:08Z</time></trkpt><trkpt lat="45.81704451332163" lon="9.304648773746045"><ele>291.0</ele><time>2026-04-26T07:39:09Z</time></trkpt><trkpt lat="45.81707995339651" lon="9.304830866968071"><ele>288.0</ele><time>2026-04-26T07:39:10Z</time></trkpt><trkpt lat="45.81711396725658" lon="9.30500635226102"><ele>285.0</ele><time>2026-04-26T07:39:11Z</time></trkpt><trkpt lat="45.817149610644734" lon="9.305163228036582"><ele>282.0</ele><time>2026-04-26T07:39:12Z</time></trkpt><trkpt lat="45.817182140443855" lon="9.305299396848357"><ele>282.0</ele><time>2026-04-26T07:39:13Z</time></trkpt><trkpt lat="45.817200884647896" lon="9.305437023111843"><ele>282.0</ele><time>2026-04-26T07:39:14Z</time></trkpt><trkpt lat="45.81723224534687" lon="9.305578041428529"><ele>282.0</ele><time>2026-04-26T07:39:15Z</time></trkpt><trkpt lat="45.81725278881521" lon="9.305726138973606"><ele>282.0</ele><time>2026-04-26T07:39:16Z</time></trkpt><trkpt lat="45.81728136048409" lon="9.305890796455627"><ele>282.0</ele><time>2026-04-26T07:39:17Z</time></trkpt><trkpt lat="45.81731285527573" lon="9.30603724817357"><ele>281.3333333333333</ele><time>2026-04-26T07:39:18Z</time></trkpt><trkpt lat="45.817339341900805" lon="9.306169804909754"><ele>280.6666666666667</ele><time>2026-04-26T07:39:19Z</time></trkpt><trkpt lat="45.81736092222056" lon="9.306283851646734"><ele>280.0</ele><time>2026-04-26T07:39:20Z</time></trkpt><trkpt lat="45.81738064119645" lon="9.306371898494683"><ele>279.33333333333337</ele><time>2026-04-26T07:39:21Z</time></trkpt><trkpt lat="45.8173989781689" lon="9.30650449553858"><ele>278.6666666666667</ele><time>2026-04-26T07:39:23Z</time></trkpt><trkpt lat="45.817391311773896" lon="9.306652644217879"><ele>278.0</ele><time>2026-04-26T07:39:25Z</time></trkpt><trkpt lat="45.81735367359396" lon="9.306786020389248"><ele>277.6</ele><time>2026-04-26T07:39:27Z</time></trkpt><trkpt lat="45.81740766632076" lon="9.306937499471227"><ele>277.20000000000005</ele><time>2026-04-26T07:39:29Z</time></trkpt><trkpt lat="45.81746293931155" lon="9.307028987334599"><ele>276.8</ele><time>2026-04-26T07:39:30Z</time></trkpt><trkpt lat="45.817508336801055" lon="9.307138588766087"><ele>276.40000000000003</ele><time>2026-04-26T07:39:31Z</time></trkpt><trkpt lat="45.817548861984136" lon="9.307309869576706"><ele>276.0</ele><time>2026-04-26T07:39:32Z</time></trkpt><trkpt lat="45.81757977125539" lon="9.30747386190137"><ele>275.75</ele><time>2026-04-26T07:39:33Z</time></trkpt><trkpt lat="45.81761113883214" lon="9.307642106056003"><ele>275.5</ele><time>2026-04-26T07:39:34Z</time></trkpt><trkpt lat="45.81764100834636" lon="9.307801455394939"><ele>275.25</ele><time>2026-04-26T07:39:35Z</time></trkpt><trkpt lat="45.81767132968311" lon="9.307959226391974"><ele>275.0</ele><time>2026-04-26T07:39:36Z</time></trkpt><trkpt lat="45.81770256013738" lon="9.3081226218613"><ele>275.75</ele><time>2026-04-26T07:39:37Z</time></trkpt><trkpt lat="45.8177358008903" lon="9.308296535091468"><ele>276.5</ele><time>2026-04-26T07:39:38Z</time></trkpt><trkpt lat="45.81776990903526" lon="9.308474986452913"><ele>277.25</ele><time>2026-04-26T07:39:39Z</time></trkpt><trkpt lat="45.81780508420312" lon="9.308659787221771"><ele>278.0</ele><time>2026-04-26T07:39:40Z</time></trkpt><trkpt lat="45.81784041197166" lon="9.308845889211215"><ele>277.5</ele><time>2026-04-26T07:39:40.999Z</time></trkpt><trkpt lat="45.817893475416" lon="9.309032050045406"><ele>277.0</ele><time>2026-04-26T07:39:41.999Z</time></trkpt><trkpt lat="45.81793025595399" lon="9.309230090532028"><ele>276.5</ele><time>2026-04-26T07:39:42.999Z</time></trkpt><trkpt lat="45.81796174635167" lon="9.309413058423637"><ele>276.0</ele><time>2026-04-26T07:39:43.999Z</time></trkpt><trkpt lat="45.8179931612904" lon="9.309579312929928"><ele>276.0</ele><time>2026-04-26T07:39:44.999Z</time></trkpt><trkpt lat="45.818017709104225" lon="9.30973139994623"><ele>276.0</ele><time>2026-04-26T07:39:45.999Z</time></trkpt><trkpt lat="45.818039492513606" lon="9.309891881693838"><ele>276.0</ele><time>2026-04-26T07:39:46.999Z</time></trkpt><trkpt lat="45.81806974169843" lon="9.310009540316031"><ele>276.0</ele><time>2026-04-26T07:39:47.999Z</time></trkpt><trkpt lat="45.818085897097276" lon="9.31011250085704"><ele>276.0</ele><time>2026-04-26T07:39:48.999Z</time></trkpt><trkpt lat="45.8180476446349" lon="9.310296745988381"><ele>275.3333333333333</ele><time>2026-04-26T07:39:50.999Z</time></trkpt><trkpt lat="45.8179867985749" lon="9.310352499266953"><ele>274.6666666666667</ele><time>2026-04-26T07:39:51.999Z</time></trkpt><trkpt lat="45.817932962449575" lon="9.310422594832394"><ele>274.0</ele><time>2026-04-26T07:39:52.999Z</time></trkpt><trkpt lat="45.817891868037115" lon="9.310497560449688"><ele>273.33333333333337</ele><time>2026-04-26T07:39:53.999Z</time></trkpt><trkpt lat="45.817863533113396" lon="9.310596057940717"><ele>272.6666666666667</ele><time>2026-04-26T07:39:54.999Z</time></trkpt><trkpt lat="45.81785804998064" lon="9.310695744160729"><ele>272.0</ele><time>2026-04-26T07:39:55.999Z</time></trkpt><trkpt lat="45.8178506481446" lon="9.310871930851672"><ele>270.8</ele><time>2026-04-26T07:39:57.999Z</time></trkpt><trkpt lat="45.817854240560834" lon="9.311019074798297"><ele>269.6</ele><time>2026-04-26T07:40:00Z</time></trkpt><trkpt lat="45.817842889398726" lon="9.311189965097505"><ele>268.40000000000003</ele><time>2026-04-26T07:40:02Z</time></trkpt><trkpt lat="45.81782895071316" lon="9.311282316721124"><ele>267.2</ele><time>2026-04-26T07:40:03Z</time></trkpt><trkpt lat="45.817813896305054" lon="9.311408440429263"><ele>266.0</ele><time>2026-04-26T07:40:04Z</time></trkpt><trkpt lat="45.81778940053137" lon="9.311550999608004"><ele>264.8</ele><time>2026-04-26T07:40:05Z</time></trkpt><trkpt lat="45.817781857771465" lon="9.311708422714277"><ele>263.6</ele><time>2026-04-26T07:40:06Z</time></trkpt><trkpt lat="45.81774793699912" lon="9.31186423507577"><ele>262.4</ele><time>2026-04-26T07:40:07Z</time></trkpt><trkpt lat="45.817763811747994" lon="9.312029815605909"><ele>261.2</ele><time>2026-04-26T07:40:08Z</time></trkpt><trkpt lat="45.817767093444495" lon="9.312172576075474"><ele>260.0</ele><time>2026-04-26T07:40:09Z</time></trkpt><trkpt lat="45.8177701616947" lon="9.312310942141197"><ele>259.6666666666667</ele><time>2026-04-26T07:40:10Z</time></trkpt><trkpt lat="45.8177673032186" lon="9.312444891197728"><ele>259.33333333333337</ele><time>2026-04-26T07:40:11Z</time></trkpt><trkpt lat="45.81776809980359" lon="9.312570836097793"><ele>259.0</ele><time>2026-04-26T07:40:12Z</time></trkpt><trkpt lat="45.817773460240254" lon="9.31268669766476"><ele>258.6666666666667</ele><time>2026-04-26T07:40:13Z</time></trkpt><trkpt lat="45.81778165586192" lon="9.31280006084401"><ele>258.3333333333333</ele><time>2026-04-26T07:40:14Z</time></trkpt><trkpt lat="45.81779307844856" lon="9.312897192065083"><ele>258.0</ele><time>2026-04-26T07:40:15Z</time></trkpt><trkpt lat="45.817816542720095" lon="9.312989973507118"><ele>257.3333333333333</ele><time>2026-04-26T07:40:16Z</time></trkpt><trkpt lat="45.81784516595763" lon="9.31309763406734"><ele>256.6666666666667</ele><time>2026-04-26T07:40:17Z</time></trkpt><trkpt lat="45.81786582205469" lon="9.313189676997103"><ele>256.0</ele><time>2026-04-26T07:40:18Z</time></trkpt><trkpt lat="45.81791085231246" lon="9.313346450101472"><ele>255.33333333333334</ele><time>2026-04-26T07:40:20Z</time></trkpt><trkpt lat="45.81793857886919" lon="9.31343674846586"><ele>254.66666666666669</ele><time>2026-04-26T07:40:21Z</time></trkpt><trkpt lat="45.817975397950164" lon="9.313592321341755"><ele>254.0</ele><time>2026-04-26T07:40:23Z</time></trkpt><trkpt lat="45.818000432929765" lon="9.31377529802169"><ele>254.0</ele><time>2026-04-26T07:40:25Z</time></trkpt><trkpt lat="45.81800814983514" lon="9.313868564338723"><ele>254.0</ele><time>2026-04-26T07:40:26Z</time></trkpt><trkpt lat="45.818018962866034" lon="9.313964018504997"><ele>254.0</ele><time>2026-04-26T07:40:27Z</time></trkpt><trkpt lat="45.81803200110196" lon="9.31406649023706"><ele>254.0</ele><time>2026-04-26T07:40:28Z</time></trkpt><trkpt lat="45.81804309044158" lon="9.314168446820807"><ele>254.0</ele><time>2026-04-26T07:40:29Z</time></trkpt><trkpt lat="45.818049109989644" lon="9.314266630848357"><ele>254.0</ele><time>2026-04-26T07:40:30Z</time></trkpt><trkpt lat="45.8180578275423" lon="9.314364129235045"><ele>254.0</ele><time>2026-04-26T07:40:31Z</time></trkpt><trkpt lat="45.818060677511085" lon="9.314460790338751"><ele>253.33333333333334</ele><time>2026-04-26T07:40:32Z</time></trkpt><trkpt lat="45.818064974245516" lon="9.314567802042028"><ele>252.66666666666669</ele><time>2026-04-26T07:40:33Z</time></trkpt><trkpt lat="45.818075449139805" lon="9.314672547352384"><ele>252.0</ele><time>2026-04-26T07:40:34Z</time></trkpt><trkpt lat="45.8180900880246" lon="9.314774555466906"><ele>251.33333333333331</ele><time>2026-04-26T07:40:35Z</time></trkpt><trkpt lat="45.81809787099349" lon="9.314887899319311"><ele>250.66666666666666</ele><time>2026-04-26T07:40:36Z</time></trkpt><trkpt lat="45.81810739681372" lon="9.314999162684773"><ele>250.0</ele><time>2026-04-26T07:40:37Z</time></trkpt><trkpt lat="45.81811403087926" lon="9.315108712704394"><ele>249.8</ele><time>2026-04-26T07:40:38Z</time></trkpt><trkpt lat="45.818118929720875" lon="9.315203224629066"><ele>249.6</ele><time>2026-04-26T07:40:39Z</time></trkpt><trkpt lat="45.8181245778564" lon="9.31536121092015"><ele>249.39999999999998</ele><time>2026-04-26T07:40:41Z</time></trkpt><trkpt lat="45.81813805824043" lon="9.315495686208086"><ele>249.2</ele><time>2026-04-26T07:40:43Z</time></trkpt><trkpt lat="45.81813530396636" lon="9.315628355634672"><ele>249.0</ele><time>2026-04-26T07:40:45Z</time></trkpt><trkpt lat="45.818144060857875" lon="9.315756838964397"><ele>249.0</ele><time>2026-04-26T07:40:47Z</time></trkpt><trkpt lat="45.81813077683241" lon="9.315935312156416"><ele>249.0</ele><time>2026-04-26T07:40:49Z</time></trkpt><trkpt lat="45.81804570167342" lon="9.316026207429411"><ele>249.0</ele><time>2026-04-26T07:40:51Z</time></trkpt><trkpt lat="45.81796464674773" lon="9.316063309425362"><ele>249.0</ele><time>2026-04-26T07:40:53Z</time></trkpt><trkpt lat="45.81805032437551" lon="9.316307457226847"><ele>247.66666666666666</ele><time>2026-04-26T07:40:56Z</time></trkpt><trkpt lat="45.818097164124964" lon="9.316423394941385"><ele>246.33333333333331</ele><time>2026-04-26T07:40:58Z</time></trkpt><trkpt lat="45.818153204968" lon="9.316529485666887"><ele>245.0</ele><time>2026-04-26T07:41:22Z</time></trkpt><trkpt lat="45.8181962854221" lon="9.31659809063896"><ele>243.66666666666666</ele><time>2026-04-26T07:41:23Z</time></trkpt><trkpt lat="45.81825332535005" lon="9.316692708933116"><ele>242.33333333333331</ele><time>2026-04-26T07:41:24Z</time></trkpt><trkpt lat="45.81831562783704" lon="9.316786706068857"><ele>241.0</ele><time>2026-04-26T07:41:25Z</time></trkpt><trkpt lat="45.818369527914285" lon="9.316898397020159"><ele>240.99999999999997</ele><time>2026-04-26T07:41:26Z</time></trkpt><trkpt lat="45.818424303114256" lon="9.317010302983206"><ele>241.0</ele><time>2026-04-26T07:41:27Z</time></trkpt><trkpt lat="45.81848295049977" lon="9.317125121146436"><ele>241.0</ele><time>2026-04-26T07:41:28Z</time></trkpt><trkpt lat="45.8185322572398" lon="9.317223608285962"><ele>241.0</ele><time>2026-04-26T07:41:29Z</time></trkpt><trkpt lat="45.81858324395064" lon="9.317314980229984"><ele>240.99999999999997</ele><time>2026-04-26T07:41:30Z</time></trkpt><trkpt lat="45.818622277518955" lon="9.317416498897055"><ele>241.0</ele><time>2026-04-26T07:41:31Z</time></trkpt><trkpt lat="45.81865267025349" lon="9.317513879257211"><ele>240.99999999999997</ele><time>2026-04-26T07:41:32Z</time></trkpt><trkpt lat="45.81864500502663" lon="9.317647749902243"><ele>241.0</ele><time>2026-04-26T07:41:33Z</time></trkpt><trkpt lat="45.81865689823192" lon="9.317752156234532"><ele>241.0</ele><time>2026-04-26T07:41:34Z</time></trkpt><trkpt lat="45.81866886498581" lon="9.317862370032516"><ele>241.0</ele><time>2026-04-26T07:41:35Z</time></trkpt><trkpt lat="45.81868280992258" lon="9.317963858204523"><ele>240.99999999999997</ele><time>2026-04-26T07:41:36Z</time></trkpt><trkpt lat="45.81878031809026" lon="9.318078900850345"><ele>241.0</ele><time>2026-04-26T07:41:38Z</time></trkpt><trkpt lat="45.818911623974046" lon="9.318098196257536"><ele>241.0</ele><time>2026-04-26T07:41:40Z</time></trkpt><trkpt lat="45.81899326672318" lon="9.318066660938946"><ele>241.00000000000003</ele><time>2026-04-26T07:41:41Z</time></trkpt><trkpt lat="45.81908838615809" lon="9.318037993665243"><ele>241.00000000000003</ele><time>2026-04-26T07:41:42Z</time></trkpt><trkpt lat="45.819191194151486" lon="9.317991609422167"><ele>241.0</ele><time>2026-04-26T07:41:43Z</time></trkpt><trkpt lat="45.8192836837751" lon="9.317962799280119"><ele>241.0</ele><time>2026-04-26T07:41:44Z</time></trkpt><trkpt lat="45.819365859775495" lon="9.317933550737974"><ele>241.0</ele><time>2026-04-26T07:41:45Z</time></trkpt><trkpt lat="45.819429941733226" lon="9.317903803399757"><ele>241.00000000000003</ele><time>2026-04-26T07:41:46Z</time></trkpt><trkpt lat="45.81949182544091" lon="9.317875157695443"><ele>241.00000000000003</ele><time>2026-04-26T07:41:48Z</time></trkpt><trkpt lat="45.81953655483415" lon="9.31815549159662"><ele>241.0</ele><time>2026-04-26T07:41:52Z</time></trkpt><trkpt lat="45.81953649014253" lon="9.318291221803213"><ele>241.0</ele><time>2026-04-26T07:41:53Z</time></trkpt><trkpt lat="45.81953847625393" lon="9.31843503724758"><ele>241.0</ele><time>2026-04-26T07:41:54Z</time></trkpt><trkpt lat="45.81954554393454" lon="9.318611439284389"><ele>241.0</ele><time>2026-04-26T07:41:55Z</time></trkpt><trkpt lat="45.81954917813389" lon="9.318792635686068"><ele>241.0</ele><time>2026-04-26T07:41:56Z</time></trkpt><trkpt lat="45.81953550406787" lon="9.318979757693619"><ele>241.0</ele><time>2026-04-26T07:41:57Z</time></trkpt><trkpt lat="45.81952225020034" lon="9.319169286065499"><ele>239.75</ele><time>2026-04-26T07:41:58Z</time></trkpt><trkpt lat="45.819545169012635" lon="9.319362500277995"><ele>238.5</ele><time>2026-04-26T07:41:59Z</time></trkpt><trkpt lat="45.81956023177236" lon="9.319577487105043"><ele>237.25</ele><time>2026-04-26T07:42:00Z</time></trkpt><trkpt lat="45.819574851439334" lon="9.319782264888438"><ele>236.0</ele><time>2026-04-26T07:42:01Z</time></trkpt><trkpt lat="45.81958929309968" lon="9.319987708034418"><ele>234.66666666666669</ele><time>2026-04-26T07:42:02Z</time></trkpt><trkpt lat="45.81960413171333" lon="9.32019879815365"><ele>233.33333333333331</ele><time>2026-04-26T07:42:03Z</time></trkpt><trkpt lat="45.81962004669212" lon="9.320431730526826"><ele>232.0</ele><time>2026-04-26T07:42:04Z</time></trkpt><trkpt lat="45.81963634559066" lon="9.320671338441631"><ele>232.0</ele><time>2026-04-26T07:42:05Z</time></trkpt><trkpt lat="45.819664192895054" lon="9.320882129796901"><ele>232.0</ele><time>2026-04-26T07:42:06Z</time></trkpt><trkpt lat="45.819666313983305" lon="9.321106491790195"><ele>232.0</ele><time>2026-04-26T07:42:07Z</time></trkpt><trkpt lat="45.81968233781485" lon="9.32134018884871"><ele>232.66666666666666</ele><time>2026-04-26T07:42:08Z</time></trkpt><trkpt lat="45.81969864199937" lon="9.321577222060764"><ele>233.33333333333331</ele><time>2026-04-26T07:42:09Z</time></trkpt><trkpt lat="45.81974124600948" lon="9.321892635912093"><ele>234.0</ele><time>2026-04-26T07:42:10Z</time></trkpt><trkpt lat="45.81963759662107" lon="9.322185330849596"><ele>233.33333333333331</ele><time>2026-04-26T07:42:11Z</time></trkpt><trkpt lat="45.81945935052605" lon="9.322348523292604"><ele>232.66666666666666</ele><time>2026-04-26T07:42:12Z</time></trkpt><trkpt lat="45.8193027526625" lon="9.322325129193398"><ele>232.0</ele><time>2026-04-26T07:42:13Z</time></trkpt><trkpt lat="45.81917262517466" lon="9.322326295164219"><ele>232.0</ele><time>2026-04-26T07:42:14Z</time></trkpt><trkpt lat="45.81987393674123" lon="9.3228300671982"><ele>232.0</ele><time>2026-04-26T07:42:15Z</time></trkpt><trkpt lat="45.81988645489056" lon="9.323034743933098"><ele>232.0</ele><time>2026-04-26T07:42:16Z</time></trkpt><trkpt lat="45.81991544347302" lon="9.323235724548278"><ele>232.0</ele><time>2026-04-26T07:42:17Z</time></trkpt><trkpt lat="45.81996475510645" lon="9.32343007485804"><ele>232.0</ele><time>2026-04-26T07:42:18Z</time></trkpt><trkpt lat="45.82003493496836" lon="9.323617532184683"><ele>231.25</ele><time>2026-04-26T07:42:19Z</time></trkpt><trkpt lat="45.82011553469172" lon="9.323796216301382"><ele>230.5</ele><time>2026-04-26T07:42:20Z</time></trkpt><trkpt lat="45.82020828512394" lon="9.323966143931548"><ele>229.75</ele><time>2026-04-26T07:42:21Z</time></trkpt><trkpt lat="45.820302235682384" lon="9.324113081205605"><ele>229.0</ele><time>2026-04-26T07:42:22Z</time></trkpt><trkpt lat="45.8204024278664" lon="9.324236950909215"><ele>228.6</ele><time>2026-04-26T07:42:23Z</time></trkpt><trkpt lat="45.82049402700708" lon="9.324323299196061"><ele>228.2</ele><time>2026-04-26T07:42:24Z</time></trkpt><trkpt lat="45.82057873046406" lon="9.324391719447437"><ele>227.79999999999998</ele><time>2026-04-26T07:42:25Z</time></trkpt><trkpt lat="45.82066549610335" lon="9.324446664625414"><ele>227.39999999999998</ele><time>2026-04-26T07:42:26Z</time></trkpt><trkpt lat="45.820751159300606" lon="9.324499182573094"><ele>227.0</ele><time>2026-04-26T07:42:27Z</time></trkpt><trkpt lat="45.82083236425856" lon="9.324537513219934"><ele>227.00000000000003</ele><time>2026-04-26T07:42:28Z</time></trkpt><trkpt lat="45.82091335310274" lon="9.324567002348894"><ele>227.0</ele><time>2026-04-26T07:42:29Z</time></trkpt><trkpt lat="45.82098650618803" lon="9.324589420885436"><ele>227.0</ele><time>2026-04-26T07:42:30Z</time></trkpt><trkpt lat="45.82105533975455" lon="9.324603302858936"><ele>227.0</ele><time>2026-04-26T07:42:31Z</time></trkpt><trkpt lat="45.82112244498726" lon="9.324612348694526"><ele>227.00000000000003</ele><time>2026-04-26T07:42:32Z</time></trkpt><trkpt lat="45.8211970767257" lon="9.324625197116655"><ele>227.0</ele><time>2026-04-26T07:42:33Z</time></trkpt><trkpt lat="45.82128832274774" lon="9.32463621414022"><ele>226.5</ele><time>2026-04-26T07:42:34Z</time></trkpt><trkpt lat="45.82140236139137" lon="9.32465465951754"><ele>226.0</ele><time>2026-04-26T07:42:35Z</time></trkpt><trkpt lat="45.82152114035408" lon="9.324674581947443"><ele>225.5</ele><time>2026-04-26T07:42:36Z</time></trkpt><trkpt lat="45.821652629110645" lon="9.324684354782729"><ele>225.0</ele><time>2026-04-26T07:42:37Z</time></trkpt><trkpt lat="45.821773711956546" lon="9.324714447003148"><ele>224.75</ele><time>2026-04-26T07:42:38Z</time></trkpt><trkpt lat="45.82189241562765" lon="9.32475280719884"><ele>224.5</ele><time>2026-04-26T07:42:39Z</time></trkpt><trkpt lat="45.822004177226766" lon="9.324789090699577"><ele>224.25</ele><time>2026-04-26T07:42:40Z</time></trkpt><trkpt lat="45.82212005008547" lon="9.32482943642313"><ele>224.0</ele><time>2026-04-26T07:42:41Z</time></trkpt><trkpt lat="45.822246035805684" lon="9.32488506288496"><ele>224.0</ele><time>2026-04-26T07:42:42Z</time></trkpt><trkpt lat="45.822368390321365" lon="9.324953991303891"><ele>224.0</ele><time>2026-04-26T07:42:43Z</time></trkpt><trkpt lat="45.822495536627066" lon="9.325036674510663"><ele>224.0</ele><time>2026-04-26T07:42:44Z</time></trkpt><trkpt lat="45.82261900311506" lon="9.32512892325178"><ele>224.0</ele><time>2026-04-26T07:42:45Z</time></trkpt><trkpt lat="45.8227437768657" lon="9.325233910725682"><ele>224.66666666666669</ele><time>2026-04-26T07:42:46Z</time></trkpt><trkpt lat="45.82286791177866" lon="9.325353316886746"><ele>225.33333333333331</ele><time>2026-04-26T07:42:47Z</time></trkpt><trkpt lat="45.822989959974514" lon="9.325481652254268"><ele>226.0</ele><time>2026-04-26T07:42:48Z</time></trkpt><trkpt lat="45.82311736373904" lon="9.325616911482554"><ele>226.0</ele><time>2026-04-26T07:42:49Z</time></trkpt><trkpt lat="45.82322914072763" lon="9.32575143285313"><ele>226.0</ele><time>2026-04-26T07:42:50Z</time></trkpt><trkpt lat="45.82334245056377" lon="9.32592142514169"><ele>226.0</ele><time>2026-04-26T07:42:51Z</time></trkpt><trkpt lat="45.823452683125275" lon="9.326110406892068"><ele>231.66666666666666</ele><time>2026-04-26T07:42:52Z</time></trkpt><trkpt lat="45.82354372571137" lon="9.326302511687604"><ele>237.33333333333331</ele><time>2026-04-26T07:42:53Z</time></trkpt><trkpt lat="45.82363294511365" lon="9.326505584717776"><ele>243.0</ele><time>2026-04-26T07:42:54Z</time></trkpt><trkpt lat="45.823715174578965" lon="9.326723690160176"><ele>243.66666666666669</ele><time>2026-04-26T07:42:55Z</time></trkpt><trkpt lat="45.82378142979651" lon="9.326953078592283"><ele>244.33333333333334</ele><time>2026-04-26T07:42:56Z</time></trkpt><trkpt lat="45.823844175922545" lon="9.32718714109977"><ele>245.0</ele><time>2026-04-26T07:42:57Z</time></trkpt><trkpt lat="45.8239007813879" lon="9.327420270748327"><ele>243.33333333333334</ele><time>2026-04-26T07:42:58Z</time></trkpt><trkpt lat="45.82395700553299" lon="9.327647285807013"><ele>241.66666666666669</ele><time>2026-04-26T07:42:59Z</time></trkpt><trkpt lat="45.82400511078731" lon="9.327875875651053"><ele>240.0</ele><time>2026-04-26T07:43:00Z</time></trkpt><trkpt lat="45.824043087952525" lon="9.32810779405601"><ele>239.66666666666669</ele><time>2026-04-26T07:43:01Z</time></trkpt><trkpt lat="45.82407087936422" lon="9.328340651263868"><ele>239.33333333333334</ele><time>2026-04-26T07:43:02Z</time></trkpt><trkpt lat="45.824098548947156" lon="9.328578274263963"><ele>239.0</ele><time>2026-04-26T07:43:03Z</time></trkpt><trkpt lat="45.82411757814525" lon="9.328821412572694"><ele>238.0</ele><time>2026-04-26T07:43:04Z</time></trkpt><trkpt lat="45.82413673616048" lon="9.329070434210292"><ele>237.0</ele><time>2026-04-26T07:43:05Z</time></trkpt><trkpt lat="45.8241558572575" lon="9.32932567157464"><ele>236.0</ele><time>2026-04-26T07:43:06Z</time></trkpt><trkpt lat="45.82417457731907" lon="9.329577730898247"><ele>234.66666666666669</ele><time>2026-04-26T07:43:07Z</time></trkpt><trkpt lat="45.824190580606256" lon="9.329821453390679"><ele>233.33333333333331</ele><time>2026-04-26T07:43:08Z</time></trkpt><trkpt lat="45.82421021315731" lon="9.330068229831973"><ele>232.0</ele><time>2026-04-26T07:43:09Z</time></trkpt><trkpt lat="45.824230037452196" lon="9.330320009718074"><ele>231.0</ele><time>2026-04-26T07:43:10Z</time></trkpt><trkpt lat="45.82425073968287" lon="9.33057910845151"><ele>230.0</ele><time>2026-04-26T07:43:11Z</time></trkpt><trkpt lat="45.82427273529624" lon="9.330847098768803"><ele>229.0</ele><time>2026-04-26T07:43:12Z</time></trkpt><trkpt lat="45.82429429164452" lon="9.331111812827398"><ele>237.33333333333331</ele><time>2026-04-26T07:43:13Z</time></trkpt><trkpt lat="45.824316698203766" lon="9.331375487980214"><ele>245.66666666666669</ele><time>2026-04-26T07:43:14Z</time></trkpt><trkpt lat="45.82433691951486" lon="9.331640544338875"><ele>254.0</ele><time>2026-04-26T07:43:15Z</time></trkpt><trkpt lat="45.82435760574709" lon="9.331904292713157"><ele>254.0</ele><time>2026-04-26T07:43:16Z</time></trkpt><trkpt lat="45.82437895593994" lon="9.33217192152284"><ele>254.0</ele><time>2026-04-26T07:43:17Z</time></trkpt><trkpt lat="45.82440669370524" lon="9.332423256533044"><ele>254.0</ele><time>2026-04-26T07:43:18Z</time></trkpt><trkpt lat="45.82442543682563" lon="9.332687042443425"><ele>253.0</ele><time>2026-04-26T07:43:19Z</time></trkpt><trkpt lat="45.82444163753353" lon="9.332946021496884"><ele>252.0</ele><time>2026-04-26T07:43:20Z</time></trkpt><trkpt lat="45.824455691924534" lon="9.333200293071483"><ele>251.0</ele><time>2026-04-26T07:43:21Z</time></trkpt><trkpt lat="45.824463918091325" lon="9.33345013198338"><ele>250.0</ele><time>2026-04-26T07:43:22Z</time></trkpt><trkpt lat="45.82446987177797" lon="9.333700382670308"><ele>249.0</ele><time>2026-04-26T07:43:23Z</time></trkpt><trkpt lat="45.824472030933414" lon="9.333965671185487"><ele>248.0</ele><time>2026-04-26T07:43:24Z</time></trkpt><trkpt lat="45.824474068729074" lon="9.334239485737408"><ele>247.66666666666669</ele><time>2026-04-26T07:43:25Z</time></trkpt><trkpt lat="45.824476173029616" lon="9.334511896650213"><ele>247.33333333333331</ele><time>2026-04-26T07:43:26Z</time></trkpt><trkpt lat="45.82448122115187" lon="9.334779128544586"><ele>247.0</ele><time>2026-04-26T07:43:27Z</time></trkpt><trkpt lat="45.824486395190654" lon="9.33504744276585"><ele>247.0</ele><time>2026-04-26T07:43:28Z</time></trkpt><trkpt lat="45.824485962156004" lon="9.33531901838041"><ele>247.0</ele><time>2026-04-26T07:43:29Z</time></trkpt><trkpt lat="45.82446589635233" lon="9.335586782378341"><ele>247.0</ele><time>2026-04-26T07:43:30Z</time></trkpt><trkpt lat="45.82445094147732" lon="9.335839411736982"><ele>247.0</ele><time>2026-04-26T07:43:31Z</time></trkpt><trkpt lat="45.824452992941886" lon="9.336040525545286"><ele>247.0</ele><time>2026-04-26T07:43:32Z</time></trkpt><trkpt lat="45.824466921616846" lon="9.336381246779961"><ele>247.0</ele><time>2026-04-26T07:43:33Z</time></trkpt><trkpt lat="45.82453609670886" lon="9.33668759381927"><ele>246.0</ele><time>2026-04-26T07:43:34Z</time></trkpt><trkpt lat="45.82459612424551" lon="9.336960347463274"><ele>245.0</ele><time>2026-04-26T07:43:35Z</time></trkpt><trkpt lat="45.82452750841623" lon="9.337164883931019"><ele>244.0</ele><time>2026-04-26T07:43:36Z</time></trkpt><trkpt lat="45.824538687164534" lon="9.337416313043422"><ele>243.0</ele><time>2026-04-26T07:43:37Z</time></trkpt><trkpt lat="45.824547189414986" lon="9.3376697165006"><ele>242.0</ele><time>2026-04-26T07:43:38Z</time></trkpt><trkpt lat="45.824557471701944" lon="9.337930784690071"><ele>241.0</ele><time>2026-04-26T07:43:39Z</time></trkpt><trkpt lat="45.82457172757931" lon="9.33818067577215"><ele>240.0</ele><time>2026-04-26T07:43:40Z</time></trkpt><trkpt lat="45.82458637444269" lon="9.338424299662767"><ele>239.0</ele><time>2026-04-26T07:43:41Z</time></trkpt><trkpt lat="45.82459594267772" lon="9.338664360716521"><ele>238.0</ele><time>2026-04-26T07:43:42Z</time></trkpt><trkpt lat="45.824600596983544" lon="9.338911799713907"><ele>237.33333333333331</ele><time>2026-04-26T07:43:43Z</time></trkpt><trkpt lat="45.82461146343066" lon="9.339160455589392"><ele>236.66666666666669</ele><time>2026-04-26T07:43:44Z</time></trkpt><trkpt lat="45.82461074717609" lon="9.339407555042664"><ele>236.0</ele><time>2026-04-26T07:43:45Z</time></trkpt><trkpt lat="45.824594993853445" lon="9.33967256277145"><ele>235.0</ele><time>2026-04-26T07:43:46Z</time></trkpt><trkpt lat="45.82457339954271" lon="9.339929680272025"><ele>234.0</ele><time>2026-04-26T07:43:47Z</time></trkpt><trkpt lat="45.82456198631856" lon="9.34021411575774"><ele>233.0</ele><time>2026-04-26T07:43:48Z</time></trkpt><trkpt lat="45.8245380673492" lon="9.340478923619784"><ele>234.66666666666669</ele><time>2026-04-26T07:43:49Z</time></trkpt><trkpt lat="45.824529192992074" lon="9.34074302862218"><ele>236.33333333333331</ele><time>2026-04-26T07:43:50Z</time></trkpt><trkpt lat="45.82451435118096" lon="9.341009735335177"><ele>238.0</ele><time>2026-04-26T07:43:51Z</time></trkpt><trkpt lat="45.824496753229056" lon="9.341271725654453"><ele>240.0</ele><time>2026-04-26T07:43:52Z</time></trkpt><trkpt lat="45.824480914631714" lon="9.34153413238162"><ele>242.0</ele><time>2026-04-26T07:43:53Z</time></trkpt><trkpt lat="45.82446369707591" lon="9.341796962834584"><ele>244.0</ele><time>2026-04-26T07:43:54Z</time></trkpt><trkpt lat="45.82444964897335" lon="9.342048322726749"><ele>243.66666666666666</ele><time>2026-04-26T07:43:55Z</time></trkpt><trkpt lat="45.824432943321746" lon="9.342280720911184"><ele>243.33333333333331</ele><time>2026-04-26T07:43:56Z</time></trkpt><trkpt lat="45.824415865366156" lon="9.342511490209736"><ele>243.0</ele><time>2026-04-26T07:43:57Z</time></trkpt><trkpt lat="45.82439028323007" lon="9.342785999654598"><ele>240.66666666666669</ele><time>2026-04-26T07:43:58Z</time></trkpt><trkpt lat="45.82436890032308" lon="9.343058810804525"><ele>238.33333333333334</ele><time>2026-04-26T07:43:59Z</time></trkpt><trkpt lat="45.82433617714139" lon="9.343366580854212"><ele>236.0</ele><time>2026-04-26T07:44:00Z</time></trkpt><trkpt lat="45.824293328046885" lon="9.343677110169688"><ele>232.33333333333334</ele><time>2026-04-26T07:44:00.999Z</time></trkpt><trkpt lat="45.82425813637137" lon="9.34399666505513"><ele>228.66666666666669</ele><time>2026-04-26T07:44:01.999Z</time></trkpt><trkpt lat="45.824236746869154" lon="9.344315755163247"><ele>225.0</ele><time>2026-04-26T07:44:02.999Z</time></trkpt><trkpt lat="45.82422203573649" lon="9.344651893405322"><ele>224.66666666666669</ele><time>2026-04-26T07:44:03.999Z</time></trkpt><trkpt lat="45.82420499608323" lon="9.344968968235827"><ele>224.33333333333334</ele><time>2026-04-26T07:44:04.999Z</time></trkpt><trkpt lat="45.824181710401085" lon="9.345265939688112"><ele>224.0</ele><time>2026-04-26T07:44:05.999Z</time></trkpt><trkpt lat="45.82415709214381" lon="9.345544079713841"><ele>224.33333333333334</ele><time>2026-04-26T07:44:06.999Z</time></trkpt><trkpt lat="45.82414072092288" lon="9.345808678528385"><ele>224.66666666666669</ele><time>2026-04-26T07:44:07.999Z</time></trkpt><trkpt lat="45.824116179675684" lon="9.346080776692482"><ele>225.0</ele><time>2026-04-26T07:44:08.999Z</time></trkpt><trkpt lat="45.824106209161926" lon="9.346298721378208"><ele>225.33333333333331</ele><time>2026-04-26T07:44:09.999Z</time></trkpt><trkpt lat="45.82410093901166" lon="9.346535703984701"><ele>225.66666666666666</ele><time>2026-04-26T07:44:10.999Z</time></trkpt><trkpt lat="45.82411148476997" lon="9.346778197157875"><ele>226.0</ele><time>2026-04-26T07:44:12Z</time></trkpt><trkpt lat="45.824132874458186" lon="9.34701817055142"><ele>226.0</ele><time>2026-04-26T07:44:13Z</time></trkpt><trkpt lat="45.82416286358972" lon="9.347259641092974"><ele>226.0</ele><time>2026-04-26T07:44:14Z</time></trkpt><trkpt lat="45.8242009629606" lon="9.347488305675894"><ele>226.0</ele><time>2026-04-26T07:44:15Z</time></trkpt><trkpt lat="45.824243774413134" lon="9.347697723522856"><ele>226.0</ele><time>2026-04-26T07:44:16Z</time></trkpt><trkpt lat="45.82428951109575" lon="9.347876455635797"><ele>226.0</ele><time>2026-04-26T07:44:17Z</time></trkpt><trkpt lat="45.82432633214745" lon="9.348087200119197"><ele>226.0</ele><time>2026-04-26T07:44:18Z</time></trkpt><trkpt lat="45.82436993592888" lon="9.348267886467317"><ele>226.0</ele><time>2026-04-26T07:44:19Z</time></trkpt><trkpt lat="45.82444272990403" lon="9.348408283871388"><ele>226.25</ele><time>2026-04-26T07:44:20Z</time></trkpt><trkpt lat="45.824529208566695" lon="9.348504978303627"><ele>226.5</ele><time>2026-04-26T07:44:21Z</time></trkpt><trkpt lat="45.82463123768996" lon="9.34855752352516"><ele>226.75</ele><time>2026-04-26T07:44:22Z</time></trkpt><trkpt lat="45.82475131888141" lon="9.348607062779598"><ele>227.0</ele><time>2026-04-26T07:44:23Z</time></trkpt><trkpt lat="45.82486235120632" lon="9.348665038719194"><ele>227.0</ele><time>2026-04-26T07:44:24Z</time></trkpt><trkpt lat="45.824978122254976" lon="9.348747033503798"><ele>227.0</ele><time>2026-04-26T07:44:25Z</time></trkpt><trkpt lat="45.825119372314305" lon="9.34885507387519"><ele>227.0</ele><time>2026-04-26T07:44:26Z</time></trkpt><trkpt lat="45.82522473462258" lon="9.348998289112412"><ele>227.0</ele><time>2026-04-26T07:44:27Z</time></trkpt><trkpt lat="45.82532692965488" lon="9.349157990623839"><ele>226.66666666666669</ele><time>2026-04-26T07:44:28Z</time></trkpt><trkpt lat="45.82544873465976" lon="9.349310753452606"><ele>226.33333333333331</ele><time>2026-04-26T07:44:29Z</time></trkpt><trkpt lat="45.82556490584307" lon="9.349456969924011"><ele>226.0</ele><time>2026-04-26T07:44:30Z</time></trkpt><trkpt lat="45.82568662692281" lon="9.349589967466994"><ele>227.33333333333331</ele><time>2026-04-26T07:44:31Z</time></trkpt><trkpt lat="45.8258355949945" lon="9.349720556287584"><ele>228.66666666666669</ele><time>2026-04-26T07:44:32Z</time></trkpt><trkpt lat="45.82600057621616" lon="9.349842559513174"><ele>230.0</ele><time>2026-04-26T07:44:33Z</time></trkpt><trkpt lat="45.826157126727104" lon="9.349955301511638"><ele>230.0</ele><time>2026-04-26T07:44:34Z</time></trkpt><trkpt lat="45.82630666604552" lon="9.35007570871261"><ele>230.0</ele><time>2026-04-26T07:44:35Z</time></trkpt><trkpt lat="45.82645908985364" lon="9.350182746524835"><ele>230.0</ele><time>2026-04-26T07:44:36Z</time></trkpt><trkpt lat="45.826588343321205" lon="9.350286136252912"><ele>230.0</ele><time>2026-04-26T07:44:37Z</time></trkpt><trkpt lat="45.82670438285089" lon="9.350379887308119"><ele>230.0</ele><time>2026-04-26T07:44:38Z</time></trkpt><trkpt lat="45.826805970086205" lon="9.350456195102295"><ele>230.0</ele><time>2026-04-26T07:44:39Z</time></trkpt><trkpt lat="45.82689758511266" lon="9.350530528431857"><ele>230.0</ele><time>2026-04-26T07:44:40Z</time></trkpt><trkpt lat="45.826977942122745" lon="9.350633483602897"><ele>230.75</ele><time>2026-04-26T07:44:41Z</time></trkpt><trkpt lat="45.82707084919935" lon="9.350734560122024"><ele>231.5</ele><time>2026-04-26T07:44:42Z</time></trkpt><trkpt lat="45.82717807448808" lon="9.350800401943015"><ele>232.25</ele><time>2026-04-26T07:44:43Z</time></trkpt><trkpt lat="45.82729599342993" lon="9.350861436134993"><ele>233.0</ele><time>2026-04-26T07:44:44Z</time></trkpt><trkpt lat="45.82741573520354" lon="9.350936464125374"><ele>233.0</ele><time>2026-04-26T07:44:45Z</time></trkpt><trkpt lat="45.8275409749407" lon="9.351044800055348"><ele>233.0</ele><time>2026-04-26T07:44:46Z</time></trkpt><trkpt lat="45.827667239150166" lon="9.351150238177695"><ele>233.0</ele><time>2026-04-26T07:44:47Z</time></trkpt><trkpt lat="45.827780513324115" lon="9.351235680108326"><ele>233.0</ele><time>2026-04-26T07:44:48Z</time></trkpt><trkpt lat="45.82789416810562" lon="9.351321984928713"><ele>232.25</ele><time>2026-04-26T07:44:49Z</time></trkpt><trkpt lat="45.82799421082052" lon="9.351413021953244"><ele>231.5</ele><time>2026-04-26T07:44:50Z</time></trkpt><trkpt lat="45.82811512035113" lon="9.351480531669706"><ele>230.75</ele><time>2026-04-26T07:44:51Z</time></trkpt><trkpt lat="45.82817385090149" lon="9.35161916872741"><ele>230.0</ele><time>2026-04-26T07:44:52Z</time></trkpt><trkpt lat="45.82823259922713" lon="9.35174439216104"><ele>230.0</ele><time>2026-04-26T07:44:53Z</time></trkpt><trkpt lat="45.82827026310003" lon="9.351901176305548"><ele>230.0</ele><time>2026-04-26T07:44:54Z</time></trkpt><trkpt lat="45.82829339075982" lon="9.352068597409893"><ele>230.0</ele><time>2026-04-26T07:44:55Z</time></trkpt><trkpt lat="45.828300899000546" lon="9.35222444310531"><ele>230.0</ele><time>2026-04-26T07:44:56Z</time></trkpt><trkpt lat="45.828302116944926" lon="9.352375622909893"><ele>230.0</ele><time>2026-04-26T07:44:57Z</time></trkpt><trkpt lat="45.82827590273424" lon="9.352538054221444"><ele>230.6</ele><time>2026-04-26T07:44:58Z</time></trkpt><trkpt lat="45.82828414651708" lon="9.352703027689552"><ele>231.2</ele><time>2026-04-26T07:44:59Z</time></trkpt><trkpt lat="45.82827286500614" lon="9.352856699227157"><ele>231.8</ele><time>2026-04-26T07:45:00Z</time></trkpt><trkpt lat="45.828265446876784" lon="9.353010950886272"><ele>232.4</ele><time>2026-04-26T07:45:01Z</time></trkpt><trkpt lat="45.82824307765152" lon="9.353149178528213"><ele>233.0</ele><time>2026-04-26T07:45:02Z</time></trkpt><trkpt lat="45.82820693218427" lon="9.35327655376291"><ele>233.60000000000002</ele><time>2026-04-26T07:45:03Z</time></trkpt><trkpt lat="45.82815822392449" lon="9.353402841401644"><ele>234.20000000000002</ele><time>2026-04-26T07:45:04Z</time></trkpt><trkpt lat="45.82811066216378" lon="9.35353456541144"><ele>234.8</ele><time>2026-04-26T07:45:05Z</time></trkpt><trkpt lat="45.82801499382469" lon="9.353637257474224"><ele>235.4</ele><time>2026-04-26T07:45:06Z</time></trkpt><trkpt lat="45.82792474959631" lon="9.35373934429715"><ele>236.0</ele><time>2026-04-26T07:45:07Z</time></trkpt><trkpt lat="45.82784367418892" lon="9.353857677999633"><ele>234.75</ele><time>2026-04-26T07:45:08Z</time></trkpt><trkpt lat="45.82775787915825" lon="9.353976977448587"><ele>233.5</ele><time>2026-04-26T07:45:09Z</time></trkpt><trkpt lat="45.82765981593655" lon="9.354072403569196"><ele>232.25</ele><time>2026-04-26T07:45:10Z</time></trkpt><trkpt lat="45.82756653232899" lon="9.354188137781636"><ele>231.0</ele><time>2026-04-26T07:45:11Z</time></trkpt><trkpt lat="45.82749261584034" lon="9.354317089394911"><ele>231.0</ele><time>2026-04-26T07:45:12Z</time></trkpt><trkpt lat="45.82741331407104" lon="9.354433677807588"><ele>231.00000000000003</ele><time>2026-04-26T07:45:13Z</time></trkpt><trkpt lat="45.827329881379214" lon="9.354551395136586"><ele>231.00000000000003</ele><time>2026-04-26T07:45:14Z</time></trkpt><trkpt lat="45.8272539003785" lon="9.35465839814311"><ele>231.0</ele><time>2026-04-26T07:45:15Z</time></trkpt><trkpt lat="45.82718227211552" lon="9.354744277843398"><ele>231.0</ele><time>2026-04-26T07:45:16Z</time></trkpt><trkpt lat="45.82712101156749" lon="9.354830506754606"><ele>230.16666666666666</ele><time>2026-04-26T07:45:17Z</time></trkpt><trkpt lat="45.82705950135368" lon="9.354881028080404"><ele>229.33333333333331</ele><time>2026-04-26T07:45:18Z</time></trkpt><trkpt lat="45.82699614349291" lon="9.354896816055389"><ele>228.5</ele><time>2026-04-26T07:45:19Z</time></trkpt><trkpt lat="45.8269181108122" lon="9.35490440124175"><ele>227.66666666666666</ele><time>2026-04-26T07:45:20Z</time></trkpt><trkpt lat="45.82684891468738" lon="9.354911405308844"><ele>226.83333333333331</ele><time>2026-04-26T07:45:21Z</time></trkpt><trkpt lat="45.826774336370825" lon="9.354949892484122"><ele>226.0</ele><time>2026-04-26T07:45:22Z</time></trkpt><trkpt lat="45.826718886697584" lon="9.35505550713867"><ele>226.0</ele><time>2026-04-26T07:45:23Z</time></trkpt><trkpt lat="45.82668980747045" lon="9.355203426731082"><ele>226.0</ele><time>2026-04-26T07:45:24Z</time></trkpt><trkpt lat="45.826652792010584" lon="9.355337719525362"><ele>226.0</ele><time>2026-04-26T07:45:25Z</time></trkpt><trkpt lat="45.82659714764641" lon="9.35548796814253"><ele>226.0</ele><time>2026-04-26T07:45:26Z</time></trkpt><trkpt lat="45.8265171498744" lon="9.355643462785768"><ele>229.25</ele><time>2026-04-26T07:45:27Z</time></trkpt><trkpt lat="45.82641481742373" lon="9.355783774758365"><ele>232.5</ele><time>2026-04-26T07:45:28Z</time></trkpt><trkpt lat="45.82629010717605" lon="9.355903658758777"><ele>235.75</ele><time>2026-04-26T07:45:29Z</time></trkpt><trkpt lat="45.82615167637522" lon="9.356010550084106"><ele>239.0</ele><time>2026-04-26T07:45:30Z</time></trkpt><trkpt lat="45.82601054935056" lon="9.356103197936388"><ele>235.0</ele><time>2026-04-26T07:45:31Z</time></trkpt><trkpt lat="45.82584116782773" lon="9.356209466313086"><ele>231.0</ele><time>2026-04-26T07:45:32Z</time></trkpt><trkpt lat="45.82567838938208" lon="9.356250579922332"><ele>227.0</ele><time>2026-04-26T07:45:33Z</time></trkpt><trkpt lat="45.82550970080721" lon="9.356301931333656"><ele>227.0</ele><time>2026-04-26T07:45:34Z</time></trkpt><trkpt lat="45.825339059670604" lon="9.356352435167475"><ele>227.0</ele><time>2026-04-26T07:45:35Z</time></trkpt><trkpt lat="45.82517917813872" lon="9.356418664807606"><ele>227.0</ele><time>2026-04-26T07:45:36Z</time></trkpt><trkpt lat="45.825017788193534" lon="9.356464103747973"><ele>230.33333333333334</ele><time>2026-04-26T07:45:37Z</time></trkpt><trkpt lat="45.82485608706343" lon="9.356516289737682"><ele>233.66666666666669</ele><time>2026-04-26T07:45:38Z</time></trkpt><trkpt lat="45.82469630919425" lon="9.356563187334643"><ele>237.0</ele><time>2026-04-26T07:45:39Z</time></trkpt><trkpt lat="45.824539988191354" lon="9.35661407046605"><ele>237.0</ele><time>2026-04-26T07:45:40Z</time></trkpt><trkpt lat="45.824391816926656" lon="9.356657363404784"><ele>237.0</ele><time>2026-04-26T07:45:41Z</time></trkpt><trkpt lat="45.82425072193617" lon="9.356695271130588"><ele>237.0</ele><time>2026-04-26T07:45:42Z</time></trkpt><trkpt lat="45.824115552068335" lon="9.356726189976666"><ele>237.0</ele><time>2026-04-26T07:45:43Z</time></trkpt><trkpt lat="45.823990167973285" lon="9.35674541678652"><ele>235.39999999999998</ele><time>2026-04-26T07:45:44Z</time></trkpt><trkpt lat="45.82388767262631" lon="9.356782617962248"><ele>233.79999999999998</ele><time>2026-04-26T07:45:45Z</time></trkpt><trkpt lat="45.82380535955039" lon="9.356806422415483"><ele>232.2</ele><time>2026-04-26T07:45:46Z</time></trkpt><trkpt lat="45.82373463735648" lon="9.356831916186076"><ele>230.6</ele><time>2026-04-26T07:45:47Z</time></trkpt><trkpt lat="45.82366414380973" lon="9.356844832320059"><ele>229.0</ele><time>2026-04-26T07:45:48Z</time></trkpt><trkpt lat="45.82360899240926" lon="9.357064611978553"><ele>228.99999999999997</ele><time>2026-04-26T07:45:50Z</time></trkpt><trkpt lat="45.82359843469653" lon="9.357173134383757"><ele>229.0</ele><time>2026-04-26T07:45:51Z</time></trkpt><trkpt lat="45.823568977068604" lon="9.357289859834378"><ele>229.0</ele><time>2026-04-26T07:45:52Z</time></trkpt><trkpt lat="45.823531213330014" lon="9.357398310471629"><ele>229.0</ele><time>2026-04-26T07:45:53Z</time></trkpt><trkpt lat="45.8234823841777" lon="9.357511577201166"><ele>228.99999999999997</ele><time>2026-04-26T07:45:54Z</time></trkpt><trkpt lat="45.82342178208744" lon="9.3576132418232"><ele>229.0</ele><time>2026-04-26T07:45:55Z</time></trkpt><trkpt lat="45.82337324236683" lon="9.357755614971074"><ele>229.39999999999998</ele><time>2026-04-26T07:45:56Z</time></trkpt><trkpt lat="45.82332689101724" lon="9.35788931618744"><ele>229.79999999999998</ele><time>2026-04-26T07:45:57Z</time></trkpt><trkpt lat="45.823273671358564" lon="9.357999396480576"><ele>230.20000000000002</ele><time>2026-04-26T07:45:58Z</time></trkpt><trkpt lat="45.823217283179815" lon="9.358125219948962"><ele>230.60000000000002</ele><time>2026-04-26T07:45:59Z</time></trkpt><trkpt lat="45.82316721085511" lon="9.358258884279662"><ele>231.0</ele><time>2026-04-26T07:46:00Z</time></trkpt><trkpt lat="45.82311424936952" lon="9.358404885469081"><ele>232.4</ele><time>2026-04-26T07:46:01Z</time></trkpt><trkpt lat="45.82306367406109" lon="9.358544448357426"><ele>233.8</ele><time>2026-04-26T07:46:02Z</time></trkpt><trkpt lat="45.82302021191577" lon="9.35865504923244"><ele>235.20000000000002</ele><time>2026-04-26T07:46:03Z</time></trkpt><trkpt lat="45.82298035724081" lon="9.358758445798355"><ele>236.60000000000002</ele><time>2026-04-26T07:46:04Z</time></trkpt><trkpt lat="45.82292213556575" lon="9.358901146130302"><ele>238.0</ele><time>2026-04-26T07:46:06Z</time></trkpt><trkpt lat="45.822839466441366" lon="9.358967894316"><ele>239.71428571428572</ele><time>2026-04-26T07:46:09Z</time></trkpt><trkpt lat="45.822768693800626" lon="9.358947162676314"><ele>241.42857142857144</ele><time>2026-04-26T07:46:11Z</time></trkpt><trkpt lat="45.82270507735733" lon="9.358963630509715"><ele>243.14285714285714</ele><time>2026-04-26T07:46:12Z</time></trkpt><trkpt lat="45.8226641876065" lon="9.35903268102196"><ele>244.85714285714286</ele><time>2026-04-26T07:46:13Z</time></trkpt><trkpt lat="45.82268278086626" lon="9.359135626070096"><ele>246.57142857142858</ele><time>2026-04-26T07:46:14Z</time></trkpt><trkpt lat="45.82271066087574" lon="9.359223163615567"><ele>248.28571428571428</ele><time>2026-04-26T07:46:15Z</time></trkpt><trkpt lat="45.82273993548288" lon="9.359317626370062"><ele>250.0</ele><time>2026-04-26T07:46:16Z</time></trkpt><trkpt lat="45.822734405260185" lon="9.359427174570163"><ele>249.99999999999997</ele><time>2026-04-26T07:46:17Z</time></trkpt><trkpt lat="45.822713756547586" lon="9.359526630593704"><ele>250.0</ele><time>2026-04-26T07:46:18Z</time></trkpt><trkpt lat="45.822682112884415" lon="9.35963956391439"><ele>250.0</ele><time>2026-04-26T07:46:19Z</time></trkpt><trkpt lat="45.822643091395086" lon="9.359735781927704"><ele>250.0</ele><time>2026-04-26T07:46:20Z</time></trkpt><trkpt lat="45.82260860434488" lon="9.359844459198946"><ele>249.99999999999997</ele><time>2026-04-26T07:46:21Z</time></trkpt><trkpt lat="45.82257039786088" lon="9.359964336700699"><ele>250.0</ele><time>2026-04-26T07:46:22Z</time></trkpt><trkpt lat="45.82252839101582" lon="9.36008481972373"><ele>249.8</ele><time>2026-04-26T07:46:23Z</time></trkpt><trkpt lat="45.82248753290157" lon="9.360206724772773"><ele>249.6</ele><time>2026-04-26T07:46:24Z</time></trkpt><trkpt lat="45.822473342038585" lon="9.360339122274107"><ele>249.39999999999998</ele><time>2026-04-26T07:46:25Z</time></trkpt><trkpt lat="45.82244777790436" lon="9.360463897509455"><ele>249.2</ele><time>2026-04-26T07:46:26Z</time></trkpt><trkpt lat="45.82240984536306" lon="9.360582786517142"><ele>249.0</ele><time>2026-04-26T07:46:27Z</time></trkpt><trkpt lat="45.822375546953005" lon="9.360690763272764"><ele>249.0</ele><time>2026-04-26T07:46:28Z</time></trkpt><trkpt lat="45.82233747598655" lon="9.360793546726146"><ele>249.0</ele><time>2026-04-26T07:46:29Z</time></trkpt><trkpt lat="45.82230227543025" lon="9.3608907314279"><ele>249.0</ele><time>2026-04-26T07:46:30Z</time></trkpt><trkpt lat="45.82226566857755" lon="9.360985928865736"><ele>249.0</ele><time>2026-04-26T07:46:31Z</time></trkpt><trkpt lat="45.82224318047268" lon="9.361083361152707"><ele>249.0</ele><time>2026-04-26T07:46:32Z</time></trkpt><trkpt lat="45.8222134644348" lon="9.361217577376543"><ele>249.0</ele><time>2026-04-26T07:46:34Z</time></trkpt><trkpt lat="45.82220619688171" lon="9.361307829898285"><ele>250.6</ele><time>2026-04-26T07:46:53Z</time></trkpt><trkpt lat="45.822177887166326" lon="9.361453309094259"><ele>252.2</ele><time>2026-04-26T07:46:55Z</time></trkpt><trkpt lat="45.82214485504804" lon="9.361633962295853"><ele>253.79999999999998</ele><time>2026-04-26T07:46:57Z</time></trkpt><trkpt lat="45.82212662748457" lon="9.361746187811642"><ele>255.39999999999998</ele><time>2026-04-26T07:46:58Z</time></trkpt><trkpt lat="45.82210258305341" lon="9.361859861777791"><ele>257.0</ele><time>2026-04-26T07:46:59Z</time></trkpt><trkpt lat="45.82208736894038" lon="9.361982952245954"><ele>257.0</ele><time>2026-04-26T07:47:00Z</time></trkpt><trkpt lat="45.82207611019768" lon="9.362081466121987"><ele>257.0</ele><time>2026-04-26T07:47:01Z</time></trkpt><trkpt lat="45.82206951215508" lon="9.362185771550092"><ele>257.0</ele><time>2026-04-26T07:47:02Z</time></trkpt><trkpt lat="45.82207153378539" lon="9.36229583820951"><ele>257.0</ele><time>2026-04-26T07:47:03Z</time></trkpt><trkpt lat="45.822068458537586" lon="9.36238980521149"><ele>257.0</ele><time>2026-04-26T07:47:04Z</time></trkpt><trkpt lat="45.82193870980832" lon="9.362473590290135"><ele>257.0</ele><time>2026-04-26T07:47:05Z</time></trkpt><trkpt lat="45.82193789288738" lon="9.362575541947363"><ele>258.1666666666667</ele><time>2026-04-26T07:47:06Z</time></trkpt><trkpt lat="45.821932226888585" lon="9.362671543595452"><ele>259.33333333333337</ele><time>2026-04-26T07:47:08Z</time></trkpt><trkpt lat="45.821921635310154" lon="9.362779064522705"><ele>260.5</ele><time>2026-04-26T07:47:10Z</time></trkpt><trkpt lat="45.82189882450674" lon="9.362870357812449"><ele>261.6666666666667</ele><time>2026-04-26T07:47:12Z</time></trkpt><trkpt lat="45.821855354864745" lon="9.362946636582587"><ele>262.8333333333333</ele><time>2026-04-26T07:47:14Z</time></trkpt><trkpt lat="45.82188027488597" lon="9.363169600209703"><ele>264.0</ele><time>2026-04-26T07:47:18Z</time></trkpt><trkpt lat="45.82185575069794" lon="9.363268736910678"><ele>264.6666666666667</ele><time>2026-04-26T07:47:20Z</time></trkpt><trkpt lat="45.821843049247505" lon="9.363373747637391"><ele>265.3333333333333</ele><time>2026-04-26T07:47:22Z</time></trkpt><trkpt lat="45.82180834600734" lon="9.363473477554953"><ele>266.0</ele><time>2026-04-26T07:47:24Z</time></trkpt><trkpt lat="45.821836626767094" lon="9.363343843836361"><ele>266.66666666666663</ele><time>2026-04-26T07:47:41Z</time></trkpt><trkpt lat="45.8218542028457" lon="9.3632430472287"><ele>267.3333333333333</ele><time>2026-04-26T07:47:43Z</time></trkpt><trkpt lat="45.82187008225542" lon="9.36314574815037"><ele>268.0</ele><time>2026-04-26T07:47:49Z</time></trkpt><trkpt lat="45.82193669783469" lon="9.363079901197802"><ele>267.3333333333333</ele><time>2026-04-26T07:48:16Z</time></trkpt><trkpt lat="45.821901609688396" lon="9.36297159459324"><ele>266.66666666666663</ele><time>2026-04-26T07:48:18Z</time></trkpt><trkpt lat="45.82186697615051" lon="9.362888625673188"><ele>266.0</ele><time>2026-04-26T07:48:21Z</time></trkpt><trkpt lat="45.82176241116386" lon="9.362889682368978"><ele>265.3333333333333</ele><time>2026-04-26T07:48:23Z</time></trkpt><trkpt lat="45.82169242472442" lon="9.362913560648922"><ele>264.6666666666667</ele><time>2026-04-26T07:48:24Z</time></trkpt><trkpt lat="45.82160907260306" lon="9.362913485438314"><ele>264.0</ele><time>2026-04-26T07:48:25Z</time></trkpt><trkpt lat="45.821531019266786" lon="9.362923942815094"><ele>264.8</ele><time>2026-04-26T07:48:26Z</time></trkpt><trkpt lat="45.821442807910366" lon="9.3630569279559"><ele>265.59999999999997</ele><time>2026-04-26T07:48:28Z</time></trkpt><trkpt lat="45.82141955035077" lon="9.363178047237009"><ele>266.4</ele><time>2026-04-26T07:48:29Z</time></trkpt><trkpt lat="45.82138879388787" lon="9.363308290746147"><ele>267.2</ele><time>2026-04-26T07:48:30Z</time></trkpt><trkpt lat="45.82135915594507" lon="9.363426686544946"><ele>268.0</ele><time>2026-04-26T07:48:31Z</time></trkpt><trkpt lat="45.821320875685245" lon="9.363544856265927"><ele>268.0</ele><time>2026-04-26T07:48:32Z</time></trkpt><trkpt lat="45.82128744241277" lon="9.363638624637499"><ele>268.0</ele><time>2026-04-26T07:48:33Z</time></trkpt><trkpt lat="45.821216168751896" lon="9.363709663092754"><ele>268.0</ele><time>2026-04-26T07:48:34Z</time></trkpt><trkpt lat="45.821152837549434" lon="9.363689955105016"><ele>268.0</ele><time>2026-04-26T07:48:35Z</time></trkpt><trkpt lat="45.821086792120205" lon="9.363696880684834"><ele>268.0</ele><time>2026-04-26T07:48:36Z</time></trkpt><trkpt lat="45.82100690767102" lon="9.363701193889137"><ele>268.0</ele><time>2026-04-26T07:48:37Z</time></trkpt><trkpt lat="45.82092154075845" lon="9.363721904030374"><ele>267.6</ele><time>2026-04-26T07:48:38Z</time></trkpt><trkpt lat="45.820832796998666" lon="9.363714703785435"><ele>267.20000000000005</ele><time>2026-04-26T07:48:39Z</time></trkpt><trkpt lat="45.82073653252373" lon="9.363714558206532"><ele>266.8</ele><time>2026-04-26T07:48:40Z</time></trkpt><trkpt lat="45.820630398282695" lon="9.363734305215102"><ele>266.40000000000003</ele><time>2026-04-26T07:48:41Z</time></trkpt><trkpt lat="45.820523317674954" lon="9.363743431700888"><ele>266.0</ele><time>2026-04-26T07:48:42Z</time></trkpt><trkpt lat="45.82041716412533" lon="9.36374660045991"><ele>266.0</ele><time>2026-04-26T07:48:43Z</time></trkpt><trkpt lat="45.82029688263741" lon="9.363747061223524"><ele>266.0</ele><time>2026-04-26T07:48:44Z</time></trkpt><trkpt lat="45.820176619758946" lon="9.363746895080155"><ele>266.0</ele><time>2026-04-26T07:48:45Z</time></trkpt><trkpt lat="45.82005778176562" lon="9.363746725843898"><ele>266.0</ele><time>2026-04-26T07:48:46Z</time></trkpt><trkpt lat="45.819938207835015" lon="9.363757480795526"><ele>267.5</ele><time>2026-04-26T07:48:47Z</time></trkpt><trkpt lat="45.81981243564124" lon="9.36377449972914"><ele>269.0</ele><time>2026-04-26T07:48:48Z</time></trkpt><trkpt lat="45.81969719277357" lon="9.363782356011406"><ele>270.5</ele><time>2026-04-26T07:48:49Z</time></trkpt><trkpt lat="45.81958740367801" lon="9.363798865026823"><ele>272.0</ele><time>2026-04-26T07:48:50Z</time></trkpt><trkpt lat="45.81948123981628" lon="9.363813880331124"><ele>272.0</ele><time>2026-04-26T07:48:51Z</time></trkpt><trkpt lat="45.81937278099516" lon="9.363819083696566"><ele>272.0</ele><time>2026-04-26T07:48:52Z</time></trkpt><trkpt lat="45.819273062016585" lon="9.363825563984138"><ele>272.0</ele><time>2026-04-26T07:48:53Z</time></trkpt><trkpt lat="45.81917275289938" lon="9.363847844217796"><ele>272.0</ele><time>2026-04-26T07:48:54Z</time></trkpt><trkpt lat="45.81910673548579" lon="9.363880644824254"><ele>272.0</ele><time>2026-04-26T07:48:55Z</time></trkpt><trkpt lat="45.81904115807973" lon="9.363924546126453"><ele>273.5</ele><time>2026-04-26T07:48:56Z</time></trkpt><trkpt lat="45.81898450782912" lon="9.363965498839695"><ele>275.0</ele><time>2026-04-26T07:48:57Z</time></trkpt><trkpt lat="45.81892184385411" lon="9.364006018182527"><ele>276.5</ele><time>2026-04-26T07:48:59Z</time></trkpt><trkpt lat="45.81892527634778" lon="9.364207673196494"><ele>278.0</ele><time>2026-04-26T07:49:02Z</time></trkpt><trkpt lat="45.818952295091464" lon="9.36429630943823"><ele>279.5</ele><time>2026-04-26T07:49:03Z</time></trkpt><trkpt lat="45.81896521335514" lon="9.364412256202165"><ele>281.0</ele><time>2026-04-26T07:49:04Z</time></trkpt><trkpt lat="45.818945964519195" lon="9.364527926873512"><ele>281.0</ele><time>2026-04-26T07:49:05Z</time></trkpt><trkpt lat="45.818897593759644" lon="9.364626453154035"><ele>281.0</ele><time>2026-04-26T07:49:06Z</time></trkpt><trkpt lat="45.81883833329681" lon="9.364697007083484"><ele>281.0</ele><time>2026-04-26T07:49:07Z</time></trkpt><trkpt lat="45.81876062108236" lon="9.364732753826283"><ele>281.0</ele><time>2026-04-26T07:49:08Z</time></trkpt><trkpt lat="45.81866791952251" lon="9.36473554868391"><ele>281.0</ele><time>2026-04-26T07:49:09Z</time></trkpt><trkpt lat="45.81857574027051" lon="9.364694979773331"><ele>281.0</ele><time>2026-04-26T07:49:10Z</time></trkpt><trkpt lat="45.81849500324106" lon="9.364679124348251"><ele>283.40000000000003</ele><time>2026-04-26T07:49:11Z</time></trkpt><trkpt lat="45.818353544580965" lon="9.364902344394292"><ele>285.8</ele><time>2026-04-26T07:49:14Z</time></trkpt><trkpt lat="45.81838356720535" lon="9.364995820739546"><ele>288.20000000000005</ele><time>2026-04-26T07:49:15Z</time></trkpt><trkpt lat="45.81837932089213" lon="9.365099788820793"><ele>290.6</ele><time>2026-04-26T07:49:16Z</time></trkpt><trkpt lat="45.81839596475912" lon="9.36520836371404"><ele>293.0</ele><time>2026-04-26T07:49:17Z</time></trkpt><trkpt lat="45.81840552282908" lon="9.365324530574455"><ele>293.0</ele><time>2026-04-26T07:49:18Z</time></trkpt><trkpt lat="45.81841850355696" lon="9.365436071370226"><ele>293.0</ele><time>2026-04-26T07:49:19Z</time></trkpt><trkpt lat="45.81842987687208" lon="9.36554292260928"><ele>293.0</ele><time>2026-04-26T07:49:20Z</time></trkpt><trkpt lat="45.81843834847959" lon="9.365651395655762"><ele>293.0</ele><time>2026-04-26T07:49:21Z</time></trkpt><trkpt lat="45.81847359095168" lon="9.36574894997982"><ele>293.0</ele><time>2026-04-26T07:49:22Z</time></trkpt><trkpt lat="45.81854385884945" lon="9.365832807604587"><ele>293.0</ele><time>2026-04-26T07:49:23Z</time></trkpt><trkpt lat="45.81864477704039" lon="9.3659026914883"><ele>294.25</ele><time>2026-04-26T07:49:24Z</time></trkpt><trkpt lat="45.81874772022407" lon="9.365986444977594"><ele>295.5</ele><time>2026-04-26T07:49:25Z</time></trkpt><trkpt lat="45.81885776671893" lon="9.366087495819272"><ele>296.75</ele><time>2026-04-26T07:49:26Z</time></trkpt><trkpt lat="45.818966265612524" lon="9.366180714020413"><ele>298.0</ele><time>2026-04-26T07:49:27Z</time></trkpt><trkpt lat="45.81906026922492" lon="9.366271408048423"><ele>300.2</ele><time>2026-04-26T07:49:28Z</time></trkpt><trkpt lat="45.81913898475923" lon="9.366380260839799"><ele>302.4</ele><time>2026-04-26T07:49:29Z</time></trkpt><trkpt lat="45.81919173695798" lon="9.366478305873343"><ele>304.59999999999997</ele><time>2026-04-26T07:49:30Z</time></trkpt><trkpt lat="45.819228653474305" lon="9.366605660339667"><ele>306.8</ele><time>2026-04-26T07:49:31Z</time></trkpt><trkpt lat="45.819257356907514" lon="9.36674491304364"><ele>309.0</ele><time>2026-04-26T07:49:32Z</time></trkpt><trkpt lat="45.81928009243528" lon="9.366893886245224"><ele>309.0</ele><time>2026-04-26T07:49:33Z</time></trkpt><trkpt lat="45.819301916481685" lon="9.3670550634848"><ele>309.0</ele><time>2026-04-26T07:49:34Z</time></trkpt><trkpt lat="45.819324394766475" lon="9.36722048895529"><ele>309.0</ele><time>2026-04-26T07:49:35Z</time></trkpt><trkpt lat="45.81934848879093" lon="9.367380031982153"><ele>309.0</ele><time>2026-04-26T07:49:36Z</time></trkpt><trkpt lat="45.819359149294016" lon="9.367531934108692"><ele>309.3333333333333</ele><time>2026-04-26T07:49:37Z</time></trkpt><trkpt lat="45.81938895758685" lon="9.367657637735775"><ele>309.6666666666667</ele><time>2026-04-26T07:49:38Z</time></trkpt><trkpt lat="45.81941272222271" lon="9.367774518486904"><ele>310.0</ele><time>2026-04-26T07:49:39Z</time></trkpt><trkpt lat="45.81943287660434" lon="9.367889449574914"><ele>310.33333333333337</ele><time>2026-04-26T07:49:40Z</time></trkpt><trkpt lat="45.819447894538065" lon="9.36800484470034"><ele>310.6666666666667</ele><time>2026-04-26T07:49:41Z</time></trkpt><trkpt lat="45.81944134911908" lon="9.36812578550736"><ele>311.0</ele><time>2026-04-26T07:49:42Z</time></trkpt><trkpt lat="45.819415402440335" lon="9.368236989840039"><ele>312.83333333333337</ele><time>2026-04-26T07:49:43Z</time></trkpt><trkpt lat="45.81937083768701" lon="9.368336152543867"><ele>314.6666666666667</ele><time>2026-04-26T07:49:44Z</time></trkpt><trkpt lat="45.81930681312721" lon="9.368413252546265"><ele>316.5</ele><time>2026-04-26T07:49:45Z</time></trkpt><trkpt lat="45.81923409586388" lon="9.368448557076182"><ele>318.3333333333333</ele><time>2026-04-26T07:49:46Z</time></trkpt><trkpt lat="45.819125774806835" lon="9.368458841880129"><ele>320.16666666666663</ele><time>2026-04-26T07:49:47Z</time></trkpt><trkpt lat="45.819033679948625" lon="9.368495175330484"><ele>322.0</ele><time>2026-04-26T07:49:48Z</time></trkpt><trkpt lat="45.81893058907267" lon="9.368533328428756"><ele>322.0</ele><time>2026-04-26T07:49:49Z</time></trkpt><trkpt lat="45.81882469643175" lon="9.368576665284923"><ele>322.0</ele><time>2026-04-26T07:49:50Z</time></trkpt><trkpt lat="45.81871145574842" lon="9.368621333697693"><ele>322.0</ele><time>2026-04-26T07:49:51Z</time></trkpt><trkpt lat="45.81860753988066" lon="9.36866587085456"><ele>322.0</ele><time>2026-04-26T07:49:52Z</time></trkpt><trkpt lat="45.818507941910774" lon="9.368699990848283"><ele>322.0</ele><time>2026-04-26T07:49:53Z</time></trkpt><trkpt lat="45.818409732355896" lon="9.368738028008147"><ele>321.25</ele><time>2026-04-26T07:49:54Z</time></trkpt><trkpt lat="45.81830237000401" lon="9.368813658414423"><ele>320.5</ele><time>2026-04-26T07:49:55Z</time></trkpt><trkpt lat="45.818199364594584" lon="9.368897326883536"><ele>319.75</ele><time>2026-04-26T07:49:56Z</time></trkpt><trkpt lat="45.81810027500405" lon="9.369004110275517"><ele>319.0</ele><time>2026-04-26T07:49:57Z</time></trkpt><trkpt lat="45.81800589546733" lon="9.369118988067589"><ele>320.2</ele><time>2026-04-26T07:49:58Z</time></trkpt><trkpt lat="45.81791558897123" lon="9.369222708201832"><ele>321.4</ele><time>2026-04-26T07:49:59Z</time></trkpt><trkpt lat="45.81782431729489" lon="9.369326625544167"><ele>322.6</ele><time>2026-04-26T07:50:00Z</time></trkpt><trkpt lat="45.817742370636054" lon="9.36943459945046"><ele>323.8</ele><time>2026-04-26T07:50:01Z</time></trkpt><trkpt lat="45.81768299046591" lon="9.369543238430184"><ele>325.0</ele><time>2026-04-26T07:50:02Z</time></trkpt><trkpt lat="45.81764993201927" lon="9.369677629932221"><ele>328.4</ele><time>2026-04-26T07:50:03Z</time></trkpt><trkpt lat="45.81763609015554" lon="9.369813328687895"><ele>331.8</ele><time>2026-04-26T07:50:04Z</time></trkpt><trkpt lat="45.81763042053679" lon="9.369953159113715"><ele>335.20000000000005</ele><time>2026-04-26T07:50:05Z</time></trkpt><trkpt lat="45.81762106798453" lon="9.370076951356362"><ele>338.6</ele><time>2026-04-26T07:50:06Z</time></trkpt><trkpt lat="45.8176099419147" lon="9.370206728123662"><ele>342.0</ele><time>2026-04-26T07:50:07Z</time></trkpt><trkpt lat="45.817596129282144" lon="9.370327114702365"><ele>342.0</ele><time>2026-04-26T07:50:08Z</time></trkpt><trkpt lat="45.8175808025552" lon="9.370446040180028"><ele>342.0</ele><time>2026-04-26T07:50:09Z</time></trkpt><trkpt lat="45.81754605668558" lon="9.37055064225386"><ele>342.0</ele><time>2026-04-26T07:50:10Z</time></trkpt><trkpt lat="45.817498677139326" lon="9.370637023429559"><ele>342.0</ele><time>2026-04-26T07:50:11Z</time></trkpt><trkpt lat="45.817396509034445" lon="9.370648278009776"><ele>342.0</ele><time>2026-04-26T07:50:12Z</time></trkpt><trkpt lat="45.81731650007" lon="9.370693206593842"><ele>342.0</ele><time>2026-04-26T07:50:13Z</time></trkpt><trkpt lat="45.81722445468238" lon="9.370735319017452"><ele>343.5</ele><time>2026-04-26T07:50:14Z</time></trkpt><trkpt lat="45.81712012392479" lon="9.370777932361033"><ele>345.0</ele><time>2026-04-26T07:50:15Z</time></trkpt><trkpt lat="45.81701861946574" lon="9.370794681590269"><ele>346.5</ele><time>2026-04-26T07:50:16Z</time></trkpt><trkpt lat="45.81693488344199" lon="9.370800370435528"><ele>348.0</ele><time>2026-04-26T07:50:17Z</time></trkpt><trkpt lat="45.81685728819919" lon="9.37082701337383"><ele>349.5</ele><time>2026-04-26T07:50:18Z</time></trkpt><trkpt lat="45.81679078976197" lon="9.370820743270937"><ele>351.0</ele><time>2026-04-26T07:50:19Z</time></trkpt><trkpt lat="45.81670849363249" lon="9.370880619388148"><ele>351.0</ele><time>2026-04-26T07:50:21Z</time></trkpt><trkpt lat="45.81671282489345" lon="9.371032230369622"><ele>351.0</ele><time>2026-04-26T07:50:23Z</time></trkpt><trkpt lat="45.81674643016649" lon="9.371115080983568"><ele>351.0</ele><time>2026-04-26T07:50:24Z</time></trkpt><trkpt lat="45.816790133667986" lon="9.371266531756415"><ele>351.0</ele><time>2026-04-26T07:50:26Z</time></trkpt><trkpt lat="45.81681310947571" lon="9.371418988296467"><ele>351.0</ele><time>2026-04-26T07:50:28Z</time></trkpt><trkpt lat="45.81687215082225" lon="9.37156368023254"><ele>353.5</ele><time>2026-04-26T07:50:30Z</time></trkpt><trkpt lat="45.81691917273688" lon="9.371635477216795"><ele>356.0</ele><time>2026-04-26T07:50:31Z</time></trkpt><trkpt lat="45.81700828835996" lon="9.371728741507246"><ele>358.5</ele><time>2026-04-26T07:50:33Z</time></trkpt><trkpt lat="45.81706370451307" lon="9.371777442120912"><ele>361.0</ele><time>2026-04-26T07:50:35Z</time></trkpt><trkpt lat="45.817127791899715" lon="9.371873767861477"><ele>363.5</ele><time>2026-04-26T07:50:43Z</time></trkpt><trkpt lat="45.817199055029754" lon="9.371939898486993"><ele>366.0</ele><time>2026-04-26T07:50:44Z</time></trkpt><trkpt lat="45.8172530322905" lon="9.37200736700876"><ele>366.0</ele><time>2026-04-26T07:50:45Z</time></trkpt><trkpt lat="45.81732089039029" lon="9.372080033857385"><ele>366.0</ele><time>2026-04-26T07:50:46Z</time></trkpt><trkpt lat="45.81737616622004" lon="9.372143826923896"><ele>366.0</ele><time>2026-04-26T07:50:47Z</time></trkpt><trkpt lat="45.817465258992044" lon="9.372218007541239"><ele>366.0</ele><time>2026-04-26T07:50:49Z</time></trkpt><trkpt lat="45.81751693289197" lon="9.372283450092926"><ele>366.0</ele><time>2026-04-26T07:50:50Z</time></trkpt><trkpt lat="45.81761291141482" lon="9.372369077989672"><ele>366.0</ele><time>2026-04-26T07:50:52Z</time></trkpt><trkpt lat="45.81766742785475" lon="9.372548256732294"><ele>366.1666666666667</ele><time>2026-04-26T07:50:54Z</time></trkpt><trkpt lat="45.81767307531558" lon="9.372647194424358"><ele>366.3333333333333</ele><time>2026-04-26T07:50:55Z</time></trkpt><trkpt lat="45.81768623230304" lon="9.372760232560065"><ele>366.5</ele><time>2026-04-26T07:50:56Z</time></trkpt><trkpt lat="45.817709542976765" lon="9.372847874788198"><ele>366.66666666666663</ele><time>2026-04-26T07:50:57Z</time></trkpt><trkpt lat="45.817660339719104" lon="9.37293540122843"><ele>366.8333333333333</ele><time>2026-04-26T07:50:58Z</time></trkpt><trkpt lat="45.81763949090875" lon="9.373050097761931"><ele>367.0</ele><time>2026-04-26T07:50:59Z</time></trkpt><trkpt lat="45.817605471808044" lon="9.37325108260374"><ele>367.66666666666663</ele><time>2026-04-26T07:51:01Z</time></trkpt><trkpt lat="45.81760630083723" lon="9.373365297719502"><ele>368.3333333333333</ele><time>2026-04-26T07:51:02Z</time></trkpt><trkpt lat="45.81759929758144" lon="9.37348285573561"><ele>369.0</ele><time>2026-04-26T07:51:03Z</time></trkpt><trkpt lat="45.81759116121099" lon="9.373577397786677"><ele>369.6666666666667</ele><time>2026-04-26T07:51:04Z</time></trkpt><trkpt lat="45.817589802225136" lon="9.373689189587145"><ele>370.33333333333337</ele><time>2026-04-26T07:51:05Z</time></trkpt><trkpt lat="45.817585672782435" lon="9.373780002987317"><ele>371.0</ele><time>2026-04-26T07:51:06Z</time></trkpt><trkpt lat="45.81749928613284" lon="9.373823140384676"><ele>371.0</ele><time>2026-04-26T07:51:08Z</time></trkpt><trkpt lat="45.817424558196144" lon="9.373849025647766"><ele>371.0</ele><time>2026-04-26T07:51:09Z</time></trkpt><trkpt lat="45.81733604229472" lon="9.373827371576581"><ele>371.0</ele><time>2026-04-26T07:51:10Z</time></trkpt><trkpt lat="45.81724904540785" lon="9.373841676439737"><ele>371.0</ele><time>2026-04-26T07:51:11Z</time></trkpt><trkpt lat="45.81713857895318" lon="9.373831009518335"><ele>371.0</ele><time>2026-04-26T07:51:12Z</time></trkpt><trkpt lat="45.81705052649698" lon="9.373847333801786"><ele>370.83333333333337</ele><time>2026-04-26T07:51:13Z</time></trkpt><trkpt lat="45.81696768132145" lon="9.373888074023464"><ele>370.6666666666667</ele><time>2026-04-26T07:51:14Z</time></trkpt><trkpt lat="45.81690271585321" lon="9.373905156819387"><ele>370.5</ele><time>2026-04-26T07:51:15Z</time></trkpt><trkpt lat="45.81683183762921" lon="9.373955489104304"><ele>370.3333333333333</ele><time>2026-04-26T07:51:16Z</time></trkpt><trkpt lat="45.81676933686313" lon="9.374026834985594"><ele>370.16666666666663</ele><time>2026-04-26T07:51:17Z</time></trkpt><trkpt lat="45.816702415232875" lon="9.374111053580256"><ele>370.0</ele><time>2026-04-26T07:51:18Z</time></trkpt><trkpt lat="45.816657965997365" lon="9.37419123191232"><ele>369.66666666666663</ele><time>2026-04-26T07:51:19Z</time></trkpt><trkpt lat="45.81662598795612" lon="9.3742776450282"><ele>369.3333333333333</ele><time>2026-04-26T07:51:20Z</time></trkpt><trkpt lat="45.81664282782285" lon="9.374383740056702"><ele>369.0</ele><time>2026-04-26T07:51:21Z</time></trkpt><trkpt lat="45.81664444696839" lon="9.374499326817569"><ele>368.6666666666667</ele><time>2026-04-26T07:51:22Z</time></trkpt><trkpt lat="45.81665215333116" lon="9.374613292561529"><ele>368.33333333333337</ele><time>2026-04-26T07:51:23Z</time></trkpt><trkpt lat="45.81665505096176" lon="9.374708205962316"><ele>368.0</ele><time>2026-04-26T07:51:24Z</time></trkpt><trkpt lat="45.816683692358815" lon="9.374848804648753"><ele>367.79999999999995</ele><time>2026-04-26T07:51:26Z</time></trkpt><trkpt lat="45.8166840606226" lon="9.374943906872515"><ele>367.6</ele><time>2026-04-26T07:51:32Z</time></trkpt><trkpt lat="45.816553645472936" lon="9.37495316749741"><ele>367.4</ele><time>2026-04-26T07:51:33Z</time></trkpt><trkpt lat="45.81644455098117" lon="9.37497790012009"><ele>367.20000000000005</ele><time>2026-04-26T07:51:34Z</time></trkpt><trkpt lat="45.81631466503218" lon="9.374983749774803"><ele>367.0</ele><time>2026-04-26T07:51:35Z</time></trkpt><trkpt lat="45.81618956329647" lon="9.374982933230358"><ele>367.0</ele><time>2026-04-26T07:51:36Z</time></trkpt><trkpt lat="45.81604883775691" lon="9.374940046405396"><ele>367.0</ele><time>2026-04-26T07:51:37Z</time></trkpt><trkpt lat="45.81590811025475" lon="9.374949220414566"><ele>367.0</ele><time>2026-04-26T07:51:38Z</time></trkpt><trkpt lat="45.81578923569137" lon="9.374956969830679"><ele>367.0</ele><time>2026-04-26T07:51:39Z</time></trkpt><trkpt lat="45.815665582609086" lon="9.374965030757721"><ele>366.40000000000003</ele><time>2026-04-26T07:51:40Z</time></trkpt><trkpt lat="45.8155762880659" lon="9.37496269860687"><ele>365.8</ele><time>2026-04-26T07:51:41Z</time></trkpt><trkpt lat="45.81549722072633" lon="9.374942646300093"><ele>365.2</ele><time>2026-04-26T07:51:42Z</time></trkpt><trkpt lat="45.8154234043981" lon="9.374808229049664"><ele>364.6</ele><time>2026-04-26T07:51:44Z</time></trkpt><trkpt lat="45.815316228418595" lon="9.374817172581805"><ele>364.0</ele><time>2026-04-26T07:51:46Z</time></trkpt><trkpt lat="45.81529257876856" lon="9.374923015120723"><ele>364.0</ele><time>2026-04-26T07:51:47Z</time></trkpt><trkpt lat="45.815277796732495" lon="9.375014019256767"><ele>364.0</ele><time>2026-04-26T07:51:48Z</time></trkpt><trkpt lat="45.81525541708833" lon="9.375109046321764"><ele>364.0</ele><time>2026-04-26T07:51:49Z</time></trkpt><trkpt lat="45.81520537136257" lon="9.37518771809204"><ele>364.0</ele><time>2026-04-26T07:51:50Z</time></trkpt><trkpt lat="45.81514027917834" lon="9.375215108298512"><ele>364.0</ele><time>2026-04-26T07:51:51Z</time></trkpt><trkpt lat="45.81504221454862" lon="9.375253829513804"><ele>364.0</ele><time>2026-04-26T07:51:52Z</time></trkpt><trkpt lat="45.81495678820568" lon="9.375182821868483"><ele>365.0</ele><time>2026-04-26T07:51:53Z</time></trkpt><trkpt lat="45.81486523064493" lon="9.37518359279257"><ele>366.0</ele><time>2026-04-26T07:51:54Z</time></trkpt><trkpt lat="45.81475900420823" lon="9.375202524331113"><ele>367.0</ele><time>2026-04-26T07:51:55Z</time></trkpt><trkpt lat="45.81464328676348" lon="9.375193503010166"><ele>368.0</ele><time>2026-04-26T07:51:56Z</time></trkpt><trkpt lat="45.814528293593746" lon="9.375192622298716"><ele>369.0</ele><time>2026-04-26T07:51:57Z</time></trkpt><trkpt lat="45.81442878639344" lon="9.375206721298301"><ele>369.0</ele><time>2026-04-26T07:51:58Z</time></trkpt><trkpt lat="45.814340256221634" lon="9.375234802220382"><ele>369.0</ele><time>2026-04-26T07:51:59Z</time></trkpt><trkpt lat="45.81425775798344" lon="9.375288600684247"><ele>369.0</ele><time>2026-04-26T07:52:00Z</time></trkpt><trkpt lat="45.81417235570489" lon="9.375369332982872"><ele>369.0</ele><time>2026-04-26T07:52:01Z</time></trkpt><trkpt lat="45.81407965516937" lon="9.37543476691237"><ele>369.0</ele><time>2026-04-26T07:52:02Z</time></trkpt><trkpt lat="45.81398905191546" lon="9.375507220692594"><ele>369.3333333333333</ele><time>2026-04-26T07:52:03Z</time></trkpt><trkpt lat="45.813898479547085" lon="9.375583067050304"><ele>369.6666666666667</ele><time>2026-04-26T07:52:04Z</time></trkpt><trkpt lat="45.813819789404825" lon="9.375653035630355"><ele>370.0</ele><time>2026-04-26T07:52:05Z</time></trkpt><trkpt lat="45.8137484988623" lon="9.375726058209102"><ele>370.33333333333337</ele><time>2026-04-26T07:52:06Z</time></trkpt><trkpt lat="45.81369094718902" lon="9.375790675512546"><ele>370.6666666666667</ele><time>2026-04-26T07:52:07Z</time></trkpt><trkpt lat="45.8136375529064" lon="9.375862131344729"><ele>371.0</ele><time>2026-04-26T07:52:08Z</time></trkpt><trkpt lat="45.81358577395326" lon="9.375938254156782"><ele>371.0</ele><time>2026-04-26T07:52:09Z</time></trkpt><trkpt lat="45.81350513232496" lon="9.376050309895252"><ele>371.0</ele><time>2026-04-26T07:52:11Z</time></trkpt><trkpt lat="45.813468060508285" lon="9.376128474185897"><ele>371.0</ele><time>2026-04-26T07:52:12Z</time></trkpt><trkpt lat="45.81343540312749" lon="9.376212940430385"><ele>371.0</ele><time>2026-04-26T07:52:13Z</time></trkpt><trkpt lat="45.813425077074506" lon="9.37632816012331"><ele>371.0</ele><time>2026-04-26T07:52:14Z</time></trkpt><trkpt lat="45.813448661323754" lon="9.376447203951164"><ele>371.0</ele><time>2026-04-26T07:52:15Z</time></trkpt><trkpt lat="45.813482318456835" lon="9.376552942171166"><ele>371.0</ele><time>2026-04-26T07:52:16Z</time></trkpt><trkpt lat="45.81351214760516" lon="9.37663930290948"><ele>371.0</ele><time>2026-04-26T07:52:17Z</time></trkpt><trkpt lat="45.81354358730646" lon="9.376730814963754"><ele>371.0</ele><time>2026-04-26T07:52:18Z</time></trkpt><trkpt lat="45.813579084444484" lon="9.376827382110934"><ele>371.0</ele><time>2026-04-26T07:52:19Z</time></trkpt><trkpt lat="45.81361042188088" lon="9.376915034293678"><ele>371.0</ele><time>2026-04-26T07:52:20Z</time></trkpt><trkpt lat="45.81364190620351" lon="9.376997163869268"><ele>371.0</ele><time>2026-04-26T07:52:21Z</time></trkpt><trkpt lat="45.8136723472454" lon="9.37707946525195"><ele>371.0</ele><time>2026-04-26T07:52:22Z</time></trkpt><trkpt lat="45.81369706940307" lon="9.377175458289777"><ele>370.8</ele><time>2026-04-26T07:52:23Z</time></trkpt><trkpt lat="45.81370317020306" lon="9.377316139292075"><ele>370.6</ele><time>2026-04-26T07:52:25Z</time></trkpt><trkpt lat="45.81368861457516" lon="9.377441007213168"><ele>370.4</ele><time>2026-04-26T07:52:27Z</time></trkpt><trkpt lat="45.81366744439369" lon="9.37757714155558"><ele>370.2</ele><time>2026-04-26T07:52:29Z</time></trkpt><trkpt lat="45.81374190109792" lon="9.37764937136138"><ele>370.0</ele><time>2026-04-26T07:52:30Z</time></trkpt><trkpt lat="45.813844704440555" lon="9.377635098802648"><ele>370.0</ele><time>2026-04-26T07:52:32Z</time></trkpt><trkpt lat="45.813874055658296" lon="9.377550355475421"><ele>370.0</ele><time>2026-04-26T07:52:34Z</time></trkpt><trkpt lat="45.814010236670704" lon="9.377564608814401"><ele>370.0</ele><time>2026-04-26T07:52:36Z</time></trkpt><trkpt lat="45.81410542091325" lon="9.377578554286735"><ele>370.0</ele><time>2026-04-26T07:52:37Z</time></trkpt><trkpt lat="45.81422579110322" lon="9.377581159243748"><ele>370.0</ele><time>2026-04-26T07:52:38Z</time></trkpt><trkpt lat="45.81435812612974" lon="9.377571852411497"><ele>370.5</ele><time>2026-04-26T07:52:39Z</time></trkpt><trkpt lat="45.81449640426302" lon="9.377531733926698"><ele>371.0</ele><time>2026-04-26T07:52:40Z</time></trkpt><trkpt lat="45.81463436957833" lon="9.377504218966946"><ele>371.5</ele><time>2026-04-26T07:52:41Z</time></trkpt><trkpt lat="45.81476053299929" lon="9.377473101132022"><ele>372.0</ele><time>2026-04-26T07:52:42Z</time></trkpt><trkpt lat="45.814878867477525" lon="9.37745379896856"><ele>372.0</ele><time>2026-04-26T07:52:43Z</time></trkpt><trkpt lat="45.81498476189164" lon="9.377424021368691"><ele>372.0</ele><time>2026-04-26T07:52:44Z</time></trkpt><trkpt lat="45.81507526323314" lon="9.377393054896293"><ele>372.0</ele><time>2026-04-26T07:52:45Z</time></trkpt><trkpt lat="45.81513603530842" lon="9.377354644138716"><ele>372.0</ele><time>2026-04-26T07:52:46Z</time></trkpt><trkpt lat="45.81522068118189" lon="9.37732604752457"><ele>372.0</ele><time>2026-04-26T07:52:48Z</time></trkpt><trkpt lat="45.815293918341006" lon="9.377306920151073"><ele>372.0</ele><time>2026-04-26T07:52:50Z</time></trkpt><trkpt lat="45.81542203002502" lon="9.377255826098624"><ele>372.0</ele><time>2026-04-26T07:52:52Z</time></trkpt><trkpt lat="45.81551746164797" lon="9.377201503065468"><ele>372.0</ele><time>2026-04-26T07:52:53Z</time></trkpt><trkpt lat="45.815608914735456" lon="9.377194852819434"><ele>372.0</ele><time>2026-04-26T07:52:54Z</time></trkpt><trkpt lat="45.815698137359504" lon="9.37716899786844"><ele>372.0</ele><time>2026-04-26T07:52:55Z</time></trkpt><trkpt lat="45.8157881231858" lon="9.37714704463116"><ele>372.0</ele><time>2026-04-26T07:52:56Z</time></trkpt><trkpt lat="45.81586523931216" lon="9.377129652233602"><ele>372.0</ele><time>2026-04-26T07:52:57Z</time></trkpt><trkpt lat="45.81593273363555" lon="9.377118582533223"><ele>372.0</ele><time>2026-04-26T07:52:58Z</time></trkpt><trkpt lat="45.81600585284912" lon="9.377107930926288"><ele>372.0</ele><time>2026-04-26T07:52:59Z</time></trkpt><trkpt lat="45.81606542558356" lon="9.377071041714665"><ele>372.0</ele><time>2026-04-26T07:53:00Z</time></trkpt><trkpt lat="45.81615722301864" lon="9.377053496694357"><ele>372.0</ele><time>2026-04-26T07:53:02Z</time></trkpt><trkpt lat="45.81623343814393" lon="9.377081266434779"><ele>372.0</ele><time>2026-04-26T07:53:04Z</time></trkpt><trkpt lat="45.81632424374141" lon="9.377063696735382"><ele>372.20000000000005</ele><time>2026-04-26T07:53:07Z</time></trkpt><trkpt lat="45.81641998367676" lon="9.37702853725972"><ele>372.4</ele><time>2026-04-26T07:53:09Z</time></trkpt><trkpt lat="45.816507645999536" lon="9.377065153119352"><ele>372.6</ele><time>2026-04-26T07:53:11Z</time></trkpt><trkpt lat="45.81652227387485" lon="9.37722790332618"><ele>372.79999999999995</ele><time>2026-04-26T07:53:12Z</time></trkpt><trkpt lat="45.81655240115425" lon="9.377355089682078"><ele>373.0</ele><time>2026-04-26T07:53:13Z</time></trkpt><trkpt lat="45.81658544389169" lon="9.377505105607844"><ele>372.59999999999997</ele><time>2026-04-26T07:53:14Z</time></trkpt><trkpt lat="45.81663977172402" lon="9.377612249408225"><ele>372.2</ele><time>2026-04-26T07:53:15Z</time></trkpt><trkpt lat="45.81666520384977" lon="9.377737138780505"><ele>371.8</ele><time>2026-04-26T07:53:16Z</time></trkpt><trkpt lat="45.81668862949637" lon="9.377900775188085"><ele>371.4</ele><time>2026-04-26T07:53:18Z</time></trkpt><trkpt lat="45.81671755004984" lon="9.378038466384771"><ele>371.0</ele><time>2026-04-26T07:53:19Z</time></trkpt><trkpt lat="45.81674210577412" lon="9.378185450604075"><ele>370.0</ele><time>2026-04-26T07:53:20Z</time></trkpt><trkpt lat="45.81678650919407" lon="9.378358834234662"><ele>369.0</ele><time>2026-04-26T07:53:21Z</time></trkpt><trkpt lat="45.81683586027749" lon="9.37856831018521"><ele>368.0</ele><time>2026-04-26T07:53:22Z</time></trkpt><trkpt lat="45.81689534208583" lon="9.378829466752938"><ele>367.33333333333337</ele><time>2026-04-26T07:53:23Z</time></trkpt><trkpt lat="45.81695155135228" lon="9.379085856079346"><ele>366.6666666666667</ele><time>2026-04-26T07:53:24Z</time></trkpt><trkpt lat="45.817002536086775" lon="9.379312992498932"><ele>366.0</ele><time>2026-04-26T07:53:25Z</time></trkpt><trkpt lat="45.817053982563856" lon="9.379532539268396"><ele>365.0</ele><time>2026-04-26T07:53:26Z</time></trkpt><trkpt lat="45.81710202367314" lon="9.379735422026592"><ele>364.0</ele><time>2026-04-26T07:53:27Z</time></trkpt><trkpt lat="45.8171480062396" lon="9.379935065577547"><ele>363.0</ele><time>2026-04-26T07:53:28Z</time></trkpt><trkpt lat="45.817208426655135" lon="9.380128833118285"><ele>362.0</ele><time>2026-04-26T07:53:29Z</time></trkpt><trkpt lat="45.817246792658594" lon="9.380335474333009"><ele>360.5</ele><time>2026-04-26T07:53:30Z</time></trkpt><trkpt lat="45.81728898316656" lon="9.380536499487755"><ele>359.0</ele><time>2026-04-26T07:53:31Z</time></trkpt><trkpt lat="45.81733020676366" lon="9.380736838206593"><ele>357.5</ele><time>2026-04-26T07:53:32Z</time></trkpt><trkpt lat="45.817377055830384" lon="9.380946612588628"><ele>356.0</ele><time>2026-04-26T07:53:33Z</time></trkpt><trkpt lat="45.817419361123825" lon="9.381158005020454"><ele>354.33333333333337</ele><time>2026-04-26T07:53:34Z</time></trkpt><trkpt lat="45.81746589994685" lon="9.381382064911737"><ele>352.6666666666667</ele><time>2026-04-26T07:53:35Z</time></trkpt><trkpt lat="45.81752028779289" lon="9.381594455403965"><ele>351.0</ele><time>2026-04-26T07:53:36Z</time></trkpt><trkpt lat="45.817565384634925" lon="9.381808060550904"><ele>351.0</ele><time>2026-04-26T07:53:37Z</time></trkpt><trkpt lat="45.81761750686997" lon="9.382028409295806"><ele>351.0</ele><time>2026-04-26T07:53:38Z</time></trkpt><trkpt lat="45.81768926149344" lon="9.382287317512207"><ele>351.0</ele><time>2026-04-26T07:53:39Z</time></trkpt><trkpt lat="45.8177581672543" lon="9.382577610216297"><ele>350.6666666666667</ele><time>2026-04-26T07:53:40Z</time></trkpt><trkpt lat="45.81782743849899" lon="9.38287224348565"><ele>350.33333333333337</ele><time>2026-04-26T07:53:41Z</time></trkpt><trkpt lat="45.81789448801166" lon="9.383169033714612"><ele>350.0</ele><time>2026-04-26T07:53:42Z</time></trkpt><trkpt lat="45.817947902041304" lon="9.383436401708257"><ele>350.0</ele><time>2026-04-26T07:53:43Z</time></trkpt><trkpt lat="45.817994886312675" lon="9.383667233515151"><ele>350.0</ele><time>2026-04-26T07:53:44Z</time></trkpt><trkpt lat="45.818042157397336" lon="9.383885394002077"><ele>350.0</ele><time>2026-04-26T07:53:45Z</time></trkpt><trkpt lat="45.818114974518174" lon="9.384089372823665"><ele>348.33333333333337</ele><time>2026-04-26T07:53:46Z</time></trkpt><trkpt lat="45.81818738622746" lon="9.384270670654866"><ele>346.6666666666667</ele><time>2026-04-26T07:53:47Z</time></trkpt><trkpt lat="45.81829734624867" lon="9.38440853758893"><ele>345.0</ele><time>2026-04-26T07:53:48Z</time></trkpt><trkpt lat="45.818450679481856" lon="9.384504466288172"><ele>344.6666666666667</ele><time>2026-04-26T07:53:49Z</time></trkpt><trkpt lat="45.818613284930336" lon="9.384594541131644"><ele>344.33333333333337</ele><time>2026-04-26T07:53:50Z</time></trkpt><trkpt lat="45.81877916751752" lon="9.384696031020262"><ele>344.0</ele><time>2026-04-26T07:53:51Z</time></trkpt><trkpt lat="45.8189409207018" lon="9.384798251064021"><ele>344.0</ele><time>2026-04-26T07:53:52Z</time></trkpt><trkpt lat="45.81907903927317" lon="9.384910441677915"><ele>344.0</ele><time>2026-04-26T07:53:53Z</time></trkpt><trkpt lat="45.81916358170454" lon="9.385025744994309"><ele>344.0</ele><time>2026-04-26T07:53:54Z</time></trkpt><trkpt lat="45.819211892119476" lon="9.385171318717699"><ele>344.0</ele><time>2026-04-26T07:53:55Z</time></trkpt><trkpt lat="45.819224997748044" lon="9.385347540253331"><ele>341.0</ele><time>2026-04-26T07:53:56Z</time></trkpt><trkpt lat="45.81920192646735" lon="9.385574083475568"><ele>338.0</ele><time>2026-04-26T07:53:57Z</time></trkpt><trkpt lat="45.81917836984898" lon="9.385857049098062"><ele>335.0</ele><time>2026-04-26T07:53:58Z</time></trkpt><trkpt lat="45.819158949840606" lon="9.38616857508659"><ele>334.0</ele><time>2026-04-26T07:53:59Z</time></trkpt><trkpt lat="45.81913317546258" lon="9.386459068830458"><ele>333.0</ele><time>2026-04-26T07:54:00Z</time></trkpt><trkpt lat="45.819112805237" lon="9.386710284348018"><ele>332.0</ele><time>2026-04-26T07:54:01Z</time></trkpt><trkpt lat="45.819090673330656" lon="9.386931295068376"><ele>332.0</ele><time>2026-04-26T07:54:02Z</time></trkpt><trkpt lat="45.81902877608912" lon="9.387114664749497"><ele>332.0</ele><time>2026-04-26T07:54:03Z</time></trkpt><trkpt lat="45.81897885119965" lon="9.38728821182321"><ele>332.0</ele><time>2026-04-26T07:54:04Z</time></trkpt><trkpt lat="45.81887729533734" lon="9.387466029444118"><ele>332.0</ele><time>2026-04-26T07:54:05Z</time></trkpt><trkpt lat="45.81875902890036" lon="9.38766436841957"><ele>332.6666666666667</ele><time>2026-04-26T07:54:06Z</time></trkpt><trkpt lat="45.81865468103949" lon="9.387832109828034"><ele>333.3333333333333</ele><time>2026-04-26T07:54:07Z</time></trkpt><trkpt lat="45.81860343296676" lon="9.388035586130844"><ele>334.0</ele><time>2026-04-26T07:54:08Z</time></trkpt><trkpt lat="45.818561650820556" lon="9.388268354804987"><ele>331.0</ele><time>2026-04-26T07:54:09Z</time></trkpt><trkpt lat="45.81853987670849" lon="9.388553106819165"><ele>328.0</ele><time>2026-04-26T07:54:10Z</time></trkpt><trkpt lat="45.81850978505038" lon="9.388911197463864"><ele>324.0</ele><time>2026-04-26T07:54:11Z</time></trkpt><trkpt lat="45.81847617544195" lon="9.389243441222735"><ele>320.0</ele><time>2026-04-26T07:54:12Z</time></trkpt><trkpt lat="45.81844977219567" lon="9.389518801332446"><ele>316.0</ele><time>2026-04-26T07:54:13Z</time></trkpt><trkpt lat="45.81842144572362" lon="9.389707218352347"><ele>316.75</ele><time>2026-04-26T07:54:14Z</time></trkpt><trkpt lat="45.818411878333535" lon="9.389875922015458"><ele>317.5</ele><time>2026-04-26T07:54:15Z</time></trkpt><trkpt lat="45.81841776607334" lon="9.390032156853925"><ele>318.25</ele><time>2026-04-26T07:54:16Z</time></trkpt><trkpt lat="45.81849766708193" lon="9.390182746843251"><ele>319.0</ele><time>2026-04-26T07:54:17Z</time></trkpt><trkpt lat="45.81861555597785" lon="9.390357006700711"><ele>315.0</ele><time>2026-04-26T07:54:18Z</time></trkpt><trkpt lat="45.81876321682919" lon="9.390594133785005"><ele>311.0</ele><time>2026-04-26T07:54:19Z</time></trkpt><trkpt lat="45.818931659039116" lon="9.390841341141334"><ele>311.0</ele><time>2026-04-26T07:54:20Z</time></trkpt><trkpt lat="45.81909636537901" lon="9.391117882911118"><ele>311.0</ele><time>2026-04-26T07:54:21Z</time></trkpt><trkpt lat="45.819236144019065" lon="9.391365778929282"><ele>317.33333333333337</ele><time>2026-04-26T07:54:22Z</time></trkpt><trkpt lat="45.819356040880024" lon="9.391565554411343"><ele>323.6666666666667</ele><time>2026-04-26T07:54:23Z</time></trkpt><trkpt lat="45.81946145585077" lon="9.391756798369874"><ele>330.0</ele><time>2026-04-26T07:54:24Z</time></trkpt><trkpt lat="45.81948265865595" lon="9.391989693349514"><ele>324.3333333333333</ele><time>2026-04-26T07:54:25Z</time></trkpt><trkpt lat="45.81952586363508" lon="9.392242609816416"><ele>318.66666666666663</ele><time>2026-04-26T07:54:26Z</time></trkpt><trkpt lat="45.819570246371526" lon="9.39249472185088"><ele>313.0</ele><time>2026-04-26T07:54:27Z</time></trkpt><trkpt lat="45.8196452917439" lon="9.392770329326478"><ele>303.3333333333333</ele><time>2026-04-26T07:54:28Z</time></trkpt><trkpt lat="45.819738912330244" lon="9.393008155350147"><ele>293.6666666666667</ele><time>2026-04-26T07:54:29Z</time></trkpt><trkpt lat="45.81982089986399" lon="9.39319768407312"><ele>284.0</ele><time>2026-04-26T07:54:30Z</time></trkpt><trkpt lat="45.81989536550448" lon="9.393319410179888"><ele>284.0</ele><time>2026-04-26T07:54:31Z</time></trkpt><trkpt lat="45.82002229772754" lon="9.393355788431236"><ele>284.0</ele><time>2026-04-26T07:54:32Z</time></trkpt><trkpt lat="45.820145982026496" lon="9.393371424931594"><ele>284.0</ele><time>2026-04-26T07:54:33Z</time></trkpt><trkpt lat="45.82029239132618" lon="9.393294848019691"><ele>284.0</ele><time>2026-04-26T07:54:34Z</time></trkpt><trkpt lat="45.82047050027795" lon="9.393171002954508"><ele>281.0</ele><time>2026-04-26T07:54:35Z</time></trkpt><trkpt lat="45.82068678146364" lon="9.393041755384154"><ele>278.0</ele><time>2026-04-26T07:54:36Z</time></trkpt><trkpt lat="45.820887479569464" lon="9.392930074649001"><ele>288.6666666666667</ele><time>2026-04-26T07:54:37Z</time></trkpt><trkpt lat="45.82105309068583" lon="9.39288175972558"><ele>299.3333333333333</ele><time>2026-04-26T07:54:38Z</time></trkpt><trkpt lat="45.821227122962085" lon="9.39290202432736"><ele>310.0</ele><time>2026-04-26T07:54:39Z</time></trkpt><trkpt lat="45.82140406998799" lon="9.39294489336942"><ele>310.0</ele><time>2026-04-26T07:54:40Z</time></trkpt><trkpt lat="45.82162434870094" lon="9.392986126677455"><ele>310.0</ele><time>2026-04-26T07:54:41Z</time></trkpt><trkpt lat="45.821822163956845" lon="9.392979314054926"><ele>310.0</ele><time>2026-04-26T07:54:42Z</time></trkpt><trkpt lat="45.82203120570746" lon="9.39297847599157"><ele>304.0</ele><time>2026-04-26T07:54:43Z</time></trkpt><trkpt lat="45.82227042232683" lon="9.392934221119342"><ele>298.0</ele><time>2026-04-26T07:54:44Z</time></trkpt><trkpt lat="45.82253870138568" lon="9.392813676141241"><ele>288.0</ele><time>2026-04-26T07:54:45Z</time></trkpt><trkpt lat="45.822859615328184" lon="9.392807044544151"><ele>278.0</ele><time>2026-04-26T07:54:46Z</time></trkpt><trkpt lat="45.823181499839635" lon="9.392746069335635"><ele>278.0</ele><time>2026-04-26T07:54:47Z</time></trkpt><trkpt lat="45.823462347798525" lon="9.39270910750059"><ele>278.0</ele><time>2026-04-26T07:54:48Z</time></trkpt><trkpt lat="45.82375387662678" lon="9.392705557789693"><ele>274.5</ele><time>2026-04-26T07:54:49Z</time></trkpt><trkpt lat="45.82401594834812" lon="9.392652634949252"><ele>271.0</ele><time>2026-04-26T07:54:50Z</time></trkpt><trkpt lat="45.82426837812325" lon="9.39261268037636"><ele>266.0</ele><time>2026-04-26T07:54:51Z</time></trkpt><trkpt lat="45.82452431504151" lon="9.392576866661427"><ele>261.0</ele><time>2026-04-26T07:54:52Z</time></trkpt><trkpt lat="45.824780166051724" lon="9.392535106972664"><ele>261.0</ele><time>2026-04-26T07:54:53Z</time></trkpt><trkpt lat="45.82503045199698" lon="9.392502098206053"><ele>261.0</ele><time>2026-04-26T07:54:54Z</time></trkpt><trkpt lat="45.82527998418638" lon="9.392461641478139"><ele>257.0</ele><time>2026-04-26T07:54:55Z</time></trkpt><trkpt lat="45.825532716340945" lon="9.39241557018652"><ele>253.0</ele><time>2026-04-26T07:54:56Z</time></trkpt><trkpt lat="45.825783128819005" lon="9.392460772253065"><ele>252.0</ele><time>2026-04-26T07:54:57Z</time></trkpt><trkpt lat="45.82603757217249" lon="9.392496406568112"><ele>251.0</ele><time>2026-04-26T07:54:58Z</time></trkpt><trkpt lat="45.82627797281956" lon="9.392532544999483"><ele>251.0</ele><time>2026-04-26T07:54:59Z</time></trkpt><trkpt lat="45.82650312931636" lon="9.392545726401597"><ele>251.0</ele><time>2026-04-26T07:55:00Z</time></trkpt><trkpt lat="45.82671603067577" lon="9.39258346431797"><ele>251.0</ele><time>2026-04-26T07:55:01Z</time></trkpt><trkpt lat="45.82691220376555" lon="9.392620190853078"><ele>252.0</ele><time>2026-04-26T07:55:02Z</time></trkpt><trkpt lat="45.82708415325931" lon="9.392650969576023"><ele>253.0</ele><time>2026-04-26T07:55:03Z</time></trkpt><trkpt lat="45.8272361078271" lon="9.392667278493917"><ele>254.0</ele><time>2026-04-26T07:55:04Z</time></trkpt><trkpt lat="45.82736367044193" lon="9.392730143301495"><ele>254.0</ele><time>2026-04-26T07:55:05Z</time></trkpt><trkpt lat="45.82744640323131" lon="9.392852969199948"><ele>253.99999999999997</ele><time>2026-04-26T07:55:06Z</time></trkpt><trkpt lat="45.82750839463493" lon="9.392979340307216"><ele>253.99999999999997</ele><time>2026-04-26T07:55:07Z</time></trkpt><trkpt lat="45.827577181759516" lon="9.393115483536992"><ele>254.0</ele><time>2026-04-26T07:55:08Z</time></trkpt><trkpt lat="45.827636211741655" lon="9.393221629067572"><ele>254.0</ele><time>2026-04-26T07:55:09Z</time></trkpt><trkpt lat="45.82773453615811" lon="9.393300458607015"><ele>249.33333333333334</ele><time>2026-04-26T07:55:10Z</time></trkpt><trkpt lat="45.82785563260901" lon="9.39332345454988"><ele>244.66666666666669</ele><time>2026-04-26T07:55:11Z</time></trkpt><trkpt lat="45.82801253533726" lon="9.393341294535759"><ele>240.0</ele><time>2026-04-26T07:55:12Z</time></trkpt><trkpt lat="45.8282164343373" lon="9.393334363858216"><ele>240.0</ele><time>2026-04-26T07:55:13Z</time></trkpt><trkpt lat="45.82842375847447" lon="9.393326307321168"><ele>240.0</ele><time>2026-04-26T07:55:14Z</time></trkpt><trkpt lat="45.82861406210315" lon="9.39336354575085"><ele>240.0</ele><time>2026-04-26T07:55:15Z</time></trkpt><trkpt lat="45.82882315108364" lon="9.393466468957152"><ele>243.5</ele><time>2026-04-26T07:55:16Z</time></trkpt><trkpt lat="45.82903116534011" lon="9.393574791081475"><ele>247.0</ele><time>2026-04-26T07:55:17Z</time></trkpt><trkpt lat="45.8292568435661" lon="9.39369231160266"><ele>246.0</ele><time>2026-04-26T07:55:18Z</time></trkpt><trkpt lat="45.829469293978676" lon="9.3938004387835"><ele>245.0</ele><time>2026-04-26T07:55:19Z</time></trkpt><trkpt lat="45.829696283457935" lon="9.393844603989503"><ele>238.0</ele><time>2026-04-26T07:55:20Z</time></trkpt><trkpt lat="45.82991092917343" lon="9.393932439240494"><ele>231.0</ele><time>2026-04-26T07:55:21Z</time></trkpt><trkpt lat="45.83012447820435" lon="9.394010432120087"><ele>224.0</ele><time>2026-04-26T07:55:22Z</time></trkpt><trkpt lat="45.83033218056061" lon="9.394070661744607"><ele>222.0</ele><time>2026-04-26T07:55:23Z</time></trkpt><trkpt lat="45.8305339676697" lon="9.3941329563505"><ele>220.0</ele><time>2026-04-26T07:55:24Z</time></trkpt><trkpt lat="45.83072332478405" lon="9.394185079918373"><ele>218.0</ele><time>2026-04-26T07:55:25Z</time></trkpt><trkpt lat="45.83093124994569" lon="9.394247309749268"><ele>218.5</ele><time>2026-04-26T07:55:26Z</time></trkpt><trkpt lat="45.83116496650894" lon="9.394314521088642"><ele>219.0</ele><time>2026-04-26T07:55:27Z</time></trkpt><trkpt lat="45.83138897109435" lon="9.394400550781056"><ele>219.0</ele><time>2026-04-26T07:55:28Z</time></trkpt><trkpt lat="45.83156237774865" lon="9.394476331350656"><ele>219.0</ele><time>2026-04-26T07:55:29Z</time></trkpt><trkpt lat="45.831751959419464" lon="9.394539449052212"><ele>219.0</ele><time>2026-04-26T07:55:30Z</time></trkpt><trkpt lat="45.83192308221982" lon="9.394587308877185"><ele>217.0</ele><time>2026-04-26T07:55:31Z</time></trkpt><trkpt lat="45.832077868059365" lon="9.39458915340338"><ele>215.0</ele><time>2026-04-26T07:55:32Z</time></trkpt><trkpt lat="45.832221561230575" lon="9.394532739020834"><ele>213.0</ele><time>2026-04-26T07:55:33Z</time></trkpt><trkpt lat="45.832369079720166" lon="9.394414944421797"><ele>213.0</ele><time>2026-04-26T07:55:34Z</time></trkpt><trkpt lat="45.832517771550705" lon="9.394231085778731"><ele>213.0</ele><time>2026-04-26T07:55:35Z</time></trkpt><trkpt lat="45.832696745422346" lon="9.394023618208772"><ele>213.0</ele><time>2026-04-26T07:55:36Z</time></trkpt><trkpt lat="45.832865316945735" lon="9.393851016066591"><ele>212.75</ele><time>2026-04-26T07:55:37Z</time></trkpt><trkpt lat="45.83299313850404" lon="9.393760934918703"><ele>212.5</ele><time>2026-04-26T07:55:38Z</time></trkpt><trkpt lat="45.83310893249613" lon="9.393711220045114"><ele>212.25</ele><time>2026-04-26T07:55:39Z</time></trkpt><trkpt lat="45.83326424140709" lon="9.393701525757528"><ele>212.0</ele><time>2026-04-26T07:55:40Z</time></trkpt><trkpt lat="45.8334113080697" lon="9.39373477202041"><ele>211.66666666666669</ele><time>2026-04-26T07:55:41Z</time></trkpt><trkpt lat="45.833509687302474" lon="9.393770917867176"><ele>211.33333333333334</ele><time>2026-04-26T07:55:42Z</time></trkpt><trkpt lat="45.83359357335348" lon="9.393831398460309"><ele>211.0</ele><time>2026-04-26T07:55:44Z</time></trkpt><trkpt lat="45.83364363620148" lon="9.393913557026195"><ele>210.66666666666669</ele><time>2026-04-26T07:55:48Z</time></trkpt><trkpt lat="45.833682546174565" lon="9.393992186778764"><ele>210.33333333333334</ele><time>2026-04-26T07:55:49Z</time></trkpt><trkpt lat="45.833728651143" lon="9.394072791018399"><ele>210.0</ele><time>2026-04-26T07:55:50Z</time></trkpt><trkpt lat="45.83379136776675" lon="9.394061012135237"><ele>210.0</ele><time>2026-04-26T07:55:51Z</time></trkpt><trkpt lat="45.8338656835278" lon="9.394000908045196"><ele>210.0</ele><time>2026-04-26T07:55:52Z</time></trkpt><trkpt lat="45.83396477640286" lon="9.393926014814795"><ele>210.0</ele><time>2026-04-26T07:55:53Z</time></trkpt><trkpt lat="45.834079354651315" lon="9.393877740544271"><ele>210.0</ele><time>2026-04-26T07:55:54Z</time></trkpt><trkpt lat="45.83419779357526" lon="9.393847044151908"><ele>210.0</ele><time>2026-04-26T07:55:55Z</time></trkpt><trkpt lat="45.83433369095293" lon="9.393818773787494"><ele>210.0</ele><time>2026-04-26T07:55:56Z</time></trkpt><trkpt lat="45.834537894228" lon="9.393781455734244"><ele>210.0</ele><time>2026-04-26T07:55:57Z</time></trkpt><trkpt lat="45.83471993311404" lon="9.393757306290492"><ele>210.0</ele><time>2026-04-26T07:55:58Z</time></trkpt><trkpt lat="45.83486444761315" lon="9.393747804813332"><ele>210.0</ele><time>2026-04-26T07:55:59Z</time></trkpt><trkpt lat="45.834968438497405" lon="9.393735666813658"><ele>210.0</ele><time>2026-04-26T07:56:00Z</time></trkpt><trkpt lat="45.8350892010888" lon="9.3937299041208"><ele>210.0</ele><time>2026-04-26T07:56:01Z</time></trkpt><trkpt lat="45.835212621384926" lon="9.393722592107977"><ele>210.0</ele><time>2026-04-26T07:56:02Z</time></trkpt><trkpt lat="45.83532956268895" lon="9.393729990226003"><ele>210.25</ele><time>2026-04-26T07:56:03Z</time></trkpt><trkpt lat="45.83545602985904" lon="9.393751897348277"><ele>210.5</ele><time>2026-04-26T07:56:04Z</time></trkpt><trkpt lat="45.83557940119639" lon="9.393796848297475"><ele>210.75</ele><time>2026-04-26T07:56:05Z</time></trkpt><trkpt lat="45.83568088505908" lon="9.393895610942307"><ele>211.0</ele><time>2026-04-26T07:56:06Z</time></trkpt><trkpt lat="45.83576208977204" lon="9.394012709743246"><ele>210.4</ele><time>2026-04-26T07:56:07Z</time></trkpt><trkpt lat="45.83581941602706" lon="9.394125517450515"><ele>209.8</ele><time>2026-04-26T07:56:08Z</time></trkpt><trkpt lat="45.83590533973708" lon="9.394192630339939"><ele>209.20000000000002</ele><time>2026-04-26T07:56:09Z</time></trkpt><trkpt lat="45.8360000909476" lon="9.394174135717988"><ele>208.60000000000002</ele><time>2026-04-26T07:56:10Z</time></trkpt><trkpt lat="45.83610349811024" lon="9.394143815185386"><ele>208.0</ele><time>2026-04-26T07:56:11Z</time></trkpt><trkpt lat="45.83619165932176" lon="9.394166248723504"><ele>208.0</ele><time>2026-04-26T07:56:12Z</time></trkpt><trkpt lat="45.83627920890333" lon="9.394255133155534"><ele>208.0</ele><time>2026-04-26T07:56:13Z</time></trkpt><trkpt lat="45.83638390346484" lon="9.394382752552447"><ele>208.0</ele><time>2026-04-26T07:56:14Z</time></trkpt><trkpt lat="45.83652372598685" lon="9.394542666062868"><ele>208.0</ele><time>2026-04-26T07:56:15Z</time></trkpt><trkpt lat="45.836660582081684" lon="9.394699918451993"><ele>207.75</ele><time>2026-04-26T07:56:16Z</time></trkpt><trkpt lat="45.83678334725965" lon="9.39483769822261"><ele>207.5</ele><time>2026-04-26T07:56:17Z</time></trkpt><trkpt lat="45.83689751575649" lon="9.394952315243714"><ele>207.25</ele><time>2026-04-26T07:56:18Z</time></trkpt><trkpt lat="45.83700701380356" lon="9.395048437287015"><ele>207.0</ele><time>2026-04-26T07:56:19Z</time></trkpt><trkpt lat="45.83709721037166" lon="9.395135272181548"><ele>207.0</ele><time>2026-04-26T07:56:20Z</time></trkpt><trkpt lat="45.83719436579465" lon="9.395204098417175"><ele>207.0</ele><time>2026-04-26T07:56:21Z</time></trkpt><trkpt lat="45.8372986888557" lon="9.395267116005929"><ele>207.0</ele><time>2026-04-26T07:56:22Z</time></trkpt><trkpt lat="45.837390556645225" lon="9.395293678147587"><ele>207.0</ele><time>2026-04-26T07:56:23Z</time></trkpt><trkpt lat="45.837486865750016" lon="9.395327588223413"><ele>207.0</ele><time>2026-04-26T07:56:24Z</time></trkpt><trkpt lat="45.83760189807283" lon="9.395341733968852"><ele>207.33333333333331</ele><time>2026-04-26T07:56:25Z</time></trkpt><trkpt lat="45.83774697876642" lon="9.395361011740844"><ele>207.66666666666666</ele><time>2026-04-26T07:56:26Z</time></trkpt><trkpt lat="45.83791791994281" lon="9.395355254067995"><ele>208.0</ele><time>2026-04-26T07:56:27Z</time></trkpt><trkpt lat="45.83808795578603" lon="9.395325239011923"><ele>208.0</ele><time>2026-04-26T07:56:28Z</time></trkpt><trkpt lat="45.83825601074552" lon="9.395336844552611"><ele>208.0</ele><time>2026-04-26T07:56:29Z</time></trkpt><trkpt lat="45.838392281211775" lon="9.395345266859565"><ele>208.0</ele><time>2026-04-26T07:56:30Z</time></trkpt><trkpt lat="45.83851391617557" lon="9.395347234191822"><ele>208.0</ele><time>2026-04-26T07:56:31Z</time></trkpt><trkpt lat="45.83862572405147" lon="9.395333463665933"><ele>207.60000000000002</ele><time>2026-04-26T07:56:32Z</time></trkpt><trkpt lat="45.83874049056476" lon="9.395315924152673"><ele>207.20000000000002</ele><time>2026-04-26T07:56:33Z</time></trkpt><trkpt lat="45.83882795577335" lon="9.395299222379107"><ele>206.8</ele><time>2026-04-26T07:56:34Z</time></trkpt><trkpt lat="45.838902576259876" lon="9.395286533822635"><ele>206.4</ele><time>2026-04-26T07:56:35Z</time></trkpt><trkpt lat="45.839004526205834" lon="9.395285460375042"><ele>206.0</ele><time>2026-04-26T07:56:36Z</time></trkpt><trkpt lat="45.83912805508188" lon="9.395272933019804"><ele>206.0</ele><time>2026-04-26T07:56:37Z</time></trkpt><trkpt lat="45.83927646250462" lon="9.395262631477731"><ele>206.0</ele><time>2026-04-26T07:56:38Z</time></trkpt><trkpt lat="45.83944908515349" lon="9.395292355557816"><ele>206.0</ele><time>2026-04-26T07:56:39Z</time></trkpt><trkpt lat="45.83961054430887" lon="9.395252996906885"><ele>205.66666666666669</ele><time>2026-04-26T07:56:40Z</time></trkpt><trkpt lat="45.83975969370701" lon="9.395259011424312"><ele>205.33333333333331</ele><time>2026-04-26T07:56:41Z</time></trkpt><trkpt lat="45.83991189758609" lon="9.395256498230584"><ele>205.0</ele><time>2026-04-26T07:56:42Z</time></trkpt><trkpt lat="45.84006581795509" lon="9.395247172222284"><ele>205.0</ele><time>2026-04-26T07:56:43Z</time></trkpt><trkpt lat="45.840216793342115" lon="9.395249022957945"><ele>205.0</ele><time>2026-04-26T07:56:44Z</time></trkpt><trkpt lat="45.84036981707728" lon="9.395293842406055"><ele>205.0</ele><time>2026-04-26T07:56:45Z</time></trkpt><trkpt lat="45.84051082322232" lon="9.395324483625545"><ele>205.0</ele><time>2026-04-26T07:56:46Z</time></trkpt><trkpt lat="45.840632196204496" lon="9.395361606384274"><ele>205.0</ele><time>2026-04-26T07:56:47Z</time></trkpt><trkpt lat="45.84072908261047" lon="9.395407799027636"><ele>205.0</ele><time>2026-04-26T07:56:48Z</time></trkpt><trkpt lat="45.84082844743795" lon="9.395436890525788"><ele>205.0</ele><time>2026-04-26T07:56:49Z</time></trkpt><trkpt lat="45.84089737430173" lon="9.395482883687748"><ele>205.0</ele><time>2026-04-26T07:56:50Z</time></trkpt><trkpt lat="45.84095991106281" lon="9.395523229797002"><ele>205.8</ele><time>2026-04-26T07:56:51Z</time></trkpt><trkpt lat="45.84104457949502" lon="9.395581776995295"><ele>206.6</ele><time>2026-04-26T07:56:52Z</time></trkpt><trkpt lat="45.84114656881708" lon="9.395663461398476"><ele>207.39999999999998</ele><time>2026-04-26T07:56:53Z</time></trkpt><trkpt lat="45.84125322390113" lon="9.395751087142308"><ele>208.2</ele><time>2026-04-26T07:56:54Z</time></trkpt><trkpt lat="45.84134996241075" lon="9.395835247339075"><ele>209.0</ele><time>2026-04-26T07:56:55Z</time></trkpt><trkpt lat="45.84144281075164" lon="9.39593455241184"><ele>209.0</ele><time>2026-04-26T07:56:56Z</time></trkpt><trkpt lat="45.84155558796874" lon="9.396033474934882"><ele>209.0</ele><time>2026-04-26T07:56:57Z</time></trkpt><trkpt lat="45.84169196240541" lon="9.396148857360668"><ele>209.0</ele><time>2026-04-26T07:56:58Z</time></trkpt><trkpt lat="45.841872353917886" lon="9.396284559852974"><ele>209.33333333333334</ele><time>2026-04-26T07:56:59Z</time></trkpt><trkpt lat="45.84202519690718" lon="9.396422080944532"><ele>209.66666666666669</ele><time>2026-04-26T07:57:00Z</time></trkpt><trkpt lat="45.84222001882908" lon="9.39656571647766"><ele>210.0</ele><time>2026-04-26T07:57:01Z</time></trkpt><trkpt lat="45.842429700552664" lon="9.396748462905851"><ele>210.0</ele><time>2026-04-26T07:57:02Z</time></trkpt><trkpt lat="45.84261081193354" lon="9.396906668247812"><ele>210.0</ele><time>2026-04-26T07:57:03Z</time></trkpt><trkpt lat="45.84281092729256" lon="9.396977400084406"><ele>210.0</ele><time>2026-04-26T07:57:04Z</time></trkpt><trkpt lat="45.842996999707175" lon="9.397031353591405"><ele>209.33333333333331</ele><time>2026-04-26T07:57:05Z</time></trkpt><trkpt lat="45.84318499786329" lon="9.39698375527602"><ele>208.66666666666666</ele><time>2026-04-26T07:57:06Z</time></trkpt><trkpt lat="45.843360841427156" lon="9.396885847329331"><ele>208.0</ele><time>2026-04-26T07:57:07Z</time></trkpt><trkpt lat="45.84357002736429" lon="9.396728734019757"><ele>211.5</ele><time>2026-04-26T07:57:08Z</time></trkpt><trkpt lat="45.84381323127608" lon="9.396542142970477"><ele>215.0</ele><time>2026-04-26T07:57:09Z</time></trkpt><trkpt lat="45.84408227196907" lon="9.39633011921283"><ele>207.0</ele><time>2026-04-26T07:57:10Z</time></trkpt><trkpt lat="45.844363644385616" lon="9.396108069681503"><ele>199.0</ele><time>2026-04-26T07:57:11Z</time></trkpt><trkpt lat="45.84458315112517" lon="9.39593486166902"><ele>199.0</ele><time>2026-04-26T07:57:12Z</time></trkpt><trkpt lat="45.844808743566645" lon="9.395754715097313"><ele>199.0</ele><time>2026-04-26T07:57:13Z</time></trkpt><trkpt lat="45.8448794688043" lon="9.39539064813933"><ele>199.0</ele><time>2026-04-26T07:57:14Z</time></trkpt><trkpt lat="45.845029420225906" lon="9.39508894830546"><ele>199.0</ele><time>2026-04-26T07:57:15Z</time></trkpt><trkpt lat="45.84530857207078" lon="9.395227483385638"><ele>199.0</ele><time>2026-04-26T07:57:16Z</time></trkpt><trkpt lat="45.84544042274659" lon="9.39499388338585"><ele>199.0</ele><time>2026-04-26T07:57:17Z</time></trkpt><trkpt lat="45.845554866975455" lon="9.394758301258573"><ele>199.0</ele><time>2026-04-26T07:57:18Z</time></trkpt><trkpt lat="45.84565072810695" lon="9.394547020900722"><ele>199.49999999999997</ele><time>2026-04-26T07:57:19Z</time></trkpt><trkpt lat="45.845720429722" lon="9.39440062178367"><ele>200.0</ele><time>2026-04-26T07:57:20Z</time></trkpt><trkpt lat="45.84576969962242" lon="9.39429837587371"><ele>200.5</ele><time>2026-04-26T07:57:21Z</time></trkpt><trkpt lat="45.84584863597728" lon="9.394222230884369"><ele>201.0</ele><time>2026-04-26T07:57:23Z</time></trkpt><trkpt lat="45.845896122733414" lon="9.394154854579941"><ele>201.49999999999997</ele><time>2026-04-26T07:57:25Z</time></trkpt><trkpt lat="45.845940238744376" lon="9.394068571684517"><ele>202.0</ele><time>2026-04-26T07:57:28Z</time></trkpt><trkpt lat="45.845938836640066" lon="9.393973677790736"><ele>201.49999999999997</ele><time>2026-04-26T08:00:33Z</time></trkpt><trkpt lat="45.84598551225813" lon="9.393860973635139"><ele>201.0</ele><time>2026-04-26T08:03:20Z</time></trkpt><trkpt lat="45.846018884207105" lon="9.393767467558657"><ele>200.5</ele><time>2026-04-26T08:03:23Z</time></trkpt><trkpt lat="45.84605072437295" lon="9.39368629061497"><ele>200.0</ele><time>2026-04-26T08:03:29Z</time></trkpt><trkpt lat="45.846118750320905" lon="9.393683652527905"><ele>199.49999999999997</ele><time>2026-04-26T08:03:58Z</time></trkpt><trkpt lat="45.84607669706263" lon="9.393603560714844"><ele>199.0</ele><time>2026-04-26T08:04:13Z</time></trkpt><trkpt lat="45.84614157359407" lon="9.393708146871365"><ele>198.99999999999997</ele><time>2026-04-26T08:04:25Z</time></trkpt><trkpt lat="45.84609763856043" lon="9.393579427488529"><ele>199.0</ele><time>2026-04-26T08:05:53Z</time></trkpt><trkpt lat="45.84614576430501" lon="9.393499419911471"><ele>199.0</ele><time>2026-04-26T08:05:55Z</time></trkpt><trkpt lat="45.84619152056013" lon="9.393372611718776"><ele>199.0</ele><time>2026-04-26T08:05:56Z</time></trkpt><trkpt lat="45.84624119691873" lon="9.39327636598659"><ele>198.99999999999997</ele><time>2026-04-26T08:05:57Z</time></trkpt><trkpt lat="45.84628530124117" lon="9.393186439112776"><ele>199.0</ele><time>2026-04-26T08:05:58Z</time></trkpt><trkpt lat="45.846330370017625" lon="9.39310250224753"><ele>198.99999999999997</ele><time>2026-04-26T08:05:59Z</time></trkpt><trkpt lat="45.84636996256599" lon="9.393009204766404"><ele>199.0</ele><time>2026-04-26T08:06:00Z</time></trkpt><trkpt lat="45.84641448867221" lon="9.392930503496984"><ele>199.0</ele><time>2026-04-26T08:06:01Z</time></trkpt><trkpt lat="45.84645187435653" lon="9.392849433409964"><ele>199.0</ele><time>2026-04-26T08:06:02Z</time></trkpt><trkpt lat="45.84648516758963" lon="9.39275382650526"><ele>198.99999999999997</ele><time>2026-04-26T08:06:03Z</time></trkpt><trkpt lat="45.84655173689112" lon="9.392686371822215"><ele>199.0</ele><time>2026-04-26T08:06:04Z</time></trkpt><trkpt lat="45.84660485269908" lon="9.39258315413577"><ele>199.0</ele><time>2026-04-26T08:06:05Z</time></trkpt><trkpt lat="45.84666801491433" lon="9.392459001047387"><ele>199.0</ele><time>2026-04-26T08:06:06Z</time></trkpt><trkpt lat="45.84673998700294" lon="9.392325061046193"><ele>199.0</ele><time>2026-04-26T08:06:07Z</time></trkpt><trkpt lat="45.84680562095494" lon="9.392213273320449"><ele>199.0</ele><time>2026-04-26T08:06:08Z</time></trkpt><trkpt lat="45.84685112597828" lon="9.392094001122166"><ele>199.0</ele><time>2026-04-26T08:06:09Z</time></trkpt><trkpt lat="45.846904578948525" lon="9.39197941212122"><ele>199.0</ele><time>2026-04-26T08:06:10Z</time></trkpt><trkpt lat="45.84695718427631" lon="9.391846782422466"><ele>199.0</ele><time>2026-04-26T08:06:11Z</time></trkpt><trkpt lat="45.84701448137178" lon="9.391693537307429"><ele>199.0</ele><time>2026-04-26T08:06:12Z</time></trkpt><trkpt lat="45.847077609793566" lon="9.391547995157238"><ele>199.0</ele><time>2026-04-26T08:06:13Z</time></trkpt><trkpt lat="45.847141865905904" lon="9.391403539434304"><ele>199.75</ele><time>2026-04-26T08:06:14Z</time></trkpt><trkpt lat="45.84720288662964" lon="9.391257644420167"><ele>200.5</ele><time>2026-04-26T08:06:15Z</time></trkpt><trkpt lat="45.847267763165384" lon="9.391113209470136"><ele>201.25</ele><time>2026-04-26T08:06:16Z</time></trkpt><trkpt lat="45.8473308789223" lon="9.390970098107639"><ele>202.0</ele><time>2026-04-26T08:06:17Z</time></trkpt><trkpt lat="45.84739387865746" lon="9.390841282837426"><ele>202.0</ele><time>2026-04-26T08:06:18Z</time></trkpt><trkpt lat="45.84745208412343" lon="9.390712070104243"><ele>202.0</ele><time>2026-04-26T08:06:19Z</time></trkpt><trkpt lat="45.84749591120866" lon="9.39058536394886"><ele>202.0</ele><time>2026-04-26T08:06:20Z</time></trkpt><trkpt lat="45.84755439580327" lon="9.39046315317948"><ele>202.0</ele><time>2026-04-26T08:06:21Z</time></trkpt><trkpt lat="45.84760637053287" lon="9.390340475544914"><ele>202.0</ele><time>2026-04-26T08:06:22Z</time></trkpt><trkpt lat="45.847660743056856" lon="9.390225105070614"><ele>201.2</ele><time>2026-04-26T08:06:23Z</time></trkpt><trkpt lat="45.84770258783694" lon="9.390105866305449"><ele>200.39999999999998</ele><time>2026-04-26T08:06:24Z</time></trkpt><trkpt lat="45.847744853300156" lon="9.389971916509477"><ele>199.60000000000002</ele><time>2026-04-26T08:06:25Z</time></trkpt><trkpt lat="45.84778553383177" lon="9.389848317554625"><ele>198.8</ele><time>2026-04-26T08:06:26Z</time></trkpt><trkpt lat="45.8478248923012" lon="9.389718668510081"><ele>198.0</ele><time>2026-04-26T08:06:27Z</time></trkpt><trkpt lat="45.84785352277489" lon="9.389588610844847"><ele>198.0</ele><time>2026-04-26T08:06:28Z</time></trkpt><trkpt lat="45.847881502424784" lon="9.389460205797654"><ele>198.0</ele><time>2026-04-26T08:06:29Z</time></trkpt><trkpt lat="45.84790750274601" lon="9.389336774351579"><ele>198.0</ele><time>2026-04-26T08:06:30Z</time></trkpt><trkpt lat="45.847926936694726" lon="9.389214024112052"><ele>198.0</ele><time>2026-04-26T08:06:31Z</time></trkpt><trkpt lat="45.84794368268853" lon="9.389072607925673"><ele>198.0</ele><time>2026-04-26T08:06:32Z</time></trkpt><trkpt lat="45.84795759583092" lon="9.388940326086544"><ele>198.16666666666666</ele><time>2026-04-26T08:06:33Z</time></trkpt><trkpt lat="45.847965088607715" lon="9.388814805614668"><ele>198.33333333333331</ele><time>2026-04-26T08:06:34Z</time></trkpt><trkpt lat="45.84796730298172" lon="9.388703147177841"><ele>198.5</ele><time>2026-04-26T08:06:35Z</time></trkpt><trkpt lat="45.84797080124903" lon="9.388579457733414"><ele>198.66666666666666</ele><time>2026-04-26T08:06:36Z</time></trkpt><trkpt lat="45.847973493339964" lon="9.388452315784711"><ele>198.83333333333331</ele><time>2026-04-26T08:06:37Z</time></trkpt><trkpt lat="45.84797307321932" lon="9.388328995703334"><ele>199.0</ele><time>2026-04-26T08:06:38Z</time></trkpt><trkpt lat="45.84797306026869" lon="9.388213671892263"><ele>198.99999999999997</ele><time>2026-04-26T08:06:39Z</time></trkpt><trkpt lat="45.847963852574345" lon="9.388103356290207"><ele>199.0</ele><time>2026-04-26T08:06:40Z</time></trkpt><trkpt lat="45.84795869451385" lon="9.388007652033862"><ele>199.0</ele><time>2026-04-26T08:06:41Z</time></trkpt><trkpt lat="45.84800529417546" lon="9.387845748908706"><ele>199.0</ele><time>2026-04-26T08:06:43Z</time></trkpt><trkpt lat="45.84795543910678" lon="9.387774707809664"><ele>198.99999999999997</ele><time>2026-04-26T08:06:44Z</time></trkpt><trkpt lat="45.847983591699325" lon="9.387643459295893"><ele>199.0</ele><time>2026-04-26T08:06:47Z</time></trkpt><trkpt lat="45.84802147320757" lon="9.387529214924562"><ele>199.16666666666666</ele><time>2026-04-26T08:06:50Z</time></trkpt><trkpt lat="45.84806305141964" lon="9.387460311615982"><ele>199.33333333333331</ele><time>2026-04-26T08:06:53Z</time></trkpt><trkpt lat="45.8481187388029" lon="9.387402176785065"><ele>199.5</ele><time>2026-04-26T08:06:55Z</time></trkpt><trkpt lat="45.84819224141797" lon="9.387367052771431"><ele>199.66666666666669</ele><time>2026-04-26T08:06:57Z</time></trkpt><trkpt lat="45.84826670070117" lon="9.387364763610092"><ele>199.83333333333334</ele><time>2026-04-26T08:07:00Z</time></trkpt><trkpt lat="45.84835463137607" lon="9.387383776241467"><ele>200.0</ele><time>2026-04-26T08:07:09Z</time></trkpt><trkpt lat="45.84843824832098" lon="9.387411478412208"><ele>199.6</ele><time>2026-04-26T08:07:11Z</time></trkpt><trkpt lat="45.84851333488162" lon="9.387438207135816"><ele>199.2</ele><time>2026-04-26T08:07:13Z</time></trkpt><trkpt lat="45.84861173444095" lon="9.387474286277968"><ele>198.8</ele><time>2026-04-26T08:07:16Z</time></trkpt><trkpt lat="45.84870607456882" lon="9.387509843659933"><ele>198.4</ele><time>2026-04-26T08:07:18Z</time></trkpt><trkpt lat="45.848801744726615" lon="9.387546737283722"><ele>198.0</ele><time>2026-04-26T08:07:20Z</time></trkpt><trkpt lat="45.84889627433397" lon="9.387586349313931"><ele>198.0</ele><time>2026-04-26T08:07:22Z</time></trkpt><trkpt lat="45.8490110483961" lon="9.38762769603447"><ele>198.0</ele><time>2026-04-26T08:07:24Z</time></trkpt><trkpt lat="45.84912289372104" lon="9.387676203531583"><ele>198.0</ele><time>2026-04-26T08:07:26Z</time></trkpt><trkpt lat="45.849230959996326" lon="9.387718940430174"><ele>198.0</ele><time>2026-04-26T08:07:28Z</time></trkpt><trkpt lat="45.849341967247234" lon="9.387758496034511"><ele>198.2</ele><time>2026-04-26T08:07:30Z</time></trkpt><trkpt lat="45.849457647995614" lon="9.3878040899929"><ele>198.4</ele><time>2026-04-26T08:07:32Z</time></trkpt><trkpt lat="45.84954981094531" lon="9.387846521607898"><ele>198.6</ele><time>2026-04-26T08:07:34Z</time></trkpt><trkpt lat="45.84964294214024" lon="9.387901918302008"><ele>198.79999999999998</ele><time>2026-04-26T08:07:36Z</time></trkpt><trkpt lat="45.849749842617406" lon="9.387993899033196"><ele>199.0</ele><time>2026-04-26T08:07:38Z</time></trkpt><trkpt lat="45.84981318002598" lon="9.388031519252511"><ele>199.83333333333331</ele><time>2026-04-26T08:07:39Z</time></trkpt><trkpt lat="45.84988547009521" lon="9.388042258173616"><ele>200.66666666666666</ele><time>2026-04-26T08:07:40Z</time></trkpt><trkpt lat="45.849962857075674" lon="9.388037234941313"><ele>201.5</ele><time>2026-04-26T08:07:41Z</time></trkpt><trkpt lat="45.85005225713987" lon="9.388045090226004"><ele>202.33333333333331</ele><time>2026-04-26T08:07:42Z</time></trkpt><trkpt lat="45.85014442587062" lon="9.388049706016764"><ele>203.16666666666666</ele><time>2026-04-26T08:07:43Z</time></trkpt><trkpt lat="45.85022567481761" lon="9.388101143263414"><ele>204.0</ele><time>2026-04-26T08:07:44Z</time></trkpt><trkpt lat="45.85030874773359" lon="9.388135211629312"><ele>204.33333333333334</ele><time>2026-04-26T08:07:45Z</time></trkpt><trkpt lat="45.85039738570678" lon="9.38817106229834"><ele>204.66666666666669</ele><time>2026-04-26T08:07:46Z</time></trkpt><trkpt lat="45.85048951542362" lon="9.38820967388392"><ele>205.0</ele><time>2026-04-26T08:07:47Z</time></trkpt><trkpt lat="45.85055039811118" lon="9.388233114973756"><ele>205.33333333333334</ele><time>2026-04-26T08:07:48Z</time></trkpt><trkpt lat="45.850631668688706" lon="9.38824850681853"><ele>205.66666666666669</ele><time>2026-04-26T08:07:49Z</time></trkpt><trkpt lat="45.850707864335575" lon="9.388293742704919"><ele>206.0</ele><time>2026-04-26T08:07:50Z</time></trkpt><trkpt lat="45.85079870924362" lon="9.388310107483914"><ele>206.0</ele><time>2026-04-26T08:07:51Z</time></trkpt><trkpt lat="45.85088501687636" lon="9.388360999283108"><ele>206.0</ele><time>2026-04-26T08:07:52Z</time></trkpt><trkpt lat="45.85096800629284" lon="9.388392563628937"><ele>206.0</ele><time>2026-04-26T08:07:53Z</time></trkpt><trkpt lat="45.851077876930354" lon="9.388434352028638"><ele>206.0</ele><time>2026-04-26T08:07:54Z</time></trkpt><trkpt lat="45.851185451684486" lon="9.38847526721596"><ele>206.0</ele><time>2026-04-26T08:07:55Z</time></trkpt><trkpt lat="45.85130825038933" lon="9.388522076412034"><ele>206.0</ele><time>2026-04-26T08:07:56Z</time></trkpt><trkpt lat="45.85141061682348" lon="9.388561102344001"><ele>206.0</ele><time>2026-04-26T08:07:57Z</time></trkpt><trkpt lat="45.851512270553485" lon="9.388599844123704"><ele>206.0</ele><time>2026-04-26T08:07:58Z</time></trkpt><trkpt lat="45.85162201839023" lon="9.38865268565203"><ele>206.0</ele><time>2026-04-26T08:07:59Z</time></trkpt><trkpt lat="45.85173224423262" lon="9.388728416320692"><ele>206.0</ele><time>2026-04-26T08:08:00Z</time></trkpt><trkpt lat="45.851830809823895" lon="9.388777473912574"><ele>206.16666666666669</ele><time>2026-04-26T08:08:01Z</time></trkpt><trkpt lat="45.85190050316886" lon="9.388799568463797"><ele>206.33333333333334</ele><time>2026-04-26T08:08:02Z</time></trkpt><trkpt lat="45.8519893720028" lon="9.388835633886334"><ele>206.5</ele><time>2026-04-26T08:08:04Z</time></trkpt><trkpt lat="45.852059843911796" lon="9.388864938526048"><ele>206.66666666666669</ele><time>2026-04-26T08:08:06Z</time></trkpt><trkpt lat="45.85215037729923" lon="9.388878784819491"><ele>206.83333333333334</ele><time>2026-04-26T08:08:08Z</time></trkpt><trkpt lat="45.85224885204871" lon="9.388910003798138"><ele>207.0</ele><time>2026-04-26T08:08:10Z</time></trkpt><trkpt lat="45.85237946960374" lon="9.388941053946024"><ele>207.0</ele><time>2026-04-26T08:08:13Z</time></trkpt><trkpt lat="45.85243687029557" lon="9.388993923223664"><ele>207.0</ele><time>2026-04-26T08:08:15Z</time></trkpt><trkpt lat="45.85251464387466" lon="9.388931960980122"><ele>207.0</ele><time>2026-04-26T08:08:17Z</time></trkpt><trkpt lat="45.852550080891646" lon="9.388842579791985"><ele>207.0</ele><time>2026-04-26T08:08:18Z</time></trkpt><trkpt lat="45.85250362865045" lon="9.388709964666857"><ele>207.0</ele><time>2026-04-26T08:08:19Z</time></trkpt><trkpt lat="45.852523402085865" lon="9.388591653153174"><ele>207.0</ele><time>2026-04-26T08:08:20Z</time></trkpt><trkpt lat="45.852541846167604" lon="9.38845465674544"><ele>207.0</ele><time>2026-04-26T08:08:21Z</time></trkpt><trkpt lat="45.85256404191022" lon="9.388324422741212"><ele>207.0</ele><time>2026-04-26T08:08:22Z</time></trkpt><trkpt lat="45.85258540132849" lon="9.388219554049844"><ele>207.0</ele><time>2026-04-26T08:08:23Z</time></trkpt><trkpt lat="45.85261829459777" lon="9.388120196769595"><ele>207.0</ele><time>2026-04-26T08:08:24Z</time></trkpt><trkpt lat="45.852659266718035" lon="9.388030999274015"><ele>207.0</ele><time>2026-04-26T08:08:25Z</time></trkpt><trkpt lat="45.85275164643684" lon="9.387975966412471"><ele>207.0</ele><time>2026-04-26T08:08:27Z</time></trkpt><trkpt lat="45.85290801680862" lon="9.388024521223532"><ele>206.75</ele><time>2026-04-26T08:08:29Z</time></trkpt><trkpt lat="45.8530188762929" lon="9.388077739482279"><ele>206.5</ele><time>2026-04-26T08:08:30Z</time></trkpt><trkpt lat="45.85311872994888" lon="9.388132888905021"><ele>206.25</ele><time>2026-04-26T08:08:31Z</time></trkpt><trkpt lat="45.85322039692018" lon="9.388208855374753"><ele>206.0</ele><time>2026-04-26T08:08:32Z</time></trkpt><trkpt lat="45.85332256620688" lon="9.388292129978845"><ele>206.0</ele><time>2026-04-26T08:08:33Z</time></trkpt><trkpt lat="45.853446868766" lon="9.388392612862019"><ele>206.0</ele><time>2026-04-26T08:08:34Z</time></trkpt><trkpt lat="45.85358389542558" lon="9.388501555308165"><ele>206.0</ele><time>2026-04-26T08:08:35Z</time></trkpt><trkpt lat="45.85369756267167" lon="9.388591925980103"><ele>206.0</ele><time>2026-04-26T08:08:36Z</time></trkpt><trkpt lat="45.853816505092944" lon="9.388687495567584"><ele>206.75</ele><time>2026-04-26T08:08:37Z</time></trkpt><trkpt lat="45.85394659952553" lon="9.388792670235999"><ele>207.5</ele><time>2026-04-26T08:08:38Z</time></trkpt><trkpt lat="45.85407057895831" lon="9.38884836180041"><ele>208.25</ele><time>2026-04-26T08:08:39Z</time></trkpt><trkpt lat="45.85417054823849" lon="9.38894126354966"><ele>209.0</ele><time>2026-04-26T08:08:40Z</time></trkpt><trkpt lat="45.854269256311994" lon="9.38899727322291"><ele>208.33333333333334</ele><time>2026-04-26T08:08:41Z</time></trkpt><trkpt lat="45.85436343886946" lon="9.389042923840707"><ele>207.66666666666669</ele><time>2026-04-26T08:08:42Z</time></trkpt><trkpt lat="45.8544238636893" lon="9.389072528428164"><ele>207.0</ele><time>2026-04-26T08:08:43Z</time></trkpt><trkpt lat="45.85447898132801" lon="9.389126357336982"><ele>206.33333333333331</ele><time>2026-04-26T08:08:44Z</time></trkpt><trkpt lat="45.85458949483197" lon="9.389184021126722"><ele>205.66666666666666</ele><time>2026-04-26T08:08:46Z</time></trkpt><trkpt lat="45.854676999101464" lon="9.389214355667463"><ele>205.0</ele><time>2026-04-26T08:08:48Z</time></trkpt><trkpt lat="45.854746592051484" lon="9.389229160464312"><ele>204.99999999999997</ele><time>2026-04-26T08:08:51Z</time></trkpt><trkpt lat="45.8548199735395" lon="9.389238561125342"><ele>205.0</ele><time>2026-04-26T08:08:52Z</time></trkpt><trkpt lat="45.85489696880514" lon="9.389241682318842"><ele>205.0</ele><time>2026-04-26T08:08:53Z</time></trkpt><trkpt lat="45.85498281292185" lon="9.389236218254066"><ele>205.0</ele><time>2026-04-26T08:08:54Z</time></trkpt><trkpt lat="45.85505787757127" lon="9.3892209806079"><ele>204.99999999999997</ele><time>2026-04-26T08:08:55Z</time></trkpt><trkpt lat="45.85512497167433" lon="9.389179334351427"><ele>205.0</ele><time>2026-04-26T08:08:56Z</time></trkpt><trkpt lat="45.855192798467435" lon="9.38916926427454"><ele>204.99999999999997</ele><time>2026-04-26T08:08:57Z</time></trkpt><trkpt lat="45.85525725929262" lon="9.389133876303978"><ele>205.0</ele><time>2026-04-26T08:08:58Z</time></trkpt><trkpt lat="45.85536563556312" lon="9.38907535208304"><ele>205.0</ele><time>2026-04-26T08:09:00Z</time></trkpt><trkpt lat="45.855428686021604" lon="9.389039747532996"><ele>205.0</ele><time>2026-04-26T08:09:01Z</time></trkpt><trkpt lat="45.8554853645163" lon="9.388970463729281"><ele>204.99999999999997</ele><time>2026-04-26T08:09:02Z</time></trkpt><trkpt lat="45.85552484544853" lon="9.388892835529834"><ele>205.0</ele><time>2026-04-26T08:09:03Z</time></trkpt><trkpt lat="45.8555788949174" lon="9.38883436336222"><ele>204.0</ele><time>2026-04-26T08:09:04Z</time></trkpt><trkpt lat="45.8556686732633" lon="9.388690378012539"><ele>203.0</ele><time>2026-04-26T08:09:06Z</time></trkpt><trkpt lat="45.855715507273814" lon="9.388590069944973"><ele>202.0</ele><time>2026-04-26T08:09:07Z</time></trkpt><trkpt lat="45.855761070440714" lon="9.388484480783506"><ele>201.0</ele><time>2026-04-26T08:09:08Z</time></trkpt><trkpt lat="45.8558100208979" lon="9.388377102275221"><ele>200.0</ele><time>2026-04-26T08:09:09Z</time></trkpt><trkpt lat="45.85583819520505" lon="9.388287770594628"><ele>200.0</ele><time>2026-04-26T08:09:10Z</time></trkpt><trkpt lat="45.85589815435499" lon="9.388234896834577"><ele>200.0</ele><time>2026-04-26T08:09:13Z</time></trkpt><trkpt lat="45.855969853209245" lon="9.388334822894551"><ele>200.0</ele><time>2026-04-26T08:09:14Z</time></trkpt><trkpt lat="45.8560465130285" lon="9.38836773516256"><ele>200.0</ele><time>2026-04-26T08:09:15Z</time></trkpt><trkpt lat="45.856158253517414" lon="9.388415917962925"><ele>200.0</ele><time>2026-04-26T08:09:17Z</time></trkpt><trkpt lat="45.85623736647882" lon="9.3882308225771"><ele>201.8</ele><time>2026-04-26T08:09:19Z</time></trkpt><trkpt lat="45.85625854426306" lon="9.388120485523666"><ele>203.6</ele><time>2026-04-26T08:09:20Z</time></trkpt><trkpt lat="45.85629766300682" lon="9.387996438493628"><ele>205.39999999999998</ele><time>2026-04-26T08:09:21Z</time></trkpt><trkpt lat="45.856333256177386" lon="9.38787560214581"><ele>207.2</ele><time>2026-04-26T08:09:22Z</time></trkpt><trkpt lat="45.856363187447144" lon="9.38774671305853"><ele>209.0</ele><time>2026-04-26T08:09:23Z</time></trkpt><trkpt lat="45.85636915488013" lon="9.387609161764932"><ele>209.0</ele><time>2026-04-26T08:09:24Z</time></trkpt><trkpt lat="45.85639044511407" lon="9.387498920629703"><ele>209.0</ele><time>2026-04-26T08:09:25Z</time></trkpt><trkpt lat="45.85641108232161" lon="9.387409450898646"><ele>209.0</ele><time>2026-04-26T08:09:26Z</time></trkpt><trkpt lat="45.85651449003127" lon="9.387447147227164"><ele>209.0</ele><time>2026-04-26T08:09:30Z</time></trkpt><trkpt lat="45.8566025245714" lon="9.387505624320557"><ele>209.0</ele><time>2026-04-26T08:09:31Z</time></trkpt><trkpt lat="45.856706237739076" lon="9.38762338207539"><ele>210.5</ele><time>2026-04-26T08:09:32Z</time></trkpt><trkpt lat="45.85681716133303" lon="9.387734554098953"><ele>212.0</ele><time>2026-04-26T08:09:33Z</time></trkpt><trkpt lat="45.85693715401519" lon="9.38778779947255"><ele>213.5</ele><time>2026-04-26T08:09:34Z</time></trkpt><trkpt lat="45.857024976216415" lon="9.387871306623616"><ele>215.0</ele><time>2026-04-26T08:09:35Z</time></trkpt><trkpt lat="45.85709402379525" lon="9.387960941656187"><ele>215.83333333333334</ele><time>2026-04-26T08:09:36Z</time></trkpt><trkpt lat="45.85714976322079" lon="9.38803814045246"><ele>216.66666666666669</ele><time>2026-04-26T08:09:37Z</time></trkpt><trkpt lat="45.85718951117049" lon="9.388110822050475"><ele>217.5</ele><time>2026-04-26T08:09:39Z</time></trkpt><trkpt lat="45.857235809066985" lon="9.388196355139904"><ele>218.33333333333331</ele><time>2026-04-26T08:09:42Z</time></trkpt><trkpt lat="45.85726429959496" lon="9.38828648369089"><ele>219.16666666666666</ele><time>2026-04-26T08:09:43Z</time></trkpt><trkpt lat="45.857289863156886" lon="9.388433210381319"><ele>220.0</ele><time>2026-04-26T08:09:44Z</time></trkpt><trkpt lat="45.85733681000637" lon="9.388586707868184"><ele>220.0</ele><time>2026-04-26T08:09:45Z</time></trkpt><trkpt lat="45.85739592539867" lon="9.388764885594297"><ele>220.0</ele><time>2026-04-26T08:09:46Z</time></trkpt><trkpt lat="45.857460386271974" lon="9.388953862931162"><ele>220.0</ele><time>2026-04-26T08:09:47Z</time></trkpt><trkpt lat="45.857522059606836" lon="9.389149466042767"><ele>220.0</ele><time>2026-04-26T08:09:48Z</time></trkpt><trkpt lat="45.85759231553854" lon="9.389364500403953"><ele>220.0</ele><time>2026-04-26T08:09:49Z</time></trkpt><trkpt lat="45.857640463769" lon="9.389553008807205"><ele>220.0</ele><time>2026-04-26T08:09:50Z</time></trkpt><trkpt lat="45.85770432447635" lon="9.389711374173762"><ele>220.0</ele><time>2026-04-26T08:09:51Z</time></trkpt><trkpt lat="45.8577532391277" lon="9.389861709118714"><ele>220.0</ele><time>2026-04-26T08:09:52Z</time></trkpt><trkpt lat="45.857796636101824" lon="9.389996617830553"><ele>220.0</ele><time>2026-04-26T08:09:53Z</time></trkpt><trkpt lat="45.857845831584406" lon="9.390151184790673"><ele>220.0</ele><time>2026-04-26T08:09:54Z</time></trkpt><trkpt lat="45.85789023817113" lon="9.390290704790406"><ele>220.0</ele><time>2026-04-26T08:09:55Z</time></trkpt><trkpt lat="45.85793390862461" lon="9.39042893716248"><ele>220.0</ele><time>2026-04-26T08:09:56Z</time></trkpt><trkpt lat="45.85797351257618" lon="9.390553940231076"><ele>220.0</ele><time>2026-04-26T08:09:57Z</time></trkpt><trkpt lat="45.85766708260986" lon="9.39080435204835"><ele>222.0</ele><time>2026-04-26T08:09:58Z</time></trkpt><trkpt lat="45.85812973197276" lon="9.390988188194187"><ele>222.0</ele><time>2026-04-26T08:10:00Z</time></trkpt><trkpt lat="45.858174539000515" lon="9.391114684668787"><ele>222.0</ele><time>2026-04-26T08:10:01Z</time></trkpt><trkpt lat="45.85821917727887" lon="9.391227920705132"><ele>222.0</ele><time>2026-04-26T08:10:02Z</time></trkpt><trkpt lat="45.858252401902696" lon="9.391321346921872"><ele>222.0</ele><time>2026-04-26T08:10:03Z</time></trkpt><trkpt lat="45.85829189290578" lon="9.391410390499512"><ele>222.0</ele><time>2026-04-26T08:10:04Z</time></trkpt><trkpt lat="45.85832932272432" lon="9.391483636495348"><ele>222.0</ele><time>2026-04-26T08:10:05Z</time></trkpt><trkpt lat="45.858412324393846" lon="9.391545646524499"><ele>222.8</ele><time>2026-04-26T08:10:07Z</time></trkpt><trkpt lat="45.85851868075369" lon="9.391420876393058"><ele>223.6</ele><time>2026-04-26T08:10:09Z</time></trkpt><trkpt lat="45.858597729138445" lon="9.391372928315558"><ele>224.40000000000003</ele><time>2026-04-26T08:10:10Z</time></trkpt><trkpt lat="45.85867019363875" lon="9.391328973789095"><ele>225.20000000000002</ele><time>2026-04-26T08:10:11Z</time></trkpt><trkpt lat="45.85874419368229" lon="9.391284088188103"><ele>226.0</ele><time>2026-04-26T08:10:12Z</time></trkpt><trkpt lat="45.85888493268565" lon="9.391458348139707"><ele>226.75</ele><time>2026-04-26T08:10:13Z</time></trkpt><trkpt lat="45.8589713364737" lon="9.391495299808026"><ele>227.5</ele><time>2026-04-26T08:10:14Z</time></trkpt><trkpt lat="45.85909626608462" lon="9.391572852852361"><ele>228.25</ele><time>2026-04-26T08:10:15Z</time></trkpt><trkpt lat="45.859232217402806" lon="9.391644068102554"><ele>229.0</ele><time>2026-04-26T08:10:16Z</time></trkpt><trkpt lat="45.85937010872601" lon="9.391716293276147"><ele>229.0</ele><time>2026-04-26T08:10:17Z</time></trkpt><trkpt lat="45.85950338030796" lon="9.391786780420285"><ele>229.0</ele><time>2026-04-26T08:10:18Z</time></trkpt><trkpt lat="45.85964868505254" lon="9.391867395520977"><ele>229.0</ele><time>2026-04-26T08:10:19Z</time></trkpt><trkpt lat="45.85977141396401" lon="9.3919597145857"><ele>229.0</ele><time>2026-04-26T08:10:20Z</time></trkpt><trkpt lat="45.85990478798923" lon="9.392033349756156"><ele>229.0</ele><time>2026-04-26T08:10:21Z</time></trkpt><trkpt lat="45.86006101946633" lon="9.392099395509643"><ele>229.0</ele><time>2026-04-26T08:10:22Z</time></trkpt><trkpt lat="45.8602180055447" lon="9.39218061981349"><ele>229.0</ele><time>2026-04-26T08:10:23Z</time></trkpt><trkpt lat="45.86035278108501" lon="9.392252492010766"><ele>230.5</ele><time>2026-04-26T08:10:24Z</time></trkpt><trkpt lat="45.86047793700571" lon="9.392322806528679"><ele>232.0</ele><time>2026-04-26T08:10:25Z</time></trkpt><trkpt lat="45.860602601519666" lon="9.392384086838733"><ele>233.5</ele><time>2026-04-26T08:10:26Z</time></trkpt><trkpt lat="45.860732948221674" lon="9.392457593281305"><ele>235.0</ele><time>2026-04-26T08:10:27Z</time></trkpt><trkpt lat="45.86085484612871" lon="9.39251335580754"><ele>235.8</ele><time>2026-04-26T08:10:28Z</time></trkpt><trkpt lat="45.86096394675176" lon="9.392564650770533"><ele>236.6</ele><time>2026-04-26T08:10:29Z</time></trkpt><trkpt lat="45.861059197197484" lon="9.392578032721019"><ele>237.39999999999998</ele><time>2026-04-26T08:10:30Z</time></trkpt><trkpt lat="45.861136887946294" lon="9.392644744829603"><ele>238.2</ele><time>2026-04-26T08:10:32Z</time></trkpt><trkpt lat="45.86116430260685" lon="9.392769622601017"><ele>239.0</ele><time>2026-04-26T08:10:34Z</time></trkpt><trkpt lat="45.8611602061623" lon="9.392872228370297"><ele>239.0</ele><time>2026-04-26T08:10:35Z</time></trkpt><trkpt lat="45.861182442593474" lon="9.39295991205283"><ele>239.0</ele><time>2026-04-26T08:10:36Z</time></trkpt><trkpt lat="45.86108690453417" lon="9.393084190719962"><ele>239.0</ele><time>2026-04-26T08:10:37Z</time></trkpt><trkpt lat="45.86100238336246" lon="9.393225112853175"><ele>239.0</ele><time>2026-04-26T08:10:38Z</time></trkpt><trkpt lat="45.860902429224566" lon="9.393392870952585"><ele>239.66666666666669</ele><time>2026-04-26T08:10:39Z</time></trkpt><trkpt lat="45.86078151257071" lon="9.393582775587438"><ele>240.33333333333331</ele><time>2026-04-26T08:10:40Z</time></trkpt><trkpt lat="45.86065384845014" lon="9.393780824033131"><ele>241.0</ele><time>2026-04-26T08:10:41Z</time></trkpt><trkpt lat="45.860522354106244" lon="9.39396844961494"><ele>241.0</ele><time>2026-04-26T08:10:42Z</time></trkpt><trkpt lat="45.86041858292887" lon="9.394147182693484"><ele>241.0</ele><time>2026-04-26T08:10:43Z</time></trkpt><trkpt lat="45.86031490422744" lon="9.394307980742644"><ele>241.0</ele><time>2026-04-26T08:10:44Z</time></trkpt><trkpt lat="45.86020316059852" lon="9.394463992662368"><ele>240.75</ele><time>2026-04-26T08:10:45Z</time></trkpt><trkpt lat="45.86010486662365" lon="9.394600054703917"><ele>240.5</ele><time>2026-04-26T08:10:46Z</time></trkpt><trkpt lat="45.86002383810832" lon="9.39473775907598"><ele>240.25</ele><time>2026-04-26T08:10:47Z</time></trkpt><trkpt lat="45.85994441405429" lon="9.394854160599296"><ele>240.0</ele><time>2026-04-26T08:10:48Z</time></trkpt><trkpt lat="45.85985483778777" lon="9.394957542999123"><ele>240.0</ele><time>2026-04-26T08:10:49Z</time></trkpt><trkpt lat="45.85976872886434" lon="9.395077662934305"><ele>240.0</ele><time>2026-04-26T08:10:50Z</time></trkpt><trkpt lat="45.859700595482586" lon="9.395169891377126"><ele>240.0</ele><time>2026-04-26T08:10:51Z</time></trkpt><trkpt lat="45.85963002554438" lon="9.395286180365874"><ele>240.0</ele><time>2026-04-26T08:10:52Z</time></trkpt><trkpt lat="45.85954857171814" lon="9.395388292863352"><ele>240.0</ele><time>2026-04-26T08:10:53Z</time></trkpt><trkpt lat="45.85948540513031" lon="9.395484250961719"><ele>239.8</ele><time>2026-04-26T08:10:54Z</time></trkpt><trkpt lat="45.8594083039421" lon="9.395592830736136"><ele>239.6</ele><time>2026-04-26T08:10:55Z</time></trkpt><trkpt lat="45.859328313411886" lon="9.395698309472678"><ele>239.39999999999998</ele><time>2026-04-26T08:10:56Z</time></trkpt><trkpt lat="45.85925971443429" lon="9.395796818628618"><ele>239.2</ele><time>2026-04-26T08:10:57Z</time></trkpt><trkpt lat="45.8591965081972" lon="9.39588515634522"><ele>239.0</ele><time>2026-04-26T08:10:58Z</time></trkpt><trkpt lat="45.859148961017475" lon="9.395949024478876"><ele>239.00000000000003</ele><time>2026-04-26T08:10:59Z</time></trkpt><trkpt lat="45.85909061619413" lon="9.396015136657526"><ele>239.0</ele><time>2026-04-26T08:11:00Z</time></trkpt><trkpt lat="45.85905030394535" lon="9.396094938263502"><ele>239.0</ele><time>2026-04-26T08:11:02Z</time></trkpt><trkpt lat="45.85898745289486" lon="9.396157168810175"><ele>239.0</ele><time>2026-04-26T08:11:04Z</time></trkpt><trkpt lat="45.85888496915252" lon="9.396244544988432"><ele>239.00000000000003</ele><time>2026-04-26T08:11:06Z</time></trkpt><trkpt lat="45.858845619206505" lon="9.396327939388753"><ele>239.0</ele><time>2026-04-26T08:11:07Z</time></trkpt><trkpt lat="45.85880708636302" lon="9.39642373358889"><ele>239.50000000000003</ele><time>2026-04-26T08:11:08Z</time></trkpt><trkpt lat="45.85875974879051" lon="9.396528617249155"><ele>240.0</ele><time>2026-04-26T08:11:09Z</time></trkpt><trkpt lat="45.85869791586859" lon="9.396623070658896"><ele>240.5</ele><time>2026-04-26T08:11:10Z</time></trkpt><trkpt lat="45.85862861047036" lon="9.396695295965765"><ele>241.0</ele><time>2026-04-26T08:11:11Z</time></trkpt><trkpt lat="45.858566074450295" lon="9.396762013448972"><ele>241.50000000000003</ele><time>2026-04-26T08:11:12Z</time></trkpt><trkpt lat="45.85849797384415" lon="9.396833273410573"><ele>242.0</ele><time>2026-04-26T08:11:13Z</time></trkpt><trkpt lat="45.85842946759204" lon="9.396894615350382"><ele>241.00000000000003</ele><time>2026-04-26T08:11:14Z</time></trkpt><trkpt lat="45.85835573471064" lon="9.396957205305101"><ele>240.0</ele><time>2026-04-26T08:11:15Z</time></trkpt><trkpt lat="45.858280934342865" lon="9.39701536268761"><ele>239.0</ele><time>2026-04-26T08:11:16Z</time></trkpt><trkpt lat="45.85819516225519" lon="9.397083765220819"><ele>238.0</ele><time>2026-04-26T08:11:17Z</time></trkpt><trkpt lat="45.858136520783695" lon="9.397141085010546"><ele>237.00000000000003</ele><time>2026-04-26T08:11:18Z</time></trkpt><trkpt lat="45.85808064922364" lon="9.39719624756059"><ele>236.0</ele><time>2026-04-26T08:11:19Z</time></trkpt><trkpt lat="45.85802739715048" lon="9.397255478170884"><ele>236.0</ele><time>2026-04-26T08:11:20Z</time></trkpt><trkpt lat="45.858040742144176" lon="9.397446164331587"><ele>236.0</ele><time>2026-04-26T08:11:22Z</time></trkpt><trkpt lat="45.858119849423666" lon="9.397557298120265"><ele>236.0</ele><time>2026-04-26T08:11:23Z</time></trkpt><trkpt lat="45.858148414645235" lon="9.39767794803079"><ele>236.0</ele><time>2026-04-26T08:11:24Z</time></trkpt><trkpt lat="45.85818566317493" lon="9.397838169789308"><ele>236.0</ele><time>2026-04-26T08:11:25Z</time></trkpt><trkpt lat="45.85823109833651" lon="9.398001089040529"><ele>236.0</ele><time>2026-04-26T08:11:26Z</time></trkpt><trkpt lat="45.8582819154204" lon="9.398171839104025"><ele>236.0</ele><time>2026-04-26T08:11:27Z</time></trkpt><trkpt lat="45.85833278204569" lon="9.398308910015036"><ele>236.0</ele><time>2026-04-26T08:11:28Z</time></trkpt><trkpt lat="45.858401470953275" lon="9.398447847860286"><ele>237.20000000000002</ele><time>2026-04-26T08:11:29Z</time></trkpt><trkpt lat="45.85847888408229" lon="9.398554137924899"><ele>238.40000000000003</ele><time>2026-04-26T08:11:30Z</time></trkpt><trkpt lat="45.858555190946184" lon="9.398644581699186"><ele>239.6</ele><time>2026-04-26T08:11:31Z</time></trkpt><trkpt lat="45.85862167141308" lon="9.39871985569321"><ele>240.8</ele><time>2026-04-26T08:11:32Z</time></trkpt><trkpt lat="45.85870662083848" lon="9.398803885763634"><ele>242.0</ele><time>2026-04-26T08:11:33Z</time></trkpt><trkpt lat="45.85879109395927" lon="9.398927323864495"><ele>242.0</ele><time>2026-04-26T08:11:34Z</time></trkpt><trkpt lat="45.858897257649915" lon="9.399076657041038"><ele>242.0</ele><time>2026-04-26T08:11:35Z</time></trkpt><trkpt lat="45.859015562661625" lon="9.399196453729095"><ele>242.0</ele><time>2026-04-26T08:11:36Z</time></trkpt><trkpt lat="45.85914208486698" lon="9.399336745489535"><ele>242.0</ele><time>2026-04-26T08:11:37Z</time></trkpt><trkpt lat="45.859259224048714" lon="9.399485639085256"><ele>242.0</ele><time>2026-04-26T08:11:38Z</time></trkpt><trkpt lat="45.85938508208493" lon="9.399608740240538"><ele>242.0</ele><time>2026-04-26T08:11:39Z</time></trkpt><trkpt lat="45.85950718080949" lon="9.399702188865744"><ele>242.0</ele><time>2026-04-26T08:11:40Z</time></trkpt><trkpt lat="45.85962716307701" lon="9.39976080265318"><ele>243.0</ele><time>2026-04-26T08:11:41Z</time></trkpt><trkpt lat="45.85973160100339" lon="9.399822172479459"><ele>244.0</ele><time>2026-04-26T08:11:42Z</time></trkpt><trkpt lat="45.859827325469674" lon="9.399876923741612"><ele>245.0</ele><time>2026-04-26T08:11:43Z</time></trkpt><trkpt lat="45.859908539032205" lon="9.399940004615273"><ele>246.0</ele><time>2026-04-26T08:11:44Z</time></trkpt><trkpt lat="45.85997147861278" lon="9.400011033563784"><ele>247.0</ele><time>2026-04-26T08:11:45Z</time></trkpt><trkpt lat="45.860007176147505" lon="9.40011399305127"><ele>247.0</ele><time>2026-04-26T08:11:46Z</time></trkpt><trkpt lat="45.860048836396345" lon="9.400212128128304"><ele>247.0</ele><time>2026-04-26T08:11:47Z</time></trkpt><trkpt lat="45.86012073881493" lon="9.400248765781955"><ele>247.0</ele><time>2026-04-26T08:11:48Z</time></trkpt><trkpt lat="45.86020093227787" lon="9.400212190389135"><ele>247.0</ele><time>2026-04-26T08:11:49Z</time></trkpt><trkpt lat="45.860293474698295" lon="9.400144511424688"><ele>247.0</ele><time>2026-04-26T08:11:50Z</time></trkpt><trkpt lat="45.860393367342446" lon="9.400055817574534"><ele>248.75</ele><time>2026-04-26T08:11:51Z</time></trkpt><trkpt lat="45.860506599393055" lon="9.39997943188582"><ele>250.5</ele><time>2026-04-26T08:11:52Z</time></trkpt><trkpt lat="45.86061902911441" lon="9.3998715026188"><ele>252.25</ele><time>2026-04-26T08:11:53Z</time></trkpt><trkpt lat="45.86073547675609" lon="9.399753129406422"><ele>254.0</ele><time>2026-04-26T08:11:54Z</time></trkpt><trkpt lat="45.86084688281854" lon="9.399624945934027"><ele>254.0</ele><time>2026-04-26T08:11:55Z</time></trkpt><trkpt lat="45.860937524668564" lon="9.39945262982375"><ele>254.0</ele><time>2026-04-26T08:11:56Z</time></trkpt><trkpt lat="45.86103207674143" lon="9.399220901854818"><ele>254.0</ele><time>2026-04-26T08:11:57Z</time></trkpt><trkpt lat="45.861122751143384" lon="9.399010731438285"><ele>255.6</ele><time>2026-04-26T08:11:58Z</time></trkpt><trkpt lat="45.861193587912126" lon="9.398885837018332"><ele>257.2</ele><time>2026-04-26T08:11:59Z</time></trkpt><trkpt lat="45.86125394526908" lon="9.398784825973513"><ele>258.79999999999995</ele><time>2026-04-26T08:12:00Z</time></trkpt><trkpt lat="45.86130080484405" lon="9.398715304341858"><ele>260.4</ele><time>2026-04-26T08:12:01Z</time></trkpt><trkpt lat="45.861436524125985" lon="9.39873601784159"><ele>262.0</ele><time>2026-04-26T08:12:03Z</time></trkpt><trkpt lat="45.86149539641651" lon="9.398886725181631"><ele>262.0</ele><time>2026-04-26T08:12:04Z</time></trkpt><trkpt lat="45.86163436921173" lon="9.39900880910052"><ele>262.0</ele><time>2026-04-26T08:12:05Z</time></trkpt><trkpt lat="45.86178548106708" lon="9.399141556827656"><ele>262.0</ele><time>2026-04-26T08:12:06Z</time></trkpt><trkpt lat="45.861974662336436" lon="9.399309977389962"><ele>263.66666666666663</ele><time>2026-04-26T08:12:07Z</time></trkpt><trkpt lat="45.86214497984895" lon="9.399463138145165"><ele>265.3333333333333</ele><time>2026-04-26T08:12:08Z</time></trkpt><trkpt lat="45.86227457675973" lon="9.399587664372584"><ele>267.0</ele><time>2026-04-26T08:12:09Z</time></trkpt><trkpt lat="45.86239585340125" lon="9.399755586416187"><ele>267.0</ele><time>2026-04-26T08:12:10Z</time></trkpt><trkpt lat="45.862528395232026" lon="9.399936828728308"><ele>267.0</ele><time>2026-04-26T08:12:11Z</time></trkpt><trkpt lat="45.86262638110227" lon="9.400117669183917"><ele>267.0</ele><time>2026-04-26T08:12:12Z</time></trkpt><trkpt lat="45.8627155597901" lon="9.400293165443028"><ele>268.0</ele><time>2026-04-26T08:12:13Z</time></trkpt><trkpt lat="45.86278243191249" lon="9.400426176645357"><ele>269.0</ele><time>2026-04-26T08:12:14Z</time></trkpt><trkpt lat="45.862840518548" lon="9.400535560464936"><ele>270.0</ele><time>2026-04-26T08:12:15Z</time></trkpt><trkpt lat="45.86289434071884" lon="9.400642603360883"><ele>271.0</ele><time>2026-04-26T08:12:16Z</time></trkpt><trkpt lat="45.862949022059155" lon="9.400752937612438"><ele>272.0</ele><time>2026-04-26T08:12:17Z</time></trkpt><trkpt lat="45.86300934184519" lon="9.400867683101826"><ele>272.0</ele><time>2026-04-26T08:12:18Z</time></trkpt><trkpt lat="45.86307184571378" lon="9.400973847523833"><ele>272.0</ele><time>2026-04-26T08:12:19Z</time></trkpt><trkpt lat="45.863139354415885" lon="9.401093184299558"><ele>272.0</ele><time>2026-04-26T08:12:20Z</time></trkpt><trkpt lat="45.8632469526235" lon="9.401232577208292"><ele>272.0</ele><time>2026-04-26T08:12:21Z</time></trkpt><trkpt lat="45.8633460965581" lon="9.401416422342216"><ele>271.75</ele><time>2026-04-26T08:12:22Z</time></trkpt><trkpt lat="45.86342811844791" lon="9.401599008367318"><ele>271.5</ele><time>2026-04-26T08:12:23Z</time></trkpt><trkpt lat="45.86349186165717" lon="9.401765001703575"><ele>271.25</ele><time>2026-04-26T08:12:24Z</time></trkpt><trkpt lat="45.86354836525875" lon="9.401934096870772"><ele>271.0</ele><time>2026-04-26T08:12:25Z</time></trkpt><trkpt lat="45.86359217734691" lon="9.402125203504662"><ele>272.8</ele><time>2026-04-26T08:12:26Z</time></trkpt><trkpt lat="45.863634471298205" lon="9.402308917032464"><ele>274.6</ele><time>2026-04-26T08:12:27Z</time></trkpt><trkpt lat="45.86366772131837" lon="9.402470082256873"><ele>276.4</ele><time>2026-04-26T08:12:28Z</time></trkpt><trkpt lat="45.863694293774614" lon="9.402606294345993"><ele>278.2</ele><time>2026-04-26T08:12:29Z</time></trkpt><trkpt lat="45.86371803056572" lon="9.402721769239045"><ele>280.0</ele><time>2026-04-26T08:12:30Z</time></trkpt><trkpt lat="45.86373815716754" lon="9.402821527507195"><ele>280.0</ele><time>2026-04-26T08:12:31Z</time></trkpt><trkpt lat="45.86376436091662" lon="9.402908207895397"><ele>280.0</ele><time>2026-04-26T08:12:32Z</time></trkpt><trkpt lat="45.86379773985445" lon="9.403099114890844"><ele>280.0</ele><time>2026-04-26T08:12:34Z</time></trkpt><trkpt lat="45.86379144890634" lon="9.403209228558115"><ele>280.0</ele><time>2026-04-26T08:12:35Z</time></trkpt><trkpt lat="45.8637808705556" lon="9.403317892118801"><ele>280.0</ele><time>2026-04-26T08:12:36Z</time></trkpt><trkpt lat="45.863766864511746" lon="9.403407448165499"><ele>280.0</ele><time>2026-04-26T08:12:37Z</time></trkpt><trkpt lat="45.863726262304674" lon="9.403541013557739"><ele>280.6</ele><time>2026-04-26T08:12:39Z</time></trkpt><trkpt lat="45.863770109849945" lon="9.403648381161684"><ele>281.2</ele><time>2026-04-26T08:12:40Z</time></trkpt><trkpt lat="45.863828819891225" lon="9.40371212154764"><ele>281.8</ele><time>2026-04-26T08:12:41Z</time></trkpt><trkpt lat="45.863910737161625" lon="9.403762838014655"><ele>282.4</ele><time>2026-04-26T08:12:42Z</time></trkpt><trkpt lat="45.86395800589827" lon="9.403872944056419"><ele>283.0</ele><time>2026-04-26T08:12:43Z</time></trkpt><trkpt lat="45.864002162375954" lon="9.40403881756086"><ele>284.0</ele><time>2026-04-26T08:12:44Z</time></trkpt><trkpt lat="45.86403695793371" lon="9.404242278143814"><ele>285.0</ele><time>2026-04-26T08:12:45Z</time></trkpt><trkpt lat="45.86408091411108" lon="9.40446956978723"><ele>286.0</ele><time>2026-04-26T08:12:46Z</time></trkpt><trkpt lat="45.86415561547067" lon="9.40464243583728"><ele>286.0</ele><time>2026-04-26T08:12:47Z</time></trkpt><trkpt lat="45.86424906296955" lon="9.40477106706233"><ele>286.0</ele><time>2026-04-26T08:12:48Z</time></trkpt><trkpt lat="45.86438704826116" lon="9.40487119109971"><ele>286.0</ele><time>2026-04-26T08:12:49Z</time></trkpt><trkpt lat="45.86451953450141" lon="9.404933520961276"><ele>286.0</ele><time>2026-04-26T08:12:50Z</time></trkpt><trkpt lat="45.86462848079064" lon="9.405037881736337"><ele>288.0</ele><time>2026-04-26T08:12:51Z</time></trkpt><trkpt lat="45.86476837147518" lon="9.405093037619128"><ele>290.0</ele><time>2026-04-26T08:12:52Z</time></trkpt><trkpt lat="45.8648798776545" lon="9.405113000899668"><ele>292.0</ele><time>2026-04-26T08:12:53Z</time></trkpt><trkpt lat="45.8649710371169" lon="9.405051722649347"><ele>294.0</ele><time>2026-04-26T08:12:54Z</time></trkpt><trkpt lat="45.865033216529184" lon="9.404932922487356"><ele>294.0</ele><time>2026-04-26T08:12:55Z</time></trkpt><trkpt lat="45.86507994587176" lon="9.404745956767888"><ele>294.0</ele><time>2026-04-26T08:12:56Z</time></trkpt><trkpt lat="45.86511648833855" lon="9.40456253581485"><ele>294.0</ele><time>2026-04-26T08:12:57Z</time></trkpt><trkpt lat="45.86518575801333" lon="9.404273614467465"><ele>296.0</ele><time>2026-04-26T08:12:58Z</time></trkpt><trkpt lat="45.86522416357245" lon="9.404033111452835"><ele>298.0</ele><time>2026-04-26T08:12:59Z</time></trkpt><trkpt lat="45.86526212601439" lon="9.403838592024197"><ele>300.0</ele><time>2026-04-26T08:13:00Z</time></trkpt><trkpt lat="45.86529797690356" lon="9.403668272045243"><ele>302.0</ele><time>2026-04-26T08:13:01Z</time></trkpt><trkpt lat="45.865373277546524" lon="9.403578406155049"><ele>302.0</ele><time>2026-04-26T08:13:02Z</time></trkpt><trkpt lat="45.86543989358617" lon="9.403520720091192"><ele>302.0</ele><time>2026-04-26T08:13:03Z</time></trkpt><trkpt lat="45.86557136100077" lon="9.40344728288283"><ele>302.0</ele><time>2026-04-26T08:13:05Z</time></trkpt><trkpt lat="45.865694152979486" lon="9.403375288874868"><ele>302.0</ele><time>2026-04-26T08:13:06Z</time></trkpt><trkpt lat="45.86583047812108" lon="9.403221831988994"><ele>302.0</ele><time>2026-04-26T08:13:07Z</time></trkpt><trkpt lat="45.86593853580631" lon="9.403095351157441"><ele>302.0</ele><time>2026-04-26T08:13:08Z</time></trkpt><trkpt lat="45.86603041690985" lon="9.403009292122388"><ele>302.0</ele><time>2026-04-26T08:13:09Z</time></trkpt><trkpt lat="45.866106286559784" lon="9.402974362459668"><ele>302.0</ele><time>2026-04-26T08:13:10Z</time></trkpt><trkpt lat="45.86618369892842" lon="9.402956422309135"><ele>302.0</ele><time>2026-04-26T08:13:11Z</time></trkpt><trkpt lat="45.866250264987336" lon="9.402964259129003"><ele>306.0</ele><time>2026-04-26T08:13:12Z</time></trkpt><trkpt lat="45.866380185977796" lon="9.40302745233705"><ele>310.0</ele><time>2026-04-26T08:13:14Z</time></trkpt><trkpt lat="45.8665435782161" lon="9.403116010964764"><ele>314.0</ele><time>2026-04-26T08:13:15Z</time></trkpt><trkpt lat="45.86669277447154" lon="9.403196260323922"><ele>315.25</ele><time>2026-04-26T08:13:16Z</time></trkpt><trkpt lat="45.866823023404024" lon="9.403262143691741"><ele>316.5</ele><time>2026-04-26T08:13:17Z</time></trkpt><trkpt lat="45.86695306054985" lon="9.403344078812795"><ele>317.75</ele><time>2026-04-26T08:13:18Z</time></trkpt><trkpt lat="45.867072893803716" lon="9.403410089583156"><ele>319.0</ele><time>2026-04-26T08:13:19Z</time></trkpt><trkpt lat="45.86718354463242" lon="9.40345993279092"><ele>319.0</ele><time>2026-04-26T08:13:20Z</time></trkpt><trkpt lat="45.86727743980895" lon="9.403501482725229"><ele>319.0</ele><time>2026-04-26T08:13:21Z</time></trkpt><trkpt lat="45.867381318055" lon="9.403535230053997"><ele>319.0</ele><time>2026-04-26T08:13:22Z</time></trkpt><trkpt lat="45.86748033449732" lon="9.403612420130015"><ele>319.0</ele><time>2026-04-26T08:13:23Z</time></trkpt><trkpt lat="45.86762764623193" lon="9.403651262719873"><ele>319.75</ele><time>2026-04-26T08:13:24Z</time></trkpt><trkpt lat="45.86777667489409" lon="9.403741648328772"><ele>320.5</ele><time>2026-04-26T08:13:25Z</time></trkpt><trkpt lat="45.86789399210713" lon="9.403815077552284"><ele>321.25</ele><time>2026-04-26T08:13:26Z</time></trkpt><trkpt lat="45.86798487894147" lon="9.403856719505526"><ele>322.0</ele><time>2026-04-26T08:13:27Z</time></trkpt><trkpt lat="45.86806805294934" lon="9.403893844115789"><ele>322.8</ele><time>2026-04-26T08:13:28Z</time></trkpt><trkpt lat="45.86817670881449" lon="9.403917010329904"><ele>323.6</ele><time>2026-04-26T08:13:29Z</time></trkpt><trkpt lat="45.86827230270378" lon="9.403921206024927"><ele>324.40000000000003</ele><time>2026-04-26T08:13:30Z</time></trkpt><trkpt lat="45.86837600045888" lon="9.403909389587962"><ele>325.20000000000005</ele><time>2026-04-26T08:13:31Z</time></trkpt><trkpt lat="45.868467051715946" lon="9.40390963242661"><ele>326.0</ele><time>2026-04-26T08:13:32Z</time></trkpt><trkpt lat="45.86855726311978" lon="9.403900557676044"><ele>328.4</ele><time>2026-04-26T08:13:33Z</time></trkpt><trkpt lat="45.86864105616643" lon="9.403836737001722"><ele>330.8</ele><time>2026-04-26T08:13:34Z</time></trkpt><trkpt lat="45.86871748732958" lon="9.403771448795249"><ele>333.2</ele><time>2026-04-26T08:13:35Z</time></trkpt><trkpt lat="45.86874113301534" lon="9.403616548897634"><ele>335.59999999999997</ele><time>2026-04-26T08:13:36Z</time></trkpt><trkpt lat="45.86876443768415" lon="9.403500963665861"><ele>338.0</ele><time>2026-04-26T08:13:37Z</time></trkpt><trkpt lat="45.868770794769596" lon="9.403333442446705"><ele>338.0</ele><time>2026-04-26T08:13:38Z</time></trkpt><trkpt lat="45.868791327979736" lon="9.403231924596735"><ele>338.0</ele><time>2026-04-26T08:13:39Z</time></trkpt><trkpt lat="45.86880558486169" lon="9.403129904245473"><ele>338.0</ele><time>2026-04-26T08:13:40Z</time></trkpt><trkpt lat="45.86882884329311" lon="9.403025444846051"><ele>338.0</ele><time>2026-04-26T08:13:41Z</time></trkpt><trkpt lat="45.86892153423396" lon="9.402966699034875"><ele>338.0</ele><time>2026-04-26T08:13:42Z</time></trkpt><trkpt lat="45.869004213327884" lon="9.402925756634154"><ele>338.0</ele><time>2026-04-26T08:13:43Z</time></trkpt><trkpt lat="45.869089356990116" lon="9.402875057902639"><ele>337.0</ele><time>2026-04-26T08:13:44Z</time></trkpt><trkpt lat="45.86916705923138" lon="9.402821391446421"><ele>336.0</ele><time>2026-04-26T08:13:45Z</time></trkpt><trkpt lat="45.86924836706554" lon="9.402758921341492"><ele>335.0</ele><time>2026-04-26T08:13:46Z</time></trkpt><trkpt lat="45.86932675830786" lon="9.402739558361088"><ele>334.0</ele><time>2026-04-26T08:13:47Z</time></trkpt><trkpt lat="45.86940236952501" lon="9.402708387095807"><ele>333.0</ele><time>2026-04-26T08:13:48Z</time></trkpt><trkpt lat="45.86947188732557" lon="9.402726136124427"><ele>332.0</ele><time>2026-04-26T08:13:49Z</time></trkpt><trkpt lat="45.86953961631613" lon="9.402752007622013"><ele>332.0</ele><time>2026-04-26T08:13:50Z</time></trkpt><trkpt lat="45.86960170539054" lon="9.402800350822975"><ele>332.0</ele><time>2026-04-26T08:13:51Z</time></trkpt><trkpt lat="45.86969142099695" lon="9.402838046616958"><ele>332.0</ele><time>2026-04-26T08:13:52Z</time></trkpt><trkpt lat="45.869773569407656" lon="9.402874206900801"><ele>332.0</ele><time>2026-04-26T08:13:53Z</time></trkpt><trkpt lat="45.86984274407341" lon="9.402914317070577"><ele>332.0</ele><time>2026-04-26T08:13:54Z</time></trkpt><trkpt lat="45.869956390663944" lon="9.402959956474005"><ele>332.0</ele><time>2026-04-26T08:13:55Z</time></trkpt><trkpt lat="45.87007826808101" lon="9.403036412650193"><ele>332.8</ele><time>2026-04-26T08:13:56Z</time></trkpt><trkpt lat="45.87019596516395" lon="9.403041488481183"><ele>333.6</ele><time>2026-04-26T08:13:57Z</time></trkpt><trkpt lat="45.87030673038516" lon="9.403027833511741"><ele>334.40000000000003</ele><time>2026-04-26T08:13:58Z</time></trkpt><trkpt lat="45.8704188895054" lon="9.40301868298037"><ele>335.20000000000005</ele><time>2026-04-26T08:13:59Z</time></trkpt><trkpt lat="45.870516549494845" lon="9.402988468138984"><ele>336.0</ele><time>2026-04-26T08:14:00Z</time></trkpt><trkpt lat="45.8706091735113" lon="9.40296781673634"><ele>336.0</ele><time>2026-04-26T08:14:01Z</time></trkpt><trkpt lat="45.87070655571553" lon="9.402988244041815"><ele>336.0</ele><time>2026-04-26T08:14:02Z</time></trkpt><trkpt lat="45.870808601945676" lon="9.403011897904893"><ele>336.0</ele><time>2026-04-26T08:14:03Z</time></trkpt><trkpt lat="45.87090338915927" lon="9.40303250927598"><ele>336.0</ele><time>2026-04-26T08:14:04Z</time></trkpt><trkpt lat="45.87100242588238" lon="9.403079376819047"><ele>336.0</ele><time>2026-04-26T08:14:05Z</time></trkpt><trkpt lat="45.871123043335274" lon="9.403177336744015"><ele>339.0</ele><time>2026-04-26T08:14:06Z</time></trkpt><trkpt lat="45.87127781543516" lon="9.403336610935279"><ele>342.0</ele><time>2026-04-26T08:14:07Z</time></trkpt><trkpt lat="45.87147625243693" lon="9.40349300883089"><ele>345.0</ele><time>2026-04-26T08:14:08Z</time></trkpt><trkpt lat="45.87172002072521" lon="9.403683951090018"><ele>354.5</ele><time>2026-04-26T08:14:09Z</time></trkpt><trkpt lat="45.87194757825146" lon="9.403860933742411"><ele>364.0</ele><time>2026-04-26T08:14:10Z</time></trkpt><trkpt lat="45.87213950291727" lon="9.404007559245189"><ele>364.0</ele><time>2026-04-26T08:14:11Z</time></trkpt><trkpt lat="45.87231029001456" lon="9.404130214951312"><ele>364.0</ele><time>2026-04-26T08:14:12Z</time></trkpt><trkpt lat="45.872400714482545" lon="9.404229128004394"><ele>364.0</ele><time>2026-04-26T08:14:13Z</time></trkpt><trkpt lat="45.87250628481883" lon="9.404197655690801"><ele>364.0</ele><time>2026-04-26T08:14:14Z</time></trkpt><trkpt lat="45.87266155988563" lon="9.4042025474283"><ele>365.5</ele><time>2026-04-26T08:14:15Z</time></trkpt><trkpt lat="45.872832948731904" lon="9.404170821393189"><ele>367.0</ele><time>2026-04-26T08:14:16Z</time></trkpt><trkpt lat="45.872963452639524" lon="9.404177771786044"><ele>368.5</ele><time>2026-04-26T08:14:17Z</time></trkpt><trkpt lat="45.873079412250945" lon="9.404182505195134"><ele>370.0</ele><time>2026-04-26T08:14:18Z</time></trkpt><trkpt lat="45.87319122697758" lon="9.404171536017701"><ele>370.0</ele><time>2026-04-26T08:14:19Z</time></trkpt><trkpt lat="45.87329440024873" lon="9.404181369392926"><ele>370.0</ele><time>2026-04-26T08:14:20Z</time></trkpt><trkpt lat="45.87340870907776" lon="9.404166114678933"><ele>370.0</ele><time>2026-04-26T08:14:21Z</time></trkpt><trkpt lat="45.87355740370147" lon="9.404196540515999"><ele>370.0</ele><time>2026-04-26T08:14:22Z</time></trkpt><trkpt lat="45.87371592067224" lon="9.40425269481714"><ele>370.25</ele><time>2026-04-26T08:14:23Z</time></trkpt><trkpt lat="45.87386016939136" lon="9.40430436491435"><ele>370.5</ele><time>2026-04-26T08:14:24Z</time></trkpt><trkpt lat="45.87398674928966" lon="9.404355058135932"><ele>370.75</ele><time>2026-04-26T08:14:25Z</time></trkpt><trkpt lat="45.874114506734976" lon="9.40438705703958"><ele>371.0</ele><time>2026-04-26T08:14:26Z</time></trkpt><trkpt lat="45.87422812096585" lon="9.404368659124465"><ele>372.33333333333337</ele><time>2026-04-26T08:14:27Z</time></trkpt><trkpt lat="45.874321452924676" lon="9.404278732221453"><ele>373.6666666666667</ele><time>2026-04-26T08:14:28Z</time></trkpt><trkpt lat="45.87445220169701" lon="9.404089274827683"><ele>375.0</ele><time>2026-04-26T08:14:29Z</time></trkpt><trkpt lat="45.87458852577912" lon="9.40391500507211"><ele>377.4</ele><time>2026-04-26T08:14:30Z</time></trkpt><trkpt lat="45.874695057090115" lon="9.403773859022643"><ele>379.8</ele><time>2026-04-26T08:14:31Z</time></trkpt><trkpt lat="45.874766468893945" lon="9.403677782874794"><ele>382.20000000000005</ele><time>2026-04-26T08:14:32Z</time></trkpt><trkpt lat="45.87479735841916" lon="9.403538249793874"><ele>384.6</ele><time>2026-04-26T08:14:33Z</time></trkpt><trkpt lat="45.87478939768799" lon="9.403388165899278"><ele>387.0</ele><time>2026-04-26T08:14:34Z</time></trkpt><trkpt lat="45.874706544591476" lon="9.403266193739498"><ele>387.0</ele><time>2026-04-26T08:14:35Z</time></trkpt><trkpt lat="45.874562714959794" lon="9.403191562288562"><ele>387.0</ele><time>2026-04-26T08:14:36Z</time></trkpt><trkpt lat="45.87440994017976" lon="9.403111071100103"><ele>387.0</ele><time>2026-04-26T08:14:37Z</time></trkpt><trkpt lat="45.87423510633234" lon="9.403029638366085"><ele>385.0</ele><time>2026-04-26T08:14:38Z</time></trkpt><trkpt lat="45.87401593130242" lon="9.402938232089543"><ele>383.0</ele><time>2026-04-26T08:14:39Z</time></trkpt><trkpt lat="45.87385486047957" lon="9.402830638326911"><ele>381.0</ele><time>2026-04-26T08:14:40Z</time></trkpt><trkpt lat="45.873731359526836" lon="9.402698065249252"><ele>381.0</ele><time>2026-04-26T08:14:41Z</time></trkpt><trkpt lat="45.873678650400294" lon="9.402515444011662"><ele>381.0</ele><time>2026-04-26T08:14:42Z</time></trkpt><trkpt lat="45.87361205348107" lon="9.40239069130351"><ele>381.0</ele><time>2026-04-26T08:14:43Z</time></trkpt><trkpt lat="45.87356896628501" lon="9.40229621430694"><ele>381.0</ele><time>2026-04-26T08:14:44Z</time></trkpt><trkpt lat="45.87352399450551" lon="9.402226760600726"><ele>381.0</ele><time>2026-04-26T08:14:45Z</time></trkpt><trkpt lat="45.87355312268518" lon="9.402038712666519"><ele>385.25</ele><time>2026-04-26T08:14:47Z</time></trkpt><trkpt lat="45.873631237030516" lon="9.401996635317662"><ele>389.5</ele><time>2026-04-26T08:14:48Z</time></trkpt><trkpt lat="45.87368721606071" lon="9.401951089341832"><ele>393.75</ele><time>2026-04-26T08:14:49Z</time></trkpt><trkpt lat="45.87384279541825" lon="9.402026236783433"><ele>398.0</ele><time>2026-04-26T08:14:51Z</time></trkpt><trkpt lat="45.87397595049608" lon="9.402132634588968"><ele>400.0</ele><time>2026-04-26T08:14:52Z</time></trkpt><trkpt lat="45.87412648658616" lon="9.402220199237929"><ele>402.0</ele><time>2026-04-26T08:14:53Z</time></trkpt><trkpt lat="45.87423904830587" lon="9.402284999497063"><ele>404.0</ele><time>2026-04-26T08:14:54Z</time></trkpt><trkpt lat="45.87434268087829" lon="9.402344736746404"><ele>406.0</ele><time>2026-04-26T08:14:55Z</time></trkpt><trkpt lat="45.87446263205185" lon="9.40241881093843"><ele>406.0</ele><time>2026-04-26T08:14:56Z</time></trkpt><trkpt lat="45.87457529534639" lon="9.402505197740492"><ele>406.0</ele><time>2026-04-26T08:14:57Z</time></trkpt><trkpt lat="45.87469200892224" lon="9.402630569844643"><ele>406.0</ele><time>2026-04-26T08:14:58Z</time></trkpt><trkpt lat="45.874816788580105" lon="9.402769311825521"><ele>406.0</ele><time>2026-04-26T08:14:59Z</time></trkpt><trkpt lat="45.87494580205714" lon="9.402912760391672"><ele>411.33333333333337</ele><time>2026-04-26T08:15:00Z</time></trkpt><trkpt lat="45.87507559878215" lon="9.403055337461913"><ele>416.66666666666663</ele><time>2026-04-26T08:15:01Z</time></trkpt><trkpt lat="45.87520307087697" lon="9.403168390143072"><ele>422.0</ele><time>2026-04-26T08:15:02Z</time></trkpt><trkpt lat="45.87531921411131" lon="9.40327687952991"><ele>422.0</ele><time>2026-04-26T08:15:03Z</time></trkpt><trkpt lat="45.875462184706954" lon="9.403398803522675"><ele>422.0</ele><time>2026-04-26T08:15:04Z</time></trkpt><trkpt lat="45.87562921609835" lon="9.403507437303718"><ele>422.0</ele><time>2026-04-26T08:15:05Z</time></trkpt><trkpt lat="45.87579710321199" lon="9.403651373047285"><ele>419.0</ele><time>2026-04-26T08:15:06Z</time></trkpt><trkpt lat="45.87596120588061" lon="9.403766761243723"><ele>416.0</ele><time>2026-04-26T08:15:07Z</time></trkpt><trkpt lat="45.876086811257814" lon="9.40385200016393"><ele>413.0</ele><time>2026-04-26T08:15:08Z</time></trkpt><trkpt lat="45.87621676727998" lon="9.4039340556063"><ele>413.0</ele><time>2026-04-26T08:15:09Z</time></trkpt><trkpt lat="45.876349150369094" lon="9.40399954644383"><ele>413.0</ele><time>2026-04-26T08:15:10Z</time></trkpt><trkpt lat="45.87648747429385" lon="9.404047584867564"><ele>413.0</ele><time>2026-04-26T08:15:11Z</time></trkpt><trkpt lat="45.87660726150088" lon="9.404096228919377"><ele>413.0</ele><time>2026-04-26T08:15:12Z</time></trkpt><trkpt lat="45.876716913317736" lon="9.404157221943988"><ele>422.3333333333333</ele><time>2026-04-26T08:15:13Z</time></trkpt><trkpt lat="45.87684579613928" lon="9.404238342320838"><ele>431.66666666666663</ele><time>2026-04-26T08:15:14Z</time></trkpt><trkpt lat="45.877012491991614" lon="9.404390671940805"><ele>441.0</ele><time>2026-04-26T08:15:15Z</time></trkpt><trkpt lat="45.877216165245606" lon="9.404553966281982"><ele>439.0</ele><time>2026-04-26T08:15:16Z</time></trkpt><trkpt lat="45.877435861884265" lon="9.404730106222852"><ele>437.0</ele><time>2026-04-26T08:15:17Z</time></trkpt><trkpt lat="45.87763478632844" lon="9.404872088361085"><ele>437.0</ele><time>2026-04-26T08:15:18Z</time></trkpt><trkpt lat="45.8777961766912" lon="9.405005241988373"><ele>437.0</ele><time>2026-04-26T08:15:19Z</time></trkpt><trkpt lat="45.877939539376094" lon="9.405125958929075"><ele>437.0</ele><time>2026-04-26T08:15:20Z</time></trkpt><trkpt lat="45.878044726045744" lon="9.405270003056039"><ele>437.0</ele><time>2026-04-26T08:15:21Z</time></trkpt><trkpt lat="45.878132781369004" lon="9.405426815146008"><ele>437.0</ele><time>2026-04-26T08:15:22Z</time></trkpt><trkpt lat="45.87820790337774" lon="9.40558950262387"><ele>437.0</ele><time>2026-04-26T08:15:23Z</time></trkpt><trkpt lat="45.878273375478315" lon="9.405742270895507"><ele>437.0</ele><time>2026-04-26T08:15:24Z</time></trkpt><trkpt lat="45.878338730071" lon="9.405886967937322"><ele>436.5</ele><time>2026-04-26T08:15:25Z</time></trkpt><trkpt lat="45.8784150073979" lon="9.406021709518757"><ele>436.0</ele><time>2026-04-26T08:15:26Z</time></trkpt><trkpt lat="45.87848302194976" lon="9.406164276478435"><ele>435.5</ele><time>2026-04-26T08:15:27Z</time></trkpt><trkpt lat="45.87854616107428" lon="9.406276098837107"><ele>435.0</ele><time>2026-04-26T08:15:28Z</time></trkpt><trkpt lat="45.878622897322344" lon="9.406392081251349"><ele>435.0</ele><time>2026-04-26T08:15:29Z</time></trkpt><trkpt lat="45.878698423844035" lon="9.406504169933987"><ele>435.0</ele><time>2026-04-26T08:15:30Z</time></trkpt><trkpt lat="45.87876272944067" lon="9.406605746543093"><ele>435.0</ele><time>2026-04-26T08:15:31Z</time></trkpt><trkpt lat="45.87883376648747" lon="9.406683101070895"><ele>435.0</ele><time>2026-04-26T08:15:32Z</time></trkpt><trkpt lat="45.878893654132355" lon="9.406760548865863"><ele>435.0</ele><time>2026-04-26T08:15:33Z</time></trkpt><trkpt lat="45.87895947764947" lon="9.406845144843908"><ele>435.0</ele><time>2026-04-26T08:15:34Z</time></trkpt><trkpt lat="45.87901699938803" lon="9.406921729465884"><ele>435.0</ele><time>2026-04-26T08:15:35Z</time></trkpt><trkpt lat="45.87906575254932" lon="9.406981188964325"><ele>435.0</ele><time>2026-04-26T08:15:36Z</time></trkpt><trkpt lat="45.879134645659484" lon="9.40706121131453"><ele>435.0</ele><time>2026-04-26T08:15:38Z</time></trkpt><trkpt lat="45.87921446811778" lon="9.407129700550207"><ele>435.0</ele><time>2026-04-26T08:15:40Z</time></trkpt><trkpt lat="45.87928781355913" lon="9.40712701752547"><ele>435.0</ele><time>2026-04-26T08:15:41Z</time></trkpt><trkpt lat="45.87936553529058" lon="9.407176708613898"><ele>435.4</ele><time>2026-04-26T08:15:42Z</time></trkpt><trkpt lat="45.87945185061855" lon="9.40722769142344"><ele>435.8</ele><time>2026-04-26T08:15:43Z</time></trkpt><trkpt lat="45.87955982919043" lon="9.407291864191674"><ele>436.20000000000005</ele><time>2026-04-26T08:15:44Z</time></trkpt><trkpt lat="45.879655585516545" lon="9.407350859787961"><ele>436.6</ele><time>2026-04-26T08:15:45Z</time></trkpt><trkpt lat="45.879751574342144" lon="9.407382433730154"><ele>437.0</ele><time>2026-04-26T08:15:46Z</time></trkpt><trkpt lat="45.879830701849485" lon="9.407436822683483"><ele>437.0</ele><time>2026-04-26T08:15:47Z</time></trkpt><trkpt lat="45.879926945271585" lon="9.407490120246708"><ele>437.00000000000006</ele><time>2026-04-26T08:15:48Z</time></trkpt><trkpt lat="45.880008652685646" lon="9.40752294306136"><ele>437.00000000000006</ele><time>2026-04-26T08:15:49Z</time></trkpt><trkpt lat="45.8800811495887" lon="9.407522652441417"><ele>437.0</ele><time>2026-04-26T08:15:50Z</time></trkpt><trkpt lat="45.8802023349145" lon="9.40755578161876"><ele>437.0</ele><time>2026-04-26T08:15:52Z</time></trkpt><trkpt lat="45.88032434093326" lon="9.407644458624658"><ele>436.8</ele><time>2026-04-26T08:15:54Z</time></trkpt><trkpt lat="45.880405308927244" lon="9.40762927061199"><ele>436.6</ele><time>2026-04-26T08:15:55Z</time></trkpt><trkpt lat="45.880492507868595" lon="9.407699183945743"><ele>436.40000000000003</ele><time>2026-04-26T08:15:56Z</time></trkpt><trkpt lat="45.88059003712113" lon="9.407799749123575"><ele>436.20000000000005</ele><time>2026-04-26T08:15:57Z</time></trkpt><trkpt lat="45.88069365753628" lon="9.407925047317612"><ele>436.0</ele><time>2026-04-26T08:15:58Z</time></trkpt><trkpt lat="45.88078512563296" lon="9.408055471846504"><ele>436.0</ele><time>2026-04-26T08:15:59Z</time></trkpt><trkpt lat="45.88087962317542" lon="9.408186443934932"><ele>436.0</ele><time>2026-04-26T08:16:00Z</time></trkpt><trkpt lat="45.88094160678517" lon="9.408279972766879"><ele>436.0</ele><time>2026-04-26T08:16:01Z</time></trkpt><trkpt lat="45.881007135031965" lon="9.408370189877871"><ele>436.0</ele><time>2026-04-26T08:16:02Z</time></trkpt><trkpt lat="45.88107823829016" lon="9.40843722374957"><ele>436.0</ele><time>2026-04-26T08:16:03Z</time></trkpt><trkpt lat="45.88113675755176" lon="9.408531416823067"><ele>438.8</ele><time>2026-04-26T08:16:04Z</time></trkpt><trkpt lat="45.88121063837153" lon="9.408627040700246"><ele>441.6</ele><time>2026-04-26T08:16:05Z</time></trkpt><trkpt lat="45.881285225701546" lon="9.408733468319928"><ele>444.4</ele><time>2026-04-26T08:16:06Z</time></trkpt><trkpt lat="45.88136655985478" lon="9.408817905931258"><ele>447.2</ele><time>2026-04-26T08:16:07Z</time></trkpt><trkpt lat="45.88149620800677" lon="9.408861420169783"><ele>450.0</ele><time>2026-04-26T08:16:08Z</time></trkpt><trkpt lat="45.8816296120137" lon="9.408945412309683"><ele>452.33333333333337</ele><time>2026-04-26T08:16:09Z</time></trkpt><trkpt lat="45.88179145669876" lon="9.409023227116018"><ele>454.6666666666667</ele><time>2026-04-26T08:16:10Z</time></trkpt><trkpt lat="45.88196602855594" lon="9.4090767246812"><ele>457.0</ele><time>2026-04-26T08:16:11Z</time></trkpt><trkpt lat="45.88210325910013" lon="9.409104364725343"><ele>457.0</ele><time>2026-04-26T08:16:12Z</time></trkpt><trkpt lat="45.88222556535263" lon="9.409188230398149"><ele>457.0</ele><time>2026-04-26T08:16:13Z</time></trkpt><trkpt lat="45.882356240581096" lon="9.409309373007796"><ele>457.0</ele><time>2026-04-26T08:16:14Z</time></trkpt><trkpt lat="45.882493312417104" lon="9.409474569779107"><ele>457.0</ele><time>2026-04-26T08:16:15Z</time></trkpt><trkpt lat="45.882602681460455" lon="9.409606229057749"><ele>457.0</ele><time>2026-04-26T08:16:16Z</time></trkpt><trkpt lat="45.882750770997134" lon="9.40966597074082"><ele>457.0</ele><time>2026-04-26T08:16:17Z</time></trkpt><trkpt lat="45.88291331493718" lon="9.409636428596944"><ele>457.0</ele><time>2026-04-26T08:16:18Z</time></trkpt><trkpt lat="45.88305083471208" lon="9.40959571304035"><ele>457.0</ele><time>2026-04-26T08:16:19Z</time></trkpt><trkpt lat="45.88321652308443" lon="9.40951557735186"><ele>457.0</ele><time>2026-04-26T08:16:20Z</time></trkpt><trkpt lat="45.88341550911693" lon="9.40939602793067"><ele>465.6666666666667</ele><time>2026-04-26T08:16:21Z</time></trkpt><trkpt lat="45.88360490204031" lon="9.409259801639061"><ele>474.33333333333337</ele><time>2026-04-26T08:16:22Z</time></trkpt><trkpt lat="45.88376718097765" lon="9.409165554310233"><ele>483.0</ele><time>2026-04-26T08:16:23Z</time></trkpt><trkpt lat="45.88390219690971" lon="9.409056542734644"><ele>483.0</ele><time>2026-04-26T08:16:24Z</time></trkpt><trkpt lat="45.88400876440889" lon="9.408995941574062"><ele>482.99999999999994</ele><time>2026-04-26T08:16:25Z</time></trkpt><trkpt lat="45.88407148282588" lon="9.40890160186381"><ele>482.99999999999994</ele><time>2026-04-26T08:16:26Z</time></trkpt><trkpt lat="45.88409149455001" lon="9.408987732966887"><ele>483.0</ele><time>2026-04-26T08:16:27Z</time></trkpt><trkpt lat="45.88413975456499" lon="9.409069715181115"><ele>483.0</ele><time>2026-04-26T08:16:28Z</time></trkpt><trkpt lat="45.88405962723185" lon="9.409258425239647"><ele>483.0</ele><time>2026-04-26T08:16:30Z</time></trkpt><trkpt lat="45.88397330492976" lon="9.409317449092734"><ele>482.99999999999994</ele><time>2026-04-26T08:16:31Z</time></trkpt><trkpt lat="45.88385853722794" lon="9.409383823749282"><ele>482.99999999999994</ele><time>2026-04-26T08:16:32Z</time></trkpt><trkpt lat="45.88375835698791" lon="9.40941357817066"><ele>483.0</ele><time>2026-04-26T08:16:33Z</time></trkpt><trkpt lat="45.88370122290177" lon="9.409451767729863"><ele>483.0</ele><time>2026-04-26T08:16:34Z</time></trkpt><trkpt lat="45.883642054519896" lon="9.409498213886385"><ele>483.0</ele><time>2026-04-26T08:16:35Z</time></trkpt><trkpt lat="45.883570653614136" lon="9.409547314887197"><ele>483.0</ele><time>2026-04-26T08:16:36Z</time></trkpt><trkpt lat="45.88349611589084" lon="9.409581175664059"><ele>483.0</ele><time>2026-04-26T08:16:37Z</time></trkpt><trkpt lat="45.883431455582816" lon="9.409627944540794"><ele>483.0</ele><time>2026-04-26T08:16:38Z</time></trkpt><trkpt lat="45.88338840769069" lon="9.409708320433506"><ele>483.0</ele><time>2026-04-26T08:16:39Z</time></trkpt><trkpt lat="45.88337891182352" lon="9.409802141602057"><ele>483.0</ele><time>2026-04-26T08:16:40Z</time></trkpt><trkpt lat="45.883396092425656" lon="9.409895418013697"><ele>483.0</ele><time>2026-04-26T08:16:41Z</time></trkpt><trkpt lat="45.88346549433302" lon="9.41000539604229"><ele>483.33333333333337</ele><time>2026-04-26T08:16:42Z</time></trkpt><trkpt lat="45.88356475649165" lon="9.410136632560988"><ele>483.6666666666667</ele><time>2026-04-26T08:16:43Z</time></trkpt><trkpt lat="45.88368737072716" lon="9.410288612296863"><ele>484.0</ele><time>2026-04-26T08:16:44Z</time></trkpt><trkpt lat="45.883843226154106" lon="9.410537665117689"><ele>484.0</ele><time>2026-04-26T08:16:45Z</time></trkpt><trkpt lat="45.88393919101152" lon="9.410767473282576"><ele>484.0</ele><time>2026-04-26T08:16:46Z</time></trkpt><trkpt lat="45.8840194543859" lon="9.411027019792142"><ele>484.0</ele><time>2026-04-26T08:16:47Z</time></trkpt><trkpt lat="45.8840812212223" lon="9.411266550548492"><ele>485.25</ele><time>2026-04-26T08:16:48Z</time></trkpt><trkpt lat="45.88414832596736" lon="9.411456121203573"><ele>486.5</ele><time>2026-04-26T08:16:49Z</time></trkpt><trkpt lat="45.88424594338434" lon="9.411597392465955"><ele>487.75</ele><time>2026-04-26T08:16:50Z</time></trkpt><trkpt lat="45.88436379932171" lon="9.41168768280772"><ele>489.0</ele><time>2026-04-26T08:16:51Z</time></trkpt><trkpt lat="45.88450418692634" lon="9.4116546220559"><ele>493.5</ele><time>2026-04-26T08:16:52Z</time></trkpt><trkpt lat="45.88463773465427" lon="9.411572086367121"><ele>498.0</ele><time>2026-04-26T08:16:53Z</time></trkpt><trkpt lat="45.884739914121155" lon="9.411422175902555"><ele>502.5</ele><time>2026-04-26T08:16:54Z</time></trkpt><trkpt lat="45.8847461003052" lon="9.411242578539836"><ele>507.0</ele><time>2026-04-26T08:16:55Z</time></trkpt><trkpt lat="45.884738026173764" lon="9.411083560511418"><ele>509.0</ele><time>2026-04-26T08:16:56Z</time></trkpt><trkpt lat="45.88469941027776" lon="9.410859704969393"><ele>511.0</ele><time>2026-04-26T08:16:57Z</time></trkpt><trkpt lat="45.88466548805998" lon="9.410608627308743"><ele>513.0</ele><time>2026-04-26T08:16:58Z</time></trkpt><trkpt lat="45.88463514434985" lon="9.410503610006629"><ele>515.0</ele><time>2026-04-26T08:16:59Z</time></trkpt><trkpt lat="45.88463759648878" lon="9.410388663494691"><ele>515.0</ele><time>2026-04-26T08:17:00Z</time></trkpt><trkpt lat="45.88466735889778" lon="9.410282926650732"><ele>515.0</ele><time>2026-04-26T08:17:01Z</time></trkpt><trkpt lat="45.884768524666775" lon="9.41021217692624"><ele>515.0</ele><time>2026-04-26T08:17:03Z</time></trkpt><trkpt lat="45.88483866893216" lon="9.410267658207575"><ele>515.0</ele><time>2026-04-26T08:17:04Z</time></trkpt><trkpt lat="45.884854885602934" lon="9.41040144269271"><ele>515.0</ele><time>2026-04-26T08:17:05Z</time></trkpt><trkpt lat="45.884889598806474" lon="9.410573445655999"><ele>515.0</ele><time>2026-04-26T08:17:06Z</time></trkpt><trkpt lat="45.88499711164948" lon="9.410822455965457"><ele>515.0</ele><time>2026-04-26T08:17:07Z</time></trkpt><trkpt lat="45.88514424850964" lon="9.411042381511042"><ele>515.0</ele><time>2026-04-26T08:17:08Z</time></trkpt><trkpt lat="45.88529839317944" lon="9.411324307681351"><ele>527.0</ele><time>2026-04-26T08:17:09Z</time></trkpt><trkpt lat="45.88544796837224" lon="9.411583469472259"><ele>539.0</ele><time>2026-04-26T08:17:10Z</time></trkpt><trkpt lat="45.8855524243637" lon="9.41182685225041"><ele>551.0</ele><time>2026-04-26T08:17:11Z</time></trkpt><trkpt lat="45.88567001968942" lon="9.412155807828011"><ele>540.5</ele><time>2026-04-26T08:17:12Z</time></trkpt><trkpt lat="45.88580272047068" lon="9.412548397836057"><ele>530.0</ele><time>2026-04-26T08:17:13Z</time></trkpt><trkpt lat="45.88593297866398" lon="9.4129348101026"><ele>545.0</ele><time>2026-04-26T08:17:14Z</time></trkpt><trkpt lat="45.88604572440926" lon="9.413269658748924"><ele>560.0</ele><time>2026-04-26T08:17:15Z</time></trkpt><trkpt lat="45.88613749204997" lon="9.413544584348646"><ele>560.0</ele><time>2026-04-26T08:17:16Z</time></trkpt><trkpt lat="45.886206843693714" lon="9.413783855738018"><ele>560.0</ele><time>2026-04-26T08:17:17Z</time></trkpt><trkpt lat="45.88622781436052" lon="9.414014032746245"><ele>560.0</ele><time>2026-04-26T08:17:18Z</time></trkpt><trkpt lat="45.88620712233463" lon="9.41426350421138"><ele>563.0</ele><time>2026-04-26T08:17:19Z</time></trkpt><trkpt lat="45.886182226619816" lon="9.414561675098415"><ele>566.0</ele><time>2026-04-26T08:17:20Z</time></trkpt><trkpt lat="45.886153279090145" lon="9.41490479632575"><ele>572.0</ele><time>2026-04-26T08:17:21Z</time></trkpt><trkpt lat="45.886124985876876" lon="9.4152341172791"><ele>578.0</ele><time>2026-04-26T08:17:22Z</time></trkpt><trkpt lat="45.88612613192565" lon="9.415556314058893"><ele>578.0</ele><time>2026-04-26T08:17:23Z</time></trkpt><trkpt lat="45.8861651951982" lon="9.415851414187992"><ele>578.0</ele><time>2026-04-26T08:17:24Z</time></trkpt><trkpt lat="45.886243774445354" lon="9.416148052972332"><ele>578.0</ele><time>2026-04-26T08:17:25Z</time></trkpt><trkpt lat="45.886316120546574" lon="9.416485087471242"><ele>576.0</ele><time>2026-04-26T08:17:26Z</time></trkpt><trkpt lat="45.88638667390421" lon="9.41675796200601"><ele>574.0</ele><time>2026-04-26T08:17:27Z</time></trkpt><trkpt lat="45.886470596685136" lon="9.416956207908775"><ele>572.0</ele><time>2026-04-26T08:17:28Z</time></trkpt><trkpt lat="45.88655909359999" lon="9.417083233184538"><ele>570.0</ele><time>2026-04-26T08:17:29Z</time></trkpt><trkpt lat="45.88667892566302" lon="9.417162179881979"><ele>568.0</ele><time>2026-04-26T08:17:30Z</time></trkpt><trkpt lat="45.88684749812782" lon="9.417235039106012"><ele>566.0</ele><time>2026-04-26T08:17:31Z</time></trkpt><trkpt lat="45.887018870284166" lon="9.417351962604648"><ele>572.25</ele><time>2026-04-26T08:17:32Z</time></trkpt><trkpt lat="45.887168458613495" lon="9.41744375598402"><ele>578.5</ele><time>2026-04-26T08:17:33Z</time></trkpt><trkpt lat="45.88728679455081" lon="9.417527204190574"><ele>584.75</ele><time>2026-04-26T08:17:34Z</time></trkpt><trkpt lat="45.88735458200179" lon="9.417621746030612"><ele>591.0</ele><time>2026-04-26T08:17:35Z</time></trkpt><trkpt lat="45.88737617637658" lon="9.417724275616985"><ele>591.0</ele><time>2026-04-26T08:17:36Z</time></trkpt><trkpt lat="45.88731769283274" lon="9.417889561483825"><ele>591.0</ele><time>2026-04-26T08:17:38Z</time></trkpt><trkpt lat="45.88721224902007" lon="9.417931118346592"><ele>591.0</ele><time>2026-04-26T08:17:39Z</time></trkpt><trkpt lat="45.88708975749846" lon="9.417964181715302"><ele>591.0</ele><time>2026-04-26T08:17:40Z</time></trkpt><trkpt lat="45.88698227626906" lon="9.418029353771956"><ele>591.3333333333334</ele><time>2026-04-26T08:17:41Z</time></trkpt><trkpt lat="45.88683344150822" lon="9.418124100102192"><ele>591.6666666666667</ele><time>2026-04-26T08:17:42Z</time></trkpt><trkpt lat="45.88667077762588" lon="9.418329415585177"><ele>592.0</ele><time>2026-04-26T08:17:43Z</time></trkpt><trkpt lat="45.88650323510065" lon="9.418558357179842"><ele>594.6666666666667</ele><time>2026-04-26T08:17:44Z</time></trkpt><trkpt lat="45.886330073052825" lon="9.41877637980602"><ele>597.3333333333334</ele><time>2026-04-26T08:17:45Z</time></trkpt><trkpt lat="45.88626524049504" lon="9.418857361614673"><ele>600.0</ele><time>2026-04-26T08:17:46Z</time></trkpt><trkpt lat="45.88612745350164" lon="9.418900375213068"><ele>600.0</ele><time>2026-04-26T08:17:47Z</time></trkpt><trkpt lat="45.885936230744335" lon="9.419004060498352"><ele>600.0</ele><time>2026-04-26T08:17:48Z</time></trkpt><trkpt lat="45.88569506055867" lon="9.419008007818242"><ele>600.0</ele><time>2026-04-26T08:17:49Z</time></trkpt><trkpt lat="45.88544815909326" lon="9.418980032099096"><ele>598.0</ele><time>2026-04-26T08:17:50Z</time></trkpt><trkpt lat="45.88518990149525" lon="9.418957159378325"><ele>596.0</ele><time>2026-04-26T08:17:51Z</time></trkpt><trkpt lat="45.884935368432494" lon="9.418951475572776"><ele>596.0</ele><time>2026-04-26T08:17:52Z</time></trkpt><trkpt lat="45.884709740654344" lon="9.41895504427935"><ele>596.0</ele><time>2026-04-26T08:17:53Z</time></trkpt><trkpt lat="45.88452245060102" lon="9.418946471589939"><ele>596.0</ele><time>2026-04-26T08:17:54Z</time></trkpt><trkpt lat="45.88438393976388" lon="9.418953091972236"><ele>599.0</ele><time>2026-04-26T08:17:55Z</time></trkpt><trkpt lat="45.88425910274719" lon="9.418960762971649"><ele>602.0</ele><time>2026-04-26T08:17:56Z</time></trkpt><trkpt lat="45.8841523031448" lon="9.418998426966619"><ele>605.0</ele><time>2026-04-26T08:17:57Z</time></trkpt><trkpt lat="45.88406348481463" lon="9.419151591742214"><ele>608.0</ele><time>2026-04-26T08:17:58Z</time></trkpt><trkpt lat="45.88406015723681" lon="9.419362072002132"><ele>608.0</ele><time>2026-04-26T08:17:59Z</time></trkpt><trkpt lat="45.884203912750074" lon="9.419527294392145"><ele>608.0</ele><time>2026-04-26T08:18:00Z</time></trkpt><trkpt lat="45.884286420890504" lon="9.419600024463609"><ele>608.0</ele><time>2026-04-26T08:18:01Z</time></trkpt><trkpt lat="45.88438814269953" lon="9.419513250569032"><ele>608.0</ele><time>2026-04-26T08:18:02Z</time></trkpt><trkpt lat="45.88453149814307" lon="9.419508526620797"><ele>604.0</ele><time>2026-04-26T08:18:03Z</time></trkpt><trkpt lat="45.88470960875082" lon="9.419499799397606"><ele>600.0</ele><time>2026-04-26T08:18:04Z</time></trkpt><trkpt lat="45.88493522462003" lon="9.419545705633874"><ele>596.0</ele><time>2026-04-26T08:18:05Z</time></trkpt><trkpt lat="45.885167838190775" lon="9.419602666563325"><ele>595.3333333333333</ele><time>2026-04-26T08:18:06Z</time></trkpt><trkpt lat="45.88537487771196" lon="9.419649632927081"><ele>594.6666666666666</ele><time>2026-04-26T08:18:07Z</time></trkpt><trkpt lat="45.88557120649136" lon="9.419729324026902"><ele>594.0</ele><time>2026-04-26T08:18:08Z</time></trkpt><trkpt lat="45.8857688723123" lon="9.419869472325335"><ele>603.0</ele><time>2026-04-26T08:18:09Z</time></trkpt><trkpt lat="45.885964596765106" lon="9.420038213111955"><ele>612.0</ele><time>2026-04-26T08:18:10Z</time></trkpt><trkpt lat="45.886144915006255" lon="9.420185094820734"><ele>621.0</ele><time>2026-04-26T08:18:11Z</time></trkpt><trkpt lat="45.88637821698639" lon="9.420237700686455"><ele>621.0</ele><time>2026-04-26T08:18:12Z</time></trkpt><trkpt lat="45.88657741013748" lon="9.420285313950224"><ele>621.0</ele><time>2026-04-26T08:18:13Z</time></trkpt><trkpt lat="45.88678448596927" lon="9.420253647632551"><ele>621.0</ele><time>2026-04-26T08:18:14Z</time></trkpt><trkpt lat="45.88698857090734" lon="9.420195451727873"><ele>625.3333333333334</ele><time>2026-04-26T08:18:15Z</time></trkpt><trkpt lat="45.88719187520591" lon="9.420128822007984"><ele>629.6666666666667</ele><time>2026-04-26T08:18:16Z</time></trkpt><trkpt lat="45.88737407352717" lon="9.420097557147859"><ele>634.0</ele><time>2026-04-26T08:18:17Z</time></trkpt><trkpt lat="45.88753024838641" lon="9.420124686425448"><ele>636.6666666666667</ele><time>2026-04-26T08:18:18Z</time></trkpt><trkpt lat="45.887683649214495" lon="9.420218249015585"><ele>639.3333333333334</ele><time>2026-04-26T08:18:19Z</time></trkpt><trkpt lat="45.88779766443554" lon="9.420351709002619"><ele>642.0</ele><time>2026-04-26T08:18:20Z</time></trkpt><trkpt lat="45.887921507354406" lon="9.420512605702749"><ele>642.0</ele><time>2026-04-26T08:18:21Z</time></trkpt><trkpt lat="45.88807901425057" lon="9.420701782164258"><ele>642.0</ele><time>2026-04-26T08:18:22Z</time></trkpt><trkpt lat="45.88824567001807" lon="9.420818604825737"><ele>642.0</ele><time>2026-04-26T08:18:23Z</time></trkpt><trkpt lat="45.8884104615814" lon="9.420862728380788"><ele>643.75</ele><time>2026-04-26T08:18:24Z</time></trkpt><trkpt lat="45.88855803453597" lon="9.420903586838621"><ele>645.5</ele><time>2026-04-26T08:18:25Z</time></trkpt><trkpt lat="45.88871026764039" lon="9.420918496131396"><ele>647.25</ele><time>2026-04-26T08:18:26Z</time></trkpt><trkpt lat="45.88883369986124" lon="9.420962195218246"><ele>649.0</ele><time>2026-04-26T08:18:27Z</time></trkpt><trkpt lat="45.888940418780805" lon="9.42102044426765"><ele>649.0</ele><time>2026-04-26T08:18:28Z</time></trkpt><trkpt lat="45.88903750500282" lon="9.421075780767648"><ele>649.0</ele><time>2026-04-26T08:18:29Z</time></trkpt><trkpt lat="45.88913276537423" lon="9.421130667060043"><ele>649.0</ele><time>2026-04-26T08:18:30Z</time></trkpt><trkpt lat="45.88923886787221" lon="9.421202992840513"><ele>649.0</ele><time>2026-04-26T08:18:31Z</time></trkpt><trkpt lat="45.88934864739108" lon="9.421287937997214"><ele>649.0</ele><time>2026-04-26T08:18:32Z</time></trkpt><trkpt lat="45.88946053596355" lon="9.421388339016973"><ele>649.3333333333334</ele><time>2026-04-26T08:18:33Z</time></trkpt><trkpt lat="45.889608050985764" lon="9.421537628301285"><ele>649.6666666666666</ele><time>2026-04-26T08:18:34Z</time></trkpt><trkpt lat="45.889773246876814" lon="9.421706328133698"><ele>650.0</ele><time>2026-04-26T08:18:35Z</time></trkpt><trkpt lat="45.88992220268642" lon="9.421859418692621"><ele>650.0</ele><time>2026-04-26T08:18:36Z</time></trkpt><trkpt lat="45.89007475587437" lon="9.421995168396844"><ele>650.0</ele><time>2026-04-26T08:18:37Z</time></trkpt><trkpt lat="45.89020955971624" lon="9.422152938829313"><ele>650.0</ele><time>2026-04-26T08:18:38Z</time></trkpt><trkpt lat="45.89036314051648" lon="9.422309363500988"><ele>649.0</ele><time>2026-04-26T08:18:39Z</time></trkpt><trkpt lat="45.89051333878207" lon="9.422462344974099"><ele>648.0</ele><time>2026-04-26T08:18:40Z</time></trkpt><trkpt lat="45.89065844714978" lon="9.422610140419458"><ele>647.0</ele><time>2026-04-26T08:18:41Z</time></trkpt><trkpt lat="45.890811708378756" lon="9.422766239896397"><ele>647.6666666666666</ele><time>2026-04-26T08:18:42Z</time></trkpt><trkpt lat="45.890958550479915" lon="9.422915922696559"><ele>648.3333333333334</ele><time>2026-04-26T08:18:43Z</time></trkpt><trkpt lat="45.89110818408728" lon="9.423068756524971"><ele>649.0</ele><time>2026-04-26T08:18:44Z</time></trkpt><trkpt lat="45.89126858607359" lon="9.423208989717866"><ele>649.0</ele><time>2026-04-26T08:18:45Z</time></trkpt><trkpt lat="45.89142016796197" lon="9.423373330893085"><ele>649.0</ele><time>2026-04-26T08:18:46Z</time></trkpt><trkpt lat="45.89159353729972" lon="9.423536320734682"><ele>649.0</ele><time>2026-04-26T08:18:47Z</time></trkpt><trkpt lat="45.89175260893424" lon="9.423697167428402"><ele>650.3333333333334</ele><time>2026-04-26T08:18:48Z</time></trkpt><trkpt lat="45.891903801903986" lon="9.423853598123227"><ele>651.6666666666666</ele><time>2026-04-26T08:18:49Z</time></trkpt><trkpt lat="45.89205982752589" lon="9.424016884740569"><ele>653.0</ele><time>2026-04-26T08:18:50Z</time></trkpt><trkpt lat="45.8922145685686" lon="9.42417779090217"><ele>653.0</ele><time>2026-04-26T08:18:51Z</time></trkpt><trkpt lat="45.8923701481593" lon="9.424333298148683"><ele>653.0</ele><time>2026-04-26T08:18:52Z</time></trkpt><trkpt lat="45.892519930951934" lon="9.42448792495329"><ele>653.0</ele><time>2026-04-26T08:18:53Z</time></trkpt><trkpt lat="45.89266632713774" lon="9.42463762331251"><ele>654.0</ele><time>2026-04-26T08:18:54Z</time></trkpt><trkpt lat="45.892816734223096" lon="9.424783139207651"><ele>655.0</ele><time>2026-04-26T08:18:55Z</time></trkpt><trkpt lat="45.89295712996755" lon="9.424953199940978"><ele>656.0</ele><time>2026-04-26T08:18:56Z</time></trkpt><trkpt lat="45.893119260154926" lon="9.425091825906712"><ele>656.0</ele><time>2026-04-26T08:18:57Z</time></trkpt><trkpt lat="45.89328882866312" lon="9.425255655827806"><ele>656.0</ele><time>2026-04-26T08:18:58Z</time></trkpt><trkpt lat="45.89348147669348" lon="9.42538240099039"><ele>656.0</ele><time>2026-04-26T08:18:59Z</time></trkpt><trkpt lat="45.89370725226962" lon="9.42545573582573"><ele>657.6666666666666</ele><time>2026-04-26T08:19:00Z</time></trkpt><trkpt lat="45.8939249150635" lon="9.42550109511369"><ele>659.3333333333334</ele><time>2026-04-26T08:19:01Z</time></trkpt><trkpt lat="45.8941349256194" lon="9.425536786506841"><ele>661.0</ele><time>2026-04-26T08:19:02Z</time></trkpt><trkpt lat="45.894437771749175" lon="9.425496630859802"><ele>663.0</ele><time>2026-04-26T08:19:03Z</time></trkpt><trkpt lat="45.894732449893" lon="9.425437534961366"><ele>665.0</ele><time>2026-04-26T08:19:04Z</time></trkpt><trkpt lat="45.89503371072102" lon="9.425380075486837"><ele>667.5</ele><time>2026-04-26T08:19:05Z</time></trkpt><trkpt lat="45.895321150108295" lon="9.42535596886031"><ele>670.0</ele><time>2026-04-26T08:19:06Z</time></trkpt><trkpt lat="45.895558137642624" lon="9.425326151219604"><ele>670.0</ele><time>2026-04-26T08:19:07Z</time></trkpt><trkpt lat="45.895751107957174" lon="9.425303364167641"><ele>670.0</ele><time>2026-04-26T08:19:08Z</time></trkpt><trkpt lat="45.895880302200744" lon="9.425291106423744"><ele>670.0</ele><time>2026-04-26T08:19:09Z</time></trkpt><trkpt lat="45.89596816249308" lon="9.425309071905238"><ele>670.0</ele><time>2026-04-26T08:19:10Z</time></trkpt><trkpt lat="45.896028222494714" lon="9.425361220001239"><ele>671.2</ele><time>2026-04-26T08:19:11Z</time></trkpt><trkpt lat="45.896086474100734" lon="9.425458091696857"><ele>672.4</ele><time>2026-04-26T08:19:12Z</time></trkpt><trkpt lat="45.896134793901794" lon="9.425588007733005"><ele>673.5999999999999</ele><time>2026-04-26T08:19:13Z</time></trkpt><trkpt lat="45.89619673944797" lon="9.425679275143333"><ele>674.8</ele><time>2026-04-26T08:19:14Z</time></trkpt><trkpt lat="45.89628945251438" lon="9.425683431693876"><ele>676.0</ele><time>2026-04-26T08:19:15Z</time></trkpt><trkpt lat="45.89637643562836" lon="9.425599988239213"><ele>676.0</ele><time>2026-04-26T08:19:16Z</time></trkpt><trkpt lat="45.89643045269476" lon="9.425470488473795"><ele>676.0</ele><time>2026-04-26T08:19:17Z</time></trkpt><trkpt lat="45.896458448444044" lon="9.425324856508247"><ele>676.0</ele><time>2026-04-26T08:19:18Z</time></trkpt><trkpt lat="45.896495819623134" lon="9.42521537343"><ele>676.0</ele><time>2026-04-26T08:19:19Z</time></trkpt><trkpt lat="45.896566682708375" lon="9.425212196284841"><ele>676.0</ele><time>2026-04-26T08:19:20Z</time></trkpt><trkpt lat="45.89663754738162" lon="9.425221223311729"><ele>676.0</ele><time>2026-04-26T08:19:21Z</time></trkpt><trkpt lat="45.8967411088311" lon="9.42522290566641"><ele>678.0</ele><time>2026-04-26T08:19:22Z</time></trkpt><trkpt lat="45.89688889194922" lon="9.425243535826757"><ele>680.0</ele><time>2026-04-26T08:19:23Z</time></trkpt><trkpt lat="45.89705309939205" lon="9.425284682304763"><ele>682.0</ele><time>2026-04-26T08:19:24Z</time></trkpt><trkpt lat="45.8972409227416" lon="9.425374264711694"><ele>681.3333333333334</ele><time>2026-04-26T08:19:25Z</time></trkpt><trkpt lat="45.89744678397578" lon="9.425492460104946"><ele>680.6666666666666</ele><time>2026-04-26T08:19:26Z</time></trkpt><trkpt lat="45.897634538222476" lon="9.425577744251997"><ele>680.0</ele><time>2026-04-26T08:19:27Z</time></trkpt><trkpt lat="45.89778311475015" lon="9.425664629002432"><ele>681.75</ele><time>2026-04-26T08:19:28Z</time></trkpt><trkpt lat="45.89789619155526" lon="9.425754626079987"><ele>683.5</ele><time>2026-04-26T08:19:29Z</time></trkpt><trkpt lat="45.89800805924345" lon="9.425805710324568"><ele>685.25</ele><time>2026-04-26T08:19:30Z</time></trkpt><trkpt lat="45.89810495137082" lon="9.425877456340187"><ele>687.0</ele><time>2026-04-26T08:19:31Z</time></trkpt><trkpt lat="45.898211543524845" lon="9.425926640737616"><ele>687.0</ele><time>2026-04-26T08:19:32Z</time></trkpt><trkpt lat="45.898322726677755" lon="9.425986606061272"><ele>687.0</ele><time>2026-04-26T08:19:33Z</time></trkpt><trkpt lat="45.89841555104387" lon="9.426057607463376"><ele>687.0</ele><time>2026-04-26T08:19:34Z</time></trkpt><trkpt lat="45.89851844173641" lon="9.426118471093815"><ele>687.0</ele><time>2026-04-26T08:19:35Z</time></trkpt><trkpt lat="45.89864490875913" lon="9.426193278602526"><ele>688.0</ele><time>2026-04-26T08:19:36Z</time></trkpt><trkpt lat="45.89881795302572" lon="9.426293643376134"><ele>689.0</ele><time>2026-04-26T08:19:37Z</time></trkpt><trkpt lat="45.8990403647688" lon="9.426397067658732"><ele>690.0</ele><time>2026-04-26T08:19:38Z</time></trkpt><trkpt lat="45.899294696303635" lon="9.426473852003015"><ele>692.6666666666666</ele><time>2026-04-26T08:19:39Z</time></trkpt><trkpt lat="45.8995011500385" lon="9.426528970934289"><ele>695.3333333333333</ele><time>2026-04-26T08:19:40Z</time></trkpt><trkpt lat="45.899674301951315" lon="9.426575881774113"><ele>698.0</ele><time>2026-04-26T08:19:41Z</time></trkpt><trkpt lat="45.899847852843635" lon="9.426622900469106"><ele>698.0</ele><time>2026-04-26T08:19:42Z</time></trkpt><trkpt lat="45.90002649382962" lon="9.42667187382267"><ele>698.0</ele><time>2026-04-26T08:19:43Z</time></trkpt><trkpt lat="45.90017256981285" lon="9.42671384750971"><ele>698.0</ele><time>2026-04-26T08:19:44Z</time></trkpt><trkpt lat="45.900310847919485" lon="9.42675357853337"><ele>698.75</ele><time>2026-04-26T08:19:45Z</time></trkpt><trkpt lat="45.900440966897385" lon="9.426790965460158"><ele>699.5</ele><time>2026-04-26T08:19:46Z</time></trkpt><trkpt lat="45.90057686492729" lon="9.426830012665798"><ele>700.25</ele><time>2026-04-26T08:19:47Z</time></trkpt><trkpt lat="45.90070429119225" lon="9.426867540634094"><ele>701.0</ele><time>2026-04-26T08:19:48Z</time></trkpt><trkpt lat="45.90082810952047" lon="9.42690413835456"><ele>701.0</ele><time>2026-04-26T08:19:49Z</time></trkpt><trkpt lat="45.90095801077785" lon="9.426942534116026"><ele>701.0</ele><time>2026-04-26T08:19:50Z</time></trkpt><trkpt lat="45.901081283787086" lon="9.426978970696014"><ele>701.0</ele><time>2026-04-26T08:19:51Z</time></trkpt><trkpt lat="45.90120372487265" lon="9.427015161385167"><ele>701.0</ele><time>2026-04-26T08:19:52Z</time></trkpt><trkpt lat="45.901328517099664" lon="9.427051948954626"><ele>701.0</ele><time>2026-04-26T08:19:53Z</time></trkpt><trkpt lat="45.90145183363167" lon="9.427065406863878"><ele>701.0</ele><time>2026-04-26T08:19:54Z</time></trkpt><trkpt lat="45.90157963066578" lon="9.427120678693639"><ele>701.0</ele><time>2026-04-26T08:19:55Z</time></trkpt><trkpt lat="45.90172096957723" lon="9.427149642270688"><ele>701.0</ele><time>2026-04-26T08:19:56Z</time></trkpt><trkpt lat="45.901883630261324" lon="9.427195760272722"><ele>700.0</ele><time>2026-04-26T08:19:57Z</time></trkpt><trkpt lat="45.90208597808639" lon="9.427250871566194"><ele>699.0</ele><time>2026-04-26T08:19:58Z</time></trkpt><trkpt lat="45.902275051573774" lon="9.427324570481515"><ele>698.0</ele><time>2026-04-26T08:19:59Z</time></trkpt><trkpt lat="45.902434678104946" lon="9.427375855920628"><ele>698.0</ele><time>2026-04-26T08:20:00Z</time></trkpt><trkpt lat="45.90256671006968" lon="9.427410984033285"><ele>698.0</ele><time>2026-04-26T08:20:01Z</time></trkpt><trkpt lat="45.90269036081217" lon="9.42746056303311"><ele>698.0</ele><time>2026-04-26T08:20:02Z</time></trkpt><trkpt lat="45.90283707813206" lon="9.42751653386835"><ele>698.0</ele><time>2026-04-26T08:20:03Z</time></trkpt><trkpt lat="45.90300326308142" lon="9.427599700885011"><ele>697.3333333333333</ele><time>2026-04-26T08:20:04Z</time></trkpt><trkpt lat="45.90317165182693" lon="9.427688142342403"><ele>696.6666666666666</ele><time>2026-04-26T08:20:05Z</time></trkpt><trkpt lat="45.90332492345151" lon="9.427773252255891"><ele>696.0</ele><time>2026-04-26T08:20:06Z</time></trkpt><trkpt lat="45.90345897298029" lon="9.427825511314495"><ele>695.5</ele><time>2026-04-26T08:20:07Z</time></trkpt><trkpt lat="45.90357698919741" lon="9.427890762568767"><ele>695.0</ele><time>2026-04-26T08:20:08Z</time></trkpt><trkpt lat="45.90368580550885" lon="9.42797551095203"><ele>694.5</ele><time>2026-04-26T08:20:09Z</time></trkpt><trkpt lat="45.903798477999715" lon="9.428038676936968"><ele>694.0</ele><time>2026-04-26T08:20:10Z</time></trkpt><trkpt lat="45.903921881523125" lon="9.428099309753526"><ele>694.0</ele><time>2026-04-26T08:20:11Z</time></trkpt><trkpt lat="45.90407095773368" lon="9.428174276218618"><ele>694.0</ele><time>2026-04-26T08:20:12Z</time></trkpt><trkpt lat="45.90427723897732" lon="9.428307837406285"><ele>694.0</ele><time>2026-04-26T08:20:13Z</time></trkpt><trkpt lat="45.90454661598397" lon="9.42845956649778"><ele>691.5</ele><time>2026-04-26T08:20:14Z</time></trkpt><trkpt lat="45.904826328253655" lon="9.428594967581525"><ele>689.0</ele><time>2026-04-26T08:20:15Z</time></trkpt><trkpt lat="45.9051279719791" lon="9.428786662136371"><ele>688.0</ele><time>2026-04-26T08:20:16Z</time></trkpt><trkpt lat="45.905456099414" lon="9.428966670654022"><ele>687.0</ele><time>2026-04-26T08:20:17Z</time></trkpt><trkpt lat="45.90581296916756" lon="9.429168738846311"><ele>691.0</ele><time>2026-04-26T08:20:18Z</time></trkpt><trkpt lat="45.90617585514727" lon="9.429381048168269"><ele>695.0</ele><time>2026-04-26T08:20:19Z</time></trkpt><trkpt lat="45.90651357583198" lon="9.429592531415514"><ele>695.0</ele><time>2026-04-26T08:20:20Z</time></trkpt><trkpt lat="45.90682701134483" lon="9.429818830202288"><ele>695.0</ele><time>2026-04-26T08:20:21Z</time></trkpt><trkpt lat="45.90712034000579" lon="9.429910745735734"><ele>695.0</ele><time>2026-04-26T08:20:22Z</time></trkpt><trkpt lat="45.9074097957632" lon="9.430061983183183"><ele>695.0</ele><time>2026-04-26T08:20:23Z</time></trkpt><trkpt lat="45.90766975062557" lon="9.430205655426926"><ele>703.5</ele><time>2026-04-26T08:20:24Z</time></trkpt><trkpt lat="45.90793476728583" lon="9.430313028554346"><ele>712.0</ele><time>2026-04-26T08:20:25Z</time></trkpt><trkpt lat="45.9081857395113" lon="9.430390707418944"><ele>692.0</ele><time>2026-04-26T08:20:26Z</time></trkpt><trkpt lat="45.90868059162854" lon="9.430510348660563"><ele>692.0</ele><time>2026-04-26T08:20:28Z</time></trkpt><trkpt lat="45.90890710181292" lon="9.430580158091486"><ele>692.0</ele><time>2026-04-26T08:20:29Z</time></trkpt><trkpt lat="45.90910983373433" lon="9.430661806245276"><ele>692.0</ele><time>2026-04-26T08:20:30Z</time></trkpt><trkpt lat="45.909279836316124" lon="9.430713477682644"><ele>694.25</ele><time>2026-04-26T08:20:31Z</time></trkpt><trkpt lat="45.90942007793416" lon="9.430772292052852"><ele>696.5</ele><time>2026-04-26T08:20:32Z</time></trkpt><trkpt lat="45.909558791647925" lon="9.430809295466263"><ele>698.75</ele><time>2026-04-26T08:20:33Z</time></trkpt><trkpt lat="45.90971034500843" lon="9.430876825807978"><ele>701.0</ele><time>2026-04-26T08:20:34Z</time></trkpt><trkpt lat="45.90994172793943" lon="9.430953096557221"><ele>702.5</ele><time>2026-04-26T08:20:35Z</time></trkpt><trkpt lat="45.910200297149245" lon="9.431020979856381"><ele>704.0</ele><time>2026-04-26T08:20:36Z</time></trkpt><trkpt lat="45.91046198455068" lon="9.43111097279631"><ele>704.0</ele><time>2026-04-26T08:20:37Z</time></trkpt><trkpt lat="45.91067813688728" lon="9.431193824501348"><ele>704.0</ele><time>2026-04-26T08:20:38Z</time></trkpt><trkpt lat="45.9108795242673" lon="9.431261708438791"><ele>704.0</ele><time>2026-04-26T08:20:39Z</time></trkpt><trkpt lat="45.91107363332305" lon="9.431333727059735"><ele>700.0</ele><time>2026-04-26T08:20:40Z</time></trkpt><trkpt lat="45.91126613315585" lon="9.431416203225012"><ele>696.0</ele><time>2026-04-26T08:20:41Z</time></trkpt><trkpt lat="45.91145707118339" lon="9.431513437025046"><ele>692.0</ele><time>2026-04-26T08:20:42Z</time></trkpt><trkpt lat="45.911651247999046" lon="9.431625028180084"><ele>697.0</ele><time>2026-04-26T08:20:43Z</time></trkpt><trkpt lat="45.91182755835102" lon="9.431737970515973"><ele>702.0</ele><time>2026-04-26T08:20:44Z</time></trkpt><trkpt lat="45.91201800802012" lon="9.431850465774293"><ele>707.0</ele><time>2026-04-26T08:20:45Z</time></trkpt><trkpt lat="45.91220289560442" lon="9.431966994828166"><ele>707.0</ele><time>2026-04-26T08:20:46Z</time></trkpt><trkpt lat="45.912380987826126" lon="9.432104603523868"><ele>707.0</ele><time>2026-04-26T08:20:47Z</time></trkpt><trkpt lat="45.91254639802903" lon="9.432215538818761"><ele>707.0</ele><time>2026-04-26T08:20:48Z</time></trkpt><trkpt lat="45.91270966000944" lon="9.432325392672972"><ele>703.6666666666666</ele><time>2026-04-26T08:20:49Z</time></trkpt><trkpt lat="45.91290102215048" lon="9.432437595761131"><ele>700.3333333333334</ele><time>2026-04-26T08:20:50Z</time></trkpt><trkpt lat="45.91310432035216" lon="9.432568420157429"><ele>697.0</ele><time>2026-04-26T08:20:51Z</time></trkpt><trkpt lat="45.913314666596094" lon="9.43271630247904"><ele>694.6666666666667</ele><time>2026-04-26T08:20:52Z</time></trkpt><trkpt lat="45.91351332672162" lon="9.43285666618569"><ele>692.3333333333334</ele><time>2026-04-26T08:20:53Z</time></trkpt><trkpt lat="45.91369573330612" lon="9.432987931722188"><ele>690.0</ele><time>2026-04-26T08:20:54Z</time></trkpt><trkpt lat="45.91387113383565" lon="9.433103296576911"><ele>690.0</ele><time>2026-04-26T08:20:55Z</time></trkpt><trkpt lat="45.914058063588136" lon="9.433250949901304"><ele>690.0</ele><time>2026-04-26T08:20:56Z</time></trkpt><trkpt lat="45.91425567593902" lon="9.433386304174025"><ele>690.0</ele><time>2026-04-26T08:20:57Z</time></trkpt><trkpt lat="45.91449223751618" lon="9.433549483490403"><ele>695.5</ele><time>2026-04-26T08:20:58Z</time></trkpt><trkpt lat="45.91474582401515" lon="9.43375240476507"><ele>701.0</ele><time>2026-04-26T08:20:59Z</time></trkpt><trkpt lat="45.91500922252959" lon="9.43397149228159"><ele>714.5</ele><time>2026-04-26T08:21:00Z</time></trkpt><trkpt lat="45.91527953434399" lon="9.43420076021996"><ele>728.0</ele><time>2026-04-26T08:21:01Z</time></trkpt><trkpt lat="45.91555050189016" lon="9.434423764686578"><ele>722.0</ele><time>2026-04-26T08:21:02Z</time></trkpt><trkpt lat="45.915836101335145" lon="9.434646343389925"><ele>716.0</ele><time>2026-04-26T08:21:03Z</time></trkpt><trkpt lat="45.916140784142215" lon="9.434876705791044"><ele>716.0</ele><time>2026-04-26T08:21:04Z</time></trkpt><trkpt lat="45.916429268995444" lon="9.435094836298065"><ele>716.0</ele><time>2026-04-26T08:21:05Z</time></trkpt><trkpt lat="45.91668352364129" lon="9.435294082783562"><ele>714.5</ele><time>2026-04-26T08:21:06Z</time></trkpt><trkpt lat="45.91692039333637" lon="9.435470215481033"><ele>713.0</ele><time>2026-04-26T08:21:07Z</time></trkpt><trkpt lat="45.917141201826375" lon="9.435636374533646"><ele>713.0</ele><time>2026-04-26T08:21:08Z</time></trkpt><trkpt lat="45.9173506403372" lon="9.435806025204233"><ele>713.0</ele><time>2026-04-26T08:21:09Z</time></trkpt><trkpt lat="45.917537129416786" lon="9.435956997339213"><ele>715.3333333333333</ele><time>2026-04-26T08:21:10Z</time></trkpt><trkpt lat="45.91773014986522" lon="9.436121426916273"><ele>717.6666666666666</ele><time>2026-04-26T08:21:11Z</time></trkpt><trkpt lat="45.917926015327865" lon="9.436269190479585"><ele>720.0</ele><time>2026-04-26T08:21:12Z</time></trkpt><trkpt lat="45.91811188774708" lon="9.436422768598762"><ele>720.0</ele><time>2026-04-26T08:21:13Z</time></trkpt><trkpt lat="45.91829246203926" lon="9.436565437128435"><ele>720.0</ele><time>2026-04-26T08:21:14Z</time></trkpt><trkpt lat="45.918471064999856" lon="9.436697638385791"><ele>720.0</ele><time>2026-04-26T08:21:15Z</time></trkpt><trkpt lat="45.91865147658896" lon="9.436838003868003"><ele>721.0</ele><time>2026-04-26T08:21:16Z</time></trkpt><trkpt lat="45.91882510753017" lon="9.436970105576435"><ele>722.0</ele><time>2026-04-26T08:21:17Z</time></trkpt><trkpt lat="45.919002713387535" lon="9.437106176792275"><ele>723.0</ele><time>2026-04-26T08:21:18Z</time></trkpt><trkpt lat="45.91918371342536" lon="9.437253075087746"><ele>724.3333333333334</ele><time>2026-04-26T08:21:19Z</time></trkpt><trkpt lat="45.919367218403416" lon="9.437399346641858"><ele>725.6666666666667</ele><time>2026-04-26T08:21:20Z</time></trkpt><trkpt lat="45.91955103947867" lon="9.437541518897499"><ele>727.0</ele><time>2026-04-26T08:21:21Z</time></trkpt><trkpt lat="45.919735906161705" lon="9.437691134041843"><ele>727.0</ele><time>2026-04-26T08:21:22Z</time></trkpt><trkpt lat="45.91991424281832" lon="9.437865337694308"><ele>727.0</ele><time>2026-04-26T08:21:23Z</time></trkpt><trkpt lat="45.920088950190895" lon="9.43804776128932"><ele>727.0</ele><time>2026-04-26T08:21:24Z</time></trkpt><trkpt lat="45.92025116746869" lon="9.438241517370471"><ele>728.0</ele><time>2026-04-26T08:21:25Z</time></trkpt><trkpt lat="45.920394403852214" lon="9.438433412909877"><ele>729.0</ele><time>2026-04-26T08:21:26Z</time></trkpt><trkpt lat="45.920530506368095" lon="9.43860878260151"><ele>730.0</ele><time>2026-04-26T08:21:27Z</time></trkpt><trkpt lat="45.92065225628843" lon="9.438757724763473"><ele>730.5</ele><time>2026-04-26T08:21:28Z</time></trkpt><trkpt lat="45.92075320062392" lon="9.438882725426039"><ele>731.0</ele><time>2026-04-26T08:21:29Z</time></trkpt><trkpt lat="45.92083556057847" lon="9.439006082219867"><ele>731.5</ele><time>2026-04-26T08:21:30Z</time></trkpt><trkpt lat="45.92088950290373" lon="9.43914319603536"><ele>732.0</ele><time>2026-04-26T08:21:31Z</time></trkpt><trkpt lat="45.92092373729255" lon="9.43927773602482"><ele>730.8</ele><time>2026-04-26T08:21:32Z</time></trkpt><trkpt lat="45.92096384243897" lon="9.439369637707394"><ele>729.6</ele><time>2026-04-26T08:21:33Z</time></trkpt><trkpt lat="45.92105282461777" lon="9.43941277063032"><ele>728.4</ele><time>2026-04-26T08:21:34Z</time></trkpt><trkpt lat="45.921181920829184" lon="9.439421659556524"><ele>727.1999999999999</ele><time>2026-04-26T08:21:35Z</time></trkpt><trkpt lat="45.92132524142078" lon="9.439485672107638"><ele>726.0</ele><time>2026-04-26T08:21:36Z</time></trkpt><trkpt lat="45.92146196156519" lon="9.43962899765716"><ele>726.0</ele><time>2026-04-26T08:21:37Z</time></trkpt><trkpt lat="45.9216086713831" lon="9.439816246472672"><ele>726.0</ele><time>2026-04-26T08:21:38Z</time></trkpt><trkpt lat="45.92174673719912" lon="9.440037459701196"><ele>726.0</ele><time>2026-04-26T08:21:39Z</time></trkpt><trkpt lat="45.92189500809594" lon="9.440270076022186"><ele>720.5</ele><time>2026-04-26T08:21:40Z</time></trkpt><trkpt lat="45.92204967944867" lon="9.440510244456313"><ele>715.0</ele><time>2026-04-26T08:21:41Z</time></trkpt><trkpt lat="45.92220825004365" lon="9.440807438535911"><ele>715.0</ele><time>2026-04-26T08:21:42Z</time></trkpt><trkpt lat="45.92234384244733" lon="9.441132574697196"><ele>715.0</ele><time>2026-04-26T08:21:43Z</time></trkpt><trkpt lat="45.922483991473655" lon="9.441470910222248"><ele>708.0</ele><time>2026-04-26T08:21:44Z</time></trkpt><trkpt lat="45.92261287087512" lon="9.441838405108875"><ele>701.0</ele><time>2026-04-26T08:21:45Z</time></trkpt><trkpt lat="45.92274732796818" lon="9.44222482118393"><ele>701.0</ele><time>2026-04-26T08:21:46Z</time></trkpt><trkpt lat="45.92284566755812" lon="9.442462637119004"><ele>701.0</ele><time>2026-04-26T08:21:47Z</time></trkpt><trkpt lat="45.92297593104319" lon="9.44281684320321"><ele>704.0</ele><time>2026-04-26T08:21:48Z</time></trkpt><trkpt lat="45.92308507111439" lon="9.44313662943653"><ele>707.0</ele><time>2026-04-26T08:21:49Z</time></trkpt><trkpt lat="45.92318309414922" lon="9.443421283957607"><ele>707.0</ele><time>2026-04-26T08:21:50Z</time></trkpt><trkpt lat="45.92329138148114" lon="9.443667237288018"><ele>707.0</ele><time>2026-04-26T08:21:51Z</time></trkpt><trkpt lat="45.92339664897534" lon="9.44389069912277"><ele>707.0</ele><time>2026-04-26T08:21:52Z</time></trkpt><trkpt lat="45.923555222456216" lon="9.444091190060039"><ele>700.0</ele><time>2026-04-26T08:21:53Z</time></trkpt><trkpt lat="45.9237603358539" lon="9.444275156644956"><ele>693.0</ele><time>2026-04-26T08:21:54Z</time></trkpt><trkpt lat="45.923966208545224" lon="9.44446596042388"><ele>690.5</ele><time>2026-04-26T08:21:55Z</time></trkpt><trkpt lat="45.924185055164074" lon="9.444662573036505"><ele>688.0</ele><time>2026-04-26T08:21:56Z</time></trkpt><trkpt lat="45.92437119481521" lon="9.444869828126109"><ele>688.0</ele><time>2026-04-26T08:21:57Z</time></trkpt><trkpt lat="45.92455111082168" lon="9.44508524370559"><ele>688.0</ele><time>2026-04-26T08:21:58Z</time></trkpt><trkpt lat="45.92470845416034" lon="9.445287165655929"><ele>688.0</ele><time>2026-04-26T08:21:59Z</time></trkpt><trkpt lat="45.92487414119284" lon="9.445457808813243"><ele>687.0</ele><time>2026-04-26T08:22:00Z</time></trkpt><trkpt lat="45.925050736275594" lon="9.445587741624706"><ele>686.0</ele><time>2026-04-26T08:22:01Z</time></trkpt><trkpt lat="45.92524213870089" lon="9.445683220017871"><ele>685.0</ele><time>2026-04-26T08:22:02Z</time></trkpt><trkpt lat="45.92540576315925" lon="9.445831562650927"><ele>685.0</ele><time>2026-04-26T08:22:03Z</time></trkpt><trkpt lat="45.92554133585923" lon="9.4460021915735"><ele>685.0</ele><time>2026-04-26T08:22:04Z</time></trkpt><trkpt lat="45.92568877249181" lon="9.446185781660652"><ele>685.0</ele><time>2026-04-26T08:22:05Z</time></trkpt><trkpt lat="45.925832405496024" lon="9.446363714376954"><ele>685.0</ele><time>2026-04-26T08:22:06Z</time></trkpt><trkpt lat="45.92596222538443" lon="9.44652751473897"><ele>685.0</ele><time>2026-04-26T08:22:07Z</time></trkpt><trkpt lat="45.926084143567756" lon="9.446689431339214"><ele>685.0</ele><time>2026-04-26T08:22:08Z</time></trkpt><trkpt lat="45.92619233993093" lon="9.44684705597525"><ele>685.0</ele><time>2026-04-26T08:22:09Z</time></trkpt><trkpt lat="45.92628490375281" lon="9.446998216680692"><ele>685.0</ele><time>2026-04-26T08:22:10Z</time></trkpt><trkpt lat="45.9263945887624" lon="9.447200426224041"><ele>685.0</ele><time>2026-04-26T08:22:11Z</time></trkpt><trkpt lat="45.92652506247232" lon="9.447448692417481"><ele>685.5</ele><time>2026-04-26T08:22:12Z</time></trkpt><trkpt lat="45.92668108416099" lon="9.447749233927127"><ele>686.0</ele><time>2026-04-26T08:22:13Z</time></trkpt><trkpt lat="45.92683210676476" lon="9.448044693588104"><ele>684.0</ele><time>2026-04-26T08:22:14Z</time></trkpt><trkpt lat="45.92696938723219" lon="9.448314858401023"><ele>682.0</ele><time>2026-04-26T08:22:15Z</time></trkpt><trkpt lat="45.92710246182383" lon="9.448549051137885"><ele>680.0</ele><time>2026-04-26T08:22:16Z</time></trkpt><trkpt lat="45.92722797904818" lon="9.448708551243543"><ele>680.0</ele><time>2026-04-26T08:22:17Z</time></trkpt><trkpt lat="45.92735039518691" lon="9.448845017453474"><ele>680.0</ele><time>2026-04-26T08:22:18Z</time></trkpt><trkpt lat="45.92748707613145" lon="9.448950691453248"><ele>680.0</ele><time>2026-04-26T08:22:19Z</time></trkpt><trkpt lat="45.927600901851555" lon="9.449042325111787"><ele>680.0</ele><time>2026-04-26T08:22:20Z</time></trkpt><trkpt lat="45.9277346035758" lon="9.449084210738134"><ele>674.0</ele><time>2026-04-26T08:22:21Z</time></trkpt><trkpt lat="45.927895438206626" lon="9.449119479749681"><ele>668.0</ele><time>2026-04-26T08:22:22Z</time></trkpt><trkpt lat="45.9280405823915" lon="9.44913858818832"><ele>662.0</ele><time>2026-04-26T08:22:23Z</time></trkpt><trkpt lat="45.92819363830936" lon="9.449120203969267"><ele>662.0</ele><time>2026-04-26T08:22:24Z</time></trkpt><trkpt lat="45.92835442945401" lon="9.44910493369437"><ele>662.0</ele><time>2026-04-26T08:22:25Z</time></trkpt><trkpt lat="45.92852412729856" lon="9.449085003971083"><ele>662.0</ele><time>2026-04-26T08:22:26Z</time></trkpt><trkpt lat="45.928705265033415" lon="9.449101384292712"><ele>663.0</ele><time>2026-04-26T08:22:27Z</time></trkpt><trkpt lat="45.92894329540192" lon="9.449090411749387"><ele>664.0</ele><time>2026-04-26T08:22:28Z</time></trkpt><trkpt lat="45.929169145492125" lon="9.44906145182088"><ele>662.6666666666667</ele><time>2026-04-26T08:22:29Z</time></trkpt><trkpt lat="45.929372188898554" lon="9.44907627594683"><ele>661.3333333333334</ele><time>2026-04-26T08:22:30Z</time></trkpt><trkpt lat="45.92956956636381" lon="9.449169400605365"><ele>660.0</ele><time>2026-04-26T08:22:31Z</time></trkpt><trkpt lat="45.92975599963479" lon="9.449308550164922"><ele>660.0</ele><time>2026-04-26T08:22:32Z</time></trkpt><trkpt lat="45.929920374685466" lon="9.449472463915084"><ele>660.0</ele><time>2026-04-26T08:22:33Z</time></trkpt><trkpt lat="45.93013262559609" lon="9.449667416720134"><ele>656.5</ele><time>2026-04-26T08:22:34Z</time></trkpt><trkpt lat="45.93034922365792" lon="9.449901074406789"><ele>653.0</ele><time>2026-04-26T08:22:35Z</time></trkpt><trkpt lat="45.9305867228418" lon="9.450131524477529"><ele>653.0</ele><time>2026-04-26T08:22:36Z</time></trkpt><trkpt lat="45.93080199938209" lon="9.450368107743952"><ele>653.0</ele><time>2026-04-26T08:22:37Z</time></trkpt><trkpt lat="45.93101548371036" lon="9.45056370387498"><ele>652.0</ele><time>2026-04-26T08:22:38Z</time></trkpt><trkpt lat="45.93121756735981" lon="9.450731104796173"><ele>651.0</ele><time>2026-04-26T08:22:39Z</time></trkpt><trkpt lat="45.931429247137395" lon="9.450834947147227"><ele>651.0</ele><time>2026-04-26T08:22:40Z</time></trkpt><trkpt lat="45.93165487893157" lon="9.450887303009303"><ele>651.0</ele><time>2026-04-26T08:22:41Z</time></trkpt><trkpt lat="45.931877232480325" lon="9.450935496689656"><ele>652.0</ele><time>2026-04-26T08:22:42Z</time></trkpt><trkpt lat="45.93206992685095" lon="9.451060570650814"><ele>653.0</ele><time>2026-04-26T08:22:43Z</time></trkpt><trkpt lat="45.932238405804156" lon="9.451224732034738"><ele>654.0</ele><time>2026-04-26T08:22:44Z</time></trkpt><trkpt lat="45.93243296089401" lon="9.451437382110221"><ele>651.5</ele><time>2026-04-26T08:22:45Z</time></trkpt><trkpt lat="45.93263730482365" lon="9.451667442604709"><ele>649.0</ele><time>2026-04-26T08:22:46Z</time></trkpt><trkpt lat="45.93283468098566" lon="9.45186042848177"><ele>649.0</ele><time>2026-04-26T08:22:47Z</time></trkpt><trkpt lat="45.933025519637425" lon="9.45198534735683"><ele>649.0</ele><time>2026-04-26T08:22:48Z</time></trkpt><trkpt lat="45.93322913626694" lon="9.452088053345568"><ele>649.0</ele><time>2026-04-26T08:22:49Z</time></trkpt><trkpt lat="45.93345109623394" lon="9.452154373896443"><ele>639.5</ele><time>2026-04-26T08:22:50Z</time></trkpt><trkpt lat="45.933696351973786" lon="9.452190596648752"><ele>630.0</ele><time>2026-04-26T08:22:51Z</time></trkpt><trkpt lat="45.93395545003352" lon="9.452203309774605"><ele>630.0</ele><time>2026-04-26T08:22:52Z</time></trkpt><trkpt lat="45.934186652867226" lon="9.452260141110411"><ele>630.0</ele><time>2026-04-26T08:22:53Z</time></trkpt><trkpt lat="45.93439909625548" lon="9.452278156864455"><ele>630.0</ele><time>2026-04-26T08:22:54Z</time></trkpt><trkpt lat="45.934584555567405" lon="9.4522592519296"><ele>628.6666666666666</ele><time>2026-04-26T08:22:55Z</time></trkpt><trkpt lat="45.934777984923855" lon="9.452263987456494"><ele>627.3333333333333</ele><time>2026-04-26T08:22:56Z</time></trkpt><trkpt lat="45.9350014790163" lon="9.452256219004394"><ele>626.0</ele><time>2026-04-26T08:22:57Z</time></trkpt><trkpt lat="45.935238340908285" lon="9.452238743051726"><ele>628.0</ele><time>2026-04-26T08:22:58Z</time></trkpt><trkpt lat="45.93546355406444" lon="9.45201120083361"><ele>630.0</ele><time>2026-04-26T08:22:59Z</time></trkpt><trkpt lat="45.93566462393484" lon="9.451973359231687"><ele>630.0</ele><time>2026-04-26T08:23:00Z</time></trkpt><trkpt lat="45.935828371799" lon="9.451926753676181"><ele>630.0</ele><time>2026-04-26T08:23:01Z</time></trkpt><trkpt lat="45.93597355177985" lon="9.4518903832537"><ele>630.0</ele><time>2026-04-26T08:23:02Z</time></trkpt><trkpt lat="45.93609929907971" lon="9.451865905964674"><ele>630.0</ele><time>2026-04-26T08:23:03Z</time></trkpt><trkpt lat="45.93621849166873" lon="9.451851655712312"><ele>629.0</ele><time>2026-04-26T08:23:04Z</time></trkpt><trkpt lat="45.936325641718966" lon="9.451821564782165"><ele>628.0</ele><time>2026-04-26T08:23:05Z</time></trkpt><trkpt lat="45.936397813329584" lon="9.451797718121856"><ele>627.0</ele><time>2026-04-26T08:23:06Z</time></trkpt><trkpt lat="45.93648901278874" lon="9.451782953718823"><ele>626.0</ele><time>2026-04-26T08:23:07Z</time></trkpt><trkpt lat="45.936579071649106" lon="9.451755370864955"><ele>625.0</ele><time>2026-04-26T08:23:08Z</time></trkpt><trkpt lat="45.93668479800107" lon="9.45171714997986"><ele>624.3333333333334</ele><time>2026-04-26T08:23:09Z</time></trkpt><trkpt lat="45.936779769412624" lon="9.451689688750783"><ele>623.6666666666667</ele><time>2026-04-26T08:23:10Z</time></trkpt><trkpt lat="45.93686078861255" lon="9.451706833153432"><ele>623.0</ele><time>2026-04-26T08:23:11Z</time></trkpt><trkpt lat="45.93696876092864" lon="9.451710061046223"><ele>622.3333333333334</ele><time>2026-04-26T08:23:12Z</time></trkpt><trkpt lat="45.937040676102065" lon="9.451738294562805"><ele>621.6666666666666</ele><time>2026-04-26T08:23:13Z</time></trkpt><trkpt lat="45.937123041868304" lon="9.451758664738518"><ele>621.0</ele><time>2026-04-26T08:23:14Z</time></trkpt><trkpt lat="45.937240527227736" lon="9.451785261065293"><ele>621.0</ele><time>2026-04-26T08:23:15Z</time></trkpt><trkpt lat="45.937396829759884" lon="9.451850273063432"><ele>621.0</ele><time>2026-04-26T08:23:16Z</time></trkpt><trkpt lat="45.93759600939657" lon="9.451968370887174"><ele>621.0</ele><time>2026-04-26T08:23:17Z</time></trkpt><trkpt lat="45.93783904536123" lon="9.45213367204174"><ele>617.5</ele><time>2026-04-26T08:23:18Z</time></trkpt><trkpt lat="45.93809368044059" lon="9.452291065173165"><ele>614.0</ele><time>2026-04-26T08:23:19Z</time></trkpt><trkpt lat="45.93834920334719" lon="9.45237351699034"><ele>614.5</ele><time>2026-04-26T08:23:20Z</time></trkpt><trkpt lat="45.93858849617427" lon="9.452409756191283"><ele>615.0</ele><time>2026-04-26T08:23:21Z</time></trkpt><trkpt lat="45.93881723204487" lon="9.4523896602572"><ele>615.0</ele><time>2026-04-26T08:23:22Z</time></trkpt><trkpt lat="45.939043341637976" lon="9.45232503541537"><ele>615.0</ele><time>2026-04-26T08:23:23Z</time></trkpt><trkpt lat="45.93927118338734" lon="9.452242045259514"><ele>615.0</ele><time>2026-04-26T08:23:24Z</time></trkpt><trkpt lat="45.93949303516448" lon="9.452192473464134"><ele>615.0</ele><time>2026-04-26T08:23:25Z</time></trkpt><trkpt lat="45.93969732183493" lon="9.452164699854652"><ele>615.0</ele><time>2026-04-26T08:23:26Z</time></trkpt><trkpt lat="45.939875106488586" lon="9.45211835442888"><ele>613.6666666666666</ele><time>2026-04-26T08:23:27Z</time></trkpt><trkpt lat="45.94005289227378" lon="9.452145944097932"><ele>612.3333333333333</ele><time>2026-04-26T08:23:28Z</time></trkpt><trkpt lat="45.94022932845671" lon="9.45214875684943"><ele>611.0</ele><time>2026-04-26T08:23:29Z</time></trkpt><trkpt lat="45.940407815355876" lon="9.452193201827196"><ele>611.0</ele><time>2026-04-26T08:23:30Z</time></trkpt><trkpt lat="45.94058845803863" lon="9.452186844145889"><ele>611.0</ele><time>2026-04-26T08:23:31Z</time></trkpt><trkpt lat="45.9407555628212" lon="9.452106130141956"><ele>611.0</ele><time>2026-04-26T08:23:32Z</time></trkpt><trkpt lat="45.94095427833776" lon="9.451988052361235"><ele>615.0</ele><time>2026-04-26T08:23:33Z</time></trkpt><trkpt lat="45.94120175133689" lon="9.451841555984322"><ele>619.0</ele><time>2026-04-26T08:23:34Z</time></trkpt><trkpt lat="45.9414194614069" lon="9.451695833445722"><ele>619.0</ele><time>2026-04-26T08:23:35Z</time></trkpt><trkpt lat="45.94162116419218" lon="9.45158851682326"><ele>619.0</ele><time>2026-04-26T08:23:36Z</time></trkpt><trkpt lat="45.94179558174534" lon="9.451503226710198"><ele>619.0</ele><time>2026-04-26T08:23:37Z</time></trkpt><trkpt lat="45.94192149336254" lon="9.45144541897557"><ele>620.6666666666667</ele><time>2026-04-26T08:23:38Z</time></trkpt><trkpt lat="45.9419980811475" lon="9.451401106347282"><ele>622.3333333333334</ele><time>2026-04-26T08:23:39Z</time></trkpt><trkpt lat="45.94208066065485" lon="9.451344908023788"><ele>624.0</ele><time>2026-04-26T08:23:41Z</time></trkpt><trkpt lat="45.94218751869137" lon="9.451303810254096"><ele>625.6666666666666</ele><time>2026-04-26T08:23:43Z</time></trkpt><trkpt lat="45.942258646839164" lon="9.451325942770064"><ele>627.3333333333333</ele><time>2026-04-26T08:23:44Z</time></trkpt><trkpt lat="45.942321954472206" lon="9.451321393165337"><ele>629.0</ele><time>2026-04-26T08:23:45Z</time></trkpt><trkpt lat="45.942388668233264" lon="9.451284823915703"><ele>629.0</ele><time>2026-04-26T08:23:46Z</time></trkpt><trkpt lat="45.942449576248" lon="9.451223992610604"><ele>629.0</ele><time>2026-04-26T08:23:47Z</time></trkpt><trkpt lat="45.94250515186318" lon="9.451149685591819"><ele>629.0</ele><time>2026-04-26T08:23:48Z</time></trkpt><trkpt lat="45.94257208170026" lon="9.451078905519072"><ele>629.0</ele><time>2026-04-26T08:23:49Z</time></trkpt><trkpt lat="45.94264755420665" lon="9.451047577080837"><ele>629.0</ele><time>2026-04-26T08:23:50Z</time></trkpt><trkpt lat="45.94275573209075" lon="9.450967539822859"><ele>629.0</ele><time>2026-04-26T08:23:51Z</time></trkpt><trkpt lat="45.942915349219696" lon="9.450864556752975"><ele>621.6666666666666</ele><time>2026-04-26T08:23:52Z</time></trkpt><trkpt lat="45.9431134879916" lon="9.450775960736157"><ele>614.3333333333334</ele><time>2026-04-26T08:23:53Z</time></trkpt><trkpt lat="45.94327782082364" lon="9.450712183138911"><ele>607.0</ele><time>2026-04-26T08:23:54Z</time></trkpt><trkpt lat="45.94340776013735" lon="9.450661172853572"><ele>605.2</ele><time>2026-04-26T08:23:55Z</time></trkpt><trkpt lat="45.943523875994025" lon="9.450628667109354"><ele>603.4000000000001</ele><time>2026-04-26T08:23:56Z</time></trkpt><trkpt lat="45.94363050389465" lon="9.450623837766186"><ele>601.5999999999999</ele><time>2026-04-26T08:23:57Z</time></trkpt><trkpt lat="45.94372338644422" lon="9.450625122721966"><ele>599.8</ele><time>2026-04-26T08:23:58Z</time></trkpt><trkpt lat="45.9438323790339" lon="9.450623830446922"><ele>598.0</ele><time>2026-04-26T08:23:59Z</time></trkpt><trkpt lat="45.94394796339506" lon="9.450598967551066"><ele>598.0</ele><time>2026-04-26T08:24:00Z</time></trkpt><trkpt lat="45.944085273097826" lon="9.450573587985671"><ele>598.0</ele><time>2026-04-26T08:24:01Z</time></trkpt><trkpt lat="45.944250622296394" lon="9.450573863935572"><ele>598.0</ele><time>2026-04-26T08:24:02Z</time></trkpt><trkpt lat="45.944474792936255" lon="9.450599832310745"><ele>598.0</ele><time>2026-04-26T08:24:03Z</time></trkpt><trkpt lat="45.9447379818208" lon="9.45070289729318"><ele>598.0</ele><time>2026-04-26T08:24:04Z</time></trkpt><trkpt lat="45.94502938845254" lon="9.450745239088954"><ele>596.5</ele><time>2026-04-26T08:24:05Z</time></trkpt><trkpt lat="45.94529886800359" lon="9.45078679837094"><ele>595.0</ele><time>2026-04-26T08:24:06Z</time></trkpt><trkpt lat="45.945542310403084" lon="9.450825846313409"><ele>595.0</ele><time>2026-04-26T08:24:07Z</time></trkpt><trkpt lat="45.94577604987523" lon="9.450861396045797"><ele>595.0</ele><time>2026-04-26T08:24:08Z</time></trkpt><trkpt lat="45.94599338431535" lon="9.4508944507166"><ele>594.0</ele><time>2026-04-26T08:24:09Z</time></trkpt><trkpt lat="45.946180788598184" lon="9.450903690055334"><ele>593.0</ele><time>2026-04-26T08:24:10Z</time></trkpt><trkpt lat="45.946337889222946" lon="9.450946846904264"><ele>592.0</ele><time>2026-04-26T08:24:11Z</time></trkpt><trkpt lat="45.946508250688396" lon="9.450972757393494"><ele>591.5</ele><time>2026-04-26T08:24:12Z</time></trkpt><trkpt lat="45.94671601888067" lon="9.45100435712303"><ele>591.0</ele><time>2026-04-26T08:24:13Z</time></trkpt><trkpt lat="45.946964308821364" lon="9.451042119858432"><ele>591.0</ele><time>2026-04-26T08:24:14Z</time></trkpt><trkpt lat="45.94723810947436" lon="9.45106375570482"><ele>591.0</ele><time>2026-04-26T08:24:15Z</time></trkpt><trkpt lat="45.947483915432684" lon="9.451110630426536"><ele>590.3333333333334</ele><time>2026-04-26T08:24:16Z</time></trkpt><trkpt lat="45.94768891105108" lon="9.451139954704866"><ele>589.6666666666667</ele><time>2026-04-26T08:24:17Z</time></trkpt><trkpt lat="45.947838102976576" lon="9.451163832147278"><ele>589.0</ele><time>2026-04-26T08:24:18Z</time></trkpt><trkpt lat="45.94795627040633" lon="9.451182158897344"><ele>589.0</ele><time>2026-04-26T08:24:19Z</time></trkpt><trkpt lat="45.94806556868867" lon="9.4512072614244"><ele>589.0</ele><time>2026-04-26T08:24:20Z</time></trkpt><trkpt lat="45.948141856188656" lon="9.451263845130804"><ele>589.0</ele><time>2026-04-26T08:24:21Z</time></trkpt><trkpt lat="45.94820922112197" lon="9.451366814788196"><ele>589.0</ele><time>2026-04-26T08:24:22Z</time></trkpt><trkpt lat="45.948288292485515" lon="9.451448252749286"><ele>589.0</ele><time>2026-04-26T08:24:23Z</time></trkpt><trkpt lat="45.9484075553691" lon="9.451441607796426"><ele>588.3333333333334</ele><time>2026-04-26T08:24:24Z</time></trkpt><trkpt lat="45.94855235097099" lon="9.45139537960093"><ele>587.6666666666666</ele><time>2026-04-26T08:24:25Z</time></trkpt><trkpt lat="45.948738176773425" lon="9.451373760670728"><ele>587.0</ele><time>2026-04-26T08:24:26Z</time></trkpt><trkpt lat="45.94897218986143" lon="9.451338259172713"><ele>586.5</ele><time>2026-04-26T08:24:27Z</time></trkpt><trkpt lat="45.94924074541461" lon="9.451375192408822"><ele>586.0</ele><time>2026-04-26T08:24:28Z</time></trkpt><trkpt lat="45.94952794363972" lon="9.45142632096859"><ele>586.0</ele><time>2026-04-26T08:24:29Z</time></trkpt><trkpt lat="45.94984703181306" lon="9.451463266454123"><ele>586.0</ele><time>2026-04-26T08:24:30Z</time></trkpt><trkpt lat="45.95018215041372" lon="9.451510492977729"><ele>584.5</ele><time>2026-04-26T08:24:31Z</time></trkpt><trkpt lat="45.95053441070532" lon="9.451555536716405"><ele>583.0</ele><time>2026-04-26T08:24:32Z</time></trkpt><trkpt lat="45.95088949945282" lon="9.451604719865776"><ele>582.5</ele><time>2026-04-26T08:24:33Z</time></trkpt><trkpt lat="45.951206799160175" lon="9.451653648223646"><ele>582.0</ele><time>2026-04-26T08:24:34Z</time></trkpt><trkpt lat="45.95148573204791" lon="9.45173598267248"><ele>580.5</ele><time>2026-04-26T08:24:35Z</time></trkpt><trkpt lat="45.95174991316708" lon="9.451740919628635"><ele>579.0</ele><time>2026-04-26T08:24:36Z</time></trkpt><trkpt lat="45.95204049735306" lon="9.451685100013657"><ele>579.0</ele><time>2026-04-26T08:24:37Z</time></trkpt><trkpt lat="45.95235043986237" lon="9.451596011791715"><ele>579.0</ele><time>2026-04-26T08:24:38Z</time></trkpt><trkpt lat="45.95267866562016" lon="9.451501668330204"><ele>578.5</ele><time>2026-04-26T08:24:39Z</time></trkpt><trkpt lat="45.95303534647759" lon="9.45139914589293"><ele>578.0</ele><time>2026-04-26T08:24:40Z</time></trkpt><trkpt lat="45.95341902013011" lon="9.45129057076284"><ele>578.0</ele><time>2026-04-26T08:24:41Z</time></trkpt><trkpt lat="45.953747326466434" lon="9.451197547899794"><ele>578.0</ele><time>2026-04-26T08:24:42Z</time></trkpt><trkpt lat="45.954079162701866" lon="9.45109710120081"><ele>576.5</ele><time>2026-04-26T08:24:43Z</time></trkpt><trkpt lat="45.95439448503153" lon="9.451014776592935"><ele>575.0</ele><time>2026-04-26T08:24:44Z</time></trkpt><trkpt lat="45.95468975941931" lon="9.450921486893822"><ele>575.0</ele><time>2026-04-26T08:24:45Z</time></trkpt><trkpt lat="45.95496635521677" lon="9.450841632908691"><ele>575.0</ele><time>2026-04-26T08:24:46Z</time></trkpt><trkpt lat="45.955223167533546" lon="9.45075943937433"><ele>573.5</ele><time>2026-04-26T08:24:47Z</time></trkpt><trkpt lat="45.95546585804771" lon="9.450690137734295"><ele>572.0</ele><time>2026-04-26T08:24:48Z</time></trkpt><trkpt lat="45.9556831131617" lon="9.450653586537602"><ele>572.0</ele><time>2026-04-26T08:24:49Z</time></trkpt><trkpt lat="45.955883423438856" lon="9.450577352866127"><ele>572.0</ele><time>2026-04-26T08:24:50Z</time></trkpt><trkpt lat="45.956081992423286" lon="9.45054047058297"><ele>572.0</ele><time>2026-04-26T08:24:51Z</time></trkpt><trkpt lat="45.956254483082915" lon="9.450493367311395"><ele>571.6666666666666</ele><time>2026-04-26T08:24:52Z</time></trkpt><trkpt lat="45.95642602549471" lon="9.450444699603459"><ele>571.3333333333334</ele><time>2026-04-26T08:24:53Z</time></trkpt><trkpt lat="45.95660593872281" lon="9.450387414782611"><ele>571.0</ele><time>2026-04-26T08:24:54Z</time></trkpt><trkpt lat="45.95678255852215" lon="9.450309549608948"><ele>570.6666666666667</ele><time>2026-04-26T08:24:55Z</time></trkpt><trkpt lat="45.95697226249817" lon="9.45023675209141"><ele>570.3333333333334</ele><time>2026-04-26T08:24:56Z</time></trkpt><trkpt lat="45.95715712535033" lon="9.450110526809516"><ele>570.0</ele><time>2026-04-26T08:24:57Z</time></trkpt><trkpt lat="45.957341540296795" lon="9.450004371501809"><ele>570.0</ele><time>2026-04-26T08:24:58Z</time></trkpt><trkpt lat="45.95751146386845" lon="9.449909216623622"><ele>570.0</ele><time>2026-04-26T08:24:59Z</time></trkpt><trkpt lat="45.95768563323885" lon="9.449806188831207"><ele>570.0</ele><time>2026-04-26T08:25:00Z</time></trkpt><trkpt lat="45.95784028987603" lon="9.44972956364778"><ele>569.6666666666666</ele><time>2026-04-26T08:25:01Z</time></trkpt><trkpt lat="45.95798701888681" lon="9.449642514916755"><ele>569.3333333333333</ele><time>2026-04-26T08:25:02Z</time></trkpt><trkpt lat="45.95815072330252" lon="9.449548812675253"><ele>569.0</ele><time>2026-04-26T08:25:03Z</time></trkpt><trkpt lat="45.95830547892123" lon="9.44948894078933"><ele>568.8</ele><time>2026-04-26T08:25:04Z</time></trkpt><trkpt lat="45.958428680582216" lon="9.449419525528715"><ele>568.5999999999999</ele><time>2026-04-26T08:25:05Z</time></trkpt><trkpt lat="45.9585281607" lon="9.449363476333867"><ele>568.4</ele><time>2026-04-26T08:25:06Z</time></trkpt><trkpt lat="45.95861179314594" lon="9.44931635605219"><ele>568.1999999999999</ele><time>2026-04-26T08:25:07Z</time></trkpt><trkpt lat="45.95867940590422" lon="9.449270562990211"><ele>568.0</ele><time>2026-04-26T08:25:08Z</time></trkpt><trkpt lat="45.958744997281215" lon="9.449231598619582"><ele>568.0</ele><time>2026-04-26T08:25:09Z</time></trkpt><trkpt lat="45.95880632723123" lon="9.44919835257408"><ele>568.0</ele><time>2026-04-26T08:25:10Z</time></trkpt><trkpt lat="45.95894213675149" lon="9.44912279710543"><ele>568.0</ele><time>2026-04-26T08:25:12Z</time></trkpt><trkpt lat="45.95908100140203" lon="9.449044258346982"><ele>568.0</ele><time>2026-04-26T08:25:13Z</time></trkpt><trkpt lat="45.959249682270524" lon="9.44901339402294"><ele>569.5</ele><time>2026-04-26T08:25:14Z</time></trkpt><trkpt lat="45.95940706602974" lon="9.449016693468224"><ele>571.0</ele><time>2026-04-26T08:25:15Z</time></trkpt><trkpt lat="45.95954899875555" lon="9.449052616903463"><ele>572.5</ele><time>2026-04-26T08:25:16Z</time></trkpt><trkpt lat="45.95966759878587" lon="9.44912447456056"><ele>574.0</ele><time>2026-04-26T08:25:17Z</time></trkpt><trkpt lat="45.95983701979004" lon="9.449175289555185"><ele>599.5</ele><time>2026-04-26T08:25:18Z</time></trkpt><trkpt lat="45.960037546583735" lon="9.449281324576388"><ele>625.0</ele><time>2026-04-26T08:25:19Z</time></trkpt><trkpt lat="45.960252592429285" lon="9.449485334204901"><ele>625.0</ele><time>2026-04-26T08:25:20Z</time></trkpt><trkpt lat="45.960408604102184" lon="9.4495680235001"><ele>625.0</ele><time>2026-04-26T08:25:21Z</time></trkpt><trkpt lat="45.96050948838197" lon="9.449598889448016"><ele>625.0</ele><time>2026-04-26T08:25:22Z</time></trkpt><trkpt lat="45.96060479686315" lon="9.44971577321055"><ele>625.0</ele><time>2026-04-26T08:25:23Z</time></trkpt><trkpt lat="45.96072564030399" lon="9.449897258702947"><ele>605.0</ele><time>2026-04-26T08:25:24Z</time></trkpt><trkpt lat="45.960873975046944" lon="9.450095142958677"><ele>585.0</ele><time>2026-04-26T08:25:25Z</time></trkpt><trkpt lat="45.961009274484326" lon="9.450215364123546"><ele>565.0</ele><time>2026-04-26T08:25:26Z</time></trkpt><trkpt lat="45.961115431312095" lon="9.450324173438055"><ele>565.0</ele><time>2026-04-26T08:25:27Z</time></trkpt><trkpt lat="45.96121882062962" lon="9.45041395154141"><ele>565.0</ele><time>2026-04-26T08:25:28Z</time></trkpt><trkpt lat="45.96133778052964" lon="9.450467180917006"><ele>565.0</ele><time>2026-04-26T08:25:29Z</time></trkpt><trkpt lat="45.96149622560073" lon="9.450472542328141"><ele>565.0</ele><time>2026-04-26T08:25:30Z</time></trkpt><trkpt lat="45.96179876710042" lon="9.450651932468887"><ele>565.0</ele><time>2026-04-26T08:25:31Z</time></trkpt><trkpt lat="45.962025517034085" lon="9.450785515216696"><ele>565.0</ele><time>2026-04-26T08:25:32Z</time></trkpt><trkpt lat="45.962223141524404" lon="9.450833056752067"><ele>565.0</ele><time>2026-04-26T08:25:33Z</time></trkpt><trkpt lat="45.96244549982836" lon="9.450843964058013"><ele>563.5</ele><time>2026-04-26T08:25:34Z</time></trkpt><trkpt lat="45.96272133605235" lon="9.450909222373431"><ele>562.0</ele><time>2026-04-26T08:25:35Z</time></trkpt><trkpt lat="45.963008950783816" lon="9.451001818383975"><ele>562.0</ele><time>2026-04-26T08:25:36Z</time></trkpt><trkpt lat="45.9632741090032" lon="9.45106558413212"><ele>562.0</ele><time>2026-04-26T08:25:37Z</time></trkpt><trkpt lat="45.96351971487872" lon="9.451109020072593"><ele>562.0</ele><time>2026-04-26T08:25:38Z</time></trkpt><trkpt lat="45.96373933944512" lon="9.451119056292262"><ele>562.0</ele><time>2026-04-26T08:25:39Z</time></trkpt><trkpt lat="45.96394974956643" lon="9.451080190394865"><ele>562.0</ele><time>2026-04-26T08:25:40Z</time></trkpt><trkpt lat="45.96416132722197" lon="9.451010184760559"><ele>561.5</ele><time>2026-04-26T08:25:41Z</time></trkpt><trkpt lat="45.96438101867438" lon="9.450907828653268"><ele>561.0</ele><time>2026-04-26T08:25:42Z</time></trkpt><trkpt lat="45.96460919351093" lon="9.450796592691837"><ele>561.0</ele><time>2026-04-26T08:25:43Z</time></trkpt><trkpt lat="45.96482776634691" lon="9.450697954477588"><ele>561.0</ele><time>2026-04-26T08:25:44Z</time></trkpt><trkpt lat="45.96503801588155" lon="9.450610395221307"><ele>561.0</ele><time>2026-04-26T08:25:45Z</time></trkpt><trkpt lat="45.965244714814794" lon="9.450531823405823"><ele>560.3333333333334</ele><time>2026-04-26T08:25:46Z</time></trkpt><trkpt lat="45.96544406040043" lon="9.450458272279239"><ele>559.6666666666667</ele><time>2026-04-26T08:25:47Z</time></trkpt><trkpt lat="45.96562954375452" lon="9.45037976943036"><ele>559.0</ele><time>2026-04-26T08:25:48Z</time></trkpt><trkpt lat="45.965814362336424" lon="9.45028738660767"><ele>558.5</ele><time>2026-04-26T08:25:49Z</time></trkpt><trkpt lat="45.96600635207283" lon="9.450148034725425"><ele>558.0</ele><time>2026-04-26T08:25:50Z</time></trkpt><trkpt lat="45.96620656892396" lon="9.44994531020415"><ele>558.0</ele><time>2026-04-26T08:25:51Z</time></trkpt><trkpt lat="45.96640401802282" lon="9.449725080091993"><ele>558.0</ele><time>2026-04-26T08:25:52Z</time></trkpt><trkpt lat="45.966626964046014" lon="9.44947878839515"><ele>558.0</ele><time>2026-04-26T08:25:53Z</time></trkpt><trkpt lat="45.96686659909333" lon="9.449222246134713"><ele>558.0</ele><time>2026-04-26T08:25:54Z</time></trkpt><trkpt lat="45.967105411119825" lon="9.448978666712534"><ele>557.0</ele><time>2026-04-26T08:25:55Z</time></trkpt><trkpt lat="45.967336484962445" lon="9.448733988624102"><ele>556.0</ele><time>2026-04-26T08:25:56Z</time></trkpt><trkpt lat="45.96756696542974" lon="9.448495438133836"><ele>558.0</ele><time>2026-04-26T08:25:57Z</time></trkpt><trkpt lat="45.96779908694721" lon="9.448270037199638"><ele>560.0</ele><time>2026-04-26T08:25:58Z</time></trkpt><trkpt lat="45.968041077120105" lon="9.448014562600909"><ele>559.5</ele><time>2026-04-26T08:25:59Z</time></trkpt><trkpt lat="45.968274978327074" lon="9.447764604781053"><ele>559.0</ele><time>2026-04-26T08:26:00Z</time></trkpt><trkpt lat="45.968490403699036" lon="9.447544600415386"><ele>559.0</ele><time>2026-04-26T08:26:01Z</time></trkpt><trkpt lat="45.968675475103595" lon="9.4473568899295"><ele>559.0</ele><time>2026-04-26T08:26:02Z</time></trkpt><trkpt lat="45.96884594977767" lon="9.447162684911898"><ele>559.0</ele><time>2026-04-26T08:26:03Z</time></trkpt><trkpt lat="45.96903133890692" lon="9.446957192955878"><ele>557.0</ele><time>2026-04-26T08:26:04Z</time></trkpt><trkpt lat="45.969238659926276" lon="9.446752022934858"><ele>555.0</ele><time>2026-04-26T08:26:05Z</time></trkpt><trkpt lat="45.96943793065363" lon="9.446562801447838"><ele>555.0</ele><time>2026-04-26T08:26:06Z</time></trkpt><trkpt lat="45.96963581380005" lon="9.446404337722655"><ele>555.0</ele><time>2026-04-26T08:26:07Z</time></trkpt><trkpt lat="45.969828956964186" lon="9.446269531885997"><ele>555.0</ele><time>2026-04-26T08:26:08Z</time></trkpt><trkpt lat="45.97002977984135" lon="9.446132700902444"><ele>553.5</ele><time>2026-04-26T08:26:09Z</time></trkpt><trkpt lat="45.97024039697413" lon="9.445991288044345"><ele>552.0</ele><time>2026-04-26T08:26:10Z</time></trkpt><trkpt lat="45.97048206167282" lon="9.445851534462376"><ele>552.0</ele><time>2026-04-26T08:26:11Z</time></trkpt><trkpt lat="45.970744385307256" lon="9.445718298159044"><ele>552.0</ele><time>2026-04-26T08:26:12Z</time></trkpt><trkpt lat="45.9710329120206" lon="9.445577985456472"><ele>551.5</ele><time>2026-04-26T08:26:13Z</time></trkpt><trkpt lat="45.971345504148665" lon="9.445426203288678"><ele>551.0</ele><time>2026-04-26T08:26:14Z</time></trkpt><trkpt lat="45.97167704216848" lon="9.44525034705413"><ele>551.0</ele><time>2026-04-26T08:26:15Z</time></trkpt><trkpt lat="45.97202893179932" lon="9.445064268752294"><ele>551.0</ele><time>2026-04-26T08:26:16Z</time></trkpt><trkpt lat="45.97237854574947" lon="9.44489570403478"><ele>550.5</ele><time>2026-04-26T08:26:17Z</time></trkpt><trkpt lat="45.97270466944138" lon="9.444701160076994"><ele>550.0</ele><time>2026-04-26T08:26:18Z</time></trkpt><trkpt lat="45.97299809488553" lon="9.444544766962858"><ele>550.0</ele><time>2026-04-26T08:26:19Z</time></trkpt><trkpt lat="45.97327217928304" lon="9.444394504591777"><ele>550.0</ele><time>2026-04-26T08:26:20Z</time></trkpt><trkpt lat="45.97352493045315" lon="9.444252299847413"><ele>552.0</ele><time>2026-04-26T08:26:21Z</time></trkpt><trkpt lat="45.97376639980495" lon="9.444131944855098"><ele>554.0</ele><time>2026-04-26T08:26:22Z</time></trkpt><trkpt lat="45.97398947780246" lon="9.444056955549408"><ele>554.6666666666666</ele><time>2026-04-26T08:26:23Z</time></trkpt><trkpt lat="45.97420887509031" lon="9.444037697018466"><ele>555.3333333333334</ele><time>2026-04-26T08:26:24Z</time></trkpt><trkpt lat="45.97442176688935" lon="9.444083530739764"><ele>556.0</ele><time>2026-04-26T08:26:25Z</time></trkpt><trkpt lat="45.974599775423975" lon="9.4441647392067"><ele>556.0</ele><time>2026-04-26T08:26:26Z</time></trkpt><trkpt lat="45.9747396867266" lon="9.444309727173213"><ele>556.0</ele><time>2026-04-26T08:26:27Z</time></trkpt><trkpt lat="45.974888370549714" lon="9.444499622817174"><ele>556.0</ele><time>2026-04-26T08:26:28Z</time></trkpt><trkpt lat="45.974996773903975" lon="9.444708643989582"><ele>557.3333333333334</ele><time>2026-04-26T08:26:29Z</time></trkpt><trkpt lat="45.975078264344404" lon="9.444949351235632"><ele>558.6666666666666</ele><time>2026-04-26T08:26:30Z</time></trkpt><trkpt lat="45.97512903793566" lon="9.445182302059342"><ele>560.0</ele><time>2026-04-26T08:26:31Z</time></trkpt><trkpt lat="45.97515796889469" lon="9.445401597650847"><ele>561.3333333333333</ele><time>2026-04-26T08:26:32Z</time></trkpt><trkpt lat="45.97518788276697" lon="9.445630071053932"><ele>562.6666666666666</ele><time>2026-04-26T08:26:33Z</time></trkpt><trkpt lat="45.97521795834141" lon="9.445857374172332"><ele>564.0</ele><time>2026-04-26T08:26:34Z</time></trkpt><trkpt lat="45.975255772763624" lon="9.446137614219962"><ele>566.0</ele><time>2026-04-26T08:26:35Z</time></trkpt><trkpt lat="45.97529578220991" lon="9.446440932699824"><ele>568.0</ele><time>2026-04-26T08:26:36Z</time></trkpt><trkpt lat="45.975349476047526" lon="9.446743523126646"><ele>570.0</ele><time>2026-04-26T08:26:37Z</time></trkpt><trkpt lat="45.975377248940646" lon="9.447070144980822"><ele>571.0</ele><time>2026-04-26T08:26:38Z</time></trkpt><trkpt lat="45.97542439263992" lon="9.447381540374217"><ele>572.0</ele><time>2026-04-26T08:26:39Z</time></trkpt><trkpt lat="45.97547787660479" lon="9.447659653153455"><ele>573.0</ele><time>2026-04-26T08:26:40Z</time></trkpt><trkpt lat="45.9755405836073" lon="9.447885463140974"><ele>573.4</ele><time>2026-04-26T08:26:41Z</time></trkpt><trkpt lat="45.975629847918135" lon="9.44806915160929"><ele>573.8</ele><time>2026-04-26T08:26:42Z</time></trkpt><trkpt lat="45.97570326314734" lon="9.448187737137077"><ele>574.2</ele><time>2026-04-26T08:26:43Z</time></trkpt><trkpt lat="45.97575919680011" lon="9.448277073330491"><ele>574.6</ele><time>2026-04-26T08:26:44Z</time></trkpt><trkpt lat="45.9758051109107" lon="9.44834596529815"><ele>575.0</ele><time>2026-04-26T08:26:45Z</time></trkpt><trkpt lat="45.975836324540005" lon="9.448471475894442"><ele>575.8</ele><time>2026-04-26T08:26:47Z</time></trkpt><trkpt lat="45.97596202889276" lon="9.448470758244614"><ele>576.6</ele><time>2026-04-26T08:34:48.999Z</time></trkpt><trkpt lat="45.976049698986124" lon="9.448487754024509"><ele>577.4</ele><time>2026-04-26T08:34:49.999Z</time></trkpt><trkpt lat="45.97616034876816" lon="9.448509811036386"><ele>578.2</ele><time>2026-04-26T08:34:50.999Z</time></trkpt><trkpt lat="45.97624263116556" lon="9.448541726256337"><ele>579.0</ele><time>2026-04-26T08:34:51.999Z</time></trkpt><trkpt lat="45.976325097350475" lon="9.448576275700402"><ele>579.0</ele><time>2026-04-26T08:34:52.999Z</time></trkpt><trkpt lat="45.97639776295473" lon="9.448596581607855"><ele>579.0</ele><time>2026-04-26T08:34:53.999Z</time></trkpt><trkpt lat="45.976467327367494" lon="9.44860981284191"><ele>579.0</ele><time>2026-04-26T08:34:54.999Z</time></trkpt><trkpt lat="45.976531144511384" lon="9.448638485716495"><ele>579.0</ele><time>2026-04-26T08:34:55.999Z</time></trkpt><trkpt lat="45.97662002873422" lon="9.448667431300546"><ele>579.0</ele><time>2026-04-26T08:34:56.999Z</time></trkpt><trkpt lat="45.97671626349131" lon="9.448725199496455"><ele>579.0</ele><time>2026-04-26T08:34:57.999Z</time></trkpt><trkpt lat="45.97681590337715" lon="9.448736058615092"><ele>581.0</ele><time>2026-04-26T08:34:58.999Z</time></trkpt><trkpt lat="45.97693040353808" lon="9.448800088755839"><ele>583.0</ele><time>2026-04-26T08:34:59.999Z</time></trkpt><trkpt lat="45.97707316285492" lon="9.448852618033532"><ele>585.0</ele><time>2026-04-26T08:35:00.999Z</time></trkpt><trkpt lat="45.97721009837988" lon="9.448871110565978"><ele>587.0</ele><time>2026-04-26T08:35:01.999Z</time></trkpt><trkpt lat="45.97732240796953" lon="9.448916506292983"><ele>587.0</ele><time>2026-04-26T08:35:02.999Z</time></trkpt><trkpt lat="45.97742284322509" lon="9.448957064125102"><ele>587.0</ele><time>2026-04-26T08:35:03.999Z</time></trkpt><trkpt lat="45.977525016222955" lon="9.448990437744705"><ele>587.0</ele><time>2026-04-26T08:35:04.999Z</time></trkpt><trkpt lat="45.97762738265346" lon="9.449001089278834"><ele>587.0</ele><time>2026-04-26T08:35:05.999Z</time></trkpt><trkpt lat="45.97772747594063" lon="9.448977778511248"><ele>587.0</ele><time>2026-04-26T08:35:06.999Z</time></trkpt><trkpt lat="45.977836310544156" lon="9.448935918829"><ele>587.0</ele><time>2026-04-26T08:35:07.999Z</time></trkpt><trkpt lat="45.97795871365429" lon="9.448855139937253"><ele>587.0</ele><time>2026-04-26T08:35:08.999Z</time></trkpt><trkpt lat="45.97813009161469" lon="9.448751093221395"><ele>587.0</ele><time>2026-04-26T08:35:09.999Z</time></trkpt><trkpt lat="45.978324776232675" lon="9.448656906715986"><ele>586.0</ele><time>2026-04-26T08:35:10.999Z</time></trkpt><trkpt lat="45.978489885730006" lon="9.448602681987992"><ele>585.0</ele><time>2026-04-26T08:35:11.999Z</time></trkpt><trkpt lat="45.97863595233926" lon="9.448547226830778"><ele>584.0</ele><time>2026-04-26T08:35:12.999Z</time></trkpt><trkpt lat="45.97876725951892" lon="9.448470524510764"><ele>584.0</ele><time>2026-04-26T08:35:13.999Z</time></trkpt><trkpt lat="45.97888788702074" lon="9.448366084244146"><ele>584.0</ele><time>2026-04-26T08:35:14.999Z</time></trkpt><trkpt lat="45.97899073374718" lon="9.448232755396328"><ele>584.0</ele><time>2026-04-26T08:35:16Z</time></trkpt><trkpt lat="45.97908455317453" lon="9.448088629887883"><ele>584.0</ele><time>2026-04-26T08:35:17Z</time></trkpt><trkpt lat="45.97916726393973" lon="9.447937975265914"><ele>583.3333333333333</ele><time>2026-04-26T08:35:18Z</time></trkpt><trkpt lat="45.97923982827299" lon="9.447767732836102"><ele>582.6666666666666</ele><time>2026-04-26T08:35:19Z</time></trkpt><trkpt lat="45.979306556406414" lon="9.447558502523425"><ele>582.0</ele><time>2026-04-26T08:35:20Z</time></trkpt><trkpt lat="45.9793852908935" lon="9.447288802389082"><ele>579.0</ele><time>2026-04-26T08:35:21Z</time></trkpt><trkpt lat="45.979513736509986" lon="9.44699094592944"><ele>576.0</ele><time>2026-04-26T08:35:22Z</time></trkpt><trkpt lat="45.979650756026246" lon="9.446638510999593"><ele>576.0</ele><time>2026-04-26T08:35:23Z</time></trkpt><trkpt lat="45.979788230681876" lon="9.446330176961053"><ele>576.0</ele><time>2026-04-26T08:35:24Z</time></trkpt><trkpt lat="45.97989928675366" lon="9.446038831840248"><ele>576.3333333333334</ele><time>2026-04-26T08:35:25Z</time></trkpt><trkpt lat="45.97999891887406" lon="9.445772447046144"><ele>576.6666666666667</ele><time>2026-04-26T08:35:26Z</time></trkpt><trkpt lat="45.980085654909466" lon="9.445512113321207"><ele>577.0</ele><time>2026-04-26T08:35:27Z</time></trkpt><trkpt lat="45.9801604034542" lon="9.445249867946615"><ele>577.0</ele><time>2026-04-26T08:35:28Z</time></trkpt><trkpt lat="45.980217886577826" lon="9.44500414990253"><ele>577.0</ele><time>2026-04-26T08:35:29Z</time></trkpt><trkpt lat="45.98027695953723" lon="9.444770436081505"><ele>577.0</ele><time>2026-04-26T08:35:30Z</time></trkpt><trkpt lat="45.980331031369936" lon="9.44455305211262"><ele>574.0</ele><time>2026-04-26T08:35:31Z</time></trkpt><trkpt lat="45.980378927948195" lon="9.444336510807737"><ele>571.0</ele><time>2026-04-26T08:35:32Z</time></trkpt><trkpt lat="45.98043228255832" lon="9.444120668913259"><ele>568.0</ele><time>2026-04-26T08:35:33Z</time></trkpt><trkpt lat="45.980487887634375" lon="9.443881780190704"><ele>567.0</ele><time>2026-04-26T08:35:34Z</time></trkpt><trkpt lat="45.980556175380364" lon="9.443591201225109"><ele>566.0</ele><time>2026-04-26T08:35:35Z</time></trkpt><trkpt lat="45.980653130483255" lon="9.44326783262671"><ele>563.5</ele><time>2026-04-26T08:35:36Z</time></trkpt><trkpt lat="45.980744326952745" lon="9.442900823038698"><ele>561.0</ele><time>2026-04-26T08:35:37Z</time></trkpt><trkpt lat="45.98084979198209" lon="9.442549796774614"><ele>562.3333333333334</ele><time>2026-04-26T08:35:38Z</time></trkpt><trkpt lat="45.98097924065862" lon="9.442243203202102"><ele>563.6666666666667</ele><time>2026-04-26T08:35:39Z</time></trkpt><trkpt lat="45.98100353959342" lon="9.441976061823249"><ele>565.0</ele><time>2026-04-26T08:35:40Z</time></trkpt><trkpt lat="45.981065252000775" lon="9.441681689589949"><ele>565.0</ele><time>2026-04-26T08:35:41Z</time></trkpt><trkpt lat="45.98116733036934" lon="9.441436214504634"><ele>565.0</ele><time>2026-04-26T08:35:42Z</time></trkpt><trkpt lat="45.98129551805512" lon="9.441205813485494"><ele>565.0</ele><time>2026-04-26T08:35:43Z</time></trkpt><trkpt lat="45.98144005600694" lon="9.440961298496973"><ele>561.0</ele><time>2026-04-26T08:35:44Z</time></trkpt><trkpt lat="45.981582877885266" lon="9.440714678300232"><ele>557.0</ele><time>2026-04-26T08:35:45Z</time></trkpt><trkpt lat="45.98173982547247" lon="9.440446739868413"><ele>557.0</ele><time>2026-04-26T08:35:46Z</time></trkpt><trkpt lat="45.981884562794484" lon="9.440189465205371"><ele>557.0</ele><time>2026-04-26T08:35:47Z</time></trkpt><trkpt lat="45.98201402544893" lon="9.439945874052105"><ele>557.0</ele><time>2026-04-26T08:35:48Z</time></trkpt><trkpt lat="45.9821371962484" lon="9.439718917576124"><ele>554.3333333333333</ele><time>2026-04-26T08:35:49Z</time></trkpt><trkpt lat="45.982255851037756" lon="9.439513160133085"><ele>551.6666666666666</ele><time>2026-04-26T08:35:50Z</time></trkpt><trkpt lat="45.982376495396935" lon="9.439317797289444"><ele>549.0</ele><time>2026-04-26T08:35:51Z</time></trkpt><trkpt lat="45.98251315574057" lon="9.439122998012863"><ele>550.0</ele><time>2026-04-26T08:35:52Z</time></trkpt><trkpt lat="45.98262342967539" lon="9.43886593592465"><ele>551.0</ele><time>2026-04-26T08:35:53Z</time></trkpt><trkpt lat="45.98275824884246" lon="9.438634347870835"><ele>552.0</ele><time>2026-04-26T08:35:54Z</time></trkpt><trkpt lat="45.982899566529845" lon="9.438398302072352"><ele>552.0</ele><time>2026-04-26T08:35:55Z</time></trkpt><trkpt lat="45.98302647172326" lon="9.438171388886145"><ele>552.0</ele><time>2026-04-26T08:35:56Z</time></trkpt><trkpt lat="45.983151901246565" lon="9.43794380646494"><ele>552.0</ele><time>2026-04-26T08:35:57Z</time></trkpt><trkpt lat="45.983242330572644" lon="9.437709730109907"><ele>551.6666666666666</ele><time>2026-04-26T08:35:58Z</time></trkpt><trkpt lat="45.983328902333376" lon="9.437429446696227"><ele>551.3333333333333</ele><time>2026-04-26T08:35:59Z</time></trkpt><trkpt lat="45.98340930090631" lon="9.4371360313658"><ele>551.0</ele><time>2026-04-26T08:36:00Z</time></trkpt><trkpt lat="45.98347600017211" lon="9.436853018421354"><ele>552.0</ele><time>2026-04-26T08:36:01Z</time></trkpt><trkpt lat="45.983542621658884" lon="9.43659473600772"><ele>553.0</ele><time>2026-04-26T08:36:02Z</time></trkpt><trkpt lat="45.98361799601548" lon="9.436349267549819"><ele>554.0</ele><time>2026-04-26T08:36:03Z</time></trkpt><trkpt lat="45.98372195542267" lon="9.43612160663399"><ele>554.0</ele><time>2026-04-26T08:36:04Z</time></trkpt><trkpt lat="45.9838662350915" lon="9.435919611851393"><ele>554.0</ele><time>2026-04-26T08:36:05Z</time></trkpt><trkpt lat="45.984025035292504" lon="9.435738708576388"><ele>554.0</ele><time>2026-04-26T08:36:06Z</time></trkpt><trkpt lat="45.984189662125026" lon="9.435537509698712"><ele>555.3333333333333</ele><time>2026-04-26T08:36:07Z</time></trkpt><trkpt lat="45.984376529131396" lon="9.435353468941836"><ele>556.6666666666666</ele><time>2026-04-26T08:36:08Z</time></trkpt><trkpt lat="45.98454552329681" lon="9.43515960437415"><ele>558.0</ele><time>2026-04-26T08:36:09Z</time></trkpt><trkpt lat="45.984705783452654" lon="9.434956528440557"><ele>558.0</ele><time>2026-04-26T08:36:10Z</time></trkpt><trkpt lat="45.98484638360541" lon="9.434726094020588"><ele>558.0</ele><time>2026-04-26T08:36:11Z</time></trkpt><trkpt lat="45.98495534523189" lon="9.434463907868038"><ele>558.0</ele><time>2026-04-26T08:36:12Z</time></trkpt><trkpt lat="45.98502693960929" lon="9.434182876029428"><ele>558.3333333333334</ele><time>2026-04-26T08:36:13Z</time></trkpt><trkpt lat="45.98507321424287" lon="9.433884383979215"><ele>558.6666666666667</ele><time>2026-04-26T08:36:14Z</time></trkpt><trkpt lat="45.985112420500705" lon="9.433591039139115"><ele>559.0</ele><time>2026-04-26T08:36:15Z</time></trkpt><trkpt lat="45.98514791610993" lon="9.433296267884685"><ele>559.0</ele><time>2026-04-26T08:36:16Z</time></trkpt><trkpt lat="45.98519418558292" lon="9.433029402795313"><ele>559.0</ele><time>2026-04-26T08:36:17Z</time></trkpt><trkpt lat="45.98526004136008" lon="9.432782394911916"><ele>559.0</ele><time>2026-04-26T08:36:18Z</time></trkpt><trkpt lat="45.98534020512444" lon="9.432572044587289"><ele>556.6666666666667</ele><time>2026-04-26T08:36:19Z</time></trkpt><trkpt lat="45.985442401643276" lon="9.432379492436958"><ele>554.3333333333334</ele><time>2026-04-26T08:36:20Z</time></trkpt><trkpt lat="45.98557756350807" lon="9.432215530383743"><ele>552.0</ele><time>2026-04-26T08:36:21Z</time></trkpt><trkpt lat="45.98571080654136" lon="9.432065703304051"><ele>551.25</ele><time>2026-04-26T08:36:22Z</time></trkpt><trkpt lat="45.98582995562561" lon="9.431908430801604"><ele>550.5</ele><time>2026-04-26T08:36:23Z</time></trkpt><trkpt lat="45.985935013765896" lon="9.43179168113303"><ele>549.75</ele><time>2026-04-26T08:36:24Z</time></trkpt><trkpt lat="45.986017078755935" lon="9.431679478525961"><ele>549.0</ele><time>2026-04-26T08:36:25Z</time></trkpt><trkpt lat="45.986094932551396" lon="9.431574362586074"><ele>551.75</ele><time>2026-04-26T08:36:26Z</time></trkpt><trkpt lat="45.986163090297204" lon="9.431453261049048"><ele>554.5</ele><time>2026-04-26T08:36:27Z</time></trkpt><trkpt lat="45.986217583542356" lon="9.431322887104091"><ele>557.25</ele><time>2026-04-26T08:36:28Z</time></trkpt><trkpt lat="45.986260277815795" lon="9.431154817414862"><ele>560.0</ele><time>2026-04-26T08:36:29Z</time></trkpt><trkpt lat="45.98625329157745" lon="9.430902922442735"><ele>560.0</ele><time>2026-04-26T08:36:30Z</time></trkpt><trkpt lat="45.98624312555089" lon="9.430637736315072"><ele>560.0</ele><time>2026-04-26T08:36:31Z</time></trkpt><trkpt lat="45.98625227779174" lon="9.430338177811603"><ele>560.0</ele><time>2026-04-26T08:36:32Z</time></trkpt><trkpt lat="45.98627718947" lon="9.430041424653544"><ele>560.0</ele><time>2026-04-26T08:36:33Z</time></trkpt><trkpt lat="45.98630139775743" lon="9.429762425857115"><ele>560.0</ele><time>2026-04-26T08:36:34Z</time></trkpt><trkpt lat="45.98631032305822" lon="9.429504054212956"><ele>560.0</ele><time>2026-04-26T08:36:35Z</time></trkpt><trkpt lat="45.986325714103394" lon="9.429264745691436"><ele>560.0</ele><time>2026-04-26T08:36:36Z</time></trkpt><trkpt lat="45.98634507644101" lon="9.429036385554662"><ele>560.0</ele><time>2026-04-26T08:36:37Z</time></trkpt><trkpt lat="45.98634693095801" lon="9.428815329869995"><ele>560.0</ele><time>2026-04-26T08:36:38Z</time></trkpt><trkpt lat="45.98636406144541" lon="9.428596007331574"><ele>559.0</ele><time>2026-04-26T08:36:39Z</time></trkpt><trkpt lat="45.98638700643748" lon="9.42838589696897"><ele>558.0</ele><time>2026-04-26T08:36:40Z</time></trkpt><trkpt lat="45.986412276903735" lon="9.428178656309521"><ele>557.0</ele><time>2026-04-26T08:36:41Z</time></trkpt><trkpt lat="45.98644563191288" lon="9.427966866745999"><ele>556.0</ele><time>2026-04-26T08:36:41.999Z</time></trkpt><trkpt lat="45.986477206651514" lon="9.427747607865909"><ele>555.0</ele><time>2026-04-26T08:36:42.999Z</time></trkpt><trkpt lat="45.986490112513785" lon="9.427530481712"><ele>554.0</ele><time>2026-04-26T08:36:43.999Z</time></trkpt><trkpt lat="45.986496516131616" lon="9.427320776992772"><ele>553.0</ele><time>2026-04-26T08:36:44.999Z</time></trkpt><trkpt lat="45.986460401468136" lon="9.427129323772744"><ele>552.0</ele><time>2026-04-26T08:36:45.999Z</time></trkpt><trkpt lat="45.98642490722388" lon="9.426953689812851"><ele>551.0</ele><time>2026-04-26T08:36:46.999Z</time></trkpt><trkpt lat="45.98639275954121" lon="9.426770983794588"><ele>550.0</ele><time>2026-04-26T08:36:47.999Z</time></trkpt><trkpt lat="45.98637245332499" lon="9.426593590894578"><ele>549.0</ele><time>2026-04-26T08:36:48.999Z</time></trkpt><trkpt lat="45.98636233753108" lon="9.42642620269954"><ele>548.0</ele><time>2026-04-26T08:36:49.999Z</time></trkpt><trkpt lat="45.98638905422361" lon="9.426248170484326"><ele>545.0</ele><time>2026-04-26T08:36:50.999Z</time></trkpt><trkpt lat="45.986427665877216" lon="9.426065758032141"><ele>542.0</ele><time>2026-04-26T08:36:51.999Z</time></trkpt><trkpt lat="45.986475988303155" lon="9.425852182607832"><ele>539.0</ele><time>2026-04-26T08:36:52.999Z</time></trkpt><trkpt lat="45.98653188358187" lon="9.425609047479227"><ele>537.0</ele><time>2026-04-26T08:36:53.999Z</time></trkpt><trkpt lat="45.986585225748684" lon="9.425331240307722"><ele>535.0</ele><time>2026-04-26T08:36:54.999Z</time></trkpt><trkpt lat="45.98665704315679" lon="9.425044838710782"><ele>533.0</ele><time>2026-04-26T08:36:55.999Z</time></trkpt><trkpt lat="45.98672447910859" lon="9.424753953621417"><ele>536.0</ele><time>2026-04-26T08:36:56.999Z</time></trkpt><trkpt lat="45.98680008028515" lon="9.42445260645447"><ele>539.0</ele><time>2026-04-26T08:36:57.999Z</time></trkpt><trkpt lat="45.98686213429568" lon="9.42417488469653"><ele>542.0</ele><time>2026-04-26T08:36:58.999Z</time></trkpt><trkpt lat="45.986918163913295" lon="9.423918618976979"><ele>539.3333333333333</ele><time>2026-04-26T08:36:59.999Z</time></trkpt><trkpt lat="45.98697290967181" lon="9.423676027215416"><ele>536.6666666666666</ele><time>2026-04-26T08:37:00.999Z</time></trkpt><trkpt lat="45.98703078953512" lon="9.423427758061436"><ele>534.0</ele><time>2026-04-26T08:37:01.999Z</time></trkpt><trkpt lat="45.98708139350692" lon="9.423205357920947"><ele>534.0</ele><time>2026-04-26T08:37:02.999Z</time></trkpt><trkpt lat="45.98713143850169" lon="9.422984744189815"><ele>534.0</ele><time>2026-04-26T08:37:03.999Z</time></trkpt><trkpt lat="45.98719364100065" lon="9.42276727797765"><ele>534.0</ele><time>2026-04-26T08:37:04.999Z</time></trkpt><trkpt lat="45.98724326323847" lon="9.422556912802044"><ele>531.6666666666666</ele><time>2026-04-26T08:37:05.999Z</time></trkpt><trkpt lat="45.98728389720742" lon="9.422336611057773"><ele>529.3333333333333</ele><time>2026-04-26T08:37:06.999Z</time></trkpt><trkpt lat="45.987334064572366" lon="9.422109797181518"><ele>527.0</ele><time>2026-04-26T08:37:07.999Z</time></trkpt><trkpt lat="45.987386833899436" lon="9.421883916337134"><ele>527.0</ele><time>2026-04-26T08:37:08.999Z</time></trkpt><trkpt lat="45.98747925667351" lon="9.42165315962571"><ele>527.0</ele><time>2026-04-26T08:37:09.999Z</time></trkpt><trkpt lat="45.98759133473911" lon="9.421420826133602"><ele>527.0</ele><time>2026-04-26T08:37:10.999Z</time></trkpt><trkpt lat="45.98773291421357" lon="9.421175088913818"><ele>527.0</ele><time>2026-04-26T08:37:11.999Z</time></trkpt><trkpt lat="45.987877315529836" lon="9.420897406144633"><ele>527.0</ele><time>2026-04-26T08:37:12.999Z</time></trkpt><trkpt lat="45.988022890701096" lon="9.420641452907125"><ele>523.5</ele><time>2026-04-26T08:37:13.999Z</time></trkpt><trkpt lat="45.98815418737383" lon="9.420378791130414"><ele>520.0</ele><time>2026-04-26T08:37:14.999Z</time></trkpt><trkpt lat="45.98826816199105" lon="9.42008276160074"><ele>525.0</ele><time>2026-04-26T08:37:15.999Z</time></trkpt><trkpt lat="45.98836344972473" lon="9.419766763231927"><ele>530.0</ele><time>2026-04-26T08:37:16.999Z</time></trkpt><trkpt lat="45.98847596164657" lon="9.419481402082859"><ele>530.0</ele><time>2026-04-26T08:37:17.999Z</time></trkpt><trkpt lat="45.98856403517552" lon="9.419195188818502"><ele>530.0</ele><time>2026-04-26T08:37:18.999Z</time></trkpt><trkpt lat="45.98864192553691" lon="9.41891051191739"><ele>530.0</ele><time>2026-04-26T08:37:19.999Z</time></trkpt><trkpt lat="45.98867900918669" lon="9.4186123029098"><ele>526.3333333333333</ele><time>2026-04-26T08:37:20.999Z</time></trkpt><trkpt lat="45.98870076869374" lon="9.418313105183394"><ele>522.6666666666666</ele><time>2026-04-26T08:37:21.999Z</time></trkpt><trkpt lat="45.988753493437706" lon="9.418029902369943"><ele>519.0</ele><time>2026-04-26T08:37:22.999Z</time></trkpt><trkpt lat="45.98886191347906" lon="9.41775123077523"><ele>516.6666666666666</ele><time>2026-04-26T08:37:23.999Z</time></trkpt><trkpt lat="45.98896686257477" lon="9.417475803633206"><ele>514.3333333333333</ele><time>2026-04-26T08:37:24.999Z</time></trkpt><trkpt lat="45.98905418394044" lon="9.41721534056414"><ele>512.0</ele><time>2026-04-26T08:37:25.999Z</time></trkpt><trkpt lat="45.98914785202396" lon="9.416962005767568"><ele>511.66666666666663</ele><time>2026-04-26T08:37:27Z</time></trkpt><trkpt lat="45.98923873627278" lon="9.41672567865129"><ele>511.33333333333337</ele><time>2026-04-26T08:37:28Z</time></trkpt><trkpt lat="45.98934035356541" lon="9.416510306162738"><ele>511.0</ele><time>2026-04-26T08:37:29Z</time></trkpt><trkpt lat="45.98943900130782" lon="9.416314086599364"><ele>511.0</ele><time>2026-04-26T08:37:30Z</time></trkpt><trkpt lat="45.98953368786501" lon="9.416127101015917"><ele>511.0</ele><time>2026-04-26T08:37:31Z</time></trkpt><trkpt lat="45.98961734527017" lon="9.41594643702381"><ele>511.0</ele><time>2026-04-26T08:37:32Z</time></trkpt><trkpt lat="45.98967561724473" lon="9.415705375666054"><ele>508.0</ele><time>2026-04-26T08:37:33Z</time></trkpt><trkpt lat="45.98974234005514" lon="9.415482656389385"><ele>505.0</ele><time>2026-04-26T08:37:34Z</time></trkpt><trkpt lat="45.989820071763006" lon="9.415247490537094"><ele>502.0</ele><time>2026-04-26T08:37:35Z</time></trkpt><trkpt lat="45.989908689537" lon="9.415012090375516"><ele>502.0</ele><time>2026-04-26T08:37:36Z</time></trkpt><trkpt lat="45.989998338771535" lon="9.41477457482443"><ele>502.0</ele><time>2026-04-26T08:37:37Z</time></trkpt><trkpt lat="45.990110127938316" lon="9.414505006682324"><ele>502.0</ele><time>2026-04-26T08:37:38Z</time></trkpt><trkpt lat="45.99016952312251" lon="9.41420074878543"><ele>501.33333333333337</ele><time>2026-04-26T08:37:39Z</time></trkpt><trkpt lat="45.99023717908591" lon="9.413910024357088"><ele>500.66666666666663</ele><time>2026-04-26T08:37:40Z</time></trkpt><trkpt lat="45.990350949583345" lon="9.41365549816174"><ele>500.0</ele><time>2026-04-26T08:37:41Z</time></trkpt><trkpt lat="45.9904774447033" lon="9.41343398343007"><ele>500.0</ele><time>2026-04-26T08:37:42Z</time></trkpt><trkpt lat="45.990605002390915" lon="9.41326057648072"><ele>500.0</ele><time>2026-04-26T08:37:43Z</time></trkpt><trkpt lat="45.990705524575425" lon="9.413150679407853"><ele>500.0</ele><time>2026-04-26T08:37:44Z</time></trkpt><trkpt lat="45.99035662927992" lon="9.412418740031647"><ele>494.5</ele><time>2026-04-26T08:37:45Z</time></trkpt><trkpt lat="45.990572180632626" lon="9.412012482071809"><ele>489.0</ele><time>2026-04-26T08:37:46Z</time></trkpt><trkpt lat="45.99057539751467" lon="9.411614448416671"><ele>488.5</ele><time>2026-04-26T08:37:47Z</time></trkpt><trkpt lat="45.990617947847284" lon="9.411268943940518"><ele>488.0</ele><time>2026-04-26T08:37:48Z</time></trkpt><trkpt lat="45.99161766341806" lon="9.41215468238978"><ele>499.66666666666663</ele><time>2026-04-26T08:37:49Z</time></trkpt><trkpt lat="45.99175300819228" lon="9.411933006179964"><ele>511.33333333333337</ele><time>2026-04-26T08:37:50Z</time></trkpt><trkpt lat="45.99185378294911" lon="9.411669190662515"><ele>523.0</ele><time>2026-04-26T08:37:51Z</time></trkpt><trkpt lat="45.99193064830665" lon="9.411369205818483"><ele>515.5</ele><time>2026-04-26T08:37:52Z</time></trkpt><trkpt lat="45.991996664083885" lon="9.411042886625207"><ele>508.0</ele><time>2026-04-26T08:37:53Z</time></trkpt><trkpt lat="45.99206831261231" lon="9.41071754149513"><ele>503.5</ele><time>2026-04-26T08:37:54Z</time></trkpt><trkpt lat="45.99214583451752" lon="9.410394967643"><ele>499.0</ele><time>2026-04-26T08:37:55Z</time></trkpt><trkpt lat="45.99222596690596" lon="9.410083316600126"><ele>499.0</ele><time>2026-04-26T08:37:56Z</time></trkpt><trkpt lat="45.99229149228553" lon="9.409783657852529"><ele>499.0</ele><time>2026-04-26T08:37:57Z</time></trkpt><trkpt lat="45.99237100863808" lon="9.409491189798091"><ele>499.0</ele><time>2026-04-26T08:37:58Z</time></trkpt><trkpt lat="45.9924927384081" lon="9.409228635088567"><ele>500.33333333333337</ele><time>2026-04-26T08:37:59Z</time></trkpt><trkpt lat="45.99262895624978" lon="9.40897930193456"><ele>501.66666666666663</ele><time>2026-04-26T08:38:00Z</time></trkpt><trkpt lat="45.99276630335524" lon="9.408740858282476"><ele>503.0</ele><time>2026-04-26T08:38:01Z</time></trkpt><trkpt lat="45.9929218900645" lon="9.408472054743351"><ele>503.0</ele><time>2026-04-26T08:38:02Z</time></trkpt><trkpt lat="45.9930378915972" lon="9.40819936523959"><ele>503.0</ele><time>2026-04-26T08:38:03Z</time></trkpt><trkpt lat="45.99317146303154" lon="9.40796779233309"><ele>503.0</ele><time>2026-04-26T08:38:04Z</time></trkpt><trkpt lat="45.993278574233095" lon="9.407710152772792"><ele>519.0</ele><time>2026-04-26T08:38:05Z</time></trkpt><trkpt lat="45.993353951305984" lon="9.407421584729803"><ele>535.0</ele><time>2026-04-26T08:38:06Z</time></trkpt><trkpt lat="45.99339641517927" lon="9.407077982652442"><ele>535.0</ele><time>2026-04-26T08:38:07Z</time></trkpt><trkpt lat="45.99341301753663" lon="9.406681764628894"><ele>535.0</ele><time>2026-04-26T08:38:08Z</time></trkpt><trkpt lat="45.99342112006444" lon="9.406253884279913"><ele>530.5</ele><time>2026-04-26T08:38:09Z</time></trkpt><trkpt lat="45.993437951692236" lon="9.405864922438669"><ele>526.0</ele><time>2026-04-26T08:38:10Z</time></trkpt><trkpt lat="45.993487702239136" lon="9.405479954324475"><ele>521.5</ele><time>2026-04-26T08:38:11Z</time></trkpt><trkpt lat="45.99359768877682" lon="9.405089719073887"><ele>517.0</ele><time>2026-04-26T08:38:12Z</time></trkpt><trkpt lat="45.993702325175796" lon="9.404674403136923"><ele>509.5</ele><time>2026-04-26T08:38:13Z</time></trkpt><trkpt lat="45.99381339423179" lon="9.40424937162502"><ele>502.0</ele><time>2026-04-26T08:38:14Z</time></trkpt><trkpt lat="45.9939108712189" lon="9.4038104998718"><ele>505.5</ele><time>2026-04-26T08:38:15Z</time></trkpt><trkpt lat="45.9940504251648" lon="9.403397769037413"><ele>509.0</ele><time>2026-04-26T08:38:16Z</time></trkpt><trkpt lat="45.994207411647814" lon="9.402974084388056"><ele>509.0</ele><time>2026-04-26T08:38:17Z</time></trkpt><trkpt lat="45.99437609144142" lon="9.402524406864622"><ele>509.0</ele><time>2026-04-26T08:38:18Z</time></trkpt><trkpt lat="45.99455025604383" lon="9.402061450023334"><ele>500.0</ele><time>2026-04-26T08:38:19Z</time></trkpt><trkpt lat="45.994716840807634" lon="9.401593831016"><ele>491.0</ele><time>2026-04-26T08:38:20Z</time></trkpt><trkpt lat="45.99488126184648" lon="9.401132687745864"><ele>491.0</ele><time>2026-04-26T08:38:21Z</time></trkpt><trkpt lat="45.99504744265313" lon="9.400700985547813"><ele>491.0</ele><time>2026-04-26T08:38:22Z</time></trkpt><trkpt lat="45.9951892233054" lon="9.400296873388173"><ele>491.0</ele><time>2026-04-26T08:38:23Z</time></trkpt><trkpt lat="45.99531782770686" lon="9.39993073797219"><ele>491.0</ele><time>2026-04-26T08:38:24Z</time></trkpt><trkpt lat="45.995436311744704" lon="9.39959256133617"><ele>485.5</ele><time>2026-04-26T08:38:25Z</time></trkpt><trkpt lat="45.9955465798713" lon="9.399284980627046"><ele>480.0</ele><time>2026-04-26T08:38:26Z</time></trkpt><trkpt lat="45.995661580055" lon="9.398978368957462"><ele>478.0</ele><time>2026-04-26T08:38:27Z</time></trkpt><trkpt lat="45.9957822536477" lon="9.398692954545526"><ele>476.0</ele><time>2026-04-26T08:38:28Z</time></trkpt><trkpt lat="45.99591852913741" lon="9.398441354172222"><ele>475.0</ele><time>2026-04-26T08:38:29Z</time></trkpt><trkpt lat="45.99607406541476" lon="9.398199444756242"><ele>474.0</ele><time>2026-04-26T08:38:30Z</time></trkpt><trkpt lat="45.99623661150357" lon="9.397969442491133"><ele>474.0</ele><time>2026-04-26T08:38:31Z</time></trkpt><trkpt lat="45.99639803568702" lon="9.39776003252531"><ele>474.0</ele><time>2026-04-26T08:38:32Z</time></trkpt><trkpt lat="45.99655537696103" lon="9.397560154777373"><ele>474.0</ele><time>2026-04-26T08:38:33Z</time></trkpt><trkpt lat="45.99670338554468" lon="9.397358066764596"><ele>474.0</ele><time>2026-04-26T08:38:34Z</time></trkpt><trkpt lat="45.99684431230918" lon="9.397167744321662"><ele>474.0</ele><time>2026-04-26T08:38:35Z</time></trkpt><trkpt lat="45.99697939516994" lon="9.396985775706353"><ele>474.0</ele><time>2026-04-26T08:38:36Z</time></trkpt><trkpt lat="45.997080396386856" lon="9.396849919965213"><ele>474.0</ele><time>2026-04-26T08:38:37Z</time></trkpt><trkpt lat="45.99715892310733" lon="9.396744041784656"><ele>474.0</ele><time>2026-04-26T08:38:38Z</time></trkpt><trkpt lat="45.99721896967896" lon="9.396653085470492"><ele>474.0</ele><time>2026-04-26T08:38:39Z</time></trkpt><trkpt lat="45.997282705325865" lon="9.39655326824601"><ele>474.0</ele><time>2026-04-26T08:38:40Z</time></trkpt><trkpt lat="45.99735500286763" lon="9.396453817178548"><ele>474.0</ele><time>2026-04-26T08:38:41Z</time></trkpt><trkpt lat="45.997427993567186" lon="9.396348642453354"><ele>476.5</ele><time>2026-04-26T08:38:42Z</time></trkpt><trkpt lat="45.99750871725274" lon="9.39623924221457"><ele>479.0</ele><time>2026-04-26T08:38:43Z</time></trkpt><trkpt lat="45.997598447611395" lon="9.396116421281114"><ele>481.5</ele><time>2026-04-26T08:38:44Z</time></trkpt><trkpt lat="45.997691276893136" lon="9.395987547023376"><ele>484.0</ele><time>2026-04-26T08:38:45Z</time></trkpt><trkpt lat="45.99779242784912" lon="9.395842916623328"><ele>484.0</ele><time>2026-04-26T08:38:46Z</time></trkpt><trkpt lat="45.997886166344735" lon="9.395702826868447"><ele>484.0</ele><time>2026-04-26T08:38:47Z</time></trkpt><trkpt lat="45.99800301052116" lon="9.395511986890726"><ele>484.0</ele><time>2026-04-26T08:38:47.999Z</time></trkpt><trkpt lat="45.99816593323598" lon="9.395298972634409"><ele>489.0</ele><time>2026-04-26T08:38:48.999Z</time></trkpt><trkpt lat="45.99833955470448" lon="9.395087946909696"><ele>494.0</ele><time>2026-04-26T08:38:49.999Z</time></trkpt><trkpt lat="45.99851730363882" lon="9.39487133028723"><ele>486.66666666666663</ele><time>2026-04-26T08:38:50.999Z</time></trkpt><trkpt lat="45.998669783451305" lon="9.39466865798991"><ele>479.33333333333337</ele><time>2026-04-26T08:38:51.999Z</time></trkpt><trkpt lat="45.998793319095846" lon="9.394469218100442"><ele>472.0</ele><time>2026-04-26T08:38:52.999Z</time></trkpt><trkpt lat="45.99890057709609" lon="9.394261236715279"><ele>472.0</ele><time>2026-04-26T08:38:54Z</time></trkpt><trkpt lat="45.998983922652215" lon="9.394015966994422"><ele>472.0</ele><time>2026-04-26T08:38:55Z</time></trkpt><trkpt lat="45.99905302742759" lon="9.39373350374606"><ele>472.0</ele><time>2026-04-26T08:38:56Z</time></trkpt><trkpt lat="45.999132620906934" lon="9.39338129911994"><ele>473.0</ele><time>2026-04-26T08:38:57Z</time></trkpt><trkpt lat="45.99921281812862" lon="9.392985091188487"><ele>474.0</ele><time>2026-04-26T08:38:58Z</time></trkpt><trkpt lat="45.99929129190277" lon="9.39256020119082"><ele>474.0</ele><time>2026-04-26T08:38:59Z</time></trkpt><trkpt lat="45.99935670818104" lon="9.392149738000795"><ele>474.0</ele><time>2026-04-26T08:39:00Z</time></trkpt><trkpt lat="45.999428265059336" lon="9.39177298647966"><ele>474.0</ele><time>2026-04-26T08:39:01Z</time></trkpt><trkpt lat="45.999496062637874" lon="9.391426876726037"><ele>474.0</ele><time>2026-04-26T08:39:02Z</time></trkpt><trkpt lat="45.99954997891966" lon="9.391117191813379"><ele>473.66666666666663</ele><time>2026-04-26T08:39:03Z</time></trkpt><trkpt lat="45.99960374795592" lon="9.390832810325188"><ele>473.3333333333333</ele><time>2026-04-26T08:39:04Z</time></trkpt><trkpt lat="45.999644593316795" lon="9.390556267396205"><ele>473.0</ele><time>2026-04-26T08:39:05Z</time></trkpt><trkpt lat="45.99968788793018" lon="9.390280625705653"><ele>473.0</ele><time>2026-04-26T08:39:06Z</time></trkpt><trkpt lat="45.99974150734594" lon="9.390019835055941"><ele>473.0</ele><time>2026-04-26T08:39:07Z</time></trkpt><trkpt lat="45.99981959715022" lon="9.389783577418086"><ele>473.0</ele><time>2026-04-26T08:39:08Z</time></trkpt><trkpt lat="45.99991345772664" lon="9.389577733947839"><ele>472.66666666666663</ele><time>2026-04-26T08:39:09Z</time></trkpt><trkpt lat="46.00002798546146" lon="9.389398736911758"><ele>472.33333333333337</ele><time>2026-04-26T08:39:10Z</time></trkpt><trkpt lat="46.00014930930978" lon="9.389237690083249"><ele>472.0</ele><time>2026-04-26T08:39:11Z</time></trkpt><trkpt lat="46.00026466955771" lon="9.3890965171427"><ele>472.0</ele><time>2026-04-26T08:39:12Z</time></trkpt><trkpt lat="46.000370404964904" lon="9.388972165548648"><ele>472.0</ele><time>2026-04-26T08:39:13Z</time></trkpt><trkpt lat="46.00047575543946" lon="9.388859976820386"><ele>472.0</ele><time>2026-04-26T08:39:14Z</time></trkpt><trkpt lat="46.00057981961795" lon="9.388738336071658"><ele>472.0</ele><time>2026-04-26T08:39:15Z</time></trkpt><trkpt lat="46.00068511865809" lon="9.388615817643835"><ele>471.75</ele><time>2026-04-26T08:39:16Z</time></trkpt><trkpt lat="46.0007934290733" lon="9.388481956504362"><ele>471.5</ele><time>2026-04-26T08:39:17Z</time></trkpt><trkpt lat="46.00090491924299" lon="9.388348433425595"><ele>471.25</ele><time>2026-04-26T08:39:18Z</time></trkpt><trkpt lat="46.0010179150467" lon="9.388212684054551"><ele>471.0</ele><time>2026-04-26T08:39:19Z</time></trkpt><trkpt lat="46.00113467084107" lon="9.388080322164136"><ele>468.66666666666663</ele><time>2026-04-26T08:39:20Z</time></trkpt><trkpt lat="46.00126033757585" lon="9.387946991695623"><ele>466.3333333333333</ele><time>2026-04-26T08:39:21Z</time></trkpt><trkpt lat="46.00139692534372" lon="9.387801804954774"><ele>464.0</ele><time>2026-04-26T08:39:22Z</time></trkpt><trkpt lat="46.00156564665371" lon="9.387682608285907"><ele>466.0</ele><time>2026-04-26T08:39:23Z</time></trkpt><trkpt lat="46.00173894019806" lon="9.387526999964134"><ele>468.0</ele><time>2026-04-26T08:39:24Z</time></trkpt><trkpt lat="46.00191968657746" lon="9.387365759859968"><ele>470.0</ele><time>2026-04-26T08:39:25Z</time></trkpt><trkpt lat="46.002094864645464" lon="9.387207668929683"><ele>469.0</ele><time>2026-04-26T08:39:26Z</time></trkpt><trkpt lat="46.002262044938824" lon="9.387056565380199"><ele>468.0</ele><time>2026-04-26T08:39:27Z</time></trkpt><trkpt lat="46.00242132601771" lon="9.38689051995712"><ele>467.0</ele><time>2026-04-26T08:39:28Z</time></trkpt><trkpt lat="46.002586364601385" lon="9.38674656176006"><ele>467.0</ele><time>2026-04-26T08:39:29Z</time></trkpt><trkpt lat="46.00274620330333" lon="9.38662460446508"><ele>467.0</ele><time>2026-04-26T08:39:30Z</time></trkpt><trkpt lat="46.00288469427755" lon="9.386475043887291"><ele>467.0</ele><time>2026-04-26T08:39:31Z</time></trkpt><trkpt lat="46.0030242748827" lon="9.386352937082227"><ele>464.66666666666663</ele><time>2026-04-26T08:39:32Z</time></trkpt><trkpt lat="46.003166782521795" lon="9.386252681600494"><ele>462.33333333333337</ele><time>2026-04-26T08:39:33Z</time></trkpt><trkpt lat="46.00330311277938" lon="9.386164404226923"><ele>460.0</ele><time>2026-04-26T08:39:34Z</time></trkpt><trkpt lat="46.00346671879195" lon="9.386092288062558"><ele>460.0</ele><time>2026-04-26T08:39:35Z</time></trkpt><trkpt lat="46.00363695749173" lon="9.386016826211673"><ele>460.0</ele><time>2026-04-26T08:39:36Z</time></trkpt><trkpt lat="46.003816258646395" lon="9.38593734723283"><ele>460.0</ele><time>2026-04-26T08:39:37Z</time></trkpt><trkpt lat="46.00399138673389" lon="9.385831945161133"><ele>459.0</ele><time>2026-04-26T08:39:38Z</time></trkpt><trkpt lat="46.00417112129434" lon="9.385746935826463"><ele>458.0</ele><time>2026-04-26T08:39:39Z</time></trkpt><trkpt lat="46.00436646613935" lon="9.385651019695732"><ele>457.0</ele><time>2026-04-26T08:39:40Z</time></trkpt><trkpt lat="46.00451476548225" lon="9.385493165632054"><ele>457.0</ele><time>2026-04-26T08:39:41Z</time></trkpt><trkpt lat="46.00465766457397" lon="9.385294657778369"><ele>457.0</ele><time>2026-04-26T08:39:42Z</time></trkpt><trkpt lat="46.00480692863614" lon="9.38514462550075"><ele>457.0</ele><time>2026-04-26T08:39:43Z</time></trkpt><trkpt lat="46.00495640780687" lon="9.384981421011936"><ele>456.0</ele><time>2026-04-26T08:39:44Z</time></trkpt><trkpt lat="46.00507748580218" lon="9.384829986760913"><ele>455.0</ele><time>2026-04-26T08:39:45Z</time></trkpt><trkpt lat="46.005214290616294" lon="9.384663096210705"><ele>454.0</ele><time>2026-04-26T08:39:46Z</time></trkpt><trkpt lat="46.005343704415516" lon="9.384496588687389"><ele>454.0</ele><time>2026-04-26T08:39:47Z</time></trkpt><trkpt lat="46.005477277867634" lon="9.384328102429388"><ele>454.0</ele><time>2026-04-26T08:39:48Z</time></trkpt><trkpt lat="46.00561353009344" lon="9.384155184773524"><ele>454.0</ele><time>2026-04-26T08:39:49.016Z</time></trkpt><trkpt lat="46.00574766891821" lon="9.383982025474866"><ele>454.0</ele><time>2026-04-26T08:39:50.022Z</time></trkpt><trkpt lat="46.005885029152644" lon="9.383806525550407"><ele>454.0</ele><time>2026-04-26T08:39:51.021Z</time></trkpt><trkpt lat="46.00602895875335" lon="9.383629937414963"><ele>454.0</ele><time>2026-04-26T08:39:52.02Z</time></trkpt><trkpt lat="46.00614523133561" lon="9.383411783504839"><ele>454.0</ele><time>2026-04-26T08:39:53.022Z</time></trkpt><trkpt lat="46.00625917987398" lon="9.383216756921545"><ele>454.0</ele><time>2026-04-26T08:39:54.021Z</time></trkpt><trkpt lat="46.006372359345264" lon="9.383023046458467"><ele>454.0</ele><time>2026-04-26T08:39:55.021Z</time></trkpt><trkpt lat="46.00661179520749" lon="9.382428573453224"><ele>452.6666666666667</ele><time>2026-04-26T08:39:58Z</time></trkpt><trkpt lat="46.006716552273915" lon="9.382247666611162"><ele>451.33333333333337</ele><time>2026-04-26T08:39:59Z</time></trkpt><trkpt lat="46.006816045593375" lon="9.382046584204401"><ele>450.0</ele><time>2026-04-26T08:40:00Z</time></trkpt><trkpt lat="46.00693406792278" lon="9.3818924433611"><ele>448.33333333333337</ele><time>2026-04-26T08:40:01Z</time></trkpt><trkpt lat="46.007022011004395" lon="9.381692629763773"><ele>446.6666666666667</ele><time>2026-04-26T08:40:02Z</time></trkpt><trkpt lat="46.007137645450655" lon="9.381500219043998"><ele>445.0</ele><time>2026-04-26T08:40:03Z</time></trkpt><trkpt lat="46.00720870565453" lon="9.381332445229692"><ele>444.33333333333337</ele><time>2026-04-26T08:40:04Z</time></trkpt><trkpt lat="46.007310822893714" lon="9.381132770471504"><ele>443.66666666666663</ele><time>2026-04-26T08:40:05Z</time></trkpt><trkpt lat="46.007414626754" lon="9.38092744005987"><ele>443.0</ele><time>2026-04-26T08:40:06Z</time></trkpt><trkpt lat="46.007574321958344" lon="9.380762541318413"><ele>444.3333333333333</ele><time>2026-04-26T08:40:07Z</time></trkpt><trkpt lat="46.007695006984264" lon="9.380556238633341"><ele>445.66666666666663</ele><time>2026-04-26T08:40:08Z</time></trkpt><trkpt lat="46.007803480531756" lon="9.380334626249496"><ele>447.0</ele><time>2026-04-26T08:40:09Z</time></trkpt><trkpt lat="46.00794766101622" lon="9.38012390949642"><ele>447.33333333333337</ele><time>2026-04-26T08:40:10Z</time></trkpt><trkpt lat="46.00806284086313" lon="9.379925088192348"><ele>447.6666666666667</ele><time>2026-04-26T08:40:11Z</time></trkpt><trkpt lat="46.00816681020471" lon="9.379714579034694"><ele>448.0</ele><time>2026-04-26T08:40:12Z</time></trkpt><trkpt lat="46.0082825748575" lon="9.37953751273399"><ele>448.6666666666667</ele><time>2026-04-26T08:40:13Z</time></trkpt><trkpt lat="46.008413951469166" lon="9.379327448258708"><ele>449.33333333333337</ele><time>2026-04-26T08:40:14Z</time></trkpt><trkpt lat="46.00852531758688" lon="9.379141879414565"><ele>450.0</ele><time>2026-04-26T08:40:15Z</time></trkpt><trkpt lat="46.00858492105795" lon="9.378983620444275"><ele>448.5</ele><time>2026-04-26T08:40:16Z</time></trkpt><trkpt lat="46.0086307592344" lon="9.378821226534846"><ele>447.0</ele><time>2026-04-26T08:40:17Z</time></trkpt><trkpt lat="46.00867610436508" lon="9.37864478200649"><ele>445.5</ele><time>2026-04-26T08:40:18Z</time></trkpt><trkpt lat="46.0087366942672" lon="9.378476151373548"><ele>444.0</ele><time>2026-04-26T08:40:19Z</time></trkpt><trkpt lat="46.008793370037864" lon="9.378283936160537"><ele>444.0</ele><time>2026-04-26T08:40:20Z</time></trkpt><trkpt lat="46.00887806299317" lon="9.37809592654901"><ele>444.0</ele><time>2026-04-26T08:40:21Z</time></trkpt><trkpt lat="46.00898898319658" lon="9.377901270615919"><ele>444.0</ele><time>2026-04-26T08:40:22Z</time></trkpt><trkpt lat="46.00911144864132" lon="9.377704608505846"><ele>443.66666666666663</ele><time>2026-04-26T08:40:23Z</time></trkpt><trkpt lat="46.009233367100244" lon="9.3775137474048"><ele>443.3333333333333</ele><time>2026-04-26T08:40:24Z</time></trkpt><trkpt lat="46.00936511284064" lon="9.377306624142257"><ele>443.0</ele><time>2026-04-26T08:40:25Z</time></trkpt><trkpt lat="46.00949687647753" lon="9.37708963236925"><ele>443.0</ele><time>2026-04-26T08:40:26Z</time></trkpt><trkpt lat="46.009633554734606" lon="9.376869631914161"><ele>443.0</ele><time>2026-04-26T08:40:27Z</time></trkpt><trkpt lat="46.00977352176416" lon="9.376657535593553"><ele>443.0</ele><time>2026-04-26T08:40:28Z</time></trkpt><trkpt lat="46.00990699360266" lon="9.376425110698243"><ele>441.0</ele><time>2026-04-26T08:40:29Z</time></trkpt><trkpt lat="46.010040280706185" lon="9.376203490466144"><ele>439.0</ele><time>2026-04-26T08:40:30Z</time></trkpt><trkpt lat="46.01017456295065" lon="9.375987041634163"><ele>437.0</ele><time>2026-04-26T08:40:31Z</time></trkpt><trkpt lat="46.010309633007445" lon="9.37577186996624"><ele>437.0</ele><time>2026-04-26T08:40:32Z</time></trkpt><trkpt lat="46.01044066773691" lon="9.37555226427678"><ele>437.0</ele><time>2026-04-26T08:40:33Z</time></trkpt><trkpt lat="46.01057550851857" lon="9.37533411222608"><ele>437.0</ele><time>2026-04-26T08:40:34Z</time></trkpt><trkpt lat="46.010713060811696" lon="9.375117103887098"><ele>437.3333333333333</ele><time>2026-04-26T08:40:35Z</time></trkpt><trkpt lat="46.01085327413255" lon="9.374897092339582"><ele>437.66666666666663</ele><time>2026-04-26T08:40:36Z</time></trkpt><trkpt lat="46.01098482117605" lon="9.374679435190798"><ele>438.0</ele><time>2026-04-26T08:40:37Z</time></trkpt><trkpt lat="46.01112019558902" lon="9.374466136750979"><ele>438.0</ele><time>2026-04-26T08:40:38Z</time></trkpt><trkpt lat="46.011252539421235" lon="9.374259123486052"><ele>438.0</ele><time>2026-04-26T08:40:39Z</time></trkpt><trkpt lat="46.01138603328842" lon="9.374063999582031"><ele>438.0</ele><time>2026-04-26T08:40:40Z</time></trkpt><trkpt lat="46.01153034003111" lon="9.3738938205495"><ele>437.33333333333337</ele><time>2026-04-26T08:40:41Z</time></trkpt><trkpt lat="46.01169697933828" lon="9.373751181588409"><ele>436.6666666666667</ele><time>2026-04-26T08:40:42Z</time></trkpt><trkpt lat="46.01187587773723" lon="9.373626991955305"><ele>436.0</ele><time>2026-04-26T08:40:43Z</time></trkpt><trkpt lat="46.012060281715186" lon="9.373517047903084"><ele>436.0</ele><time>2026-04-26T08:40:44Z</time></trkpt><trkpt lat="46.012255025687715" lon="9.37341869511441"><ele>436.0</ele><time>2026-04-26T08:40:45Z</time></trkpt><trkpt lat="46.01244853006374" lon="9.373325217590583"><ele>436.0</ele><time>2026-04-26T08:40:46Z</time></trkpt><trkpt lat="46.012642183630845" lon="9.373229764254164"><ele>437.0</ele><time>2026-04-26T08:40:47Z</time></trkpt><trkpt lat="46.01283404797962" lon="9.373129660227452"><ele>438.0</ele><time>2026-04-26T08:40:48Z</time></trkpt><trkpt lat="46.01302157623175" lon="9.373021902344265"><ele>439.0</ele><time>2026-04-26T08:40:49Z</time></trkpt><trkpt lat="46.013212217487215" lon="9.372924327964533"><ele>438.6666666666667</ele><time>2026-04-26T08:40:50Z</time></trkpt><trkpt lat="46.01340620427054" lon="9.372829796231834"><ele>438.33333333333337</ele><time>2026-04-26T08:40:51Z</time></trkpt><trkpt lat="46.01359913048981" lon="9.372733692131586"><ele>438.0</ele><time>2026-04-26T08:40:52Z</time></trkpt><trkpt lat="46.013785572089986" lon="9.372631570092711"><ele>438.0</ele><time>2026-04-26T08:40:53Z</time></trkpt><trkpt lat="46.01396246730965" lon="9.372518338882669"><ele>438.0</ele><time>2026-04-26T08:40:54Z</time></trkpt><trkpt lat="46.014126443457904" lon="9.372372887196656"><ele>438.0</ele><time>2026-04-26T08:40:55Z</time></trkpt><trkpt lat="46.01427920180556" lon="9.372196583779303"><ele>437.0</ele><time>2026-04-26T08:40:56Z</time></trkpt><trkpt lat="46.01444218491289" lon="9.372022793356278"><ele>436.0</ele><time>2026-04-26T08:40:57Z</time></trkpt><trkpt lat="46.01461525983141" lon="9.37186888337543"><ele>435.0</ele><time>2026-04-26T08:40:58Z</time></trkpt><trkpt lat="46.01477012823175" lon="9.371670543202937"><ele>435.0</ele><time>2026-04-26T08:40:59Z</time></trkpt><trkpt lat="46.01493524531702" lon="9.371490383717507"><ele>435.0</ele><time>2026-04-26T08:41:00Z</time></trkpt><trkpt lat="46.015090018834165" lon="9.371303396980041"><ele>435.0</ele><time>2026-04-26T08:41:01Z</time></trkpt><trkpt lat="46.01524763595958" lon="9.371120539331912"><ele>434.66666666666663</ele><time>2026-04-26T08:41:02Z</time></trkpt><trkpt lat="46.01540316207053" lon="9.370940946098585"><ele>434.3333333333333</ele><time>2026-04-26T08:41:03Z</time></trkpt><trkpt lat="46.0155641114935" lon="9.370757081690277"><ele>434.0</ele><time>2026-04-26T08:41:04Z</time></trkpt><trkpt lat="46.015721378528276" lon="9.370571927344889"><ele>433.3333333333333</ele><time>2026-04-26T08:41:05Z</time></trkpt><trkpt lat="46.01587801880722" lon="9.370387269653449"><ele>432.66666666666663</ele><time>2026-04-26T08:41:06Z</time></trkpt><trkpt lat="46.01603592215742" lon="9.37020175913408"><ele>432.0</ele><time>2026-04-26T08:41:07Z</time></trkpt><trkpt lat="46.016189013150246" lon="9.370023758831968"><ele>432.0</ele><time>2026-04-26T08:41:08Z</time></trkpt><trkpt lat="46.01634257527822" lon="9.369844507056573"><ele>432.0</ele><time>2026-04-26T08:41:09Z</time></trkpt><trkpt lat="46.01649748715825" lon="9.369668470311867"><ele>432.0</ele><time>2026-04-26T08:41:10Z</time></trkpt><trkpt lat="46.01665314725422" lon="9.36948931982807"><ele>431.33333333333337</ele><time>2026-04-26T08:41:11Z</time></trkpt><trkpt lat="46.01680668138365" lon="9.369310521949796"><ele>430.6666666666667</ele><time>2026-04-26T08:41:12Z</time></trkpt><trkpt lat="46.0169674791518" lon="9.369128435072726"><ele>430.0</ele><time>2026-04-26T08:41:13Z</time></trkpt><trkpt lat="46.017120576235506" lon="9.368948255279516"><ele>429.33333333333337</ele><time>2026-04-26T08:41:14Z</time></trkpt><trkpt lat="46.01725812200109" lon="9.368765585304269"><ele>428.66666666666663</ele><time>2026-04-26T08:41:15Z</time></trkpt><trkpt lat="46.01738022176912" lon="9.368569668221143"><ele>428.0</ele><time>2026-04-26T08:41:16Z</time></trkpt><trkpt lat="46.01749827097464" lon="9.368367732474562"><ele>428.0</ele><time>2026-04-26T08:41:17Z</time></trkpt><trkpt lat="46.017621213066164" lon="9.368178194050659"><ele>428.0</ele><time>2026-04-26T08:41:18Z</time></trkpt><trkpt lat="46.017734562648066" lon="9.367994848198178"><ele>428.0</ele><time>2026-04-26T08:41:19Z</time></trkpt><trkpt lat="46.01784449948124" lon="9.367816723822422"><ele>428.25</ele><time>2026-04-26T08:41:20Z</time></trkpt><trkpt lat="46.01794721120119" lon="9.367660892257247"><ele>428.5</ele><time>2026-04-26T08:41:21Z</time></trkpt><trkpt lat="46.01804708574598" lon="9.367511800777022"><ele>428.75</ele><time>2026-04-26T08:41:22Z</time></trkpt><trkpt lat="46.018154694690885" lon="9.367378674428764"><ele>429.0</ele><time>2026-04-26T08:41:23Z</time></trkpt><trkpt lat="46.01827016872004" lon="9.367273549049692"><ele>429.0</ele><time>2026-04-26T08:41:24Z</time></trkpt><trkpt lat="46.01838423451256" lon="9.367194138194696"><ele>429.0</ele><time>2026-04-26T08:41:25Z</time></trkpt><trkpt lat="46.018512995202826" lon="9.367137707609142"><ele>429.0</ele><time>2026-04-26T08:41:26Z</time></trkpt><trkpt lat="46.01864373705718" lon="9.36710415756519"><ele>429.0</ele><time>2026-04-26T08:41:27Z</time></trkpt><trkpt lat="46.018773555889105" lon="9.367076226828114"><ele>428.75</ele><time>2026-04-26T08:41:28Z</time></trkpt><trkpt lat="46.01890429972279" lon="9.367049709329146"><ele>428.5</ele><time>2026-04-26T08:41:29Z</time></trkpt><trkpt lat="46.019031791500566" lon="9.36699744935726"><ele>428.25</ele><time>2026-04-26T08:41:30Z</time></trkpt><trkpt lat="46.01915207006935" lon="9.366918510433013"><ele>428.0</ele><time>2026-04-26T08:41:31Z</time></trkpt><trkpt lat="46.019261978648" lon="9.366827818957143"><ele>431.25</ele><time>2026-04-26T08:41:32Z</time></trkpt><trkpt lat="46.01938726351477" lon="9.366734175794253"><ele>434.5</ele><time>2026-04-26T08:41:33Z</time></trkpt><trkpt lat="46.01949193722622" lon="9.366669673438034"><ele>437.75</ele><time>2026-04-26T08:41:34Z</time></trkpt><trkpt lat="46.01959788905259" lon="9.366607684703245"><ele>441.0</ele><time>2026-04-26T08:41:35Z</time></trkpt><trkpt lat="46.01970400434716" lon="9.366528729374075"><ele>441.0</ele><time>2026-04-26T08:41:36Z</time></trkpt><trkpt lat="46.019801956963235" lon="9.366451320049817"><ele>441.0</ele><time>2026-04-26T08:41:37Z</time></trkpt><trkpt lat="46.01989141282489" lon="9.366381322563276"><ele>441.0</ele><time>2026-04-26T08:41:38Z</time></trkpt><trkpt lat="46.01996373873317" lon="9.366292920200403"><ele>441.0</ele><time>2026-04-26T08:41:39Z</time></trkpt><trkpt lat="46.02002054561177" lon="9.366176139187093"><ele>441.0</ele><time>2026-04-26T08:41:40Z</time></trkpt><trkpt lat="46.02007050152557" lon="9.366038611699018"><ele>442.6666666666667</ele><time>2026-04-26T08:41:41Z</time></trkpt><trkpt lat="46.02011474223947" lon="9.365898359706001"><ele>444.33333333333337</ele><time>2026-04-26T08:41:42Z</time></trkpt><trkpt lat="46.02015528497038" lon="9.365765884092095"><ele>446.0</ele><time>2026-04-26T08:41:43Z</time></trkpt><trkpt lat="46.020198562198864" lon="9.365649661995185"><ele>447.6666666666667</ele><time>2026-04-26T08:41:44Z</time></trkpt><trkpt lat="46.02023262209963" lon="9.365572125080494"><ele>449.33333333333337</ele><time>2026-04-26T08:41:45Z</time></trkpt><trkpt lat="46.02026456541946" lon="9.365490835174231"><ele>451.0</ele><time>2026-04-26T08:41:47Z</time></trkpt><trkpt lat="46.02027282089352" lon="9.365394892933018"><ele>451.00000000000006</ele><time>2026-04-26T08:42:27.001Z</time></trkpt><trkpt lat="46.020306248572425" lon="9.365265721826761"><ele>451.0</ele><time>2026-04-26T08:42:29.001Z</time></trkpt><trkpt lat="46.02035319841028" lon="9.365175459237944"><ele>451.0</ele><time>2026-04-26T08:42:30.001Z</time></trkpt><trkpt lat="46.02040553548724" lon="9.365077122479123"><ele>451.0</ele><time>2026-04-26T08:42:31.001Z</time></trkpt><trkpt lat="46.02045896889682" lon="9.364984600103668"><ele>451.00000000000006</ele><time>2026-04-26T08:42:32.001Z</time></trkpt><trkpt lat="46.02051827642464" lon="9.364902167831266"><ele>451.0</ele><time>2026-04-26T08:42:33.001Z</time></trkpt><trkpt lat="46.02058665797521" lon="9.3648074616114"><ele>451.0</ele><time>2026-04-26T08:42:34.001Z</time></trkpt><trkpt lat="46.02066438960965" lon="9.364721814528746"><ele>451.0</ele><time>2026-04-26T08:42:35.001Z</time></trkpt><trkpt lat="46.0207406498079" lon="9.364616924156504"><ele>451.0</ele><time>2026-04-26T08:42:36.001Z</time></trkpt><trkpt lat="46.02081101938695" lon="9.364517367893692"><ele>451.0</ele><time>2026-04-26T08:42:37.001Z</time></trkpt><trkpt lat="46.02088272457771" lon="9.364418004064953"><ele>451.0</ele><time>2026-04-26T08:42:38.001Z</time></trkpt><trkpt lat="46.02096902903016" lon="9.364305218117563"><ele>453.25</ele><time>2026-04-26T08:42:39.001Z</time></trkpt><trkpt lat="46.02107749515397" lon="9.364220356846031"><ele>455.5</ele><time>2026-04-26T08:42:40.001Z</time></trkpt><trkpt lat="46.021182108554285" lon="9.364119154525241"><ele>457.75</ele><time>2026-04-26T08:42:41.001Z</time></trkpt><trkpt lat="46.02128510464258" lon="9.364022541453558"><ele>460.0</ele><time>2026-04-26T08:42:42.001Z</time></trkpt><trkpt lat="46.02140097629162" lon="9.363918087787393"><ele>460.75</ele><time>2026-04-26T08:42:43.001Z</time></trkpt><trkpt lat="46.02151722822443" lon="9.363815019043601"><ele>461.5</ele><time>2026-04-26T08:42:44.001Z</time></trkpt><trkpt lat="46.02164131859497" lon="9.363701686800782"><ele>462.25</ele><time>2026-04-26T08:42:45.001Z</time></trkpt><trkpt lat="46.02176974944204" lon="9.36358399907188"><ele>463.0</ele><time>2026-04-26T08:42:46.001Z</time></trkpt><trkpt lat="46.0218972819543" lon="9.363464866620214"><ele>463.0</ele><time>2026-04-26T08:42:47.001Z</time></trkpt><trkpt lat="46.02200000662067" lon="9.363341344698256"><ele>463.0</ele><time>2026-04-26T08:42:48.001Z</time></trkpt><trkpt lat="46.022099775043806" lon="9.36325196630839"><ele>463.0</ele><time>2026-04-26T08:42:49.001Z</time></trkpt><trkpt lat="46.02220919751266" lon="9.36320357754157"><ele>463.0</ele><time>2026-04-26T08:42:50.001Z</time></trkpt><trkpt lat="46.02230604037372" lon="9.363178585955591"><ele>463.0</ele><time>2026-04-26T08:42:51.001Z</time></trkpt><trkpt lat="46.022400415073726" lon="9.363205896071634"><ele>462.99999999999994</ele><time>2026-04-26T08:42:52.001Z</time></trkpt><trkpt lat="46.02250366915715" lon="9.36327428628372"><ele>462.99999999999994</ele><time>2026-04-26T08:42:53.001Z</time></trkpt><trkpt lat="46.02258693203041" lon="9.363367605215354"><ele>463.0</ele><time>2026-04-26T08:42:54.001Z</time></trkpt><trkpt lat="46.02266836987071" lon="9.363487959264296"><ele>463.0</ele><time>2026-04-26T08:42:55.001Z</time></trkpt><trkpt lat="46.022764284141374" lon="9.3636042219122"><ele>465.0</ele><time>2026-04-26T08:42:56.001Z</time></trkpt><trkpt lat="46.02286717521057" lon="9.363727312329145"><ele>467.0</ele><time>2026-04-26T08:42:57.001Z</time></trkpt><trkpt lat="46.02297769280036" lon="9.363845809981239"><ele>469.0</ele><time>2026-04-26T08:42:58.001Z</time></trkpt><trkpt lat="46.02310113667619" lon="9.36391392354845"><ele>471.0</ele><time>2026-04-26T08:42:59.001Z</time></trkpt><trkpt lat="46.02320290998798" lon="9.363978697430085"><ele>472.0</ele><time>2026-04-26T08:43:00.001Z</time></trkpt><trkpt lat="46.02328747646767" lon="9.36406060505715"><ele>473.0</ele><time>2026-04-26T08:43:01.001Z</time></trkpt><trkpt lat="46.02335568591415" lon="9.364109764332778"><ele>474.0</ele><time>2026-04-26T08:43:02.001Z</time></trkpt><trkpt lat="46.023405202492675" lon="9.36421869786145"><ele>475.0</ele><time>2026-04-26T08:43:04.001Z</time></trkpt><trkpt lat="46.0233405016644" lon="9.364292757820802"><ele>476.0</ele><time>2026-04-26T08:43:06.001Z</time></trkpt><trkpt lat="46.02320866779993" lon="9.36424143375854"><ele>476.0</ele><time>2026-04-26T08:43:08.001Z</time></trkpt><trkpt lat="46.02312344239744" lon="9.364207955690386"><ele>476.0</ele><time>2026-04-26T08:43:09.001Z</time></trkpt><trkpt lat="46.02302735887179" lon="9.364190886629968"><ele>476.0</ele><time>2026-04-26T08:43:10.001Z</time></trkpt><trkpt lat="46.022926120440864" lon="9.364190749440619"><ele>476.0</ele><time>2026-04-26T08:43:11.001Z</time></trkpt><trkpt lat="46.022831191780476" lon="9.364251357218857"><ele>476.0</ele><time>2026-04-26T08:43:12.001Z</time></trkpt><trkpt lat="46.022743446460886" lon="9.364354712375983"><ele>476.0</ele><time>2026-04-26T08:43:13.001Z</time></trkpt><trkpt lat="46.02269116111203" lon="9.364501013088129"><ele>476.0</ele><time>2026-04-26T08:43:14.001Z</time></trkpt><trkpt lat="46.0226759208042" lon="9.364661361612779"><ele>476.0</ele><time>2026-04-26T08:43:15.001Z</time></trkpt><trkpt lat="46.022677513086606" lon="9.364799825754549"><ele>476.0</ele><time>2026-04-26T08:43:16.001Z</time></trkpt><trkpt lat="46.02271069899417" lon="9.364923210446323"><ele>476.0</ele><time>2026-04-26T08:43:17.001Z</time></trkpt><trkpt lat="46.02275112952557" lon="9.365032031558925"><ele>477.5</ele><time>2026-04-26T08:43:18.001Z</time></trkpt><trkpt lat="46.022813939541265" lon="9.36515730250755"><ele>479.0</ele><time>2026-04-26T08:43:19.001Z</time></trkpt><trkpt lat="46.02288962348516" lon="9.36531305615938"><ele>480.5</ele><time>2026-04-26T08:43:20.001Z</time></trkpt><trkpt lat="46.02294312326847" lon="9.365469208220304"><ele>482.0</ele><time>2026-04-26T08:43:21.001Z</time></trkpt><trkpt lat="46.0230346994077" lon="9.365565037852681"><ele>482.0</ele><time>2026-04-26T08:43:22.001Z</time></trkpt><trkpt lat="46.02315207729103" lon="9.365612376291192"><ele>482.0</ele><time>2026-04-26T08:43:23.001Z</time></trkpt><trkpt lat="46.02327761360726" lon="9.365609126510302"><ele>482.0</ele><time>2026-04-26T08:43:24.001Z</time></trkpt><trkpt lat="46.02341052531858" lon="9.365578897066722"><ele>482.0</ele><time>2026-04-26T08:43:25.001Z</time></trkpt><trkpt lat="46.02353024300392" lon="9.365547460795048"><ele>484.40000000000003</ele><time>2026-04-26T08:43:26Z</time></trkpt><trkpt lat="46.02363268882086" lon="9.365541417718278"><ele>486.80000000000007</ele><time>2026-04-26T08:43:27Z</time></trkpt><trkpt lat="46.02370852213703" lon="9.365576673478685"><ele>489.2</ele><time>2026-04-26T08:43:28Z</time></trkpt><trkpt lat="46.023779853866756" lon="9.365649313302583"><ele>491.6</ele><time>2026-04-26T08:43:29Z</time></trkpt><trkpt lat="46.02376990079689" lon="9.365755828925993"><ele>494.0</ele><time>2026-04-26T08:43:30Z</time></trkpt><trkpt lat="46.023737033430216" lon="9.365907351216142"><ele>494.0</ele><time>2026-04-26T08:43:31Z</time></trkpt><trkpt lat="46.023729006603496" lon="9.36612053817939"><ele>494.0</ele><time>2026-04-26T08:43:32Z</time></trkpt><trkpt lat="46.023728869828176" lon="9.366321294532405"><ele>494.0</ele><time>2026-04-26T08:43:33Z</time></trkpt><trkpt lat="46.023727900398406" lon="9.366478635595653"><ele>494.0</ele><time>2026-04-26T08:43:34Z</time></trkpt><trkpt lat="46.023775142828875" lon="9.366589393712701"><ele>494.6</ele><time>2026-04-26T08:43:35Z</time></trkpt><trkpt lat="46.023854991444786" lon="9.366599257030307"><ele>495.2</ele><time>2026-04-26T08:43:36Z</time></trkpt><trkpt lat="46.02392408140574" lon="9.36654389642603"><ele>495.80000000000007</ele><time>2026-04-26T08:43:37Z</time></trkpt><trkpt lat="46.02401883418031" lon="9.366451768684728"><ele>496.40000000000003</ele><time>2026-04-26T08:43:38Z</time></trkpt><trkpt lat="46.02416293114047" lon="9.366394418314115"><ele>497.0</ele><time>2026-04-26T08:43:39Z</time></trkpt><trkpt lat="46.02431352449848" lon="9.366328488550709"><ele>497.0</ele><time>2026-04-26T08:43:40Z</time></trkpt><trkpt lat="46.02443109388904" lon="9.366275266610696"><ele>497.00000000000006</ele><time>2026-04-26T08:43:41Z</time></trkpt><trkpt lat="46.024526796521094" lon="9.366234408968513"><ele>497.00000000000006</ele><time>2026-04-26T08:43:42Z</time></trkpt><trkpt lat="46.02460032794756" lon="9.366211528537962"><ele>497.0</ele><time>2026-04-26T08:43:43Z</time></trkpt><trkpt lat="46.02465695938518" lon="9.366316163793423"><ele>497.0</ele><time>2026-04-26T08:43:45Z</time></trkpt><trkpt lat="46.024619014338015" lon="9.366405236527381"><ele>500.0</ele><time>2026-04-26T08:43:46Z</time></trkpt><trkpt lat="46.02455161442139" lon="9.366453200650696"><ele>503.00000000000006</ele><time>2026-04-26T08:43:47Z</time></trkpt><trkpt lat="46.02447215677128" lon="9.366493128768271"><ele>506.00000000000006</ele><time>2026-04-26T08:43:48Z</time></trkpt><trkpt lat="46.02436826580657" lon="9.366533272575916"><ele>509.0</ele><time>2026-04-26T08:43:49Z</time></trkpt><trkpt lat="46.02427015735806" lon="9.366603915691872"><ele>512.0</ele><time>2026-04-26T08:43:50Z</time></trkpt><trkpt lat="46.02420873153357" lon="9.366692626001518"><ele>512.0</ele><time>2026-04-26T08:43:51Z</time></trkpt><trkpt lat="46.02417625221331" lon="9.366798634341318"><ele>512.0</ele><time>2026-04-26T08:43:52Z</time></trkpt><trkpt lat="46.02418163821948" lon="9.366910144674275"><ele>512.0</ele><time>2026-04-26T08:43:53Z</time></trkpt><trkpt lat="46.02424446033494" lon="9.367021151507966"><ele>512.0</ele><time>2026-04-26T08:43:54Z</time></trkpt><trkpt lat="46.02432129697955" lon="9.367147232947044"><ele>512.0</ele><time>2026-04-26T08:43:55Z</time></trkpt><trkpt lat="46.02439055958162" lon="9.367303801212932"><ele>514.75</ele><time>2026-04-26T08:43:56Z</time></trkpt><trkpt lat="46.024465043322216" lon="9.367459808930903"><ele>517.5</ele><time>2026-04-26T08:43:57Z</time></trkpt><trkpt lat="46.024506570936886" lon="9.367622330500343"><ele>520.25</ele><time>2026-04-26T08:43:58Z</time></trkpt><trkpt lat="46.02451787818884" lon="9.367782626703393"><ele>523.0</ele><time>2026-04-26T08:43:59Z</time></trkpt><trkpt lat="46.02451596783334" lon="9.367913372358643"><ele>523.0</ele><time>2026-04-26T08:44:00Z</time></trkpt><trkpt lat="46.02447360046912" lon="9.368023486024146"><ele>523.0</ele><time>2026-04-26T08:44:01Z</time></trkpt><trkpt lat="46.02439500113498" lon="9.368087567355648"><ele>523.0</ele><time>2026-04-26T08:44:02Z</time></trkpt><trkpt lat="46.02430569107149" lon="9.368108127236926"><ele>523.0</ele><time>2026-04-26T08:44:03Z</time></trkpt><trkpt lat="46.02417466729534" lon="9.36815038954936"><ele>523.0</ele><time>2026-04-26T08:44:04Z</time></trkpt><trkpt lat="46.02401237749622" lon="9.368156082333913"><ele>524.25</ele><time>2026-04-26T08:44:05Z</time></trkpt><trkpt lat="46.02388000630481" lon="9.368158658308525"><ele>525.5</ele><time>2026-04-26T08:44:06Z</time></trkpt><trkpt lat="46.02379268280423" lon="9.36823118127733"><ele>526.75</ele><time>2026-04-26T08:44:07Z</time></trkpt><trkpt lat="46.023704399052754" lon="9.368338016705605"><ele>528.0</ele><time>2026-04-26T08:44:08Z</time></trkpt><trkpt lat="46.02361916198967" lon="9.36850943059128"><ele>528.0</ele><time>2026-04-26T08:44:09.001Z</time></trkpt><trkpt lat="46.023490054471445" lon="9.368703399179916"><ele>528.0</ele><time>2026-04-26T08:44:10.001Z</time></trkpt><trkpt lat="46.023353504006906" lon="9.368886824787435"><ele>528.0</ele><time>2026-04-26T08:44:11.001Z</time></trkpt><trkpt lat="46.02323391028657" lon="9.369016617926029"><ele>531.1999999999999</ele><time>2026-04-26T08:44:12.001Z</time></trkpt><trkpt lat="46.02317030862979" lon="9.36911704676719"><ele>534.4</ele><time>2026-04-26T08:44:13.001Z</time></trkpt><trkpt lat="46.023159355106756" lon="9.36930721753647"><ele>537.5999999999999</ele><time>2026-04-26T08:44:15.001Z</time></trkpt><trkpt lat="46.02322592027331" lon="9.369367993820752"><ele>540.8</ele><time>2026-04-26T08:44:16.001Z</time></trkpt><trkpt lat="46.023296010959584" lon="9.369344529510979"><ele>544.0</ele><time>2026-04-26T08:44:17.001Z</time></trkpt><trkpt lat="46.0233900960207" lon="9.36925769709864"><ele>545.0</ele><time>2026-04-26T08:44:18.001Z</time></trkpt><trkpt lat="46.02350809795059" lon="9.369131210911435"><ele>546.0</ele><time>2026-04-26T08:44:19.001Z</time></trkpt><trkpt lat="46.023623745084635" lon="9.369039672274784"><ele>547.0</ele><time>2026-04-26T08:44:20.001Z</time></trkpt><trkpt lat="46.0237476162866" lon="9.368982994610642"><ele>548.0</ele><time>2026-04-26T08:44:21.001Z</time></trkpt><trkpt lat="46.023877419766265" lon="9.368907942809567"><ele>548.0</ele><time>2026-04-26T08:44:22.001Z</time></trkpt><trkpt lat="46.02398841953423" lon="9.36885984301795"><ele>548.0</ele><time>2026-04-26T08:44:23.001Z</time></trkpt><trkpt lat="46.024102603479704" lon="9.368842333437753"><ele>548.0</ele><time>2026-04-26T08:44:24.001Z</time></trkpt><trkpt lat="46.024239938692475" lon="9.368846889305926"><ele>548.0</ele><time>2026-04-26T08:44:25.001Z</time></trkpt><trkpt lat="46.02435941580348" lon="9.368886522164331"><ele>550.5</ele><time>2026-04-26T08:44:26.001Z</time></trkpt><trkpt lat="46.024430055760654" lon="9.36896404448637"><ele>553.0</ele><time>2026-04-26T08:44:27.001Z</time></trkpt><trkpt lat="46.024366015502856" lon="9.369155572292902"><ele>555.5</ele><time>2026-04-26T08:44:28.001Z</time></trkpt><trkpt lat="46.024359650496066" lon="9.36926871624265"><ele>558.0</ele><time>2026-04-26T08:44:29.001Z</time></trkpt><trkpt lat="46.02427798922194" lon="9.369442804217988"><ele>558.0</ele><time>2026-04-26T08:44:31.001Z</time></trkpt><trkpt lat="46.024187486617805" lon="9.369515747766854"><ele>558.0</ele><time>2026-04-26T08:44:32.001Z</time></trkpt><trkpt lat="46.024078112786526" lon="9.369604791786399"><ele>558.0</ele><time>2026-04-26T08:44:33.001Z</time></trkpt><trkpt lat="46.023982650512636" lon="9.36968576048814"><ele>558.0</ele><time>2026-04-26T08:44:34.001Z</time></trkpt><trkpt lat="46.02387501729041" lon="9.369784254048804"><ele>559.5</ele><time>2026-04-26T08:44:35.001Z</time></trkpt><trkpt lat="46.02377461165802" lon="9.369913286848831"><ele>561.0</ele><time>2026-04-26T08:44:36.001Z</time></trkpt><trkpt lat="46.02369793896325" lon="9.37009341616806"><ele>562.5</ele><time>2026-04-26T08:44:37.001Z</time></trkpt><trkpt lat="46.0236465941418" lon="9.370255563036979"><ele>564.0</ele><time>2026-04-26T08:44:38.001Z</time></trkpt><trkpt lat="46.02360046669429" lon="9.370412840851984"><ele>566.3333333333334</ele><time>2026-04-26T08:44:39.001Z</time></trkpt><trkpt lat="46.023558320157846" lon="9.37055895935978"><ele>568.6666666666666</ele><time>2026-04-26T08:44:40.001Z</time></trkpt><trkpt lat="46.02351991900928" lon="9.370663653230427"><ele>571.0</ele><time>2026-04-26T08:44:41.001Z</time></trkpt><trkpt lat="46.02347093754616" lon="9.370751021657481"><ele>573.3333333333333</ele><time>2026-04-26T08:44:42.001Z</time></trkpt><trkpt lat="46.02340602315912" lon="9.370815054073546"><ele>575.6666666666666</ele><time>2026-04-26T08:44:43.001Z</time></trkpt><trkpt lat="46.02332463064115" lon="9.37083273011601"><ele>578.0</ele><time>2026-04-26T08:44:44.001Z</time></trkpt><trkpt lat="46.023253358333676" lon="9.37083509068181"><ele>578.0</ele><time>2026-04-26T08:44:45.001Z</time></trkpt><trkpt lat="46.02314764155446" lon="9.370829106221121"><ele>578.0</ele><time>2026-04-26T08:44:46.001Z</time></trkpt><trkpt lat="46.022986105672885" lon="9.370816512476905"><ele>578.0</ele><time>2026-04-26T08:44:47.001Z</time></trkpt><trkpt lat="46.02281241920986" lon="9.370832847010757"><ele>578.0</ele><time>2026-04-26T08:44:48.001Z</time></trkpt><trkpt lat="46.022687082553006" lon="9.370887248272837"><ele>578.0</ele><time>2026-04-26T08:44:49.001Z</time></trkpt><trkpt lat="46.02257438896847" lon="9.371022206963662"><ele>578.0</ele><time>2026-04-26T08:44:50.001Z</time></trkpt><trkpt lat="46.02248354995813" lon="9.371079151123599"><ele>578.0</ele><time>2026-04-26T08:44:51.001Z</time></trkpt><trkpt lat="46.02239444939541" lon="9.37112388510177"><ele>578.0</ele><time>2026-04-26T08:44:52.001Z</time></trkpt><trkpt lat="46.02229552148234" lon="9.371142080804795"><ele>578.0</ele><time>2026-04-26T08:44:53.001Z</time></trkpt><trkpt lat="46.022177755830604" lon="9.371118290224532"><ele>578.6666666666666</ele><time>2026-04-26T08:44:54.001Z</time></trkpt><trkpt lat="46.02202031503622" lon="9.371085226411218"><ele>579.3333333333334</ele><time>2026-04-26T08:44:55.001Z</time></trkpt><trkpt lat="46.02181316037147" lon="9.371069543392327"><ele>580.0</ele><time>2026-04-26T08:44:56.001Z</time></trkpt><trkpt lat="46.02162972750512" lon="9.371117326016389"><ele>580.3333333333334</ele><time>2026-04-26T08:44:57.001Z</time></trkpt><trkpt lat="46.02146049325513" lon="9.371208725695054"><ele>580.6666666666666</ele><time>2026-04-26T08:44:58.001Z</time></trkpt><trkpt lat="46.02131712717651" lon="9.371330685036554"><ele>581.0</ele><time>2026-04-26T08:44:59.001Z</time></trkpt><trkpt lat="46.021218077207216" lon="9.371487317515943"><ele>581.0</ele><time>2026-04-26T08:45:00.001Z</time></trkpt><trkpt lat="46.02112842171" lon="9.371697176439511"><ele>581.0</ele><time>2026-04-26T08:45:01.001Z</time></trkpt><trkpt lat="46.02102145767072" lon="9.371854995307702"><ele>581.0</ele><time>2026-04-26T08:45:02.001Z</time></trkpt><trkpt lat="46.02095272672966" lon="9.37200630513324"><ele>581.0</ele><time>2026-04-26T08:45:03.001Z</time></trkpt><trkpt lat="46.02088342653191" lon="9.372107700428506"><ele>581.0</ele><time>2026-04-26T08:45:04.001Z</time></trkpt><trkpt lat="46.02084420311788" lon="9.372257988432114"><ele>581.0</ele><time>2026-04-26T08:45:06.001Z</time></trkpt><trkpt lat="46.02091565917635" lon="9.37233195856879"><ele>581.0</ele><time>2026-04-26T08:45:07.001Z</time></trkpt><trkpt lat="46.02099593750579" lon="9.372339904426894"><ele>581.0</ele><time>2026-04-26T08:45:08.001Z</time></trkpt><trkpt lat="46.02105490358471" lon="9.372291759159861"><ele>581.0</ele><time>2026-04-26T08:45:09.001Z</time></trkpt><trkpt lat="46.02110757040047" lon="9.372187966058846"><ele>581.0</ele><time>2026-04-26T08:45:10.001Z</time></trkpt><trkpt lat="46.02115743453992" lon="9.372077351516106"><ele>581.0</ele><time>2026-04-26T08:45:11.001Z</time></trkpt><trkpt lat="46.02122783878415" lon="9.371996237719667"><ele>581.0</ele><time>2026-04-26T08:45:12.001Z</time></trkpt><trkpt lat="46.021302166545595" lon="9.371883369587163"><ele>581.0</ele><time>2026-04-26T08:45:13.001Z</time></trkpt><trkpt lat="46.02137625725174" lon="9.371795674315985"><ele>581.0</ele><time>2026-04-26T08:45:14.001Z</time></trkpt><trkpt lat="46.02150495557669" lon="9.3717644886188"><ele>581.0</ele><time>2026-04-26T08:45:16.001Z</time></trkpt><trkpt lat="46.02158959775934" lon="9.371791140273865"><ele>581.0</ele><time>2026-04-26T08:45:17.001Z</time></trkpt><trkpt lat="46.021715488123384" lon="9.371837120778707"><ele>581.0</ele><time>2026-04-26T08:45:18.001Z</time></trkpt><trkpt lat="46.02188683178522" lon="9.371895886605012"><ele>581.0</ele><time>2026-04-26T08:45:19.001Z</time></trkpt><trkpt lat="46.022039059954984" lon="9.37195065606548"><ele>586.0</ele><time>2026-04-26T08:45:20.001Z</time></trkpt><trkpt lat="46.022163675168684" lon="9.37202201977516"><ele>591.0</ele><time>2026-04-26T08:45:21.001Z</time></trkpt><trkpt lat="46.022277502511514" lon="9.372129534558225"><ele>596.0</ele><time>2026-04-26T08:45:22.001Z</time></trkpt><trkpt lat="46.02241059743586" lon="9.372260936053861"><ele>601.0</ele><time>2026-04-26T08:45:23.001Z</time></trkpt><trkpt lat="46.0225873869007" lon="9.372434092283871"><ele>606.0</ele><time>2026-04-26T08:45:24.001Z</time></trkpt><trkpt lat="46.02272048392968" lon="9.372590526412388"><ele>611.0</ele><time>2026-04-26T08:45:25.001Z</time></trkpt><trkpt lat="46.02279998446417" lon="9.372753541391692"><ele>616.0</ele><time>2026-04-26T08:45:26.001Z</time></trkpt><trkpt lat="46.0228832875618" lon="9.372912431577141"><ele>621.0</ele><time>2026-04-26T08:45:27Z</time></trkpt><trkpt lat="46.02295668102574" lon="9.373068656461882"><ele>622.25</ele><time>2026-04-26T08:45:28Z</time></trkpt><trkpt lat="46.023010605862474" lon="9.373220727127304"><ele>623.5</ele><time>2026-04-26T08:45:29Z</time></trkpt><trkpt lat="46.02307900757699" lon="9.373376913531756"><ele>624.75</ele><time>2026-04-26T08:45:30Z</time></trkpt><trkpt lat="46.023209212095416" lon="9.37354375335211"><ele>626.0</ele><time>2026-04-26T08:45:31Z</time></trkpt><trkpt lat="46.02333294614288" lon="9.373742820635144"><ele>626.0</ele><time>2026-04-26T08:45:32Z</time></trkpt><trkpt lat="46.0233982366752" lon="9.37389110937548"><ele>626.0</ele><time>2026-04-26T08:45:33Z</time></trkpt><trkpt lat="46.02348442312696" lon="9.373938352957618"><ele>626.0</ele><time>2026-04-26T08:45:34Z</time></trkpt><trkpt lat="46.02358533510809" lon="9.373913336834478"><ele>626.0</ele><time>2026-04-26T08:45:35Z</time></trkpt><trkpt lat="46.02370746975946" lon="9.373804413282345"><ele>626.0</ele><time>2026-04-26T08:45:36Z</time></trkpt><trkpt lat="46.02378739440209" lon="9.3736618455358"><ele>626.0</ele><time>2026-04-26T08:45:37Z</time></trkpt><trkpt lat="46.0238492431475" lon="9.37349964689285"><ele>626.0</ele><time>2026-04-26T08:45:38Z</time></trkpt><trkpt lat="46.023903407654565" lon="9.37331961259387"><ele>626.0</ele><time>2026-04-26T08:45:39Z</time></trkpt><trkpt lat="46.02396907024052" lon="9.37316658034124"><ele>625.75</ele><time>2026-04-26T08:45:40Z</time></trkpt><trkpt lat="46.024034651374315" lon="9.373006094609737"><ele>625.5</ele><time>2026-04-26T08:45:41Z</time></trkpt><trkpt lat="46.024168868453664" lon="9.372944649142"><ele>625.25</ele><time>2026-04-26T08:45:42Z</time></trkpt><trkpt lat="46.024311820574425" lon="9.372896909833582"><ele>625.0</ele><time>2026-04-26T08:45:43Z</time></trkpt><trkpt lat="46.024516793864855" lon="9.372830111173428"><ele>625.0</ele><time>2026-04-26T08:45:44Z</time></trkpt><trkpt lat="46.02475637281901" lon="9.372753565325658"><ele>625.0</ele><time>2026-04-26T08:45:45Z</time></trkpt><trkpt lat="46.02498690219181" lon="9.372681011792723"><ele>628.25</ele><time>2026-04-26T08:45:46Z</time></trkpt><trkpt lat="46.025177761180394" lon="9.372629755461343"><ele>631.5</ele><time>2026-04-26T08:45:47Z</time></trkpt><trkpt lat="46.02530662411152" lon="9.372569688854393"><ele>634.75</ele><time>2026-04-26T08:45:48Z</time></trkpt><trkpt lat="46.025416141345296" lon="9.372580988946863"><ele>638.0</ele><time>2026-04-26T08:45:49Z</time></trkpt><trkpt lat="46.02552469777264" lon="9.372695573190905"><ele>638.0</ele><time>2026-04-26T08:45:51Z</time></trkpt><trkpt lat="46.02553910512955" lon="9.372814134237577"><ele>638.0</ele><time>2026-04-26T08:45:52Z</time></trkpt><trkpt lat="46.02547971132229" lon="9.373021551314405"><ele>638.0</ele><time>2026-04-26T08:45:53Z</time></trkpt><trkpt lat="46.02551960442473" lon="9.373288615646983"><ele>638.0</ele><time>2026-04-26T08:45:54Z</time></trkpt><trkpt lat="46.025591786687045" lon="9.373589260081019"><ele>644.6666666666666</ele><time>2026-04-26T08:45:55Z</time></trkpt><trkpt lat="46.025676588167954" lon="9.373896180197319"><ele>651.3333333333334</ele><time>2026-04-26T08:45:56Z</time></trkpt><trkpt lat="46.02572242988588" lon="9.374190927656494"><ele>658.0</ele><time>2026-04-26T08:45:57Z</time></trkpt><trkpt lat="46.025777779595884" lon="9.374443702270488"><ele>658.0</ele><time>2026-04-26T08:45:58Z</time></trkpt><trkpt lat="46.025822417238274" lon="9.374628364439594"><ele>658.0</ele><time>2026-04-26T08:45:59Z</time></trkpt><trkpt lat="46.025855747700376" lon="9.374747049174035"><ele>658.0</ele><time>2026-04-26T08:46:00Z</time></trkpt><trkpt lat="46.02588667415132" lon="9.374868188781225"><ele>658.0</ele><time>2026-04-26T08:46:01Z</time></trkpt><trkpt lat="46.02594315251083" lon="9.375029059084044"><ele>658.0</ele><time>2026-04-26T08:46:02Z</time></trkpt><trkpt lat="46.026025517070146" lon="9.37517817452802"><ele>659.6666666666667</ele><time>2026-04-26T08:46:03Z</time></trkpt><trkpt lat="46.0261587718644" lon="9.375351814952277"><ele>661.3333333333334</ele><time>2026-04-26T08:46:04Z</time></trkpt><trkpt lat="46.02631027107508" lon="9.375528473809108"><ele>663.0</ele><time>2026-04-26T08:46:05Z</time></trkpt><trkpt lat="46.026444178124486" lon="9.375685738046089"><ele>667.5</ele><time>2026-04-26T08:46:06Z</time></trkpt><trkpt lat="46.02652966295951" lon="9.375819738702328"><ele>672.0</ele><time>2026-04-26T08:46:07Z</time></trkpt><trkpt lat="46.02658028665261" lon="9.375989824933098"><ele>676.5</ele><time>2026-04-26T08:46:08Z</time></trkpt><trkpt lat="46.026613389204286" lon="9.376228089864851"><ele>681.0</ele><time>2026-04-26T08:46:09Z</time></trkpt><trkpt lat="46.02661592563221" lon="9.376505450951088"><ele>679.3333333333334</ele><time>2026-04-26T08:46:10Z</time></trkpt><trkpt lat="46.026673989613904" lon="9.376746040187854"><ele>677.6666666666667</ele><time>2026-04-26T08:46:11Z</time></trkpt><trkpt lat="46.02674836210775" lon="9.376954253648437"><ele>676.0</ele><time>2026-04-26T08:46:12Z</time></trkpt><trkpt lat="46.026863470628804" lon="9.377137397745749"><ele>682.3333333333334</ele><time>2026-04-26T08:46:13Z</time></trkpt><trkpt lat="46.02700733526013" lon="9.37731374542678"><ele>688.6666666666666</ele><time>2026-04-26T08:46:14Z</time></trkpt><trkpt lat="46.0271254701105" lon="9.377517441194867"><ele>695.0</ele><time>2026-04-26T08:46:15Z</time></trkpt><trkpt lat="46.02721257565916" lon="9.377717083223203"><ele>695.0</ele><time>2026-04-26T08:46:16Z</time></trkpt><trkpt lat="46.02728457488551" lon="9.377925709108732"><ele>695.0</ele><time>2026-04-26T08:46:17Z</time></trkpt><trkpt lat="46.02733347518592" lon="9.37811394185289"><ele>695.0</ele><time>2026-04-26T08:46:18Z</time></trkpt><trkpt lat="46.02737488263702" lon="9.378276108280721"><ele>695.0</ele><time>2026-04-26T08:46:19Z</time></trkpt><trkpt lat="46.027423854553874" lon="9.378443890540161"><ele>693.75</ele><time>2026-04-26T08:46:20Z</time></trkpt><trkpt lat="46.027474478192545" lon="9.37860351884778"><ele>692.5</ele><time>2026-04-26T08:46:21Z</time></trkpt><trkpt lat="46.02754624949922" lon="9.378788014587508"><ele>691.25</ele><time>2026-04-26T08:46:22Z</time></trkpt><trkpt lat="46.02768059419065" lon="9.378937456743682"><ele>690.0</ele><time>2026-04-26T08:46:23Z</time></trkpt><trkpt lat="46.027804109537804" lon="9.37908210955168"><ele>694.25</ele><time>2026-04-26T08:46:24Z</time></trkpt><trkpt lat="46.02790677511454" lon="9.37923788388194"><ele>698.5</ele><time>2026-04-26T08:46:25Z</time></trkpt><trkpt lat="46.02797876133203" lon="9.379391169908478"><ele>702.75</ele><time>2026-04-26T08:46:26Z</time></trkpt><trkpt lat="46.028041678654105" lon="9.379604639478657"><ele>707.0</ele><time>2026-04-26T08:46:27Z</time></trkpt><trkpt lat="46.02812749161623" lon="9.379812209384879"><ele>703.6666666666666</ele><time>2026-04-26T08:46:28Z</time></trkpt><trkpt lat="46.02822922318995" lon="9.38002813509862"><ele>700.3333333333334</ele><time>2026-04-26T08:46:29Z</time></trkpt><trkpt lat="46.02835360480919" lon="9.380251156978044"><ele>697.0</ele><time>2026-04-26T08:46:30Z</time></trkpt><trkpt lat="46.028455872899386" lon="9.380476610256952"><ele>701.0</ele><time>2026-04-26T08:46:31Z</time></trkpt><trkpt lat="46.02853017137844" lon="9.380677696252013"><ele>705.0</ele><time>2026-04-26T08:46:32Z</time></trkpt><trkpt lat="46.028576231816494" lon="9.38086356783495"><ele>709.0</ele><time>2026-04-26T08:46:33Z</time></trkpt><trkpt lat="46.02863051759506" lon="9.381017852240591"><ele>713.0</ele><time>2026-04-26T08:46:34Z</time></trkpt><trkpt lat="46.02870418399182" lon="9.381107409219501"><ele>713.0</ele><time>2026-04-26T08:46:35Z</time></trkpt><trkpt lat="46.02879966712981" lon="9.381152198306468"><ele>713.0</ele><time>2026-04-26T08:46:36Z</time></trkpt><trkpt lat="46.02891318756519" lon="9.381104874792095"><ele>713.0</ele><time>2026-04-26T08:46:37Z</time></trkpt><trkpt lat="46.02902701665887" lon="9.380992434842264"><ele>713.0</ele><time>2026-04-26T08:46:38Z</time></trkpt><trkpt lat="46.02912158331276" lon="9.380822343529104"><ele>712.25</ele><time>2026-04-26T08:46:39Z</time></trkpt><trkpt lat="46.02919826808932" lon="9.380634241317258"><ele>711.5</ele><time>2026-04-26T08:46:40Z</time></trkpt><trkpt lat="46.02928898738366" lon="9.380518792231104"><ele>710.75</ele><time>2026-04-26T08:46:41Z</time></trkpt><trkpt lat="46.02938534778613" lon="9.380449510884374"><ele>710.0</ele><time>2026-04-26T08:46:42Z</time></trkpt><trkpt lat="46.029511588516314" lon="9.380456406147552"><ele>710.0</ele><time>2026-04-26T08:46:43Z</time></trkpt><trkpt lat="46.02967439953029" lon="9.380431268015135"><ele>710.0</ele><time>2026-04-26T08:46:44Z</time></trkpt><trkpt lat="46.0298563639325" lon="9.38040094092826"><ele>710.0</ele><time>2026-04-26T08:46:45Z</time></trkpt><trkpt lat="46.03003475732474" lon="9.380365866994833"><ele>710.0</ele><time>2026-04-26T08:46:46Z</time></trkpt><trkpt lat="46.030206531590295" lon="9.380335498125605"><ele>710.0</ele><time>2026-04-26T08:46:47Z</time></trkpt><trkpt lat="46.03037094465145" lon="9.380306850047617"><ele>710.0</ele><time>2026-04-26T08:46:48Z</time></trkpt><trkpt lat="46.030517097058556" lon="9.38024277841992"><ele>710.0</ele><time>2026-04-26T08:46:49Z</time></trkpt><trkpt lat="46.03065516663298" lon="9.38022178101999"><ele>710.0</ele><time>2026-04-26T08:46:50Z</time></trkpt><trkpt lat="46.03078840020888" lon="9.380206913327228"><ele>710.0</ele><time>2026-04-26T08:46:51Z</time></trkpt><trkpt lat="46.030917676172216" lon="9.38019769506584"><ele>710.0</ele><time>2026-04-26T08:46:52Z</time></trkpt><trkpt lat="46.03104744201141" lon="9.380238738847412"><ele>711.25</ele><time>2026-04-26T08:46:53Z</time></trkpt><trkpt lat="46.03116050504912" lon="9.380253740453393"><ele>712.5</ele><time>2026-04-26T08:46:54Z</time></trkpt><trkpt lat="46.03126822591806" lon="9.380278239888044"><ele>713.75</ele><time>2026-04-26T08:46:55Z</time></trkpt><trkpt lat="46.0313770422401" lon="9.380302369696055"><ele>715.0</ele><time>2026-04-26T08:46:56Z</time></trkpt><trkpt lat="46.03151610777131" lon="9.380336863233575"><ele>715.0</ele><time>2026-04-26T08:46:57Z</time></trkpt><trkpt lat="46.03161806701057" lon="9.380374067898671"><ele>715.0</ele><time>2026-04-26T08:46:58Z</time></trkpt><trkpt lat="46.0317074080804" lon="9.380423638253557"><ele>715.0</ele><time>2026-04-26T08:46:59Z</time></trkpt><trkpt lat="46.031837043147156" lon="9.380500759862079"><ele>715.0</ele><time>2026-04-26T08:47:00Z</time></trkpt><trkpt lat="46.031916769370525" lon="9.380549280512422"><ele>715.0</ele><time>2026-04-26T08:47:01Z</time></trkpt><trkpt lat="46.03198685745232" lon="9.38059193547611"><ele>717.2</ele><time>2026-04-26T08:47:02Z</time></trkpt><trkpt lat="46.03206698463476" lon="9.38064070009901"><ele>719.4</ele><time>2026-04-26T08:47:03Z</time></trkpt><trkpt lat="46.03214909432573" lon="9.380691025206044"><ele>721.5999999999999</ele><time>2026-04-26T08:47:04Z</time></trkpt><trkpt lat="46.03224504904847" lon="9.380750637506992"><ele>723.8</ele><time>2026-04-26T08:47:05Z</time></trkpt><trkpt lat="46.03235632783977" lon="9.380796115340747"><ele>726.0</ele><time>2026-04-26T08:47:06Z</time></trkpt><trkpt lat="46.03245345224094" lon="9.380879358972102"><ele>725.8</ele><time>2026-04-26T08:47:07Z</time></trkpt><trkpt lat="46.032545853493495" lon="9.380938076042591"><ele>725.5999999999999</ele><time>2026-04-26T08:47:08.001Z</time></trkpt><trkpt lat="46.03263455168382" lon="9.380994423194615"><ele>725.4</ele><time>2026-04-26T08:47:09.001Z</time></trkpt><trkpt lat="46.032706448614626" lon="9.381049397652294"><ele>725.2</ele><time>2026-04-26T08:47:10.001Z</time></trkpt><trkpt lat="46.03277073165435" lon="9.381195820756693"><ele>725.0</ele><time>2026-04-26T08:47:11.001Z</time></trkpt><trkpt lat="46.03281423465492" lon="9.381334417559911"><ele>728.3333333333333</ele><time>2026-04-26T08:47:12.001Z</time></trkpt><trkpt lat="46.0328723826079" lon="9.381518932968625"><ele>731.6666666666666</ele><time>2026-04-26T08:47:13.001Z</time></trkpt><trkpt lat="46.032937804087766" lon="9.381728281690235"><ele>735.0</ele><time>2026-04-26T08:47:14.001Z</time></trkpt><trkpt lat="46.033017225206514" lon="9.3819649245234"><ele>735.0</ele><time>2026-04-26T08:47:15.001Z</time></trkpt><trkpt lat="46.03307907247096" lon="9.382181026286341"><ele>735.0</ele><time>2026-04-26T08:47:16.001Z</time></trkpt><trkpt lat="46.033135897617946" lon="9.382426943710641"><ele>735.0</ele><time>2026-04-26T08:47:17.001Z</time></trkpt><trkpt lat="46.033192903583576" lon="9.382679785962372"><ele>738.6666666666666</ele><time>2026-04-26T08:47:18.001Z</time></trkpt><trkpt lat="46.03325240818329" lon="9.382940841581032"><ele>742.3333333333333</ele><time>2026-04-26T08:47:19.001Z</time></trkpt><trkpt lat="46.03330914504709" lon="9.383183938516044"><ele>746.0</ele><time>2026-04-26T08:47:20.001Z</time></trkpt><trkpt lat="46.0333636398036" lon="9.38341347710173"><ele>747.5</ele><time>2026-04-26T08:47:21.001Z</time></trkpt><trkpt lat="46.03341375482875" lon="9.383611924165441"><ele>749.0</ele><time>2026-04-26T08:47:22.001Z</time></trkpt><trkpt lat="46.03346333465223" lon="9.383784012777083"><ele>750.5</ele><time>2026-04-26T08:47:23.001Z</time></trkpt><trkpt lat="46.03350962119149" lon="9.38393527805981"><ele>752.0</ele><time>2026-04-26T08:47:24.001Z</time></trkpt><trkpt lat="46.033575565418495" lon="9.384066994630494"><ele>754.0</ele><time>2026-04-26T08:47:25.001Z</time></trkpt><trkpt lat="46.03366893708891" lon="9.38414726050064"><ele>756.0</ele><time>2026-04-26T08:47:26Z</time></trkpt><trkpt lat="46.03378448429753" lon="9.384182493400045"><ele>758.0</ele><time>2026-04-26T08:47:27Z</time></trkpt><trkpt lat="46.03390663526181" lon="9.384160532937559"><ele>760.0</ele><time>2026-04-26T08:47:28Z</time></trkpt><trkpt lat="46.034022128325205" lon="9.384099016241262"><ele>760.0</ele><time>2026-04-26T08:47:29Z</time></trkpt><trkpt lat="46.03413411158383" lon="9.384035818649533"><ele>760.0</ele><time>2026-04-26T08:47:30Z</time></trkpt><trkpt lat="46.03425682634483" lon="9.383980422558217"><ele>760.0</ele><time>2026-04-26T08:47:31Z</time></trkpt><trkpt lat="46.034397904130444" lon="9.383902161443059"><ele>760.0</ele><time>2026-04-26T08:47:32Z</time></trkpt><trkpt lat="46.03452873328435" lon="9.38393576369242"><ele>761.5</ele><time>2026-04-26T08:47:33Z</time></trkpt><trkpt lat="46.03466906613802" lon="9.383999591951737"><ele>763.0</ele><time>2026-04-26T08:47:34Z</time></trkpt><trkpt lat="46.03479357836359" lon="9.384076663856867"><ele>764.5</ele><time>2026-04-26T08:47:35Z</time></trkpt><trkpt lat="46.03492573523232" lon="9.384147200594393"><ele>766.0</ele><time>2026-04-26T08:47:36Z</time></trkpt><trkpt lat="46.03505977438233" lon="9.384219826562436"><ele>766.0</ele><time>2026-04-26T08:47:37Z</time></trkpt><trkpt lat="46.03518654186184" lon="9.384312776966427"><ele>766.0</ele><time>2026-04-26T08:47:38Z</time></trkpt><trkpt lat="46.03530527077993" lon="9.384425321598965"><ele>766.0</ele><time>2026-04-26T08:47:39Z</time></trkpt><trkpt lat="46.035417548778" lon="9.384564124365042"><ele>766.0</ele><time>2026-04-26T08:47:40Z</time></trkpt><trkpt lat="46.03553640628382" lon="9.384694275863037"><ele>764.5</ele><time>2026-04-26T08:47:41Z</time></trkpt><trkpt lat="46.035633791915295" lon="9.384848032886474"><ele>763.0</ele><time>2026-04-26T08:47:42Z</time></trkpt><trkpt lat="46.035736230252915" lon="9.384989177269082"><ele>761.5</ele><time>2026-04-26T08:47:43Z</time></trkpt><trkpt lat="46.03582981582219" lon="9.385115166641526"><ele>760.0</ele><time>2026-04-26T08:47:44Z</time></trkpt><trkpt lat="46.03592142943354" lon="9.385210937627692"><ele>762.5</ele><time>2026-04-26T08:47:45Z</time></trkpt><trkpt lat="46.03603227340005" lon="9.385242968268026"><ele>765.0</ele><time>2026-04-26T08:47:46Z</time></trkpt><trkpt lat="46.03611392474202" lon="9.385274442827246"><ele>767.5</ele><time>2026-04-26T08:47:47Z</time></trkpt><trkpt lat="46.036197263547685" lon="9.385260698928722"><ele>770.0</ele><time>2026-04-26T08:51:16Z</time></trkpt><trkpt lat="46.03624928965239" lon="9.385321725551798"><ele>772.4999999999999</ele><time>2026-04-26T08:51:17Z</time></trkpt><trkpt lat="46.0363160418835" lon="9.38535626330034"><ele>775.0</ele><time>2026-04-26T08:51:18Z</time></trkpt><trkpt lat="46.036382181451295" lon="9.385392804210436"><ele>774.9999999999999</ele><time>2026-04-26T08:51:19Z</time></trkpt><trkpt lat="46.03645094521171" lon="9.385434852524192"><ele>775.0</ele><time>2026-04-26T08:51:20Z</time></trkpt><trkpt lat="46.03652184890663" lon="9.385478406951298"><ele>775.0</ele><time>2026-04-26T08:51:21Z</time></trkpt><trkpt lat="46.03659565972128" lon="9.385523747115526"><ele>775.0</ele><time>2026-04-26T08:51:22Z</time></trkpt><trkpt lat="46.036663204384276" lon="9.385565238158488"><ele>774.9999999999999</ele><time>2026-04-26T08:51:23Z</time></trkpt><trkpt lat="46.036736206244974" lon="9.385601938160836"><ele>775.0</ele><time>2026-04-26T08:51:23.999Z</time></trkpt><trkpt lat="46.036811620855154" lon="9.385630240956216"><ele>775.8</ele><time>2026-04-26T08:51:24.999Z</time></trkpt><trkpt lat="46.03690011544573" lon="9.38565568773317"><ele>776.6</ele><time>2026-04-26T08:51:25.999Z</time></trkpt><trkpt lat="46.036987446181065" lon="9.385679749308785"><ele>777.4000000000001</ele><time>2026-04-26T08:51:26.999Z</time></trkpt><trkpt lat="46.037088386142194" lon="9.38571047078362"><ele>778.2</ele><time>2026-04-26T08:51:27.999Z</time></trkpt><trkpt lat="46.03722417871762" lon="9.385759561532781"><ele>779.0</ele><time>2026-04-26T08:51:28.999Z</time></trkpt><trkpt lat="46.03731104095158" lon="9.38579748056594"><ele>779.0</ele><time>2026-04-26T08:51:29.999Z</time></trkpt><trkpt lat="46.037415847874875" lon="9.385828989533566"><ele>779.0</ele><time>2026-04-26T08:51:30.999Z</time></trkpt><trkpt lat="46.03751314865052" lon="9.38594978214543"><ele>779.0</ele><time>2026-04-26T08:51:31.999Z</time></trkpt><trkpt lat="46.03760830832633" lon="9.386062745273861"><ele>779.0</ele><time>2026-04-26T08:51:32.999Z</time></trkpt><trkpt lat="46.03768530217057" lon="9.38617183292298"><ele>781.25</ele><time>2026-04-26T08:51:33.999Z</time></trkpt><trkpt lat="46.03774260329724" lon="9.38630744559384"><ele>783.5</ele><time>2026-04-26T08:51:34.999Z</time></trkpt><trkpt lat="46.037845718365446" lon="9.386342767958118"><ele>785.75</ele><time>2026-04-26T08:51:35.999Z</time></trkpt><trkpt lat="46.037941307264184" lon="9.386453548713883"><ele>788.0</ele><time>2026-04-26T08:51:36.999Z</time></trkpt><trkpt lat="46.038047129920294" lon="9.386593519993273"><ele>788.0</ele><time>2026-04-26T08:51:37.999Z</time></trkpt><trkpt lat="46.038141680049186" lon="9.38675224629237"><ele>788.0</ele><time>2026-04-26T08:51:38.999Z</time></trkpt><trkpt lat="46.03822673447235" lon="9.386907278437413"><ele>788.0</ele><time>2026-04-26T08:51:39.999Z</time></trkpt><trkpt lat="46.03803805809058" lon="9.387499222187072"><ele>800.0</ele><time>2026-04-26T08:51:40.999Z</time></trkpt><trkpt lat="46.03845648885172" lon="9.387043385634565"><ele>800.2</ele><time>2026-04-26T08:51:41.999Z</time></trkpt><trkpt lat="46.0385073875967" lon="9.387177962889266"><ele>800.4</ele><time>2026-04-26T08:51:42.999Z</time></trkpt><trkpt lat="46.038575074474046" lon="9.387276275650935"><ele>800.5999999999999</ele><time>2026-04-26T08:51:43.999Z</time></trkpt><trkpt lat="46.03864386655755" lon="9.387376192465211"><ele>800.8</ele><time>2026-04-26T08:51:44.999Z</time></trkpt><trkpt lat="46.038716850884995" lon="9.387480175773739"><ele>801.0</ele><time>2026-04-26T08:51:45.999Z</time></trkpt><trkpt lat="46.03878793587364" lon="9.38758201981342"><ele>801.0</ele><time>2026-04-26T08:51:46.999Z</time></trkpt><trkpt lat="46.03887012474867" lon="9.387666243950592"><ele>801.0</ele><time>2026-04-26T08:51:47.999Z</time></trkpt><trkpt lat="46.03893432592391" lon="9.387766132670953"><ele>801.0</ele><time>2026-04-26T08:51:48.999Z</time></trkpt><trkpt lat="46.03900527451653" lon="9.387862260411529"><ele>801.0</ele><time>2026-04-26T08:51:49.999Z</time></trkpt><trkpt lat="46.039075407402" lon="9.387970150510615"><ele>801.0</ele><time>2026-04-26T08:51:50.999Z</time></trkpt><trkpt lat="46.039150804291275" lon="9.388065296740814"><ele>802.5999999999999</ele><time>2026-04-26T08:51:51.999Z</time></trkpt><trkpt lat="46.039223599816" lon="9.388154690734995"><ele>804.2</ele><time>2026-04-26T08:51:52.999Z</time></trkpt><trkpt lat="46.03931350072356" lon="9.38819663493139"><ele>805.8</ele><time>2026-04-26T08:51:53.999Z</time></trkpt><trkpt lat="46.039407545807016" lon="9.388262059212742"><ele>807.4000000000001</ele><time>2026-04-26T08:51:54.999Z</time></trkpt><trkpt lat="46.03951301716677" lon="9.388305262496988"><ele>809.0</ele><time>2026-04-26T08:51:55.999Z</time></trkpt><trkpt lat="46.039616140259035" lon="9.388353993819827"><ele>809.0000000000001</ele><time>2026-04-26T08:51:56.999Z</time></trkpt><trkpt lat="46.03968229296191" lon="9.388380870979324"><ele>809.0</ele><time>2026-04-26T08:51:57.999Z</time></trkpt><trkpt lat="46.039762794179545" lon="9.388395509881555"><ele>809.0</ele><time>2026-04-26T08:51:58.999Z</time></trkpt><trkpt lat="46.0398547185062" lon="9.388415997159173"><ele>809.0</ele><time>2026-04-26T08:51:59.999Z</time></trkpt><trkpt lat="46.039941527068244" lon="9.388422811358216"><ele>809.0000000000001</ele><time>2026-04-26T08:52:00.999Z</time></trkpt><trkpt lat="46.040022377041545" lon="9.388441644699755"><ele>809.0</ele><time>2026-04-26T08:52:01.999Z</time></trkpt><trkpt lat="46.04009852430791" lon="9.388456557106425"><ele>810.4000000000001</ele><time>2026-04-26T08:52:02.999Z</time></trkpt><trkpt lat="46.04024146710831" lon="9.388473504457771"><ele>811.8</ele><time>2026-04-26T08:52:04.999Z</time></trkpt><trkpt lat="46.04037244621739" lon="9.388448278887717"><ele>813.2</ele><time>2026-04-26T08:52:06.999Z</time></trkpt><trkpt lat="46.04044234104932" lon="9.388500477814679"><ele>814.5999999999999</ele><time>2026-04-26T08:52:07.999Z</time></trkpt><trkpt lat="46.04050014891615" lon="9.388557412209455"><ele>816.0</ele><time>2026-04-26T08:52:08.999Z</time></trkpt><trkpt lat="46.04060534344368" lon="9.388641328630536"><ele>816.0</ele><time>2026-04-26T08:52:10.999Z</time></trkpt><trkpt lat="46.0406988796072" lon="9.38872671310251"><ele>816.0</ele><time>2026-04-26T08:52:12.999Z</time></trkpt><trkpt lat="46.04079822837295" lon="9.388841797648121"><ele>816.0</ele><time>2026-04-26T08:52:14.999Z</time></trkpt><trkpt lat="46.0408587898151" lon="9.3888892664232"><ele>816.0</ele><time>2026-04-26T08:52:15.999Z</time></trkpt><trkpt lat="46.040921675601645" lon="9.388935541327502"><ele>816.0</ele><time>2026-04-26T08:52:16.999Z</time></trkpt><trkpt lat="46.04097708654006" lon="9.388978653121987"><ele>816.0</ele><time>2026-04-26T08:52:17.999Z</time></trkpt><trkpt lat="46.04103910299975" lon="9.389002898229368"><ele>816.6666666666666</ele><time>2026-04-26T08:52:19Z</time></trkpt><trkpt lat="46.041091611119036" lon="9.389065275368992"><ele>817.3333333333333</ele><time>2026-04-26T08:52:20Z</time></trkpt><trkpt lat="46.04116134698892" lon="9.389136930350254"><ele>818.0</ele><time>2026-04-26T08:52:21Z</time></trkpt><trkpt lat="46.04122186838532" lon="9.389184986594794"><ele>818.6666666666666</ele><time>2026-04-26T08:52:22Z</time></trkpt><trkpt lat="46.041300202242255" lon="9.389241816266065"><ele>819.3333333333333</ele><time>2026-04-26T08:52:23Z</time></trkpt><trkpt lat="46.04137235622928" lon="9.38929762837709"><ele>820.0</ele><time>2026-04-26T08:52:24Z</time></trkpt><trkpt lat="46.04146208203007" lon="9.389396401616956"><ele>820.0</ele><time>2026-04-26T08:52:25Z</time></trkpt><trkpt lat="46.04156438632176" lon="9.389484124116038"><ele>820.0</ele><time>2026-04-26T08:52:26Z</time></trkpt><trkpt lat="46.04167403843526" lon="9.389578147362919"><ele>820.0</ele><time>2026-04-26T08:52:27Z</time></trkpt><trkpt lat="46.041792175611356" lon="9.38967991299758"><ele>820.0</ele><time>2026-04-26T08:52:28Z</time></trkpt><trkpt lat="46.04190742633669" lon="9.38978081502923"><ele>821.25</ele><time>2026-04-26T08:52:29Z</time></trkpt><trkpt lat="46.04202155200483" lon="9.389879729775465"><ele>822.5</ele><time>2026-04-26T08:52:30Z</time></trkpt><trkpt lat="46.042133889504576" lon="9.389988619806719"><ele>823.75</ele><time>2026-04-26T08:52:31Z</time></trkpt><trkpt lat="46.04224050364403" lon="9.390105600548154"><ele>825.0</ele><time>2026-04-26T08:52:32Z</time></trkpt><trkpt lat="46.04234920448201" lon="9.390205498176716"><ele>825.0</ele><time>2026-04-26T08:52:33Z</time></trkpt><trkpt lat="46.04245918749096" lon="9.390306424652348"><ele>825.0</ele><time>2026-04-26T08:52:34Z</time></trkpt><trkpt lat="46.04257034686346" lon="9.390413099120167"><ele>825.0</ele><time>2026-04-26T08:52:35Z</time></trkpt><trkpt lat="46.042689548869895" lon="9.390528526708147"><ele>825.0</ele><time>2026-04-26T08:52:36Z</time></trkpt><trkpt lat="46.04279887669435" lon="9.390642300138088"><ele>828.0</ele><time>2026-04-26T08:52:37Z</time></trkpt><trkpt lat="46.0429128217139" lon="9.390753826853471"><ele>831.0</ele><time>2026-04-26T08:52:38Z</time></trkpt><trkpt lat="46.04302487682452" lon="9.39087076709062"><ele>834.0</ele><time>2026-04-26T08:52:39Z</time></trkpt><trkpt lat="46.04314304458225" lon="9.390978510805667"><ele>837.0</ele><time>2026-04-26T08:52:40Z</time></trkpt><trkpt lat="46.043244237688214" lon="9.39111482479756"><ele>838.75</ele><time>2026-04-26T08:52:41Z</time></trkpt><trkpt lat="46.04336508397306" lon="9.39122485403994"><ele>840.5</ele><time>2026-04-26T08:52:42Z</time></trkpt><trkpt lat="46.04349698180228" lon="9.391332011048382"><ele>842.25</ele><time>2026-04-26T08:52:43Z</time></trkpt><trkpt lat="46.04362013881304" lon="9.391451956800482"><ele>844.0</ele><time>2026-04-26T08:52:44Z</time></trkpt><trkpt lat="46.04373463063056" lon="9.39155981140326"><ele>844.0</ele><time>2026-04-26T08:52:45Z</time></trkpt><trkpt lat="46.0438528105734" lon="9.39165364757007"><ele>844.0</ele><time>2026-04-26T08:52:46Z</time></trkpt><trkpt lat="46.04393586946356" lon="9.39176188521656"><ele>844.0</ele><time>2026-04-26T08:52:47Z</time></trkpt><trkpt lat="46.044008181049975" lon="9.391845203165625"><ele>844.0</ele><time>2026-04-26T08:52:48Z</time></trkpt><trkpt lat="46.04407688887986" lon="9.391895551571492"><ele>844.0</ele><time>2026-04-26T08:52:49Z</time></trkpt><trkpt lat="46.04414293981744" lon="9.391920667878386"><ele>843.9999999999999</ele><time>2026-04-26T08:52:50Z</time></trkpt><trkpt lat="46.04420174491619" lon="9.391853900465991"><ele>844.0</ele><time>2026-04-26T08:52:51Z</time></trkpt><trkpt lat="46.04421181732779" lon="9.391760371790582"><ele>844.0</ele><time>2026-04-26T08:52:52Z</time></trkpt><trkpt lat="46.0441671957101" lon="9.391669359077593"><ele>844.0</ele><time>2026-04-26T08:52:53Z</time></trkpt><trkpt lat="46.044132860406755" lon="9.391558344624949"><ele>843.9999999999999</ele><time>2026-04-26T08:52:54Z</time></trkpt><trkpt lat="46.04404149369942" lon="9.391478518118564"><ele>844.0</ele><time>2026-04-26T08:52:55Z</time></trkpt><trkpt lat="46.043995812159935" lon="9.39135866992754"><ele>846.0</ele><time>2026-04-26T08:52:56Z</time></trkpt><trkpt lat="46.04393229335913" lon="9.391236931057161"><ele>848.0</ele><time>2026-04-26T08:52:57Z</time></trkpt><trkpt lat="46.043859660322234" lon="9.391115618918045"><ele>850.0000000000001</ele><time>2026-04-26T08:52:58Z</time></trkpt><trkpt lat="46.04380000753221" lon="9.390993853798877"><ele>852.0</ele><time>2026-04-26T08:52:59Z</time></trkpt><trkpt lat="46.04375934112081" lon="9.390891260945525"><ele>854.0</ele><time>2026-04-26T08:53:00Z</time></trkpt><trkpt lat="46.04376462753841" lon="9.390766197719017"><ele>854.0</ele><time>2026-04-26T08:53:02Z</time></trkpt><trkpt lat="46.043928737118684" lon="9.390860765564272"><ele>854.0</ele><time>2026-04-26T08:53:06Z</time></trkpt><trkpt lat="46.04400877921226" lon="9.390931490503174"><ele>854.0</ele><time>2026-04-26T08:53:07Z</time></trkpt><trkpt lat="46.0441053631427" lon="9.391011656993838"><ele>854.0</ele><time>2026-04-26T08:53:08Z</time></trkpt><trkpt lat="46.04421326714547" lon="9.391076798876618"><ele>854.75</ele><time>2026-04-26T08:53:09Z</time></trkpt><trkpt lat="46.04434098827177" lon="9.391167819196514"><ele>855.5</ele><time>2026-04-26T08:53:10Z</time></trkpt><trkpt lat="46.04446907933223" lon="9.391265504081455"><ele>856.25</ele><time>2026-04-26T08:53:11Z</time></trkpt><trkpt lat="46.04459395070602" lon="9.391384547057434"><ele>857.0</ele><time>2026-04-26T08:53:12Z</time></trkpt><trkpt lat="46.04471652980878" lon="9.391527366555222"><ele>857.0</ele><time>2026-04-26T08:53:13Z</time></trkpt><trkpt lat="46.044838963192774" lon="9.39164481042009"><ele>857.0</ele><time>2026-04-26T08:53:14Z</time></trkpt><trkpt lat="46.044989376554554" lon="9.391713594770177"><ele>857.0</ele><time>2026-04-26T08:53:15Z</time></trkpt><trkpt lat="46.045160337158556" lon="9.39177503268884"><ele>862.3333333333334</ele><time>2026-04-26T08:53:16Z</time></trkpt><trkpt lat="46.04531083433885" lon="9.391859471180465"><ele>867.6666666666667</ele><time>2026-04-26T08:53:17Z</time></trkpt><trkpt lat="46.045461557437314" lon="9.39190972449569"><ele>873.0</ele><time>2026-04-26T08:53:18Z</time></trkpt><trkpt lat="46.045603760606085" lon="9.391998425260653"><ele>873.0</ele><time>2026-04-26T08:53:19Z</time></trkpt><trkpt lat="46.04576282081786" lon="9.392077729148578"><ele>873.0</ele><time>2026-04-26T08:53:20Z</time></trkpt><trkpt lat="46.045887526845995" lon="9.392211289677531"><ele>873.0</ele><time>2026-04-26T08:53:21Z</time></trkpt><trkpt lat="46.04601041101925" lon="9.39235258836843"><ele>874.6666666666667</ele><time>2026-04-26T08:53:22Z</time></trkpt><trkpt lat="46.04613692555307" lon="9.39250866768711"><ele>876.3333333333334</ele><time>2026-04-26T08:53:23Z</time></trkpt><trkpt lat="46.04628219965104" lon="9.3926291689248"><ele>878.0</ele><time>2026-04-26T08:53:24Z</time></trkpt><trkpt lat="46.04642496729656" lon="9.39274771228974"><ele>878.0</ele><time>2026-04-26T08:53:25Z</time></trkpt><trkpt lat="46.04656680995407" lon="9.392876362856107"><ele>878.0</ele><time>2026-04-26T08:53:26Z</time></trkpt><trkpt lat="46.04670834465428" lon="9.392994674036885"><ele>878.0</ele><time>2026-04-26T08:53:27Z</time></trkpt><trkpt lat="46.04683246838561" lon="9.39311189013893"><ele>881.75</ele><time>2026-04-26T08:53:28Z</time></trkpt><trkpt lat="46.046885486395155" lon="9.393277601968508"><ele>885.5</ele><time>2026-04-26T08:53:29Z</time></trkpt><trkpt lat="46.046922787791175" lon="9.393463147457249"><ele>889.25</ele><time>2026-04-26T08:53:29.998Z</time></trkpt><trkpt lat="46.04695095159881" lon="9.393687958478958"><ele>893.0</ele><time>2026-04-26T08:53:30.998Z</time></trkpt><trkpt lat="46.04698221240862" lon="9.393910774134687"><ele>896.0</ele><time>2026-04-26T08:53:31.998Z</time></trkpt><trkpt lat="46.047001890109776" lon="9.394139948426101"><ele>899.0</ele><time>2026-04-26T08:53:32.998Z</time></trkpt><trkpt lat="46.04703162339435" lon="9.394352491092686"><ele>902.0</ele><time>2026-04-26T08:53:33.998Z</time></trkpt><trkpt lat="46.047081909881655" lon="9.39455699578295"><ele>906.0</ele><time>2026-04-26T08:53:34.998Z</time></trkpt><trkpt lat="46.04716212808019" lon="9.394757898532706"><ele>910.0</ele><time>2026-04-26T08:53:35.998Z</time></trkpt><trkpt lat="46.04722826747949" lon="9.394963366232709"><ele>914.0</ele><time>2026-04-26T08:53:36.998Z</time></trkpt><trkpt lat="46.04728354082695" lon="9.395171054496497"><ele>914.0</ele><time>2026-04-26T08:53:37.999Z</time></trkpt><trkpt lat="46.04735009552879" lon="9.39536232119136"><ele>914.0</ele><time>2026-04-26T08:53:38.999Z</time></trkpt><trkpt lat="46.04744916860495" lon="9.395515022787638"><ele>914.0</ele><time>2026-04-26T08:53:39.999Z</time></trkpt><trkpt lat="46.047548329337985" lon="9.395661193073286"><ele>914.0</ele><time>2026-04-26T08:53:40.999Z</time></trkpt><trkpt lat="46.04766930831843" lon="9.395778949837858"><ele>919.6666666666667</ele><time>2026-04-26T08:53:41.999Z</time></trkpt><trkpt lat="46.047820397811634" lon="9.395889772862413"><ele>925.3333333333333</ele><time>2026-04-26T08:53:42.999Z</time></trkpt><trkpt lat="46.04797264407203" lon="9.395942949522693"><ele>931.0</ele><time>2026-04-26T08:53:43.999Z</time></trkpt><trkpt lat="46.04813123687463" lon="9.396017452073943"><ele>931.0</ele><time>2026-04-26T08:53:44.999Z</time></trkpt><trkpt lat="46.048283438931215" lon="9.39609019894461"><ele>931.0</ele><time>2026-04-26T08:53:45.999Z</time></trkpt><trkpt lat="46.048431102385855" lon="9.396132413797584"><ele>931.0</ele><time>2026-04-26T08:53:46.999Z</time></trkpt><trkpt lat="46.04860815471231" lon="9.396219013365494"><ele>929.3333333333333</ele><time>2026-04-26T08:53:47.999Z</time></trkpt><trkpt lat="46.048762311606005" lon="9.396306603955594"><ele>927.6666666666667</ele><time>2026-04-26T08:53:48.999Z</time></trkpt><trkpt lat="46.04892052701277" lon="9.39638046187044"><ele>926.0</ele><time>2026-04-26T08:53:49.999Z</time></trkpt><trkpt lat="46.04906403547289" lon="9.396443162899851"><ele>927.6666666666667</ele><time>2026-04-26T08:53:50.999Z</time></trkpt><trkpt lat="46.049230055146325" lon="9.39651286987154"><ele>929.3333333333333</ele><time>2026-04-26T08:53:51.999Z</time></trkpt><trkpt lat="46.049390733126465" lon="9.396581894312328"><ele>931.0</ele><time>2026-04-26T08:53:52.999Z</time></trkpt><trkpt lat="46.04949279407387" lon="9.396664698106687"><ele>931.0</ele><time>2026-04-26T08:53:53.999Z</time></trkpt><trkpt lat="46.0496473453358" lon="9.396748901932508"><ele>931.0</ele><time>2026-04-26T08:53:54.999Z</time></trkpt><trkpt lat="46.049800272397626" lon="9.396805029552796"><ele>931.0</ele><time>2026-04-26T08:53:55.999Z</time></trkpt><trkpt lat="46.04994594435527" lon="9.396875342289826"><ele>930.0</ele><time>2026-04-26T08:53:56.999Z</time></trkpt><trkpt lat="46.050085975166056" lon="9.396940916273449"><ele>929.0</ele><time>2026-04-26T08:53:57.999Z</time></trkpt><trkpt lat="46.05021049365012" lon="9.397010026744237"><ele>928.0</ele><time>2026-04-26T08:53:58.999Z</time></trkpt><trkpt lat="46.050314250249556" lon="9.397095456046769"><ele>927.0</ele><time>2026-04-26T08:53:59.999Z</time></trkpt><trkpt lat="46.05040600915704" lon="9.397223726627791"><ele>927.0</ele><time>2026-04-26T08:54:00.999Z</time></trkpt><trkpt lat="46.05047604954274" lon="9.397378566884063"><ele>927.0</ele><time>2026-04-26T08:54:01.999Z</time></trkpt><trkpt lat="46.05049300821588" lon="9.397577168118318"><ele>927.0</ele><time>2026-04-26T08:54:02.999Z</time></trkpt><trkpt lat="46.05052883683655" lon="9.397800162337985"><ele>927.0</ele><time>2026-04-26T08:54:03.999Z</time></trkpt><trkpt lat="46.050579631961185" lon="9.398058139159135"><ele>932.0</ele><time>2026-04-26T08:54:04.999Z</time></trkpt><trkpt lat="46.05062005512483" lon="9.398329885507376"><ele>937.0</ele><time>2026-04-26T08:54:05.999Z</time></trkpt><trkpt lat="46.05065653045061" lon="9.39860925607642"><ele>942.0</ele><time>2026-04-26T08:54:06.999Z</time></trkpt><trkpt lat="46.050684409627" lon="9.398871308393366"><ele>944.6666666666667</ele><time>2026-04-26T08:54:07.999Z</time></trkpt><trkpt lat="46.05073357612403" lon="9.399101733837664"><ele>947.3333333333334</ele><time>2026-04-26T08:54:08.999Z</time></trkpt><trkpt lat="46.05075144197196" lon="9.399356270365818"><ele>950.0</ele><time>2026-04-26T08:54:09.999Z</time></trkpt><trkpt lat="46.05092776580776" lon="9.399459576984572"><ele>939.0</ele><time>2026-04-26T08:54:10.999Z</time></trkpt><trkpt lat="46.051064913232125" lon="9.399593947141073"><ele>928.0</ele><time>2026-04-26T08:54:11.999Z</time></trkpt><trkpt lat="46.05121425821064" lon="9.39970519923834"><ele>917.0</ele><time>2026-04-26T08:54:12.999Z</time></trkpt><trkpt lat="46.051375281029905" lon="9.399809929394275"><ele>917.0</ele><time>2026-04-26T08:54:13.999Z</time></trkpt><trkpt lat="46.05150435953004" lon="9.39992395622712"><ele>917.0</ele><time>2026-04-26T08:54:14.999Z</time></trkpt><trkpt lat="46.051612123435795" lon="9.400076060102327"><ele>917.0</ele><time>2026-04-26T08:54:15.999Z</time></trkpt><trkpt lat="46.05168365813399" lon="9.40027643511386"><ele>911.0</ele><time>2026-04-26T08:54:16.999Z</time></trkpt><trkpt lat="46.051709176753526" lon="9.400515672860228"><ele>905.0</ele><time>2026-04-26T08:54:17.999Z</time></trkpt><trkpt lat="46.051755453332994" lon="9.400716372858827"><ele>899.0</ele><time>2026-04-26T08:54:18.999Z</time></trkpt><trkpt lat="46.05179325578873" lon="9.40092620384686"><ele>899.0</ele><time>2026-04-26T08:54:19.999Z</time></trkpt><trkpt lat="46.051825654737506" lon="9.401109945490536"><ele>899.0</ele><time>2026-04-26T08:54:20.999Z</time></trkpt><trkpt lat="46.05180419864702" lon="9.401270536407587"><ele>899.0</ele><time>2026-04-26T08:54:21.999Z</time></trkpt><trkpt lat="46.05175835770911" lon="9.401438895884198"><ele>899.0</ele><time>2026-04-26T08:54:22.999Z</time></trkpt><trkpt lat="46.051698892117706" lon="9.401557477264426"><ele>901.25</ele><time>2026-04-26T08:54:23.999Z</time></trkpt><trkpt lat="46.0515944256355" lon="9.4016179787669"><ele>903.5</ele><time>2026-04-26T08:54:24.999Z</time></trkpt><trkpt lat="46.05146602095158" lon="9.40169830775145"><ele>905.75</ele><time>2026-04-26T08:54:25.999Z</time></trkpt><trkpt lat="46.0513138903537" lon="9.401806402522979"><ele>908.0</ele><time>2026-04-26T08:54:26.999Z</time></trkpt><trkpt lat="46.05119759639498" lon="9.401950222955218"><ele>908.0</ele><time>2026-04-26T08:54:27.999Z</time></trkpt><trkpt lat="46.051086974027136" lon="9.402090518100584"><ele>908.0</ele><time>2026-04-26T08:54:28.999Z</time></trkpt><trkpt lat="46.05101667461558" lon="9.402268542399929"><ele>908.0</ele><time>2026-04-26T08:54:29.999Z</time></trkpt><trkpt lat="46.05097157695602" lon="9.402483064044295"><ele>908.0</ele><time>2026-04-26T08:54:30.999Z</time></trkpt><trkpt lat="46.05095009872437" lon="9.40271781844864"><ele>905.0</ele><time>2026-04-26T08:54:31.999Z</time></trkpt><trkpt lat="46.05091474796459" lon="9.402971127802244"><ele>902.0</ele><time>2026-04-26T08:54:32.999Z</time></trkpt><trkpt lat="46.05086833266904" lon="9.403229346614086"><ele>899.0</ele><time>2026-04-26T08:54:33.999Z</time></trkpt><trkpt lat="46.050828705749005" lon="9.403478317378802"><ele>904.6666666666667</ele><time>2026-04-26T08:54:34.999Z</time></trkpt><trkpt lat="46.05078971379497" lon="9.403719179179193"><ele>910.3333333333333</ele><time>2026-04-26T08:54:35.999Z</time></trkpt><trkpt lat="46.05075452922281" lon="9.403945318723368"><ele>916.0</ele><time>2026-04-26T08:54:36.999Z</time></trkpt><trkpt lat="46.05071929451641" lon="9.404179973676532"><ele>916.0</ele><time>2026-04-26T08:54:37.999Z</time></trkpt><trkpt lat="46.05069912284496" lon="9.404410575342466"><ele>916.0</ele><time>2026-04-26T08:54:38.999Z</time></trkpt><trkpt lat="46.050689765168" lon="9.404652339125528"><ele>916.0</ele><time>2026-04-26T08:54:39.999Z</time></trkpt><trkpt lat="46.050672447371305" lon="9.404893029761222"><ele>913.3333333333333</ele><time>2026-04-26T08:54:40.999Z</time></trkpt><trkpt lat="46.05065978682782" lon="9.405121994706436"><ele>910.6666666666667</ele><time>2026-04-26T08:54:41.999Z</time></trkpt><trkpt lat="46.050622911705716" lon="9.40537466924945"><ele>908.0</ele><time>2026-04-26T08:54:42.999Z</time></trkpt><trkpt lat="46.05060508840587" lon="9.405608702281896"><ele>905.3333333333334</ele><time>2026-04-26T08:54:43.999Z</time></trkpt><trkpt lat="46.0506002106733" lon="9.405860485423178"><ele>902.6666666666667</ele><time>2026-04-26T08:54:44.999Z</time></trkpt><trkpt lat="46.050577359415435" lon="9.406095920084677"><ele>900.0</ele><time>2026-04-26T08:54:45.999Z</time></trkpt><trkpt lat="46.05054359105409" lon="9.40631930695002"><ele>895.6666666666667</ele><time>2026-04-26T08:54:46.999Z</time></trkpt><trkpt lat="46.05052139000362" lon="9.406531100616206"><ele>891.3333333333334</ele><time>2026-04-26T08:54:47.999Z</time></trkpt><trkpt lat="46.050507106340376" lon="9.406773768207364"><ele>887.0</ele><time>2026-04-26T08:54:48.999Z</time></trkpt><trkpt lat="46.050500356215316" lon="9.407006452156134"><ele>885.0</ele><time>2026-04-26T08:54:49.999Z</time></trkpt><trkpt lat="46.05050355992755" lon="9.40717930297433"><ele>883.0</ele><time>2026-04-26T08:54:50.999Z</time></trkpt><trkpt lat="46.0504488773661" lon="9.407396261606063"><ele>881.0</ele><time>2026-04-26T08:54:51.999Z</time></trkpt><trkpt lat="46.050433639057765" lon="9.407620869224598"><ele>879.0</ele><time>2026-04-26T08:54:52.999Z</time></trkpt><trkpt lat="46.050413280705065" lon="9.40781983651171"><ele>879.0</ele><time>2026-04-26T08:54:53.999Z</time></trkpt><trkpt lat="46.0503627336097" lon="9.407986547148438"><ele>879.0</ele><time>2026-04-26T08:54:54.999Z</time></trkpt><trkpt lat="46.05029054446523" lon="9.408128242577016"><ele>879.0</ele><time>2026-04-26T08:54:56Z</time></trkpt><trkpt lat="46.05026852457684" lon="9.40830120287522"><ele>879.0</ele><time>2026-04-26T08:54:57Z</time></trkpt><trkpt lat="46.05028747769123" lon="9.408482526534232"><ele>877.2</ele><time>2026-04-26T08:54:58Z</time></trkpt><trkpt lat="46.05027159964879" lon="9.408655256719072"><ele>875.4000000000001</ele><time>2026-04-26T08:54:59Z</time></trkpt><trkpt lat="46.05026980942491" lon="9.408801951518507"><ele>873.6</ele><time>2026-04-26T08:55:00Z</time></trkpt><trkpt lat="46.0502786246605" lon="9.408919768364845"><ele>871.8</ele><time>2026-04-26T08:55:01Z</time></trkpt><trkpt lat="46.050281053459656" lon="9.409020777360658"><ele>870.0</ele><time>2026-04-26T08:55:02Z</time></trkpt><trkpt lat="46.05033521980622" lon="9.409096969948454"><ele>870.0</ele><time>2026-04-26T08:55:03Z</time></trkpt><trkpt lat="46.0504520672379" lon="9.409017397810196"><ele>870.0</ele><time>2026-04-26T08:55:04Z</time></trkpt><trkpt lat="46.05046039036355" lon="9.408864901914395"><ele>870.0</ele><time>2026-04-26T08:55:05Z</time></trkpt><trkpt lat="46.05048545978863" lon="9.408722657168596"><ele>870.0</ele><time>2026-04-26T08:55:06Z</time></trkpt><trkpt lat="46.050454301569864" lon="9.408571755200938"><ele>870.0</ele><time>2026-04-26T08:55:07Z</time></trkpt><trkpt lat="46.05047817795981" lon="9.408414606791597"><ele>870.0</ele><time>2026-04-26T08:55:08Z</time></trkpt><trkpt lat="46.05050330810089" lon="9.408263771194152"><ele>870.0</ele><time>2026-04-26T08:55:09Z</time></trkpt><trkpt lat="46.05056196119241" lon="9.408171449742717"><ele>870.0</ele><time>2026-04-26T08:55:10Z</time></trkpt><trkpt lat="46.05065170331078" lon="9.40814588003406"><ele>870.0</ele><time>2026-04-26T08:55:11Z</time></trkpt><trkpt lat="46.05076145792154" lon="9.408056742157115"><ele>870.0</ele><time>2026-04-26T08:55:12Z</time></trkpt><trkpt lat="46.0508835745193" lon="9.407934267224043"><ele>863.0</ele><time>2026-04-26T08:55:13Z</time></trkpt><trkpt lat="46.05096989491645" lon="9.407779822337938"><ele>856.0</ele><time>2026-04-26T08:55:14Z</time></trkpt><trkpt lat="46.05104395963131" lon="9.407601808289545"><ele>849.0</ele><time>2026-04-26T08:55:15Z</time></trkpt><trkpt lat="46.05110935798545" lon="9.40741828405232"><ele>842.0</ele><time>2026-04-26T08:55:16Z</time></trkpt><trkpt lat="46.05116728826233" lon="9.407224259373475"><ele>842.0000000000001</ele><time>2026-04-26T08:55:17Z</time></trkpt><trkpt lat="46.05121129406191" lon="9.407078776720242"><ele>842.0</ele><time>2026-04-26T08:55:18Z</time></trkpt><trkpt lat="46.0512538009269" lon="9.406985297140249"><ele>842.0</ele><time>2026-04-26T08:55:19Z</time></trkpt><trkpt lat="46.051299155552904" lon="9.406909343000057"><ele>842.0</ele><time>2026-04-26T08:55:20Z</time></trkpt><trkpt lat="46.05137880297315" lon="9.406925279841301"><ele>842.0000000000001</ele><time>2026-04-26T08:55:22Z</time></trkpt><trkpt lat="46.05138538929428" lon="9.407039962562674"><ele>842.0</ele><time>2026-04-26T08:55:23Z</time></trkpt><trkpt lat="46.051347992657384" lon="9.407190004835915"><ele>842.0</ele><time>2026-04-26T08:55:24Z</time></trkpt><trkpt lat="46.05128599354887" lon="9.407354268754025"><ele>842.0</ele><time>2026-04-26T08:55:25Z</time></trkpt><trkpt lat="46.05121995402127" lon="9.40754617086833"><ele>842.0</ele><time>2026-04-26T08:55:26Z</time></trkpt><trkpt lat="46.05116001501809" lon="9.407783622280125"><ele>838.6666666666667</ele><time>2026-04-26T08:55:27Z</time></trkpt><trkpt lat="46.05109774947218" lon="9.408018020572781"><ele>835.3333333333333</ele><time>2026-04-26T08:55:28Z</time></trkpt><trkpt lat="46.0510571408333" lon="9.408256365327276"><ele>832.0</ele><time>2026-04-26T08:55:29Z</time></trkpt><trkpt lat="46.051026453302285" lon="9.408500723381632"><ele>832.0</ele><time>2026-04-26T08:55:30Z</time></trkpt><trkpt lat="46.05102055831233" lon="9.408740462185841"><ele>832.0</ele><time>2026-04-26T08:55:31Z</time></trkpt><trkpt lat="46.051023282059376" lon="9.408969237534883"><ele>832.0</ele><time>2026-04-26T08:55:32Z</time></trkpt><trkpt lat="46.05102614943049" lon="9.409174547436537"><ele>828.5</ele><time>2026-04-26T08:55:33Z</time></trkpt><trkpt lat="46.05102269729541" lon="9.409363420437003"><ele>825.0</ele><time>2026-04-26T08:55:34Z</time></trkpt><trkpt lat="46.05095611974989" lon="9.409508662298665"><ele>821.5</ele><time>2026-04-26T08:55:35Z</time></trkpt><trkpt lat="46.0508641556206" lon="9.409592341173672"><ele>818.0</ele><time>2026-04-26T08:55:35.999Z</time></trkpt><trkpt lat="46.050745784125475" lon="9.409617870376461"><ele>825.25</ele><time>2026-04-26T08:55:36.999Z</time></trkpt><trkpt lat="46.050628306355485" lon="9.409699811705641"><ele>832.5</ele><time>2026-04-26T08:55:37.999Z</time></trkpt><trkpt lat="46.05052944303206" lon="9.4098109999638"><ele>839.75</ele><time>2026-04-26T08:55:38.999Z</time></trkpt><trkpt lat="46.05046082334353" lon="9.409927374093115"><ele>847.0</ele><time>2026-04-26T08:55:39.999Z</time></trkpt><trkpt lat="46.05046687364108" lon="9.410113370796115"><ele>847.0</ele><time>2026-04-26T08:55:40.999Z</time></trkpt><trkpt lat="46.050496063245326" lon="9.410284476676214"><ele>847.0</ele><time>2026-04-26T08:55:41.999Z</time></trkpt><trkpt lat="46.050533212306235" lon="9.410461607909967"><ele>847.0</ele><time>2026-04-26T08:55:42.999Z</time></trkpt><trkpt lat="46.050505768675286" lon="9.410625132608738"><ele>847.0</ele><time>2026-04-26T08:55:43.999Z</time></trkpt><trkpt lat="46.05045633174852" lon="9.410870149933768"><ele>846.6666666666666</ele><time>2026-04-26T08:55:44.999Z</time></trkpt><trkpt lat="46.050400918792526" lon="9.411079863978825"><ele>846.3333333333333</ele><time>2026-04-26T08:55:45.999Z</time></trkpt><trkpt lat="46.0503398649034" lon="9.411309368707887"><ele>846.0</ele><time>2026-04-26T08:55:46.999Z</time></trkpt><trkpt lat="46.05029363966713" lon="9.411522184467842"><ele>842.75</ele><time>2026-04-26T08:55:47.999Z</time></trkpt><trkpt lat="46.05027717583373" lon="9.411716598165249"><ele>839.5</ele><time>2026-04-26T08:55:48.999Z</time></trkpt><trkpt lat="46.05028688524182" lon="9.411926426244552"><ele>836.25</ele><time>2026-04-26T08:55:49.999Z</time></trkpt><trkpt lat="46.05024580225811" lon="9.41212073392916"><ele>833.0</ele><time>2026-04-26T08:55:50.999Z</time></trkpt><trkpt lat="46.05018897737984" lon="9.41232393263225"><ele>825.0</ele><time>2026-04-26T08:55:51.999Z</time></trkpt><trkpt lat="46.050123970981474" lon="9.412511204434125"><ele>817.0</ele><time>2026-04-26T08:55:52.999Z</time></trkpt><trkpt lat="46.050047404742706" lon="9.412700470605449"><ele>809.0</ele><time>2026-04-26T08:55:54Z</time></trkpt><trkpt lat="46.04996140414352" lon="9.412883401388196"><ele>820.3333333333334</ele><time>2026-04-26T08:55:55Z</time></trkpt><trkpt lat="46.04984646474157" lon="9.413087824660622"><ele>831.6666666666667</ele><time>2026-04-26T08:55:56Z</time></trkpt><trkpt lat="46.04975030010388" lon="9.413254430977734"><ele>843.0</ele><time>2026-04-26T08:55:57Z</time></trkpt><trkpt lat="46.049692472193364" lon="9.413429067755402"><ele>843.0</ele><time>2026-04-26T08:55:58Z</time></trkpt><trkpt lat="46.04967771156827" lon="9.413616149691622"><ele>843.0</ele><time>2026-04-26T08:55:59Z</time></trkpt><trkpt lat="46.04969936510059" lon="9.413829672242976"><ele>843.0</ele><time>2026-04-26T08:56:00Z</time></trkpt><trkpt lat="46.04971986301322" lon="9.414027800236035"><ele>843.0</ele><time>2026-04-26T08:56:01Z</time></trkpt><trkpt lat="46.04973096784286" lon="9.414195037756722"><ele>840.5</ele><time>2026-04-26T08:56:02Z</time></trkpt><trkpt lat="46.049701765986995" lon="9.414356735060174"><ele>838.0</ele><time>2026-04-26T08:56:03Z</time></trkpt><trkpt lat="46.04963737678529" lon="9.414481826479486"><ele>835.5</ele><time>2026-04-26T08:56:04Z</time></trkpt><trkpt lat="46.04954929536077" lon="9.414660757628766"><ele>833.0</ele><time>2026-04-26T08:56:05Z</time></trkpt><trkpt lat="46.04946944180583" lon="9.414816739640843"><ele>830.0</ele><time>2026-04-26T08:56:06Z</time></trkpt><trkpt lat="46.049425215496505" lon="9.415002206502153"><ele>827.0</ele><time>2026-04-26T08:56:07Z</time></trkpt><trkpt lat="46.04943597417353" lon="9.415179633248599"><ele>824.0</ele><time>2026-04-26T08:56:08Z</time></trkpt><trkpt lat="46.049469385501965" lon="9.415318770321361"><ele>821.0</ele><time>2026-04-26T08:56:09Z</time></trkpt><trkpt lat="46.049542956842316" lon="9.415482629498776"><ele>818.5</ele><time>2026-04-26T08:56:10Z</time></trkpt><trkpt lat="46.049623955240946" lon="9.415667841304716"><ele>816.0</ele><time>2026-04-26T08:56:11Z</time></trkpt><trkpt lat="46.049673317577586" lon="9.415817675796774"><ele>813.5</ele><time>2026-04-26T08:56:12Z</time></trkpt><trkpt lat="46.04969467050967" lon="9.415960452880855"><ele>811.0</ele><time>2026-04-26T08:56:13Z</time></trkpt><trkpt lat="46.04963884183562" lon="9.416052888041243"><ele>811.0</ele><time>2026-04-26T08:56:14Z</time></trkpt><trkpt lat="46.04958310777956" lon="9.416132646368833"><ele>811.0</ele><time>2026-04-26T08:56:15Z</time></trkpt><trkpt lat="46.04950360761153" lon="9.416262968370638"><ele>811.0</ele><time>2026-04-26T08:56:16Z</time></trkpt><trkpt lat="46.0494644566169" lon="9.416417839003925"><ele>811.0</ele><time>2026-04-26T08:56:17Z</time></trkpt><trkpt lat="46.04949441244043" lon="9.41654497489321"><ele>811.0</ele><time>2026-04-26T08:56:18Z</time></trkpt><trkpt lat="46.04951078731044" lon="9.416639872459882"><ele>808.6666666666666</ele><time>2026-04-26T08:56:19Z</time></trkpt><trkpt lat="46.049521241542806" lon="9.416740856235496"><ele>806.3333333333333</ele><time>2026-04-26T08:56:20Z</time></trkpt><trkpt lat="46.04958802125075" lon="9.41683150019875"><ele>804.0</ele><time>2026-04-26T08:56:21Z</time></trkpt><trkpt lat="46.04965509523672" lon="9.416908329625672"><ele>801.6666666666667</ele><time>2026-04-26T08:56:22Z</time></trkpt><trkpt lat="46.04972891442841" lon="9.41699393853333"><ele>799.3333333333334</ele><time>2026-04-26T08:56:23Z</time></trkpt><trkpt lat="46.04980764686039" lon="9.417080524051364"><ele>797.0</ele><time>2026-04-26T08:56:24Z</time></trkpt><trkpt lat="46.049869748954855" lon="9.417185332614094"><ele>792.75</ele><time>2026-04-26T08:56:25Z</time></trkpt><trkpt lat="46.04995327031837" lon="9.417293799455967"><ele>788.5</ele><time>2026-04-26T08:56:26Z</time></trkpt><trkpt lat="46.050052446849215" lon="9.417422491532845"><ele>784.25</ele><time>2026-04-26T08:56:27Z</time></trkpt><trkpt lat="46.050164101918895" lon="9.417549641297432"><ele>780.0</ele><time>2026-04-26T08:56:28Z</time></trkpt><trkpt lat="46.050269369752584" lon="9.417674353019757"><ele>772.5</ele><time>2026-04-26T08:56:29Z</time></trkpt><trkpt lat="46.050366204752386" lon="9.417792241021715"><ele>765.0</ele><time>2026-04-26T08:56:30Z</time></trkpt><trkpt lat="46.05045411658413" lon="9.417893173852292"><ele>757.5</ele><time>2026-04-26T08:56:31Z</time></trkpt><trkpt lat="46.05054935835632" lon="9.417960281040028"><ele>750.0</ele><time>2026-04-26T08:56:32Z</time></trkpt><trkpt lat="46.05065248493645" lon="9.418008094697495"><ele>750.0</ele><time>2026-04-26T08:56:33Z</time></trkpt><trkpt lat="46.05076446412928" lon="9.417991556174346"><ele>750.0</ele><time>2026-04-26T08:56:34Z</time></trkpt><trkpt lat="46.050844218965295" lon="9.417848963482392"><ele>750.0</ele><time>2026-04-26T08:56:35Z</time></trkpt><trkpt lat="46.05092907108134" lon="9.41774627338325"><ele>750.0</ele><time>2026-04-26T08:56:36Z</time></trkpt><trkpt lat="46.050969494715375" lon="9.417586822357558"><ele>751.0</ele><time>2026-04-26T08:56:37Z</time></trkpt><trkpt lat="46.051019435250254" lon="9.417424730410549"><ele>752.0</ele><time>2026-04-26T08:56:38Z</time></trkpt><trkpt lat="46.05107749574367" lon="9.417265923789737"><ele>753.0</ele><time>2026-04-26T08:56:39Z</time></trkpt><trkpt lat="46.05111619520144" lon="9.417077177735003"><ele>754.0</ele><time>2026-04-26T08:56:40Z</time></trkpt><trkpt lat="46.051128948838034" lon="9.416883212166775"><ele>754.0</ele><time>2026-04-26T08:56:41Z</time></trkpt><trkpt lat="46.05115707030483" lon="9.416706610783393"><ele>754.0</ele><time>2026-04-26T08:56:42Z</time></trkpt><trkpt lat="46.051174401891835" lon="9.416552778970793"><ele>754.0</ele><time>2026-04-26T08:56:43Z</time></trkpt><trkpt lat="46.051193749479005" lon="9.416406355837111"><ele>754.0</ele><time>2026-04-26T08:56:44Z</time></trkpt><trkpt lat="46.05122470280784" lon="9.416285761884733"><ele>754.0</ele><time>2026-04-26T08:56:45Z</time></trkpt><trkpt lat="46.05132772588192" lon="9.416243953090822"><ele>749.75</ele><time>2026-04-26T08:56:46Z</time></trkpt><trkpt lat="46.051433770226325" lon="9.416236339476717"><ele>745.5</ele><time>2026-04-26T08:56:47Z</time></trkpt><trkpt lat="46.051533272908756" lon="9.416162456022198"><ele>741.25</ele><time>2026-04-26T08:56:48Z</time></trkpt><trkpt lat="46.05164391777883" lon="9.416130613974936"><ele>737.0</ele><time>2026-04-26T08:56:49Z</time></trkpt><trkpt lat="46.05175704013782" lon="9.416057305185015"><ele>748.25</ele><time>2026-04-26T08:56:50Z</time></trkpt><trkpt lat="46.05185297560448" lon="9.415939817718717"><ele>759.5</ele><time>2026-04-26T08:56:51Z</time></trkpt><trkpt lat="46.05195319392228" lon="9.415807388534267"><ele>770.75</ele><time>2026-04-26T08:56:52Z</time></trkpt><trkpt lat="46.05205461866177" lon="9.415682748152225"><ele>782.0</ele><time>2026-04-26T08:56:53Z</time></trkpt><trkpt lat="46.0521383249761" lon="9.415521130221773"><ele>775.0</ele><time>2026-04-26T08:56:54Z</time></trkpt><trkpt lat="46.05222721263362" lon="9.415299295420349"><ele>768.0</ele><time>2026-04-26T08:56:55Z</time></trkpt><trkpt lat="46.052312901350625" lon="9.415052450443474"><ele>761.0</ele><time>2026-04-26T08:56:56Z</time></trkpt><trkpt lat="46.05238199075184" lon="9.41483492146347"><ele>757.25</ele><time>2026-04-26T08:56:57Z</time></trkpt><trkpt lat="46.05243574602424" lon="9.41464028405964"><ele>753.5</ele><time>2026-04-26T08:56:58Z</time></trkpt><trkpt lat="46.052459666341" lon="9.414416884062282"><ele>749.75</ele><time>2026-04-26T08:56:59Z</time></trkpt><trkpt lat="46.0524918163309" lon="9.414214856922474"><ele>746.0</ele><time>2026-04-26T08:57:00Z</time></trkpt><trkpt lat="46.0525259284916" lon="9.414060640199834"><ele>755.25</ele><time>2026-04-26T08:57:01Z</time></trkpt><trkpt lat="46.05257619206755" lon="9.413895600217119"><ele>764.5</ele><time>2026-04-26T08:57:02Z</time></trkpt><trkpt lat="46.052676435781784" lon="9.413817957480573"><ele>773.75</ele><time>2026-04-26T08:57:03Z</time></trkpt><trkpt lat="46.05277810173099" lon="9.413770773873397"><ele>783.0</ele><time>2026-04-26T08:57:04Z</time></trkpt><trkpt lat="46.05290439008299" lon="9.413725377243171"><ele>783.0</ele><time>2026-04-26T08:57:05Z</time></trkpt><trkpt lat="46.05303199365014" lon="9.413693522785904"><ele>783.0</ele><time>2026-04-26T08:57:06Z</time></trkpt><trkpt lat="46.05313518970111" lon="9.413682210375772"><ele>783.0</ele><time>2026-04-26T08:57:07Z</time></trkpt><trkpt lat="46.053213410115305" lon="9.413746221690117"><ele>783.0</ele><time>2026-04-26T08:57:08.001Z</time></trkpt><trkpt lat="46.05329721445295" lon="9.413838552486412"><ele>783.0</ele><time>2026-04-26T08:57:09.001Z</time></trkpt><trkpt lat="46.05339141375405" lon="9.413880244906329"><ele>788.8</ele><time>2026-04-26T08:57:10.001Z</time></trkpt><trkpt lat="46.05347405709598" lon="9.413856203935149"><ele>794.5999999999999</ele><time>2026-04-26T08:57:11.001Z</time></trkpt><trkpt lat="46.05355248211283" lon="9.41375316748927"><ele>800.4000000000001</ele><time>2026-04-26T08:57:12.001Z</time></trkpt><trkpt lat="46.05355026427606" lon="9.413581531842281"><ele>806.2</ele><time>2026-04-26T08:57:13.001Z</time></trkpt><trkpt lat="46.05354732942879" lon="9.413442314831302"><ele>812.0</ele><time>2026-04-26T08:57:14.001Z</time></trkpt><trkpt lat="46.05355666584971" lon="9.413290059551734"><ele>812.0</ele><time>2026-04-26T08:57:15.001Z</time></trkpt><trkpt lat="46.053589690028915" lon="9.413184653424782"><ele>812.0</ele><time>2026-04-26T08:57:16.001Z</time></trkpt><trkpt lat="46.053654070482224" lon="9.41312764949302"><ele>812.0</ele><time>2026-04-26T08:57:17.001Z</time></trkpt><trkpt lat="46.05379264297072" lon="9.413037004135875"><ele>812.0</ele><time>2026-04-26T08:57:18.001Z</time></trkpt><trkpt lat="46.05393424778536" lon="9.412984689318069"><ele>816.75</ele><time>2026-04-26T08:57:19.001Z</time></trkpt><trkpt lat="46.054076992428485" lon="9.412911369253358"><ele>821.5</ele><time>2026-04-26T08:57:20.001Z</time></trkpt><trkpt lat="46.0542129725462" lon="9.412847660224163"><ele>826.25</ele><time>2026-04-26T08:57:21.001Z</time></trkpt><trkpt lat="46.054316320786455" lon="9.412771190200463"><ele>831.0</ele><time>2026-04-26T08:57:22.001Z</time></trkpt><trkpt lat="46.05442115842828" lon="9.412733100094972"><ele>831.0</ele><time>2026-04-26T08:57:23.001Z</time></trkpt><trkpt lat="46.05448843893747" lon="9.412637125332095"><ele>831.0</ele><time>2026-04-26T08:57:24.001Z</time></trkpt><trkpt lat="46.05452522320511" lon="9.412514662529501"><ele>831.0</ele><time>2026-04-26T08:57:25.001Z</time></trkpt><trkpt lat="46.05455504356313" lon="9.412349321489165"><ele>831.0</ele><time>2026-04-26T08:57:26.001Z</time></trkpt><trkpt lat="46.05456169589027" lon="9.412093435340312"><ele>827.0</ele><time>2026-04-26T08:57:27.001Z</time></trkpt><trkpt lat="46.054583180891356" lon="9.411937169072303"><ele>823.0</ele><time>2026-04-26T08:57:28.001Z</time></trkpt><trkpt lat="46.05466411410148" lon="9.411793994028168"><ele>819.0</ele><time>2026-04-26T08:57:29.001Z</time></trkpt><trkpt lat="46.05480163788244" lon="9.411571668749806"><ele>815.0</ele><time>2026-04-26T08:57:30.001Z</time></trkpt><trkpt lat="46.054855480971455" lon="9.411342850775466"><ele>811.0</ele><time>2026-04-26T08:57:31.001Z</time></trkpt><trkpt lat="46.05490460567647" lon="9.411110218009304"><ele>807.0</ele><time>2026-04-26T08:57:32.001Z</time></trkpt><trkpt lat="46.05494365797745" lon="9.41090187998286"><ele>803.0</ele><time>2026-04-26T08:57:33.001Z</time></trkpt><trkpt lat="46.05497782021066" lon="9.410714293912779"><ele>814.6666666666667</ele><time>2026-04-26T08:57:34.001Z</time></trkpt><trkpt lat="46.05500977989955" lon="9.410570531614841"><ele>826.3333333333333</ele><time>2026-04-26T08:57:35.001Z</time></trkpt><trkpt lat="46.05515286316483" lon="9.410396781670517"><ele>838.0</ele><time>2026-04-26T08:57:37.001Z</time></trkpt><trkpt lat="46.05524636508388" lon="9.410209100136397"><ele>838.0</ele><time>2026-04-26T08:57:38.001Z</time></trkpt><trkpt lat="46.055277067073995" lon="9.409994372833117"><ele>838.0</ele><time>2026-04-26T08:57:39.001Z</time></trkpt><trkpt lat="46.05529704957127" lon="9.409784229111347"><ele>838.0</ele><time>2026-04-26T08:57:40.001Z</time></trkpt><trkpt lat="46.05535408042308" lon="9.409592127025864"><ele>838.0</ele><time>2026-04-26T08:57:41.001Z</time></trkpt><trkpt lat="46.055419566899275" lon="9.409405103360864"><ele>834.0</ele><time>2026-04-26T08:57:42Z</time></trkpt><trkpt lat="46.05550841571934" lon="9.409222891407422"><ele>830.0</ele><time>2026-04-26T08:57:43Z</time></trkpt><trkpt lat="46.05560180193907" lon="9.409025149104382"><ele>826.0</ele><time>2026-04-26T08:57:44Z</time></trkpt><trkpt lat="46.05568882796585" lon="9.408786237872249"><ele>822.0</ele><time>2026-04-26T08:57:45Z</time></trkpt><trkpt lat="46.05576897151602" lon="9.408562071668918"><ele>818.0</ele><time>2026-04-26T08:57:46Z</time></trkpt><trkpt lat="46.05584373220942" lon="9.408381220203585"><ele>814.0</ele><time>2026-04-26T08:57:47Z</time></trkpt><trkpt lat="46.05590664549799" lon="9.408211091460847"><ele>819.4000000000001</ele><time>2026-04-26T08:57:48Z</time></trkpt><trkpt lat="46.05594166952484" lon="9.408043999062127"><ele>824.8</ele><time>2026-04-26T08:57:49Z</time></trkpt><trkpt lat="46.05599495652173" lon="9.407892940494806"><ele>830.2</ele><time>2026-04-26T08:57:50Z</time></trkpt><trkpt lat="46.05604666684673" lon="9.407749664283552"><ele>835.5999999999999</ele><time>2026-04-26T08:57:51Z</time></trkpt><trkpt lat="46.056100397409715" lon="9.40763984886371"><ele>841.0</ele><time>2026-04-26T08:57:52Z</time></trkpt><trkpt lat="46.056156971670156" lon="9.407540415023794"><ele>840.9999999999999</ele><time>2026-04-26T08:57:53Z</time></trkpt><trkpt lat="46.05624424799542" lon="9.407611604323598"><ele>841.0</ele><time>2026-04-26T08:57:54Z</time></trkpt><trkpt lat="46.05633487906579" lon="9.407691654960619"><ele>841.0</ele><time>2026-04-26T08:57:56Z</time></trkpt><trkpt lat="46.05634806665965" lon="9.407785472064859"><ele>841.0</ele><time>2026-04-26T08:57:59Z</time></trkpt><trkpt lat="46.05636832004194" lon="9.407871918533587"><ele>840.9999999999999</ele><time>2026-04-26T08:58:04Z</time></trkpt><trkpt lat="46.05644354932968" lon="9.407973581623004"><ele>841.0</ele><time>2026-04-26T08:58:17Z</time></trkpt><trkpt lat="46.056484153679556" lon="9.408056169345366"><ele>843.8333333333333</ele><time>2026-04-26T08:58:18Z</time></trkpt><trkpt lat="46.05653045813381" lon="9.408150109824824"><ele>846.6666666666666</ele><time>2026-04-26T08:58:19Z</time></trkpt><trkpt lat="46.056571548917084" lon="9.40823615042248"><ele>849.5</ele><time>2026-04-26T08:58:20Z</time></trkpt><trkpt lat="46.05663454165666" lon="9.408330171695063"><ele>852.3333333333333</ele><time>2026-04-26T08:58:21Z</time></trkpt><trkpt lat="46.0566714853856" lon="9.408445977195122"><ele>855.1666666666666</ele><time>2026-04-26T08:58:22Z</time></trkpt><trkpt lat="46.056727247786334" lon="9.408534122171947"><ele>858.0</ele><time>2026-04-26T08:58:23Z</time></trkpt><trkpt lat="46.05679924311695" lon="9.40861206479695"><ele>860.0</ele><time>2026-04-26T08:58:24Z</time></trkpt><trkpt lat="46.05687379754277" lon="9.408691278337926"><ele>862.0</ele><time>2026-04-26T08:58:25Z</time></trkpt><trkpt lat="46.05694221662338" lon="9.408791502527656"><ele>864.0</ele><time>2026-04-26T08:58:26Z</time></trkpt><trkpt lat="46.05701718192219" lon="9.408866681551443"><ele>866.0</ele><time>2026-04-26T08:58:27Z</time></trkpt><trkpt lat="46.057111132703675" lon="9.408952576167332"><ele>868.0</ele><time>2026-04-26T08:58:28Z</time></trkpt><trkpt lat="46.05720878389141" lon="9.409031106436895"><ele>867.0</ele><time>2026-04-26T08:58:29Z</time></trkpt><trkpt lat="46.057314789460946" lon="9.409101405263153"><ele>866.0</ele><time>2026-04-26T08:58:30Z</time></trkpt><trkpt lat="46.0574271857988" lon="9.409133125579919"><ele>865.0</ele><time>2026-04-26T08:58:31Z</time></trkpt><trkpt lat="46.05753614608426" lon="9.409151334784372"><ele>864.0</ele><time>2026-04-26T08:58:32.001Z</time></trkpt><trkpt lat="46.05765490623313" lon="9.409166218519129"><ele>864.0</ele><time>2026-04-26T08:58:33.001Z</time></trkpt><trkpt lat="46.0577633271405" lon="9.409122406371083"><ele>864.0000000000001</ele><time>2026-04-26T08:58:34.001Z</time></trkpt><trkpt lat="46.05787300467544" lon="9.409114394109112"><ele>864.0000000000001</ele><time>2026-04-26T08:58:35.001Z</time></trkpt><trkpt lat="46.05797239925013" lon="9.409144357009398"><ele>864.0</ele><time>2026-04-26T08:58:36.001Z</time></trkpt><trkpt lat="46.058082774222605" lon="9.40918758424122"><ele>864.0</ele><time>2026-04-26T08:58:37.001Z</time></trkpt><trkpt lat="46.05817132296805" lon="9.409241780145182"><ele>864.0</ele><time>2026-04-26T08:58:38.001Z</time></trkpt><trkpt lat="46.058259187318264" lon="9.409289781579288"><ele>864.0</ele><time>2026-04-26T08:58:39.001Z</time></trkpt><trkpt lat="46.05836248203098" lon="9.409279890428154"><ele>864.0</ele><time>2026-04-26T08:58:40.001Z</time></trkpt><trkpt lat="46.05848685468086" lon="9.409197973583698"><ele>864.0</ele><time>2026-04-26T08:58:41.001Z</time></trkpt><trkpt lat="46.058595680143" lon="9.409115035513226"><ele>862.0</ele><time>2026-04-26T08:58:42.001Z</time></trkpt><trkpt lat="46.058677953188734" lon="9.409030436329589"><ele>860.0000000000001</ele><time>2026-04-26T08:58:43.001Z</time></trkpt><trkpt lat="46.058751230419716" lon="9.408921817852493"><ele>858.0000000000001</ele><time>2026-04-26T08:58:44.001Z</time></trkpt><trkpt lat="46.05880484112489" lon="9.408783715437183"><ele>856.0</ele><time>2026-04-26T08:58:45.001Z</time></trkpt><trkpt lat="46.058871993827466" lon="9.408643541603082"><ele>854.0</ele><time>2026-04-26T08:58:46.001Z</time></trkpt><trkpt lat="46.05893101033264" lon="9.408551620069028"><ele>848.6</ele><time>2026-04-26T08:58:47.001Z</time></trkpt><trkpt lat="46.05900482164734" lon="9.408464384276366"><ele>843.2</ele><time>2026-04-26T08:58:48.001Z</time></trkpt><trkpt lat="46.05909774708983" lon="9.408404025673157"><ele>837.8000000000001</ele><time>2026-04-26T08:58:49.001Z</time></trkpt><trkpt lat="46.05918995488535" lon="9.408387966598774"><ele>832.4000000000001</ele><time>2026-04-26T08:58:50.001Z</time></trkpt><trkpt lat="46.059269924715736" lon="9.40842008102434"><ele>827.0</ele><time>2026-04-26T08:58:51.001Z</time></trkpt><trkpt lat="46.05936208445606" lon="9.408450081003869"><ele>827.0</ele><time>2026-04-26T08:58:52.001Z</time></trkpt><trkpt lat="46.05950610879432" lon="9.408555900861783"><ele>827.0</ele><time>2026-04-26T08:58:53.001Z</time></trkpt><trkpt lat="46.05959950473096" lon="9.408608689857747"><ele>827.0</ele><time>2026-04-26T08:58:54.001Z</time></trkpt><trkpt lat="46.05967777232124" lon="9.408654122146302"><ele>827.0</ele><time>2026-04-26T08:58:55.001Z</time></trkpt><trkpt lat="46.059748911347356" lon="9.408690099997667"><ele>827.0</ele><time>2026-04-26T08:58:56.001Z</time></trkpt><trkpt lat="46.05982415333929" lon="9.408663505967992"><ele>827.0</ele><time>2026-04-26T08:58:57.001Z</time></trkpt><trkpt lat="46.0599346456456" lon="9.40859318506968"><ele>827.0</ele><time>2026-04-26T08:58:58.001Z</time></trkpt><trkpt lat="46.06002334590974" lon="9.408474138756999"><ele>827.0</ele><time>2026-04-26T08:58:59.001Z</time></trkpt><trkpt lat="46.060088937409695" lon="9.40837648197294"><ele>827.0</ele><time>2026-04-26T08:59:00.001Z</time></trkpt><trkpt lat="46.06012444552234" lon="9.40828506433197"><ele>827.0</ele><time>2026-04-26T08:59:01.001Z</time></trkpt><trkpt lat="46.06009199435766" lon="9.408163412742006"><ele>829.8333333333334</ele><time>2026-04-26T08:59:02.001Z</time></trkpt><trkpt lat="46.060020838284416" lon="9.408055916567626"><ele>832.6666666666667</ele><time>2026-04-26T08:59:03.001Z</time></trkpt><trkpt lat="46.059983795768595" lon="9.407932846143385"><ele>835.5</ele><time>2026-04-26T08:59:04.001Z</time></trkpt><trkpt lat="46.06000854164565" lon="9.407827462234126"><ele>838.3333333333333</ele><time>2026-04-26T08:59:05.001Z</time></trkpt><trkpt lat="46.06005258626063" lon="9.407737021739237"><ele>841.1666666666666</ele><time>2026-04-26T08:59:06.001Z</time></trkpt><trkpt lat="46.06010647281378" lon="9.407649010191973"><ele>844.0</ele><time>2026-04-26T08:59:07.001Z</time></trkpt><trkpt lat="46.060182460883674" lon="9.407561503526551"><ele>834.4000000000001</ele><time>2026-04-26T08:59:08.001Z</time></trkpt><trkpt lat="46.06026601693212" lon="9.407494073223083"><ele>824.8</ele><time>2026-04-26T08:59:09.001Z</time></trkpt><trkpt lat="46.06034384739377" lon="9.407530631088603"><ele>815.2</ele><time>2026-04-26T08:59:10.001Z</time></trkpt><trkpt lat="46.06039572575823" lon="9.40762114871437"><ele>805.5999999999999</ele><time>2026-04-26T08:59:11.001Z</time></trkpt><trkpt lat="46.06046937214736" lon="9.407679861843944"><ele>796.0</ele><time>2026-04-26T08:59:12.001Z</time></trkpt><trkpt lat="46.06056572831815" lon="9.407781887368648"><ele>796.0</ele><time>2026-04-26T08:59:13.001Z</time></trkpt><trkpt lat="46.06065301660684" lon="9.407882297736153"><ele>796.0</ele><time>2026-04-26T08:59:14.001Z</time></trkpt><trkpt lat="46.06074965057193" lon="9.407886040028075"><ele>796.0</ele><time>2026-04-26T08:59:15.001Z</time></trkpt><trkpt lat="46.060860006825045" lon="9.407915406986504"><ele>796.0</ele><time>2026-04-26T08:59:16.001Z</time></trkpt><trkpt lat="46.060977534932874" lon="9.407922104993817"><ele>796.0</ele><time>2026-04-26T08:59:17.001Z</time></trkpt><trkpt lat="46.06109006050945" lon="9.407908629955456"><ele>799.1999999999999</ele><time>2026-04-26T08:59:18.001Z</time></trkpt><trkpt lat="46.06118863891344" lon="9.407846354154232"><ele>802.4</ele><time>2026-04-26T08:59:19.001Z</time></trkpt><trkpt lat="46.06129413719667" lon="9.407796631146322"><ele>805.6</ele><time>2026-04-26T08:59:20.001Z</time></trkpt><trkpt lat="46.061378324221835" lon="9.407738274261925"><ele>808.8</ele><time>2026-04-26T08:59:21.001Z</time></trkpt><trkpt lat="46.061466888686034" lon="9.407662837093017"><ele>812.0</ele><time>2026-04-26T08:59:22.001Z</time></trkpt><trkpt lat="46.061521618628944" lon="9.407548567034045"><ele>812.0000000000001</ele><time>2026-04-26T08:59:23.001Z</time></trkpt><trkpt lat="46.06157284336161" lon="9.40743669921127"><ele>812.0</ele><time>2026-04-26T08:59:24.001Z</time></trkpt><trkpt lat="46.06163934210499" lon="9.407390504372897"><ele>812.0</ele><time>2026-04-26T08:59:25.001Z</time></trkpt><trkpt lat="46.06170334317423" lon="9.407340196625052"><ele>812.0</ele><time>2026-04-26T08:59:26.001Z</time></trkpt><trkpt lat="46.06178150601567" lon="9.4073201130132"><ele>812.0000000000001</ele><time>2026-04-26T08:59:27.001Z</time></trkpt><trkpt lat="46.0618444886757" lon="9.40737662721512"><ele>812.0</ele><time>2026-04-26T08:59:28.001Z</time></trkpt><trkpt lat="46.061949638476804" lon="9.407512315008216"><ele>813.5000000000001</ele><time>2026-04-26T08:59:30.001Z</time></trkpt><trkpt lat="46.06200280975916" lon="9.407577682755928"><ele>815.0</ele><time>2026-04-26T08:59:31.001Z</time></trkpt><trkpt lat="46.062079917519334" lon="9.40767224316128"><ele>816.5</ele><time>2026-04-26T08:59:33.001Z</time></trkpt><trkpt lat="46.06212991676655" lon="9.407743314338463"><ele>818.0</ele><time>2026-04-26T08:59:59.001Z</time></trkpt><trkpt lat="46.06221831299503" lon="9.407817610418382"><ele>819.5000000000001</ele><time>2026-04-26T09:00:01.001Z</time></trkpt><trkpt lat="46.06229428537122" lon="9.407860091300657"><ele>821.0</ele><time>2026-04-26T09:00:03.001Z</time></trkpt><trkpt lat="46.062407590033736" lon="9.407850801236703"><ele>821.0</ele><time>2026-04-26T09:00:05.001Z</time></trkpt><trkpt lat="46.06245104532747" lon="9.407775540574177"><ele>821.0</ele><time>2026-04-26T09:00:06.001Z</time></trkpt><trkpt lat="46.06247469694522" lon="9.40767617577264"><ele>821.0</ele><time>2026-04-26T09:00:50.001Z</time></trkpt><trkpt lat="46.062482912743874" lon="9.40753824392058"><ele>821.0</ele><time>2026-04-26T09:01:04.001Z</time></trkpt><trkpt lat="46.06245290806923" lon="9.407400595231534"><ele>821.0</ele><time>2026-04-26T09:01:06.001Z</time></trkpt><trkpt lat="46.06243154785138" lon="9.407213596351594"><ele>820.6666666666667</ele><time>2026-04-26T09:01:08.001Z</time></trkpt><trkpt lat="46.06239745764727" lon="9.407122006174834"><ele>820.3333333333334</ele><time>2026-04-26T09:01:09.001Z</time></trkpt><trkpt lat="46.06233943998859" lon="9.40703167670183"><ele>820.0</ele><time>2026-04-26T09:01:10.001Z</time></trkpt><trkpt lat="46.06227333265379" lon="9.406948176935368"><ele>819.6666666666667</ele><time>2026-04-26T09:01:11.001Z</time></trkpt><trkpt lat="46.06221671982699" lon="9.406849019953047"><ele>819.3333333333334</ele><time>2026-04-26T09:01:12.001Z</time></trkpt><trkpt lat="46.062145684837176" lon="9.406737351434824"><ele>819.0</ele><time>2026-04-26T09:01:13.001Z</time></trkpt><trkpt lat="46.062057072635376" lon="9.406654166475223"><ele>819.0</ele><time>2026-04-26T09:01:14.001Z</time></trkpt><trkpt lat="46.061975563191496" lon="9.40661110815566"><ele>819.0</ele><time>2026-04-26T09:01:15.001Z</time></trkpt><trkpt lat="46.06191065986138" lon="9.406538836588455"><ele>819.0</ele><time>2026-04-26T09:01:16.001Z</time></trkpt><trkpt lat="46.06187355924383" lon="9.406430437961186"><ele>819.0</ele><time>2026-04-26T09:01:17.001Z</time></trkpt><trkpt lat="46.0618346991966" lon="9.40633001316813"><ele>819.0</ele><time>2026-04-26T09:01:18.001Z</time></trkpt><trkpt lat="46.06174973279382" lon="9.406287906269355"><ele>819.0</ele><time>2026-04-26T09:01:19.001Z</time></trkpt><trkpt lat="46.061670081232634" lon="9.406239905779637"><ele>822.1666666666666</ele><time>2026-04-26T09:01:20.001Z</time></trkpt><trkpt lat="46.06158745505243" lon="9.406234757958284"><ele>825.3333333333333</ele><time>2026-04-26T09:01:21.001Z</time></trkpt><trkpt lat="46.06150368422536" lon="9.406288117666772"><ele>828.5</ele><time>2026-04-26T09:01:22.001Z</time></trkpt><trkpt lat="46.061432486811974" lon="9.4063433077887"><ele>831.6666666666666</ele><time>2026-04-26T09:01:23.001Z</time></trkpt><trkpt lat="46.06133845107431" lon="9.4063704565456"><ele>834.8333333333333</ele><time>2026-04-26T09:01:25.001Z</time></trkpt><trkpt lat="46.06127572756328" lon="9.4063443664684"><ele>838.0</ele><time>2026-04-26T09:01:26.001Z</time></trkpt><trkpt lat="46.06120444516311" lon="9.406302338846722"><ele>838.0</ele><time>2026-04-26T09:01:27.001Z</time></trkpt><trkpt lat="46.061138010990334" lon="9.406273916843746"><ele>838.0</ele><time>2026-04-26T09:01:28.001Z</time></trkpt><trkpt lat="46.061052311471656" lon="9.406349327880802"><ele>838.0</ele><time>2026-04-26T09:01:30.001Z</time></trkpt><trkpt lat="46.06098693819637" lon="9.40647664289198"><ele>838.0</ele><time>2026-04-26T09:01:32.001Z</time></trkpt><trkpt lat="46.06090537072104" lon="9.406509983153915"><ele>838.0</ele><time>2026-04-26T09:01:34.001Z</time></trkpt><trkpt lat="46.06081382363493" lon="9.406411385512994"><ele>837.9999999999999</ele><time>2026-04-26T09:01:36.001Z</time></trkpt><trkpt lat="46.06081536684829" lon="9.406299041248705"><ele>838.0</ele><time>2026-04-26T09:01:37.001Z</time></trkpt><trkpt lat="46.06077935711557" lon="9.406178137607933"><ele>838.0</ele><time>2026-04-26T09:01:38.001Z</time></trkpt><trkpt lat="46.06068969200881" lon="9.406100289362419"><ele>838.0</ele><time>2026-04-26T09:01:39.001Z</time></trkpt><trkpt lat="46.06061106180618" lon="9.406014891604896"><ele>837.9999999999999</ele><time>2026-04-26T09:01:40.001Z</time></trkpt><trkpt lat="46.06055014571622" lon="9.405946845788923"><ele>838.0</ele><time>2026-04-26T09:01:41.001Z</time></trkpt><trkpt lat="46.060559006303066" lon="9.40585369163738"><ele>834.25</ele><time>2026-04-26T09:01:42.001Z</time></trkpt><trkpt lat="46.06055517586116" lon="9.405650528942402"><ele>830.5</ele><time>2026-04-26T09:01:44.001Z</time></trkpt><trkpt lat="46.06054833239074" lon="9.405507834566373"><ele>826.75</ele><time>2026-04-26T09:01:45.001Z</time></trkpt><trkpt lat="46.060546797072284" lon="9.405350639250992"><ele>823.0</ele><time>2026-04-26T09:01:46.001Z</time></trkpt><trkpt lat="46.06055292814318" lon="9.405191293594402"><ele>823.0</ele><time>2026-04-26T09:01:47.001Z</time></trkpt><trkpt lat="46.060537248912766" lon="9.405074203737053"><ele>823.0</ele><time>2026-04-26T09:01:48.001Z</time></trkpt><trkpt lat="46.06047912811327" lon="9.4049565945128"><ele>823.0</ele><time>2026-04-26T09:01:49.001Z</time></trkpt><trkpt lat="46.06039795907827" lon="9.404864327579483"><ele>823.0</ele><time>2026-04-26T09:01:50.001Z</time></trkpt><trkpt lat="46.060317616693574" lon="9.404816263904952"><ele>823.0</ele><time>2026-04-26T09:01:51.001Z</time></trkpt><trkpt lat="46.060250761962465" lon="9.404761768839395"><ele>822.9999999999999</ele><time>2026-04-26T09:01:53.999Z</time></trkpt><trkpt lat="46.060184463307614" lon="9.404697853144185"><ele>823.0</ele><time>2026-04-26T09:01:55.999Z</time></trkpt><trkpt lat="46.060102502780076" lon="9.404567966837737"><ele>823.0</ele><time>2026-04-26T09:01:57.999Z</time></trkpt><trkpt lat="46.060087231563635" lon="9.404450330716294"><ele>823.0</ele><time>2026-04-26T09:01:58.999Z</time></trkpt><trkpt lat="46.060056074283736" lon="9.404341456171055"><ele>822.9999999999999</ele><time>2026-04-26T09:01:59.999Z</time></trkpt><trkpt lat="46.05999826840345" lon="9.404265883483763"><ele>823.0</ele><time>2026-04-26T09:02:00.999Z</time></trkpt><trkpt lat="46.06000764160993" lon="9.404129537523794"><ele>823.0</ele><time>2026-04-26T09:02:02.999Z</time></trkpt><trkpt lat="46.0600839873468" lon="9.404180076206758"><ele>823.0</ele><time>2026-04-26T09:02:05.999Z</time></trkpt><trkpt lat="46.06015510752682" lon="9.404360522524936"><ele>823.0</ele><time>2026-04-26T09:02:07.999Z</time></trkpt><trkpt lat="46.06015706043342" lon="9.404477563062395"><ele>823.0</ele><time>2026-04-26T09:02:08.999Z</time></trkpt><trkpt lat="46.060209312582636" lon="9.404607378695461"><ele>823.0</ele><time>2026-04-26T09:02:10.999Z</time></trkpt><trkpt lat="46.06026736993187" lon="9.404727087853507"><ele>823.0</ele><time>2026-04-26T09:02:12.999Z</time></trkpt><trkpt lat="46.060151102611194" lon="9.404880862214098"><ele>823.0</ele><time>2026-04-26T09:02:13.999Z</time></trkpt><trkpt lat="46.060081655657605" lon="9.404894157218367"><ele>823.0</ele><time>2026-04-26T09:02:14.999Z</time></trkpt><trkpt lat="46.05997867853477" lon="9.404885740806016"><ele>823.0</ele><time>2026-04-26T09:02:15.999Z</time></trkpt><trkpt lat="46.06060387918867" lon="9.404845274809317"><ele>823.0</ele><time>2026-04-26T09:02:16.999Z</time></trkpt><trkpt lat="46.060573310360006" lon="9.404760147454024"><ele>823.0</ele><time>2026-04-26T09:02:17.999Z</time></trkpt><trkpt lat="46.06042002278782" lon="9.404677490355665"><ele>823.0</ele><time>2026-04-26T09:02:19.999Z</time></trkpt><trkpt lat="46.0603879090135" lon="9.404515732987848"><ele>823.0</ele><time>2026-04-26T09:02:20.999Z</time></trkpt><trkpt lat="46.06033500356676" lon="9.404421530141834"><ele>823.0</ele><time>2026-04-26T09:02:21.999Z</time></trkpt><trkpt lat="46.06029898060007" lon="9.404330398558812"><ele>827.25</ele><time>2026-04-26T09:02:23Z</time></trkpt><trkpt lat="46.06027337389421" lon="9.404215936210766"><ele>831.5</ele><time>2026-04-26T09:02:24Z</time></trkpt><trkpt lat="46.06024583246286" lon="9.404053757862968"><ele>835.75</ele><time>2026-04-26T09:02:25Z</time></trkpt><trkpt lat="46.06022907705701" lon="9.403843400197962"><ele>840.0</ele><time>2026-04-26T09:02:26Z</time></trkpt><trkpt lat="46.06020172560883" lon="9.403610587326366"><ele>842.2</ele><time>2026-04-26T09:02:27Z</time></trkpt><trkpt lat="46.06016966314542" lon="9.403388056139109"><ele>844.4</ele><time>2026-04-26T09:02:28Z</time></trkpt><trkpt lat="46.06014573426495" lon="9.403229433522224"><ele>846.5999999999999</ele><time>2026-04-26T09:02:29Z</time></trkpt><trkpt lat="46.06014214022279" lon="9.403104182705551"><ele>848.8</ele><time>2026-04-26T09:02:30Z</time></trkpt><trkpt lat="46.06018552335697" lon="9.403011322400046"><ele>851.0</ele><time>2026-04-26T09:02:31Z</time></trkpt><trkpt lat="46.06017345004903" lon="9.40285612411332"><ele>851.0</ele><time>2026-04-26T09:02:32Z</time></trkpt><trkpt lat="46.060232996744126" lon="9.40273348478898"><ele>851.0</ele><time>2026-04-26T09:02:33Z</time></trkpt><trkpt lat="46.060284175992855" lon="9.402585334828995"><ele>851.0</ele><time>2026-04-26T09:02:34Z</time></trkpt><trkpt lat="46.060321899480435" lon="9.402435157678084"><ele>851.0</ele><time>2026-04-26T09:02:35Z</time></trkpt><trkpt lat="46.060356474636635" lon="9.40227444708419"><ele>851.0</ele><time>2026-04-26T09:02:36Z</time></trkpt><trkpt lat="46.06038546280936" lon="9.402117502342744"><ele>847.0</ele><time>2026-04-26T09:02:37Z</time></trkpt><trkpt lat="46.06040372105105" lon="9.401963195305669"><ele>843.0</ele><time>2026-04-26T09:02:38Z</time></trkpt><trkpt lat="46.06043023906852" lon="9.401823429582421"><ele>839.0</ele><time>2026-04-26T09:02:39Z</time></trkpt><trkpt lat="46.06045066319946" lon="9.401686144627936"><ele>835.0</ele><time>2026-04-26T09:02:40Z</time></trkpt><trkpt lat="46.06047098415781" lon="9.401541816178312"><ele>831.0</ele><time>2026-04-26T09:02:41Z</time></trkpt><trkpt lat="46.060494084722784" lon="9.40139829214653"><ele>832.1999999999999</ele><time>2026-04-26T09:02:42Z</time></trkpt><trkpt lat="46.06052118343559" lon="9.40125264232371"><ele>833.4</ele><time>2026-04-26T09:02:43Z</time></trkpt><trkpt lat="46.060548997854106" lon="9.401119640983186"><ele>834.6</ele><time>2026-04-26T09:02:44Z</time></trkpt><trkpt lat="46.0605787561792" lon="9.400990804953926"><ele>835.8</ele><time>2026-04-26T09:02:45Z</time></trkpt><trkpt lat="46.06061221672508" lon="9.400862985424368"><ele>837.0</ele><time>2026-04-26T09:02:46Z</time></trkpt><trkpt lat="46.06064670911682" lon="9.400745360900421"><ele>837.0</ele><time>2026-04-26T09:02:47Z</time></trkpt><trkpt lat="46.0606770115823" lon="9.400651633723262"><ele>837.0</ele><time>2026-04-26T09:02:48Z</time></trkpt><trkpt lat="46.06071419153965" lon="9.400554318965582"><ele>837.0</ele><time>2026-04-26T09:02:56Z</time></trkpt><trkpt lat="46.060754225157396" lon="9.400456683355868"><ele>837.0</ele><time>2026-04-26T09:02:57Z</time></trkpt><trkpt lat="46.060787510307094" lon="9.400345146387448"><ele>837.0</ele><time>2026-04-26T09:02:58Z</time></trkpt><trkpt lat="46.060834996589946" lon="9.400233998886053"><ele>837.0</ele><time>2026-04-26T09:02:59Z</time></trkpt><trkpt lat="46.060865095272305" lon="9.400129931232225"><ele>843.2</ele><time>2026-04-26T09:03:00Z</time></trkpt><trkpt lat="46.060899593415606" lon="9.400006981873744"><ele>849.4000000000001</ele><time>2026-04-26T09:03:01Z</time></trkpt><trkpt lat="46.060935624561765" lon="9.399873387822531"><ele>855.5999999999999</ele><time>2026-04-26T09:03:02Z</time></trkpt><trkpt lat="46.06097184222097" lon="9.399730877470038"><ele>861.8</ele><time>2026-04-26T09:03:03Z</time></trkpt><trkpt lat="46.061003473973095" lon="9.399585710470134"><ele>868.0</ele><time>2026-04-26T09:03:04Z</time></trkpt><trkpt lat="46.06102830354449" lon="9.399421271647306"><ele>866.8</ele><time>2026-04-26T09:03:05Z</time></trkpt><trkpt lat="46.061046156973724" lon="9.399273070884703"><ele>865.5999999999999</ele><time>2026-04-26T09:03:06Z</time></trkpt><trkpt lat="46.06106382363893" lon="9.399118184316928"><ele>864.4000000000001</ele><time>2026-04-26T09:03:07Z</time></trkpt><trkpt lat="46.06107661194554" lon="9.398957475180689"><ele>863.2</ele><time>2026-04-26T09:03:08Z</time></trkpt><trkpt lat="46.06108810082" lon="9.398808997233642"><ele>862.0</ele><time>2026-04-26T09:03:09Z</time></trkpt><trkpt lat="46.06110302630574" lon="9.398671682918769"><ele>861.9999999999999</ele><time>2026-04-26T09:03:10Z</time></trkpt><trkpt lat="46.061105397908314" lon="9.398540850929795"><ele>862.0</ele><time>2026-04-26T09:03:11Z</time></trkpt><trkpt lat="46.06112332187509" lon="9.398425169348338"><ele>862.0</ele><time>2026-04-26T09:03:12Z</time></trkpt><trkpt lat="46.06114882621312" lon="9.39831623498134"><ele>862.0</ele><time>2026-04-26T09:03:13Z</time></trkpt><trkpt lat="46.061199496204466" lon="9.398213092383067"><ele>861.9999999999999</ele><time>2026-04-26T09:03:14Z</time></trkpt><trkpt lat="46.06124394609777" lon="9.398093104701198"><ele>862.0</ele><time>2026-04-26T09:03:15Z</time></trkpt><trkpt lat="46.06130457636383" lon="9.397984473071647"><ele>865.4999999999999</ele><time>2026-04-26T09:03:16Z</time></trkpt><trkpt lat="46.06137285093113" lon="9.397931449468095"><ele>869.0</ele><time>2026-04-26T09:03:17Z</time></trkpt><trkpt lat="46.0614322765774" lon="9.39785019004246"><ele>872.5</ele><time>2026-04-26T09:03:18Z</time></trkpt><trkpt lat="46.061522476845816" lon="9.39779033960378"><ele>876.0</ele><time>2026-04-26T09:03:19Z</time></trkpt><trkpt lat="46.06161550923834" lon="9.397753997661333"><ele>879.4999999999999</ele><time>2026-04-26T09:03:20Z</time></trkpt><trkpt lat="46.061680463495755" lon="9.397771267227677"><ele>883.0</ele><time>2026-04-26T09:03:21Z</time></trkpt><trkpt lat="46.061759242393926" lon="9.397742684054176"><ele>882.9999999999999</ele><time>2026-04-26T09:03:22Z</time></trkpt><trkpt lat="46.06182776590827" lon="9.397697690966991"><ele>883.0</ele><time>2026-04-26T09:03:23Z</time></trkpt><trkpt lat="46.06190366268288" lon="9.39768071321612"><ele>883.0</ele><time>2026-04-26T09:03:24Z</time></trkpt><trkpt lat="46.06198692812691" lon="9.397585225207397"><ele>883.0</ele><time>2026-04-26T09:03:25Z</time></trkpt><trkpt lat="46.06203004847319" lon="9.39746893386779"><ele>882.9999999999999</ele><time>2026-04-26T09:03:26Z</time></trkpt><trkpt lat="46.06209317073708" lon="9.3973727979358"><ele>883.0</ele><time>2026-04-26T09:03:27Z</time></trkpt><trkpt lat="46.062156848181374" lon="9.397289591879597"><ele>883.0</ele><time>2026-04-26T09:03:28Z</time></trkpt><trkpt lat="46.06222463083377" lon="9.397230718054033"><ele>883.0</ele><time>2026-04-26T09:03:29Z</time></trkpt><trkpt lat="46.06229781518794" lon="9.397163605068277"><ele>883.0</ele><time>2026-04-26T09:03:30Z</time></trkpt><trkpt lat="46.0623634191266" lon="9.397073555664536"><ele>883.0</ele><time>2026-04-26T09:03:31Z</time></trkpt><trkpt lat="46.06246159177525" lon="9.396987883423629"><ele>883.0</ele><time>2026-04-26T09:03:32Z</time></trkpt><trkpt lat="46.0625506177729" lon="9.396884909050321"><ele>885.5</ele><time>2026-04-26T09:03:33Z</time></trkpt><trkpt lat="46.06266737550896" lon="9.396752932574282"><ele>888.0</ele><time>2026-04-26T09:03:34Z</time></trkpt><trkpt lat="46.06277062841596" lon="9.396643007386494"><ele>890.5</ele><time>2026-04-26T09:03:35Z</time></trkpt><trkpt lat="46.062880268874046" lon="9.39655116513287"><ele>893.0</ele><time>2026-04-26T09:03:36Z</time></trkpt><trkpt lat="46.06296565812683" lon="9.39651926562482"><ele>893.0</ele><time>2026-04-26T09:03:37Z</time></trkpt><trkpt lat="46.063077825614606" lon="9.396460612829033"><ele>893.0</ele><time>2026-04-26T09:03:38Z</time></trkpt><trkpt lat="46.0631781834773" lon="9.396376273583979"><ele>893.0</ele><time>2026-04-26T09:03:39Z</time></trkpt><trkpt lat="46.06323422962638" lon="9.396281163291809"><ele>893.0</ele><time>2026-04-26T09:03:40.001Z</time></trkpt><trkpt lat="46.063305189021825" lon="9.396188418176484"><ele>893.0</ele><time>2026-04-26T09:03:41.001Z</time></trkpt><trkpt lat="46.06336194675349" lon="9.396049874830112"><ele>895.5</ele><time>2026-04-26T09:03:42.001Z</time></trkpt><trkpt lat="46.063423021075955" lon="9.395855057972307"><ele>898.0</ele><time>2026-04-26T09:03:43.001Z</time></trkpt><trkpt lat="46.06348083820745" lon="9.395676610818985"><ele>900.5</ele><time>2026-04-26T09:03:44.001Z</time></trkpt><trkpt lat="46.06352674805624" lon="9.395530467100969"><ele>903.0</ele><time>2026-04-26T09:03:45.001Z</time></trkpt><trkpt lat="46.06351120922531" lon="9.395370806467941"><ele>903.0</ele><time>2026-04-26T09:03:46.001Z</time></trkpt><trkpt lat="46.063514547996796" lon="9.395232122283906"><ele>903.0</ele><time>2026-04-26T09:03:47.001Z</time></trkpt><trkpt lat="46.06357676977342" lon="9.395094312950775"><ele>903.0</ele><time>2026-04-26T09:03:48.001Z</time></trkpt><trkpt lat="46.063636735664815" lon="9.394971372960693"><ele>903.0</ele><time>2026-04-26T09:03:49.001Z</time></trkpt><trkpt lat="46.06365875546209" lon="9.394862566068461"><ele>903.0</ele><time>2026-04-26T09:03:50.001Z</time></trkpt><trkpt lat="46.063646541415615" lon="9.394724836672571"><ele>905.8</ele><time>2026-04-26T09:03:51.001Z</time></trkpt><trkpt lat="46.063564341188346" lon="9.394623693349688"><ele>908.5999999999999</ele><time>2026-04-26T09:03:52.001Z</time></trkpt><trkpt lat="46.06348113908113" lon="9.394519873049386"><ele>911.4000000000001</ele><time>2026-04-26T09:03:53.001Z</time></trkpt><trkpt lat="46.06344252619549" lon="9.394401129472618"><ele>914.2</ele><time>2026-04-26T09:03:54.001Z</time></trkpt><trkpt lat="46.06341335072212" lon="9.39428912535352"><ele>917.0</ele><time>2026-04-26T09:03:55.001Z</time></trkpt><trkpt lat="46.06340726685691" lon="9.394187622009127"><ele>917.0</ele><time>2026-04-26T09:03:56.001Z</time></trkpt><trkpt lat="46.06343604379395" lon="9.39408705187754"><ele>917.0</ele><time>2026-04-26T09:03:57.001Z</time></trkpt><trkpt lat="46.06351922874007" lon="9.393991358067932"><ele>917.0</ele><time>2026-04-26T09:03:58.001Z</time></trkpt><trkpt lat="46.063552487780434" lon="9.393865693018615"><ele>917.0</ele><time>2026-04-26T09:03:59.001Z</time></trkpt><trkpt lat="46.06357917423711" lon="9.393714914643482"><ele>917.0</ele><time>2026-04-26T09:04:00Z</time></trkpt><trkpt lat="46.063600767390305" lon="9.393591042731911"><ele>910.2857142857143</ele><time>2026-04-26T09:04:01Z</time></trkpt><trkpt lat="46.06362015196569" lon="9.393490737303408"><ele>903.5714285714286</ele><time>2026-04-26T09:04:02Z</time></trkpt><trkpt lat="46.063638401818736" lon="9.393396634215138"><ele>896.8571428571429</ele><time>2026-04-26T09:04:03Z</time></trkpt><trkpt lat="46.06366268994378" lon="9.393297695933395"><ele>890.1428571428571</ele><time>2026-04-26T09:04:04Z</time></trkpt><trkpt lat="46.06370658299878" lon="9.393211216426176"><ele>883.4285714285714</ele><time>2026-04-26T09:04:05Z</time></trkpt><trkpt lat="46.063772813731866" lon="9.393148687290171"><ele>876.7142857142858</ele><time>2026-04-26T09:04:06Z</time></trkpt><trkpt lat="46.063845197598845" lon="9.393091328622678"><ele>870.0</ele><time>2026-04-26T09:04:07Z</time></trkpt><trkpt lat="46.06392596998227" lon="9.393043424464667"><ele>875.5</ele><time>2026-04-26T09:04:08Z</time></trkpt><trkpt lat="46.064050631996764" lon="9.392991849694914"><ele>881.0</ele><time>2026-04-26T09:04:10Z</time></trkpt><trkpt lat="46.0641394902644" lon="9.392961603246901"><ele>886.5</ele><time>2026-04-26T09:04:11Z</time></trkpt><trkpt lat="46.06429639306767" lon="9.392931292134929"><ele>892.0</ele><time>2026-04-26T09:04:12Z</time></trkpt><trkpt lat="46.06444786257599" lon="9.392853090175725"><ele>892.0</ele><time>2026-04-26T09:04:13Z</time></trkpt><trkpt lat="46.064557022127225" lon="9.392811098597331"><ele>892.0</ele><time>2026-04-26T09:04:14Z</time></trkpt><trkpt lat="46.06463996479037" lon="9.392746848722984"><ele>892.0</ele><time>2026-04-26T09:04:15Z</time></trkpt><trkpt lat="46.064707583937405" lon="9.392654635239339"><ele>892.0</ele><time>2026-04-26T09:04:16Z</time></trkpt><trkpt lat="46.06478354585651" lon="9.392512761113805"><ele>892.0</ele><time>2026-04-26T09:04:17Z</time></trkpt><trkpt lat="46.064879136373214" lon="9.392368378138547"><ele>894.5</ele><time>2026-04-26T09:04:18Z</time></trkpt><trkpt lat="46.06496457483844" lon="9.392202424531748"><ele>897.0</ele><time>2026-04-26T09:04:19Z</time></trkpt><trkpt lat="46.06505420945045" lon="9.392031052170546"><ele>899.5</ele><time>2026-04-26T09:04:20Z</time></trkpt><trkpt lat="46.06514444071075" lon="9.391910604393303"><ele>902.0</ele><time>2026-04-26T09:04:21Z</time></trkpt><trkpt lat="46.06522802928692" lon="9.391830450066948"><ele>902.0</ele><time>2026-04-26T09:04:22Z</time></trkpt><trkpt lat="46.06530620604241" lon="9.391785619662882"><ele>902.0</ele><time>2026-04-26T09:04:23Z</time></trkpt><trkpt lat="46.065375070853406" lon="9.391760339257551"><ele>902.0</ele><time>2026-04-26T09:04:24Z</time></trkpt><trkpt lat="46.065452053443025" lon="9.391749210566205"><ele>902.0</ele><time>2026-04-26T09:04:25Z</time></trkpt><trkpt lat="46.065557903257414" lon="9.391733480067831"><ele>902.0</ele><time>2026-04-26T09:04:26Z</time></trkpt><trkpt lat="46.0656951451336" lon="9.39169959069088"><ele>906.0</ele><time>2026-04-26T09:04:27Z</time></trkpt><trkpt lat="46.0658369327647" lon="9.39160008278923"><ele>910.0</ele><time>2026-04-26T09:04:28Z</time></trkpt><trkpt lat="46.065898914235625" lon="9.391521237474931"><ele>914.0</ele><time>2026-04-26T09:04:29Z</time></trkpt><trkpt lat="46.06594705055407" lon="9.391352483045463"><ele>918.0</ele><time>2026-04-26T09:04:30Z</time></trkpt><trkpt lat="46.0659007167691" lon="9.391153563732503"><ele>918.0</ele><time>2026-04-26T09:04:31Z</time></trkpt><trkpt lat="46.065902359890394" lon="9.391013456353605"><ele>918.0</ele><time>2026-04-26T09:04:32Z</time></trkpt><trkpt lat="46.06591297399982" lon="9.390915225403061"><ele>918.0</ele><time>2026-04-26T09:04:33Z</time></trkpt><trkpt lat="46.065957024163" lon="9.390849984251119"><ele>918.0</ele><time>2026-04-26T09:04:34Z</time></trkpt><trkpt lat="46.06603300282401" lon="9.390851923595314"><ele>918.0</ele><time>2026-04-26T09:04:35Z</time></trkpt><trkpt lat="46.066155181395075" lon="9.390769611739865"><ele>918.0</ele><time>2026-04-26T09:04:36Z</time></trkpt><trkpt lat="46.06626122376831" lon="9.390683767635206"><ele>918.0</ele><time>2026-04-26T09:04:37Z</time></trkpt><trkpt lat="46.06637167667864" lon="9.390589030465222"><ele>918.0</ele><time>2026-04-26T09:04:38Z</time></trkpt><trkpt lat="46.0664544832616" lon="9.390509871801314"><ele>918.0</ele><time>2026-04-26T09:04:39Z</time></trkpt><trkpt lat="46.06652281452759" lon="9.390406260151337"><ele>918.0</ele><time>2026-04-26T09:04:40Z</time></trkpt><trkpt lat="46.06654672119655" lon="9.390261440249676"><ele>918.0</ele><time>2026-04-26T09:04:41Z</time></trkpt><trkpt lat="46.066498784536" lon="9.39010024021328"><ele>912.75</ele><time>2026-04-26T09:04:42Z</time></trkpt><trkpt lat="46.06648830834804" lon="9.389913325172417"><ele>907.5</ele><time>2026-04-26T09:04:43Z</time></trkpt><trkpt lat="46.06647957977739" lon="9.389725036717413"><ele>902.25</ele><time>2026-04-26T09:04:44Z</time></trkpt><trkpt lat="46.06647479940613" lon="9.38948282814878"><ele>897.0</ele><time>2026-04-26T09:04:45Z</time></trkpt><trkpt lat="46.06649923947631" lon="9.389284614001214"><ele>895.0</ele><time>2026-04-26T09:04:46Z</time></trkpt><trkpt lat="46.066499896137586" lon="9.38910564289804"><ele>893.0</ele><time>2026-04-26T09:04:47Z</time></trkpt><trkpt lat="46.066503318244514" lon="9.388970783611644"><ele>891.0</ele><time>2026-04-26T09:04:48Z</time></trkpt><trkpt lat="46.06651970606768" lon="9.388876903599852"><ele>889.0</ele><time>2026-04-26T09:04:49Z</time></trkpt><trkpt lat="46.06656636548016" lon="9.388741725670997"><ele>887.0</ele><time>2026-04-26T09:04:50Z</time></trkpt><trkpt lat="46.06663523281799" lon="9.388596571112974"><ele>899.75</ele><time>2026-04-26T09:04:51Z</time></trkpt><trkpt lat="46.06670970261691" lon="9.388498000768909"><ele>912.5</ele><time>2026-04-26T09:04:52Z</time></trkpt><trkpt lat="46.06680296" lon="9.388387591179447"><ele>925.25</ele><time>2026-04-26T09:04:53Z</time></trkpt><trkpt lat="46.066899179665185" lon="9.388282516424466"><ele>938.0</ele><time>2026-04-26T09:04:54Z</time></trkpt><trkpt lat="46.066992725367044" lon="9.388182910741245"><ele>938.0</ele><time>2026-04-26T09:04:55Z</time></trkpt><trkpt lat="46.067088603681995" lon="9.388111681148605"><ele>938.0</ele><time>2026-04-26T09:04:56Z</time></trkpt><trkpt lat="46.06719148815161" lon="9.388053974941544"><ele>938.0</ele><time>2026-04-26T09:04:57Z</time></trkpt><trkpt lat="46.067303175292885" lon="9.387993562417812"><ele>938.0</ele><time>2026-04-26T09:04:58Z</time></trkpt><trkpt lat="46.06741077232186" lon="9.38793663139355"><ele>937.5999999999999</ele><time>2026-04-26T09:04:59Z</time></trkpt><trkpt lat="46.06751244897153" lon="9.38788307876976"><ele>937.1999999999999</ele><time>2026-04-26T09:05:00Z</time></trkpt><trkpt lat="46.06762193807014" lon="9.387827085550015"><ele>936.8</ele><time>2026-04-26T09:05:01Z</time></trkpt><trkpt lat="46.06772611799328" lon="9.387773807400198"><ele>936.4</ele><time>2026-04-26T09:05:02Z</time></trkpt><trkpt lat="46.06781529836364" lon="9.387728200256111"><ele>936.0</ele><time>2026-04-26T09:05:03Z</time></trkpt><trkpt lat="46.067897652235" lon="9.387666777173765"><ele>936.0</ele><time>2026-04-26T09:05:04Z</time></trkpt><trkpt lat="46.0679860296726" lon="9.387622529692058"><ele>935.9999999999999</ele><time>2026-04-26T09:05:05.001Z</time></trkpt><trkpt lat="46.06807274658283" lon="9.387570907787364"><ele>935.9999999999999</ele><time>2026-04-26T09:05:06.001Z</time></trkpt><trkpt lat="46.06816602234473" lon="9.38753971560827"><ele>936.0</ele><time>2026-04-26T09:05:07.001Z</time></trkpt><trkpt lat="46.06824026691751" lon="9.387499124017292"><ele>936.0</ele><time>2026-04-26T09:05:08.001Z</time></trkpt><trkpt lat="46.06832871637234" lon="9.38743979755291"><ele>934.1999999999999</ele><time>2026-04-26T09:05:09.001Z</time></trkpt><trkpt lat="46.06840101806339" lon="9.387349517594833"><ele>932.3999999999999</ele><time>2026-04-26T09:05:10.001Z</time></trkpt><trkpt lat="46.068488713042726" lon="9.387269040636951"><ele>930.6</ele><time>2026-04-26T09:05:11.001Z</time></trkpt><trkpt lat="46.06856551501243" lon="9.38717315166703"><ele>928.8</ele><time>2026-04-26T09:05:12.001Z</time></trkpt><trkpt lat="46.068632395168" lon="9.387086187029979"><ele>927.0</ele><time>2026-04-26T09:05:13.001Z</time></trkpt><trkpt lat="46.0687176135446" lon="9.386962387516846"><ele>927.0</ele><time>2026-04-26T09:05:14.001Z</time></trkpt><trkpt lat="46.068758309810725" lon="9.386868017341822"><ele>927.0</ele><time>2026-04-26T09:05:15.001Z</time></trkpt><trkpt lat="46.06881450189518" lon="9.386760265114386"><ele>927.0</ele><time>2026-04-26T09:05:16.001Z</time></trkpt><trkpt lat="46.0688566369001" lon="9.386646770540723"><ele>927.0</ele><time>2026-04-26T09:05:17.001Z</time></trkpt><trkpt lat="46.06890691890562" lon="9.386574197341425"><ele>927.0</ele><time>2026-04-26T09:05:18.001Z</time></trkpt><trkpt lat="46.068939780870274" lon="9.386455734796682"><ele>927.0</ele><time>2026-04-26T09:05:19.001Z</time></trkpt><trkpt lat="46.068935738942436" lon="9.386348296849187"><ele>920.0</ele><time>2026-04-26T09:05:20.001Z</time></trkpt><trkpt lat="46.06897866414099" lon="9.38623462833725"><ele>913.0</ele><time>2026-04-26T09:05:22.001Z</time></trkpt><trkpt lat="46.06895386389377" lon="9.386145702203128"><ele>906.0</ele><time>2026-04-26T09:05:29.001Z</time></trkpt><trkpt lat="46.068944513072815" lon="9.38603561196754"><ele>899.0</ele><time>2026-04-26T09:05:40.001Z</time></trkpt><trkpt lat="46.068954181371026" lon="9.385874233941012"><ele>892.0</ele><time>2026-04-26T09:05:42.001Z</time></trkpt><trkpt lat="46.06904368645217" lon="9.385728003338142"><ele>892.0</ele><time>2026-04-26T09:05:44.001Z</time></trkpt><trkpt lat="46.069085119097664" lon="9.385659112968833"><ele>892.0</ele><time>2026-04-26T09:05:45.001Z</time></trkpt><trkpt lat="46.06913487594483" lon="9.385590639532266"><ele>892.0</ele><time>2026-04-26T09:05:46.001Z</time></trkpt><trkpt lat="46.069197603921765" lon="9.385547861691748"><ele>892.0</ele><time>2026-04-26T09:05:47.001Z</time></trkpt><trkpt lat="46.06925442555197" lon="9.38549497598699"><ele>892.0</ele><time>2026-04-26T09:05:48.001Z</time></trkpt><trkpt lat="46.069308205336036" lon="9.385445866075235"><ele>892.0</ele><time>2026-04-26T09:05:49.001Z</time></trkpt><trkpt lat="46.06940286791211" lon="9.38543620841923"><ele>892.0</ele><time>2026-04-26T09:05:50.001Z</time></trkpt><trkpt lat="46.069463696586936" lon="9.385391984929772"><ele>894.9999999999999</ele><time>2026-04-26T09:05:51.001Z</time></trkpt><trkpt lat="46.06953881304312" lon="9.385396032744712"><ele>898.0</ele><time>2026-04-26T09:05:52.001Z</time></trkpt><trkpt lat="46.06961777432168" lon="9.385395077080563"><ele>901.0</ele><time>2026-04-26T09:05:53.001Z</time></trkpt><trkpt lat="46.06970084389694" lon="9.385394062924208"><ele>904.0</ele><time>2026-04-26T09:05:54.001Z</time></trkpt><trkpt lat="46.06977557197019" lon="9.385401047600116"><ele>906.9999999999999</ele><time>2026-04-26T09:05:55.001Z</time></trkpt><trkpt lat="46.06986461293907" lon="9.38537877638752"><ele>910.0</ele><time>2026-04-26T09:05:56.001Z</time></trkpt><trkpt lat="46.069936390997704" lon="9.385352677877725"><ele>914.4999999999999</ele><time>2026-04-26T09:05:57.001Z</time></trkpt><trkpt lat="46.07000228106773" lon="9.385303893573736"><ele>919.0</ele><time>2026-04-26T09:05:58.001Z</time></trkpt><trkpt lat="46.07006016954675" lon="9.385242589842099"><ele>923.5</ele><time>2026-04-26T09:05:59.001Z</time></trkpt><trkpt lat="46.07011718442091" lon="9.38514179240602"><ele>928.0</ele><time>2026-04-26T09:06:00.001Z</time></trkpt><trkpt lat="46.07018417261361" lon="9.385033338341241"><ele>932.4999999999999</ele><time>2026-04-26T09:06:01.001Z</time></trkpt><trkpt lat="46.07025374084471" lon="9.384913022886408"><ele>937.0</ele><time>2026-04-26T09:06:02.001Z</time></trkpt><trkpt lat="46.07031997629882" lon="9.384812601821311"><ele>937.0</ele><time>2026-04-26T09:06:03.001Z</time></trkpt><trkpt lat="46.070397906955584" lon="9.384714501480182"><ele>937.0</ele><time>2026-04-26T09:06:04.001Z</time></trkpt><trkpt lat="46.07047842666306" lon="9.384665728436106"><ele>937.0</ele><time>2026-04-26T09:06:05.001Z</time></trkpt><trkpt lat="46.07055381488199" lon="9.384628644905415"><ele>937.0</ele><time>2026-04-26T09:06:06Z</time></trkpt><trkpt lat="46.07064827439527" lon="9.38458078671828"><ele>937.0</ele><time>2026-04-26T09:06:07Z</time></trkpt><trkpt lat="46.07072647370243" lon="9.384530309934416"><ele>933.4999999999999</ele><time>2026-04-26T09:06:08Z</time></trkpt><trkpt lat="46.07081092176135" lon="9.384458800384662"><ele>930.0</ele><time>2026-04-26T09:06:09Z</time></trkpt><trkpt lat="46.070877169685744" lon="9.384396202128215"><ele>926.5</ele><time>2026-04-26T09:06:10Z</time></trkpt><trkpt lat="46.07094688762091" lon="9.384326854715646"><ele>923.0</ele><time>2026-04-26T09:06:11Z</time></trkpt><trkpt lat="46.07101295245199" lon="9.384260176647434"><ele>919.4999999999999</ele><time>2026-04-26T09:06:12Z</time></trkpt><trkpt lat="46.07109581919496" lon="9.384176540796794"><ele>916.0</ele><time>2026-04-26T09:06:13Z</time></trkpt><trkpt lat="46.07117036840991" lon="9.384103816486522"><ele>916.0</ele><time>2026-04-26T09:06:14Z</time></trkpt><trkpt lat="46.071256941277284" lon="9.384019491127152"><ele>915.9999999999999</ele><time>2026-04-26T09:06:15Z</time></trkpt><trkpt lat="46.0713434283073" lon="9.383935249490401"><ele>915.9999999999999</ele><time>2026-04-26T09:06:16Z</time></trkpt><trkpt lat="46.07142699538502" lon="9.38385168395802"><ele>916.0</ele><time>2026-04-26T09:06:17Z</time></trkpt><trkpt lat="46.071517257400245" lon="9.383792556485837"><ele>916.0</ele><time>2026-04-26T09:06:18Z</time></trkpt><trkpt lat="46.07158282041173" lon="9.38367940428195"><ele>912.5999999999999</ele><time>2026-04-26T09:06:19Z</time></trkpt><trkpt lat="46.07167566660803" lon="9.383599295795255"><ele>909.1999999999999</ele><time>2026-04-26T09:06:20Z</time></trkpt><trkpt lat="46.071770472292876" lon="9.383514440102077"><ele>905.8000000000001</ele><time>2026-04-26T09:06:21Z</time></trkpt><trkpt lat="46.07186461976832" lon="9.383429553970904"><ele>902.4000000000001</ele><time>2026-04-26T09:06:22Z</time></trkpt><trkpt lat="46.071919714121435" lon="9.383320703106207"><ele>899.0</ele><time>2026-04-26T09:06:23Z</time></trkpt><trkpt lat="46.07198447621672" lon="9.38328900048103"><ele>899.0</ele><time>2026-04-26T09:06:24Z</time></trkpt><trkpt lat="46.07208669051086" lon="9.383235445885894"><ele>899.0000000000001</ele><time>2026-04-26T09:06:26Z</time></trkpt><trkpt lat="46.07216256604251" lon="9.383210043252909"><ele>899.0000000000001</ele><time>2026-04-26T09:06:27Z</time></trkpt><trkpt lat="46.07224921200584" lon="9.383178453983444"><ele>899.0</ele><time>2026-04-26T09:06:28Z</time></trkpt><trkpt lat="46.07236095977018" lon="9.383141627925369"><ele>899.0</ele><time>2026-04-26T09:06:29Z</time></trkpt><trkpt lat="46.07248399708431" lon="9.383072822868726"><ele>896.0</ele><time>2026-04-26T09:06:30Z</time></trkpt><trkpt lat="46.072585341921744" lon="9.382990840421227"><ele>893.0000000000001</ele><time>2026-04-26T09:06:31Z</time></trkpt><trkpt lat="46.072666388028466" lon="9.382918237058497"><ele>890.0000000000001</ele><time>2026-04-26T09:06:32Z</time></trkpt><trkpt lat="46.07274080967863" lon="9.38282577705127"><ele>887.0</ele><time>2026-04-26T09:06:33Z</time></trkpt><trkpt lat="46.07281250059856" lon="9.38276129096764"><ele>884.0</ele><time>2026-04-26T09:06:34Z</time></trkpt><trkpt lat="46.07289439263585" lon="9.382701970527025"><ele>884.0</ele><time>2026-04-26T09:06:35Z</time></trkpt><trkpt lat="46.07296786907236" lon="9.382603371377428"><ele>884.0000000000001</ele><time>2026-04-26T09:06:36Z</time></trkpt><trkpt lat="46.073074552050585" lon="9.38256604372983"><ele>884.0000000000001</ele><time>2026-04-26T09:06:37Z</time></trkpt><trkpt lat="46.07320133374374" lon="9.382527359804849"><ele>884.0</ele><time>2026-04-26T09:06:38Z</time></trkpt><trkpt lat="46.07329423517489" lon="9.382461747842699"><ele>884.0</ele><time>2026-04-26T09:06:39Z</time></trkpt><trkpt lat="46.07338507339967" lon="9.382394689282721"><ele>881.0</ele><time>2026-04-26T09:06:40Z</time></trkpt><trkpt lat="46.07347892876553" lon="9.382295364454256"><ele>878.0000000000001</ele><time>2026-04-26T09:06:41Z</time></trkpt><trkpt lat="46.073583422449836" lon="9.382213943169557"><ele>875.0000000000001</ele><time>2026-04-26T09:06:42Z</time></trkpt><trkpt lat="46.07368391356988" lon="9.382141066193778"><ele>872.0</ele><time>2026-04-26T09:06:43Z</time></trkpt><trkpt lat="46.07377422630917" lon="9.382102884191708"><ele>869.0</ele><time>2026-04-26T09:06:44Z</time></trkpt><trkpt lat="46.07387393098967" lon="9.382043731355786"><ele>869.0000000000001</ele><time>2026-04-26T09:06:45Z</time></trkpt><trkpt lat="46.0739674510821" lon="9.382019032932034"><ele>869.0</ele><time>2026-04-26T09:06:46Z</time></trkpt><trkpt lat="46.07403796941734" lon="9.382003194517676"><ele>869.0</ele><time>2026-04-26T09:06:47Z</time></trkpt><trkpt lat="46.074120055016536" lon="9.38198605099761"><ele>869.0</ele><time>2026-04-26T09:06:49Z</time></trkpt><trkpt lat="46.07419779002588" lon="9.381999814672678"><ele>869.0000000000001</ele><time>2026-04-26T09:06:52Z</time></trkpt><trkpt lat="46.07421881531881" lon="9.382099678978406"><ele>869.0</ele><time>2026-04-26T09:06:53Z</time></trkpt><trkpt lat="46.07423736253407" lon="9.382243653072724"><ele>873.8333333333334</ele><time>2026-04-26T09:06:54Z</time></trkpt><trkpt lat="46.07424221331048" lon="9.382369563689396"><ele>878.6666666666667</ele><time>2026-04-26T09:06:55Z</time></trkpt><trkpt lat="46.074264206319" lon="9.38246139345639"><ele>883.5</ele><time>2026-04-26T09:06:59Z</time></trkpt><trkpt lat="46.07432935590716" lon="9.382560345229104"><ele>888.3333333333333</ele><time>2026-04-26T09:09:13Z</time></trkpt><trkpt lat="46.07429947965772" lon="9.382419725458588"><ele>893.1666666666666</ele><time>2026-04-26T09:11:33Z</time></trkpt><trkpt lat="46.07427711477007" lon="9.382300469475915"><ele>898.0</ele><time>2026-04-26T09:11:35Z</time></trkpt><trkpt lat="46.07427731412374" lon="9.382199114678803"><ele>898.0</ele><time>2026-04-26T09:11:37Z</time></trkpt><trkpt lat="46.074365806616164" lon="9.382178889948573"><ele>898.0</ele><time>2026-04-26T09:12:07Z</time></trkpt><trkpt lat="46.074195801716755" lon="9.382247374774453"><ele>898.0</ele><time>2026-04-26T09:12:11.001Z</time></trkpt><trkpt lat="46.07429302034587" lon="9.382188444711655"><ele>898.0</ele><time>2026-04-26T09:12:21.001Z</time></trkpt><trkpt lat="46.0743277823393" lon="9.382032749471529"><ele>894.3333333333333</ele><time>2026-04-26T09:12:23.997Z</time></trkpt><trkpt lat="46.07429920188334" lon="9.381906079892941"><ele>890.6666666666666</ele><time>2026-04-26T09:12:25.997Z</time></trkpt><trkpt lat="46.0742579548585" lon="9.381821165204235"><ele>887.0</ele><time>2026-04-26T09:12:27.997Z</time></trkpt><trkpt lat="46.07420044067761" lon="9.381763964637877"><ele>883.3333333333333</ele><time>2026-04-26T09:12:28.997Z</time></trkpt><trkpt lat="46.074134827596964" lon="9.381637942350526"><ele>879.6666666666666</ele><time>2026-04-26T09:12:30.997Z</time></trkpt><trkpt lat="46.07403889747066" lon="9.38158913941088"><ele>876.0</ele><time>2026-04-26T09:12:32.997Z</time></trkpt><trkpt lat="46.073890971791386" lon="9.381640113136559"><ele>874.5999999999999</ele><time>2026-04-26T09:12:34.997Z</time></trkpt><trkpt lat="46.073813256664934" lon="9.38168796466561"><ele>873.1999999999999</ele><time>2026-04-26T09:12:35.997Z</time></trkpt><trkpt lat="46.07373894395239" lon="9.381696089919998"><ele>871.8000000000001</ele><time>2026-04-26T09:12:36.998Z</time></trkpt><trkpt lat="46.07365958931729" lon="9.381716043154134"><ele>870.4000000000001</ele><time>2026-04-26T09:12:37.998Z</time></trkpt><trkpt lat="46.07356271784187" lon="9.381742834785147"><ele>869.0</ele><time>2026-04-26T09:12:38.998Z</time></trkpt><trkpt lat="46.07344231886128" lon="9.381754184387395"><ele>869.0000000000001</ele><time>2026-04-26T09:12:39.998Z</time></trkpt><trkpt lat="46.073375349074965" lon="9.38174507156227"><ele>869.0</ele><time>2026-04-26T09:12:40.998Z</time></trkpt><trkpt lat="46.073289145483564" lon="9.381760530003643"><ele>869.0</ele><time>2026-04-26T09:12:41.998Z</time></trkpt><trkpt lat="46.07320817108409" lon="9.38176119229996"><ele>869.0</ele><time>2026-04-26T09:12:42.998Z</time></trkpt><trkpt lat="46.07312431311358" lon="9.381780590619046"><ele>869.0000000000001</ele><time>2026-04-26T09:12:43.998Z</time></trkpt><trkpt lat="46.07304172135501" lon="9.38178511048041"><ele>869.0</ele><time>2026-04-26T09:12:44.998Z</time></trkpt><trkpt lat="46.07295934853421" lon="9.381780803857707"><ele>865.6666666666667</ele><time>2026-04-26T09:12:45.998Z</time></trkpt><trkpt lat="46.0728773995266" lon="9.381745540947048"><ele>862.3333333333334</ele><time>2026-04-26T09:12:46.998Z</time></trkpt><trkpt lat="46.07277768769904" lon="9.38173994584834"><ele>859.0</ele><time>2026-04-26T09:12:47.998Z</time></trkpt><trkpt lat="46.07269133505783" lon="9.38171745266154"><ele>855.6666666666667</ele><time>2026-04-26T09:12:48.999Z</time></trkpt><trkpt lat="46.07261949716968" lon="9.38170693738196"><ele>852.3333333333334</ele><time>2026-04-26T09:12:49.999Z</time></trkpt><trkpt lat="46.07253863398254" lon="9.381737787256224"><ele>849.0</ele><time>2026-04-26T09:12:50.999Z</time></trkpt><trkpt lat="46.07247628774244" lon="9.381862097411458"><ele>849.0</ele><time>2026-04-26T09:12:51.999Z</time></trkpt><trkpt lat="46.07245198858586" lon="9.38198902636761"><ele>849.0</ele><time>2026-04-26T09:12:53.999Z</time></trkpt><trkpt lat="46.07244157716064" lon="9.381872471599799"><ele>849.0</ele><time>2026-04-26T09:12:55.999Z</time></trkpt><trkpt lat="46.07251438088607" lon="9.381741828186069"><ele>849.0</ele><time>2026-04-26T09:12:58.999Z</time></trkpt><trkpt lat="46.072593944343005" lon="9.381646295580055"><ele>849.0</ele><time>2026-04-26T09:13:00.999Z</time></trkpt><trkpt lat="46.072735183827604" lon="9.381579958146219"><ele>849.0</ele><time>2026-04-26T09:13:02.999Z</time></trkpt><trkpt lat="46.07283900848297" lon="9.381576500479897"><ele>849.0</ele><time>2026-04-26T09:13:03.999Z</time></trkpt><trkpt lat="46.07292392802454" lon="9.381577996813252"><ele>849.0</ele><time>2026-04-26T09:13:04.999Z</time></trkpt><trkpt lat="46.07300995333513" lon="9.381569117369718"><ele>849.0</ele><time>2026-04-26T09:13:05.999Z</time></trkpt><trkpt lat="46.07315510170197" lon="9.38152292776112"><ele>849.0</ele><time>2026-04-26T09:13:06.999Z</time></trkpt><trkpt lat="46.073243836468336" lon="9.38148293418093"><ele>846.2</ele><time>2026-04-26T09:13:07.999Z</time></trkpt><trkpt lat="46.07332724753797" lon="9.381438304704782"><ele>843.4000000000001</ele><time>2026-04-26T09:13:08.999Z</time></trkpt><trkpt lat="46.07339932700124" lon="9.381394353795917"><ele>840.6</ele><time>2026-04-26T09:13:09.999Z</time></trkpt><trkpt lat="46.07349815039265" lon="9.381324406750805"><ele>837.8</ele><time>2026-04-26T09:13:11Z</time></trkpt><trkpt lat="46.0735795411603" lon="9.38125630785561"><ele>835.0</ele><time>2026-04-26T09:13:12Z</time></trkpt><trkpt lat="46.07365307564463" lon="9.381162643654264"><ele>835.0</ele><time>2026-04-26T09:13:13Z</time></trkpt><trkpt lat="46.07374200742133" lon="9.381109379489274"><ele>835.0</ele><time>2026-04-26T09:13:14Z</time></trkpt><trkpt lat="46.073815562445205" lon="9.381016925128216"><ele>835.0</ele><time>2026-04-26T09:13:15Z</time></trkpt><trkpt lat="46.073911318362406" lon="9.380951701588685"><ele>835.0</ele><time>2026-04-26T09:13:16Z</time></trkpt><trkpt lat="46.07400555035841" lon="9.380862573440421"><ele>835.0</ele><time>2026-04-26T09:13:17Z</time></trkpt><trkpt lat="46.074092525616415" lon="9.380772049039441"><ele>835.9999999999999</ele><time>2026-04-26T09:13:18Z</time></trkpt><trkpt lat="46.07416322819731" lon="9.380708332664558"><ele>837.0</ele><time>2026-04-26T09:13:19Z</time></trkpt><trkpt lat="46.07427124772857" lon="9.38068431466798"><ele>838.0</ele><time>2026-04-26T09:13:21Z</time></trkpt><trkpt lat="46.07433850011294" lon="9.380783697319323"><ele>839.0</ele><time>2026-04-26T09:13:23Z</time></trkpt><trkpt lat="46.074356149920696" lon="9.380878769079912"><ele>839.9999999999999</ele><time>2026-04-26T09:13:25Z</time></trkpt><trkpt lat="46.07435625207246" lon="9.381002137931704"><ele>841.0</ele><time>2026-04-26T09:13:27Z</time></trkpt><trkpt lat="46.074376250176634" lon="9.38110271318453"><ele>840.9999999999999</ele><time>2026-04-26T09:13:29Z</time></trkpt><trkpt lat="46.07443830587397" lon="9.381118947171856"><ele>841.0</ele><time>2026-04-26T09:13:31Z</time></trkpt><trkpt lat="46.074468323229716" lon="9.38095412482955"><ele>841.0</ele><time>2026-04-26T09:13:32Z</time></trkpt><trkpt lat="46.07445222673181" lon="9.380809888526334"><ele>841.0</ele><time>2026-04-26T09:13:33Z</time></trkpt><trkpt lat="46.07441984470591" lon="9.380697472151748"><ele>840.9999999999999</ele><time>2026-04-26T09:13:34Z</time></trkpt><trkpt lat="46.07440288121457" lon="9.38059353758433"><ele>841.0</ele><time>2026-04-26T09:13:35Z</time></trkpt><trkpt lat="46.074353726689544" lon="9.380501867728086"><ele>834.8</ele><time>2026-04-26T09:13:36Z</time></trkpt><trkpt lat="46.07429432657752" lon="9.380423616678303"><ele>828.5999999999999</ele><time>2026-04-26T09:13:37Z</time></trkpt><trkpt lat="46.07416199428621" lon="9.380358952539993"><ele>822.4</ele><time>2026-04-26T09:13:39Z</time></trkpt><trkpt lat="46.074062401632794" lon="9.380364273604455"><ele>816.2</ele><time>2026-04-26T09:13:40Z</time></trkpt><trkpt lat="46.07395176581263" lon="9.380367051463123"><ele>810.0</ele><time>2026-04-26T09:13:41Z</time></trkpt><trkpt lat="46.073834282613" lon="9.380392915695989"><ele>806.8</ele><time>2026-04-26T09:13:42Z</time></trkpt><trkpt lat="46.07372483654141" lon="9.380419129962732"><ele>803.6</ele><time>2026-04-26T09:13:43Z</time></trkpt><trkpt lat="46.073604717735854" lon="9.380427842122282"><ele>800.4000000000001</ele><time>2026-04-26T09:13:44Z</time></trkpt><trkpt lat="46.073492407315555" lon="9.380471535087787"><ele>797.2</ele><time>2026-04-26T09:13:45Z</time></trkpt><trkpt lat="46.07339399144716" lon="9.380495453920886"><ele>794.0</ele><time>2026-04-26T09:13:46Z</time></trkpt><trkpt lat="46.073312575580914" lon="9.380548292928863"><ele>795.8000000000001</ele><time>2026-04-26T09:13:47.001Z</time></trkpt><trkpt lat="46.07323834958333" lon="9.380624058383392"><ele>797.6</ele><time>2026-04-26T09:13:48.001Z</time></trkpt><trkpt lat="46.0731649041798" lon="9.380631715436964"><ele>799.4</ele><time>2026-04-26T09:13:49.001Z</time></trkpt><trkpt lat="46.073075679357345" lon="9.38065097929788"><ele>801.2</ele><time>2026-04-26T09:13:51.001Z</time></trkpt><trkpt lat="46.07318022788029" lon="9.380679882567625"><ele>803.0</ele><time>2026-04-26T09:13:55.001Z</time></trkpt><trkpt lat="46.073295898083664" lon="9.38089038406481"><ele>809.4</ele><time>2026-04-26T09:13:56.001Z</time></trkpt><trkpt lat="46.07338382143965" lon="9.380920848368431"><ele>815.8</ele><time>2026-04-26T09:13:57.001Z</time></trkpt><trkpt lat="46.07347397812339" lon="9.380885558510082"><ele>822.2</ele><time>2026-04-26T09:13:58.001Z</time></trkpt><trkpt lat="46.07356401720807" lon="9.380840705530408"><ele>828.6</ele><time>2026-04-26T09:13:59.001Z</time></trkpt><trkpt lat="46.07367766974141" lon="9.380762401341995"><ele>835.0</ele><time>2026-04-26T09:14:00.001Z</time></trkpt><trkpt lat="46.073760717524124" lon="9.380654743243317"><ele>835.0</ele><time>2026-04-26T09:14:01.001Z</time></trkpt><trkpt lat="46.07378608461858" lon="9.380540092781816"><ele>835.0</ele><time>2026-04-26T09:14:02.001Z</time></trkpt><trkpt lat="46.07384585562296" lon="9.380447335750045"><ele>835.0</ele><time>2026-04-26T09:14:03.001Z</time></trkpt><trkpt lat="46.07395076401066" lon="9.38027183645057"><ele>835.0</ele><time>2026-04-26T09:14:04.001Z</time></trkpt><trkpt lat="46.074040612793596" lon="9.380262764527492"><ele>835.0</ele><time>2026-04-26T09:14:05.001Z</time></trkpt><trkpt lat="46.07402296578295" lon="9.379973826298402"><ele>830.0</ele><time>2026-04-26T09:14:06.001Z</time></trkpt><trkpt lat="46.07410026593983" lon="9.379972091998342"><ele>825.0</ele><time>2026-04-26T09:14:08.001Z</time></trkpt><trkpt lat="46.074200152089354" lon="9.3800133219756"><ele>820.0</ele><time>2026-04-26T09:14:09.001Z</time></trkpt><trkpt lat="46.07434060049819" lon="9.380017181054106"><ele>815.0</ele><time>2026-04-26T09:14:10.001Z</time></trkpt><trkpt lat="46.07443714373602" lon="9.379992784324509"><ele>810.0</ele><time>2026-04-26T09:14:11.001Z</time></trkpt><trkpt lat="46.07452565156094" lon="9.38002458595122"><ele>810.0</ele><time>2026-04-26T09:14:12.001Z</time></trkpt><trkpt lat="46.074621141591095" lon="9.38011814211951"><ele>810.0</ele><time>2026-04-26T09:14:14.001Z</time></trkpt><trkpt lat="46.07467066584067" lon="9.380196866308617"><ele>810.0</ele><time>2026-04-26T09:14:15.001Z</time></trkpt><trkpt lat="46.07471147058482" lon="9.380266784025528"><ele>810.0</ele><time>2026-04-26T09:14:16.001Z</time></trkpt><trkpt lat="46.07472544568647" lon="9.380385071027096"><ele>810.0</ele><time>2026-04-26T09:14:17.001Z</time></trkpt><trkpt lat="46.07472285933553" lon="9.380521301688725"><ele>810.0</ele><time>2026-04-26T09:14:18.001Z</time></trkpt><trkpt lat="46.07474095090648" lon="9.3806639265446"><ele>816.2</ele><time>2026-04-26T09:14:19.001Z</time></trkpt><trkpt lat="46.07475505048655" lon="9.380817688859466"><ele>822.4</ele><time>2026-04-26T09:14:20.001Z</time></trkpt><trkpt lat="46.074748450518385" lon="9.380967881194778"><ele>828.5999999999999</ele><time>2026-04-26T09:14:21.001Z</time></trkpt><trkpt lat="46.07478624611374" lon="9.38111834013096"><ele>834.8</ele><time>2026-04-26T09:14:22.001Z</time></trkpt><trkpt lat="46.074810398181334" lon="9.381264368030982"><ele>841.0</ele><time>2026-04-26T09:14:23.001Z</time></trkpt><trkpt lat="46.07482650806805" lon="9.381398891168043"><ele>842.0</ele><time>2026-04-26T09:14:24.001Z</time></trkpt><trkpt lat="46.07485687810479" lon="9.381537160204529"><ele>843.0</ele><time>2026-04-26T09:14:25.001Z</time></trkpt><trkpt lat="46.07490372289823" lon="9.381652895386404"><ele>844.0</ele><time>2026-04-26T09:14:26.001Z</time></trkpt><trkpt lat="46.07498489444618" lon="9.381752973005456"><ele>845.0</ele><time>2026-04-26T09:14:27.002Z</time></trkpt><trkpt lat="46.075118216214356" lon="9.381896113183892"><ele>845.0</ele><time>2026-04-26T09:14:29.002Z</time></trkpt><trkpt lat="46.07519694056713" lon="9.381976985401622"><ele>845.0</ele><time>2026-04-26T09:14:29.998Z</time></trkpt><trkpt lat="46.075288389370826" lon="9.382152698482928"><ele>845.0</ele><time>2026-04-26T09:14:31.998Z</time></trkpt><trkpt lat="46.075294710164734" lon="9.382299922817214"><ele>845.0</ele><time>2026-04-26T09:14:32.998Z</time></trkpt><trkpt lat="46.07526400606593" lon="9.382447970337656"><ele>840.0</ele><time>2026-04-26T09:14:33.998Z</time></trkpt><trkpt lat="46.07520647446621" lon="9.382605120507026"><ele>835.0</ele><time>2026-04-26T09:14:34.998Z</time></trkpt><trkpt lat="46.0751315350593" lon="9.38274374288815"><ele>830.0</ele><time>2026-04-26T09:14:35.998Z</time></trkpt><trkpt lat="46.07522235091963" lon="9.382604439525458"><ele>825.0</ele><time>2026-04-26T09:14:36.998Z</time></trkpt><trkpt lat="46.075162468752694" lon="9.382724258574049"><ele>825.0</ele><time>2026-04-26T09:14:37.998Z</time></trkpt><trkpt lat="46.07506984322627" lon="9.382838119399022"><ele>825.0</ele><time>2026-04-26T09:14:38.998Z</time></trkpt><trkpt lat="46.07500088586055" lon="9.383010578097766"><ele>825.0</ele><time>2026-04-26T09:14:40.998Z</time></trkpt><trkpt lat="46.07500390274893" lon="9.383116864438929"><ele>825.0</ele><time>2026-04-26T09:14:41.999Z</time></trkpt><trkpt lat="46.07503760543597" lon="9.383197578162784"><ele>825.0</ele><time>2026-04-26T09:14:42.999Z</time></trkpt><trkpt lat="46.07510135773909" lon="9.383219349420328"><ele>829.25</ele><time>2026-04-26T09:15:15Z</time></trkpt><trkpt lat="46.075194138932474" lon="9.383288683131912"><ele>833.5</ele><time>2026-04-26T09:16:07.002Z</time></trkpt><trkpt lat="46.07536276896695" lon="9.383327091844325"><ele>837.75</ele><time>2026-04-26T09:16:09.002Z</time></trkpt><trkpt lat="46.075443087390155" lon="9.383312214880819"><ele>842.0</ele><time>2026-04-26T09:16:10.002Z</time></trkpt><trkpt lat="46.07552750205487" lon="9.38324834662622"><ele>842.0</ele><time>2026-04-26T09:16:11.002Z</time></trkpt><trkpt lat="46.075511490382084" lon="9.383087895692917"><ele>842.0</ele><time>2026-04-26T09:16:12.002Z</time></trkpt><trkpt lat="46.07549546590338" lon="9.382950584302515"><ele>842.0</ele><time>2026-04-26T09:16:13.002Z</time></trkpt><trkpt lat="46.07549608631637" lon="9.382851576771644"><ele>842.0</ele><time>2026-04-26T09:16:14.002Z</time></trkpt><trkpt lat="46.07554890468818" lon="9.382798316109305"><ele>842.0</ele><time>2026-04-26T09:16:15.002Z</time></trkpt><trkpt lat="46.075632349852384" lon="9.382907551325957"><ele>836.8</ele><time>2026-04-26T09:16:16.002Z</time></trkpt><trkpt lat="46.075797000466345" lon="9.382871154750491"><ele>831.6</ele><time>2026-04-26T09:16:18.002Z</time></trkpt><trkpt lat="46.0758916908459" lon="9.382840756086393"><ele>826.4</ele><time>2026-04-26T09:16:19.002Z</time></trkpt><trkpt lat="46.075963336217264" lon="9.38280304337565"><ele>821.1999999999999</ele><time>2026-04-26T09:16:20.002Z</time></trkpt><trkpt lat="46.076053930114746" lon="9.38275774558356"><ele>816.0</ele><time>2026-04-26T09:16:21.002Z</time></trkpt><trkpt lat="46.07610381617008" lon="9.382676246789858"><ele>816.0</ele><time>2026-04-26T09:16:22.002Z</time></trkpt><trkpt lat="46.07632257759559" lon="9.382994910781774"><ele>816.0</ele><time>2026-04-26T09:16:23.009Z</time></trkpt><trkpt lat="46.07643175199463" lon="9.383019428895997"><ele>816.0</ele><time>2026-04-26T09:16:24.016Z</time></trkpt><trkpt lat="46.07653545499775" lon="9.383050113679081"><ele>888.0</ele><time>2026-04-26T09:16:25.013Z</time></trkpt><trkpt lat="46.07664692728899" lon="9.383079209996948"><ele>960.0</ele><time>2026-04-26T09:16:26.019Z</time></trkpt><trkpt lat="46.07604157183885" lon="9.381717536607182"><ele>960.0</ele><time>2026-04-26T09:16:33.003Z</time></trkpt><trkpt lat="46.07614635613796" lon="9.38150477324988"><ele>960.0</ele><time>2026-04-26T09:16:35.003Z</time></trkpt><trkpt lat="46.07608432027494" lon="9.381311750720375"><ele>960.0</ele><time>2026-04-26T09:16:36.003Z</time></trkpt><trkpt lat="46.07603827708203" lon="9.381163953349024"><ele>960.0</ele><time>2026-04-26T09:16:38.003Z</time></trkpt><trkpt lat="46.0760182053627" lon="9.380924438410565"><ele>960.0</ele><time>2026-04-26T09:16:39.997Z</time></trkpt><trkpt lat="46.07597691353221" lon="9.380816079042486"><ele>960.0</ele><time>2026-04-26T09:16:40.997Z</time></trkpt><trkpt lat="46.07595654550629" lon="9.380695771391318"><ele>960.0</ele><time>2026-04-26T09:16:43.997Z</time></trkpt><trkpt lat="46.075906988172086" lon="9.380605092351294"><ele>960.0</ele><time>2026-04-26T09:16:44.997Z</time></trkpt><trkpt lat="46.07588256885838" lon="9.380517832378578"><ele>960.0</ele><time>2026-04-26T09:16:47.997Z</time></trkpt><trkpt lat="46.075952792050664" lon="9.38047678465598"><ele>960.0</ele><time>2026-04-26T09:16:51.998Z</time></trkpt><trkpt lat="46.07602983168381" lon="9.380353316354395"><ele>960.0</ele><time>2026-04-26T09:16:53.998Z</time></trkpt><trkpt lat="46.07606950347513" lon="9.380161125922093"><ele>960.0</ele><time>2026-04-26T09:16:55.998Z</time></trkpt><trkpt lat="46.076036013685815" lon="9.380037887045326"><ele>960.0</ele><time>2026-04-26T09:16:56.998Z</time></trkpt><trkpt lat="46.07603505101742" lon="9.379896974285053"><ele>960.0</ele><time>2026-04-26T09:16:57.998Z</time></trkpt><trkpt lat="46.07605729694666" lon="9.379765963608584"><ele>960.0</ele><time>2026-04-26T09:16:58.998Z</time></trkpt><trkpt lat="46.07601920851385" lon="9.37966951671683"><ele>960.0</ele><time>2026-04-26T09:16:59.998Z</time></trkpt><trkpt lat="46.07616362467295" lon="9.379698831113313"><ele>960.0</ele><time>2026-04-26T09:17:01.999Z</time></trkpt><trkpt lat="46.07620682866639" lon="9.379619860860085"><ele>960.0</ele><time>2026-04-26T09:17:03.999Z</time></trkpt><trkpt lat="46.07625940817103" lon="9.37952557858005"><ele>960.0</ele><time>2026-04-26T09:17:04.999Z</time></trkpt><trkpt lat="46.07625094420145" lon="9.379335019418031"><ele>960.0</ele><time>2026-04-26T09:17:06.999Z</time></trkpt><trkpt lat="46.07594868159604" lon="9.378928073989819"><ele>960.0</ele><time>2026-04-26T09:17:08.999Z</time></trkpt><trkpt lat="46.0758583660556" lon="9.37886325103766"><ele>960.0</ele><time>2026-04-26T09:17:09.999Z</time></trkpt><trkpt lat="46.07577234905543" lon="9.378791850076182"><ele>960.0</ele><time>2026-04-26T09:17:10.999Z</time></trkpt><trkpt lat="46.07571375231428" lon="9.378725353765004"><ele>960.0</ele><time>2026-04-26T09:17:11.999Z</time></trkpt><trkpt lat="46.07570847280321" lon="9.378590730541283"><ele>960.0</ele><time>2026-04-26T09:17:13.999Z</time></trkpt><trkpt lat="46.07570567215437" lon="9.378489108426342"><ele>960.0</ele><time>2026-04-26T09:17:14.999Z</time></trkpt><trkpt lat="46.075710431917024" lon="9.378388353566853"><ele>960.0</ele><time>2026-04-26T09:17:15.999Z</time></trkpt><trkpt lat="46.07578660655602" lon="9.378279369283677"><ele>960.0</ele><time>2026-04-26T09:17:18Z</time></trkpt><trkpt lat="46.07583435431742" lon="9.378185920607494"><ele>960.0</ele><time>2026-04-26T09:17:19Z</time></trkpt><trkpt lat="46.07589100768462" lon="9.37806530931102"><ele>960.0</ele><time>2026-04-26T09:17:20Z</time></trkpt><trkpt lat="46.07593726964593" lon="9.377950812001183"><ele>960.0</ele><time>2026-04-26T09:17:21Z</time></trkpt><trkpt lat="46.07597109954664" lon="9.377857037017145"><ele>960.0</ele><time>2026-04-26T09:17:22Z</time></trkpt><trkpt lat="46.07600191037754" lon="9.377750158266059"><ele>960.0</ele><time>2026-04-26T09:17:23Z</time></trkpt><trkpt lat="46.07601359588512" lon="9.377627732910936"><ele>960.0</ele><time>2026-04-26T09:17:24Z</time></trkpt><trkpt lat="46.07597021807559" lon="9.377490309923934"><ele>960.0</ele><time>2026-04-26T09:17:25Z</time></trkpt><trkpt lat="46.075966418719695" lon="9.37734688096057"><ele>960.0</ele><time>2026-04-26T09:17:26Z</time></trkpt><trkpt lat="46.07596372158378" lon="9.37722917034034"><ele>960.0</ele><time>2026-04-26T09:17:27Z</time></trkpt><trkpt lat="46.07596645602159" lon="9.37712898319482"><ele>960.0</ele><time>2026-04-26T09:17:28Z</time></trkpt><trkpt lat="46.07599082930106" lon="9.37702971504132"><ele>960.0</ele><time>2026-04-26T09:17:29Z</time></trkpt><trkpt lat="46.076016870295355" lon="9.376889022536275"><ele>960.0</ele><time>2026-04-26T09:17:30Z</time></trkpt><trkpt lat="46.07604642764602" lon="9.376735915302113"><ele>960.0</ele><time>2026-04-26T09:17:31Z</time></trkpt><trkpt lat="46.076074227719026" lon="9.376586459308173"><ele>918.4</ele><time>2026-04-26T09:17:32Z</time></trkpt><trkpt lat="46.07609192177445" lon="9.376418155343153"><ele>876.8</ele><time>2026-04-26T09:17:33Z</time></trkpt><trkpt lat="46.076113171026975" lon="9.376271047386325"><ele>835.2</ele><time>2026-04-26T09:17:34Z</time></trkpt><trkpt lat="46.07613309132108" lon="9.376103483158692"><ele>793.6</ele><time>2026-04-26T09:17:35Z</time></trkpt><trkpt lat="46.07612510984212" lon="9.375948256059424"><ele>752.0</ele><time>2026-04-26T09:17:36Z</time></trkpt><trkpt lat="46.076119125556346" lon="9.375803467987884"><ele>752.0</ele><time>2026-04-26T09:17:37Z</time></trkpt><trkpt lat="46.0761226972842" lon="9.375629647991358"><ele>752.0</ele><time>2026-04-26T09:17:38Z</time></trkpt><trkpt lat="46.07612960567057" lon="9.37546284328281"><ele>752.0</ele><time>2026-04-26T09:17:39Z</time></trkpt><trkpt lat="46.076147989220324" lon="9.375304898315994"><ele>752.0</ele><time>2026-04-26T09:17:40Z</time></trkpt><trkpt lat="46.076149874884706" lon="9.375167250290104"><ele>752.0</ele><time>2026-04-26T09:17:41Z</time></trkpt><trkpt lat="46.07616055530543" lon="9.375015945764547"><ele>752.0</ele><time>2026-04-26T09:17:42Z</time></trkpt><trkpt lat="46.07620033016508" lon="9.374851040751679"><ele>752.0</ele><time>2026-04-26T09:17:43.001Z</time></trkpt><trkpt lat="46.07623185474126" lon="9.37466672991483"><ele>752.0</ele><time>2026-04-26T09:17:44.001Z</time></trkpt><trkpt lat="46.07625488162723" lon="9.374458225335912"><ele>752.0</ele><time>2026-04-26T09:17:45.001Z</time></trkpt><trkpt lat="46.076277114538534" lon="9.37426545592262"><ele>752.0</ele><time>2026-04-26T09:17:46.001Z</time></trkpt><trkpt lat="46.07629281119184" lon="9.374091194785363"><ele>752.0</ele><time>2026-04-26T09:17:47.001Z</time></trkpt><trkpt lat="46.07630802894098" lon="9.373925854867494"><ele>752.0</ele><time>2026-04-26T09:17:48.001Z</time></trkpt><trkpt lat="46.07633102396133" lon="9.37380082678456"><ele>752.0</ele><time>2026-04-26T09:17:49.001Z</time></trkpt><trkpt lat="46.076400001891756" lon="9.373681027252179"><ele>752.0</ele><time>2026-04-26T09:17:50.001Z</time></trkpt><trkpt lat="46.076447132141226" lon="9.37353506402093"><ele>750.0</ele><time>2026-04-26T09:17:51.001Z</time></trkpt><trkpt lat="46.07648471001031" lon="9.373392551126809"><ele>748.0</ele><time>2026-04-26T09:17:52.001Z</time></trkpt><trkpt lat="46.076509256124666" lon="9.373283023765497"><ele>746.0</ele><time>2026-04-26T09:17:54.001Z</time></trkpt><trkpt lat="46.07644346167438" lon="9.37322533390869"><ele>744.0</ele><time>2026-04-26T09:17:56.001Z</time></trkpt><trkpt lat="46.07635723211205" lon="9.373292057815366"><ele>742.0</ele><time>2026-04-26T09:17:58.001Z</time></trkpt><trkpt lat="46.07634750925266" lon="9.373412194703231"><ele>740.0</ele><time>2026-04-26T09:17:59.001Z</time></trkpt><trkpt lat="46.076313180983874" lon="9.373542473444308"><ele>740.0</ele><time>2026-04-26T09:18:00.001Z</time></trkpt><trkpt lat="46.07625872255136" lon="9.373645926133191"><ele>740.0</ele><time>2026-04-26T09:18:01.001Z</time></trkpt><trkpt lat="46.076197746249996" lon="9.373771622059659"><ele>740.0</ele><time>2026-04-26T09:18:02.001Z</time></trkpt><trkpt lat="46.07614918573424" lon="9.373878840938389"><ele>740.0</ele><time>2026-04-26T09:18:03.001Z</time></trkpt><trkpt lat="46.0761104399172" lon="9.373979121949228"><ele>740.0</ele><time>2026-04-26T09:18:04.001Z</time></trkpt><trkpt lat="46.07608573740316" lon="9.37409598706409"><ele>740.0</ele><time>2026-04-26T09:18:05.001Z</time></trkpt><trkpt lat="46.07607870661176" lon="9.374203814373168"><ele>740.0</ele><time>2026-04-26T09:18:06.001Z</time></trkpt><trkpt lat="46.076021197650235" lon="9.374126882777508"><ele>740.0</ele><time>2026-04-26T09:18:11.001Z</time></trkpt><trkpt lat="46.076062591823586" lon="9.374020194230466"><ele>740.0</ele><time>2026-04-26T09:18:12.001Z</time></trkpt><trkpt lat="46.07611285882269" lon="9.373882686079117"><ele>740.0</ele><time>2026-04-26T09:18:13.001Z</time></trkpt><trkpt lat="46.07613652100835" lon="9.37373389187231"><ele>740.0</ele><time>2026-04-26T09:18:14.001Z</time></trkpt><trkpt lat="46.07614456050659" lon="9.373573616225176"><ele>740.0</ele><time>2026-04-26T09:18:15.002Z</time></trkpt><trkpt lat="46.07614739265175" lon="9.37342515389931"><ele>740.0</ele><time>2026-04-26T09:18:16.002Z</time></trkpt><trkpt lat="46.07614915167167" lon="9.373263587233346"><ele>740.0</ele><time>2026-04-26T09:18:17.002Z</time></trkpt><trkpt lat="46.07612732272233" lon="9.373102933077087"><ele>740.0</ele><time>2026-04-26T09:18:18.002Z</time></trkpt><trkpt lat="46.07611109378948" lon="9.372958646799411"><ele>738.8333333333333</ele><time>2026-04-26T09:18:19.002Z</time></trkpt><trkpt lat="46.076098038264924" lon="9.372823424108205"><ele>737.6666666666666</ele><time>2026-04-26T09:18:20.002Z</time></trkpt><trkpt lat="46.07605218935326" lon="9.372719928649898"><ele>736.5</ele><time>2026-04-26T09:18:21.002Z</time></trkpt><trkpt lat="46.07598999889658" lon="9.372653682920374"><ele>735.3333333333334</ele><time>2026-04-26T09:18:22.002Z</time></trkpt><trkpt lat="46.07590668550027" lon="9.372648084784604"><ele>734.1666666666667</ele><time>2026-04-26T09:18:23.002Z</time></trkpt><trkpt lat="46.0758372155614" lon="9.372705088598462"><ele>733.0</ele><time>2026-04-26T09:18:24.002Z</time></trkpt><trkpt lat="46.07578066061373" lon="9.372789014983631"><ele>733.0</ele><time>2026-04-26T09:18:25.002Z</time></trkpt><trkpt lat="46.075776789520866" lon="9.372925407743288"><ele>733.0</ele><time>2026-04-26T09:18:26.002Z</time></trkpt><trkpt lat="46.075823717465994" lon="9.373043262261742"><ele>733.0</ele><time>2026-04-26T09:18:27.002Z</time></trkpt><trkpt lat="46.07585005173738" lon="9.37314512583509"><ele>733.0</ele><time>2026-04-26T09:18:28.002Z</time></trkpt><trkpt lat="46.075850983786" lon="9.37328882052515"><ele>733.0</ele><time>2026-04-26T09:18:30.002Z</time></trkpt><trkpt lat="46.07578482086006" lon="9.373287883482378"><ele>733.0</ele><time>2026-04-26T09:18:31.002Z</time></trkpt><trkpt lat="46.07572325333646" lon="9.373260857153983"><ele>727.4</ele><time>2026-04-26T09:18:32.002Z</time></trkpt><trkpt lat="46.07565596753133" lon="9.373187586814979"><ele>721.8</ele><time>2026-04-26T09:18:33.002Z</time></trkpt><trkpt lat="46.075575242298335" lon="9.37311502608805"><ele>716.2</ele><time>2026-04-26T09:18:34.002Z</time></trkpt><trkpt lat="46.07548775572969" lon="9.37305403311677"><ele>710.6</ele><time>2026-04-26T09:18:35.002Z</time></trkpt><trkpt lat="46.07540494590704" lon="9.372970950995635"><ele>705.0</ele><time>2026-04-26T09:18:36.002Z</time></trkpt><trkpt lat="46.07536828352926" lon="9.37283281708212"><ele>702.0</ele><time>2026-04-26T09:18:37.002Z</time></trkpt><trkpt lat="46.07539930523063" lon="9.372655308691643"><ele>699.0</ele><time>2026-04-26T09:18:39.002Z</time></trkpt><trkpt lat="46.07544844624696" lon="9.372532248646635"><ele>696.0</ele><time>2026-04-26T09:18:40.002Z</time></trkpt><trkpt lat="46.07550670921572" lon="9.372402046378355"><ele>693.0</ele><time>2026-04-26T09:18:41.002Z</time></trkpt><trkpt lat="46.07556553652554" lon="9.37229098669923"><ele>690.0</ele><time>2026-04-26T09:18:42.002Z</time></trkpt><trkpt lat="46.07561982461612" lon="9.372234743222668"><ele>690.0</ele><time>2026-04-26T09:18:43.002Z</time></trkpt><trkpt lat="46.07568927046667" lon="9.372242406508265"><ele>690.0</ele><time>2026-04-26T09:18:44.002Z</time></trkpt><trkpt lat="46.07576717355629" lon="9.372234959569088"><ele>690.0</ele><time>2026-04-26T09:18:45Z</time></trkpt><trkpt lat="46.0758703147151" lon="9.37224414842781"><ele>690.0</ele><time>2026-04-26T09:18:46Z</time></trkpt><trkpt lat="46.075961038235214" lon="9.372254438771664"><ele>690.0</ele><time>2026-04-26T09:18:47Z</time></trkpt><trkpt lat="46.07605547515299" lon="9.37227616567742"><ele>690.0</ele><time>2026-04-26T09:18:48Z</time></trkpt><trkpt lat="46.076166651547545" lon="9.37240214889188"><ele>698.6</ele><time>2026-04-26T09:18:50Z</time></trkpt><trkpt lat="46.07624578351493" lon="9.372468732156698"><ele>707.2</ele><time>2026-04-26T09:18:51Z</time></trkpt><trkpt lat="46.0763462345567" lon="9.372496733989479"><ele>715.8</ele><time>2026-04-26T09:18:52Z</time></trkpt><trkpt lat="46.0764664421131" lon="9.372616740002341"><ele>724.4</ele><time>2026-04-26T09:18:54Z</time></trkpt><trkpt lat="46.076535671668324" lon="9.37267455387977"><ele>733.0</ele><time>2026-04-26T09:18:55Z</time></trkpt><trkpt lat="46.07665649589479" lon="9.37269451525903"><ele>734.75</ele><time>2026-04-26T09:18:56Z</time></trkpt><trkpt lat="46.07678923457153" lon="9.372622537774733"><ele>736.5</ele><time>2026-04-26T09:18:57Z</time></trkpt><trkpt lat="46.07691657322821" lon="9.37260347393471"><ele>738.25</ele><time>2026-04-26T09:18:58Z</time></trkpt><trkpt lat="46.07700400080174" lon="9.372582251632664"><ele>740.0</ele><time>2026-04-26T09:18:59Z</time></trkpt><trkpt lat="46.07709997956881" lon="9.372514662906429"><ele>740.0</ele><time>2026-04-26T09:19:00Z</time></trkpt><trkpt lat="46.0771759471584" lon="9.372440165089573"><ele>740.0</ele><time>2026-04-26T09:19:01Z</time></trkpt><trkpt lat="46.07724194109194" lon="9.37239853045359"><ele>740.0</ele><time>2026-04-26T09:19:02Z</time></trkpt><trkpt lat="46.07731560663117" lon="9.372337755521022"><ele>740.0</ele><time>2026-04-26T09:19:03Z</time></trkpt><trkpt lat="46.07736909344191" lon="9.372271926549368"><ele>740.0</ele><time>2026-04-26T09:19:04Z</time></trkpt><trkpt lat="46.07734375188271" lon="9.37211313750777"><ele>740.0</ele><time>2026-04-26T09:19:05Z</time></trkpt><trkpt lat="46.07738117778263" lon="9.37192844761216"><ele>734.0</ele><time>2026-04-26T09:19:07Z</time></trkpt><trkpt lat="46.07743917220196" lon="9.371868808414092"><ele>728.0</ele><time>2026-04-26T09:19:08Z</time></trkpt><trkpt lat="46.0775253952592" lon="9.371830350458248"><ele>722.0</ele><time>2026-04-26T09:19:09Z</time></trkpt><trkpt lat="46.07762397849063" lon="9.371798605329245"><ele>716.0</ele><time>2026-04-26T09:19:10Z</time></trkpt><trkpt lat="46.077713090611866" lon="9.371796411628798"><ele>710.0</ele><time>2026-04-26T09:19:11Z</time></trkpt><trkpt lat="46.077793269239514" lon="9.371828756411489"><ele>704.0</ele><time>2026-04-26T09:19:12Z</time></trkpt><trkpt lat="46.077869043895646" lon="9.371832372950015"><ele>704.0</ele><time>2026-04-26T09:19:13.001Z</time></trkpt><trkpt lat="46.07795322836726" lon="9.371851340914295"><ele>704.0</ele><time>2026-04-26T09:19:14.001Z</time></trkpt><trkpt lat="46.0780321154155" lon="9.37190171636906"><ele>704.0</ele><time>2026-04-26T09:19:15.001Z</time></trkpt><trkpt lat="46.07813587547242" lon="9.371959507984661"><ele>704.0</ele><time>2026-04-26T09:19:16.001Z</time></trkpt><trkpt lat="46.078245241742316" lon="9.372023194809875"><ele>704.0</ele><time>2026-04-26T09:19:17.001Z</time></trkpt><trkpt lat="46.07832644975049" lon="9.372076245330616"><ele>704.5</ele><time>2026-04-26T09:19:18.001Z</time></trkpt><trkpt lat="46.07837729201662" lon="9.37214929644914"><ele>705.0</ele><time>2026-04-26T09:19:19.001Z</time></trkpt><trkpt lat="46.078480854340846" lon="9.372256307023436"><ele>705.5</ele><time>2026-04-26T09:19:20.001Z</time></trkpt><trkpt lat="46.07864523420764" lon="9.372326233491101"><ele>706.0</ele><time>2026-04-26T09:19:21.001Z</time></trkpt><trkpt lat="46.07880175067195" lon="9.372407466244349"><ele>726.8</ele><time>2026-04-26T09:19:22.001Z</time></trkpt><trkpt lat="46.078917409261685" lon="9.372482151055504"><ele>747.5999999999999</ele><time>2026-04-26T09:19:23.001Z</time></trkpt><trkpt lat="46.07899551646012" lon="9.37255832272058"><ele>768.4</ele><time>2026-04-26T09:19:24.001Z</time></trkpt><trkpt lat="46.07908044799356" lon="9.372632118811698"><ele>789.2</ele><time>2026-04-26T09:19:25.001Z</time></trkpt><trkpt lat="46.0791667017669" lon="9.372649181950457"><ele>810.0</ele><time>2026-04-26T09:19:27.001Z</time></trkpt><trkpt lat="46.07924422573914" lon="9.372603957680807"><ele>791.75</ele><time>2026-04-26T09:19:28.001Z</time></trkpt><trkpt lat="46.079265532497566" lon="9.372372785275717"><ele>773.5</ele><time>2026-04-26T09:19:29.001Z</time></trkpt><trkpt lat="46.079260492785075" lon="9.37217560264739"><ele>755.25</ele><time>2026-04-26T09:19:31.001Z</time></trkpt><trkpt lat="46.079172005461935" lon="9.372023261733709"><ele>737.0</ele><time>2026-04-26T09:19:32.001Z</time></trkpt><trkpt lat="46.07905807200492" lon="9.371814694183616"><ele>730.0</ele><time>2026-04-26T09:19:33.001Z</time></trkpt><trkpt lat="46.07893194188924" lon="9.371585174279621"><ele>723.0</ele><time>2026-04-26T09:19:34.001Z</time></trkpt><trkpt lat="46.07882795701123" lon="9.371367889284274"><ele>716.0</ele><time>2026-04-26T09:19:35.001Z</time></trkpt><trkpt lat="46.07876005104951" lon="9.37119954892714"><ele>716.0</ele><time>2026-04-26T09:19:36.001Z</time></trkpt><trkpt lat="46.078710797041225" lon="9.371042240896577"><ele>716.0</ele><time>2026-04-26T09:19:37.001Z</time></trkpt><trkpt lat="46.0786573923167" lon="9.370861145674704"><ele>716.0</ele><time>2026-04-26T09:19:38.001Z</time></trkpt><trkpt lat="46.078591258737475" lon="9.37070393547663"><ele>716.0</ele><time>2026-04-26T09:19:39.001Z</time></trkpt><trkpt lat="46.07848504239601" lon="9.370555456793111"><ele>717.0</ele><time>2026-04-26T09:19:40.001Z</time></trkpt><trkpt lat="46.07837516391768" lon="9.370407962841403"><ele>718.0</ele><time>2026-04-26T09:19:41.001Z</time></trkpt><trkpt lat="46.078246408992335" lon="9.370294694090484"><ele>719.0</ele><time>2026-04-26T09:19:42.001Z</time></trkpt><trkpt lat="46.078131768651" lon="9.370148550617788"><ele>719.0</ele><time>2026-04-26T09:19:43.001Z</time></trkpt><trkpt lat="46.078029257476416" lon="9.370003349158434"><ele>719.0</ele><time>2026-04-26T09:19:44.001Z</time></trkpt><trkpt lat="46.07794216958107" lon="9.369886707709146"><ele>719.0</ele><time>2026-04-26T09:19:45.001Z</time></trkpt><trkpt lat="46.07785295516164" lon="9.369802556101767"><ele>719.0</ele><time>2026-04-26T09:19:46.002Z</time></trkpt><trkpt lat="46.077764844056404" lon="9.36969891782397"><ele>723.5</ele><time>2026-04-26T09:19:47.002Z</time></trkpt><trkpt lat="46.07766321368924" lon="9.369598323735591"><ele>728.0</ele><time>2026-04-26T09:19:48.002Z</time></trkpt><trkpt lat="46.07751394517651" lon="9.369574648996466"><ele>732.5</ele><time>2026-04-26T09:19:49.002Z</time></trkpt><trkpt lat="46.07742353965715" lon="9.369516335501181"><ele>737.0</ele><time>2026-04-26T09:19:50.002Z</time></trkpt><trkpt lat="46.077339322170204" lon="9.369475764551636"><ele>737.0</ele><time>2026-04-26T09:19:51.002Z</time></trkpt><trkpt lat="46.07725615754402" lon="9.369460268822376"><ele>737.0</ele><time>2026-04-26T09:19:52.002Z</time></trkpt><trkpt lat="46.07717287328556" lon="9.369425157345475"><ele>737.0</ele><time>2026-04-26T09:19:54.002Z</time></trkpt><trkpt lat="46.077092953939946" lon="9.369416895188435"><ele>737.0</ele><time>2026-04-26T09:19:57.002Z</time></trkpt><trkpt lat="46.07697201096526" lon="9.369370064408365"><ele>737.0</ele><time>2026-04-26T09:19:59.002Z</time></trkpt><trkpt lat="46.07689652346385" lon="9.369319130559647"><ele>737.0</ele><time>2026-04-26T09:20:00.002Z</time></trkpt><trkpt lat="46.0768132055762" lon="9.369257290072957"><ele>737.0</ele><time>2026-04-26T09:20:01.002Z</time></trkpt><trkpt lat="46.076696435772995" lon="9.36926042588688"><ele>737.0</ele><time>2026-04-26T09:20:02.002Z</time></trkpt><trkpt lat="46.076604149205686" lon="9.36917303601721"><ele>737.0</ele><time>2026-04-26T09:20:03.002Z</time></trkpt><trkpt lat="46.076514736459494" lon="9.369075929379582"><ele>737.0</ele><time>2026-04-26T09:20:04.002Z</time></trkpt><trkpt lat="46.076425556602175" lon="9.368983359835232"><ele>734.6</ele><time>2026-04-26T09:20:05.002Z</time></trkpt><trkpt lat="46.07636222870852" lon="9.368903692372736"><ele>732.2</ele><time>2026-04-26T09:20:06.002Z</time></trkpt><trkpt lat="46.076275657064336" lon="9.368841634512682"><ele>729.8</ele><time>2026-04-26T09:20:07.002Z</time></trkpt><trkpt lat="46.0762022104525" lon="9.368763952895067"><ele>727.4</ele><time>2026-04-26T09:20:08.002Z</time></trkpt><trkpt lat="46.07613590401403" lon="9.368706131434683"><ele>725.0</ele><time>2026-04-26T09:20:09.002Z</time></trkpt><trkpt lat="46.07606948505139" lon="9.368505358066207"><ele>725.0</ele><time>2026-04-26T09:20:11.002Z</time></trkpt><trkpt lat="46.07603491927634" lon="9.368383787570282"><ele>725.0</ele><time>2026-04-26T09:20:12.002Z</time></trkpt><trkpt lat="46.07601937472822" lon="9.368261132634478"><ele>725.0</ele><time>2026-04-26T09:20:13.002Z</time></trkpt><trkpt lat="46.075964439602124" lon="9.36809979240733"><ele>725.0</ele><time>2026-04-26T09:20:14.002Z</time></trkpt><trkpt lat="46.07591346487864" lon="9.367950311869262"><ele>725.0</ele><time>2026-04-26T09:20:15.002Z</time></trkpt><trkpt lat="46.07585897661786" lon="9.367782992823836"><ele>724.2</ele><time>2026-04-26T09:20:16.002Z</time></trkpt><trkpt lat="46.07580975331554" lon="9.367648012225755"><ele>723.4</ele><time>2026-04-26T09:20:17.002Z</time></trkpt><trkpt lat="46.07577192275877" lon="9.367516880472836"><ele>722.5999999999999</ele><time>2026-04-26T09:20:18.002Z</time></trkpt><trkpt lat="46.07573601166169" lon="9.367393296280273"><ele>721.8</ele><time>2026-04-26T09:20:19.002Z</time></trkpt><trkpt lat="46.07567169606268" lon="9.36725285123936"><ele>721.0</ele><time>2026-04-26T09:20:20.003Z</time></trkpt><trkpt lat="46.0755829393589" lon="9.367164196799148"><ele>721.0</ele><time>2026-04-26T09:20:21.003Z</time></trkpt><trkpt lat="46.07544372468072" lon="9.367105945724878"><ele>721.0</ele><time>2026-04-26T09:20:22.003Z</time></trkpt><trkpt lat="46.07528404476911" lon="9.367005728296874"><ele>721.0</ele><time>2026-04-26T09:20:23.003Z</time></trkpt><trkpt lat="46.07519194866578" lon="9.366940435079766"><ele>721.0</ele><time>2026-04-26T09:20:24.003Z</time></trkpt><trkpt lat="46.07512003777204" lon="9.366852645389887"><ele>721.0</ele><time>2026-04-26T09:20:25.003Z</time></trkpt><trkpt lat="46.075082536595964" lon="9.366723309330922"><ele>721.0</ele><time>2026-04-26T09:20:26.003Z</time></trkpt><trkpt lat="46.07506731717316" lon="9.366625911795586"><ele>721.0</ele><time>2026-04-26T09:20:27.003Z</time></trkpt><trkpt lat="46.075075292010986" lon="9.366438619647"><ele>721.0</ele><time>2026-04-26T09:20:29.003Z</time></trkpt><trkpt lat="46.075079585710576" lon="9.366253124219021"><ele>721.0</ele><time>2026-04-26T09:20:30.003Z</time></trkpt><trkpt lat="46.07508504263153" lon="9.36602275686519"><ele>722.8</ele><time>2026-04-26T09:20:31.003Z</time></trkpt><trkpt lat="46.07508847372095" lon="9.365834691042902"><ele>724.5999999999999</ele><time>2026-04-26T09:20:32.003Z</time></trkpt><trkpt lat="46.075090026809725" lon="9.365677910937098"><ele>726.4</ele><time>2026-04-26T09:20:33.003Z</time></trkpt><trkpt lat="46.07505595423526" lon="9.365540082285838"><ele>728.2</ele><time>2026-04-26T09:20:34.003Z</time></trkpt><trkpt lat="46.07501453461436" lon="9.365428194122947"><ele>730.0</ele><time>2026-04-26T09:20:35.003Z</time></trkpt><trkpt lat="46.074939205267626" lon="9.365323785664451"><ele>730.0</ele><time>2026-04-26T09:20:36.003Z</time></trkpt><trkpt lat="46.07481271109508" lon="9.365251544239971"><ele>730.0</ele><time>2026-04-26T09:20:37.003Z</time></trkpt><trkpt lat="46.07475538560174" lon="9.365149814244033"><ele>730.0</ele><time>2026-04-26T09:20:38.003Z</time></trkpt><trkpt lat="46.07474867451825" lon="9.3650297006095"><ele>730.0</ele><time>2026-04-26T09:20:39.003Z</time></trkpt><trkpt lat="46.074755637975144" lon="9.364924683118353"><ele>730.0</ele><time>2026-04-26T09:20:40.003Z</time></trkpt><trkpt lat="46.074756569855516" lon="9.364814471796292"><ele>730.0</ele><time>2026-04-26T09:20:43.003Z</time></trkpt><trkpt lat="46.074733675979616" lon="9.364658911857093"><ele>730.0</ele><time>2026-04-26T09:20:49.003Z</time></trkpt><trkpt lat="46.07473211042334" lon="9.36456478620642"><ele>730.0</ele><time>2026-04-26T09:20:50.003Z</time></trkpt><trkpt lat="46.0747273598849" lon="9.364455470406932"><ele>730.0</ele><time>2026-04-26T09:20:51.001Z</time></trkpt><trkpt lat="46.0747484649854" lon="9.364334113937355"><ele>730.0</ele><time>2026-04-26T09:20:52.001Z</time></trkpt><trkpt lat="46.07480043562587" lon="9.364188880678409"><ele>730.0</ele><time>2026-04-26T09:20:53.001Z</time></trkpt><trkpt lat="46.07486080391352" lon="9.364025022891754"><ele>730.0</ele><time>2026-04-26T09:20:54.001Z</time></trkpt><trkpt lat="46.07490414115933" lon="9.363867874932764"><ele>730.0</ele><time>2026-04-26T09:20:55.001Z</time></trkpt><trkpt lat="46.07493165076193" lon="9.363710082613174"><ele>730.0</ele><time>2026-04-26T09:20:56.001Z</time></trkpt><trkpt lat="46.07493755619741" lon="9.363544826233232"><ele>731.4</ele><time>2026-04-26T09:20:57.001Z</time></trkpt><trkpt lat="46.07494320987075" lon="9.363387735311088"><ele>732.8</ele><time>2026-04-26T09:20:58.001Z</time></trkpt><trkpt lat="46.07496340237789" lon="9.363240191502898"><ele>734.2</ele><time>2026-04-26T09:20:59.001Z</time></trkpt><trkpt lat="46.0750029674438" lon="9.363129294491566"><ele>735.6</ele><time>2026-04-26T09:21:00.001Z</time></trkpt><trkpt lat="46.07503762111935" lon="9.36301576955062"><ele>737.0</ele><time>2026-04-26T09:21:01.001Z</time></trkpt><trkpt lat="46.075065889285995" lon="9.362924147530064"><ele>737.0</ele><time>2026-04-26T09:21:02.001Z</time></trkpt><trkpt lat="46.07510677255785" lon="9.362830263137603"><ele>737.0</ele><time>2026-04-26T09:21:18Z</time></trkpt><trkpt lat="46.075211833000125" lon="9.3627722490106"><ele>737.0</ele><time>2026-04-26T09:21:20Z</time></trkpt><trkpt lat="46.075288464543654" lon="9.362795407994199"><ele>737.0</ele><time>2026-04-26T09:21:21Z</time></trkpt><trkpt lat="46.07537200440588" lon="9.36279145284506"><ele>737.0</ele><time>2026-04-26T09:21:22.001Z</time></trkpt><trkpt lat="46.07545857815751" lon="9.362770326163798"><ele>737.0</ele><time>2026-04-26T09:21:23.001Z</time></trkpt><trkpt lat="46.075524471954125" lon="9.362661924425879"><ele>737.0</ele><time>2026-04-26T09:21:24.001Z</time></trkpt><trkpt lat="46.07559619905875" lon="9.362593337234832"><ele>737.0</ele><time>2026-04-26T09:21:25.001Z</time></trkpt><trkpt lat="46.075681638476766" lon="9.362523034305305"><ele>737.0</ele><time>2026-04-26T09:21:26.001Z</time></trkpt><trkpt lat="46.075736775593114" lon="9.3624139413674"><ele>737.0</ele><time>2026-04-26T09:21:27.001Z</time></trkpt><trkpt lat="46.07574575943721" lon="9.362303245896035"><ele>737.0</ele><time>2026-04-26T09:21:28.001Z</time></trkpt><trkpt lat="46.075787536470266" lon="9.362190108665088"><ele>737.0</ele><time>2026-04-26T09:21:29.001Z</time></trkpt><trkpt lat="46.075781841839856" lon="9.362073998130771"><ele>737.0</ele><time>2026-04-26T09:21:30.001Z</time></trkpt><trkpt lat="46.07573289087866" lon="9.36194857997017"><ele>737.0</ele><time>2026-04-26T09:21:31.001Z</time></trkpt><trkpt lat="46.07569605299703" lon="9.361824928009243"><ele>737.0</ele><time>2026-04-26T09:21:32.001Z</time></trkpt><trkpt lat="46.07565242954291" lon="9.361683951456898"><ele>737.0</ele><time>2026-04-26T09:21:33.001Z</time></trkpt><trkpt lat="46.075592212673016" lon="9.361508940712097"><ele>737.0</ele><time>2026-04-26T09:21:34.001Z</time></trkpt><trkpt lat="46.07554515795327" lon="9.36132166770242"><ele>737.0</ele><time>2026-04-26T09:21:35.001Z</time></trkpt><trkpt lat="46.07552529972321" lon="9.361118977210978"><ele>737.0</ele><time>2026-04-26T09:21:36.001Z</time></trkpt><trkpt lat="46.075501971747" lon="9.36089869567014"><ele>737.0</ele><time>2026-04-26T09:21:37.001Z</time></trkpt><trkpt lat="46.075482265503595" lon="9.360731170006718"><ele>737.0</ele><time>2026-04-26T09:21:38.001Z</time></trkpt><trkpt lat="46.07546289798505" lon="9.36056652396059"><ele>726.25</ele><time>2026-04-26T09:21:39.001Z</time></trkpt><trkpt lat="46.07544757311872" lon="9.360414197916683"><ele>715.5</ele><time>2026-04-26T09:21:40.001Z</time></trkpt><trkpt lat="46.07543703544923" lon="9.360253525874464"><ele>704.75</ele><time>2026-04-26T09:21:41.001Z</time></trkpt><trkpt lat="46.07544116721731" lon="9.360087143232214"><ele>694.0</ele><time>2026-04-26T09:21:42.001Z</time></trkpt><trkpt lat="46.075452969482974" lon="9.359876117063328"><ele>697.75</ele><time>2026-04-26T09:21:43.001Z</time></trkpt><trkpt lat="46.07546894334289" lon="9.359647227672678"><ele>701.5</ele><time>2026-04-26T09:21:44.001Z</time></trkpt><trkpt lat="46.0754868885176" lon="9.359452805951769"><ele>705.25</ele><time>2026-04-26T09:21:45.001Z</time></trkpt><trkpt lat="46.075516466641176" lon="9.359274078101135"><ele>709.0</ele><time>2026-04-26T09:21:46.001Z</time></trkpt><trkpt lat="46.075537507276216" lon="9.359066076097333"><ele>713.0</ele><time>2026-04-26T09:21:47.001Z</time></trkpt><trkpt lat="46.075548814053704" lon="9.358843174558173"><ele>717.0</ele><time>2026-04-26T09:21:48.001Z</time></trkpt><trkpt lat="46.07553216830268" lon="9.358609087465483"><ele>721.0</ele><time>2026-04-26T09:21:49.001Z</time></trkpt><trkpt lat="46.07547520714232" lon="9.358363086945628"><ele>721.0</ele><time>2026-04-26T09:21:50.001Z</time></trkpt><trkpt lat="46.075416503282554" lon="9.358082235163693"><ele>721.0</ele><time>2026-04-26T09:21:51.001Z</time></trkpt><trkpt lat="46.07536179158131" lon="9.357818102132752"><ele>721.0</ele><time>2026-04-26T09:21:52.001Z</time></trkpt><trkpt lat="46.075290859689524" lon="9.357607548043783"><ele>724.25</ele><time>2026-04-26T09:21:53.001Z</time></trkpt><trkpt lat="46.07525451456067" lon="9.357410510738974"><ele>727.5</ele><time>2026-04-26T09:21:54.001Z</time></trkpt><trkpt lat="46.07521796189318" lon="9.357242223792305"><ele>730.75</ele><time>2026-04-26T09:21:55.001Z</time></trkpt><trkpt lat="46.075196892631915" lon="9.357017845713743"><ele>734.0</ele><time>2026-04-26T09:21:56.001Z</time></trkpt><trkpt lat="46.07516937691445" lon="9.356773825214814"><ele>736.0</ele><time>2026-04-26T09:21:57.001Z</time></trkpt><trkpt lat="46.07517388605317" lon="9.356510211148251"><ele>738.0</ele><time>2026-04-26T09:21:58.001Z</time></trkpt><trkpt lat="46.075168333018226" lon="9.356249350527422"><ele>740.0</ele><time>2026-04-26T09:21:59.001Z</time></trkpt><trkpt lat="46.0751597353108" lon="9.356014547965568"><ele>740.0</ele><time>2026-04-26T09:22:00.001Z</time></trkpt><trkpt lat="46.07516100947892" lon="9.355796013930968"><ele>740.0</ele><time>2026-04-26T09:22:01.001Z</time></trkpt><trkpt lat="46.075164941813874" lon="9.355563160499923"><ele>740.0</ele><time>2026-04-26T09:22:02.001Z</time></trkpt><trkpt lat="46.07515452721205" lon="9.355369397699025"><ele>740.0</ele><time>2026-04-26T09:22:03.001Z</time></trkpt><trkpt lat="46.075209667809695" lon="9.355170093796655"><ele>740.75</ele><time>2026-04-26T09:22:04.001Z</time></trkpt><trkpt lat="46.075265363363165" lon="9.35495382173165"><ele>741.5</ele><time>2026-04-26T09:22:05.001Z</time></trkpt><trkpt lat="46.075300273946404" lon="9.354780075645174"><ele>742.25</ele><time>2026-04-26T09:22:06.001Z</time></trkpt><trkpt lat="46.0752664492753" lon="9.354604125088832"><ele>743.0</ele><time>2026-04-26T09:22:07.001Z</time></trkpt><trkpt lat="46.07522843618604" lon="9.3544222663329"><ele>743.0</ele><time>2026-04-26T09:22:08.001Z</time></trkpt><trkpt lat="46.07514628748482" lon="9.354192717223961"><ele>743.0</ele><time>2026-04-26T09:22:09.001Z</time></trkpt><trkpt lat="46.07511258480038" lon="9.3539554209962"><ele>743.0</ele><time>2026-04-26T09:22:10.001Z</time></trkpt><trkpt lat="46.07504740313795" lon="9.353738590758889"><ele>741.25</ele><time>2026-04-26T09:22:11.001Z</time></trkpt><trkpt lat="46.0750344484181" lon="9.353523896255405"><ele>739.5</ele><time>2026-04-26T09:22:12.001Z</time></trkpt><trkpt lat="46.075025419081484" lon="9.353338135665059"><ele>737.75</ele><time>2026-04-26T09:22:13.001Z</time></trkpt><trkpt lat="46.07503068419327" lon="9.3531620389988"><ele>736.0</ele><time>2026-04-26T09:22:14.001Z</time></trkpt><trkpt lat="46.07505287764358" lon="9.353011162678035"><ele>736.0</ele><time>2026-04-26T09:22:15.001Z</time></trkpt><trkpt lat="46.07510524400495" lon="9.352879657853494"><ele>736.0</ele><time>2026-04-26T09:22:16.001Z</time></trkpt><trkpt lat="46.07518497438609" lon="9.352704035085353"><ele>736.0</ele><time>2026-04-26T09:22:17.001Z</time></trkpt><trkpt lat="46.075204725839995" lon="9.352507577357889"><ele>736.0</ele><time>2026-04-26T09:22:18.001Z</time></trkpt><trkpt lat="46.07520856602385" lon="9.352291011661181"><ele>732.6666666666667</ele><time>2026-04-26T09:22:19.001Z</time></trkpt><trkpt lat="46.075244276092135" lon="9.352054449070025"><ele>729.3333333333334</ele><time>2026-04-26T09:22:20.001Z</time></trkpt><trkpt lat="46.07530043458091" lon="9.351835426014613"><ele>726.0</ele><time>2026-04-26T09:22:21.001Z</time></trkpt><trkpt lat="46.075312956187844" lon="9.351627780854582"><ele>726.0</ele><time>2026-04-26T09:22:22.001Z</time></trkpt><trkpt lat="46.07535744912962" lon="9.351438611134265"><ele>726.0</ele><time>2026-04-26T09:22:23.001Z</time></trkpt><trkpt lat="46.07540590187981" lon="9.351268474262124"><ele>726.0</ele><time>2026-04-26T09:22:24.001Z</time></trkpt><trkpt lat="46.07545203057974" lon="9.351126329364766"><ele>726.0</ele><time>2026-04-26T09:22:25.001Z</time></trkpt><trkpt lat="46.07555270549558" lon="9.351069438934438"><ele>721.25</ele><time>2026-04-26T09:22:26.002Z</time></trkpt><trkpt lat="46.0756577049941" lon="9.351020336133864"><ele>716.5</ele><time>2026-04-26T09:22:27.002Z</time></trkpt><trkpt lat="46.07577564192924" lon="9.350980529190933"><ele>711.75</ele><time>2026-04-26T09:22:28.002Z</time></trkpt><trkpt lat="46.075905028348494" lon="9.350933855474794"><ele>707.0</ele><time>2026-04-26T09:22:29.002Z</time></trkpt><trkpt lat="46.07604093405584" lon="9.350881060226412"><ele>720.5</ele><time>2026-04-26T09:22:30.022Z</time></trkpt><trkpt lat="46.076175361945744" lon="9.350828839092559"><ele>734.0</ele><time>2026-04-26T09:22:31.013Z</time></trkpt><trkpt lat="46.07631836992536" lon="9.350778200088902"><ele>747.5</ele><time>2026-04-26T09:22:32.021Z</time></trkpt><trkpt lat="46.07646386997969" lon="9.35072550121672"><ele>761.0</ele><time>2026-04-26T09:22:33.023Z</time></trkpt><trkpt lat="46.07658426744116" lon="9.35065902359411"><ele>755.3333333333333</ele><time>2026-04-26T09:22:34.017Z</time></trkpt><trkpt lat="46.076725711327484" lon="9.350522362498253"><ele>749.6666666666666</ele><time>2026-04-26T09:22:35.002Z</time></trkpt><trkpt lat="46.07682987962271" lon="9.350269465128228"><ele>744.0</ele><time>2026-04-26T09:22:36.002Z</time></trkpt><trkpt lat="46.07688698020235" lon="9.35002472973879"><ele>744.0</ele><time>2026-04-26T09:22:37.002Z</time></trkpt><trkpt lat="46.076959085748925" lon="9.349769808202392"><ele>744.0</ele><time>2026-04-26T09:22:38.002Z</time></trkpt><trkpt lat="46.076990889742895" lon="9.349564342625749"><ele>744.0</ele><time>2026-04-26T09:22:39.002Z</time></trkpt><trkpt lat="46.077015865163844" lon="9.349475404220772"><ele>744.0</ele><time>2026-04-26T09:22:40.002Z</time></trkpt><trkpt lat="46.07711665376114" lon="9.349359285341947"><ele>728.6666666666666</ele><time>2026-04-26T09:22:42.002Z</time></trkpt><trkpt lat="46.07720790106123" lon="9.349220397552706"><ele>713.3333333333333</ele><time>2026-04-26T09:22:43.002Z</time></trkpt><trkpt lat="46.07729732941668" lon="9.349025718816684"><ele>698.0</ele><time>2026-04-26T09:22:44.002Z</time></trkpt><trkpt lat="46.077399663042286" lon="9.348814509139688"><ele>702.75</ele><time>2026-04-26T09:22:45.002Z</time></trkpt><trkpt lat="46.07747675234905" lon="9.348647139833275"><ele>707.5</ele><time>2026-04-26T09:22:46.002Z</time></trkpt><trkpt lat="46.07756785891721" lon="9.348511890029098"><ele>712.25</ele><time>2026-04-26T09:22:47.002Z</time></trkpt><trkpt lat="46.07771108798503" lon="9.348390152063525"><ele>717.0</ele><time>2026-04-26T09:22:48.002Z</time></trkpt><trkpt lat="46.077841131240206" lon="9.348191294002797"><ele>707.0</ele><time>2026-04-26T09:22:49.002Z</time></trkpt><trkpt lat="46.07794121199163" lon="9.34798912359104"><ele>697.0</ele><time>2026-04-26T09:22:50.002Z</time></trkpt><trkpt lat="46.078031437155" lon="9.347790465739564"><ele>687.0</ele><time>2026-04-26T09:22:51.002Z</time></trkpt><trkpt lat="46.0781229312069" lon="9.3476118979291"><ele>687.0</ele><time>2026-04-26T09:22:52.002Z</time></trkpt><trkpt lat="46.078168594961944" lon="9.347419157321363"><ele>687.0</ele><time>2026-04-26T09:22:53.002Z</time></trkpt><trkpt lat="46.07821790382936" lon="9.34728419418837"><ele>687.0</ele><time>2026-04-26T09:22:54.002Z</time></trkpt><trkpt lat="46.07828843995061" lon="9.34718464172044"><ele>687.0</ele><time>2026-04-26T09:22:55.002Z</time></trkpt><trkpt lat="46.078404275329085" lon="9.347151932291492"><ele>687.0</ele><time>2026-04-26T09:22:56.002Z</time></trkpt><trkpt lat="46.07843055735948" lon="9.346987932112658"><ele>687.0</ele><time>2026-04-26T09:22:59Z</time></trkpt><trkpt lat="46.078332507069035" lon="9.346917407595834"><ele>687.0</ele><time>2026-04-26T09:23:01Z</time></trkpt><trkpt lat="46.07827258344808" lon="9.346995865163324"><ele>687.0</ele><time>2026-04-26T09:23:02Z</time></trkpt><trkpt lat="46.0782209790997" lon="9.34709656334431"><ele>687.0</ele><time>2026-04-26T09:23:03Z</time></trkpt><trkpt lat="46.07813617356937" lon="9.347223074837826"><ele>687.0</ele><time>2026-04-26T09:23:04Z</time></trkpt><trkpt lat="46.07807247088715" lon="9.347349004615946"><ele>687.0</ele><time>2026-04-26T09:23:05Z</time></trkpt><trkpt lat="46.078000246858096" lon="9.347505205890725"><ele>687.0</ele><time>2026-04-26T09:23:06Z</time></trkpt><trkpt lat="46.07796688392721" lon="9.347653277882037"><ele>687.0</ele><time>2026-04-26T09:23:07Z</time></trkpt><trkpt lat="46.077919569565154" lon="9.347737323925697"><ele>687.0</ele><time>2026-04-26T09:23:08Z</time></trkpt><trkpt lat="46.07782553304374" lon="9.347708829996321"><ele>687.0</ele><time>2026-04-26T09:23:11Z</time></trkpt><trkpt lat="46.07792368571455" lon="9.347580396642357"><ele>687.0</ele><time>2026-04-26T09:23:13Z</time></trkpt><trkpt lat="46.077986500200375" lon="9.347471601995146"><ele>687.0</ele><time>2026-04-26T09:23:14Z</time></trkpt><trkpt lat="46.07798536323035" lon="9.347299660168767"><ele>687.0</ele><time>2026-04-26T09:23:15Z</time></trkpt><trkpt lat="46.07800879041621" lon="9.347149179953755"><ele>689.0</ele><time>2026-04-26T09:23:16Z</time></trkpt><trkpt lat="46.078066882117994" lon="9.347038724893215"><ele>691.0</ele><time>2026-04-26T09:23:17Z</time></trkpt><trkpt lat="46.07810935400954" lon="9.346940311160571"><ele>693.0</ele><time>2026-04-26T09:23:18Z</time></trkpt><trkpt lat="46.07818100011894" lon="9.346886544058641"><ele>695.0</ele><time>2026-04-26T09:23:19Z</time></trkpt><trkpt lat="46.07829110947069" lon="9.346835327753912"><ele>697.0</ele><time>2026-04-26T09:23:20Z</time></trkpt><trkpt lat="46.078386633427264" lon="9.34681720428648"><ele>697.0</ele><time>2026-04-26T09:23:21Z</time></trkpt><trkpt lat="46.07845891788608" lon="9.346812748458433"><ele>697.0</ele><time>2026-04-26T09:23:22Z</time></trkpt><trkpt lat="46.07851466899548" lon="9.34686818411184"><ele>697.0</ele><time>2026-04-26T09:23:23Z</time></trkpt><trkpt lat="46.07860726770957" lon="9.346934158792712"><ele>697.0</ele><time>2026-04-26T09:23:24Z</time></trkpt><trkpt lat="46.07875992509738" lon="9.347049422174875"><ele>697.0</ele><time>2026-04-26T09:23:25Z</time></trkpt><trkpt lat="46.078921806720906" lon="9.347005818365647"><ele>697.0</ele><time>2026-04-26T09:23:26Z</time></trkpt><trkpt lat="46.07904329295673" lon="9.346853910280702"><ele>697.0</ele><time>2026-04-26T09:23:27Z</time></trkpt><trkpt lat="46.07915303736463" lon="9.346681489836623"><ele>697.0</ele><time>2026-04-26T09:23:28Z</time></trkpt><trkpt lat="46.079217389214264" lon="9.346518761468337"><ele>697.0</ele><time>2026-04-26T09:23:29Z</time></trkpt><trkpt lat="46.07908480952877" lon="9.346726789898335"><ele>697.0</ele><time>2026-04-26T09:23:30Z</time></trkpt><trkpt lat="46.07908356826338" lon="9.346599167793944"><ele>697.0</ele><time>2026-04-26T09:23:31Z</time></trkpt><trkpt lat="46.079027099333395" lon="9.346464485622574"><ele>697.0</ele><time>2026-04-26T09:23:32Z</time></trkpt><trkpt lat="46.079014883742566" lon="9.346342489259042"><ele>690.0</ele><time>2026-04-26T09:23:33Z</time></trkpt><trkpt lat="46.079037441927156" lon="9.346099951776468"><ele>683.0</ele><time>2026-04-26T09:23:35.001Z</time></trkpt><trkpt lat="46.079009784408875" lon="9.345945071495402"><ele>676.0</ele><time>2026-04-26T09:23:36.001Z</time></trkpt><trkpt lat="46.07898011334709" lon="9.345791003734691"><ele>669.0</ele><time>2026-04-26T09:23:37.001Z</time></trkpt><trkpt lat="46.07896922506771" lon="9.345638845544562"><ele>672.6</ele><time>2026-04-26T09:23:38.001Z</time></trkpt><trkpt lat="46.078954487097185" lon="9.345504741005778"><ele>676.2</ele><time>2026-04-26T09:23:39.001Z</time></trkpt><trkpt lat="46.07897442434937" lon="9.345375612168363"><ele>679.8000000000001</ele><time>2026-04-26T09:23:40.001Z</time></trkpt><trkpt lat="46.07901740122489" lon="9.34527125437085"><ele>683.4000000000001</ele><time>2026-04-26T09:23:41.001Z</time></trkpt><trkpt lat="46.0790786501385" lon="9.345164863434647"><ele>687.0</ele><time>2026-04-26T09:23:42.001Z</time></trkpt><trkpt lat="46.079144801384786" lon="9.345087356210591"><ele>687.0</ele><time>2026-04-26T09:23:43.001Z</time></trkpt><trkpt lat="46.07923387500284" lon="9.345120024037811"><ele>687.0</ele><time>2026-04-26T09:23:44.001Z</time></trkpt><trkpt lat="46.07934893195721" lon="9.34506825439467"><ele>687.0</ele><time>2026-04-26T09:23:45.001Z</time></trkpt><trkpt lat="46.07943516629468" lon="9.344948775338393"><ele>687.0</ele><time>2026-04-26T09:23:46.001Z</time></trkpt><trkpt lat="46.07950190863555" lon="9.344790441682203"><ele>683.0</ele><time>2026-04-26T09:23:47.001Z</time></trkpt><trkpt lat="46.07950868795958" lon="9.34469213393296"><ele>679.0</ele><time>2026-04-26T09:23:48.001Z</time></trkpt><trkpt lat="46.07951723938145" lon="9.344601619587833"><ele>675.0</ele><time>2026-04-26T09:23:49.001Z</time></trkpt><trkpt lat="46.0794631828745" lon="9.344390805189938"><ele>671.0</ele><time>2026-04-26T09:23:51.001Z</time></trkpt><trkpt lat="46.07950503114918" lon="9.34423745995295"><ele>667.0</ele><time>2026-04-26T09:23:52.001Z</time></trkpt><trkpt lat="46.07957081419545" lon="9.344040946339016"><ele>663.25</ele><time>2026-04-26T09:23:53.001Z</time></trkpt><trkpt lat="46.079642110653786" lon="9.343839204232616"><ele>659.5</ele><time>2026-04-26T09:23:54.001Z</time></trkpt><trkpt lat="46.0797016130116" lon="9.343638367718393"><ele>655.75</ele><time>2026-04-26T09:23:55.001Z</time></trkpt><trkpt lat="46.07971829345178" lon="9.343440502864377"><ele>652.0</ele><time>2026-04-26T09:23:56.001Z</time></trkpt><trkpt lat="46.07973429393701" lon="9.343264546558698"><ele>652.0</ele><time>2026-04-26T09:23:57.001Z</time></trkpt><trkpt lat="46.079763216868756" lon="9.343113963485484"><ele>652.0</ele><time>2026-04-26T09:23:58.001Z</time></trkpt><trkpt lat="46.07981690556633" lon="9.34301578501101"><ele>652.0</ele><time>2026-04-26T09:23:59.001Z</time></trkpt><trkpt lat="46.07990495070658" lon="9.34292814461003"><ele>652.0</ele><time>2026-04-26T09:24:00.001Z</time></trkpt><trkpt lat="46.07996727959668" lon="9.342805015882158"><ele>652.0</ele><time>2026-04-26T09:24:01.001Z</time></trkpt><trkpt lat="46.08001076085261" lon="9.342682819514916"><ele>652.6</ele><time>2026-04-26T09:24:02.001Z</time></trkpt><trkpt lat="46.07998603676452" lon="9.3425064872197"><ele>653.2</ele><time>2026-04-26T09:24:03.001Z</time></trkpt><trkpt lat="46.08001291273173" lon="9.342359801984637"><ele>653.8</ele><time>2026-04-26T09:24:04.001Z</time></trkpt><trkpt lat="46.080042215065134" lon="9.342228821916919"><ele>654.4</ele><time>2026-04-26T09:24:05.001Z</time></trkpt><trkpt lat="46.080078012659975" lon="9.342108307601404"><ele>655.0</ele><time>2026-04-26T09:24:06.001Z</time></trkpt><trkpt lat="46.08012427288858" lon="9.342026979052857"><ele>655.0</ele><time>2026-04-26T09:24:07.001Z</time></trkpt><trkpt lat="46.08018432563975" lon="9.341977682087723"><ele>655.0</ele><time>2026-04-26T09:24:08.001Z</time></trkpt><trkpt lat="46.08025368139622" lon="9.341945906923856"><ele>655.0</ele><time>2026-04-26T09:24:09.001Z</time></trkpt><trkpt lat="46.080312995752934" lon="9.34185481288915"><ele>655.0</ele><time>2026-04-26T09:24:10.001Z</time></trkpt><trkpt lat="46.08036818971965" lon="9.341743011403066"><ele>655.0</ele><time>2026-04-26T09:24:11.001Z</time></trkpt><trkpt lat="46.08043400714875" lon="9.341595204399972"><ele>655.0</ele><time>2026-04-26T09:24:12.001Z</time></trkpt><trkpt lat="46.08049737653135" lon="9.341449121015968"><ele>657.2</ele><time>2026-04-26T09:24:13.001Z</time></trkpt><trkpt lat="46.0805639656445" lon="9.341301153210651"><ele>659.4</ele><time>2026-04-26T09:24:14.001Z</time></trkpt><trkpt lat="46.08062748232111" lon="9.341162590300092"><ele>661.5999999999999</ele><time>2026-04-26T09:24:15.001Z</time></trkpt><trkpt lat="46.08068039476328" lon="9.341031343563449"><ele>663.8</ele><time>2026-04-26T09:24:16.001Z</time></trkpt><trkpt lat="46.08075262519328" lon="9.340950326949349"><ele>666.0</ele><time>2026-04-26T09:24:17.001Z</time></trkpt><trkpt lat="46.08082209060213" lon="9.340901645989362"><ele>666.0</ele><time>2026-04-26T09:24:18.001Z</time></trkpt><trkpt lat="46.08091936516775" lon="9.340865540180001"><ele>666.0</ele><time>2026-04-26T09:24:19.001Z</time></trkpt><trkpt lat="46.08099115905549" lon="9.340845012774603"><ele>666.0</ele><time>2026-04-26T09:24:20.001Z</time></trkpt><trkpt lat="46.08105832065333" lon="9.340780010697424"><ele>666.0</ele><time>2026-04-26T09:24:21.001Z</time></trkpt><trkpt lat="46.08110879786752" lon="9.340670529112746"><ele>666.0</ele><time>2026-04-26T09:24:22.001Z</time></trkpt><trkpt lat="46.08113828143151" lon="9.340502367062198"><ele>660.75</ele><time>2026-04-26T09:24:23.001Z</time></trkpt><trkpt lat="46.081178956366294" lon="9.340345010571484"><ele>655.5</ele><time>2026-04-26T09:24:24.001Z</time></trkpt><trkpt lat="46.08122991409119" lon="9.340216817169715"><ele>650.25</ele><time>2026-04-26T09:24:25.001Z</time></trkpt><trkpt lat="46.08130172424372" lon="9.340098683412577"><ele>645.0</ele><time>2026-04-26T09:24:26.001Z</time></trkpt><trkpt lat="46.08140368469268" lon="9.339923858646664"><ele>645.0</ele><time>2026-04-26T09:24:27.001Z</time></trkpt><trkpt lat="46.08151486375583" lon="9.339728338282312"><ele>645.0</ele><time>2026-04-26T09:24:28.001Z</time></trkpt><trkpt lat="46.0816232026599" lon="9.339525768764274"><ele>645.0</ele><time>2026-04-26T09:24:29.001Z</time></trkpt><trkpt lat="46.08170374429555" lon="9.339337434058839"><ele>644.25</ele><time>2026-04-26T09:24:30.001Z</time></trkpt><trkpt lat="46.08178097637431" lon="9.339167174781458"><ele>643.5</ele><time>2026-04-26T09:24:31.001Z</time></trkpt><trkpt lat="46.08185790432716" lon="9.338997585861911"><ele>642.75</ele><time>2026-04-26T09:24:32.001Z</time></trkpt><trkpt lat="46.081925109457444" lon="9.338849431085237"><ele>642.0</ele><time>2026-04-26T09:24:33.001Z</time></trkpt><trkpt lat="46.081991193007546" lon="9.338700685708577"><ele>642.0</ele><time>2026-04-26T09:24:34.001Z</time></trkpt><trkpt lat="46.082054992617344" lon="9.338540812125693"><ele>642.0</ele><time>2026-04-26T09:24:35.002Z</time></trkpt><trkpt lat="46.08210906935893" lon="9.338371777069433"><ele>642.0</ele><time>2026-04-26T09:24:36.002Z</time></trkpt><trkpt lat="46.082142009782544" lon="9.338183042909417"><ele>642.0</ele><time>2026-04-26T09:24:37.002Z</time></trkpt><trkpt lat="46.082135275660455" lon="9.337983533820548"><ele>636.3333333333334</ele><time>2026-04-26T09:24:38.002Z</time></trkpt><trkpt lat="46.082139441611474" lon="9.337768692862346"><ele>630.6666666666667</ele><time>2026-04-26T09:24:39.002Z</time></trkpt><trkpt lat="46.08218008321122" lon="9.337533138138834"><ele>625.0</ele><time>2026-04-26T09:24:40.002Z</time></trkpt><trkpt lat="46.08218660463747" lon="9.337303866227058"><ele>620.5</ele><time>2026-04-26T09:24:41.002Z</time></trkpt><trkpt lat="46.082192699827" lon="9.337101096090853"><ele>616.0</ele><time>2026-04-26T09:24:42.002Z</time></trkpt><trkpt lat="46.08222486084163" lon="9.336926833879229"><ele>611.5</ele><time>2026-04-26T09:24:43.002Z</time></trkpt><trkpt lat="46.08226712880424" lon="9.336806854817617"><ele>607.0</ele><time>2026-04-26T09:24:44.002Z</time></trkpt><trkpt lat="46.08237402032836" lon="9.336747707860539"><ele>610.5</ele><time>2026-04-26T09:24:46.002Z</time></trkpt><trkpt lat="46.08243543778446" lon="9.33678142705573"><ele>614.0</ele><time>2026-04-26T09:24:47.002Z</time></trkpt><trkpt lat="46.08246523893012" lon="9.33692194359646"><ele>617.5</ele><time>2026-04-26T09:24:48.002Z</time></trkpt><trkpt lat="46.082510324218134" lon="9.3370394277844"><ele>621.0</ele><time>2026-04-26T09:24:49.002Z</time></trkpt><trkpt lat="46.08256455970371" lon="9.337143849353515"><ele>624.5</ele><time>2026-04-26T09:24:50.002Z</time></trkpt><trkpt lat="46.08263675547732" lon="9.33718634442355"><ele>628.0</ele><time>2026-04-26T09:24:51.002Z</time></trkpt><trkpt lat="46.08273111294366" lon="9.337150263146311"><ele>628.0</ele><time>2026-04-26T09:24:52.002Z</time></trkpt><trkpt lat="46.08281545230514" lon="9.337084218134333"><ele>628.0</ele><time>2026-04-26T09:24:53.002Z</time></trkpt><trkpt lat="46.08293787359704" lon="9.33724761272579"><ele>628.0</ele><time>2026-04-26T09:24:55.002Z</time></trkpt><trkpt lat="46.0830162762843" lon="9.337294900413394"><ele>628.0</ele><time>2026-04-26T09:24:56.002Z</time></trkpt><trkpt lat="46.08311999800293" lon="9.33733090710071"><ele>630.4</ele><time>2026-04-26T09:24:57.002Z</time></trkpt><trkpt lat="46.08321727853151" lon="9.337290912998752"><ele>632.8</ele><time>2026-04-26T09:24:58.002Z</time></trkpt><trkpt lat="46.08331068223813" lon="9.337176389779128"><ele>635.2</ele><time>2026-04-26T09:24:59.002Z</time></trkpt><trkpt lat="46.0833907720406" lon="9.337064066226338"><ele>637.6</ele><time>2026-04-26T09:25:00.002Z</time></trkpt><trkpt lat="46.083499738671385" lon="9.337021960135415"><ele>640.0</ele><time>2026-04-26T09:25:01.002Z</time></trkpt><trkpt lat="46.08359125009126" lon="9.336962718249325"><ele>640.0</ele><time>2026-04-26T09:25:02.002Z</time></trkpt><trkpt lat="46.08364213315962" lon="9.336829805878178"><ele>640.0</ele><time>2026-04-26T09:25:03Z</time></trkpt><trkpt lat="46.08368026276004" lon="9.33672772308504"><ele>640.0</ele><time>2026-04-26T09:25:04Z</time></trkpt><trkpt lat="46.08382457734103" lon="9.336614016026788"><ele>640.0</ele><time>2026-04-26T09:25:06Z</time></trkpt><trkpt lat="46.08390308922759" lon="9.336520232461293"><ele>640.0</ele><time>2026-04-26T09:25:07Z</time></trkpt><trkpt lat="46.08395156132753" lon="9.336401912190768"><ele>640.0</ele><time>2026-04-26T09:25:08Z</time></trkpt><trkpt lat="46.08393175157371" lon="9.336287362121647"><ele>640.0</ele><time>2026-04-26T09:25:09Z</time></trkpt><trkpt lat="46.083883339775966" lon="9.336195308599901"><ele>640.0</ele><time>2026-04-26T09:25:10Z</time></trkpt><trkpt lat="46.08380351388547" lon="9.3360744796345"><ele>640.0</ele><time>2026-04-26T09:25:11Z</time></trkpt><trkpt lat="46.0837082578713" lon="9.336007170431515"><ele>639.4</ele><time>2026-04-26T09:25:12Z</time></trkpt><trkpt lat="46.08362838160746" lon="9.335972964412054"><ele>638.8</ele><time>2026-04-26T09:25:13Z</time></trkpt><trkpt lat="46.08351401360358" lon="9.33598947230854"><ele>638.2</ele><time>2026-04-26T09:25:14Z</time></trkpt><trkpt lat="46.083403367437924" lon="9.335996518927589"><ele>637.6</ele><time>2026-04-26T09:25:15Z</time></trkpt><trkpt lat="46.08331587383094" lon="9.335986303964292"><ele>637.0</ele><time>2026-04-26T09:25:16Z</time></trkpt><trkpt lat="46.08323392301906" lon="9.336018458906807"><ele>629.4</ele><time>2026-04-26T09:25:17Z</time></trkpt><trkpt lat="46.08317262407595" lon="9.33598900047249"><ele>621.8000000000001</ele><time>2026-04-26T09:25:18Z</time></trkpt><trkpt lat="46.0831427276192" lon="9.335839176301265"><ele>614.2</ele><time>2026-04-26T09:25:19Z</time></trkpt><trkpt lat="46.08312405396603" lon="9.335723896038175"><ele>606.6</ele><time>2026-04-26T09:25:20Z</time></trkpt><trkpt lat="46.08313694892691" lon="9.335564724946643"><ele>599.0</ele><time>2026-04-26T09:25:21Z</time></trkpt><trkpt lat="46.083134168841184" lon="9.33531469105537"><ele>597.6666666666666</ele><time>2026-04-26T09:25:22Z</time></trkpt><trkpt lat="46.083126196023905" lon="9.335041570406842"><ele>596.3333333333334</ele><time>2026-04-26T09:25:23Z</time></trkpt><trkpt lat="46.08306117767012" lon="9.334778037166972"><ele>595.0</ele><time>2026-04-26T09:25:24Z</time></trkpt><trkpt lat="46.083047150276464" lon="9.334549272083136"><ele>595.0</ele><time>2026-04-26T09:25:25Z</time></trkpt><trkpt lat="46.08304615252711" lon="9.334350954187483"><ele>595.0</ele><time>2026-04-26T09:25:26Z</time></trkpt><trkpt lat="46.083057183805884" lon="9.334193056748388"><ele>595.0</ele><time>2026-04-26T09:25:27Z</time></trkpt><trkpt lat="46.08309477248808" lon="9.334067206138222"><ele>595.0</ele><time>2026-04-26T09:25:28Z</time></trkpt><trkpt lat="46.08311103967373" lon="9.333948941576308"><ele>595.0</ele><time>2026-04-26T09:25:29Z</time></trkpt><trkpt lat="46.08306247487891" lon="9.333811895507166"><ele>596.0</ele><time>2026-04-26T09:25:30Z</time></trkpt><trkpt lat="46.083003641074505" lon="9.333658670266924"><ele>597.0</ele><time>2026-04-26T09:25:31Z</time></trkpt><trkpt lat="46.0829628697245" lon="9.333476367131933"><ele>598.0</ele><time>2026-04-26T09:25:32Z</time></trkpt><trkpt lat="46.08291841612717" lon="9.33331405750924"><ele>599.0</ele><time>2026-04-26T09:25:33Z</time></trkpt><trkpt lat="46.082881271187425" lon="9.333198892532526"><ele>599.0</ele><time>2026-04-26T09:25:34Z</time></trkpt><trkpt lat="46.08283974325962" lon="9.333102397432945"><ele>599.0</ele><time>2026-04-26T09:25:35Z</time></trkpt><trkpt lat="46.08280714558232" lon="9.332977829740127"><ele>599.0</ele><time>2026-04-26T09:25:38.001Z</time></trkpt><trkpt lat="46.08278446235322" lon="9.332846106978598"><ele>599.0</ele><time>2026-04-26T09:25:40.001Z</time></trkpt><trkpt lat="46.08277115578341" lon="9.332657356270001"><ele>599.0</ele><time>2026-04-26T09:25:42.001Z</time></trkpt><trkpt lat="46.08274434963312" lon="9.332570402428653"><ele>598.0</ele><time>2026-04-26T09:25:43.001Z</time></trkpt><trkpt lat="46.082711144910895" lon="9.332409998580102"><ele>597.0</ele><time>2026-04-26T09:25:44.001Z</time></trkpt><trkpt lat="46.0826737792357" lon="9.332263761219323"><ele>596.0</ele><time>2026-04-26T09:25:45.001Z</time></trkpt><trkpt lat="46.08265866050068" lon="9.332087749201945"><ele>595.0</ele><time>2026-04-26T09:25:46.001Z</time></trkpt><trkpt lat="46.08260088823054" lon="9.331943659580178"><ele>594.6</ele><time>2026-04-26T09:25:47.001Z</time></trkpt><trkpt lat="46.08258076159672" lon="9.331789375890164"><ele>594.2</ele><time>2026-04-26T09:25:48.001Z</time></trkpt><trkpt lat="46.08254917472526" lon="9.331624239299659"><ele>593.8</ele><time>2026-04-26T09:25:49.001Z</time></trkpt><trkpt lat="46.082533080469084" lon="9.331484467492194"><ele>593.4</ele><time>2026-04-26T09:25:50.001Z</time></trkpt><trkpt lat="46.08259917088737" lon="9.331358296979792"><ele>593.0</ele><time>2026-04-26T09:25:51.001Z</time></trkpt><trkpt lat="46.082628571225996" lon="9.331210327563877"><ele>591.0</ele><time>2026-04-26T09:25:52.001Z</time></trkpt><trkpt lat="46.08263791811134" lon="9.331059121635525"><ele>589.0</ele><time>2026-04-26T09:25:53.001Z</time></trkpt><trkpt lat="46.08268575466727" lon="9.3308686345163"><ele>587.0</ele><time>2026-04-26T09:25:54.001Z</time></trkpt><trkpt lat="46.08273113535931" lon="9.330740032126993"><ele>585.0</ele><time>2026-04-26T09:25:55.001Z</time></trkpt><trkpt lat="46.0828668563729" lon="9.330638946251993"><ele>579.0</ele><time>2026-04-26T09:25:57.001Z</time></trkpt><trkpt lat="46.08295212659376" lon="9.33052209018515"><ele>573.0</ele><time>2026-04-26T09:25:58.001Z</time></trkpt><trkpt lat="46.08302912016753" lon="9.330447768748515"><ele>567.0</ele><time>2026-04-26T09:25:59.001Z</time></trkpt><trkpt lat="46.083058486873576" lon="9.330320618858549"><ele>561.0</ele><time>2026-04-26T09:26:00.001Z</time></trkpt><trkpt lat="46.083068925270176" lon="9.330109949117347"><ele>561.0</ele><time>2026-04-26T09:26:01.001Z</time></trkpt><trkpt lat="46.0831250539804" lon="9.329966444018853"><ele>561.0</ele><time>2026-04-26T09:26:02.001Z</time></trkpt><trkpt lat="46.083186973219895" lon="9.32983264777694"><ele>561.0</ele><time>2026-04-26T09:26:03.001Z</time></trkpt><trkpt lat="46.08326559839937" lon="9.32970987034498"><ele>561.0</ele><time>2026-04-26T09:26:04.001Z</time></trkpt><trkpt lat="46.08336671660176" lon="9.32955230493585"><ele>568.0</ele><time>2026-04-26T09:26:05.001Z</time></trkpt><trkpt lat="46.08347349793655" lon="9.329387801050014"><ele>575.0</ele><time>2026-04-26T09:26:06.001Z</time></trkpt><trkpt lat="46.08356250481759" lon="9.329248997195231"><ele>582.0</ele><time>2026-04-26T09:26:07.001Z</time></trkpt><trkpt lat="46.0836408266381" lon="9.32911662662144"><ele>589.0</ele><time>2026-04-26T09:26:08.001Z</time></trkpt><trkpt lat="46.083685102188014" lon="9.328996508410162"><ele>589.0</ele><time>2026-04-26T09:26:09.001Z</time></trkpt><trkpt lat="46.083711719006146" lon="9.328896365107234"><ele>589.0</ele><time>2026-04-26T09:26:10.001Z</time></trkpt><trkpt lat="46.0837156382364" lon="9.32880486681111"><ele>589.0</ele><time>2026-04-26T09:26:11.001Z</time></trkpt><trkpt lat="46.08368492985204" lon="9.3287054407625"><ele>589.0</ele><time>2026-04-26T09:26:12.001Z</time></trkpt><trkpt lat="46.083629091106445" lon="9.328615439582467"><ele>589.0</ele><time>2026-04-26T09:26:13.001Z</time></trkpt><trkpt lat="46.08361180034193" lon="9.32850030746656"><ele>589.0</ele><time>2026-04-26T09:26:14.001Z</time></trkpt><trkpt lat="46.08362886168413" lon="9.328335193357178"><ele>586.8</ele><time>2026-04-26T09:26:15.001Z</time></trkpt><trkpt lat="46.08362972293312" lon="9.328202656944558"><ele>584.5999999999999</ele><time>2026-04-26T09:26:16.001Z</time></trkpt><trkpt lat="46.083650877759354" lon="9.328047729289377"><ele>582.4</ele><time>2026-04-26T09:26:17.001Z</time></trkpt><trkpt lat="46.08367505870105" lon="9.32792017945896"><ele>580.1999999999999</ele><time>2026-04-26T09:26:18.001Z</time></trkpt><trkpt lat="46.08369348851215" lon="9.327821082453836"><ele>578.0</ele><time>2026-04-26T09:26:19.001Z</time></trkpt><trkpt lat="46.08363007703248" lon="9.32770643145457"><ele>578.0</ele><time>2026-04-26T09:26:21.001Z</time></trkpt><trkpt lat="46.08351764069245" lon="9.327751327997317"><ele>578.0</ele><time>2026-04-26T09:26:23.001Z</time></trkpt><trkpt lat="46.08348135331579" lon="9.327839251501944"><ele>578.0</ele><time>2026-04-26T09:26:24.001Z</time></trkpt><trkpt lat="46.08348507694324" lon="9.3279598229399"><ele>578.0</ele><time>2026-04-26T09:26:25.001Z</time></trkpt><trkpt lat="46.08350331674161" lon="9.328087421265304"><ele>578.0</ele><time>2026-04-26T09:26:26.001Z</time></trkpt><trkpt lat="46.08349923137713" lon="9.328242596897395"><ele>578.0</ele><time>2026-04-26T09:26:27.001Z</time></trkpt><trkpt lat="46.083471212176114" lon="9.328405428828676"><ele>578.0</ele><time>2026-04-26T09:26:28.001Z</time></trkpt><trkpt lat="46.0834381003978" lon="9.328560075852838"><ele>578.0</ele><time>2026-04-26T09:26:29.001Z</time></trkpt><trkpt lat="46.083400583935905" lon="9.328706352046618"><ele>578.0</ele><time>2026-04-26T09:26:30.001Z</time></trkpt><trkpt lat="46.08336067562941" lon="9.32883419265629"><ele>578.0</ele><time>2026-04-26T09:26:31.001Z</time></trkpt><trkpt lat="46.08328455905495" lon="9.328938419967495"><ele>570.25</ele><time>2026-04-26T09:26:32.001Z</time></trkpt><trkpt lat="46.08319080877105" lon="9.329019528521297"><ele>562.5</ele><time>2026-04-26T09:26:33.001Z</time></trkpt><trkpt lat="46.08307645541828" lon="9.329089666949656"><ele>554.75</ele><time>2026-04-26T09:26:34.001Z</time></trkpt><trkpt lat="46.08297373625137" lon="9.32920618425546"><ele>547.0</ele><time>2026-04-26T09:26:35.001Z</time></trkpt><trkpt lat="46.082893333531096" lon="9.32940831471323"><ele>547.0</ele><time>2026-04-26T09:26:36.001Z</time></trkpt><trkpt lat="46.08280835389566" lon="9.329579777598733"><ele>547.0</ele><time>2026-04-26T09:26:37.001Z</time></trkpt><trkpt lat="46.08273346306242" lon="9.329773249935918"><ele>547.0</ele><time>2026-04-26T09:26:38.001Z</time></trkpt><trkpt lat="46.0826723372822" lon="9.329959817837903"><ele>547.0</ele><time>2026-04-26T09:26:39.001Z</time></trkpt><trkpt lat="46.08256542424606" lon="9.330099160202597"><ele>551.6666666666667</ele><time>2026-04-26T09:26:40.001Z</time></trkpt><trkpt lat="46.08251623563104" lon="9.330241682270403"><ele>556.3333333333334</ele><time>2026-04-26T09:26:41.001Z</time></trkpt><trkpt lat="46.08240072062266" lon="9.330411823847115"><ele>561.0</ele><time>2026-04-26T09:26:42.002Z</time></trkpt><trkpt lat="46.08225806470948" lon="9.330555379088773"><ele>550.3333333333334</ele><time>2026-04-26T09:26:43.002Z</time></trkpt><trkpt lat="46.08213719344474" lon="9.330665544361745"><ele>539.6666666666667</ele><time>2026-04-26T09:26:44.002Z</time></trkpt><trkpt lat="46.08200715553826" lon="9.33076788580187"><ele>529.0</ele><time>2026-04-26T09:26:45.002Z</time></trkpt><trkpt lat="46.08161543126415" lon="9.330898378878937"><ele>529.0</ele><time>2026-04-26T09:26:46.002Z</time></trkpt><trkpt lat="46.0814391572329" lon="9.330835812092301"><ele>529.0</ele><time>2026-04-26T09:26:47.002Z</time></trkpt><trkpt lat="46.08203914794744" lon="9.33098848083407"><ele>529.0</ele><time>2026-04-26T09:26:48.002Z</time></trkpt><trkpt lat="46.081987313272776" lon="9.331061736330842"><ele>529.0</ele><time>2026-04-26T09:26:49.002Z</time></trkpt><trkpt lat="46.08192581807525" lon="9.331039436700932"><ele>529.0</ele><time>2026-04-26T09:26:50.002Z</time></trkpt><trkpt lat="46.08191982388839" lon="9.330947574563206"><ele>529.0</ele><time>2026-04-26T09:26:51.002Z</time></trkpt><trkpt lat="46.08196410069441" lon="9.330787539847334"><ele>529.0</ele><time>2026-04-26T09:26:53.002Z</time></trkpt><trkpt lat="46.08207021819596" lon="9.330741350441539"><ele>529.0</ele><time>2026-04-26T09:26:54.002Z</time></trkpt><trkpt lat="46.0821657785848" lon="9.330633042601962"><ele>519.3333333333334</ele><time>2026-04-26T09:26:55.002Z</time></trkpt><trkpt lat="46.08226661401499" lon="9.330495062491833"><ele>509.66666666666663</ele><time>2026-04-26T09:26:56.002Z</time></trkpt><trkpt lat="46.08236052890628" lon="9.330330656329322"><ele>500.0</ele><time>2026-04-26T09:26:57.002Z</time></trkpt><trkpt lat="46.08246025893067" lon="9.33013880293049"><ele>515.6666666666666</ele><time>2026-04-26T09:26:58.002Z</time></trkpt><trkpt lat="46.08252770197462" lon="9.329906694244281"><ele>531.3333333333334</ele><time>2026-04-26T09:26:59.002Z</time></trkpt><trkpt lat="46.08256990069116" lon="9.329667080924596"><ele>547.0</ele><time>2026-04-26T09:27:00.002Z</time></trkpt><trkpt lat="46.082601318503066" lon="9.329414889492313"><ele>547.0</ele><time>2026-04-26T09:27:01.002Z</time></trkpt><trkpt lat="46.082620549972255" lon="9.329132643702856"><ele>547.0</ele><time>2026-04-26T09:27:02.002Z</time></trkpt><trkpt lat="46.08263743377454" lon="9.328835763087746"><ele>547.0</ele><time>2026-04-26T09:27:03.002Z</time></trkpt><trkpt lat="46.08266432038114" lon="9.328525665576477"><ele>541.0</ele><time>2026-04-26T09:27:04.002Z</time></trkpt><trkpt lat="46.08267541056928" lon="9.328182481917457"><ele>535.0</ele><time>2026-04-26T09:27:05.002Z</time></trkpt><trkpt lat="46.08268139793912" lon="9.327845699241593"><ele>529.3333333333334</ele><time>2026-04-26T09:27:06.002Z</time></trkpt><trkpt lat="46.08268827700793" lon="9.327515202278835"><ele>523.6666666666666</ele><time>2026-04-26T09:27:07.002Z</time></trkpt><trkpt lat="46.082710649000845" lon="9.32721061824964"><ele>518.0</ele><time>2026-04-26T09:27:08.002Z</time></trkpt><trkpt lat="46.08272920021443" lon="9.326903322231486"><ele>517.6666666666666</ele><time>2026-04-26T09:27:09.001Z</time></trkpt><trkpt lat="46.082748542967764" lon="9.326609689754351"><ele>517.3333333333334</ele><time>2026-04-26T09:27:10.001Z</time></trkpt><trkpt lat="46.08275771595968" lon="9.32632312980653"><ele>517.0</ele><time>2026-04-26T09:27:11.001Z</time></trkpt><trkpt lat="46.082776045273455" lon="9.326060415412128"><ele>516.3333333333334</ele><time>2026-04-26T09:27:12.001Z</time></trkpt><trkpt lat="46.08279405368881" lon="9.325833175156372"><ele>515.6666666666666</ele><time>2026-04-26T09:27:13.001Z</time></trkpt><trkpt lat="46.0827916809578" lon="9.325600971553369"><ele>515.0</ele><time>2026-04-26T09:27:14.001Z</time></trkpt><trkpt lat="46.08277395802528" lon="9.325380912124503"><ele>518.0</ele><time>2026-04-26T09:27:15.001Z</time></trkpt><trkpt lat="46.082740412047876" lon="9.325154201029367"><ele>521.0</ele><time>2026-04-26T09:27:16.001Z</time></trkpt><trkpt lat="46.08267183660887" lon="9.324924805505265"><ele>524.0</ele><time>2026-04-26T09:27:17.001Z</time></trkpt><trkpt lat="46.08262199300336" lon="9.324696717095323"><ele>525.3333333333333</ele><time>2026-04-26T09:27:18.001Z</time></trkpt><trkpt lat="46.08257890729558" lon="9.324465547469991"><ele>526.6666666666666</ele><time>2026-04-26T09:27:19.001Z</time></trkpt><trkpt lat="46.082542792224515" lon="9.324260642480986"><ele>528.0</ele><time>2026-04-26T09:27:20.001Z</time></trkpt><trkpt lat="46.082490981527506" lon="9.324073887748598"><ele>521.3333333333334</ele><time>2026-04-26T09:27:21.001Z</time></trkpt><trkpt lat="46.08238741997427" lon="9.32387977266083"><ele>514.6666666666667</ele><time>2026-04-26T09:27:22.001Z</time></trkpt><trkpt lat="46.08225302382276" lon="9.32367371546963"><ele>508.0</ele><time>2026-04-26T09:27:23.001Z</time></trkpt><trkpt lat="46.08214039767159" lon="9.323479722712783"><ele>508.0</ele><time>2026-04-26T09:27:24.001Z</time></trkpt><trkpt lat="46.08201138275938" lon="9.323295387782892"><ele>508.0</ele><time>2026-04-26T09:27:25.001Z</time></trkpt><trkpt lat="46.0818981447318" lon="9.323100175191154"><ele>508.0</ele><time>2026-04-26T09:27:26.001Z</time></trkpt><trkpt lat="46.0817673479163" lon="9.322914899401528"><ele>511.0</ele><time>2026-04-26T09:27:27.001Z</time></trkpt><trkpt lat="46.08162093059023" lon="9.3227215917874"><ele>514.0</ele><time>2026-04-26T09:27:28.001Z</time></trkpt><trkpt lat="46.081473209973595" lon="9.322566073026827"><ele>517.0</ele><time>2026-04-26T09:27:29.001Z</time></trkpt><trkpt lat="46.08133703770808" lon="9.322412979769988"><ele>512.0</ele><time>2026-04-26T09:27:30.001Z</time></trkpt><trkpt lat="46.08120661522687" lon="9.32226080471071"><ele>507.0</ele><time>2026-04-26T09:27:31.001Z</time></trkpt><trkpt lat="46.081086537023374" lon="9.322105442317216"><ele>502.0</ele><time>2026-04-26T09:27:32.001Z</time></trkpt><trkpt lat="46.081010431805474" lon="9.321890275200527"><ele>502.0</ele><time>2026-04-26T09:27:33.001Z</time></trkpt><trkpt lat="46.080909062678366" lon="9.321672933201363"><ele>502.0</ele><time>2026-04-26T09:27:34.001Z</time></trkpt><trkpt lat="46.08081219524965" lon="9.321442687517008"><ele>502.0</ele><time>2026-04-26T09:27:35.001Z</time></trkpt><trkpt lat="46.08068754765964" lon="9.321235445213492"><ele>494.6666666666667</ele><time>2026-04-26T09:27:36.001Z</time></trkpt><trkpt lat="46.080556429262664" lon="9.321005395764733"><ele>487.33333333333337</ele><time>2026-04-26T09:27:37.001Z</time></trkpt><trkpt lat="46.080410865778944" lon="9.320783858842463"><ele>480.0</ele><time>2026-04-26T09:27:38.001Z</time></trkpt><trkpt lat="46.08026919517793" lon="9.320575849586575"><ele>485.0</ele><time>2026-04-26T09:27:39.001Z</time></trkpt><trkpt lat="46.08013282233178" lon="9.32038275964985"><ele>490.0</ele><time>2026-04-26T09:27:40.001Z</time></trkpt><trkpt lat="46.080001965456404" lon="9.32019842146056"><ele>495.0</ele><time>2026-04-26T09:27:41.001Z</time></trkpt><trkpt lat="46.07987542054978" lon="9.320015856560422"><ele>484.66666666666663</ele><time>2026-04-26T09:27:42.001Z</time></trkpt><trkpt lat="46.07975365456715" lon="9.319845187941866"><ele>474.3333333333333</ele><time>2026-04-26T09:27:43.001Z</time></trkpt><trkpt lat="46.0796425372496" lon="9.319679162487331"><ele>464.0</ele><time>2026-04-26T09:27:44.001Z</time></trkpt><trkpt lat="46.079537221287374" lon="9.319529021958326"><ele>463.5</ele><time>2026-04-26T09:27:45.001Z</time></trkpt><trkpt lat="46.07944376843119" lon="9.319384317531288"><ele>463.0</ele><time>2026-04-26T09:27:46.001Z</time></trkpt><trkpt lat="46.07938873362224" lon="9.31922620259958"><ele>462.5</ele><time>2026-04-26T09:27:47.001Z</time></trkpt><trkpt lat="46.079354190899416" lon="9.31907875899233"><ele>462.0</ele><time>2026-04-26T09:27:48.001Z</time></trkpt><trkpt lat="46.07934541642525" lon="9.318924263633615"><ele>460.5</ele><time>2026-04-26T09:27:49.001Z</time></trkpt><trkpt lat="46.07935826521952" lon="9.318765556486754"><ele>459.0</ele><time>2026-04-26T09:27:50.001Z</time></trkpt><trkpt lat="46.07938988953252" lon="9.31862192220667"><ele>457.5</ele><time>2026-04-26T09:27:51.001Z</time></trkpt><trkpt lat="46.07944608292619" lon="9.318478168823132"><ele>456.0</ele><time>2026-04-26T09:27:52.001Z</time></trkpt><trkpt lat="46.07950900717264" lon="9.318318734464258"><ele>456.0</ele><time>2026-04-26T09:27:53.001Z</time></trkpt><trkpt lat="46.07960371901298" lon="9.318175171223743"><ele>456.0</ele><time>2026-04-26T09:27:54.001Z</time></trkpt><trkpt lat="46.07969694697885" lon="9.31801886927999"><ele>456.0</ele><time>2026-04-26T09:27:55.001Z</time></trkpt><trkpt lat="46.07978551937692" lon="9.3178537583082"><ele>456.0</ele><time>2026-04-26T09:27:56.001Z</time></trkpt><trkpt lat="46.07987106689001" lon="9.317680787426527"><ele>458.5</ele><time>2026-04-26T09:27:57.001Z</time></trkpt><trkpt lat="46.07995892547889" lon="9.317522790021883"><ele>461.0</ele><time>2026-04-26T09:27:58.001Z</time></trkpt><trkpt lat="46.080068999131285" lon="9.317402827596718"><ele>463.5</ele><time>2026-04-26T09:27:59.001Z</time></trkpt><trkpt lat="46.080174867397034" lon="9.317294577084494"><ele>466.0</ele><time>2026-04-26T09:28:00.001Z</time></trkpt><trkpt lat="46.08029079292378" lon="9.317199486726139"><ele>459.5</ele><time>2026-04-26T09:28:01.001Z</time></trkpt><trkpt lat="46.08040821594859" lon="9.31713307703913"><ele>453.0</ele><time>2026-04-26T09:28:02.001Z</time></trkpt><trkpt lat="46.0805267989517" lon="9.317071601756126"><ele>446.5</ele><time>2026-04-26T09:28:03.001Z</time></trkpt><trkpt lat="46.08061829382568" lon="9.316957053413535"><ele>440.0</ele><time>2026-04-26T09:28:04.001Z</time></trkpt><trkpt lat="46.08068144357836" lon="9.316806798394754"><ele>440.0</ele><time>2026-04-26T09:28:05.001Z</time></trkpt><trkpt lat="46.08071876317689" lon="9.316632567513192"><ele>440.0</ele><time>2026-04-26T09:28:06.001Z</time></trkpt><trkpt lat="46.08075674396662" lon="9.316473830112214"><ele>440.0</ele><time>2026-04-26T09:28:07.001Z</time></trkpt><trkpt lat="46.080848528053615" lon="9.316381561094666"><ele>440.0</ele><time>2026-04-26T09:28:08.001Z</time></trkpt><trkpt lat="46.080949022795934" lon="9.316344690219184"><ele>438.2</ele><time>2026-04-26T09:28:09.001Z</time></trkpt><trkpt lat="46.081028638706265" lon="9.316365492343134"><ele>436.4</ele><time>2026-04-26T09:28:10.001Z</time></trkpt><trkpt lat="46.08115173701179" lon="9.316363705232982"><ele>434.6</ele><time>2026-04-26T09:28:11.001Z</time></trkpt><trkpt lat="46.08125449536891" lon="9.316344060466372"><ele>432.8</ele><time>2026-04-26T09:28:12.001Z</time></trkpt><trkpt lat="46.081339765561836" lon="9.316297570221444"><ele>431.0</ele><time>2026-04-26T09:28:13.001Z</time></trkpt><trkpt lat="46.08135885948334" lon="9.316162519998668"><ele>431.0</ele><time>2026-04-26T09:28:14.001Z</time></trkpt><trkpt lat="46.08131903002827" lon="9.316065992412858"><ele>431.0</ele><time>2026-04-26T09:28:15.001Z</time></trkpt><trkpt lat="46.08123912689159" lon="9.31600341641357"><ele>431.0</ele><time>2026-04-26T09:28:16.001Z</time></trkpt><trkpt lat="46.0811301730988" lon="9.315994419734887"><ele>431.0</ele><time>2026-04-26T09:28:17.001Z</time></trkpt><trkpt lat="46.08098326836176" lon="9.316021200500192"><ele>431.0</ele><time>2026-04-26T09:28:18.001Z</time></trkpt><trkpt lat="46.08083075029641" lon="9.316067635482376"><ele>433.25</ele><time>2026-04-26T09:28:19.001Z</time></trkpt><trkpt lat="46.08070531095165" lon="9.316140154289398"><ele>435.5</ele><time>2026-04-26T09:28:20.001Z</time></trkpt><trkpt lat="46.08061361862669" lon="9.316249208729403"><ele>437.75</ele><time>2026-04-26T09:28:21.001Z</time></trkpt><trkpt lat="46.08051781249842" lon="9.316405075011076"><ele>440.0</ele><time>2026-04-26T09:28:22.001Z</time></trkpt><trkpt lat="46.08042971186617" lon="9.316542799044717"><ele>440.0</ele><time>2026-04-26T09:28:23.001Z</time></trkpt><trkpt lat="46.08035063374235" lon="9.316638818149539"><ele>440.0</ele><time>2026-04-26T09:28:24.001Z</time></trkpt><trkpt lat="46.08027770635099" lon="9.316709075824267"><ele>440.0</ele><time>2026-04-26T09:28:25.001Z</time></trkpt><trkpt lat="46.08018195960678" lon="9.316676025890914"><ele>440.0</ele><time>2026-04-26T09:28:26.001Z</time></trkpt><trkpt lat="46.08007778250032" lon="9.316674318072254"><ele>440.0</ele><time>2026-04-26T09:28:27.001Z</time></trkpt><trkpt lat="46.07995610558409" lon="9.316662124176391"><ele>434.5</ele><time>2026-04-26T09:28:28.001Z</time></trkpt><trkpt lat="46.07985227780717" lon="9.316646814932772"><ele>429.0</ele><time>2026-04-26T09:28:29.001Z</time></trkpt><trkpt lat="46.079738017123525" lon="9.316675540754796"><ele>423.5</ele><time>2026-04-26T09:28:30.001Z</time></trkpt><trkpt lat="46.07962643269539" lon="9.316764319879187"><ele>418.0</ele><time>2026-04-26T09:28:31.001Z</time></trkpt><trkpt lat="46.079538375110424" lon="9.316872185289023"><ele>418.0</ele><time>2026-04-26T09:28:32.001Z</time></trkpt><trkpt lat="46.07948544436304" lon="9.317033932179072"><ele>418.0</ele><time>2026-04-26T09:28:33.001Z</time></trkpt><trkpt lat="46.07942036487282" lon="9.317213127268042"><ele>418.0</ele><time>2026-04-26T09:28:34.001Z</time></trkpt><trkpt lat="46.079320310781924" lon="9.31732456361687"><ele>418.0</ele><time>2026-04-26T09:28:35.001Z</time></trkpt><trkpt lat="46.07918793428199" lon="9.317370337095603"><ele>414.2</ele><time>2026-04-26T09:28:36.001Z</time></trkpt><trkpt lat="46.079076478120925" lon="9.317480355295949"><ele>410.4</ele><time>2026-04-26T09:28:37.001Z</time></trkpt><trkpt lat="46.078998249563575" lon="9.317608082155202"><ele>406.59999999999997</ele><time>2026-04-26T09:28:38.001Z</time></trkpt><trkpt lat="46.07894161473372" lon="9.317739031582436"><ele>402.79999999999995</ele><time>2026-04-26T09:28:39.001Z</time></trkpt><trkpt lat="46.07887443857394" lon="9.317780426630124"><ele>399.0</ele><time>2026-04-26T09:28:40.001Z</time></trkpt><trkpt lat="46.07877158015621" lon="9.317750830918994"><ele>399.0</ele><time>2026-04-26T09:28:42.001Z</time></trkpt><trkpt lat="46.07874569076381" lon="9.317658730882759"><ele>399.0</ele><time>2026-04-26T09:28:43.001Z</time></trkpt><trkpt lat="46.07875919578125" lon="9.317564134574525"><ele>399.0</ele><time>2026-04-26T09:28:44.001Z</time></trkpt><trkpt lat="46.078825488423035" lon="9.31749441994623"><ele>399.0</ele><time>2026-04-26T09:28:45.001Z</time></trkpt><trkpt lat="46.07893610999029" lon="9.31748067864337"><ele>399.0</ele><time>2026-04-26T09:28:46.001Z</time></trkpt><trkpt lat="46.07904495136726" lon="9.317384761339849"><ele>403.75</ele><time>2026-04-26T09:28:47.001Z</time></trkpt><trkpt lat="46.079160743037924" lon="9.317291143057773"><ele>408.5</ele><time>2026-04-26T09:28:48.001Z</time></trkpt><trkpt lat="46.07925705639191" lon="9.317166147480439"><ele>413.25</ele><time>2026-04-26T09:28:49.001Z</time></trkpt><trkpt lat="46.07933005055251" lon="9.316940091226192"><ele>418.0</ele><time>2026-04-26T09:28:50.001Z</time></trkpt><trkpt lat="46.079385280295575" lon="9.316754962480012"><ele>418.0</ele><time>2026-04-26T09:28:51.001Z</time></trkpt><trkpt lat="46.07944707980986" lon="9.316587527352858"><ele>418.0</ele><time>2026-04-26T09:28:52.001Z</time></trkpt><trkpt lat="46.07950917506098" lon="9.316403686344916"><ele>418.0</ele><time>2026-04-26T09:28:53.002Z</time></trkpt><trkpt lat="46.07958387040376" lon="9.316230866260383"><ele>418.0</ele><time>2026-04-26T09:28:54.002Z</time></trkpt><trkpt lat="46.07967108462612" lon="9.316077348920937"><ele>418.5</ele><time>2026-04-26T09:28:55.002Z</time></trkpt><trkpt lat="46.07976622835304" lon="9.315953326218382"><ele>419.0</ele><time>2026-04-26T09:28:56.002Z</time></trkpt><trkpt lat="46.07987319797475" lon="9.31584849352944"><ele>419.5</ele><time>2026-04-26T09:28:57.002Z</time></trkpt><trkpt lat="46.07999425414265" lon="9.31576275642351"><ele>420.0</ele><time>2026-04-26T09:28:58.002Z</time></trkpt><trkpt lat="46.08015517116406" lon="9.315677445135815"><ele>410.33333333333337</ele><time>2026-04-26T09:28:59.002Z</time></trkpt><trkpt lat="46.0803545720438" lon="9.315568556489879"><ele>400.6666666666667</ele><time>2026-04-26T09:29:00.002Z</time></trkpt><trkpt lat="46.080553847149005" lon="9.315459736281264"><ele>391.0</ele><time>2026-04-26T09:29:01.002Z</time></trkpt><trkpt lat="46.08072522080801" lon="9.315366152485856"><ele>392.25</ele><time>2026-04-26T09:29:02.002Z</time></trkpt><trkpt lat="46.080881998671224" lon="9.315279128074536"><ele>393.5</ele><time>2026-04-26T09:29:03.002Z</time></trkpt><trkpt lat="46.08101967334971" lon="9.31520559224185"><ele>394.75</ele><time>2026-04-26T09:29:04.002Z</time></trkpt><trkpt lat="46.081145398953474" lon="9.315171625987528"><ele>396.0</ele><time>2026-04-26T09:29:05.002Z</time></trkpt><trkpt lat="46.08126822689312" lon="9.315175723769395"><ele>396.0</ele><time>2026-04-26T09:29:06.002Z</time></trkpt><trkpt lat="46.081382762789715" lon="9.315212230233017"><ele>396.0</ele><time>2026-04-26T09:29:07.002Z</time></trkpt><trkpt lat="46.08148819320779" lon="9.31526213273672"><ele>396.0</ele><time>2026-04-26T09:29:08.002Z</time></trkpt><trkpt lat="46.08157666387716" lon="9.315264191327346"><ele>396.0</ele><time>2026-04-26T09:29:09.002Z</time></trkpt><trkpt lat="46.081679437833586" lon="9.31517368673216"><ele>396.0</ele><time>2026-04-26T09:29:11.002Z</time></trkpt><trkpt lat="46.08164730690046" lon="9.315031777767683"><ele>396.0</ele><time>2026-04-26T09:29:12.002Z</time></trkpt><trkpt lat="46.081592325744786" lon="9.314936185014252"><ele>396.0</ele><time>2026-04-26T09:29:13.002Z</time></trkpt><trkpt lat="46.081492986008975" lon="9.314888067313907"><ele>396.0</ele><time>2026-04-26T09:29:14.002Z</time></trkpt><trkpt lat="46.0813441928883" lon="9.31485809287901"><ele>396.0</ele><time>2026-04-26T09:29:15.001Z</time></trkpt><trkpt lat="46.08116308756409" lon="9.314837579979972"><ele>396.0</ele><time>2026-04-26T09:29:16.001Z</time></trkpt><trkpt lat="46.080950196597456" lon="9.314857225763705"><ele>396.0</ele><time>2026-04-26T09:29:17.001Z</time></trkpt><trkpt lat="46.080774059515385" lon="9.314849812245997"><ele>396.0</ele><time>2026-04-26T09:29:18.001Z</time></trkpt><trkpt lat="46.08061821121965" lon="9.314798329449"><ele>394.75</ele><time>2026-04-26T09:29:19.001Z</time></trkpt><trkpt lat="46.080471015104465" lon="9.31477469284732"><ele>393.5</ele><time>2026-04-26T09:29:20.001Z</time></trkpt><trkpt lat="46.08034396225768" lon="9.314745645615542"><ele>392.25</ele><time>2026-04-26T09:29:21.001Z</time></trkpt><trkpt lat="46.08022057986278" lon="9.31480849327378"><ele>391.0</ele><time>2026-04-26T09:29:22.001Z</time></trkpt><trkpt lat="46.080135092099866" lon="9.314935116690979"><ele>391.0</ele><time>2026-04-26T09:29:23.001Z</time></trkpt><trkpt lat="46.080045849311844" lon="9.315057481651872"><ele>391.0</ele><time>2026-04-26T09:29:24.001Z</time></trkpt><trkpt lat="46.07992493613322" lon="9.315155860176665"><ele>391.0</ele><time>2026-04-26T09:29:25.001Z</time></trkpt><trkpt lat="46.07977740826928" lon="9.315190202041828"><ele>391.0</ele><time>2026-04-26T09:29:26.001Z</time></trkpt><trkpt lat="46.07963644647304" lon="9.315237884004432"><ele>388.6</ele><time>2026-04-26T09:29:27.001Z</time></trkpt><trkpt lat="46.079551988256505" lon="9.31524156876722"><ele>386.20000000000005</ele><time>2026-04-26T09:29:28.001Z</time></trkpt><trkpt lat="46.079466716071565" lon="9.315132828953569"><ele>383.79999999999995</ele><time>2026-04-26T09:29:30.001Z</time></trkpt><trkpt lat="46.079487716948876" lon="9.315037799121061"><ele>381.4</ele><time>2026-04-26T09:29:31.001Z</time></trkpt><trkpt lat="46.07955787095046" lon="9.314954461843058"><ele>379.0</ele><time>2026-04-26T09:29:32.001Z</time></trkpt><trkpt lat="46.07968442766466" lon="9.314879080183161"><ele>379.0</ele><time>2026-04-26T09:29:33.001Z</time></trkpt><trkpt lat="46.07983811561832" lon="9.314777610592452"><ele>379.0</ele><time>2026-04-26T09:29:34.001Z</time></trkpt><trkpt lat="46.079974888951725" lon="9.314707076926823"><ele>379.0</ele><time>2026-04-26T09:29:35.001Z</time></trkpt><trkpt lat="46.080059447588006" lon="9.31464714782471"><ele>379.0</ele><time>2026-04-26T09:29:36.001Z</time></trkpt><trkpt lat="46.08010627216392" lon="9.314576317723569"><ele>377.2</ele><time>2026-04-26T09:29:37.001Z</time></trkpt><trkpt lat="46.080105759134234" lon="9.31446877411504"><ele>375.4</ele><time>2026-04-26T09:29:38.001Z</time></trkpt><trkpt lat="46.080072812235365" lon="9.314348264693086"><ele>373.6</ele><time>2026-04-26T09:29:39.001Z</time></trkpt><trkpt lat="46.079962491222005" lon="9.31432220271773"><ele>371.8</ele><time>2026-04-26T09:29:40.001Z</time></trkpt><trkpt lat="46.07982904267938" lon="9.314369621228986"><ele>370.0</ele><time>2026-04-26T09:29:41.001Z</time></trkpt><trkpt lat="46.07965614108755" lon="9.31446628539737"><ele>364.5</ele><time>2026-04-26T09:29:42.001Z</time></trkpt><trkpt lat="46.07943539814484" lon="9.314547270364487"><ele>359.0</ele><time>2026-04-26T09:29:43.001Z</time></trkpt><trkpt lat="46.07919869018289" lon="9.314644162588538"><ele>358.5</ele><time>2026-04-26T09:29:44.001Z</time></trkpt><trkpt lat="46.07894630173751" lon="9.314767888647946"><ele>358.0</ele><time>2026-04-26T09:29:45.001Z</time></trkpt><trkpt lat="46.078740403271674" lon="9.314888709840691"><ele>358.0</ele><time>2026-04-26T09:29:46.001Z</time></trkpt><trkpt lat="46.078564228183346" lon="9.315015074228528"><ele>358.0</ele><time>2026-04-26T09:29:47.001Z</time></trkpt><trkpt lat="46.07841600371497" lon="9.31511937314759"><ele>358.0</ele><time>2026-04-26T09:29:48.001Z</time></trkpt><trkpt lat="46.078283592393596" lon="9.315243388871602"><ele>349.0</ele><time>2026-04-26T09:29:49.001Z</time></trkpt><trkpt lat="46.07819563632472" lon="9.315408532139081"><ele>340.0</ele><time>2026-04-26T09:29:50.001Z</time></trkpt><trkpt lat="46.078139264022134" lon="9.315616260407607"><ele>331.0</ele><time>2026-04-26T09:29:51.001Z</time></trkpt><trkpt lat="46.07812266520584" lon="9.315880638215644"><ele>331.0</ele><time>2026-04-26T09:29:52.001Z</time></trkpt><trkpt lat="46.07803702865282" lon="9.3160884708539"><ele>331.0</ele><time>2026-04-26T09:29:53.001Z</time></trkpt><trkpt lat="46.07792653548014" lon="9.316262813502453"><ele>331.0</ele><time>2026-04-26T09:29:54.001Z</time></trkpt><trkpt lat="46.077814293849976" lon="9.316424277798998"><ele>331.0</ele><time>2026-04-26T09:29:55.001Z</time></trkpt><trkpt lat="46.07772072302589" lon="9.316554534838033"><ele>331.0</ele><time>2026-04-26T09:29:56.001Z</time></trkpt><trkpt lat="46.07765065351659" lon="9.316616392552707"><ele>331.0</ele><time>2026-04-26T09:29:58.001Z</time></trkpt><trkpt lat="46.07756387180145" lon="9.316513737148249"><ele>331.0</ele><time>2026-04-26T09:30:00.001Z</time></trkpt><trkpt lat="46.07758456753165" lon="9.316416231655033"><ele>331.0</ele><time>2026-04-26T09:30:01.001Z</time></trkpt><trkpt lat="46.07764788380019" lon="9.31630416604349"><ele>331.0</ele><time>2026-04-26T09:30:02.001Z</time></trkpt><trkpt lat="46.07773911846891" lon="9.316183191339308"><ele>331.0</ele><time>2026-04-26T09:30:03.001Z</time></trkpt><trkpt lat="46.07782392150214" lon="9.31604623639572"><ele>331.0</ele><time>2026-04-26T09:30:04.001Z</time></trkpt><trkpt lat="46.0778773252922" lon="9.31586240729341"><ele>331.0</ele><time>2026-04-26T09:30:05.001Z</time></trkpt><trkpt lat="46.07789981520651" lon="9.315645544542793"><ele>326.5</ele><time>2026-04-26T09:30:06.001Z</time></trkpt><trkpt lat="46.07788902855268" lon="9.315424489546297"><ele>322.0</ele><time>2026-04-26T09:30:07.001Z</time></trkpt><trkpt lat="46.07788628609118" lon="9.315223795081716"><ele>317.5</ele><time>2026-04-26T09:30:08.001Z</time></trkpt><trkpt lat="46.07789168572777" lon="9.315054349361956"><ele>313.0</ele><time>2026-04-26T09:30:09.001Z</time></trkpt><trkpt lat="46.07790912066194" lon="9.314893101078848"><ele>313.0</ele><time>2026-04-26T09:30:10.001Z</time></trkpt><trkpt lat="46.07793207950682" lon="9.314751675535625"><ele>313.0</ele><time>2026-04-26T09:30:11.001Z</time></trkpt><trkpt lat="46.07792900110105" lon="9.314632701869318"><ele>313.0</ele><time>2026-04-26T09:30:12.001Z</time></trkpt><trkpt lat="46.077853141209346" lon="9.314525729125641"><ele>313.0</ele><time>2026-04-26T09:30:13.001Z</time></trkpt><trkpt lat="46.077758223147384" lon="9.314572731454621"><ele>313.0</ele><time>2026-04-26T09:30:14.001Z</time></trkpt><trkpt lat="46.077698017325254" lon="9.314656925707453"><ele>313.0</ele><time>2026-04-26T09:30:15.001Z</time></trkpt><trkpt lat="46.07767113714948" lon="9.314749822617486"><ele>313.0</ele><time>2026-04-26T09:30:16.001Z</time></trkpt><trkpt lat="46.077649241970875" lon="9.314886134696549"><ele>313.0</ele><time>2026-04-26T09:30:17.001Z</time></trkpt><trkpt lat="46.07761883701097" lon="9.315082864120155"><ele>313.0</ele><time>2026-04-26T09:30:18.001Z</time></trkpt><trkpt lat="46.07759188116211" lon="9.31526373110157"><ele>313.0</ele><time>2026-04-26T09:30:19.001Z</time></trkpt><trkpt lat="46.07755559635687" lon="9.315397083068902"><ele>313.0</ele><time>2026-04-26T09:30:20.001Z</time></trkpt><trkpt lat="46.07747121421208" lon="9.315512648838885"><ele>313.0</ele><time>2026-04-26T09:30:21.001Z</time></trkpt><trkpt lat="46.07736954752806" lon="9.315597174308017"><ele>313.0</ele><time>2026-04-26T09:30:22.001Z</time></trkpt><trkpt lat="46.07724316773167" lon="9.315616628592947"><ele>313.0</ele><time>2026-04-26T09:30:23.001Z</time></trkpt><trkpt lat="46.07736790712745" lon="9.315575860859965"><ele>313.0</ele><time>2026-04-26T09:30:24.001Z</time></trkpt><trkpt lat="46.07731104729646" lon="9.315463292787182"><ele>313.0</ele><time>2026-04-26T09:30:26.001Z</time></trkpt><trkpt lat="46.07741111417068" lon="9.31529500280437"><ele>313.0</ele><time>2026-04-26T09:30:28.001Z</time></trkpt><trkpt lat="46.07747915793835" lon="9.315148649187583"><ele>313.0</ele><time>2026-04-26T09:30:29.001Z</time></trkpt><trkpt lat="46.07753084647857" lon="9.314988825422223"><ele>313.0</ele><time>2026-04-26T09:30:30.001Z</time></trkpt><trkpt lat="46.077540511901226" lon="9.3147895973598"><ele>313.0</ele><time>2026-04-26T09:30:31.001Z</time></trkpt><trkpt lat="46.07752764524582" lon="9.314608732608237"><ele>313.0</ele><time>2026-04-26T09:30:32.001Z</time></trkpt><trkpt lat="46.07753884367693" lon="9.314454643960001"><ele>313.0</ele><time>2026-04-26T09:30:33.001Z</time></trkpt><trkpt lat="46.077552635976936" lon="9.31434326346898"><ele>312.8333333333333</ele><time>2026-04-26T09:30:34.001Z</time></trkpt><trkpt lat="46.0775620418536" lon="9.31420503461024"><ele>312.66666666666663</ele><time>2026-04-26T09:30:35.001Z</time></trkpt><trkpt lat="46.0776273720112" lon="9.314180972425236"><ele>312.5</ele><time>2026-04-26T09:30:36.001Z</time></trkpt><trkpt lat="46.077730708773736" lon="9.31419561448124"><ele>312.3333333333333</ele><time>2026-04-26T09:30:38.001Z</time></trkpt><trkpt lat="46.077794501137475" lon="9.314229960423331"><ele>312.1666666666667</ele><time>2026-04-26T09:30:39.001Z</time></trkpt><trkpt lat="46.07787972858862" lon="9.314206583306598"><ele>312.0</ele><time>2026-04-26T09:30:40.001Z</time></trkpt><trkpt lat="46.077925383641016" lon="9.314100583023517"><ele>312.0</ele><time>2026-04-26T09:30:41.001Z</time></trkpt><trkpt lat="46.07798477331687" lon="9.313997348464163"><ele>312.0</ele><time>2026-04-26T09:30:42.001Z</time></trkpt><trkpt lat="46.07805233260381" lon="9.313901309958032"><ele>312.0</ele><time>2026-04-26T09:30:43.001Z</time></trkpt><trkpt lat="46.078093329301815" lon="9.313813798702121"><ele>312.0</ele><time>2026-04-26T09:30:44.001Z</time></trkpt><trkpt lat="46.07808842066001" lon="9.31371812060559"><ele>312.0</ele><time>2026-04-26T09:30:45.001Z</time></trkpt><trkpt lat="46.07800157074214" lon="9.313623237135639"><ele>312.0</ele><time>2026-04-26T09:30:46.001Z</time></trkpt><trkpt lat="46.07790260677671" lon="9.313569805662423"><ele>310.0</ele><time>2026-04-26T09:30:47.001Z</time></trkpt><trkpt lat="46.07780937848325" lon="9.313499873317435"><ele>308.0</ele><time>2026-04-26T09:30:48.001Z</time></trkpt><trkpt lat="46.07776743003879" lon="9.31339119756499"><ele>306.0</ele><time>2026-04-26T09:30:49.001Z</time></trkpt><trkpt lat="46.07780909268138" lon="9.313269888008518"><ele>304.0</ele><time>2026-04-26T09:30:50.001Z</time></trkpt><trkpt lat="46.07780681402194" lon="9.313171400439458"><ele>302.0</ele><time>2026-04-26T09:30:51.001Z</time></trkpt><trkpt lat="46.077932746250305" lon="9.313127688836644"><ele>302.0</ele><time>2026-04-26T09:30:53.001Z</time></trkpt><trkpt lat="46.078066763603445" lon="9.313183132292398"><ele>302.0</ele><time>2026-04-26T09:30:54.001Z</time></trkpt><trkpt lat="46.07816396048862" lon="9.313190696789755"><ele>302.0</ele><time>2026-04-26T09:30:55.001Z</time></trkpt><trkpt lat="46.07825600201291" lon="9.313169465540613"><ele>302.0</ele><time>2026-04-26T09:30:56.001Z</time></trkpt><trkpt lat="46.07833718941249" lon="9.313087982683708"><ele>302.0</ele><time>2026-04-26T09:30:57.001Z</time></trkpt><trkpt lat="46.07828745852343" lon="9.312968476056657"><ele>299.8</ele><time>2026-04-26T09:30:58.001Z</time></trkpt><trkpt lat="46.078223202262485" lon="9.312863066859858"><ele>297.6</ele><time>2026-04-26T09:30:59.001Z</time></trkpt><trkpt lat="46.0781266115095" lon="9.312807420353536"><ele>295.40000000000003</ele><time>2026-04-26T09:31:00.001Z</time></trkpt><trkpt lat="46.0780179034997" lon="9.312894198255021"><ele>293.2</ele><time>2026-04-26T09:31:01.001Z</time></trkpt><trkpt lat="46.07795151413408" lon="9.312989407559233"><ele>291.0</ele><time>2026-04-26T09:31:02.001Z</time></trkpt><trkpt lat="46.07787584787765" lon="9.31305161485326"><ele>291.0</ele><time>2026-04-26T09:31:03.001Z</time></trkpt><trkpt lat="46.077820495662266" lon="9.312934655420086"><ele>291.0</ele><time>2026-04-26T09:31:05.001Z</time></trkpt><trkpt lat="46.07784469105012" lon="9.312802495816594"><ele>291.0</ele><time>2026-04-26T09:31:06.001Z</time></trkpt><trkpt lat="46.077849445370944" lon="9.312680845181651"><ele>291.0</ele><time>2026-04-26T09:31:07.001Z</time></trkpt><trkpt lat="46.07791767026588" lon="9.312582803354925"><ele>291.0</ele><time>2026-04-26T09:31:09.002Z</time></trkpt><trkpt lat="46.07798811882093" lon="9.31259919044244"><ele>291.0</ele><time>2026-04-26T09:31:10.002Z</time></trkpt><trkpt lat="46.078081058012614" lon="9.312625955180184"><ele>291.0</ele><time>2026-04-26T09:31:11.002Z</time></trkpt><trkpt lat="46.07819971093721" lon="9.312646430161376"><ele>291.0</ele><time>2026-04-26T09:31:12.002Z</time></trkpt><trkpt lat="46.07834169844385" lon="9.312690621005041"><ele>291.0</ele><time>2026-04-26T09:31:13.002Z</time></trkpt><trkpt lat="46.078472360581934" lon="9.31271405919482"><ele>291.0</ele><time>2026-04-26T09:31:14.002Z</time></trkpt><trkpt lat="46.078591489216194" lon="9.31272578383196"><ele>292.8333333333333</ele><time>2026-04-26T09:31:15.002Z</time></trkpt><trkpt lat="46.07869069988583" lon="9.312739609998392"><ele>294.6666666666667</ele><time>2026-04-26T09:31:16.002Z</time></trkpt><trkpt lat="46.078760379178355" lon="9.312724435552465"><ele>296.5</ele><time>2026-04-26T09:31:18.002Z</time></trkpt><trkpt lat="46.0787767768851" lon="9.312624024611228"><ele>298.33333333333337</ele><time>2026-04-26T09:31:19.002Z</time></trkpt><trkpt lat="46.078736511594315" lon="9.312548513983753"><ele>300.1666666666667</ele><time>2026-04-26T09:31:20.002Z</time></trkpt><trkpt lat="46.07867859411445" lon="9.312487556965726"><ele>302.0</ele><time>2026-04-26T09:31:21.001Z</time></trkpt><trkpt lat="46.07857072787426" lon="9.312490422423128"><ele>302.0</ele><time>2026-04-26T09:31:22.001Z</time></trkpt><trkpt lat="46.078478779162594" lon="9.31242772836215"><ele>302.0</ele><time>2026-04-26T09:31:23.001Z</time></trkpt><trkpt lat="46.078384451158456" lon="9.312369728082915"><ele>302.0</ele><time>2026-04-26T09:31:24.001Z</time></trkpt><trkpt lat="46.07829334943483" lon="9.312299609062913"><ele>302.0</ele><time>2026-04-26T09:31:25.001Z</time></trkpt><trkpt lat="46.07819675144195" lon="9.312231994852178"><ele>302.0</ele><time>2026-04-26T09:31:26.001Z</time></trkpt><trkpt lat="46.07809931532137" lon="9.31220744072089"><ele>298.0</ele><time>2026-04-26T09:31:27.001Z</time></trkpt><trkpt lat="46.07799430191817" lon="9.312218458789747"><ele>294.0</ele><time>2026-04-26T09:31:28.001Z</time></trkpt><trkpt lat="46.077887281677086" lon="9.312206440602056"><ele>290.0</ele><time>2026-04-26T09:31:29.001Z</time></trkpt><trkpt lat="46.077785076954704" lon="9.31219718851685"><ele>286.0</ele><time>2026-04-26T09:31:30.001Z</time></trkpt><trkpt lat="46.0776829065338" lon="9.31220195903834"><ele>282.0</ele><time>2026-04-26T09:31:31.001Z</time></trkpt><trkpt lat="46.07758818123308" lon="9.312206345715449"><ele>282.0</ele><time>2026-04-26T09:31:32.001Z</time></trkpt><trkpt lat="46.077486971234045" lon="9.312199900112835"><ele>282.0</ele><time>2026-04-26T09:31:33.001Z</time></trkpt><trkpt lat="46.07742114922318" lon="9.312166622074788"><ele>282.0</ele><time>2026-04-26T09:31:34.001Z</time></trkpt><trkpt lat="46.077321829267554" lon="9.312195344001532"><ele>282.0</ele><time>2026-04-26T09:31:35.001Z</time></trkpt><trkpt lat="46.077220899111545" lon="9.312232396083253"><ele>282.0</ele><time>2026-04-26T09:31:36.001Z</time></trkpt><trkpt lat="46.07714064990803" lon="9.312266867246118"><ele>278.0</ele><time>2026-04-26T09:31:37.001Z</time></trkpt><trkpt lat="46.07704764261981" lon="9.312262121419362"><ele>274.0</ele><time>2026-04-26T09:31:39.001Z</time></trkpt><trkpt lat="46.07707179143269" lon="9.312122098333687"><ele>270.0</ele><time>2026-04-26T09:31:41.001Z</time></trkpt><trkpt lat="46.07730317863972" lon="9.312056691880134"><ele>266.0</ele><time>2026-04-26T09:31:44.001Z</time></trkpt><trkpt lat="46.077426309872706" lon="9.31200934779079"><ele>269.2</ele><time>2026-04-26T09:31:45.001Z</time></trkpt><trkpt lat="46.077526994759616" lon="9.311904435901312"><ele>272.40000000000003</ele><time>2026-04-26T09:31:46.001Z</time></trkpt><trkpt lat="46.07763353300894" lon="9.311850310837094"><ele>275.6</ele><time>2026-04-26T09:31:47.001Z</time></trkpt><trkpt lat="46.0777231511324" lon="9.311815041885573"><ele>278.8</ele><time>2026-04-26T09:31:48.001Z</time></trkpt><trkpt lat="46.07780927127089" lon="9.31181481593347"><ele>282.0</ele><time>2026-04-26T09:31:49.001Z</time></trkpt><trkpt lat="46.07787411601131" lon="9.311771886137375"><ele>282.0</ele><time>2026-04-26T09:31:50.001Z</time></trkpt><trkpt lat="46.07793464711535" lon="9.311736720300024"><ele>282.0</ele><time>2026-04-26T09:31:51.001Z</time></trkpt><trkpt lat="46.0779535489108" lon="9.311586893141783"><ele>282.0</ele><time>2026-04-26T09:31:52.001Z</time></trkpt><trkpt lat="46.07800094869432" lon="9.311437609083015"><ele>282.0</ele><time>2026-04-26T09:31:53.001Z</time></trkpt><trkpt lat="46.078040944622025" lon="9.311306914381502"><ele>282.0</ele><time>2026-04-26T09:31:54.001Z</time></trkpt><trkpt lat="46.07807524335249" lon="9.311207883279181"><ele>281.8</ele><time>2026-04-26T09:31:55.001Z</time></trkpt><trkpt lat="46.078145280344444" lon="9.31111738117765"><ele>281.6</ele><time>2026-04-26T09:31:57.001Z</time></trkpt><trkpt lat="46.07820857871223" lon="9.311156118377237"><ele>281.40000000000003</ele><time>2026-04-26T09:31:58.001Z</time></trkpt><trkpt lat="46.07827429066551" lon="9.311278346991964"><ele>281.2</ele><time>2026-04-26T09:31:59.001Z</time></trkpt><trkpt lat="46.078378634335195" lon="9.311381619273384"><ele>281.0</ele><time>2026-04-26T09:32:00.001Z</time></trkpt><trkpt lat="46.078458542852474" lon="9.31149771139879"><ele>281.0</ele><time>2026-04-26T09:32:01.001Z</time></trkpt><trkpt lat="46.07849592486178" lon="9.311612640776161"><ele>281.0</ele><time>2026-04-26T09:32:02.001Z</time></trkpt><trkpt lat="46.07853218765621" lon="9.311693068564843"><ele>281.0</ele><time>2026-04-26T09:32:03.001Z</time></trkpt><trkpt lat="46.0785111527591" lon="9.311787486165088"><ele>281.0</ele><time>2026-04-26T09:32:04.001Z</time></trkpt><trkpt lat="46.07845049552409" lon="9.311856702478392"><ele>281.0</ele><time>2026-04-26T09:32:05.001Z</time></trkpt><trkpt lat="46.078403912455705" lon="9.311920411305785"><ele>281.0</ele><time>2026-04-26T09:32:06.001Z</time></trkpt><trkpt lat="46.078440104721864" lon="9.312065346990185"><ele>281.0</ele><time>2026-04-26T09:32:08.001Z</time></trkpt><trkpt lat="46.078519287672265" lon="9.312074893554989"><ele>281.0</ele><time>2026-04-26T09:32:09.001Z</time></trkpt><trkpt lat="46.07861316313626" lon="9.312083534436889"><ele>281.0</ele><time>2026-04-26T09:32:10.001Z</time></trkpt><trkpt lat="46.07870924028549" lon="9.31205812864526"><ele>281.0</ele><time>2026-04-26T09:32:11.001Z</time></trkpt><trkpt lat="46.07880020130013" lon="9.312033556211306"><ele>281.0</ele><time>2026-04-26T09:32:12.001Z</time></trkpt><trkpt lat="46.0788903578422" lon="9.312025534403343"><ele>281.0</ele><time>2026-04-26T09:32:13.001Z</time></trkpt><trkpt lat="46.07897545902381" lon="9.31203832788019"><ele>281.0</ele><time>2026-04-26T09:32:14.001Z</time></trkpt><trkpt lat="46.07906414392076" lon="9.31204551471441"><ele>281.0</ele><time>2026-04-26T09:32:15.001Z</time></trkpt><trkpt lat="46.079147845090304" lon="9.312027074636326"><ele>281.0</ele><time>2026-04-26T09:32:16.001Z</time></trkpt><trkpt lat="46.07923186762164" lon="9.312045544061721"><ele>281.0</ele><time>2026-04-26T09:32:17.001Z</time></trkpt><trkpt lat="46.079307214751104" lon="9.312047234230695"><ele>281.0</ele><time>2026-04-26T09:32:18.001Z</time></trkpt><trkpt lat="46.07939677431442" lon="9.312097429523188"><ele>278.5</ele><time>2026-04-26T09:32:20.001Z</time></trkpt><trkpt lat="46.07946790092502" lon="9.312143295665194"><ele>276.0</ele><time>2026-04-26T09:32:22.001Z</time></trkpt><trkpt lat="46.079538616537356" lon="9.312134833441673"><ele>273.5</ele><time>2026-04-26T09:32:25.001Z</time></trkpt><trkpt lat="46.079556143922524" lon="9.31202667312212"><ele>271.0</ele><time>2026-04-26T09:32:27.001Z</time></trkpt><trkpt lat="46.07950778417212" lon="9.311932719883563"><ele>268.5</ele><time>2026-04-26T09:32:29.001Z</time></trkpt><trkpt lat="46.079462317687145" lon="9.311823365801066"><ele>266.0</ele><time>2026-04-26T09:32:31.001Z</time></trkpt><trkpt lat="46.079396018269634" lon="9.311645665986433"><ele>266.0</ele><time>2026-04-26T09:32:33.001Z</time></trkpt><trkpt lat="46.079340130767484" lon="9.311543884985234"><ele>266.0</ele><time>2026-04-26T09:32:34.001Z</time></trkpt><trkpt lat="46.07925374474178" lon="9.31146968346824"><ele>266.0</ele><time>2026-04-26T09:32:35.001Z</time></trkpt><trkpt lat="46.079159732912046" lon="9.311392940283334"><ele>266.0</ele><time>2026-04-26T09:32:36.001Z</time></trkpt><trkpt lat="46.07904376500195" lon="9.311322819802141"><ele>266.0</ele><time>2026-04-26T09:32:37.001Z</time></trkpt><trkpt lat="46.07892006359435" lon="9.311262879977626"><ele>265.0</ele><time>2026-04-26T09:32:38.001Z</time></trkpt><trkpt lat="46.078793372860396" lon="9.311204873262103"><ele>264.0</ele><time>2026-04-26T09:32:39.001Z</time></trkpt><trkpt lat="46.07867548049761" lon="9.311139593520632"><ele>263.0</ele><time>2026-04-26T09:32:40.001Z</time></trkpt><trkpt lat="46.07856388187844" lon="9.311076451390866"><ele>262.0</ele><time>2026-04-26T09:32:41.001Z</time></trkpt><trkpt lat="46.078474697129444" lon="9.310964369660802"><ele>262.0</ele><time>2026-04-26T09:32:42.001Z</time></trkpt><trkpt lat="46.078407648717125" lon="9.310850117412881"><ele>262.0</ele><time>2026-04-26T09:32:43.001Z</time></trkpt><trkpt lat="46.07833127488403" lon="9.310743210371362"><ele>262.0</ele><time>2026-04-26T09:32:44.001Z</time></trkpt><trkpt lat="46.07826788778004" lon="9.310648753008351"><ele>262.0</ele><time>2026-04-26T09:32:45.001Z</time></trkpt><trkpt lat="46.07822841997085" lon="9.310573136689001"><ele>262.0</ele><time>2026-04-26T09:32:46.001Z</time></trkpt><trkpt lat="46.07826584737295" lon="9.310447708200421"><ele>258.6</ele><time>2026-04-26T09:32:48.001Z</time></trkpt><trkpt lat="46.07833886906623" lon="9.310382487863466"><ele>255.2</ele><time>2026-04-26T09:32:49.001Z</time></trkpt><trkpt lat="46.078421957760874" lon="9.310270383036178"><ele>251.8</ele><time>2026-04-26T09:32:50.001Z</time></trkpt><trkpt lat="46.078500501280686" lon="9.31016771971939"><ele>248.4</ele><time>2026-04-26T09:32:51.001Z</time></trkpt><trkpt lat="46.078575391633066" lon="9.31007537533098"><ele>245.0</ele><time>2026-04-26T09:32:52.001Z</time></trkpt><trkpt lat="46.07865651974256" lon="9.30999516812496"><ele>245.0</ele><time>2026-04-26T09:32:53.001Z</time></trkpt><trkpt lat="46.078737723570974" lon="9.309958206885485"><ele>245.0</ele><time>2026-04-26T09:32:54.001Z</time></trkpt><trkpt lat="46.07881970844112" lon="9.309949950421979"><ele>245.0</ele><time>2026-04-26T09:32:55.001Z</time></trkpt><trkpt lat="46.07889101531038" lon="9.309919027536422"><ele>245.0</ele><time>2026-04-26T09:32:56.001Z</time></trkpt><trkpt lat="46.078914878509885" lon="9.309732861327875"><ele>245.0</ele><time>2026-04-26T09:32:58.001Z</time></trkpt><trkpt lat="46.07882718401593" lon="9.309672470685891"><ele>245.0</ele><time>2026-04-26T09:32:59.001Z</time></trkpt><trkpt lat="46.07873501600307" lon="9.309687249295553"><ele>245.0</ele><time>2026-04-26T09:33:00.001Z</time></trkpt><trkpt lat="46.07861656275973" lon="9.309721938827527"><ele>245.0</ele><time>2026-04-26T09:33:01.001Z</time></trkpt><trkpt lat="46.0784892405658" lon="9.309740717801404"><ele>245.0</ele><time>2026-04-26T09:33:02.001Z</time></trkpt><trkpt lat="46.07837978068354" lon="9.309744867893695"><ele>245.00000000000003</ele><time>2026-04-26T09:33:03.001Z</time></trkpt><trkpt lat="46.07831007813609" lon="9.309825155107973"><ele>245.0</ele><time>2026-04-26T09:33:04.001Z</time></trkpt><trkpt lat="46.078178533841" lon="9.309816261582634"><ele>245.0</ele><time>2026-04-26T09:33:06.001Z</time></trkpt><trkpt lat="46.07813929704206" lon="9.309723202795764"><ele>245.0</ele><time>2026-04-26T09:33:07.001Z</time></trkpt><trkpt lat="46.078084556207656" lon="9.30964779324062"><ele>245.00000000000003</ele><time>2026-04-26T09:33:08.001Z</time></trkpt><trkpt lat="46.07801289434646" lon="9.309611972003278"><ele>245.0</ele><time>2026-04-26T09:33:09.001Z</time></trkpt><trkpt lat="46.0779388379147" lon="9.309630875004213"><ele>245.00000000000003</ele><time>2026-04-26T09:33:10.001Z</time></trkpt><trkpt lat="46.07787209959522" lon="9.309699640882235"><ele>245.0</ele><time>2026-04-26T09:33:11.001Z</time></trkpt><trkpt lat="46.077827162492504" lon="9.309813170079808"><ele>245.0</ele><time>2026-04-26T09:33:12.001Z</time></trkpt><trkpt lat="46.07778682540331" lon="9.309914233388174"><ele>245.0</ele><time>2026-04-26T09:33:13.001Z</time></trkpt><trkpt lat="46.07773004938555" lon="9.30997147753438"><ele>245.00000000000003</ele><time>2026-04-26T09:33:14.001Z</time></trkpt><trkpt lat="46.077655317047636" lon="9.309989102283602"><ele>245.0</ele><time>2026-04-26T09:33:15.001Z</time></trkpt><trkpt lat="46.07754058692875" lon="9.30994679527691"><ele>243.0</ele><time>2026-04-26T09:33:16.001Z</time></trkpt><trkpt lat="46.07739272592193" lon="9.309926678100142"><ele>241.0</ele><time>2026-04-26T09:33:17.001Z</time></trkpt><trkpt lat="46.0772144780075" lon="9.309894194384922"><ele>239.0</ele><time>2026-04-26T09:33:18.001Z</time></trkpt><trkpt lat="46.077077105637684" lon="9.309821339865959"><ele>239.0</ele><time>2026-04-26T09:33:19.001Z</time></trkpt><trkpt lat="46.076957006104436" lon="9.309745191951263"><ele>239.0</ele><time>2026-04-26T09:33:20.001Z</time></trkpt><trkpt lat="46.076851206102866" lon="9.30965622158784"><ele>239.0</ele><time>2026-04-26T09:33:21.001Z</time></trkpt><trkpt lat="46.076785639471375" lon="9.309524336610014"><ele>239.0</ele><time>2026-04-26T09:33:22.001Z</time></trkpt><trkpt lat="46.07674594596664" lon="9.309378654340863"><ele>236.25</ele><time>2026-04-26T09:33:23.001Z</time></trkpt><trkpt lat="46.076721744339444" lon="9.309221744259295"><ele>233.5</ele><time>2026-04-26T09:33:24.001Z</time></trkpt><trkpt lat="46.07673234851768" lon="9.30905302610686"><ele>230.75</ele><time>2026-04-26T09:33:25.001Z</time></trkpt><trkpt lat="46.07675319382667" lon="9.308849999527363"><ele>228.0</ele><time>2026-04-26T09:33:26.001Z</time></trkpt><trkpt lat="46.07677866279795" lon="9.308644396898105"><ele>227.5</ele><time>2026-04-26T09:33:27Z</time></trkpt><trkpt lat="46.07680272789082" lon="9.30845797007384"><ele>227.0</ele><time>2026-04-26T09:33:28Z</time></trkpt><trkpt lat="46.076824628974514" lon="9.308288401232636"><ele>226.5</ele><time>2026-04-26T09:33:29Z</time></trkpt><trkpt lat="46.07684659107554" lon="9.308127105402095"><ele>226.0</ele><time>2026-04-26T09:33:30Z</time></trkpt><trkpt lat="46.07686436457774" lon="9.307996881146103"><ele>225.49999999999997</ele><time>2026-04-26T09:33:31Z</time></trkpt><trkpt lat="46.07687778024836" lon="9.30790554170229"><ele>225.0</ele><time>2026-04-26T09:33:32Z</time></trkpt><trkpt lat="46.07689612767388" lon="9.307795951065664"><ele>224.5</ele><time>2026-04-26T09:33:34Z</time></trkpt><trkpt lat="46.07690914624369" lon="9.307707088083353"><ele>224.0</ele><time>2026-04-26T09:33:47Z</time></trkpt><trkpt lat="46.07704677605163" lon="9.307779111897645"><ele>223.49999999999997</ele><time>2026-04-26T09:33:51Z</time></trkpt><trkpt lat="46.07710378594698" lon="9.30782602165879"><ele>223.0</ele><time>2026-04-26T09:33:52Z</time></trkpt><trkpt lat="46.07716080744242" lon="9.307877209749623"><ele>223.0</ele><time>2026-04-26T09:33:53Z</time></trkpt><trkpt lat="46.077235260440865" lon="9.307957065148456"><ele>223.0</ele><time>2026-04-26T09:33:56Z</time></trkpt><trkpt lat="46.07732821026861" lon="9.308039983823564"><ele>223.0</ele><time>2026-04-26T09:33:58Z</time></trkpt><trkpt lat="46.07740172958571" lon="9.3081009738724"><ele>223.0</ele><time>2026-04-26T09:34:00Z</time></trkpt><trkpt lat="46.077505546181584" lon="9.30818289056976"><ele>223.0</ele><time>2026-04-26T09:34:02Z</time></trkpt><trkpt lat="46.0776037105413" lon="9.30825654441006"><ele>223.60000000000002</ele><time>2026-04-26T09:34:04Z</time></trkpt><trkpt lat="46.077695931304476" lon="9.30832311458545"><ele>224.20000000000002</ele><time>2026-04-26T09:34:06Z</time></trkpt><trkpt lat="46.07779907939812" lon="9.308394980469119"><ele>224.8</ele><time>2026-04-26T09:34:08Z</time></trkpt><trkpt lat="46.077869333691666" lon="9.308441740483808"><ele>225.4</ele><time>2026-04-26T09:34:09Z</time></trkpt><trkpt lat="46.077966157258224" lon="9.30848154305403"><ele>226.0</ele><time>2026-04-26T09:34:10Z</time></trkpt><trkpt lat="46.07809193123561" lon="9.308530287199092"><ele>226.0</ele><time>2026-04-26T09:34:11Z</time></trkpt><trkpt lat="46.07822855354601" lon="9.308584148661744"><ele>226.0</ele><time>2026-04-26T09:34:12Z</time></trkpt><trkpt lat="46.078369988175595" lon="9.308639907340979"><ele>226.0</ele><time>2026-04-26T09:34:13Z</time></trkpt><trkpt lat="46.078514341535616" lon="9.308696958013185"><ele>226.0</ele><time>2026-04-26T09:34:14Z</time></trkpt><trkpt lat="46.07864343782172" lon="9.308748276536779"><ele>227.0</ele><time>2026-04-26T09:34:15Z</time></trkpt><trkpt lat="46.07879007074474" lon="9.308810205948653"><ele>228.0</ele><time>2026-04-26T09:34:16Z</time></trkpt><trkpt lat="46.07894176060967" lon="9.30887427113524"><ele>229.0</ele><time>2026-04-26T09:34:17Z</time></trkpt><trkpt lat="46.079080352313014" lon="9.308926501400428"><ele>228.33333333333331</ele><time>2026-04-26T09:34:18Z</time></trkpt><trkpt lat="46.0791760667545" lon="9.308959697873528"><ele>227.66666666666666</ele><time>2026-04-26T09:34:19Z</time></trkpt><trkpt lat="46.07927319933205" lon="9.308995115956424"><ele>227.0</ele><time>2026-04-26T09:34:20Z</time></trkpt><trkpt lat="46.07935238109042" lon="9.309025740300644"><ele>226.33333333333331</ele><time>2026-04-26T09:34:21Z</time></trkpt><trkpt lat="46.079440833901764" lon="9.309074301622173"><ele>225.66666666666666</ele><time>2026-04-26T09:34:22Z</time></trkpt><trkpt lat="46.07949943673775" lon="9.30911562697153"><ele>225.0</ele><time>2026-04-26T09:34:23Z</time></trkpt><trkpt lat="46.079602141339386" lon="9.309194710058282"><ele>225.0</ele><time>2026-04-26T09:34:24Z</time></trkpt><trkpt lat="46.07968176032377" lon="9.3092695542141"><ele>225.0</ele><time>2026-04-26T09:34:25Z</time></trkpt><trkpt lat="46.07974802747723" lon="9.30931229151815"><ele>225.0</ele><time>2026-04-26T09:34:26Z</time></trkpt><trkpt lat="46.07981623731098" lon="9.309371581156176"><ele>225.0</ele><time>2026-04-26T09:34:27Z</time></trkpt><trkpt lat="46.07987897203867" lon="9.309448704844744"><ele>225.0</ele><time>2026-04-26T09:34:29Z</time></trkpt><trkpt lat="46.07980047597803" lon="9.309383760931766"><ele>225.0</ele><time>2026-04-26T09:35:07.001Z</time></trkpt><trkpt lat="46.07970989406413" lon="9.30925081789765"><ele>225.0</ele><time>2026-04-26T09:35:09.001Z</time></trkpt><trkpt lat="46.079644670938244" lon="9.309187200208372"><ele>225.0</ele><time>2026-04-26T09:35:10.001Z</time></trkpt><trkpt lat="46.07956747361166" lon="9.309122462339163"><ele>225.0</ele><time>2026-04-26T09:35:11.001Z</time></trkpt><trkpt lat="46.079482066575146" lon="9.309039806423376"><ele>225.0</ele><time>2026-04-26T09:35:12.001Z</time></trkpt><trkpt lat="46.079401100979354" lon="9.308995624502298"><ele>225.0</ele><time>2026-04-26T09:35:13.001Z</time></trkpt><trkpt lat="46.07930793112333" lon="9.308974712228515"><ele>225.0</ele><time>2026-04-26T09:35:14.001Z</time></trkpt><trkpt lat="46.079237407629435" lon="9.308938264264702"><ele>225.0</ele><time>2026-04-26T09:35:15.001Z</time></trkpt><trkpt lat="46.07916918234728" lon="9.30890441529718"><ele>225.0</ele><time>2026-04-26T09:35:16.001Z</time></trkpt><trkpt lat="46.07910231584726" lon="9.308888948075234"><ele>225.0</ele><time>2026-04-26T09:35:17.001Z</time></trkpt><trkpt lat="46.07901833678609" lon="9.308910366927918"><ele>225.0</ele><time>2026-04-26T09:35:19.001Z</time></trkpt><trkpt lat="46.07893311762149" lon="9.308862035540614"><ele>225.0</ele><time>2026-04-26T09:35:21.001Z</time></trkpt><trkpt lat="46.07886683413047" lon="9.30882399039345"><ele>224.0</ele><time>2026-04-26T09:35:23.001Z</time></trkpt><trkpt lat="46.078804228686565" lon="9.308833634887923"><ele>223.0</ele><time>2026-04-26T09:35:30.001Z</time></trkpt><trkpt lat="46.07872997843821" lon="9.30880922902005"><ele>222.0</ele><time>2026-04-26T09:35:32.001Z</time></trkpt><trkpt lat="46.07867715931248" lon="9.308712665585837"><ele>221.0</ele><time>2026-04-26T09:35:33Z</time></trkpt><trkpt lat="46.07859041286805" lon="9.308677422515458"><ele>220.0</ele><time>2026-04-26T09:35:34Z</time></trkpt><trkpt lat="46.07848350741836" lon="9.308635162502284"><ele>219.0</ele><time>2026-04-26T09:35:35Z</time></trkpt><trkpt lat="46.078367178053554" lon="9.308589177439593"><ele>220.75</ele><time>2026-04-26T09:35:36Z</time></trkpt><trkpt lat="46.07824567509679" lon="9.308541301314204"><ele>222.5</ele><time>2026-04-26T09:35:37Z</time></trkpt><trkpt lat="46.07812534490238" lon="9.30849386280147"><ele>224.25</ele><time>2026-04-26T09:35:38Z</time></trkpt><trkpt lat="46.078020391944484" lon="9.308452769739391"><ele>226.0</ele><time>2026-04-26T09:35:39Z</time></trkpt><trkpt lat="46.077902161767916" lon="9.308405975303197"><ele>225.99999999999997</ele><time>2026-04-26T09:35:40Z</time></trkpt><trkpt lat="46.07781608712474" lon="9.308357199371628"><ele>226.0</ele><time>2026-04-26T09:35:41Z</time></trkpt><trkpt lat="46.07773679247353" lon="9.308298260606463"><ele>226.0</ele><time>2026-04-26T09:35:42Z</time></trkpt><trkpt lat="46.0776253723264" lon="9.308221662616006"><ele>226.0</ele><time>2026-04-26T09:35:44Z</time></trkpt><trkpt lat="46.07756243307166" lon="9.308168569627812"><ele>225.99999999999997</ele><time>2026-04-26T09:35:45Z</time></trkpt><trkpt lat="46.077501916216434" lon="9.308123234864059"><ele>226.0</ele><time>2026-04-26T09:35:46Z</time></trkpt><trkpt lat="46.07743382424116" lon="9.308096559006218"><ele>225.57142857142858</ele><time>2026-04-26T09:35:47Z</time></trkpt><trkpt lat="46.07738232515786" lon="9.30803086713931"><ele>225.14285714285714</ele><time>2026-04-26T09:35:48Z</time></trkpt><trkpt lat="46.07731999718187" lon="9.307977114810798"><ele>224.71428571428572</ele><time>2026-04-26T09:35:49Z</time></trkpt><trkpt lat="46.07725703659758" lon="9.307920350263153"><ele>224.28571428571428</ele><time>2026-04-26T09:35:50Z</time></trkpt><trkpt lat="46.07719697473895" lon="9.307861512989104"><ele>223.85714285714283</ele><time>2026-04-26T09:35:51Z</time></trkpt><trkpt lat="46.07714288406885" lon="9.307803330923326"><ele>223.42857142857142</ele><time>2026-04-26T09:35:52Z</time></trkpt><trkpt lat="46.07708331946266" lon="9.30775125230446"><ele>223.0</ele><time>2026-04-26T09:35:53Z</time></trkpt><trkpt lat="46.07700756196286" lon="9.307712611044495"><ele>223.0</ele><time>2026-04-26T09:35:54Z</time></trkpt><trkpt lat="46.07694233032969" lon="9.307671891103432"><ele>223.0</ele><time>2026-04-26T09:35:55Z</time></trkpt><trkpt lat="46.07686677864402" lon="9.307621570625237"><ele>223.0</ele><time>2026-04-26T09:35:56Z</time></trkpt><trkpt lat="46.076797138193214" lon="9.307589931183601"><ele>223.0</ele><time>2026-04-26T09:35:57Z</time></trkpt><trkpt lat="46.07673655213939" lon="9.307557125413993"><ele>223.0</ele><time>2026-04-26T09:35:58Z</time></trkpt><trkpt lat="46.07667403921103" lon="9.307526516519212"><ele>223.0</ele><time>2026-04-26T09:35:59Z</time></trkpt><trkpt lat="46.076608324168184" lon="9.307498478119106"><ele>223.0</ele><time>2026-04-26T09:36:00Z</time></trkpt><trkpt lat="46.076532255621096" lon="9.307467126750534"><ele>221.75</ele><time>2026-04-26T09:36:01Z</time></trkpt><trkpt lat="46.07642674115871" lon="9.307432069213187"><ele>220.5</ele><time>2026-04-26T09:36:03Z</time></trkpt><trkpt lat="46.07633578125557" lon="9.307382950807025"><ele>219.25</ele><time>2026-04-26T09:36:05Z</time></trkpt><trkpt lat="46.07625215578253" lon="9.307332079110793"><ele>218.0</ele><time>2026-04-26T09:36:07Z</time></trkpt><trkpt lat="46.07642368067195" lon="9.307209933594088"><ele>217.66666666666669</ele><time>2026-04-26T09:36:08Z</time></trkpt><trkpt lat="46.07643400980977" lon="9.307074755908033"><ele>217.33333333333334</ele><time>2026-04-26T09:36:09Z</time></trkpt><trkpt lat="46.07644444608512" lon="9.306938174108586"><ele>217.0</ele><time>2026-04-26T09:36:10Z</time></trkpt><trkpt lat="46.076452736567575" lon="9.30682967468792"><ele>216.66666666666669</ele><time>2026-04-26T09:36:11Z</time></trkpt><trkpt lat="46.07646082148743" lon="9.306723865705235"><ele>216.33333333333334</ele><time>2026-04-26T09:36:12Z</time></trkpt><trkpt lat="46.07645914633179" lon="9.306593808791531"><ele>216.0</ele><time>2026-04-26T09:36:13Z</time></trkpt><trkpt lat="46.07646734187522" lon="9.30646928991921"><ele>216.16666666666666</ele><time>2026-04-26T09:36:14Z</time></trkpt><trkpt lat="46.07649123458486" lon="9.306348517024572"><ele>216.33333333333331</ele><time>2026-04-26T09:36:15Z</time></trkpt><trkpt lat="46.07650254084381" lon="9.3062146343899"><ele>216.5</ele><time>2026-04-26T09:36:16Z</time></trkpt><trkpt lat="46.07651317255837" lon="9.306088739364485"><ele>216.66666666666666</ele><time>2026-04-26T09:36:17Z</time></trkpt><trkpt lat="46.07652416388222" lon="9.3059585880028"><ele>216.83333333333331</ele><time>2026-04-26T09:36:18Z</time></trkpt><trkpt lat="46.07653390741156" lon="9.305847889527202"><ele>217.0</ele><time>2026-04-26T09:36:19Z</time></trkpt><trkpt lat="46.07654315187402" lon="9.305739635906477"><ele>216.99999999999997</ele><time>2026-04-26T09:36:20Z</time></trkpt><trkpt lat="46.07655247684974" lon="9.305630439592754"><ele>217.0</ele><time>2026-04-26T09:36:21Z</time></trkpt><trkpt lat="46.07656192355719" lon="9.305519817743418"><ele>217.0</ele><time>2026-04-26T09:36:22Z</time></trkpt><trkpt lat="46.0765625733456" lon="9.305419680350651"><ele>217.0</ele><time>2026-04-26T09:36:23Z</time></trkpt><trkpt lat="46.076598714257045" lon="9.305283880559903"><ele>216.99999999999997</ele><time>2026-04-26T09:36:24Z</time></trkpt><trkpt lat="46.076591175100646" lon="9.305161686349685"><ele>217.0</ele><time>2026-04-26T09:36:26Z</time></trkpt><trkpt lat="46.07659365091706" lon="9.30500295652508"><ele>216.66666666666666</ele><time>2026-04-26T09:36:28Z</time></trkpt><trkpt lat="46.076601608986486" lon="9.304865351876101"><ele>216.33333333333331</ele><time>2026-04-26T09:36:30Z</time></trkpt><trkpt lat="46.076525377546275" lon="9.30446981340868"><ele>216.0</ele><time>2026-04-26T09:37:22.001Z</time></trkpt><trkpt lat="46.07663496778159" lon="9.304522881941164"><ele>214.0</ele><time>2026-04-26T09:37:27.001Z</time></trkpt><trkpt lat="46.076662625461914" lon="9.30442131740124"><ele>212.0</ele><time>2026-04-26T09:37:28.001Z</time></trkpt><trkpt lat="46.07694943108159" lon="9.304613197448678"><ele>210.0</ele><time>2026-04-26T09:37:29.001Z</time></trkpt><trkpt lat="46.07729585434348" lon="9.304704009460027"><ele>211.0</ele><time>2026-04-26T09:37:30.001Z</time></trkpt><trkpt lat="46.07746560425009" lon="9.304770306255794"><ele>212.0</ele><time>2026-04-26T09:37:31.001Z</time></trkpt><trkpt lat="46.07766097026765" lon="9.30486740638509"><ele>213.0</ele><time>2026-04-26T09:37:32.001Z</time></trkpt><trkpt lat="46.077790248673374" lon="9.304957712059295"><ele>213.0</ele><time>2026-04-26T09:37:33.001Z</time></trkpt><trkpt lat="46.077944047810604" lon="9.305071959888503"><ele>213.0</ele><time>2026-04-26T09:37:34.001Z</time></trkpt><trkpt lat="46.07808466835714" lon="9.30520117809211"><ele>213.0</ele><time>2026-04-26T09:37:35.001Z</time></trkpt><trkpt lat="46.07821890755497" lon="9.30534529792404"><ele>213.33333333333331</ele><time>2026-04-26T09:37:36.001Z</time></trkpt><trkpt lat="46.07835506508265" lon="9.305510696185914"><ele>213.66666666666666</ele><time>2026-04-26T09:37:37.001Z</time></trkpt><trkpt lat="46.07848277296002" lon="9.305686778117567"><ele>214.0</ele><time>2026-04-26T09:37:38.001Z</time></trkpt><trkpt lat="46.078592538848135" lon="9.305861925371817"><ele>214.33333333333331</ele><time>2026-04-26T09:37:39Z</time></trkpt><trkpt lat="46.07869990899873" lon="9.306066066996506"><ele>214.66666666666669</ele><time>2026-04-26T09:37:40Z</time></trkpt><trkpt lat="46.07880338828561" lon="9.306279143797804"><ele>215.0</ele><time>2026-04-26T09:37:41Z</time></trkpt><trkpt lat="46.078901031175654" lon="9.306482010641703"><ele>214.33333333333334</ele><time>2026-04-26T09:37:42Z</time></trkpt><trkpt lat="46.0789913919806" lon="9.306669747809712"><ele>213.66666666666669</ele><time>2026-04-26T09:37:43Z</time></trkpt><trkpt lat="46.079086739725604" lon="9.306867827866975"><ele>213.0</ele><time>2026-04-26T09:37:44Z</time></trkpt><trkpt lat="46.07918871128147" lon="9.30707966823186"><ele>212.66666666666669</ele><time>2026-04-26T09:37:45Z</time></trkpt><trkpt lat="46.07931205321662" lon="9.307297163662536"><ele>212.33333333333334</ele><time>2026-04-26T09:37:46Z</time></trkpt><trkpt lat="46.07943784720494" lon="9.3075516773917"><ele>212.0</ele><time>2026-04-26T09:37:47Z</time></trkpt><trkpt lat="46.07956844809041" lon="9.307842898855155"><ele>214.5</ele><time>2026-04-26T09:37:48Z</time></trkpt><trkpt lat="46.07971201856123" lon="9.308126249559974"><ele>217.0</ele><time>2026-04-26T09:37:49Z</time></trkpt><trkpt lat="46.07983451919798" lon="9.308415263887023"><ele>216.0</ele><time>2026-04-26T09:37:50Z</time></trkpt><trkpt lat="46.07996330189222" lon="9.308674778355229"><ele>215.0</ele><time>2026-04-26T09:37:51Z</time></trkpt><trkpt lat="46.080088938195594" lon="9.308926830795343"><ele>214.0</ele><time>2026-04-26T09:37:52Z</time></trkpt><trkpt lat="46.080213006897985" lon="9.309182419530872"><ele>214.0</ele><time>2026-04-26T09:37:53Z</time></trkpt><trkpt lat="46.080334998652916" lon="9.309428129149271"><ele>214.0</ele><time>2026-04-26T09:37:54Z</time></trkpt><trkpt lat="46.08045214220431" lon="9.309658113038378"><ele>214.0</ele><time>2026-04-26T09:37:55Z</time></trkpt><trkpt lat="46.08057249573488" lon="9.309906797480606"><ele>212.33333333333331</ele><time>2026-04-26T09:37:56Z</time></trkpt><trkpt lat="46.080680751773635" lon="9.310123247696529"><ele>210.66666666666669</ele><time>2026-04-26T09:37:57Z</time></trkpt><trkpt lat="46.08080868962096" lon="9.310322128182408"><ele>209.0</ele><time>2026-04-26T09:37:58Z</time></trkpt><trkpt lat="46.08094719038823" lon="9.310504210739518"><ele>213.33333333333334</ele><time>2026-04-26T09:37:59Z</time></trkpt><trkpt lat="46.08111950529301" lon="9.310654774693228"><ele>217.66666666666669</ele><time>2026-04-26T09:38:00Z</time></trkpt><trkpt lat="46.081267732037006" lon="9.310814820863238"><ele>222.0</ele><time>2026-04-26T09:38:01Z</time></trkpt><trkpt lat="46.08145472563779" lon="9.310932030084233"><ele>219.0</ele><time>2026-04-26T09:38:02Z</time></trkpt><trkpt lat="46.0816709585943" lon="9.31100774826217"><ele>216.0</ele><time>2026-04-26T09:38:03Z</time></trkpt><trkpt lat="46.081888754602986" lon="9.311070949858388"><ele>213.0</ele><time>2026-04-26T09:38:04Z</time></trkpt><trkpt lat="46.08200828991661" lon="9.310930307778118"><ele>213.0</ele><time>2026-04-26T09:38:05Z</time></trkpt><trkpt lat="46.08213223276554" lon="9.310953032623676"><ele>213.0</ele><time>2026-04-26T09:38:06Z</time></trkpt><trkpt lat="46.08224927569025" lon="9.311008443746433"><ele>213.0</ele><time>2026-04-26T09:38:07Z</time></trkpt><trkpt lat="46.08235484230501" lon="9.311118379742915"><ele>213.0</ele><time>2026-04-26T09:38:08Z</time></trkpt><trkpt lat="46.082595735857666" lon="9.311278060319765"><ele>210.66666666666669</ele><time>2026-04-26T09:38:09Z</time></trkpt><trkpt lat="46.082762578674945" lon="9.31134403499248"><ele>208.33333333333334</ele><time>2026-04-26T09:38:10Z</time></trkpt><trkpt lat="46.08291424014331" lon="9.311332671128143"><ele>206.0</ele><time>2026-04-26T09:38:11Z</time></trkpt><trkpt lat="46.08309578588904" lon="9.311271251544978"><ele>208.5</ele><time>2026-04-26T09:38:12Z</time></trkpt><trkpt lat="46.08331397750226" lon="9.31120640418237"><ele>211.0</ele><time>2026-04-26T09:38:13Z</time></trkpt><trkpt lat="46.08357100443924" lon="9.311165884706272"><ele>211.0</ele><time>2026-04-26T09:38:14Z</time></trkpt><trkpt lat="46.083823906714244" lon="9.311105372959338"><ele>211.0</ele><time>2026-04-26T09:38:15Z</time></trkpt><trkpt lat="46.084065675430125" lon="9.311047806009793"><ele>214.5</ele><time>2026-04-26T09:38:16Z</time></trkpt><trkpt lat="46.08428688354173" lon="9.310993516415888"><ele>218.0</ele><time>2026-04-26T09:38:17Z</time></trkpt><trkpt lat="46.08451028893238" lon="9.31093442775962"><ele>218.0</ele><time>2026-04-26T09:38:18Z</time></trkpt><trkpt lat="46.08475274628172" lon="9.31084980757008"><ele>218.0</ele><time>2026-04-26T09:38:19Z</time></trkpt><trkpt lat="46.08498504818137" lon="9.310741458582989"><ele>219.0</ele><time>2026-04-26T09:38:20Z</time></trkpt><trkpt lat="46.08519743526168" lon="9.310630625977693"><ele>220.0</ele><time>2026-04-26T09:38:21Z</time></trkpt><trkpt lat="46.08538174355366" lon="9.310533188475235"><ele>221.0</ele><time>2026-04-26T09:38:22Z</time></trkpt><trkpt lat="46.08555273389683" lon="9.310443579244673"><ele>216.0</ele><time>2026-04-26T09:38:23Z</time></trkpt><trkpt lat="46.08569740048189" lon="9.310296798713514"><ele>211.0</ele><time>2026-04-26T09:38:24Z</time></trkpt><trkpt lat="46.0858486545132" lon="9.310242224260902"><ele>206.0</ele><time>2026-04-26T09:38:25Z</time></trkpt><trkpt lat="46.08600975422794" lon="9.310192851877035"><ele>206.0</ele><time>2026-04-26T09:38:26Z</time></trkpt><trkpt lat="46.086181577398804" lon="9.31014922511511"><ele>206.0</ele><time>2026-04-26T09:38:27Z</time></trkpt><trkpt lat="46.08636479972665" lon="9.310126422815365"><ele>206.0</ele><time>2026-04-26T09:38:28Z</time></trkpt><trkpt lat="46.08656426638187" lon="9.310082700254142"><ele>210.0</ele><time>2026-04-26T09:38:29Z</time></trkpt><trkpt lat="46.086766496961495" lon="9.31005698576018"><ele>214.0</ele><time>2026-04-26T09:38:30Z</time></trkpt><trkpt lat="46.086951544691196" lon="9.31003645057705"><ele>218.0</ele><time>2026-04-26T09:38:31Z</time></trkpt><trkpt lat="46.087118662120396" lon="9.310037702164797"><ele>218.0</ele><time>2026-04-26T09:38:32Z</time></trkpt><trkpt lat="46.087263693716956" lon="9.31008578579939"><ele>218.0</ele><time>2026-04-26T09:38:33Z</time></trkpt><trkpt lat="46.087409025116116" lon="9.310217709074252"><ele>218.0</ele><time>2026-04-26T09:38:34Z</time></trkpt><trkpt lat="46.087582057926184" lon="9.310356094389014"><ele>216.33333333333334</ele><time>2026-04-26T09:38:35Z</time></trkpt><trkpt lat="46.08776873141278" lon="9.310505403466756"><ele>214.66666666666669</ele><time>2026-04-26T09:38:36Z</time></trkpt><trkpt lat="46.08796677134239" lon="9.31066402150052"><ele>213.0</ele><time>2026-04-26T09:38:37Z</time></trkpt><trkpt lat="46.088201103941344" lon="9.310828434480658"><ele>219.5</ele><time>2026-04-26T09:38:38Z</time></trkpt><trkpt lat="46.088395696804994" lon="9.311034443874311"><ele>226.0</ele><time>2026-04-26T09:38:39Z</time></trkpt><trkpt lat="46.08859477822437" lon="9.311175920468884"><ele>226.0</ele><time>2026-04-26T09:38:40Z</time></trkpt><trkpt lat="46.08878110548222" lon="9.311306317734273"><ele>226.0</ele><time>2026-04-26T09:38:41Z</time></trkpt><trkpt lat="46.0889789070302" lon="9.311394863685523"><ele>226.0</ele><time>2026-04-26T09:38:42Z</time></trkpt><trkpt lat="46.08916118929316" lon="9.31144477797177"><ele>231.0</ele><time>2026-04-26T09:38:43Z</time></trkpt><trkpt lat="46.0893558855309" lon="9.31144832507385"><ele>236.0</ele><time>2026-04-26T09:38:44Z</time></trkpt><trkpt lat="46.0895503896072" lon="9.31142598082573"><ele>241.0</ele><time>2026-04-26T09:38:45Z</time></trkpt><trkpt lat="46.08971919136541" lon="9.311461026875143"><ele>241.0</ele><time>2026-04-26T09:38:46.001Z</time></trkpt><trkpt lat="46.0899192023786" lon="9.311532575722014"><ele>241.0</ele><time>2026-04-26T09:38:47.001Z</time></trkpt><trkpt lat="46.090136044053246" lon="9.31161540765322"><ele>241.0</ele><time>2026-04-26T09:38:48.001Z</time></trkpt><trkpt lat="46.09031588882105" lon="9.311690455734606"><ele>241.33333333333331</ele><time>2026-04-26T09:38:49.001Z</time></trkpt><trkpt lat="46.0904936433323" lon="9.31176414841751"><ele>241.66666666666669</ele><time>2026-04-26T09:38:50.001Z</time></trkpt><trkpt lat="46.09064175227648" lon="9.311832414963343"><ele>242.0</ele><time>2026-04-26T09:38:51.001Z</time></trkpt><trkpt lat="46.09078790022442" lon="9.311945425474624"><ele>235.66666666666669</ele><time>2026-04-26T09:38:52.001Z</time></trkpt><trkpt lat="46.090915952523574" lon="9.3120792106749"><ele>229.33333333333331</ele><time>2026-04-26T09:38:53.001Z</time></trkpt><trkpt lat="46.09105162391223" lon="9.312222482066652"><ele>223.0</ele><time>2026-04-26T09:38:54.001Z</time></trkpt><trkpt lat="46.09120578506376" lon="9.312356728925428"><ele>223.75</ele><time>2026-04-26T09:38:55.001Z</time></trkpt><trkpt lat="46.091327553522596" lon="9.312485151071048"><ele>224.5</ele><time>2026-04-26T09:38:56.001Z</time></trkpt><trkpt lat="46.09147355979714" lon="9.31255455701008"><ele>225.25</ele><time>2026-04-26T09:38:57.001Z</time></trkpt><trkpt lat="46.09159442768424" lon="9.312591615318654"><ele>226.0</ele><time>2026-04-26T09:38:58.001Z</time></trkpt><trkpt lat="46.09168792503478" lon="9.312610790463735"><ele>226.0</ele><time>2026-04-26T09:38:59.001Z</time></trkpt><trkpt lat="46.091774370569574" lon="9.31267048472554"><ele>226.0</ele><time>2026-04-26T09:39:00.001Z</time></trkpt><trkpt lat="46.09188252833454" lon="9.312722388191624"><ele>226.0</ele><time>2026-04-26T09:39:01.001Z</time></trkpt><trkpt lat="46.09200303262681" lon="9.31280584783355"><ele>226.0</ele><time>2026-04-26T09:39:02.001Z</time></trkpt><trkpt lat="46.09214684478529" lon="9.31291190525091"><ele>226.0</ele><time>2026-04-26T09:39:03.001Z</time></trkpt><trkpt lat="46.09231616492837" lon="9.313036774085944"><ele>226.0</ele><time>2026-04-26T09:39:04.001Z</time></trkpt><trkpt lat="46.09251696014242" lon="9.313168572932062"><ele>226.0</ele><time>2026-04-26T09:39:05.001Z</time></trkpt><trkpt lat="46.09272612039058" lon="9.313339353607816"><ele>227.0</ele><time>2026-04-26T09:39:06.001Z</time></trkpt><trkpt lat="46.09295206739859" lon="9.313536889147363"><ele>228.0</ele><time>2026-04-26T09:39:07.001Z</time></trkpt><trkpt lat="46.09320813712226" lon="9.31370717383379"><ele>230.5</ele><time>2026-04-26T09:39:08.001Z</time></trkpt><trkpt lat="46.09341919522988" lon="9.313914394824284"><ele>233.0</ele><time>2026-04-26T09:39:09.001Z</time></trkpt><trkpt lat="46.09361868774028" lon="9.314085510384823"><ele>233.0</ele><time>2026-04-26T09:39:10.001Z</time></trkpt><trkpt lat="46.09379090550967" lon="9.31425342885964"><ele>233.0</ele><time>2026-04-26T09:39:11.001Z</time></trkpt><trkpt lat="46.09394340966359" lon="9.314467445985231"><ele>233.0</ele><time>2026-04-26T09:39:12.001Z</time></trkpt><trkpt lat="46.09411276439045" lon="9.314716071739893"><ele>229.0</ele><time>2026-04-26T09:39:13.001Z</time></trkpt><trkpt lat="46.09428654321038" lon="9.314973024662207"><ele>225.0</ele><time>2026-04-26T09:39:14.001Z</time></trkpt><trkpt lat="46.09447742916259" lon="9.315223940802436"><ele>225.0</ele><time>2026-04-26T09:39:15.001Z</time></trkpt><trkpt lat="46.09464196364166" lon="9.315471395510038"><ele>225.0</ele><time>2026-04-26T09:39:16.001Z</time></trkpt><trkpt lat="46.09478415435607" lon="9.315702243623516"><ele>222.66666666666669</ele><time>2026-04-26T09:39:17.001Z</time></trkpt><trkpt lat="46.09492689492667" lon="9.315909850257693"><ele>220.33333333333334</ele><time>2026-04-26T09:39:18.001Z</time></trkpt><trkpt lat="46.09505730888843" lon="9.316099706370675"><ele>218.0</ele><time>2026-04-26T09:39:19.001Z</time></trkpt><trkpt lat="46.09520074070935" lon="9.316241025171802"><ele>218.0</ele><time>2026-04-26T09:39:20.001Z</time></trkpt><trkpt lat="46.09537156401791" lon="9.316337893400464"><ele>218.0</ele><time>2026-04-26T09:39:21.001Z</time></trkpt><trkpt lat="46.095554350363656" lon="9.316425326958198"><ele>218.0</ele><time>2026-04-26T09:39:22.001Z</time></trkpt><trkpt lat="46.09577904990222" lon="9.316488350459169"><ele>221.0</ele><time>2026-04-26T09:39:23.001Z</time></trkpt><trkpt lat="46.096011920351906" lon="9.31656435069417"><ele>224.0</ele><time>2026-04-26T09:39:24.001Z</time></trkpt><trkpt lat="46.09623566375925" lon="9.31663774504975"><ele>224.0</ele><time>2026-04-26T09:39:25.001Z</time></trkpt><trkpt lat="46.09643208453457" lon="9.316691707128918"><ele>224.0</ele><time>2026-04-26T09:39:26.001Z</time></trkpt><trkpt lat="46.09664421544206" lon="9.316674384637178"><ele>224.0</ele><time>2026-04-26T09:39:27.001Z</time></trkpt><trkpt lat="46.09684672001815" lon="9.316597503872156"><ele>223.33333333333334</ele><time>2026-04-26T09:39:28.001Z</time></trkpt><trkpt lat="46.09704256441891" lon="9.316574024672704"><ele>222.66666666666669</ele><time>2026-04-26T09:39:29.001Z</time></trkpt><trkpt lat="46.09719688002063" lon="9.316585351878713"><ele>222.0</ele><time>2026-04-26T09:39:30.001Z</time></trkpt><trkpt lat="46.09736312455664" lon="9.316641595920089"><ele>220.33333333333331</ele><time>2026-04-26T09:39:31.001Z</time></trkpt><trkpt lat="46.09751051083174" lon="9.316741160017864"><ele>218.66666666666666</ele><time>2026-04-26T09:39:32.001Z</time></trkpt><trkpt lat="46.097675990613304" lon="9.316887876221221"><ele>217.0</ele><time>2026-04-26T09:39:33.001Z</time></trkpt><trkpt lat="46.09783696794765" lon="9.317020606196781"><ele>217.0</ele><time>2026-04-26T09:39:34.001Z</time></trkpt><trkpt lat="46.098008900699575" lon="9.317108723102233"><ele>217.0</ele><time>2026-04-26T09:39:35.001Z</time></trkpt><trkpt lat="46.09819618502777" lon="9.317145279365949"><ele>217.0</ele><time>2026-04-26T09:39:36.001Z</time></trkpt><trkpt lat="46.098412483842075" lon="9.317132991990874"><ele>213.0</ele><time>2026-04-26T09:39:37.001Z</time></trkpt><trkpt lat="46.098661201434616" lon="9.317122094770802"><ele>209.0</ele><time>2026-04-26T09:39:38.001Z</time></trkpt><trkpt lat="46.09893184617512" lon="9.31714439891794"><ele>207.5</ele><time>2026-04-26T09:39:39.001Z</time></trkpt><trkpt lat="46.09918428427031" lon="9.317143993825402"><ele>206.0</ele><time>2026-04-26T09:39:40.001Z</time></trkpt><trkpt lat="46.09941994475376" lon="9.317143617756216"><ele>206.0</ele><time>2026-04-26T09:39:41.001Z</time></trkpt><trkpt lat="46.099628894613126" lon="9.317151503268228"><ele>206.0</ele><time>2026-04-26T09:39:42.001Z</time></trkpt><trkpt lat="46.09982380717585" lon="9.317184836743923"><ele>206.0</ele><time>2026-04-26T09:39:43.001Z</time></trkpt><trkpt lat="46.100017191529396" lon="9.317243138149298"><ele>212.66666666666669</ele><time>2026-04-26T09:39:44.001Z</time></trkpt><trkpt lat="46.10020883982481" lon="9.317331018659603"><ele>219.33333333333331</ele><time>2026-04-26T09:39:45Z</time></trkpt><trkpt lat="46.10038561578055" lon="9.317445715370313"><ele>226.0</ele><time>2026-04-26T09:39:46Z</time></trkpt><trkpt lat="46.10059855820487" lon="9.31759630731426"><ele>222.0</ele><time>2026-04-26T09:39:47Z</time></trkpt><trkpt lat="46.100832350514224" lon="9.317762107109653"><ele>218.0</ele><time>2026-04-26T09:39:48Z</time></trkpt><trkpt lat="46.101088915471884" lon="9.317944901488602"><ele>225.0</ele><time>2026-04-26T09:39:49Z</time></trkpt><trkpt lat="46.10131156290132" lon="9.318099959555314"><ele>232.0</ele><time>2026-04-26T09:39:50Z</time></trkpt><trkpt lat="46.101508684255684" lon="9.318236474272018"><ele>227.66666666666666</ele><time>2026-04-26T09:39:51Z</time></trkpt><trkpt lat="46.10168064031696" lon="9.318331229272482"><ele>223.33333333333331</ele><time>2026-04-26T09:39:52Z</time></trkpt><trkpt lat="46.10181867088101" lon="9.31849194488519"><ele>219.0</ele><time>2026-04-26T09:39:53Z</time></trkpt><trkpt lat="46.101941251626535" lon="9.318652292196694"><ele>219.0</ele><time>2026-04-26T09:39:54Z</time></trkpt><trkpt lat="46.102094446311554" lon="9.318856223954398"><ele>219.0</ele><time>2026-04-26T09:39:55Z</time></trkpt><trkpt lat="46.10222846262499" lon="9.31909832859224"><ele>219.0</ele><time>2026-04-26T09:39:56Z</time></trkpt><trkpt lat="46.1023905696567" lon="9.319311826061677"><ele>219.0</ele><time>2026-04-26T09:39:57Z</time></trkpt><trkpt lat="46.102570255268965" lon="9.319491697107571"><ele>219.0</ele><time>2026-04-26T09:39:58Z</time></trkpt><trkpt lat="46.102798276428324" lon="9.319646586658827"><ele>216.0</ele><time>2026-04-26T09:39:59Z</time></trkpt><trkpt lat="46.1030493131464" lon="9.319824717476237"><ele>213.0</ele><time>2026-04-26T09:40:00Z</time></trkpt><trkpt lat="46.103273816220465" lon="9.320018910925658"><ele>213.0</ele><time>2026-04-26T09:40:01Z</time></trkpt><trkpt lat="46.10346708349925" lon="9.320230577112405"><ele>213.0</ele><time>2026-04-26T09:40:02Z</time></trkpt><trkpt lat="46.10366337842579" lon="9.320408091234308"><ele>215.66666666666669</ele><time>2026-04-26T09:40:03Z</time></trkpt><trkpt lat="46.10383798067835" lon="9.320570342562615"><ele>218.33333333333334</ele><time>2026-04-26T09:40:04Z</time></trkpt><trkpt lat="46.10400646463026" lon="9.320727562532824"><ele>221.0</ele><time>2026-04-26T09:40:05Z</time></trkpt><trkpt lat="46.10415777685976" lon="9.320861325189725"><ele>221.0</ele><time>2026-04-26T09:40:06Z</time></trkpt><trkpt lat="46.10433414233068" lon="9.320973193142722"><ele>221.0</ele><time>2026-04-26T09:40:07Z</time></trkpt><trkpt lat="46.10451527542926" lon="9.321052551465549"><ele>221.0</ele><time>2026-04-26T09:40:08Z</time></trkpt><trkpt lat="46.1046760545094" lon="9.321093554107819"><ele>221.0</ele><time>2026-04-26T09:40:09Z</time></trkpt><trkpt lat="46.10481918355048" lon="9.321167541931183"><ele>221.0</ele><time>2026-04-26T09:40:10Z</time></trkpt><trkpt lat="46.104973763990714" lon="9.32125265067841"><ele>221.0</ele><time>2026-04-26T09:40:11Z</time></trkpt><trkpt lat="46.10511313527765" lon="9.32123266146593"><ele>220.66666666666669</ele><time>2026-04-26T09:40:12Z</time></trkpt><trkpt lat="46.10529026928415" lon="9.321164679708145"><ele>220.33333333333331</ele><time>2026-04-26T09:40:13Z</time></trkpt><trkpt lat="46.10550070353177" lon="9.321056695720852"><ele>220.0</ele><time>2026-04-26T09:40:14Z</time></trkpt><trkpt lat="46.10575179251407" lon="9.320949440211713"><ele>217.5</ele><time>2026-04-26T09:40:15Z</time></trkpt><trkpt lat="46.106034319884806" lon="9.320844277049794"><ele>215.0</ele><time>2026-04-26T09:40:16Z</time></trkpt><trkpt lat="46.10629796279522" lon="9.320742323534775"><ele>215.0</ele><time>2026-04-26T09:40:17Z</time></trkpt><trkpt lat="46.10651973115047" lon="9.320644311038334"><ele>215.0</ele><time>2026-04-26T09:40:18Z</time></trkpt><trkpt lat="46.106717883927125" lon="9.320477146554163"><ele>214.5</ele><time>2026-04-26T09:40:19Z</time></trkpt><trkpt lat="46.10691989839961" lon="9.320263017023061"><ele>214.0</ele><time>2026-04-26T09:40:20Z</time></trkpt><trkpt lat="46.107105151563445" lon="9.320084589658984"><ele>214.0</ele><time>2026-04-26T09:40:21Z</time></trkpt><trkpt lat="46.10729764316839" lon="9.319999952311798"><ele>214.0</ele><time>2026-04-26T09:40:22Z</time></trkpt><trkpt lat="46.107539109396484" lon="9.31996345033622"><ele>214.0</ele><time>2026-04-26T09:40:23Z</time></trkpt><trkpt lat="46.10780316009632" lon="9.319888433604152"><ele>213.5</ele><time>2026-04-26T09:40:24Z</time></trkpt><trkpt lat="46.10809416449561" lon="9.319780712525267"><ele>213.0</ele><time>2026-04-26T09:40:25Z</time></trkpt><trkpt lat="46.108375172458636" lon="9.319674651736284"><ele>213.0</ele><time>2026-04-26T09:40:26Z</time></trkpt><trkpt lat="46.10862307125613" lon="9.31962306586614"><ele>213.0</ele><time>2026-04-26T09:40:27Z</time></trkpt><trkpt lat="46.108859295051765" lon="9.319578578749017"><ele>213.0</ele><time>2026-04-26T09:40:28Z</time></trkpt><trkpt lat="46.10907152721743" lon="9.319571871385401"><ele>213.0</ele><time>2026-04-26T09:40:29Z</time></trkpt><trkpt lat="46.10923000369976" lon="9.319507164302712"><ele>213.0</ele><time>2026-04-26T09:40:30Z</time></trkpt><trkpt lat="46.109352490176775" lon="9.31939134982788"><ele>210.33333333333331</ele><time>2026-04-26T09:40:31Z</time></trkpt><trkpt lat="46.10948042152791" lon="9.31919378017531"><ele>207.66666666666666</ele><time>2026-04-26T09:40:32Z</time></trkpt><trkpt lat="46.109635839513466" lon="9.31895698568556"><ele>205.0</ele><time>2026-04-26T09:40:33Z</time></trkpt><trkpt lat="46.10981199958298" lon="9.318715178539419"><ele>211.0</ele><time>2026-04-26T09:40:34Z</time></trkpt><trkpt lat="46.10996498473178" lon="9.318518476138507"><ele>217.0</ele><time>2026-04-26T09:40:35Z</time></trkpt><trkpt lat="46.11011385450144" lon="9.31835840454313"><ele>223.0</ele><time>2026-04-26T09:40:36Z</time></trkpt><trkpt lat="46.11027822939451" lon="9.31825534996513"><ele>223.0</ele><time>2026-04-26T09:40:37Z</time></trkpt><trkpt lat="46.11045350583306" lon="9.318207943965554"><ele>223.0</ele><time>2026-04-26T09:40:38Z</time></trkpt><trkpt lat="46.110631538389924" lon="9.318184943597984"><ele>223.0</ele><time>2026-04-26T09:40:39Z</time></trkpt><trkpt lat="46.110791648046984" lon="9.31811065778061"><ele>226.33333333333331</ele><time>2026-04-26T09:40:40Z</time></trkpt><trkpt lat="46.11094307874509" lon="9.317965436625666"><ele>229.66666666666669</ele><time>2026-04-26T09:40:41Z</time></trkpt><trkpt lat="46.111104839426346" lon="9.31775353462233"><ele>233.0</ele><time>2026-04-26T09:40:42Z</time></trkpt><trkpt lat="46.11129769589121" lon="9.317518362492727"><ele>233.0</ele><time>2026-04-26T09:40:43Z</time></trkpt><trkpt lat="46.11150463334086" lon="9.317251731337846"><ele>233.0</ele><time>2026-04-26T09:40:44Z</time></trkpt><trkpt lat="46.11168752641334" lon="9.317020878980282"><ele>234.33333333333334</ele><time>2026-04-26T09:40:45Z</time></trkpt><trkpt lat="46.111852463966606" lon="9.316864975278813"><ele>235.66666666666669</ele><time>2026-04-26T09:40:46Z</time></trkpt><trkpt lat="46.112036209326725" lon="9.316779765684716"><ele>237.0</ele><time>2026-04-26T09:40:47.001Z</time></trkpt><trkpt lat="46.11221508571686" lon="9.316739466150578"><ele>237.0</ele><time>2026-04-26T09:40:48.001Z</time></trkpt><trkpt lat="46.112401799616116" lon="9.316756732831374"><ele>237.0</ele><time>2026-04-26T09:40:49.001Z</time></trkpt><trkpt lat="46.11260414920791" lon="9.316790207062255"><ele>237.0</ele><time>2026-04-26T09:40:50.001Z</time></trkpt><trkpt lat="46.11279980712217" lon="9.316780195350114"><ele>241.33333333333331</ele><time>2026-04-26T09:40:51.001Z</time></trkpt><trkpt lat="46.1130211167247" lon="9.316750742599973"><ele>245.66666666666666</ele><time>2026-04-26T09:40:52.001Z</time></trkpt><trkpt lat="46.1131931212443" lon="9.316719166450923"><ele>250.0</ele><time>2026-04-26T09:40:53.001Z</time></trkpt><trkpt lat="46.11334551087451" lon="9.31666949611849"><ele>251.0</ele><time>2026-04-26T09:40:54.001Z</time></trkpt><trkpt lat="46.11347998154278" lon="9.316686065820464"><ele>252.0</ele><time>2026-04-26T09:40:55.001Z</time></trkpt><trkpt lat="46.11358033830069" lon="9.316718472627862"><ele>253.0</ele><time>2026-04-26T09:40:56.001Z</time></trkpt><trkpt lat="46.113721655949035" lon="9.316846392912614"><ele>254.0</ele><time>2026-04-26T09:40:57.001Z</time></trkpt><trkpt lat="46.11385768423049" lon="9.316985596841421"><ele>254.0</ele><time>2026-04-26T09:40:58.001Z</time></trkpt><trkpt lat="46.11401419867774" lon="9.317138858284633"><ele>254.0</ele><time>2026-04-26T09:40:59.001Z</time></trkpt><trkpt lat="46.1141437823074" lon="9.317267589704613"><ele>254.0</ele><time>2026-04-26T09:41:00.001Z</time></trkpt><trkpt lat="46.11426868443292" lon="9.317435427613109"><ele>254.33333333333334</ele><time>2026-04-26T09:41:01.001Z</time></trkpt><trkpt lat="46.11437769514103" lon="9.317637013258661"><ele>254.66666666666669</ele><time>2026-04-26T09:41:02.001Z</time></trkpt><trkpt lat="46.11440202485213" lon="9.317877700052435"><ele>255.0</ele><time>2026-04-26T09:41:03.001Z</time></trkpt><trkpt lat="46.11445686737985" lon="9.318082719185956"><ele>256.3333333333333</ele><time>2026-04-26T09:41:04.001Z</time></trkpt><trkpt lat="46.11449796633036" lon="9.318277563497201"><ele>257.66666666666663</ele><time>2026-04-26T09:41:05.001Z</time></trkpt><trkpt lat="46.11452911314611" lon="9.318495592800073"><ele>259.0</ele><time>2026-04-26T09:41:06.001Z</time></trkpt><trkpt lat="46.11453455701163" lon="9.318726165320356"><ele>262.5</ele><time>2026-04-26T09:41:07.001Z</time></trkpt><trkpt lat="46.11455798954907" lon="9.319023320852317"><ele>266.0</ele><time>2026-04-26T09:41:08.001Z</time></trkpt><trkpt lat="46.11454859535522" lon="9.319374127170825"><ele>265.0</ele><time>2026-04-26T09:41:09.001Z</time></trkpt><trkpt lat="46.11453995644055" lon="9.319790586027635"><ele>264.0</ele><time>2026-04-26T09:41:10.001Z</time></trkpt><trkpt lat="46.1145267228807" lon="9.320249684802159"><ele>265.5</ele><time>2026-04-26T09:41:11.001Z</time></trkpt><trkpt lat="46.11447332773757" lon="9.320667776837192"><ele>267.0</ele><time>2026-04-26T09:41:12.001Z</time></trkpt><trkpt lat="46.114462340581646" lon="9.321039413998466"><ele>267.0</ele><time>2026-04-26T09:41:13.001Z</time></trkpt><trkpt lat="46.11445158199866" lon="9.32139222876011"><ele>267.0</ele><time>2026-04-26T09:41:14.001Z</time></trkpt><trkpt lat="46.11445214427956" lon="9.32171129288605"><ele>268.0</ele><time>2026-04-26T09:41:15.001Z</time></trkpt><trkpt lat="46.11444932917623" lon="9.322056980640294"><ele>269.0</ele><time>2026-04-26T09:41:16.001Z</time></trkpt><trkpt lat="46.11446664852849" lon="9.32243876257197"><ele>269.5</ele><time>2026-04-26T09:41:17.001Z</time></trkpt><trkpt lat="46.11449892591035" lon="9.322803598305232"><ele>270.0</ele><time>2026-04-26T09:41:18.001Z</time></trkpt><trkpt lat="46.114505049732735" lon="9.323144060847952"><ele>269.6666666666667</ele><time>2026-04-26T09:41:19.001Z</time></trkpt><trkpt lat="46.11455836030653" lon="9.32346619119184"><ele>269.33333333333337</ele><time>2026-04-26T09:41:20.001Z</time></trkpt><trkpt lat="46.11462088606929" lon="9.323739600542185"><ele>269.0</ele><time>2026-04-26T09:41:21.001Z</time></trkpt><trkpt lat="46.114670294932594" lon="9.323992771399466"><ele>269.0</ele><time>2026-04-26T09:41:22.001Z</time></trkpt><trkpt lat="46.11467895752276" lon="9.32427433437352"><ele>269.0</ele><time>2026-04-26T09:41:23.001Z</time></trkpt><trkpt lat="46.11463208958609" lon="9.324537677559707"><ele>269.0</ele><time>2026-04-26T09:41:24.001Z</time></trkpt><trkpt lat="46.11456191209866" lon="9.324766684030331"><ele>264.0</ele><time>2026-04-26T09:41:25.001Z</time></trkpt><trkpt lat="46.114471240038405" lon="9.324953294834739"><ele>259.0</ele><time>2026-04-26T09:41:26.001Z</time></trkpt><trkpt lat="46.11435021929507" lon="9.325202131753908"><ele>254.0</ele><time>2026-04-26T09:41:27.001Z</time></trkpt><trkpt lat="46.11422512100619" lon="9.325427437088983"><ele>248.66666666666669</ele><time>2026-04-26T09:41:28.001Z</time></trkpt><trkpt lat="46.11414724727567" lon="9.325694431996148"><ele>243.33333333333331</ele><time>2026-04-26T09:41:29.001Z</time></trkpt><trkpt lat="46.11407423516525" lon="9.32602456150825"><ele>238.0</ele><time>2026-04-26T09:41:30.001Z</time></trkpt><trkpt lat="46.114011950843945" lon="9.326348625883693"><ele>254.0</ele><time>2026-04-26T09:41:31.001Z</time></trkpt><trkpt lat="46.11395900805182" lon="9.32663354197229"><ele>270.0</ele><time>2026-04-26T09:41:32.001Z</time></trkpt><trkpt lat="46.113925985562105" lon="9.326895900699293"><ele>286.0</ele><time>2026-04-26T09:41:33.001Z</time></trkpt><trkpt lat="46.11392952755441" lon="9.327184819062385"><ele>285.3333333333333</ele><time>2026-04-26T09:41:34.001Z</time></trkpt><trkpt lat="46.11395157195297" lon="9.327489036908057"><ele>284.6666666666667</ele><time>2026-04-26T09:41:35.001Z</time></trkpt><trkpt lat="46.113962366748595" lon="9.327762273082913"><ele>284.0</ele><time>2026-04-26T09:41:36.001Z</time></trkpt><trkpt lat="46.11396679398806" lon="9.327996207263277"><ele>282.6666666666667</ele><time>2026-04-26T09:41:37.001Z</time></trkpt><trkpt lat="46.11399713674836" lon="9.328199919722811"><ele>281.3333333333333</ele><time>2026-04-26T09:41:38.001Z</time></trkpt><trkpt lat="46.11408886614218" lon="9.328367286359072"><ele>280.0</ele><time>2026-04-26T09:41:39.001Z</time></trkpt><trkpt lat="46.114205142250896" lon="9.328544891282974"><ele>264.66666666666663</ele><time>2026-04-26T09:41:40.001Z</time></trkpt><trkpt lat="46.11430082571207" lon="9.32873088010123"><ele>249.33333333333331</ele><time>2026-04-26T09:41:41.001Z</time></trkpt><trkpt lat="46.11432393307394" lon="9.32897925009786"><ele>234.0</ele><time>2026-04-26T09:41:42.001Z</time></trkpt><trkpt lat="46.1143344376025" lon="9.329279750826716"><ele>234.0</ele><time>2026-04-26T09:41:43.001Z</time></trkpt><trkpt lat="46.114355437247376" lon="9.329612936526562"><ele>234.0</ele><time>2026-04-26T09:41:44.001Z</time></trkpt><trkpt lat="46.1143627720136" lon="9.329989853195789"><ele>235.5</ele><time>2026-04-26T09:41:45.001Z</time></trkpt><trkpt lat="46.11436819868239" lon="9.330366689786585"><ele>237.0</ele><time>2026-04-26T09:41:46.001Z</time></trkpt><trkpt lat="46.11437999131613" lon="9.3306983767442"><ele>239.66666666666669</ele><time>2026-04-26T09:41:47.001Z</time></trkpt><trkpt lat="46.1144128014023" lon="9.330996016970822"><ele>242.33333333333334</ele><time>2026-04-26T09:41:48.001Z</time></trkpt><trkpt lat="46.11447287105734" lon="9.331277602069608"><ele>245.0</ele><time>2026-04-26T09:41:49.001Z</time></trkpt><trkpt lat="46.11456016061426" lon="9.33157215655905"><ele>248.5</ele><time>2026-04-26T09:41:50.001Z</time></trkpt><trkpt lat="46.114665294017385" lon="9.3318628969814"><ele>252.0</ele><time>2026-04-26T09:41:51Z</time></trkpt><trkpt lat="46.11479584201766" lon="9.332126162566796"><ele>243.0</ele><time>2026-04-26T09:41:52Z</time></trkpt><trkpt lat="46.11491071782756" lon="9.332372782780304"><ele>234.0</ele><time>2026-04-26T09:41:53Z</time></trkpt><trkpt lat="46.11498311012526" lon="9.332650731540795"><ele>225.0</ele><time>2026-04-26T09:41:54Z</time></trkpt><trkpt lat="46.11507444613363" lon="9.332883936216616"><ele>232.33333333333331</ele><time>2026-04-26T09:41:55Z</time></trkpt><trkpt lat="46.11515406724211" lon="9.333108607555285"><ele>239.66666666666666</ele><time>2026-04-26T09:41:56Z</time></trkpt><trkpt lat="46.11531750537575" lon="9.33333604721735"><ele>247.0</ele><time>2026-04-26T09:41:57Z</time></trkpt><trkpt lat="46.115488750041806" lon="9.333594451782572"><ele>235.5</ele><time>2026-04-26T09:41:58Z</time></trkpt><trkpt lat="46.11561829974082" lon="9.333908552683114"><ele>224.0</ele><time>2026-04-26T09:41:59Z</time></trkpt><trkpt lat="46.115736954640035" lon="9.334188772809911"><ele>224.0</ele><time>2026-04-26T09:42:00Z</time></trkpt><trkpt lat="46.11584010908777" lon="9.334436150184102"><ele>224.0</ele><time>2026-04-26T09:42:01Z</time></trkpt><trkpt lat="46.11586167554579" lon="9.334703043436454"><ele>224.0</ele><time>2026-04-26T09:42:02Z</time></trkpt><trkpt lat="46.115886296740875" lon="9.3349892029052"><ele>230.0</ele><time>2026-04-26T09:42:03Z</time></trkpt><trkpt lat="46.11593151219118" lon="9.33522269327725"><ele>236.0</ele><time>2026-04-26T09:42:04Z</time></trkpt><trkpt lat="46.11599371748777" lon="9.335449073953733"><ele>242.0</ele><time>2026-04-26T09:42:05Z</time></trkpt><trkpt lat="46.116123963214505" lon="9.33568135371268"><ele>252.5</ele><time>2026-04-26T09:42:06Z</time></trkpt><trkpt lat="46.11628285521219" lon="9.335931618756417"><ele>263.0</ele><time>2026-04-26T09:42:07Z</time></trkpt><trkpt lat="46.11641798592896" lon="9.336231448882792"><ele>242.5</ele><time>2026-04-26T09:42:08Z</time></trkpt><trkpt lat="46.11656973224959" lon="9.336547536132624"><ele>222.0</ele><time>2026-04-26T09:42:09Z</time></trkpt><trkpt lat="46.11668916270007" lon="9.336855348741883"><ele>222.0</ele><time>2026-04-26T09:42:10Z</time></trkpt><trkpt lat="46.116794170428875" lon="9.337139245835163"><ele>222.0</ele><time>2026-04-26T09:42:11Z</time></trkpt><trkpt lat="46.11687806399461" lon="9.337408037826155"><ele>222.0</ele><time>2026-04-26T09:42:12Z</time></trkpt><trkpt lat="46.116932535145544" lon="9.337629855333608"><ele>226.0</ele><time>2026-04-26T09:42:13Z</time></trkpt><trkpt lat="46.116969136835706" lon="9.33790130049354"><ele>230.0</ele><time>2026-04-26T09:42:14Z</time></trkpt><trkpt lat="46.11694508660664" lon="9.338190691737818"><ele>234.0</ele><time>2026-04-26T09:42:15Z</time></trkpt><trkpt lat="46.116952708749224" lon="9.338492857788035"><ele>235.0</ele><time>2026-04-26T09:42:16Z</time></trkpt><trkpt lat="46.11693389390022" lon="9.33882029318881"><ele>236.0</ele><time>2026-04-26T09:42:17Z</time></trkpt><trkpt lat="46.11690517439856" lon="9.339114197074029"><ele>237.0</ele><time>2026-04-26T09:42:18Z</time></trkpt><trkpt lat="46.116854137155066" lon="9.339408894896623"><ele>233.0</ele><time>2026-04-26T09:42:19Z</time></trkpt><trkpt lat="46.11680124120509" lon="9.339741222856631"><ele>229.0</ele><time>2026-04-26T09:42:20Z</time></trkpt><trkpt lat="46.11673270249491" lon="9.34002387724701"><ele>225.0</ele><time>2026-04-26T09:42:21Z</time></trkpt><trkpt lat="46.116668277210785" lon="9.340325111519261"><ele>219.5</ele><time>2026-04-26T09:42:22Z</time></trkpt><trkpt lat="46.116583325971355" lon="9.340629396635661"><ele>214.0</ele><time>2026-04-26T09:42:23Z</time></trkpt><trkpt lat="46.116510551867805" lon="9.340939978926992"><ele>226.33333333333331</ele><time>2026-04-26T09:42:24Z</time></trkpt><trkpt lat="46.1164409739896" lon="9.341222165137706"><ele>238.66666666666669</ele><time>2026-04-26T09:42:25.001Z</time></trkpt><trkpt lat="46.11637555041817" lon="9.341494591260753"><ele>251.0</ele><time>2026-04-26T09:42:26.001Z</time></trkpt><trkpt lat="46.116293264420534" lon="9.341741019325537"><ele>251.0</ele><time>2026-04-26T09:42:27.001Z</time></trkpt><trkpt lat="46.116231260673906" lon="9.34202276852504"><ele>251.0</ele><time>2026-04-26T09:42:28.001Z</time></trkpt><trkpt lat="46.116170792221595" lon="9.342305237112168"><ele>251.0</ele><time>2026-04-26T09:42:29.001Z</time></trkpt><trkpt lat="46.116126952763956" lon="9.342609997190968"><ele>246.5</ele><time>2026-04-26T09:42:30.001Z</time></trkpt><trkpt lat="46.11614260376459" lon="9.342956769538471"><ele>242.0</ele><time>2026-04-26T09:42:31.001Z</time></trkpt><trkpt lat="46.11615485831939" lon="9.343281998328052"><ele>237.5</ele><time>2026-04-26T09:42:32.001Z</time></trkpt><trkpt lat="46.11618683047686" lon="9.343630542848269"><ele>233.0</ele><time>2026-04-26T09:42:33.001Z</time></trkpt><trkpt lat="46.11625619188658" lon="9.344036796439884"><ele>232.0</ele><time>2026-04-26T09:42:34.001Z</time></trkpt><trkpt lat="46.11629230078552" lon="9.344406442972788"><ele>231.0</ele><time>2026-04-26T09:42:35.001Z</time></trkpt><trkpt lat="46.11630114797186" lon="9.344747435939084"><ele>234.0</ele><time>2026-04-26T09:42:36.001Z</time></trkpt><trkpt lat="46.11633459802909" lon="9.345037472843757"><ele>237.0</ele><time>2026-04-26T09:42:37.001Z</time></trkpt><trkpt lat="46.11637476219769" lon="9.345318544667604"><ele>240.0</ele><time>2026-04-26T09:42:38.001Z</time></trkpt><trkpt lat="46.11643387758714" lon="9.345566820697869"><ele>244.5</ele><time>2026-04-26T09:42:39.001Z</time></trkpt><trkpt lat="46.11651107971553" lon="9.345764227603237"><ele>249.0</ele><time>2026-04-26T09:42:40.001Z</time></trkpt><trkpt lat="46.11659571566845" lon="9.345916618543527"><ele>253.5</ele><time>2026-04-26T09:42:41.001Z</time></trkpt><trkpt lat="46.1166826219233" lon="9.346048265663965"><ele>258.0</ele><time>2026-04-26T09:42:42.001Z</time></trkpt><trkpt lat="46.11674782330252" lon="9.34614691724177"><ele>251.2</ele><time>2026-04-26T09:42:43.001Z</time></trkpt><trkpt lat="46.11679984933923" lon="9.346229328928437"><ele>244.4</ele><time>2026-04-26T09:42:44.001Z</time></trkpt><trkpt lat="46.11687332690316" lon="9.34631038351615"><ele>237.59999999999997</ele><time>2026-04-26T09:42:45.001Z</time></trkpt><trkpt lat="46.11691351494495" lon="9.346414288611278"><ele>230.79999999999998</ele><time>2026-04-26T09:42:46.001Z</time></trkpt><trkpt lat="46.11699171878054" lon="9.346538870166704"><ele>224.0</ele><time>2026-04-26T09:42:47.001Z</time></trkpt><trkpt lat="46.11708912173205" lon="9.346698828510716"><ele>224.0</ele><time>2026-04-26T09:42:48.001Z</time></trkpt><trkpt lat="46.117162579082304" lon="9.34691751195343"><ele>224.0</ele><time>2026-04-26T09:42:49.001Z</time></trkpt><trkpt lat="46.11720443913313" lon="9.347131827434199"><ele>224.0</ele><time>2026-04-26T09:42:50.001Z</time></trkpt><trkpt lat="46.117215228742076" lon="9.347314804770026"><ele>227.2</ele><time>2026-04-26T09:42:51.001Z</time></trkpt><trkpt lat="46.1171946430982" lon="9.347447204693232"><ele>230.39999999999998</ele><time>2026-04-26T09:42:52.001Z</time></trkpt><trkpt lat="46.11715689042296" lon="9.347600477672021"><ele>233.6</ele><time>2026-04-26T09:42:53.001Z</time></trkpt><trkpt lat="46.11712015556772" lon="9.34776638215817"><ele>236.8</ele><time>2026-04-26T09:42:54.001Z</time></trkpt><trkpt lat="46.11710418246588" lon="9.347917037531728"><ele>240.0</ele><time>2026-04-26T09:42:55.001Z</time></trkpt><trkpt lat="46.11711130837392" lon="9.348100835332934"><ele>242.8</ele><time>2026-04-26T09:42:56.001Z</time></trkpt><trkpt lat="46.117188510825635" lon="9.34821633654165"><ele>245.6</ele><time>2026-04-26T09:42:57.001Z</time></trkpt><trkpt lat="46.11726087153169" lon="9.348343140512306"><ele>248.39999999999998</ele><time>2026-04-26T09:42:58.001Z</time></trkpt><trkpt lat="46.117354222156635" lon="9.348427902479171"><ele>251.2</ele><time>2026-04-26T09:42:59.001Z</time></trkpt><trkpt lat="46.11744421889928" lon="9.34847723784891"><ele>254.0</ele><time>2026-04-26T09:43:00.001Z</time></trkpt><trkpt lat="46.11756130639263" lon="9.348501586217486"><ele>241.0</ele><time>2026-04-26T09:43:01.001Z</time></trkpt><trkpt lat="46.11768441006875" lon="9.348513559176828"><ele>228.0</ele><time>2026-04-26T09:43:02.001Z</time></trkpt><trkpt lat="46.11787095995843" lon="9.348499481850743"><ele>215.0</ele><time>2026-04-26T09:43:03.001Z</time></trkpt><trkpt lat="46.11808493965458" lon="9.348514096420024"><ele>213.33333333333334</ele><time>2026-04-26T09:43:04.001Z</time></trkpt><trkpt lat="46.11830159060848" lon="9.348541851152115"><ele>211.66666666666669</ele><time>2026-04-26T09:43:05.001Z</time></trkpt><trkpt lat="46.118473806083664" lon="9.348566233492404"><ele>210.0</ele><time>2026-04-26T09:43:06.001Z</time></trkpt><trkpt lat="46.11861435649772" lon="9.348596657823208"><ele>210.0</ele><time>2026-04-26T09:43:07.001Z</time></trkpt><trkpt lat="46.118744685519225" lon="9.34862165657106"><ele>210.0</ele><time>2026-04-26T09:43:08.001Z</time></trkpt><trkpt lat="46.11886493088195" lon="9.348653878716302"><ele>210.0</ele><time>2026-04-26T09:43:09.001Z</time></trkpt><trkpt lat="46.119007779417345" lon="9.348710667579406"><ele>210.0</ele><time>2026-04-26T09:43:10.001Z</time></trkpt><trkpt lat="46.11913594521649" lon="9.348780315805582"><ele>210.16666666666666</ele><time>2026-04-26T09:43:11.001Z</time></trkpt><trkpt lat="46.119233340569636" lon="9.348843268009098"><ele>210.33333333333331</ele><time>2026-04-26T09:43:12.001Z</time></trkpt><trkpt lat="46.11930251922324" lon="9.348902501629093"><ele>210.5</ele><time>2026-04-26T09:43:13.001Z</time></trkpt><trkpt lat="46.11936694252581" lon="9.348944188868014"><ele>210.66666666666666</ele><time>2026-04-26T09:43:14.001Z</time></trkpt><trkpt lat="46.11939173764635" lon="9.349032795632583"><ele>210.83333333333331</ele><time>2026-04-26T09:43:15.001Z</time></trkpt><trkpt lat="46.119380071341055" lon="9.349141761799737"><ele>211.0</ele><time>2026-04-26T09:43:16.001Z</time></trkpt><trkpt lat="46.119380457046766" lon="9.349235853101067"><ele>211.4</ele><time>2026-04-26T09:43:17.001Z</time></trkpt><trkpt lat="46.11944911958836" lon="9.349358061314163"><ele>211.8</ele><time>2026-04-26T09:43:19.001Z</time></trkpt><trkpt lat="46.11958766673876" lon="9.34932467867875"><ele>212.20000000000002</ele><time>2026-04-26T09:43:21.001Z</time></trkpt><trkpt lat="46.11965855990537" lon="9.349247868423964"><ele>212.60000000000002</ele><time>2026-04-26T09:43:22.001Z</time></trkpt><trkpt lat="46.11973313612967" lon="9.349172825965018"><ele>213.0</ele><time>2026-04-26T09:43:23.001Z</time></trkpt><trkpt lat="46.1198069051355" lon="9.349125657127015"><ele>213.0</ele><time>2026-04-26T09:43:24.001Z</time></trkpt><trkpt lat="46.11991306593802" lon="9.349106589442705"><ele>213.0</ele><time>2026-04-26T09:43:25.001Z</time></trkpt><trkpt lat="46.12002794444064" lon="9.34916253130976"><ele>213.0</ele><time>2026-04-26T09:43:26.001Z</time></trkpt><trkpt lat="46.12018336739503" lon="9.34920782583395"><ele>213.0</ele><time>2026-04-26T09:43:27.001Z</time></trkpt><trkpt lat="46.12036911915554" lon="9.349274431691684"><ele>213.0</ele><time>2026-04-26T09:43:28.001Z</time></trkpt><trkpt lat="46.120592843793276" lon="9.349360112191308"><ele>213.0</ele><time>2026-04-26T09:43:29.001Z</time></trkpt><trkpt lat="46.120840749380676" lon="9.349432749114182"><ele>211.5</ele><time>2026-04-26T09:43:30.001Z</time></trkpt><trkpt lat="46.12110209249311" lon="9.349558242054947"><ele>210.0</ele><time>2026-04-26T09:43:31.001Z</time></trkpt><trkpt lat="46.121366550634356" lon="9.349662430918036"><ele>211.5</ele><time>2026-04-26T09:43:32.001Z</time></trkpt><trkpt lat="46.121563590424124" lon="9.349718693452637"><ele>213.0</ele><time>2026-04-26T09:43:33.001Z</time></trkpt><trkpt lat="46.1218123733509" lon="9.349824678548886"><ele>213.0</ele><time>2026-04-26T09:43:34.001Z</time></trkpt><trkpt lat="46.12204078265258" lon="9.349922179611587"><ele>213.0</ele><time>2026-04-26T09:43:35.001Z</time></trkpt><trkpt lat="46.12226780214348" lon="9.350016243987689"><ele>212.5</ele><time>2026-04-26T09:43:36.001Z</time></trkpt><trkpt lat="46.1224812897053" lon="9.350102891678869"><ele>212.0</ele><time>2026-04-26T09:43:37.001Z</time></trkpt><trkpt lat="46.122705198553206" lon="9.350181236056486"><ele>212.0</ele><time>2026-04-26T09:43:38.001Z</time></trkpt><trkpt lat="46.1229341845365" lon="9.350275161678965"><ele>212.0</ele><time>2026-04-26T09:43:39.001Z</time></trkpt><trkpt lat="46.12317727136124" lon="9.35037019106493"><ele>211.5</ele><time>2026-04-26T09:43:40.001Z</time></trkpt><trkpt lat="46.12345069927215" lon="9.350477081603495"><ele>211.0</ele><time>2026-04-26T09:43:41.001Z</time></trkpt><trkpt lat="46.12373609665289" lon="9.350588704067105"><ele>212.0</ele><time>2026-04-26T09:43:42.001Z</time></trkpt><trkpt lat="46.123998207441545" lon="9.35069122567074"><ele>213.0</ele><time>2026-04-26T09:43:43.001Z</time></trkpt><trkpt lat="46.124239866887734" lon="9.350773938584625"><ele>213.0</ele><time>2026-04-26T09:43:44.001Z</time></trkpt><trkpt lat="46.124457514754454" lon="9.35087266562744"><ele>213.0</ele><time>2026-04-26T09:43:45.001Z</time></trkpt><trkpt lat="46.124666047319614" lon="9.35094754415122"><ele>213.0</ele><time>2026-04-26T09:43:46.001Z</time></trkpt><trkpt lat="46.124852139062476" lon="9.351014028664473"><ele>212.66666666666669</ele><time>2026-04-26T09:43:47.001Z</time></trkpt><trkpt lat="46.125016823891706" lon="9.351072946878478"><ele>212.33333333333334</ele><time>2026-04-26T09:43:48.001Z</time></trkpt><trkpt lat="46.125142453825106" lon="9.351196662080847"><ele>212.0</ele><time>2026-04-26T09:43:49.001Z</time></trkpt><trkpt lat="46.125263418209194" lon="9.351336639636541"><ele>212.66666666666669</ele><time>2026-04-26T09:43:50.001Z</time></trkpt><trkpt lat="46.12539068339246" lon="9.351498737906429"><ele>213.33333333333331</ele><time>2026-04-26T09:43:51.001Z</time></trkpt><trkpt lat="46.12553412838739" lon="9.351683029424263"><ele>214.0</ele><time>2026-04-26T09:43:52.002Z</time></trkpt><trkpt lat="46.12567967344773" lon="9.351870019006512"><ele>213.5</ele><time>2026-04-26T09:43:53.002Z</time></trkpt><trkpt lat="46.12583931680089" lon="9.352073279310222"><ele>213.0</ele><time>2026-04-26T09:43:54.002Z</time></trkpt><trkpt lat="46.1260254792876" lon="9.35231010694312"><ele>213.0</ele><time>2026-04-26T09:43:55.002Z</time></trkpt><trkpt lat="46.12627333960216" lon="9.352630043787297"><ele>213.0</ele><time>2026-04-26T09:43:56.002Z</time></trkpt><trkpt lat="46.12651569202147" lon="9.352941328026912"><ele>214.0</ele><time>2026-04-26T09:43:57.001Z</time></trkpt><trkpt lat="46.126729011556634" lon="9.35321629954689"><ele>215.0</ele><time>2026-04-26T09:43:58.001Z</time></trkpt><trkpt lat="46.12691368479269" lon="9.35345337096842"><ele>215.0</ele><time>2026-04-26T09:43:59.001Z</time></trkpt><trkpt lat="46.12708044561307" lon="9.353659821394093"><ele>215.0</ele><time>2026-04-26T09:44:00.001Z</time></trkpt><trkpt lat="46.12722265205201" lon="9.353848891869958"><ele>215.0</ele><time>2026-04-26T09:44:01.001Z</time></trkpt><trkpt lat="46.12735361626226" lon="9.354009391075842"><ele>215.66666666666669</ele><time>2026-04-26T09:44:02.001Z</time></trkpt><trkpt lat="46.12747829002341" lon="9.354166347987153"><ele>216.33333333333331</ele><time>2026-04-26T09:44:03.001Z</time></trkpt><trkpt lat="46.12759370713085" lon="9.35431289228023"><ele>217.0</ele><time>2026-04-26T09:44:04.001Z</time></trkpt><trkpt lat="46.12770390543688" lon="9.35443721521283"><ele>217.0</ele><time>2026-04-26T09:44:05.001Z</time></trkpt><trkpt lat="46.127800306674125" lon="9.354560131281296"><ele>217.0</ele><time>2026-04-26T09:44:06.001Z</time></trkpt><trkpt lat="46.127883170055014" lon="9.354678380803849"><ele>217.0</ele><time>2026-04-26T09:44:07.001Z</time></trkpt><trkpt lat="46.12797173064072" lon="9.354807074633133"><ele>217.0</ele><time>2026-04-26T09:44:08.001Z</time></trkpt><trkpt lat="46.12807320912992" lon="9.35492584496958"><ele>217.0</ele><time>2026-04-26T09:44:09.001Z</time></trkpt><trkpt lat="46.128158714619275" lon="9.355045005537228"><ele>217.0</ele><time>2026-04-26T09:44:10.001Z</time></trkpt><trkpt lat="46.12824176605764" lon="9.355150391497014"><ele>217.0</ele><time>2026-04-26T09:44:11.001Z</time></trkpt><trkpt lat="46.12832790786638" lon="9.355256352689487"><ele>217.0</ele><time>2026-04-26T09:44:12.001Z</time></trkpt><trkpt lat="46.1284117731208" lon="9.355362332282157"><ele>217.0</ele><time>2026-04-26T09:44:13.001Z</time></trkpt><trkpt lat="46.12850555120278" lon="9.355499666128287"><ele>217.0</ele><time>2026-04-26T09:44:14.001Z</time></trkpt><trkpt lat="46.12864293582876" lon="9.355658225738518"><ele>217.0</ele><time>2026-04-26T09:44:15.001Z</time></trkpt><trkpt lat="46.12879724748946" lon="9.355857586350496"><ele>217.0</ele><time>2026-04-26T09:44:16.001Z</time></trkpt><trkpt lat="46.12892226738447" lon="9.356049716803232"><ele>217.0</ele><time>2026-04-26T09:44:17.001Z</time></trkpt><trkpt lat="46.12902419466216" lon="9.356211873077347"><ele>217.0</ele><time>2026-04-26T09:44:18.001Z</time></trkpt><trkpt lat="46.12911554595601" lon="9.356343405285322"><ele>217.5</ele><time>2026-04-26T09:44:19.001Z</time></trkpt><trkpt lat="46.12920324339024" lon="9.356462719524307"><ele>218.0</ele><time>2026-04-26T09:44:20.001Z</time></trkpt><trkpt lat="46.12928658774982" lon="9.356588692458635"><ele>218.5</ele><time>2026-04-26T09:44:21.001Z</time></trkpt><trkpt lat="46.129375432393374" lon="9.356732120630946"><ele>219.0</ele><time>2026-04-26T09:44:22.001Z</time></trkpt><trkpt lat="46.129456164828184" lon="9.356881572823596"><ele>219.0</ele><time>2026-04-26T09:44:23.001Z</time></trkpt><trkpt lat="46.129546104511604" lon="9.35703835383832"><ele>219.0</ele><time>2026-04-26T09:44:24.001Z</time></trkpt><trkpt lat="46.1296493256008" lon="9.357234292506897"><ele>219.0</ele><time>2026-04-26T09:44:25.001Z</time></trkpt><trkpt lat="46.12974267219784" lon="9.357449260726527"><ele>219.66666666666669</ele><time>2026-04-26T09:44:26.001Z</time></trkpt><trkpt lat="46.1298262149364" lon="9.357644055886198"><ele>220.33333333333334</ele><time>2026-04-26T09:44:27.001Z</time></trkpt><trkpt lat="46.12992494445151" lon="9.35784317089528"><ele>221.0</ele><time>2026-04-26T09:44:28.001Z</time></trkpt><trkpt lat="46.130018989785675" lon="9.358072028533297"><ele>219.33333333333334</ele><time>2026-04-26T09:44:29.001Z</time></trkpt><trkpt lat="46.1301092577607" lon="9.358335039638966"><ele>217.66666666666669</ele><time>2026-04-26T09:44:30.001Z</time></trkpt><trkpt lat="46.130204835253586" lon="9.358602742256686"><ele>216.0</ele><time>2026-04-26T09:44:31.001Z</time></trkpt><trkpt lat="46.130297214600496" lon="9.358864794997352"><ele>216.33333333333331</ele><time>2026-04-26T09:44:32.001Z</time></trkpt><trkpt lat="46.13038411201213" lon="9.359129497208963"><ele>216.66666666666666</ele><time>2026-04-26T09:44:33.001Z</time></trkpt><trkpt lat="46.130468000027065" lon="9.359390478706418"><ele>217.0</ele><time>2026-04-26T09:44:34.001Z</time></trkpt><trkpt lat="46.130551411975695" lon="9.359645084738453"><ele>216.66666666666666</ele><time>2026-04-26T09:44:35.001Z</time></trkpt><trkpt lat="46.13064023086787" lon="9.359887855929236"><ele>216.33333333333331</ele><time>2026-04-26T09:44:36.001Z</time></trkpt><trkpt lat="46.13073302919127" lon="9.360134763418076"><ele>216.0</ele><time>2026-04-26T09:44:37.001Z</time></trkpt><trkpt lat="46.13081844374221" lon="9.360384643217666"><ele>217.0</ele><time>2026-04-26T09:44:38.001Z</time></trkpt><trkpt lat="46.130908594211434" lon="9.360637088381663"><ele>218.0</ele><time>2026-04-26T09:44:39.001Z</time></trkpt><trkpt lat="46.13099699581961" lon="9.360891158518193"><ele>219.0</ele><time>2026-04-26T09:44:40.001Z</time></trkpt><trkpt lat="46.131086926352154" lon="9.361139973168077"><ele>218.66666666666669</ele><time>2026-04-26T09:44:41.001Z</time></trkpt><trkpt lat="46.13117596134643" lon="9.361389670515782"><ele>218.33333333333334</ele><time>2026-04-26T09:44:42.001Z</time></trkpt><trkpt lat="46.13126634682226" lon="9.361634805432315"><ele>218.0</ele><time>2026-04-26T09:44:43.001Z</time></trkpt><trkpt lat="46.13136932668158" lon="9.361877352431389"><ele>218.0</ele><time>2026-04-26T09:44:44.001Z</time></trkpt><trkpt lat="46.13145631389899" lon="9.362115458691521"><ele>218.0</ele><time>2026-04-26T09:44:45.001Z</time></trkpt><trkpt lat="46.13154901604313" lon="9.362374134212741"><ele>218.0</ele><time>2026-04-26T09:44:46.001Z</time></trkpt><trkpt lat="46.13163768942309" lon="9.362630424467012"><ele>216.33333333333334</ele><time>2026-04-26T09:44:47.001Z</time></trkpt><trkpt lat="46.1317264767666" lon="9.362882012149477"><ele>214.66666666666669</ele><time>2026-04-26T09:44:48.001Z</time></trkpt><trkpt lat="46.13181885569038" lon="9.363134528461849"><ele>213.0</ele><time>2026-04-26T09:44:49.001Z</time></trkpt><trkpt lat="46.13190402245395" lon="9.363376797460585"><ele>213.0</ele><time>2026-04-26T09:44:50.001Z</time></trkpt><trkpt lat="46.13198066593927" lon="9.363597333543064"><ele>213.0</ele><time>2026-04-26T09:44:51.001Z</time></trkpt><trkpt lat="46.13205807597824" lon="9.363809886456949"><ele>213.0</ele><time>2026-04-26T09:44:52.001Z</time></trkpt><trkpt lat="46.13212352560345" lon="9.364004225076883"><ele>214.0</ele><time>2026-04-26T09:44:53.001Z</time></trkpt><trkpt lat="46.132190591037016" lon="9.364192940639018"><ele>215.0</ele><time>2026-04-26T09:44:54.001Z</time></trkpt><trkpt lat="46.13223456474655" lon="9.364352637497367"><ele>216.0</ele><time>2026-04-26T09:44:55.001Z</time></trkpt><trkpt lat="46.13227338231365" lon="9.36450692181227"><ele>217.0</ele><time>2026-04-26T09:44:56.001Z</time></trkpt><trkpt lat="46.132301677270284" lon="9.364655506051006"><ele>217.66666666666666</ele><time>2026-04-26T09:44:57.001Z</time></trkpt><trkpt lat="46.13234752835125" lon="9.36482586659922"><ele>218.33333333333331</ele><time>2026-04-26T09:44:58.001Z</time></trkpt><trkpt lat="46.132443932876875" lon="9.36500709562439"><ele>219.0</ele><time>2026-04-26T09:44:59.001Z</time></trkpt><trkpt lat="46.13255142301507" lon="9.36520791170394"><ele>218.0</ele><time>2026-04-26T09:45:00.001Z</time></trkpt><trkpt lat="46.13263436195683" lon="9.365419687932848"><ele>217.0</ele><time>2026-04-26T09:45:01.001Z</time></trkpt><trkpt lat="46.13270395895763" lon="9.36562915932748"><ele>216.0</ele><time>2026-04-26T09:45:02.001Z</time></trkpt><trkpt lat="46.132774210038335" lon="9.365833928133082"><ele>216.0</ele><time>2026-04-26T09:45:03.001Z</time></trkpt><trkpt lat="46.13285015265424" lon="9.366042658246103"><ele>216.0</ele><time>2026-04-26T09:45:04.001Z</time></trkpt><trkpt lat="46.13291675397311" lon="9.366243376585661"><ele>216.0</ele><time>2026-04-26T09:45:05.001Z</time></trkpt><trkpt lat="46.132992056553775" lon="9.366411177213134"><ele>215.75</ele><time>2026-04-26T09:45:06.001Z</time></trkpt><trkpt lat="46.13306969806726" lon="9.366574204647884"><ele>215.5</ele><time>2026-04-26T09:45:07.001Z</time></trkpt><trkpt lat="46.13314853142889" lon="9.366720567197266"><ele>215.25</ele><time>2026-04-26T09:45:08.001Z</time></trkpt><trkpt lat="46.133228095438405" lon="9.366848040886204"><ele>215.0</ele><time>2026-04-26T09:45:09.001Z</time></trkpt><trkpt lat="46.13330848830419" lon="9.366966086532843"><ele>215.0</ele><time>2026-04-26T09:45:10.001Z</time></trkpt><trkpt lat="46.13340133023669" lon="9.367096187925803"><ele>215.0</ele><time>2026-04-26T09:45:11.001Z</time></trkpt><trkpt lat="46.13349673502976" lon="9.367250755396933"><ele>215.0</ele><time>2026-04-26T09:45:12.001Z</time></trkpt><trkpt lat="46.133594912772736" lon="9.367423967462281"><ele>215.0</ele><time>2026-04-26T09:45:13.001Z</time></trkpt><trkpt lat="46.133703827058284" lon="9.367597918105945"><ele>215.66666666666669</ele><time>2026-04-26T09:45:14.001Z</time></trkpt><trkpt lat="46.133831676837474" lon="9.367774560887858"><ele>216.33333333333331</ele><time>2026-04-26T09:45:15.001Z</time></trkpt><trkpt lat="46.13394809481524" lon="9.367986890460301"><ele>217.0</ele><time>2026-04-26T09:45:16.001Z</time></trkpt><trkpt lat="46.134087332071886" lon="9.368176113540011"><ele>215.33333333333331</ele><time>2026-04-26T09:45:17.001Z</time></trkpt><trkpt lat="46.13420086491596" lon="9.368385060200326"><ele>213.66666666666669</ele><time>2026-04-26T09:45:18.001Z</time></trkpt><trkpt lat="46.134309260427735" lon="9.368576041838164"><ele>212.0</ele><time>2026-04-26T09:45:19.001Z</time></trkpt><trkpt lat="46.13441643773813" lon="9.368745734377837"><ele>213.0</ele><time>2026-04-26T09:45:20.001Z</time></trkpt><trkpt lat="46.134502837026226" lon="9.368880243670288"><ele>214.0</ele><time>2026-04-26T09:45:21.001Z</time></trkpt><trkpt lat="46.1345845588424" lon="9.368990223893451"><ele>215.0</ele><time>2026-04-26T09:45:22.001Z</time></trkpt><trkpt lat="46.134652064341466" lon="9.369095932386005"><ele>216.0</ele><time>2026-04-26T09:45:23.001Z</time></trkpt><trkpt lat="46.13470815782793" lon="9.369202165351869"><ele>217.0</ele><time>2026-04-26T09:45:24.001Z</time></trkpt><trkpt lat="46.13475094326007" lon="9.369293408120681"><ele>217.0</ele><time>2026-04-26T09:45:25.001Z</time></trkpt><trkpt lat="46.134790961834874" lon="9.369365517806541"><ele>217.0</ele><time>2026-04-26T09:45:26.001Z</time></trkpt><trkpt lat="46.13482797430552" lon="9.36944334861432"><ele>217.0</ele><time>2026-04-26T09:45:27.001Z</time></trkpt><trkpt lat="46.13486711101264" lon="9.369529636067668"><ele>217.0</ele><time>2026-04-26T09:45:28.001Z</time></trkpt><trkpt lat="46.134907770889036" lon="9.369613356318434"><ele>217.0</ele><time>2026-04-26T09:45:29.001Z</time></trkpt><trkpt lat="46.13495206207622" lon="9.36969197300222"><ele>217.0</ele><time>2026-04-26T09:45:30.001Z</time></trkpt><trkpt lat="46.134992568187094" lon="9.369801986425168"><ele>217.0</ele><time>2026-04-26T09:45:31.001Z</time></trkpt><trkpt lat="46.13504412746117" lon="9.369900850014462"><ele>216.2</ele><time>2026-04-26T09:45:32.001Z</time></trkpt><trkpt lat="46.135081920403486" lon="9.370005953630958"><ele>215.39999999999998</ele><time>2026-04-26T09:45:33.001Z</time></trkpt><trkpt lat="46.135130854106976" lon="9.370111065162426"><ele>214.60000000000002</ele><time>2026-04-26T09:45:34.001Z</time></trkpt><trkpt lat="46.13519741053081" lon="9.370254178739641"><ele>213.8</ele><time>2026-04-26T09:45:35.001Z</time></trkpt><trkpt lat="46.13528140533438" lon="9.370359145623746"><ele>213.0</ele><time>2026-04-26T09:45:36.001Z</time></trkpt><trkpt lat="46.135313696471236" lon="9.370452501755892"><ele>213.33333333333334</ele><time>2026-04-26T09:45:37.001Z</time></trkpt><trkpt lat="46.1353477606478" lon="9.370584236402205"><ele>213.66666666666669</ele><time>2026-04-26T09:45:40.001Z</time></trkpt><trkpt lat="46.13538806805061" lon="9.370693542901225"><ele>214.0</ele><time>2026-04-26T09:45:42.001Z</time></trkpt><trkpt lat="46.13541316162181" lon="9.370838002299232"><ele>214.33333333333334</ele><time>2026-04-26T09:45:44.001Z</time></trkpt><trkpt lat="46.13547331999202" lon="9.370884962318243"><ele>214.66666666666669</ele><time>2026-04-26T09:45:46.001Z</time></trkpt><trkpt lat="46.1355285574875" lon="9.370968452115363"><ele>215.0</ele><time>2026-04-26T09:45:48.001Z</time></trkpt><trkpt lat="46.13557393782964" lon="9.371032653643871"><ele>215.0</ele><time>2026-04-26T09:45:49.001Z</time></trkpt><trkpt lat="46.135642745532365" lon="9.371175175239367"><ele>215.0</ele><time>2026-04-26T09:45:51.001Z</time></trkpt><trkpt lat="46.135682636595234" lon="9.37130333041852"><ele>215.0</ele><time>2026-04-26T09:45:52.001Z</time></trkpt><trkpt lat="46.13576389685827" lon="9.371438885141052"><ele>215.0</ele><time>2026-04-26T09:45:53.001Z</time></trkpt><trkpt lat="46.13580062106575" lon="9.37155829127002"><ele>215.0</ele><time>2026-04-26T09:45:54.001Z</time></trkpt><trkpt lat="46.13583500167246" lon="9.37163715993884"><ele>214.6</ele><time>2026-04-26T09:45:55.001Z</time></trkpt><trkpt lat="46.13587489021435" lon="9.371710994456794"><ele>214.2</ele><time>2026-04-26T09:45:56.001Z</time></trkpt><trkpt lat="46.13592746111504" lon="9.37181804162837"><ele>213.8</ele><time>2026-04-26T09:45:57.001Z</time></trkpt><trkpt lat="46.13598719435989" lon="9.371945871361465"><ele>213.4</ele><time>2026-04-26T09:45:58.001Z</time></trkpt><trkpt lat="46.136039096117415" lon="9.372108625831377"><ele>213.0</ele><time>2026-04-26T09:45:59.001Z</time></trkpt><trkpt lat="46.136109958976846" lon="9.372240246752275"><ele>213.0</ele><time>2026-04-26T09:46:00.001Z</time></trkpt><trkpt lat="46.13614922662438" lon="9.372362347733311"><ele>213.0</ele><time>2026-04-26T09:46:01.001Z</time></trkpt><trkpt lat="46.136184906382645" lon="9.372463882097927"><ele>213.0</ele><time>2026-04-26T09:46:02.001Z</time></trkpt><trkpt lat="46.13622311566479" lon="9.37255685983303"><ele>213.0</ele><time>2026-04-26T09:46:03.001Z</time></trkpt><trkpt lat="46.13626867650446" lon="9.37264213962601"><ele>213.0</ele><time>2026-04-26T09:46:04.001Z</time></trkpt><trkpt lat="46.13632923721694" lon="9.372750550110025"><ele>213.0</ele><time>2026-04-26T09:46:05.001Z</time></trkpt><trkpt lat="46.13638849812512" lon="9.372934827551358"><ele>212.8</ele><time>2026-04-26T09:46:06.001Z</time></trkpt><trkpt lat="46.13643502429983" lon="9.373100113204512"><ele>212.60000000000002</ele><time>2026-04-26T09:46:07.001Z</time></trkpt><trkpt lat="46.136510358174846" lon="9.373194244916181"><ele>212.39999999999998</ele><time>2026-04-26T09:46:08.001Z</time></trkpt><trkpt lat="46.13658457978676" lon="9.373295004181534"><ele>212.2</ele><time>2026-04-26T09:46:09.001Z</time></trkpt><trkpt lat="46.13664876065657" lon="9.373425326001344"><ele>212.0</ele><time>2026-04-26T09:46:10.001Z</time></trkpt><trkpt lat="46.13672858727356" lon="9.373548696248823"><ele>212.0</ele><time>2026-04-26T09:46:11.001Z</time></trkpt><trkpt lat="46.136764024394445" lon="9.373696155019509"><ele>212.0</ele><time>2026-04-26T09:46:12.001Z</time></trkpt><trkpt lat="46.13682898850326" lon="9.373813389869046"><ele>212.0</ele><time>2026-04-26T09:46:13.001Z</time></trkpt><trkpt lat="46.136900066012366" lon="9.373937881329262"><ele>212.0</ele><time>2026-04-26T09:46:14.001Z</time></trkpt><trkpt lat="46.13696301225938" lon="9.374069216306243"><ele>212.0</ele><time>2026-04-26T09:46:15.001Z</time></trkpt><trkpt lat="46.13703368708531" lon="9.374200047061187"><ele>212.33333333333334</ele><time>2026-04-26T09:46:16.001Z</time></trkpt><trkpt lat="46.1370827042569" lon="9.374318574263505"><ele>212.66666666666669</ele><time>2026-04-26T09:46:17.001Z</time></trkpt><trkpt lat="46.137119250214376" lon="9.374410297483653"><ele>213.0</ele><time>2026-04-26T09:46:18.001Z</time></trkpt><trkpt lat="46.13715195265182" lon="9.374488766991494"><ele>213.33333333333331</ele><time>2026-04-26T09:46:19.001Z</time></trkpt><trkpt lat="46.137213737358316" lon="9.374612065348607"><ele>213.66666666666666</ele><time>2026-04-26T09:46:21.001Z</time></trkpt><trkpt lat="46.13727636260933" lon="9.374736754867918"><ele>214.0</ele><time>2026-04-26T09:46:23.001Z</time></trkpt><trkpt lat="46.13731920805592" lon="9.374829689884194"><ele>214.25</ele><time>2026-04-26T09:46:24.001Z</time></trkpt><trkpt lat="46.13737993397806" lon="9.374938473521956"><ele>214.5</ele><time>2026-04-26T09:46:25.001Z</time></trkpt><trkpt lat="46.13745012215027" lon="9.375084318638887"><ele>214.75</ele><time>2026-04-26T09:46:26.001Z</time></trkpt><trkpt lat="46.137522625466765" lon="9.375245070790726"><ele>215.0</ele><time>2026-04-26T09:46:27.001Z</time></trkpt><trkpt lat="46.13759542616395" lon="9.375404335441257"><ele>214.25</ele><time>2026-04-26T09:46:28.001Z</time></trkpt><trkpt lat="46.137668069242366" lon="9.375586612366376"><ele>213.5</ele><time>2026-04-26T09:46:29.001Z</time></trkpt><trkpt lat="46.13772908650369" lon="9.375765496140696"><ele>212.75</ele><time>2026-04-26T09:46:30.001Z</time></trkpt><trkpt lat="46.13780441694877" lon="9.375946026313969"><ele>212.0</ele><time>2026-04-26T09:46:31.001Z</time></trkpt><trkpt lat="46.13788254300386" lon="9.376131156407693"><ele>212.0</ele><time>2026-04-26T09:46:32.001Z</time></trkpt><trkpt lat="46.13796574221488" lon="9.376303605543201"><ele>212.0</ele><time>2026-04-26T09:46:33.001Z</time></trkpt><trkpt lat="46.138040328099834" lon="9.376470452098784"><ele>212.0</ele><time>2026-04-26T09:46:34.001Z</time></trkpt><trkpt lat="46.138105186759475" lon="9.376622828151325"><ele>212.0</ele><time>2026-04-26T09:46:35.001Z</time></trkpt><trkpt lat="46.13817654790543" lon="9.376775989881317"><ele>211.75</ele><time>2026-04-26T09:46:36.001Z</time></trkpt><trkpt lat="46.13824566594029" lon="9.376919900471416"><ele>211.5</ele><time>2026-04-26T09:46:37.001Z</time></trkpt><trkpt lat="46.138315992067334" lon="9.377066435795756"><ele>211.25</ele><time>2026-04-26T09:46:38.001Z</time></trkpt><trkpt lat="46.138385984493425" lon="9.37721328482081"><ele>211.0</ele><time>2026-04-26T09:46:39.001Z</time></trkpt><trkpt lat="46.13844544801252" lon="9.377351209020514"><ele>211.0</ele><time>2026-04-26T09:46:40.001Z</time></trkpt><trkpt lat="46.13850176032139" lon="9.37747594427703"><ele>211.0</ele><time>2026-04-26T09:46:41.001Z</time></trkpt><trkpt lat="46.138555575998346" lon="9.377581854330234"><ele>211.0</ele><time>2026-04-26T09:46:42.001Z</time></trkpt><trkpt lat="46.13859880267093" lon="9.377685640606106"><ele>211.0</ele><time>2026-04-26T09:46:43.001Z</time></trkpt><trkpt lat="46.13863900440953" lon="9.377790816448767"><ele>211.0</ele><time>2026-04-26T09:46:44.001Z</time></trkpt><trkpt lat="46.138686250764756" lon="9.37790348231979"><ele>211.0</ele><time>2026-04-26T09:46:45.001Z</time></trkpt><trkpt lat="46.138735555885106" lon="9.377998979871503"><ele>211.0</ele><time>2026-04-26T09:46:46.001Z</time></trkpt><trkpt lat="46.13878730412765" lon="9.378111793427076"><ele>211.0</ele><time>2026-04-26T09:46:47.001Z</time></trkpt><trkpt lat="46.13884220678185" lon="9.378227848586144"><ele>211.0</ele><time>2026-04-26T09:46:48.001Z</time></trkpt><trkpt lat="46.1388985131215" lon="9.378364206348884"><ele>211.0</ele><time>2026-04-26T09:46:49.001Z</time></trkpt><trkpt lat="46.13895463818459" lon="9.378508525340637"><ele>211.0</ele><time>2026-04-26T09:46:50.001Z</time></trkpt><trkpt lat="46.13900238717132" lon="9.378661209772222"><ele>211.0</ele><time>2026-04-26T09:46:51.001Z</time></trkpt><trkpt lat="46.13904232118383" lon="9.378829575855118"><ele>211.0</ele><time>2026-04-26T09:46:52.001Z</time></trkpt><trkpt lat="46.1390840130826" lon="9.378985637977927"><ele>211.0</ele><time>2026-04-26T09:46:53.001Z</time></trkpt><trkpt lat="46.13912532961787" lon="9.379149440372352"><ele>211.0</ele><time>2026-04-26T09:46:54.001Z</time></trkpt><trkpt lat="46.13916532038312" lon="9.379316424127921"><ele>211.0</ele><time>2026-04-26T09:46:55.001Z</time></trkpt><trkpt lat="46.1391960537602" lon="9.379479508399003"><ele>211.0</ele><time>2026-04-26T09:46:56.001Z</time></trkpt><trkpt lat="46.139225177616275" lon="9.379632016412192"><ele>211.0</ele><time>2026-04-26T09:46:57.001Z</time></trkpt><trkpt lat="46.13925018065047" lon="9.379781916553483"><ele>211.4</ele><time>2026-04-26T09:46:58.001Z</time></trkpt><trkpt lat="46.139273939256896" lon="9.37992492272219"><ele>211.8</ele><time>2026-04-26T09:46:59.001Z</time></trkpt><trkpt lat="46.139285019306335" lon="9.38006668791915"><ele>212.20000000000002</ele><time>2026-04-26T09:47:00.001Z</time></trkpt><trkpt lat="46.13929442862988" lon="9.380207416646549"><ele>212.60000000000002</ele><time>2026-04-26T09:47:01.001Z</time></trkpt><trkpt lat="46.13930677569342" lon="9.380340414541907"><ele>213.0</ele><time>2026-04-26T09:47:02.001Z</time></trkpt><trkpt lat="46.13931646284364" lon="9.380467045322444"><ele>213.60000000000002</ele><time>2026-04-26T09:47:03.001Z</time></trkpt><trkpt lat="46.139318930081124" lon="9.380591745037387"><ele>214.20000000000002</ele><time>2026-04-26T09:47:04.001Z</time></trkpt><trkpt lat="46.13932301728565" lon="9.380717491777053"><ele>214.8</ele><time>2026-04-26T09:47:05.001Z</time></trkpt><trkpt lat="46.13934058429445" lon="9.380854182302732"><ele>215.4</ele><time>2026-04-26T09:47:06.001Z</time></trkpt><trkpt lat="46.13934963848853" lon="9.380985898833037"><ele>216.0</ele><time>2026-04-26T09:47:07.001Z</time></trkpt><trkpt lat="46.13935962727389" lon="9.38112240970064"><ele>216.0</ele><time>2026-04-26T09:47:08.001Z</time></trkpt><trkpt lat="46.139365990522975" lon="9.38127422843591"><ele>216.0</ele><time>2026-04-26T09:47:09.001Z</time></trkpt><trkpt lat="46.139364675710894" lon="9.381457967246245"><ele>216.0</ele><time>2026-04-26T09:47:10.001Z</time></trkpt><trkpt lat="46.13935293129594" lon="9.381640200684574"><ele>216.0</ele><time>2026-04-26T09:47:11.001Z</time></trkpt><trkpt lat="46.139331114504316" lon="9.381824778840361"><ele>216.66666666666669</ele><time>2026-04-26T09:47:12.001Z</time></trkpt><trkpt lat="46.13941010849429" lon="9.382099964185343"><ele>217.33333333333334</ele><time>2026-04-26T09:47:13.001Z</time></trkpt><trkpt lat="46.139428336813694" lon="9.382313331235487"><ele>218.0</ele><time>2026-04-26T09:47:14.001Z</time></trkpt><trkpt lat="46.1394537939259" lon="9.38253428082656"><ele>218.33333333333334</ele><time>2026-04-26T09:47:15.001Z</time></trkpt><trkpt lat="46.13947216482488" lon="9.3827531787585"><ele>218.66666666666669</ele><time>2026-04-26T09:47:16.001Z</time></trkpt><trkpt lat="46.13948734875986" lon="9.382981013562475"><ele>219.0</ele><time>2026-04-26T09:47:17.001Z</time></trkpt><trkpt lat="46.13949882477005" lon="9.383199378242256"><ele>219.25</ele><time>2026-04-26T09:47:18.001Z</time></trkpt><trkpt lat="46.139505559534854" lon="9.383407761162374"><ele>219.5</ele><time>2026-04-26T09:47:19.001Z</time></trkpt><trkpt lat="46.13951355652678" lon="9.383597886176103"><ele>219.75</ele><time>2026-04-26T09:47:20.001Z</time></trkpt><trkpt lat="46.13952098001661" lon="9.383773893214022"><ele>220.0</ele><time>2026-04-26T09:47:21.001Z</time></trkpt><trkpt lat="46.13951930001912" lon="9.383933121296312"><ele>220.0</ele><time>2026-04-26T09:47:22.001Z</time></trkpt><trkpt lat="46.13949585076531" lon="9.384069658938103"><ele>220.0</ele><time>2026-04-26T09:47:23.001Z</time></trkpt><trkpt lat="46.13946424847203" lon="9.384210583919197"><ele>220.0</ele><time>2026-04-26T09:47:24.001Z</time></trkpt><trkpt lat="46.13948755253792" lon="9.384353640584923"><ele>220.0</ele><time>2026-04-26T09:47:25.001Z</time></trkpt><trkpt lat="46.13952916104623" lon="9.384488933453929"><ele>220.0</ele><time>2026-04-26T09:47:26.001Z</time></trkpt><trkpt lat="46.13958685316562" lon="9.384668770198942"><ele>220.0</ele><time>2026-04-26T09:47:27.001Z</time></trkpt><trkpt lat="46.139600227766856" lon="9.384877015011002"><ele>220.0</ele><time>2026-04-26T09:47:28.001Z</time></trkpt><trkpt lat="46.13961880106921" lon="9.385102879423036"><ele>220.0</ele><time>2026-04-26T09:47:29.001Z</time></trkpt><trkpt lat="46.13963626333246" lon="9.385334769117927"><ele>220.33333333333331</ele><time>2026-04-26T09:47:30.001Z</time></trkpt><trkpt lat="46.13965346423892" lon="9.385575107265987"><ele>220.66666666666669</ele><time>2026-04-26T09:47:31.001Z</time></trkpt><trkpt lat="46.139669755437495" lon="9.38582419693524"><ele>221.0</ele><time>2026-04-26T09:47:32.001Z</time></trkpt><trkpt lat="46.13968924727223" lon="9.386074382080393"><ele>221.0</ele><time>2026-04-26T09:47:33.001Z</time></trkpt><trkpt lat="46.139705813373865" lon="9.38630888958747"><ele>221.0</ele><time>2026-04-26T09:47:34.001Z</time></trkpt><trkpt lat="46.139720708993934" lon="9.386521181581967"><ele>221.0</ele><time>2026-04-26T09:47:35.001Z</time></trkpt><trkpt lat="46.1397337368061" lon="9.386717437427032"><ele>221.0</ele><time>2026-04-26T09:47:36.001Z</time></trkpt><trkpt lat="46.13974544395246" lon="9.38691114552618"><ele>221.0</ele><time>2026-04-26T09:47:37.001Z</time></trkpt><trkpt lat="46.13975583538348" lon="9.387094787412375"><ele>221.0</ele><time>2026-04-26T09:47:38.001Z</time></trkpt><trkpt lat="46.13976701917936" lon="9.387295271008947"><ele>221.0</ele><time>2026-04-26T09:47:39.001Z</time></trkpt><trkpt lat="46.13979591828441" lon="9.387552434294005"><ele>221.0</ele><time>2026-04-26T09:47:40.001Z</time></trkpt><trkpt lat="46.13983169315392" lon="9.387858475060941"><ele>220.66666666666669</ele><time>2026-04-26T09:47:41.001Z</time></trkpt><trkpt lat="46.13983763507269" lon="9.388154213720357"><ele>220.33333333333331</ele><time>2026-04-26T09:47:42.001Z</time></trkpt><trkpt lat="46.13984098216737" lon="9.388426787828214"><ele>220.0</ele><time>2026-04-26T09:47:43.001Z</time></trkpt><trkpt lat="46.13986026167408" lon="9.388679302610063"><ele>220.0</ele><time>2026-04-26T09:47:44.001Z</time></trkpt><trkpt lat="46.13988335036044" lon="9.388936082235617"><ele>220.0</ele><time>2026-04-26T09:47:45.001Z</time></trkpt><trkpt lat="46.13989004934897" lon="9.389203156239967"><ele>220.0</ele><time>2026-04-26T09:47:46.001Z</time></trkpt><trkpt lat="46.1399220670775" lon="9.389468632611855"><ele>219.33333333333331</ele><time>2026-04-26T09:47:47.001Z</time></trkpt><trkpt lat="46.13993246702566" lon="9.38973068239509"><ele>218.66666666666669</ele><time>2026-04-26T09:47:48.001Z</time></trkpt><trkpt lat="46.139951990246715" lon="9.389957073746904"><ele>218.0</ele><time>2026-04-26T09:47:49.001Z</time></trkpt><trkpt lat="46.1399699432209" lon="9.390192722226288"><ele>218.0</ele><time>2026-04-26T09:47:50.001Z</time></trkpt><trkpt lat="46.139984773562276" lon="9.390445353414156"><ele>218.0</ele><time>2026-04-26T09:47:51.001Z</time></trkpt><trkpt lat="46.13999912210706" lon="9.390681456686114"><ele>218.0</ele><time>2026-04-26T09:47:52.001Z</time></trkpt><trkpt lat="46.14000933332708" lon="9.390909219829053"><ele>218.25</ele><time>2026-04-26T09:47:53.001Z</time></trkpt><trkpt lat="46.14002804032484" lon="9.391125214596919"><ele>218.5</ele><time>2026-04-26T09:47:54.001Z</time></trkpt><trkpt lat="46.140034072064374" lon="9.391333746914263"><ele>218.75</ele><time>2026-04-26T09:47:55.001Z</time></trkpt><trkpt lat="46.140030398526946" lon="9.391549147422653"><ele>219.0</ele><time>2026-04-26T09:47:56.001Z</time></trkpt><trkpt lat="46.14005097501967" lon="9.391806627959449"><ele>219.0</ele><time>2026-04-26T09:47:57.001Z</time></trkpt><trkpt lat="46.14004395612137" lon="9.39210751629681"><ele>219.0</ele><time>2026-04-26T09:47:58.001Z</time></trkpt><trkpt lat="46.14006237376557" lon="9.392404781838655"><ele>219.0</ele><time>2026-04-26T09:47:59.001Z</time></trkpt><trkpt lat="46.14005954744724" lon="9.392679914173733"><ele>219.0</ele><time>2026-04-26T09:48:00.001Z</time></trkpt><trkpt lat="46.14006120315469" lon="9.392941774312346"><ele>219.0</ele><time>2026-04-26T09:48:01.001Z</time></trkpt><trkpt lat="46.1400754622154" lon="9.393195565181616"><ele>219.0</ele><time>2026-04-26T09:48:02.001Z</time></trkpt><trkpt lat="46.14007408710996" lon="9.393434293555798"><ele>218.75</ele><time>2026-04-26T09:48:03.001Z</time></trkpt><trkpt lat="46.14006879303362" lon="9.393658463115377"><ele>218.5</ele><time>2026-04-26T09:48:04.001Z</time></trkpt><trkpt lat="46.14007425908242" lon="9.393872577049954"><ele>218.25</ele><time>2026-04-26T09:48:05.001Z</time></trkpt><trkpt lat="46.140088171262974" lon="9.394079383148343"><ele>218.0</ele><time>2026-04-26T09:48:06.001Z</time></trkpt><trkpt lat="46.140119303556865" lon="9.39427174452887"><ele>217.25</ele><time>2026-04-26T09:48:07.001Z</time></trkpt><trkpt lat="46.14014693166837" lon="9.394419173555125"><ele>216.5</ele><time>2026-04-26T09:48:08.001Z</time></trkpt><trkpt lat="46.140189594560425" lon="9.394617944160327"><ele>215.75</ele><time>2026-04-26T09:48:09.001Z</time></trkpt><trkpt lat="46.14024536916414" lon="9.394794003141646"><ele>215.0</ele><time>2026-04-26T09:48:10.001Z</time></trkpt><trkpt lat="46.1403175948368" lon="9.394984405392574"><ele>214.33333333333334</ele><time>2026-04-26T09:48:11.001Z</time></trkpt><trkpt lat="46.140399626709154" lon="9.395172709775531"><ele>213.66666666666669</ele><time>2026-04-26T09:48:12.001Z</time></trkpt><trkpt lat="46.140481392487345" lon="9.395363543435833"><ele>213.0</ele><time>2026-04-26T09:48:13.001Z</time></trkpt><trkpt lat="46.140557017167474" lon="9.395555857687686"><ele>212.5</ele><time>2026-04-26T09:48:14.001Z</time></trkpt><trkpt lat="46.140626086080246" lon="9.395742674191698"><ele>212.0</ele><time>2026-04-26T09:48:15.001Z</time></trkpt><trkpt lat="46.140699681402744" lon="9.3959236040191"><ele>211.5</ele><time>2026-04-26T09:48:16.001Z</time></trkpt><trkpt lat="46.14076340181902" lon="9.396094852322282"><ele>211.0</ele><time>2026-04-26T09:48:17.001Z</time></trkpt><trkpt lat="46.14083915209178" lon="9.396277202253831"><ele>210.5</ele><time>2026-04-26T09:48:18.001Z</time></trkpt><trkpt lat="46.14091086591539" lon="9.39646310315567"><ele>210.0</ele><time>2026-04-26T09:48:19Z</time></trkpt><trkpt lat="46.1409759406744" lon="9.396636920107918"><ele>209.5</ele><time>2026-04-26T09:48:20Z</time></trkpt><trkpt lat="46.141038179974785" lon="9.396809023165854"><ele>209.0</ele><time>2026-04-26T09:48:21Z</time></trkpt><trkpt lat="46.14110281078179" lon="9.396967981331429"><ele>209.0</ele><time>2026-04-26T09:48:22Z</time></trkpt><trkpt lat="46.141168634930544" lon="9.397116960902395"><ele>209.0</ele><time>2026-04-26T09:48:23Z</time></trkpt><trkpt lat="46.14123079741041" lon="9.397262889104557"><ele>209.0</ele><time>2026-04-26T09:48:24Z</time></trkpt><trkpt lat="46.14129215365719" lon="9.397417543437122"><ele>209.0</ele><time>2026-04-26T09:48:25Z</time></trkpt><trkpt lat="46.14138102300978" lon="9.397581065066191"><ele>208.75</ele><time>2026-04-26T09:48:26Z</time></trkpt><trkpt lat="46.14142741902082" lon="9.39775439999798"><ele>208.5</ele><time>2026-04-26T09:48:27Z</time></trkpt><trkpt lat="46.141478730184424" lon="9.39791033203112"><ele>208.25</ele><time>2026-04-26T09:48:28Z</time></trkpt><trkpt lat="46.14152082019537" lon="9.398064139229243"><ele>208.0</ele><time>2026-04-26T09:48:29Z</time></trkpt><trkpt lat="46.1415596685948" lon="9.398204129440304"><ele>207.66666666666666</ele><time>2026-04-26T09:48:30Z</time></trkpt><trkpt lat="46.14158428156297" lon="9.39834419209239"><ele>207.33333333333331</ele><time>2026-04-26T09:48:31Z</time></trkpt><trkpt lat="46.14160539395353" lon="9.39847669385354"><ele>207.0</ele><time>2026-04-26T09:48:32Z</time></trkpt><trkpt lat="46.14160907528885" lon="9.398608848074941"><ele>206.66666666666669</ele><time>2026-04-26T09:48:33Z</time></trkpt><trkpt lat="46.14160625207434" lon="9.398735771486415"><ele>206.33333333333334</ele><time>2026-04-26T09:48:34Z</time></trkpt><trkpt lat="46.14159331820119" lon="9.398836797100374"><ele>206.0</ele><time>2026-04-26T09:48:35Z</time></trkpt><trkpt lat="46.14160993382751" lon="9.398929504313696"><ele>205.60000000000002</ele><time>2026-04-26T09:48:36Z</time></trkpt><trkpt lat="46.1416865968862" lon="9.398943201678188"><ele>205.2</ele><time>2026-04-26T09:48:37Z</time></trkpt><trkpt lat="46.14176610373893" lon="9.398981218596044"><ele>204.8</ele><time>2026-04-26T09:48:38Z</time></trkpt><trkpt lat="46.141849302299434" lon="9.399017044299072"><ele>204.39999999999998</ele><time>2026-04-26T09:48:39Z</time></trkpt><trkpt lat="46.14191210902244" lon="9.399093168672879"><ele>204.0</ele><time>2026-04-26T09:48:40Z</time></trkpt><trkpt lat="46.141988247019626" lon="9.39922756083565"><ele>204.0</ele><time>2026-04-26T09:48:41Z</time></trkpt><trkpt lat="46.142073784531206" lon="9.399426880651555"><ele>204.0</ele><time>2026-04-26T09:48:42Z</time></trkpt><trkpt lat="46.14218715727244" lon="9.399709230432352"><ele>204.0</ele><time>2026-04-26T09:48:43Z</time></trkpt><trkpt lat="46.14228464188526" lon="9.400056100134453"><ele>203.5</ele><time>2026-04-26T09:48:44Z</time></trkpt><trkpt lat="46.142417646884205" lon="9.400438065599692"><ele>203.0</ele><time>2026-04-26T09:48:45Z</time></trkpt><trkpt lat="46.14257871167407" lon="9.40083359379932"><ele>203.0</ele><time>2026-04-26T09:48:46Z</time></trkpt><trkpt lat="46.14274196461834" lon="9.40125987783407"><ele>203.0</ele><time>2026-04-26T09:48:47Z</time></trkpt><trkpt lat="46.142898181595164" lon="9.401717520456781"><ele>202.0</ele><time>2026-04-26T09:48:48Z</time></trkpt><trkpt lat="46.14303904573294" lon="9.40219125565854"><ele>201.0</ele><time>2026-04-26T09:48:49Z</time></trkpt><trkpt lat="46.143164155025374" lon="9.402679830372163"><ele>202.5</ele><time>2026-04-26T09:48:50Z</time></trkpt><trkpt lat="46.14325908892968" lon="9.403164298922258"><ele>204.0</ele><time>2026-04-26T09:48:51Z</time></trkpt><trkpt lat="46.14334092598366" lon="9.403643672380712"><ele>204.5</ele><time>2026-04-26T09:48:52Z</time></trkpt><trkpt lat="46.14339817200041" lon="9.404124594099315"><ele>205.0</ele><time>2026-04-26T09:48:53Z</time></trkpt><trkpt lat="46.14344259853995" lon="9.404580772095695"><ele>204.5</ele><time>2026-04-26T09:48:54Z</time></trkpt><trkpt lat="46.14347574063775" lon="9.405006191593811"><ele>204.0</ele><time>2026-04-26T09:48:55Z</time></trkpt><trkpt lat="46.14349630925577" lon="9.405394555653096"><ele>203.0</ele><time>2026-04-26T09:48:56Z</time></trkpt><trkpt lat="46.14351233993073" lon="9.405760597608879"><ele>202.0</ele><time>2026-04-26T09:48:57Z</time></trkpt><trkpt lat="46.143526333633716" lon="9.406102679158055"><ele>202.0</ele><time>2026-04-26T09:48:58Z</time></trkpt><trkpt lat="46.14352424395302" lon="9.406385128893374"><ele>202.0</ele><time>2026-04-26T09:48:59Z</time></trkpt><trkpt lat="46.1435460446814" lon="9.406655097935854"><ele>202.0</ele><time>2026-04-26T09:49:00Z</time></trkpt><trkpt lat="46.14357226887381" lon="9.406862846111002"><ele>202.0</ele><time>2026-04-26T09:49:01Z</time></trkpt><trkpt lat="46.14360690383485" lon="9.407021494069506"><ele>202.0</ele><time>2026-04-26T09:49:02Z</time></trkpt><trkpt lat="46.143626382250524" lon="9.407166118974567"><ele>202.0</ele><time>2026-04-26T09:49:03Z</time></trkpt><trkpt lat="46.14363355914124" lon="9.407310951146089"><ele>202.0</ele><time>2026-04-26T09:49:04Z</time></trkpt><trkpt lat="46.14362184160778" lon="9.407469958114465"><ele>202.0</ele><time>2026-04-26T09:49:05Z</time></trkpt><trkpt lat="46.14363137355033" lon="9.407649081130387"><ele>202.0</ele><time>2026-04-26T09:49:06Z</time></trkpt><trkpt lat="46.143596275227594" lon="9.407851401549452"><ele>202.0</ele><time>2026-04-26T09:49:07Z</time></trkpt><trkpt lat="46.143546737001756" lon="9.408060167448127"><ele>202.0</ele><time>2026-04-26T09:49:08Z</time></trkpt><trkpt lat="46.143495398651794" lon="9.408294754330946"><ele>202.0</ele><time>2026-04-26T09:49:09Z</time></trkpt><trkpt lat="46.14344213992826" lon="9.408515071679982"><ele>202.0</ele><time>2026-04-26T09:49:10Z</time></trkpt><trkpt lat="46.143395339263776" lon="9.40873810577018"><ele>202.0</ele><time>2026-04-26T09:49:11Z</time></trkpt><trkpt lat="46.143341496717746" lon="9.408960100904665"><ele>202.0</ele><time>2026-04-26T09:49:12Z</time></trkpt><trkpt lat="46.14328919225689" lon="9.409186889411338"><ele>202.0</ele><time>2026-04-26T09:49:13Z</time></trkpt><trkpt lat="46.14323340922945" lon="9.409393063747203"><ele>202.0</ele><time>2026-04-26T09:49:14.001Z</time></trkpt><trkpt lat="46.14317313296661" lon="9.409590687711622"><ele>202.25</ele><time>2026-04-26T09:49:15.001Z</time></trkpt><trkpt lat="46.14310088427276" lon="9.409759994896579"><ele>202.5</ele><time>2026-04-26T09:49:16.001Z</time></trkpt><trkpt lat="46.14301440269871" lon="9.409913693969383"><ele>202.75</ele><time>2026-04-26T09:49:17.001Z</time></trkpt><trkpt lat="46.14290599297659" lon="9.410057457425925"><ele>203.0</ele><time>2026-04-26T09:49:18.001Z</time></trkpt><trkpt lat="46.142779629117626" lon="9.410181273249153"><ele>203.0</ele><time>2026-04-26T09:49:19.001Z</time></trkpt><trkpt lat="46.14264714309092" lon="9.410283375861795"><ele>203.0</ele><time>2026-04-26T09:49:20.001Z</time></trkpt><trkpt lat="46.14251800944098" lon="9.41035384007232"><ele>203.0</ele><time>2026-04-26T09:49:21.001Z</time></trkpt><trkpt lat="46.1423926400456" lon="9.410401368728028"><ele>203.0</ele><time>2026-04-26T09:49:22.001Z</time></trkpt><trkpt lat="46.142272150281315" lon="9.410427193631055"><ele>203.0</ele><time>2026-04-26T09:49:23.001Z</time></trkpt><trkpt lat="46.14211902353327" lon="9.41045819037681"><ele>203.0</ele><time>2026-04-26T09:49:24.001Z</time></trkpt><trkpt lat="46.1419997785827" lon="9.4104962311463"><ele>203.0</ele><time>2026-04-26T09:49:25.001Z</time></trkpt><trkpt lat="46.14187357931784" lon="9.410573975867523"><ele>203.0</ele><time>2026-04-26T09:49:26.001Z</time></trkpt><trkpt lat="46.14174930847768" lon="9.410690169120322"><ele>202.66666666666669</ele><time>2026-04-26T09:49:27.001Z</time></trkpt><trkpt lat="46.14163730682001" lon="9.410829074838343"><ele>202.33333333333331</ele><time>2026-04-26T09:49:28.001Z</time></trkpt><trkpt lat="46.14154410337646" lon="9.410999735402328"><ele>202.0</ele><time>2026-04-26T09:49:29.001Z</time></trkpt><trkpt lat="46.14148017394824" lon="9.411207158612351"><ele>202.25</ele><time>2026-04-26T09:49:30.001Z</time></trkpt><trkpt lat="46.141414447252835" lon="9.41140508589248"><ele>202.5</ele><time>2026-04-26T09:49:31.001Z</time></trkpt><trkpt lat="46.14139947661561" lon="9.411626299057195"><ele>202.75</ele><time>2026-04-26T09:49:32.001Z</time></trkpt><trkpt lat="46.14139721392534" lon="9.411825199140674"><ele>203.0</ele><time>2026-04-26T09:49:33.001Z</time></trkpt><trkpt lat="46.141410089648524" lon="9.412014138713952"><ele>202.75</ele><time>2026-04-26T09:49:34.001Z</time></trkpt><trkpt lat="46.14144299588622" lon="9.412216908223353"><ele>202.5</ele><time>2026-04-26T09:49:35.001Z</time></trkpt><trkpt lat="46.14150522244211" lon="9.412409722762424"><ele>202.25</ele><time>2026-04-26T09:49:36.001Z</time></trkpt><trkpt lat="46.14158511829606" lon="9.412592459485383"><ele>202.0</ele><time>2026-04-26T09:49:37.001Z</time></trkpt><trkpt lat="46.14168572142638" lon="9.412765828948531"><ele>201.75</ele><time>2026-04-26T09:49:38.001Z</time></trkpt><trkpt lat="46.14179403830773" lon="9.412900718381493"><ele>201.5</ele><time>2026-04-26T09:49:39.001Z</time></trkpt><trkpt lat="46.14192106875167" lon="9.413003886999833"><ele>201.25</ele><time>2026-04-26T09:49:40.001Z</time></trkpt><trkpt lat="46.142049798967285" lon="9.413091563582588"><ele>201.0</ele><time>2026-04-26T09:49:41.001Z</time></trkpt><trkpt lat="46.142194393058396" lon="9.413148201357561"><ele>201.0</ele><time>2026-04-26T09:49:42.001Z</time></trkpt><trkpt lat="46.14234390391886" lon="9.413157341891768"><ele>201.0</ele><time>2026-04-26T09:49:43.001Z</time></trkpt><trkpt lat="46.142491511176495" lon="9.413137549878398"><ele>201.0</ele><time>2026-04-26T09:49:44.001Z</time></trkpt><trkpt lat="46.14264631199164" lon="9.413084901035273"><ele>201.33333333333331</ele><time>2026-04-26T09:49:45.001Z</time></trkpt><trkpt lat="46.14279760973919" lon="9.41300272990711"><ele>201.66666666666666</ele><time>2026-04-26T09:49:46.001Z</time></trkpt><trkpt lat="46.142939048366216" lon="9.412913357928124"><ele>202.0</ele><time>2026-04-26T09:49:47.001Z</time></trkpt><trkpt lat="46.143039161853096" lon="9.41272739955721"><ele>201.5</ele><time>2026-04-26T09:49:48.001Z</time></trkpt><trkpt lat="46.14314449417731" lon="9.412547856216726"><ele>201.0</ele><time>2026-04-26T09:49:49.001Z</time></trkpt><trkpt lat="46.143226995814835" lon="9.412384070275618"><ele>200.5</ele><time>2026-04-26T09:49:50.001Z</time></trkpt><trkpt lat="46.143325860357905" lon="9.412234051012664"><ele>200.0</ele><time>2026-04-26T09:49:51.001Z</time></trkpt><trkpt lat="46.143426033105385" lon="9.412125967468965"><ele>201.0</ele><time>2026-04-26T09:49:52.001Z</time></trkpt><trkpt lat="46.143547908881374" lon="9.412080654778748"><ele>202.0</ele><time>2026-04-26T09:49:53.001Z</time></trkpt><trkpt lat="46.14369383346422" lon="9.412070220686775"><ele>203.0</ele><time>2026-04-26T09:49:54.001Z</time></trkpt><trkpt lat="46.14386214049969" lon="9.41207772701087"><ele>204.0</ele><time>2026-04-26T09:49:55.001Z</time></trkpt><trkpt lat="46.144006823016525" lon="9.412073446125945"><ele>204.25</ele><time>2026-04-26T09:49:56.001Z</time></trkpt><trkpt lat="46.144161595058726" lon="9.412064508585958"><ele>204.5</ele><time>2026-04-26T09:49:57.001Z</time></trkpt><trkpt lat="46.144306044651536" lon="9.412068682401799"><ele>204.75</ele><time>2026-04-26T09:49:58.001Z</time></trkpt><trkpt lat="46.14443388900167" lon="9.412021068818865"><ele>205.0</ele><time>2026-04-26T09:49:59.001Z</time></trkpt><trkpt lat="46.14457109681259" lon="9.41201067490611"><ele>205.0</ele><time>2026-04-26T09:50:00.001Z</time></trkpt><trkpt lat="46.14472324472763" lon="9.412004694830932"><ele>205.0</ele><time>2026-04-26T09:50:01.001Z</time></trkpt><trkpt lat="46.144881474003085" lon="9.412010821937814"><ele>205.0</ele><time>2026-04-26T09:50:02.001Z</time></trkpt><trkpt lat="46.14503581343943" lon="9.412030412131243"><ele>204.33333333333331</ele><time>2026-04-26T09:50:03.001Z</time></trkpt><trkpt lat="46.14518510003763" lon="9.412053772584608"><ele>203.66666666666669</ele><time>2026-04-26T09:50:04.001Z</time></trkpt><trkpt lat="46.14533837921238" lon="9.412078390748771"><ele>203.0</ele><time>2026-04-26T09:50:05.001Z</time></trkpt><trkpt lat="46.14549371469529" lon="9.412088817683133"><ele>203.0</ele><time>2026-04-26T09:50:06.001Z</time></trkpt><trkpt lat="46.14565124536893" lon="9.41209910114703"><ele>203.0</ele><time>2026-04-26T09:50:07.001Z</time></trkpt><trkpt lat="46.145803023241434" lon="9.41211634914199"><ele>203.0</ele><time>2026-04-26T09:50:08.001Z</time></trkpt><trkpt lat="46.14596740308154" lon="9.412132473155143"><ele>203.0</ele><time>2026-04-26T09:50:09.001Z</time></trkpt><trkpt lat="46.14612988444522" lon="9.412145170326108"><ele>203.0</ele><time>2026-04-26T09:50:10.001Z</time></trkpt><trkpt lat="46.14629757392385" lon="9.41215425373334"><ele>203.0</ele><time>2026-04-26T09:50:11.001Z</time></trkpt><trkpt lat="46.146464441197274" lon="9.41216162940997"><ele>203.0</ele><time>2026-04-26T09:50:12.001Z</time></trkpt><trkpt lat="46.146641750846136" lon="9.412159318272211"><ele>203.0</ele><time>2026-04-26T09:50:13.001Z</time></trkpt><trkpt lat="46.14678308958001" lon="9.412188079626187"><ele>203.0</ele><time>2026-04-26T09:50:14.001Z</time></trkpt><trkpt lat="46.146927416445216" lon="9.412205015887531"><ele>203.0</ele><time>2026-04-26T09:50:15Z</time></trkpt><trkpt lat="46.14705230829401" lon="9.412247427759615"><ele>203.0</ele><time>2026-04-26T09:50:16Z</time></trkpt><trkpt lat="46.147170188325816" lon="9.412297079281446"><ele>203.0</ele><time>2026-04-26T09:50:17Z</time></trkpt><trkpt lat="46.14725794863506" lon="9.412348960615011"><ele>203.0</ele><time>2026-04-26T09:50:18Z</time></trkpt><trkpt lat="46.14731446958076" lon="9.412401793994674"><ele>203.0</ele><time>2026-04-26T09:50:19Z</time></trkpt><trkpt lat="46.1473749801225" lon="9.412465386578312"><ele>203.33333333333334</ele><time>2026-04-26T09:50:20Z</time></trkpt><trkpt lat="46.14741515690151" lon="9.412547234508368"><ele>203.66666666666669</ele><time>2026-04-26T09:50:21Z</time></trkpt><trkpt lat="46.147419278659" lon="9.412652175246585"><ele>204.0</ele><time>2026-04-26T09:50:22Z</time></trkpt><trkpt lat="46.14744918769658" lon="9.412754234910926"><ele>204.33333333333331</ele><time>2026-04-26T09:50:23Z</time></trkpt><trkpt lat="46.14748872732478" lon="9.41283361651207"><ele>204.66666666666666</ele><time>2026-04-26T09:50:24Z</time></trkpt><trkpt lat="46.14756551972337" lon="9.412902119495286"><ele>205.0</ele><time>2026-04-26T09:50:26Z</time></trkpt><trkpt lat="46.14762145459389" lon="9.412835717419917"><ele>204.99999999999997</ele><time>2026-04-26T09:52:22Z</time></trkpt><trkpt lat="46.14767978739128" lon="9.412763117588733"><ele>205.0</ele><time>2026-04-26T09:56:12Z</time></trkpt><trkpt lat="46.1477284452946" lon="9.41267959771393"><ele>205.0</ele><time>2026-04-26T09:56:13Z</time></trkpt><trkpt lat="46.147780974366135" lon="9.412596336839053"><ele>205.0</ele><time>2026-04-26T09:56:14Z</time></trkpt><trkpt lat="46.147834953673836" lon="9.41250659218632"><ele>204.99999999999997</ele><time>2026-04-26T09:56:15Z</time></trkpt><trkpt lat="46.14790374712561" lon="9.41242275910258"><ele>205.0</ele><time>2026-04-26T09:56:16Z</time></trkpt><trkpt lat="46.148001756427774" lon="9.41236054021855"><ele>205.0</ele><time>2026-04-26T09:56:17Z</time></trkpt><trkpt lat="46.14812026616786" lon="9.412357576452452"><ele>205.0</ele><time>2026-04-26T09:56:18Z</time></trkpt><trkpt lat="46.1482358116357" lon="9.412337171722157"><ele>205.0</ele><time>2026-04-26T09:56:19Z</time></trkpt><trkpt lat="46.148387349963" lon="9.412307538887513"><ele>205.0</ele><time>2026-04-26T09:56:20Z</time></trkpt><trkpt lat="46.14850301170991" lon="9.412313004395555"><ele>204.75</ele><time>2026-04-26T09:56:21Z</time></trkpt><trkpt lat="46.14863711373263" lon="9.412333668886658"><ele>204.5</ele><time>2026-04-26T09:56:22Z</time></trkpt><trkpt lat="46.14877439236853" lon="9.41234261203278"><ele>204.25</ele><time>2026-04-26T09:56:23Z</time></trkpt><trkpt lat="46.148900873321566" lon="9.412352303455235"><ele>204.0</ele><time>2026-04-26T09:56:24Z</time></trkpt><trkpt lat="46.1490316235628" lon="9.412362545247376"><ele>203.75</ele><time>2026-04-26T09:56:25Z</time></trkpt><trkpt lat="46.14917277519641" lon="9.412373907912459"><ele>203.5</ele><time>2026-04-26T09:56:26Z</time></trkpt><trkpt lat="46.149318933815906" lon="9.412386256775028"><ele>203.25</ele><time>2026-04-26T09:56:27Z</time></trkpt><trkpt lat="46.14945851826521" lon="9.412397917694442"><ele>203.0</ele><time>2026-04-26T09:56:28Z</time></trkpt><trkpt lat="46.14959887170719" lon="9.412410852072515"><ele>203.0</ele><time>2026-04-26T09:56:29Z</time></trkpt><trkpt lat="46.149750007179" lon="9.412424278913731"><ele>203.0</ele><time>2026-04-26T09:56:30Z</time></trkpt><trkpt lat="46.14989960869274" lon="9.412437569475351"><ele>203.0</ele><time>2026-04-26T09:56:31Z</time></trkpt><trkpt lat="46.150050330024456" lon="9.412451509358041"><ele>201.25</ele><time>2026-04-26T09:56:32Z</time></trkpt><trkpt lat="46.1501950244663" lon="9.41246505951871"><ele>199.5</ele><time>2026-04-26T09:56:32.996Z</time></trkpt><trkpt lat="46.15034041617476" lon="9.412461984722553"><ele>197.75</ele><time>2026-04-26T09:56:33.996Z</time></trkpt><trkpt lat="46.150487628246026" lon="9.412494691499324"><ele>196.0</ele><time>2026-04-26T09:56:34.996Z</time></trkpt><trkpt lat="46.15063389480127" lon="9.41253572599172"><ele>198.0</ele><time>2026-04-26T09:56:35.996Z</time></trkpt><trkpt lat="46.150782569127706" lon="9.412590554393736"><ele>200.0</ele><time>2026-04-26T09:56:36.996Z</time></trkpt><trkpt lat="46.15092791828137" lon="9.412692444673311"><ele>202.0</ele><time>2026-04-26T09:56:37.996Z</time></trkpt><trkpt lat="46.15106765500117" lon="9.412835669848567"><ele>201.66666666666666</ele><time>2026-04-26T09:56:38.996Z</time></trkpt><trkpt lat="46.15120305652935" lon="9.41302131619449"><ele>201.33333333333331</ele><time>2026-04-26T09:56:39.996Z</time></trkpt><trkpt lat="46.151366137460045" lon="9.413198099897013"><ele>201.0</ele><time>2026-04-26T09:56:40.996Z</time></trkpt><trkpt lat="46.15152693435795" lon="9.41335534686073"><ele>200.33333333333331</ele><time>2026-04-26T09:56:41.996Z</time></trkpt><trkpt lat="46.15169517799645" lon="9.41351986912088"><ele>199.66666666666666</ele><time>2026-04-26T09:56:42.997Z</time></trkpt><trkpt lat="46.15185625396064" lon="9.413677382155432"><ele>199.0</ele><time>2026-04-26T09:56:43.997Z</time></trkpt><trkpt lat="46.15198812836888" lon="9.413806339500901"><ele>198.66666666666666</ele><time>2026-04-26T09:56:44.997Z</time></trkpt><trkpt lat="46.1521208497107" lon="9.413936125019822"><ele>198.33333333333331</ele><time>2026-04-26T09:56:45.997Z</time></trkpt><trkpt lat="46.15225588530628" lon="9.414086301885408"><ele>198.0</ele><time>2026-04-26T09:56:46.997Z</time></trkpt><trkpt lat="46.15238428340204" lon="9.414174317261631"><ele>198.5</ele><time>2026-04-26T09:56:47.997Z</time></trkpt><trkpt lat="46.15249580543688" lon="9.414262861679932"><ele>199.0</ele><time>2026-04-26T09:56:48.997Z</time></trkpt><trkpt lat="46.15261236062719" lon="9.41435573413483"><ele>199.5</ele><time>2026-04-26T09:56:49.997Z</time></trkpt><trkpt lat="46.15272157830638" lon="9.414430470951524"><ele>200.0</ele><time>2026-04-26T09:56:50.997Z</time></trkpt><trkpt lat="46.152829283554894" lon="9.414482261640442"><ele>200.0</ele><time>2026-04-26T09:56:51.997Z</time></trkpt><trkpt lat="46.15289857834491" lon="9.414566362799935"><ele>200.0</ele><time>2026-04-26T09:56:52.998Z</time></trkpt><trkpt lat="46.152963673360745" lon="9.414630017908248"><ele>200.0</ele><time>2026-04-26T09:56:53.998Z</time></trkpt><trkpt lat="46.15304416591503" lon="9.414708730027531"><ele>200.0</ele><time>2026-04-26T09:56:55.998Z</time></trkpt><trkpt lat="46.153132588508" lon="9.41478167505257"><ele>200.0</ele><time>2026-04-26T09:56:59.998Z</time></trkpt><trkpt lat="46.1532349506175" lon="9.414881176528052"><ele>200.16666666666669</ele><time>2026-04-26T09:57:01.998Z</time></trkpt><trkpt lat="46.153289280412764" lon="9.414947951571255"><ele>200.33333333333334</ele><time>2026-04-26T09:57:02.998Z</time></trkpt><trkpt lat="46.15336781645587" lon="9.415014843444645"><ele>200.5</ele><time>2026-04-26T09:57:03.998Z</time></trkpt><trkpt lat="46.1534365250771" lon="9.415085258931635"><ele>200.66666666666669</ele><time>2026-04-26T09:57:04.998Z</time></trkpt><trkpt lat="46.15350492597452" lon="9.415157907924577"><ele>200.83333333333334</ele><time>2026-04-26T09:57:05.998Z</time></trkpt><trkpt lat="46.15357418062656" lon="9.41523041869052"><ele>201.0</ele><time>2026-04-26T09:57:06.998Z</time></trkpt><trkpt lat="46.153645455286885" lon="9.415304457218385"><ele>201.0</ele><time>2026-04-26T09:57:07.998Z</time></trkpt><trkpt lat="46.15371753910037" lon="9.415392943655414"><ele>201.0</ele><time>2026-04-26T09:57:08.998Z</time></trkpt><trkpt lat="46.153788452474735" lon="9.41547100660317"><ele>201.0</ele><time>2026-04-26T09:57:09.999Z</time></trkpt><trkpt lat="46.1538543686727" lon="9.415551811524063"><ele>201.0</ele><time>2026-04-26T09:57:10.999Z</time></trkpt><trkpt lat="46.153905585871385" lon="9.415640811465847"><ele>201.0</ele><time>2026-04-26T09:57:11.999Z</time></trkpt><trkpt lat="46.153954898476705" lon="9.41574192467238"><ele>201.0</ele><time>2026-04-26T09:57:12.999Z</time></trkpt><trkpt lat="46.15401220944841" lon="9.415784243316255"><ele>201.16666666666666</ele><time>2026-04-26T09:57:13.999Z</time></trkpt><trkpt lat="46.15409213720764" lon="9.415862269784137"><ele>201.33333333333331</ele><time>2026-04-26T09:57:15.999Z</time></trkpt><trkpt lat="46.15413557011382" lon="9.415930925560769"><ele>201.5</ele><time>2026-04-26T09:57:16.999Z</time></trkpt><trkpt lat="46.15423018639375" lon="9.415976528743375"><ele>201.66666666666666</ele><time>2026-04-26T09:57:17.999Z</time></trkpt><trkpt lat="46.15430348995352" lon="9.416022744017765"><ele>201.83333333333331</ele><time>2026-04-26T09:57:18.999Z</time></trkpt><trkpt lat="46.15436818984687" lon="9.416074385340742"><ele>202.0</ele><time>2026-04-26T09:57:19.999Z</time></trkpt><trkpt lat="46.15443162849418" lon="9.416137253810021"><ele>202.0</ele><time>2026-04-26T09:57:20.999Z</time></trkpt><trkpt lat="46.15450698264649" lon="9.416193872986158"><ele>202.0</ele><time>2026-04-26T09:57:21.999Z</time></trkpt><trkpt lat="46.154574761677495" lon="9.41624573677135"><ele>202.0</ele><time>2026-04-26T09:57:22.999Z</time></trkpt><trkpt lat="46.1546453548392" lon="9.416290646474183"><ele>202.0</ele><time>2026-04-26T09:57:23.999Z</time></trkpt><trkpt lat="46.15469153676516" lon="9.416364158484615"><ele>202.0</ele><time>2026-04-26T09:57:24.999Z</time></trkpt><trkpt lat="46.154746819488984" lon="9.416421496986379"><ele>202.0</ele><time>2026-04-26T09:57:25.999Z</time></trkpt><trkpt lat="46.154807632525575" lon="9.41646671779895"><ele>202.0</ele><time>2026-04-26T09:57:26.999Z</time></trkpt><trkpt lat="46.15488097314104" lon="9.416525898368349"><ele>201.6</ele><time>2026-04-26T09:57:27.999Z</time></trkpt><trkpt lat="46.15494766764456" lon="9.416601796956703"><ele>201.2</ele><time>2026-04-26T09:57:28.999Z</time></trkpt><trkpt lat="46.15502206396777" lon="9.416671905181925"><ele>200.8</ele><time>2026-04-26T09:57:29.999Z</time></trkpt><trkpt lat="46.155107940794416" lon="9.41673263875712"><ele>200.4</ele><time>2026-04-26T09:57:30.999Z</time></trkpt><trkpt lat="46.15519461411607" lon="9.41679646991189"><ele>200.0</ele><time>2026-04-26T09:57:31.999Z</time></trkpt><trkpt lat="46.15527996647958" lon="9.416898611760834"><ele>200.0</ele><time>2026-04-26T09:57:32.999Z</time></trkpt><trkpt lat="46.15540562484347" lon="9.417022324960952"><ele>200.0</ele><time>2026-04-26T09:57:33.999Z</time></trkpt><trkpt lat="46.15552698409718" lon="9.41714180558729"><ele>200.0</ele><time>2026-04-26T09:57:34.999Z</time></trkpt><trkpt lat="46.15563013837573" lon="9.417243363050911"><ele>200.0</ele><time>2026-04-26T09:57:35.999Z</time></trkpt><trkpt lat="46.15571047974199" lon="9.417322460747881"><ele>200.0</ele><time>2026-04-26T09:57:36.999Z</time></trkpt><trkpt lat="46.155781544577145" lon="9.417392645846883"><ele>200.0</ele><time>2026-04-26T09:57:37.999Z</time></trkpt><trkpt lat="46.15584571341795" lon="9.417456069439467"><ele>200.0</ele><time>2026-04-26T09:57:38.999Z</time></trkpt><trkpt lat="46.15594921428458" lon="9.417538211470054"><ele>200.0</ele><time>2026-04-26T09:57:41Z</time></trkpt><trkpt lat="46.1560347063846" lon="9.417633855752326"><ele>200.0</ele><time>2026-04-26T09:57:43Z</time></trkpt><trkpt lat="46.15609328361371" lon="9.41768441452861"><ele>200.0</ele><time>2026-04-26T09:57:44Z</time></trkpt><trkpt lat="46.156167126043606" lon="9.417754041197526"><ele>200.0</ele><time>2026-04-26T09:57:45Z</time></trkpt><trkpt lat="46.15625387369529" lon="9.417843959112119"><ele>200.0</ele><time>2026-04-26T09:57:46Z</time></trkpt><trkpt lat="46.1563445232112" lon="9.417941794346085"><ele>200.0</ele><time>2026-04-26T09:57:47Z</time></trkpt><trkpt lat="46.15643132008064" lon="9.41803956925426"><ele>200.0</ele><time>2026-04-26T09:57:48Z</time></trkpt><trkpt lat="46.15653118988398" lon="9.418136973967352"><ele>199.8</ele><time>2026-04-26T09:57:49Z</time></trkpt><trkpt lat="46.15663366733132" lon="9.418235612505551"><ele>199.6</ele><time>2026-04-26T09:57:50Z</time></trkpt><trkpt lat="46.15672714232971" lon="9.418332165379631"><ele>199.39999999999998</ele><time>2026-04-26T09:57:51Z</time></trkpt><trkpt lat="46.15679572218004" lon="9.41840661711624"><ele>199.2</ele><time>2026-04-26T09:57:52Z</time></trkpt><trkpt lat="46.156892718331406" lon="9.41847644876498"><ele>199.0</ele><time>2026-04-26T09:57:53Z</time></trkpt><trkpt lat="46.15695785594573" lon="9.418627095588013"><ele>198.99999999999997</ele><time>2026-04-26T09:57:55Z</time></trkpt><trkpt lat="46.15698571288383" lon="9.418735776483175"><ele>199.0</ele><time>2026-04-26T09:57:56Z</time></trkpt><trkpt lat="46.157036546884726" lon="9.418825301136977"><ele>199.0</ele><time>2026-04-26T09:57:57Z</time></trkpt><trkpt lat="46.1571137239247" lon="9.418860227362982"><ele>199.0</ele><time>2026-04-26T09:57:58Z</time></trkpt><trkpt lat="46.15718470631756" lon="9.418835397870705"><ele>198.99999999999997</ele><time>2026-04-26T09:57:59Z</time></trkpt><trkpt lat="46.157239452374085" lon="9.418757968208743"><ele>199.0</ele><time>2026-04-26T09:58:00Z</time></trkpt><trkpt lat="46.157267184119306" lon="9.41863584231448"><ele>199.0</ele><time>2026-04-26T09:58:01Z</time></trkpt><trkpt lat="46.157270757972476" lon="9.41848605355227"><ele>199.0</ele><time>2026-04-26T09:58:02Z</time></trkpt><trkpt lat="46.15727796884414" lon="9.41831090861694"><ele>199.0</ele><time>2026-04-26T09:58:03Z</time></trkpt><trkpt lat="46.15730905319104" lon="9.418129742416362"><ele>199.0</ele><time>2026-04-26T09:58:04Z</time></trkpt><trkpt lat="46.157282936448446" lon="9.417961960838547"><ele>199.25</ele><time>2026-04-26T09:58:05Z</time></trkpt><trkpt lat="46.1572157741691" lon="9.417806825027714"><ele>199.5</ele><time>2026-04-26T09:58:06Z</time></trkpt><trkpt lat="46.157113001898054" lon="9.417701361827616"><ele>199.75</ele><time>2026-04-26T09:58:07Z</time></trkpt><trkpt lat="46.156982183921215" lon="9.417651966173606"><ele>200.0</ele><time>2026-04-26T09:58:08Z</time></trkpt><trkpt lat="46.15683250742109" lon="9.417620234433327"><ele>200.0</ele><time>2026-04-26T09:58:09Z</time></trkpt><trkpt lat="46.15667524614621" lon="9.417575695003189"><ele>200.0</ele><time>2026-04-26T09:58:10Z</time></trkpt><trkpt lat="46.15654874620475" lon="9.417516270593447"><ele>200.0</ele><time>2026-04-26T09:58:11Z</time></trkpt><trkpt lat="46.15642825129291" lon="9.417433129116269"><ele>200.0</ele><time>2026-04-26T09:58:12Z</time></trkpt><trkpt lat="46.156354894427494" lon="9.417283679861624"><ele>200.5</ele><time>2026-04-26T09:58:13Z</time></trkpt><trkpt lat="46.156299181146636" lon="9.417140256611864"><ele>201.0</ele><time>2026-04-26T09:58:14Z</time></trkpt><trkpt lat="46.156263319587744" lon="9.416978892541065"><ele>201.5</ele><time>2026-04-26T09:58:15Z</time></trkpt><trkpt lat="46.156243547246504" lon="9.416787643454365"><ele>202.0</ele><time>2026-04-26T09:58:16Z</time></trkpt><trkpt lat="46.156295427778126" lon="9.416586110363946"><ele>202.0</ele><time>2026-04-26T09:58:17Z</time></trkpt><trkpt lat="46.15634714570112" lon="9.41637326235301"><ele>202.0</ele><time>2026-04-26T09:58:18Z</time></trkpt><trkpt lat="46.15640839295109" lon="9.416167523613518"><ele>202.0</ele><time>2026-04-26T09:58:19Z</time></trkpt><trkpt lat="46.15647310653455" lon="9.415892630292745"><ele>201.33333333333331</ele><time>2026-04-26T09:58:20Z</time></trkpt><trkpt lat="46.156541512144805" lon="9.415630141006393"><ele>200.66666666666669</ele><time>2026-04-26T09:58:21Z</time></trkpt><trkpt lat="46.1566074087185" lon="9.415376557503807"><ele>200.0</ele><time>2026-04-26T09:58:22Z</time></trkpt><trkpt lat="46.15665501781487" lon="9.415145189038736"><ele>200.0</ele><time>2026-04-26T09:58:23.001Z</time></trkpt><trkpt lat="46.156709917607465" lon="9.414926510395812"><ele>200.0</ele><time>2026-04-26T09:58:24.001Z</time></trkpt><trkpt lat="46.15676115638013" lon="9.414711206513699"><ele>200.0</ele><time>2026-04-26T09:58:25.001Z</time></trkpt><trkpt lat="46.15681986985896" lon="9.414496971457348"><ele>200.66666666666669</ele><time>2026-04-26T09:58:26.001Z</time></trkpt><trkpt lat="46.15692051703377" lon="9.414317346906165"><ele>201.33333333333331</ele><time>2026-04-26T09:58:27.001Z</time></trkpt><trkpt lat="46.157039984946614" lon="9.414129375406707"><ele>202.0</ele><time>2026-04-26T09:58:28.001Z</time></trkpt><trkpt lat="46.157161442049464" lon="9.413995455704411"><ele>202.0</ele><time>2026-04-26T09:58:29.001Z</time></trkpt><trkpt lat="46.15730867924269" lon="9.413893249445891"><ele>202.0</ele><time>2026-04-26T09:58:30.001Z</time></trkpt><trkpt lat="46.15747593278866" lon="9.413786992987117"><ele>202.0</ele><time>2026-04-26T09:58:31.001Z</time></trkpt><trkpt lat="46.157659610974015" lon="9.41366896217726"><ele>202.0</ele><time>2026-04-26T09:58:32.001Z</time></trkpt><trkpt lat="46.15784400197553" lon="9.413531442164771"><ele>202.0</ele><time>2026-04-26T09:58:33.001Z</time></trkpt><trkpt lat="46.15804355610935" lon="9.413404036650853"><ele>202.0</ele><time>2026-04-26T09:58:34.001Z</time></trkpt><trkpt lat="46.15824870657829" lon="9.413274257467162"><ele>202.0</ele><time>2026-04-26T09:58:35.001Z</time></trkpt><trkpt lat="46.15845679596928" lon="9.413141487315729"><ele>202.0</ele><time>2026-04-26T09:58:36.001Z</time></trkpt><trkpt lat="46.158662132972886" lon="9.413008091660236"><ele>201.33333333333331</ele><time>2026-04-26T09:58:37.001Z</time></trkpt><trkpt lat="46.15885794281041" lon="9.412877244122308"><ele>200.66666666666669</ele><time>2026-04-26T09:58:38.001Z</time></trkpt><trkpt lat="46.159063522198" lon="9.412771867880027"><ele>200.0</ele><time>2026-04-26T09:58:38.998Z</time></trkpt><trkpt lat="46.159255951875004" lon="9.412625234374325"><ele>200.0</ele><time>2026-04-26T09:58:39.998Z</time></trkpt><trkpt lat="46.159461455611215" lon="9.412494270398785"><ele>200.0</ele><time>2026-04-26T09:58:40.998Z</time></trkpt><trkpt lat="46.15968210025478" lon="9.412375002225577"><ele>200.0</ele><time>2026-04-26T09:58:41.998Z</time></trkpt><trkpt lat="46.15992039769748" lon="9.412221949040648"><ele>200.0</ele><time>2026-04-26T09:58:42.998Z</time></trkpt><trkpt lat="46.160154226238824" lon="9.412071766188028"><ele>200.5</ele><time>2026-04-26T09:58:43.998Z</time></trkpt><trkpt lat="46.16039016608305" lon="9.411920227096923"><ele>201.0</ele><time>2026-04-26T09:58:44.998Z</time></trkpt><trkpt lat="46.16061558049734" lon="9.411775448387377"><ele>200.5</ele><time>2026-04-26T09:58:45.998Z</time></trkpt><trkpt lat="46.160827195416275" lon="9.411639532811048"><ele>200.0</ele><time>2026-04-26T09:58:46.998Z</time></trkpt><trkpt lat="46.16103811688253" lon="9.411504062379267"><ele>200.0</ele><time>2026-04-26T09:58:47.998Z</time></trkpt><trkpt lat="46.161249739791494" lon="9.41136814168069"><ele>200.0</ele><time>2026-04-26T09:58:48.998Z</time></trkpt><trkpt lat="46.16146278894114" lon="9.411231304906226"><ele>200.0</ele><time>2026-04-26T09:58:49.998Z</time></trkpt><trkpt lat="46.16167475014465" lon="9.411095286782196"><ele>200.0</ele><time>2026-04-26T09:58:50.998Z</time></trkpt><trkpt lat="46.16189022690514" lon="9.410957209945968"><ele>200.0</ele><time>2026-04-26T09:58:51.998Z</time></trkpt><trkpt lat="46.162097729824175" lon="9.410824242738608"><ele>200.0</ele><time>2026-04-26T09:58:52.998Z</time></trkpt><trkpt lat="46.16230928259824" lon="9.410688682286892"><ele>199.0</ele><time>2026-04-26T09:58:53.998Z</time></trkpt><trkpt lat="46.162524987706306" lon="9.410550459109826"><ele>198.0</ele><time>2026-04-26T09:58:54.998Z</time></trkpt><trkpt lat="46.1627471189603" lon="9.41040719010338"><ele>198.0</ele><time>2026-04-26T09:58:55.999Z</time></trkpt><trkpt lat="46.16296229794254" lon="9.41026942599513"><ele>198.0</ele><time>2026-04-26T09:58:56.999Z</time></trkpt><trkpt lat="46.1631782042013" lon="9.41013119623512"><ele>198.33333333333331</ele><time>2026-04-26T09:58:57.999Z</time></trkpt><trkpt lat="46.16337422024463" lon="9.4100057007287"><ele>198.66666666666666</ele><time>2026-04-26T09:58:58.999Z</time></trkpt><trkpt lat="46.16357207288295" lon="9.409879029448561"><ele>199.0</ele><time>2026-04-26T09:58:59.999Z</time></trkpt><trkpt lat="46.16376264498931" lon="9.409757019494844"><ele>199.66666666666666</ele><time>2026-04-26T09:59:00.999Z</time></trkpt><trkpt lat="46.16395238363168" lon="9.409635541148953"><ele>200.33333333333331</ele><time>2026-04-26T09:59:01.999Z</time></trkpt><trkpt lat="46.164149194217444" lon="9.409509532256823"><ele>201.0</ele><time>2026-04-26T09:59:02.999Z</time></trkpt><trkpt lat="46.16435465667622" lon="9.40937798395919"><ele>201.0</ele><time>2026-04-26T09:59:03.999Z</time></trkpt><trkpt lat="46.1645681676198" lon="9.409238264631899"><ele>201.0</ele><time>2026-04-26T09:59:04.999Z</time></trkpt><trkpt lat="46.16476826676195" lon="9.409051575328242"><ele>200.5</ele><time>2026-04-26T09:59:05.999Z</time></trkpt><trkpt lat="46.16498076026663" lon="9.408927103426164"><ele>200.0</ele><time>2026-04-26T09:59:06.999Z</time></trkpt><trkpt lat="46.165188694785144" lon="9.40880849244851"><ele>200.0</ele><time>2026-04-26T09:59:07.999Z</time></trkpt><trkpt lat="46.16539326742127" lon="9.408681940687536"><ele>200.0</ele><time>2026-04-26T09:59:08.999Z</time></trkpt><trkpt lat="46.16558966690977" lon="9.408546952611344"><ele>200.0</ele><time>2026-04-26T09:59:09.999Z</time></trkpt><trkpt lat="46.165783423615395" lon="9.40840202886088"><ele>200.0</ele><time>2026-04-26T09:59:10.999Z</time></trkpt><trkpt lat="46.16598960821428" lon="9.408266141271872"><ele>200.0</ele><time>2026-04-26T09:59:11.999Z</time></trkpt><trkpt lat="46.16620003532064" lon="9.408131892566052"><ele>200.0</ele><time>2026-04-26T09:59:12.999Z</time></trkpt><trkpt lat="46.16642137626968" lon="9.40799949646812"><ele>200.0</ele><time>2026-04-26T09:59:14Z</time></trkpt><trkpt lat="46.16663683552108" lon="9.40786698582223"><ele>200.5</ele><time>2026-04-26T09:59:15Z</time></trkpt><trkpt lat="46.166854982508546" lon="9.40773104422323"><ele>201.0</ele><time>2026-04-26T09:59:16Z</time></trkpt><trkpt lat="46.167079397757384" lon="9.407574676365746"><ele>201.0</ele><time>2026-04-26T09:59:17Z</time></trkpt><trkpt lat="46.16729866392552" lon="9.40743506709616"><ele>201.0</ele><time>2026-04-26T09:59:18Z</time></trkpt><trkpt lat="46.167511984318196" lon="9.407310916719565"><ele>201.0</ele><time>2026-04-26T09:59:19Z</time></trkpt><trkpt lat="46.167716096368316" lon="9.407188043975532"><ele>201.0</ele><time>2026-04-26T09:59:20Z</time></trkpt><trkpt lat="46.1678986240699" lon="9.407067597181591"><ele>201.0</ele><time>2026-04-26T09:59:21Z</time></trkpt><trkpt lat="46.16806108267467" lon="9.406953577908558"><ele>200.0</ele><time>2026-04-26T09:59:22Z</time></trkpt><trkpt lat="46.16822942484152" lon="9.40684702242767"><ele>199.0</ele><time>2026-04-26T09:59:23Z</time></trkpt><trkpt lat="46.16841497567682" lon="9.406722725033864"><ele>198.0</ele><time>2026-04-26T09:59:24Z</time></trkpt><trkpt lat="46.16860690294486" lon="9.406584861117285"><ele>198.0</ele><time>2026-04-26T09:59:25Z</time></trkpt><trkpt lat="46.16881332161259" lon="9.406455672078732"><ele>198.0</ele><time>2026-04-26T09:59:26Z</time></trkpt><trkpt lat="46.16902162220537" lon="9.406334614595059"><ele>198.0</ele><time>2026-04-26T09:59:27Z</time></trkpt><trkpt lat="46.169229899569075" lon="9.406209842144667"><ele>198.33333333333331</ele><time>2026-04-26T09:59:28Z</time></trkpt><trkpt lat="46.169446662821116" lon="9.406084848582458"><ele>198.66666666666666</ele><time>2026-04-26T09:59:29Z</time></trkpt><trkpt lat="46.169639827858845" lon="9.405992082836642"><ele>199.0</ele><time>2026-04-26T09:59:30Z</time></trkpt><trkpt lat="46.1698435229415" lon="9.405849689683961"><ele>198.66666666666666</ele><time>2026-04-26T09:59:31Z</time></trkpt><trkpt lat="46.170026594865355" lon="9.405728832412251"><ele>198.33333333333331</ele><time>2026-04-26T09:59:32Z</time></trkpt><trkpt lat="46.17020218331572" lon="9.405607436748262"><ele>198.0</ele><time>2026-04-26T09:59:33Z</time></trkpt><trkpt lat="46.170379706388964" lon="9.405489109978902"><ele>198.66666666666669</ele><time>2026-04-26T09:59:34Z</time></trkpt><trkpt lat="46.17057345886475" lon="9.40537020508067"><ele>199.33333333333334</ele><time>2026-04-26T09:59:35Z</time></trkpt><trkpt lat="46.170754226113296" lon="9.405252005727329"><ele>200.0</ele><time>2026-04-26T09:59:36Z</time></trkpt><trkpt lat="46.170926758839066" lon="9.405150023623142"><ele>200.66666666666669</ele><time>2026-04-26T09:59:37Z</time></trkpt><trkpt lat="46.17108181462554" lon="9.405041406180255"><ele>201.33333333333331</ele><time>2026-04-26T09:59:38Z</time></trkpt><trkpt lat="46.17123070835084" lon="9.404954927437103"><ele>202.0</ele><time>2026-04-26T09:59:39Z</time></trkpt><trkpt lat="46.171372367536804" lon="9.404908532016137"><ele>202.0</ele><time>2026-04-26T09:59:40Z</time></trkpt><trkpt lat="46.17149518714526" lon="9.40486699161576"><ele>202.0</ele><time>2026-04-26T09:59:41Z</time></trkpt><trkpt lat="46.17159400566205" lon="9.404867660545959"><ele>202.0</ele><time>2026-04-26T09:59:42Z</time></trkpt><trkpt lat="46.17166659950343" lon="9.40491660032689"><ele>202.0</ele><time>2026-04-26T09:59:43.001Z</time></trkpt><trkpt lat="46.17174385463057" lon="9.404925144664013"><ele>202.0</ele><time>2026-04-26T09:59:44.001Z</time></trkpt><trkpt lat="46.17180293750099" lon="9.404866216733696"><ele>201.8</ele><time>2026-04-26T09:59:45.001Z</time></trkpt><trkpt lat="46.171840806419816" lon="9.404741043327949"><ele>201.6</ele><time>2026-04-26T09:59:46.001Z</time></trkpt><trkpt lat="46.17187248951634" lon="9.404604654082009"><ele>201.4</ele><time>2026-04-26T09:59:47.001Z</time></trkpt><trkpt lat="46.17193830221909" lon="9.404478207111413"><ele>201.20000000000002</ele><time>2026-04-26T09:59:48.001Z</time></trkpt><trkpt lat="46.172027583869884" lon="9.404386896432667"><ele>201.0</ele><time>2026-04-26T09:59:49.001Z</time></trkpt><trkpt lat="46.1721422903919" lon="9.404327329106458"><ele>201.4</ele><time>2026-04-26T09:59:50.001Z</time></trkpt><trkpt lat="46.17224543917031" lon="9.40427632831419"><ele>201.8</ele><time>2026-04-26T09:59:51.001Z</time></trkpt><trkpt lat="46.172339567611594" lon="9.404221177380673"><ele>202.20000000000002</ele><time>2026-04-26T09:59:52.001Z</time></trkpt><trkpt lat="46.17242663319871" lon="9.404171329233007"><ele>202.60000000000002</ele><time>2026-04-26T09:59:53.001Z</time></trkpt><trkpt lat="46.172513269140815" lon="9.404120211426154"><ele>203.0</ele><time>2026-04-26T09:59:54.001Z</time></trkpt><trkpt lat="46.17259870962962" lon="9.404062879685695"><ele>203.4</ele><time>2026-04-26T09:59:55.001Z</time></trkpt><trkpt lat="46.17268555310123" lon="9.40400595331846"><ele>203.8</ele><time>2026-04-26T09:59:56.001Z</time></trkpt><trkpt lat="46.17278208971049" lon="9.403948218286699"><ele>204.2</ele><time>2026-04-26T09:59:57.001Z</time></trkpt><trkpt lat="46.17287579611983" lon="9.403888288531025"><ele>204.6</ele><time>2026-04-26T09:59:58.001Z</time></trkpt><trkpt lat="46.17297067929103" lon="9.403830411362234"><ele>205.0</ele><time>2026-04-26T09:59:59.001Z</time></trkpt><trkpt lat="46.1730673658221" lon="9.40373924250342"><ele>205.0</ele><time>2026-04-26T10:00:00.001Z</time></trkpt><trkpt lat="46.17316946779279" lon="9.403652567384592"><ele>205.0</ele><time>2026-04-26T10:00:01.001Z</time></trkpt><trkpt lat="46.17324414731737" lon="9.403556243022791"><ele>205.0</ele><time>2026-04-26T10:00:02.001Z</time></trkpt><trkpt lat="46.17327934353775" lon="9.403442267996715"><ele>205.0</ele><time>2026-04-26T10:00:03.001Z</time></trkpt><trkpt lat="46.17330863651568" lon="9.403305525075147"><ele>205.0</ele><time>2026-04-26T10:00:04.001Z</time></trkpt><trkpt lat="46.173289405745" lon="9.403174780026985"><ele>206.5</ele><time>2026-04-26T10:00:05.001Z</time></trkpt><trkpt lat="46.173246992110734" lon="9.40302496336946"><ele>208.0</ele><time>2026-04-26T10:00:06.001Z</time></trkpt><trkpt lat="46.173184175092764" lon="9.402834125076513"><ele>209.5</ele><time>2026-04-26T10:00:07.001Z</time></trkpt><trkpt lat="46.17310752215894" lon="9.402626366294102"><ele>211.0</ele><time>2026-04-26T10:00:08.001Z</time></trkpt><trkpt lat="46.17303231311026" lon="9.402397478860136"><ele>211.0</ele><time>2026-04-26T10:00:09.001Z</time></trkpt><trkpt lat="46.17294140103247" lon="9.40217481217903"><ele>211.0</ele><time>2026-04-26T10:00:10.001Z</time></trkpt><trkpt lat="46.17283495561415" lon="9.401967796111895"><ele>211.0</ele><time>2026-04-26T10:00:11.001Z</time></trkpt><trkpt lat="46.17270382812747" lon="9.401779103915189"><ele>210.0</ele><time>2026-04-26T10:00:12.001Z</time></trkpt><trkpt lat="46.17258262861807" lon="9.401587005571558"><ele>209.0</ele><time>2026-04-26T10:00:13.001Z</time></trkpt><trkpt lat="46.1724789680147" lon="9.40139730836394"><ele>208.0</ele><time>2026-04-26T10:00:14.001Z</time></trkpt><trkpt lat="46.17240685228078" lon="9.401205615739048"><ele>206.75</ele><time>2026-04-26T10:00:15.001Z</time></trkpt><trkpt lat="46.172323537465665" lon="9.401035277580819"><ele>205.5</ele><time>2026-04-26T10:00:16.001Z</time></trkpt><trkpt lat="46.17225171872912" lon="9.4008509658805"><ele>204.25</ele><time>2026-04-26T10:00:17.002Z</time></trkpt><trkpt lat="46.172229792608576" lon="9.400659740652184"><ele>203.0</ele><time>2026-04-26T10:00:18.002Z</time></trkpt><trkpt lat="46.172228116580385" lon="9.400462735844139"><ele>203.0</ele><time>2026-04-26T10:00:19.002Z</time></trkpt><trkpt lat="46.172251528856485" lon="9.400253892773579"><ele>203.0</ele><time>2026-04-26T10:00:20.002Z</time></trkpt><trkpt lat="46.17227458573377" lon="9.400046392354103"><ele>203.0</ele><time>2026-04-26T10:00:21.002Z</time></trkpt><trkpt lat="46.17226570954261" lon="9.399843920488886"><ele>203.0</ele><time>2026-04-26T10:00:22.002Z</time></trkpt><trkpt lat="46.172271277864255" lon="9.399637433511087"><ele>203.0</ele><time>2026-04-26T10:00:23.002Z</time></trkpt><trkpt lat="46.172257288077446" lon="9.399445131073668"><ele>203.0</ele><time>2026-04-26T10:00:24.002Z</time></trkpt><trkpt lat="46.1722515463721" lon="9.399243365673893"><ele>203.0</ele><time>2026-04-26T10:00:25.002Z</time></trkpt><trkpt lat="46.172264857656806" lon="9.399017207029852"><ele>203.0</ele><time>2026-04-26T10:00:26.002Z</time></trkpt><trkpt lat="46.17229160272122" lon="9.39878838415539"><ele>203.0</ele><time>2026-04-26T10:00:27.002Z</time></trkpt><trkpt lat="46.17229175357859" lon="9.398568364875855"><ele>203.0</ele><time>2026-04-26T10:00:28.002Z</time></trkpt><trkpt lat="46.172282356256" lon="9.398361303096266"><ele>203.0</ele><time>2026-04-26T10:00:29.002Z</time></trkpt><trkpt lat="46.17225999688292" lon="9.398140005180847"><ele>204.0</ele><time>2026-04-26T10:00:30.002Z</time></trkpt><trkpt lat="46.17220644018031" lon="9.397890879560466"><ele>205.0</ele><time>2026-04-26T10:00:31.002Z</time></trkpt><trkpt lat="46.17213803553366" lon="9.39761070302485"><ele>206.0</ele><time>2026-04-26T10:00:32.002Z</time></trkpt><trkpt lat="46.17206010801825" lon="9.397294864483776"><ele>207.0</ele><time>2026-04-26T10:00:33.002Z</time></trkpt><trkpt lat="46.17198489598665" lon="9.3970010262018"><ele>208.0</ele><time>2026-04-26T10:00:34.002Z</time></trkpt><trkpt lat="46.1719041421978" lon="9.396755553595048"><ele>209.0</ele><time>2026-04-26T10:00:35.002Z</time></trkpt><trkpt lat="46.17187330499331" lon="9.396504049243957"><ele>209.66666666666669</ele><time>2026-04-26T10:00:36.002Z</time></trkpt><trkpt lat="46.171901678786405" lon="9.39625758895773"><ele>210.33333333333331</ele><time>2026-04-26T10:00:37.002Z</time></trkpt><trkpt lat="46.17192700458349" lon="9.395992369759707"><ele>211.0</ele><time>2026-04-26T10:00:38.002Z</time></trkpt><trkpt lat="46.17193760660868" lon="9.395722362842998"><ele>208.66666666666666</ele><time>2026-04-26T10:00:39.002Z</time></trkpt><trkpt lat="46.17197819629943" lon="9.395466143092913"><ele>206.33333333333331</ele><time>2026-04-26T10:00:40.002Z</time></trkpt><trkpt lat="46.1719870085489" lon="9.395204994021366"><ele>204.0</ele><time>2026-04-26T10:00:41.002Z</time></trkpt><trkpt lat="46.17201746975602" lon="9.394952388896606"><ele>204.0</ele><time>2026-04-26T10:00:42.002Z</time></trkpt><trkpt lat="46.17204472137292" lon="9.394706049663787"><ele>204.0</ele><time>2026-04-26T10:00:43.002Z</time></trkpt><trkpt lat="46.17206826857126" lon="9.394460282730634"><ele>204.0</ele><time>2026-04-26T10:00:44.002Z</time></trkpt><trkpt lat="46.172082950856485" lon="9.394214638371524"><ele>203.66666666666669</ele><time>2026-04-26T10:00:44.999Z</time></trkpt><trkpt lat="46.17211053910075" lon="9.393981621929393"><ele>203.33333333333334</ele><time>2026-04-26T10:00:45.999Z</time></trkpt><trkpt lat="46.172129141563495" lon="9.393729815632504"><ele>203.0</ele><time>2026-04-26T10:00:46.999Z</time></trkpt><trkpt lat="46.17214810140527" lon="9.39344369734308"><ele>203.0</ele><time>2026-04-26T10:00:47.999Z</time></trkpt><trkpt lat="46.17218717661445" lon="9.39312117459201"><ele>203.0</ele><time>2026-04-26T10:00:48.999Z</time></trkpt><trkpt lat="46.172193157137364" lon="9.392811786762264"><ele>203.0</ele><time>2026-04-26T10:00:49.999Z</time></trkpt><trkpt lat="46.1721746035421" lon="9.392536094769556"><ele>203.33333333333334</ele><time>2026-04-26T10:00:51Z</time></trkpt><trkpt lat="46.17216981709384" lon="9.3922609802729"><ele>203.66666666666669</ele><time>2026-04-26T10:00:52Z</time></trkpt><trkpt lat="46.17218112672101" lon="9.39197537767067"><ele>204.0</ele><time>2026-04-26T10:00:53Z</time></trkpt><trkpt lat="46.17221441196694" lon="9.391685186018963"><ele>204.0</ele><time>2026-04-26T10:00:54Z</time></trkpt><trkpt lat="46.17226702479175" lon="9.391395179257703"><ele>204.0</ele><time>2026-04-26T10:00:55Z</time></trkpt><trkpt lat="46.17231680333775" lon="9.391098109669338"><ele>204.0</ele><time>2026-04-26T10:00:56Z</time></trkpt><trkpt lat="46.17236288487629" lon="9.390804722799182"><ele>208.0</ele><time>2026-04-26T10:00:57Z</time></trkpt><trkpt lat="46.17239764736828" lon="9.390519255712338"><ele>212.0</ele><time>2026-04-26T10:00:58Z</time></trkpt><trkpt lat="46.172420975194065" lon="9.390247347515071"><ele>216.0</ele><time>2026-04-26T10:00:59Z</time></trkpt><trkpt lat="46.172429948229485" lon="9.389985549172275"><ele>216.0</ele><time>2026-04-26T10:01:00Z</time></trkpt><trkpt lat="46.17245555931046" lon="9.38972824416824"><ele>216.0</ele><time>2026-04-26T10:01:01Z</time></trkpt><trkpt lat="46.17246918737156" lon="9.389473471027552"><ele>216.0</ele><time>2026-04-26T10:01:02Z</time></trkpt><trkpt lat="46.17248482974452" lon="9.389213777822524"><ele>212.66666666666669</ele><time>2026-04-26T10:01:03Z</time></trkpt><trkpt lat="46.172514341074" lon="9.388980013642191"><ele>209.33333333333334</ele><time>2026-04-26T10:01:04Z</time></trkpt><trkpt lat="46.17256700903767" lon="9.38874322365364"><ele>206.0</ele><time>2026-04-26T10:01:05Z</time></trkpt><trkpt lat="46.172634311766366" lon="9.388489273796509"><ele>205.66666666666669</ele><time>2026-04-26T10:01:06Z</time></trkpt><trkpt lat="46.17271357763255" lon="9.38821073868825"><ele>205.33333333333331</ele><time>2026-04-26T10:01:07Z</time></trkpt><trkpt lat="46.17278467079274" lon="9.387946887038645"><ele>205.0</ele><time>2026-04-26T10:01:08Z</time></trkpt><trkpt lat="46.17285754704642" lon="9.387680519803943"><ele>205.0</ele><time>2026-04-26T10:01:09Z</time></trkpt><trkpt lat="46.1729358559923" lon="9.387394429960931"><ele>205.0</ele><time>2026-04-26T10:01:10Z</time></trkpt><trkpt lat="46.17301860548269" lon="9.387086553709098"><ele>205.0</ele><time>2026-04-26T10:01:11Z</time></trkpt><trkpt lat="46.17309179842817" lon="9.38681423343397"><ele>204.0</ele><time>2026-04-26T10:01:12Z</time></trkpt><trkpt lat="46.17316528008733" lon="9.386543409955621"><ele>203.0</ele><time>2026-04-26T10:01:13Z</time></trkpt><trkpt lat="46.17324084168923" lon="9.386269294152742"><ele>202.0</ele><time>2026-04-26T10:01:14Z</time></trkpt><trkpt lat="46.17331463233538" lon="9.385997264575593"><ele>204.66666666666666</ele><time>2026-04-26T10:01:15Z</time></trkpt><trkpt lat="46.17338537606976" lon="9.385726901820211"><ele>207.33333333333331</ele><time>2026-04-26T10:01:16Z</time></trkpt><trkpt lat="46.17345023782285" lon="9.385475617835597"><ele>210.0</ele><time>2026-04-26T10:01:17Z</time></trkpt><trkpt lat="46.17351796671971" lon="9.38522748759694"><ele>210.66666666666669</ele><time>2026-04-26T10:01:18Z</time></trkpt><trkpt lat="46.17358294422475" lon="9.384989538210439"><ele>211.33333333333334</ele><time>2026-04-26T10:01:19Z</time></trkpt><trkpt lat="46.17364211274363" lon="9.384753100156088"><ele>212.0</ele><time>2026-04-26T10:01:20Z</time></trkpt><trkpt lat="46.17368740860554" lon="9.384507523270964"><ele>212.0</ele><time>2026-04-26T10:01:21.001Z</time></trkpt><trkpt lat="46.173710033133524" lon="9.38426669964015"><ele>212.0</ele><time>2026-04-26T10:01:22.001Z</time></trkpt><trkpt lat="46.17373895694187" lon="9.384034545055536"><ele>212.0</ele><time>2026-04-26T10:01:23.001Z</time></trkpt><trkpt lat="46.17376617070793" lon="9.383806028303516"><ele>212.0</ele><time>2026-04-26T10:01:24.001Z</time></trkpt><trkpt lat="46.173781687327676" lon="9.38359737164653"><ele>212.0</ele><time>2026-04-26T10:01:25.001Z</time></trkpt><trkpt lat="46.17376255720319" lon="9.383388653260518"><ele>212.0</ele><time>2026-04-26T10:01:26.001Z</time></trkpt><trkpt lat="46.17372373034184" lon="9.383170663977213"><ele>212.0</ele><time>2026-04-26T10:01:27.001Z</time></trkpt><trkpt lat="46.17364779215679" lon="9.382984994668801"><ele>212.0</ele><time>2026-04-26T10:01:28.001Z</time></trkpt><trkpt lat="46.173564750566086" lon="9.382789886453"><ele>212.0</ele><time>2026-04-26T10:01:29.001Z</time></trkpt><trkpt lat="46.173484480857475" lon="9.382597578112307"><ele>212.0</ele><time>2026-04-26T10:01:30.001Z</time></trkpt><trkpt lat="46.17340042864776" lon="9.382421258485238"><ele>212.0</ele><time>2026-04-26T10:01:31.001Z</time></trkpt><trkpt lat="46.17330160927331" lon="9.382239778548044"><ele>212.0</ele><time>2026-04-26T10:01:32.001Z</time></trkpt><trkpt lat="46.173184281852784" lon="9.382045259366453"><ele>212.0</ele><time>2026-04-26T10:01:33.001Z</time></trkpt><trkpt lat="46.173030215293565" lon="9.381852081452406"><ele>209.33333333333334</ele><time>2026-04-26T10:01:34.001Z</time></trkpt><trkpt lat="46.17291621768587" lon="9.38165074281517"><ele>206.66666666666669</ele><time>2026-04-26T10:01:35.001Z</time></trkpt><trkpt lat="46.17280987883364" lon="9.38145155054814"><ele>204.0</ele><time>2026-04-26T10:01:36.001Z</time></trkpt><trkpt lat="46.172704182876835" lon="9.381261195415997"><ele>204.0</ele><time>2026-04-26T10:01:37.001Z</time></trkpt><trkpt lat="46.17259864802708" lon="9.381081965576382"><ele>204.0</ele><time>2026-04-26T10:01:38.001Z</time></trkpt><trkpt lat="46.1724977422414" lon="9.380910946945905"><ele>204.0</ele><time>2026-04-26T10:01:39.001Z</time></trkpt><trkpt lat="46.172433053745706" lon="9.380724450460463"><ele>204.0</ele><time>2026-04-26T10:01:40.001Z</time></trkpt><trkpt lat="46.17236621697686" lon="9.380556458107767"><ele>204.0</ele><time>2026-04-26T10:01:41.001Z</time></trkpt><trkpt lat="46.1723302268815" lon="9.380381995574826"><ele>204.0</ele><time>2026-04-26T10:01:42.001Z</time></trkpt><trkpt lat="46.172305045090106" lon="9.380197717537314"><ele>204.0</ele><time>2026-04-26T10:01:43.001Z</time></trkpt><trkpt lat="46.17228353517787" lon="9.380005532501327"><ele>204.25</ele><time>2026-04-26T10:01:44.001Z</time></trkpt><trkpt lat="46.17225780717237" lon="9.379803441869315"><ele>204.5</ele><time>2026-04-26T10:01:45.001Z</time></trkpt><trkpt lat="46.17223481983081" lon="9.379604725218414"><ele>204.75</ele><time>2026-04-26T10:01:46.001Z</time></trkpt><trkpt lat="46.17221304829205" lon="9.379416751550226"><ele>205.0</ele><time>2026-04-26T10:01:47.001Z</time></trkpt><trkpt lat="46.172192221795264" lon="9.379237054609913"><ele>205.0</ele><time>2026-04-26T10:01:48.001Z</time></trkpt><trkpt lat="46.172172188242406" lon="9.379064199414815"><ele>205.0</ele><time>2026-04-26T10:01:49.001Z</time></trkpt><trkpt lat="46.17215350305149" lon="9.378902978239081"><ele>205.0</ele><time>2026-04-26T10:01:50.001Z</time></trkpt><trkpt lat="46.172134039405485" lon="9.37873900348282"><ele>205.0</ele><time>2026-04-26T10:01:51.001Z</time></trkpt><trkpt lat="46.17211922352905" lon="9.378615559997463"><ele>205.0</ele><time>2026-04-26T10:01:52.001Z</time></trkpt><trkpt lat="46.17210546208066" lon="9.378500901793304"><ele>205.0</ele><time>2026-04-26T10:01:56.002Z</time></trkpt><trkpt lat="46.172091398061134" lon="9.378380175125205"><ele>205.0</ele><time>2026-04-26T10:01:58.002Z</time></trkpt><trkpt lat="46.17206062053753" lon="9.378250542726477"><ele>205.0</ele><time>2026-04-26T10:01:59.002Z</time></trkpt><trkpt lat="46.172040471030634" lon="9.378037660368229"><ele>205.0</ele><time>2026-04-26T10:02:00.002Z</time></trkpt><trkpt lat="46.17202158125393" lon="9.377774969938544"><ele>204.66666666666666</ele><time>2026-04-26T10:02:01.002Z</time></trkpt><trkpt lat="46.17199834159718" lon="9.377489502634836"><ele>204.33333333333331</ele><time>2026-04-26T10:02:02.002Z</time></trkpt><trkpt lat="46.17200618789812" lon="9.377238743089064"><ele>204.0</ele><time>2026-04-26T10:02:03.002Z</time></trkpt><trkpt lat="46.172050734207026" lon="9.377014717926174"><ele>203.66666666666669</ele><time>2026-04-26T10:02:04.002Z</time></trkpt><trkpt lat="46.17211334581682" lon="9.376750894566385"><ele>203.33333333333334</ele><time>2026-04-26T10:02:05.002Z</time></trkpt><trkpt lat="46.17218647177613" lon="9.376444483596615"><ele>203.0</ele><time>2026-04-26T10:02:06.002Z</time></trkpt><trkpt lat="46.1722584143262" lon="9.376141891138314"><ele>202.66666666666669</ele><time>2026-04-26T10:02:07.002Z</time></trkpt><trkpt lat="46.17232068495691" lon="9.375882477219124"><ele>202.33333333333331</ele><time>2026-04-26T10:02:08.002Z</time></trkpt><trkpt lat="46.172379545176994" lon="9.375647029972145"><ele>202.0</ele><time>2026-04-26T10:02:09.002Z</time></trkpt><trkpt lat="46.17241667621317" lon="9.375444979003575"><ele>208.33333333333331</ele><time>2026-04-26T10:02:10.002Z</time></trkpt><trkpt lat="46.172416715755816" lon="9.375257496284467"><ele>214.66666666666669</ele><time>2026-04-26T10:02:11.002Z</time></trkpt><trkpt lat="46.17238681221406" lon="9.375058753560191"><ele>221.0</ele><time>2026-04-26T10:02:12.002Z</time></trkpt><trkpt lat="46.17236081533034" lon="9.374802784942144"><ele>214.66666666666669</ele><time>2026-04-26T10:02:13.002Z</time></trkpt><trkpt lat="46.17232078291926" lon="9.374497553891883"><ele>208.33333333333331</ele><time>2026-04-26T10:02:14.002Z</time></trkpt><trkpt lat="46.17225689822241" lon="9.374221545293688"><ele>202.0</ele><time>2026-04-26T10:02:15.002Z</time></trkpt><trkpt lat="46.172214786109684" lon="9.373963200487378"><ele>203.0</ele><time>2026-04-26T10:02:16.002Z</time></trkpt><trkpt lat="46.17220477822169" lon="9.373703251189895"><ele>204.0</ele><time>2026-04-26T10:02:17.002Z</time></trkpt><trkpt lat="46.17217737862691" lon="9.373437591176598"><ele>205.0</ele><time>2026-04-26T10:02:18.002Z</time></trkpt><trkpt lat="46.17215744554018" lon="9.373187158789948"><ele>205.0</ele><time>2026-04-26T10:02:19.002Z</time></trkpt><trkpt lat="46.17212948845853" lon="9.372949462022369"><ele>205.0</ele><time>2026-04-26T10:02:20.002Z</time></trkpt><trkpt lat="46.172046593364726" lon="9.37274715984186"><ele>205.0</ele><time>2026-04-26T10:02:21.002Z</time></trkpt><trkpt lat="46.171979954749325" lon="9.372552994752175"><ele>205.0</ele><time>2026-04-26T10:02:22.002Z</time></trkpt><trkpt lat="46.17186484896033" lon="9.37241859233614"><ele>205.0</ele><time>2026-04-26T10:02:23.002Z</time></trkpt><trkpt lat="46.171751259829406" lon="9.372306576678021"><ele>205.0</ele><time>2026-04-26T10:02:24.002Z</time></trkpt><trkpt lat="46.171636495853264" lon="9.372206189044705"><ele>205.0</ele><time>2026-04-26T10:02:25.002Z</time></trkpt><trkpt lat="46.17153574501511" lon="9.372104771754104"><ele>204.75</ele><time>2026-04-26T10:02:26.003Z</time></trkpt><trkpt lat="46.17143519134067" lon="9.371998425357141"><ele>204.5</ele><time>2026-04-26T10:02:27.003Z</time></trkpt><trkpt lat="46.17133512777022" lon="9.371885005406982"><ele>204.25</ele><time>2026-04-26T10:02:28.003Z</time></trkpt><trkpt lat="46.171232943536" lon="9.371778044350497"><ele>204.0</ele><time>2026-04-26T10:02:29.003Z</time></trkpt><trkpt lat="46.171113587685014" lon="9.371669049036916"><ele>204.0</ele><time>2026-04-26T10:02:30.003Z</time></trkpt><trkpt lat="46.170970001808186" lon="9.371554993272843"><ele>204.0</ele><time>2026-04-26T10:02:31.003Z</time></trkpt><trkpt lat="46.17081134735055" lon="9.371460210735677"><ele>204.0</ele><time>2026-04-26T10:02:32.003Z</time></trkpt><trkpt lat="46.170650515094806" lon="9.37134278037875"><ele>204.75</ele><time>2026-04-26T10:02:33.003Z</time></trkpt><trkpt lat="46.17052779084815" lon="9.371317894334295"><ele>205.5</ele><time>2026-04-26T10:02:34.003Z</time></trkpt><trkpt lat="46.17036690984714" lon="9.37131790517714"><ele>206.25</ele><time>2026-04-26T10:02:35.003Z</time></trkpt><trkpt lat="46.17022341557743" lon="9.371243209785156"><ele>207.0</ele><time>2026-04-26T10:02:36.003Z</time></trkpt><trkpt lat="46.1701186735048" lon="9.371241152103837"><ele>207.0</ele><time>2026-04-26T10:02:37.003Z</time></trkpt><trkpt lat="46.17004193824023" lon="9.371262499809772"><ele>207.0</ele><time>2026-04-26T10:02:38.003Z</time></trkpt><trkpt lat="46.16994011215926" lon="9.371218815827085"><ele>207.0</ele><time>2026-04-26T10:02:39.003Z</time></trkpt><trkpt lat="46.16983034688883" lon="9.371187551656224"><ele>207.0</ele><time>2026-04-26T10:02:40.003Z</time></trkpt><trkpt lat="46.1697232914723" lon="9.371137258113034"><ele>207.0</ele><time>2026-04-26T10:02:41.003Z</time></trkpt><trkpt lat="46.16961503498372" lon="9.371093376064046"><ele>206.2</ele><time>2026-04-26T10:02:42.003Z</time></trkpt><trkpt lat="46.169518506194514" lon="9.371036270613553"><ele>205.39999999999998</ele><time>2026-04-26T10:02:43.003Z</time></trkpt><trkpt lat="46.16943190889544" lon="9.370990273327275"><ele>204.60000000000002</ele><time>2026-04-26T10:02:44.003Z</time></trkpt><trkpt lat="46.16936957841862" lon="9.370934832547903"><ele>203.8</ele><time>2026-04-26T10:02:45.003Z</time></trkpt><trkpt lat="46.169296873597716" lon="9.37085838463062"><ele>203.0</ele><time>2026-04-26T10:02:46.003Z</time></trkpt><trkpt lat="46.16922786431944" lon="9.37075972550156"><ele>203.0</ele><time>2026-04-26T10:02:47.003Z</time></trkpt><trkpt lat="46.169160021583174" lon="9.37063470898047"><ele>203.0</ele><time>2026-04-26T10:02:48.003Z</time></trkpt><trkpt lat="46.16912875887957" lon="9.370474646132202"><ele>203.0</ele><time>2026-04-26T10:02:49.003Z</time></trkpt><trkpt lat="46.16907655965717" lon="9.370332053562477"><ele>203.0</ele><time>2026-04-26T10:02:50.003Z</time></trkpt><trkpt lat="46.169028693597355" lon="9.370181221329442"><ele>203.16666666666669</ele><time>2026-04-26T10:02:51.001Z</time></trkpt><trkpt lat="46.16900154313517" lon="9.370080494183835"><ele>203.33333333333334</ele><time>2026-04-26T10:02:52.001Z</time></trkpt><trkpt lat="46.16897561294918" lon="9.369981046801836"><ele>203.5</ele><time>2026-04-26T10:03:01.001Z</time></trkpt><trkpt lat="46.168935576831736" lon="9.369819735377789"><ele>203.66666666666669</ele><time>2026-04-26T10:03:03.001Z</time></trkpt><trkpt lat="46.16891472816888" lon="9.369728349221083"><ele>203.83333333333334</ele><time>2026-04-26T10:03:04.001Z</time></trkpt><trkpt lat="46.16889050359522" lon="9.369609205551024"><ele>204.0</ele><time>2026-04-26T10:03:05.001Z</time></trkpt><trkpt lat="46.16886797522776" lon="9.369458914709647"><ele>204.0</ele><time>2026-04-26T10:03:06.001Z</time></trkpt><trkpt lat="46.16884729748241" lon="9.369265346071593"><ele>204.0</ele><time>2026-04-26T10:03:07.001Z</time></trkpt><trkpt lat="46.16883451181561" lon="9.369056477884717"><ele>204.0</ele><time>2026-04-26T10:03:08.001Z</time></trkpt><trkpt lat="46.16882956388136" lon="9.36880118501313"><ele>204.0</ele><time>2026-04-26T10:03:09.001Z</time></trkpt><trkpt lat="46.168851196695066" lon="9.368555309127496"><ele>204.0</ele><time>2026-04-26T10:03:10.001Z</time></trkpt><trkpt lat="46.168900907574525" lon="9.368290408083855"><ele>204.0</ele><time>2026-04-26T10:03:11.001Z</time></trkpt><trkpt lat="46.16896447962286" lon="9.367977420322978"><ele>207.0</ele><time>2026-04-26T10:03:12.001Z</time></trkpt><trkpt lat="46.16902976609943" lon="9.367658822297772"><ele>210.0</ele><time>2026-04-26T10:03:13.001Z</time></trkpt><trkpt lat="46.16908858767715" lon="9.367371801211387"><ele>213.0</ele><time>2026-04-26T10:03:14.001Z</time></trkpt><trkpt lat="46.16914193520293" lon="9.367111503569094"><ele>213.0</ele><time>2026-04-26T10:03:15.001Z</time></trkpt><trkpt lat="46.16918048299497" lon="9.36684905370767"><ele>213.0</ele><time>2026-04-26T10:03:16.001Z</time></trkpt><trkpt lat="46.16924900039323" lon="9.366594513230439"><ele>213.0</ele><time>2026-04-26T10:03:17.001Z</time></trkpt><trkpt lat="46.16929982584837" lon="9.366343728361752"><ele>212.0</ele><time>2026-04-26T10:03:18.001Z</time></trkpt><trkpt lat="46.16935657911801" lon="9.36607965817703"><ele>211.0</ele><time>2026-04-26T10:03:19.001Z</time></trkpt><trkpt lat="46.16941663251561" lon="9.365794553098828"><ele>210.0</ele><time>2026-04-26T10:03:20.001Z</time></trkpt><trkpt lat="46.169481192741934" lon="9.365488233047873"><ele>208.0</ele><time>2026-04-26T10:03:21.001Z</time></trkpt><trkpt lat="46.169548186240306" lon="9.365170339031266"><ele>206.0</ele><time>2026-04-26T10:03:22.001Z</time></trkpt><trkpt lat="46.16961580685177" lon="9.364852966581259"><ele>205.0</ele><time>2026-04-26T10:03:23.001Z</time></trkpt><trkpt lat="46.16968231411522" lon="9.364542226580753"><ele>204.0</ele><time>2026-04-26T10:03:24.001Z</time></trkpt><trkpt lat="46.1697512809917" lon="9.364228651975587"><ele>204.0</ele><time>2026-04-26T10:03:25.001Z</time></trkpt><trkpt lat="46.169809568757636" lon="9.363910231784342"><ele>204.0</ele><time>2026-04-26T10:03:26.001Z</time></trkpt><trkpt lat="46.169853082230645" lon="9.363603993920218"><ele>204.0</ele><time>2026-04-26T10:03:27.001Z</time></trkpt><trkpt lat="46.169879903446784" lon="9.363301213961767"><ele>209.33333333333331</ele><time>2026-04-26T10:03:28.001Z</time></trkpt><trkpt lat="46.16989971914431" lon="9.363021893831347"><ele>214.66666666666666</ele><time>2026-04-26T10:03:29.001Z</time></trkpt><trkpt lat="46.16991864545951" lon="9.362761012496431"><ele>220.0</ele><time>2026-04-26T10:03:30.001Z</time></trkpt><trkpt lat="46.169909493608564" lon="9.362507541181012"><ele>220.0</ele><time>2026-04-26T10:03:31.001Z</time></trkpt><trkpt lat="46.16990340419994" lon="9.362288896987016"><ele>220.0</ele><time>2026-04-26T10:03:32.001Z</time></trkpt><trkpt lat="46.169872243214144" lon="9.362069207088867"><ele>220.0</ele><time>2026-04-26T10:03:33.001Z</time></trkpt><trkpt lat="46.16981547099637" lon="9.361871172510776"><ele>214.33333333333331</ele><time>2026-04-26T10:03:34.001Z</time></trkpt><trkpt lat="46.16974738552408" lon="9.361671849744699"><ele>208.66666666666669</ele><time>2026-04-26T10:03:35.001Z</time></trkpt><trkpt lat="46.16967200389563" lon="9.361432853135158"><ele>203.0</ele><time>2026-04-26T10:03:36.002Z</time></trkpt><trkpt lat="46.16959549994182" lon="9.361193449682313"><ele>203.0</ele><time>2026-04-26T10:03:37.002Z</time></trkpt><trkpt lat="46.169528535372635" lon="9.360981927401804"><ele>203.0</ele><time>2026-04-26T10:03:38.002Z</time></trkpt><trkpt lat="46.16946179760327" lon="9.360769643357386"><ele>203.0</ele><time>2026-04-26T10:03:39.002Z</time></trkpt><trkpt lat="46.1693990121656" lon="9.360568022418795"><ele>204.75</ele><time>2026-04-26T10:03:40.002Z</time></trkpt><trkpt lat="46.169344112699676" lon="9.360372352785259"><ele>206.5</ele><time>2026-04-26T10:03:41.002Z</time></trkpt><trkpt lat="46.1693282626832" lon="9.360180531300657"><ele>208.25</ele><time>2026-04-26T10:03:42.002Z</time></trkpt><trkpt lat="46.16932553089443" lon="9.359964217593046"><ele>210.0</ele><time>2026-04-26T10:03:43.002Z</time></trkpt><trkpt lat="46.16931887529337" lon="9.359692090924554"><ele>211.0</ele><time>2026-04-26T10:03:44.002Z</time></trkpt><trkpt lat="46.16930506623483" lon="9.35943362729881"><ele>212.0</ele><time>2026-04-26T10:03:45.002Z</time></trkpt><trkpt lat="46.169273528347794" lon="9.359206900269625"><ele>213.0</ele><time>2026-04-26T10:03:46.002Z</time></trkpt><trkpt lat="46.169216128430556" lon="9.358983939739764"><ele>216.33333333333331</ele><time>2026-04-26T10:03:47.002Z</time></trkpt><trkpt lat="46.169130034328084" lon="9.358765279475898"><ele>219.66666666666666</ele><time>2026-04-26T10:03:48.002Z</time></trkpt><trkpt lat="46.16904036121424" lon="9.358541117324698"><ele>223.0</ele><time>2026-04-26T10:03:49.002Z</time></trkpt><trkpt lat="46.16896075457428" lon="9.35834211905565"><ele>217.66666666666666</ele><time>2026-04-26T10:03:50.002Z</time></trkpt><trkpt lat="46.16887589642908" lon="9.358131274573816"><ele>212.33333333333331</ele><time>2026-04-26T10:03:51.002Z</time></trkpt><trkpt lat="46.16878332368057" lon="9.35790192300261"><ele>207.0</ele><time>2026-04-26T10:03:52.002Z</time></trkpt><trkpt lat="46.16868112072111" lon="9.357648712285295"><ele>207.0</ele><time>2026-04-26T10:03:53.002Z</time></trkpt><trkpt lat="46.16857243516807" lon="9.357379440757898"><ele>207.0</ele><time>2026-04-26T10:03:54.002Z</time></trkpt><trkpt lat="46.16847083513097" lon="9.357127723691768"><ele>207.0</ele><time>2026-04-26T10:03:55.002Z</time></trkpt><trkpt lat="46.16836468445252" lon="9.3568596282965"><ele>206.0</ele><time>2026-04-26T10:03:56.002Z</time></trkpt><trkpt lat="46.1682469275659" lon="9.35659339771178"><ele>205.0</ele><time>2026-04-26T10:03:57.002Z</time></trkpt><trkpt lat="46.16814834361498" lon="9.356308122892743"><ele>204.0</ele><time>2026-04-26T10:03:58.002Z</time></trkpt><trkpt lat="46.16803844745696" lon="9.356017789434311"><ele>204.0</ele><time>2026-04-26T10:03:59.002Z</time></trkpt><trkpt lat="46.167934140893834" lon="9.355719360219478"><ele>204.0</ele><time>2026-04-26T10:04:00.002Z</time></trkpt><trkpt lat="46.16783271813255" lon="9.355419719543168"><ele>206.5</ele><time>2026-04-26T10:04:01.002Z</time></trkpt><trkpt lat="46.167731087359385" lon="9.355119160293556"><ele>209.0</ele><time>2026-04-26T10:04:02.002Z</time></trkpt><trkpt lat="46.16762967125168" lon="9.354821461139643"><ele>215.5</ele><time>2026-04-26T10:04:03.002Z</time></trkpt><trkpt lat="46.16751777889835" lon="9.3545166878523"><ele>222.0</ele><time>2026-04-26T10:04:04.002Z</time></trkpt><trkpt lat="46.167378136006164" lon="9.354227090149484"><ele>215.5</ele><time>2026-04-26T10:04:05.002Z</time></trkpt><trkpt lat="46.167240152297175" lon="9.353936100633629"><ele>209.0</ele><time>2026-04-26T10:04:06.002Z</time></trkpt><trkpt lat="46.1670920560915" lon="9.353657595446812"><ele>209.0</ele><time>2026-04-26T10:04:07.002Z</time></trkpt><trkpt lat="46.166944089755326" lon="9.353397130917447"><ele>209.0</ele><time>2026-04-26T10:04:08.002Z</time></trkpt><trkpt lat="46.16679822042186" lon="9.35314815271024"><ele>207.66666666666669</ele><time>2026-04-26T10:04:09.002Z</time></trkpt><trkpt lat="46.166646568060536" lon="9.352914481370679"><ele>206.33333333333331</ele><time>2026-04-26T10:04:10.002Z</time></trkpt><trkpt lat="46.16649561074942" lon="9.352670811890567"><ele>205.0</ele><time>2026-04-26T10:04:11.002Z</time></trkpt><trkpt lat="46.16634773927638" lon="9.352440575222825"><ele>205.0</ele><time>2026-04-26T10:04:12.002Z</time></trkpt><trkpt lat="46.166204813193104" lon="9.352227200375156"><ele>205.0</ele><time>2026-04-26T10:04:13.002Z</time></trkpt><trkpt lat="46.16607604804661" lon="9.352009859784248"><ele>205.0</ele><time>2026-04-26T10:04:14.002Z</time></trkpt><trkpt lat="46.16594930950129" lon="9.351801372727637"><ele>204.66666666666666</ele><time>2026-04-26T10:04:15.003Z</time></trkpt><trkpt lat="46.165843487272674" lon="9.351574567111838"><ele>204.33333333333331</ele><time>2026-04-26T10:04:16.003Z</time></trkpt><trkpt lat="46.16573676183929" lon="9.351344872466113"><ele>204.0</ele><time>2026-04-26T10:04:17.003Z</time></trkpt><trkpt lat="46.16561718834751" lon="9.351130411974962"><ele>204.0</ele><time>2026-04-26T10:04:18.003Z</time></trkpt><trkpt lat="46.16551787179967" lon="9.35087926196609"><ele>204.0</ele><time>2026-04-26T10:04:19.003Z</time></trkpt><trkpt lat="46.165399879879644" lon="9.350631619020184"><ele>204.0</ele><time>2026-04-26T10:04:20.003Z</time></trkpt><trkpt lat="46.165285100171616" lon="9.350399966153129"><ele>206.33333333333331</ele><time>2026-04-26T10:04:21.003Z</time></trkpt><trkpt lat="46.165158088977755" lon="9.350149625776542"><ele>208.66666666666666</ele><time>2026-04-26T10:04:22.003Z</time></trkpt><trkpt lat="46.16503343644339" lon="9.349903934341896"><ele>211.0</ele><time>2026-04-26T10:04:23.003Z</time></trkpt><trkpt lat="46.16489267781263" lon="9.349681318486605"><ele>207.66666666666666</ele><time>2026-04-26T10:04:24.003Z</time></trkpt><trkpt lat="46.16477789198831" lon="9.34943560789958"><ele>204.33333333333331</ele><time>2026-04-26T10:04:25.003Z</time></trkpt><trkpt lat="46.16467251918476" lon="9.349207430270798"><ele>201.0</ele><time>2026-04-26T10:04:26.003Z</time></trkpt><trkpt lat="46.164567072823615" lon="9.348991484650254"><ele>204.33333333333331</ele><time>2026-04-26T10:04:27.003Z</time></trkpt><trkpt lat="46.16444665125334" lon="9.348802367593818"><ele>207.66666666666666</ele><time>2026-04-26T10:04:28.003Z</time></trkpt><trkpt lat="46.16433572811442" lon="9.348606822328817"><ele>211.0</ele><time>2026-04-26T10:04:29.003Z</time></trkpt><trkpt lat="46.16423636756447" lon="9.348408339405674"><ele>211.0</ele><time>2026-04-26T10:04:30.003Z</time></trkpt><trkpt lat="46.16415585876194" lon="9.348185924950593"><ele>211.0</ele><time>2026-04-26T10:04:31.003Z</time></trkpt><trkpt lat="46.16407566788287" lon="9.347934123908356"><ele>211.0</ele><time>2026-04-26T10:04:32.003Z</time></trkpt><trkpt lat="46.163991571868685" lon="9.347678365040935"><ele>211.0</ele><time>2026-04-26T10:04:33.003Z</time></trkpt><trkpt lat="46.163870073205146" lon="9.347454291361544"><ele>211.0</ele><time>2026-04-26T10:04:34.003Z</time></trkpt><trkpt lat="46.16375959921325" lon="9.347238041022086"><ele>211.0</ele><time>2026-04-26T10:04:35.003Z</time></trkpt><trkpt lat="46.16364908712664" lon="9.347005836763216"><ele>211.0</ele><time>2026-04-26T10:04:36.003Z</time></trkpt><trkpt lat="46.16352094385194" lon="9.346807129316401"><ele>211.0</ele><time>2026-04-26T10:04:37.003Z</time></trkpt><trkpt lat="46.16338098029976" lon="9.346607995733732"><ele>211.0</ele><time>2026-04-26T10:04:38.003Z</time></trkpt><trkpt lat="46.16323523689135" lon="9.346388743683718"><ele>208.5</ele><time>2026-04-26T10:04:39.003Z</time></trkpt><trkpt lat="46.16306787770386" lon="9.346167441900402"><ele>206.0</ele><time>2026-04-26T10:04:40.003Z</time></trkpt><trkpt lat="46.16290414100371" lon="9.345943761033071"><ele>206.0</ele><time>2026-04-26T10:04:41.003Z</time></trkpt><trkpt lat="46.16273554515902" lon="9.345719547217547"><ele>206.0</ele><time>2026-04-26T10:04:42.003Z</time></trkpt><trkpt lat="46.1625668843595" lon="9.345504532623922"><ele>204.33333333333334</ele><time>2026-04-26T10:04:43.003Z</time></trkpt><trkpt lat="46.162391385694356" lon="9.345303565950065"><ele>202.66666666666669</ele><time>2026-04-26T10:04:44.003Z</time></trkpt><trkpt lat="46.16224443394702" lon="9.345064956702203"><ele>201.0</ele><time>2026-04-26T10:04:45.003Z</time></trkpt><trkpt lat="46.162084580310264" lon="9.34484528280324"><ele>205.33333333333331</ele><time>2026-04-26T10:04:46.003Z</time></trkpt><trkpt lat="46.1619089158714" lon="9.344649881708806"><ele>209.66666666666666</ele><time>2026-04-26T10:04:47.003Z</time></trkpt><trkpt lat="46.1617320525288" lon="9.344451978296954"><ele>214.0</ele><time>2026-04-26T10:04:48.003Z</time></trkpt><trkpt lat="46.16155412576538" lon="9.344284262124136"><ele>206.5</ele><time>2026-04-26T10:04:49.003Z</time></trkpt><trkpt lat="46.16134550940689" lon="9.344116525743376"><ele>199.0</ele><time>2026-04-26T10:04:50.003Z</time></trkpt><trkpt lat="46.16114075759038" lon="9.343943114090456"><ele>206.5</ele><time>2026-04-26T10:04:51.003Z</time></trkpt><trkpt lat="46.16093018394104" lon="9.343759649381889"><ele>214.0</ele><time>2026-04-26T10:04:52.004Z</time></trkpt><trkpt lat="46.16072454911888" lon="9.34357329539141"><ele>208.5</ele><time>2026-04-26T10:04:53.004Z</time></trkpt><trkpt lat="46.16052395995534" lon="9.34339668297535"><ele>203.0</ele><time>2026-04-26T10:04:54.004Z</time></trkpt><trkpt lat="46.1603346089857" lon="9.343231190576086"><ele>203.0</ele><time>2026-04-26T10:04:55.004Z</time></trkpt><trkpt lat="46.16015796109007" lon="9.343048605036724"><ele>203.0</ele><time>2026-04-26T10:04:56.004Z</time></trkpt><trkpt lat="46.159985945953984" lon="9.342860587431566"><ele>203.0</ele><time>2026-04-26T10:04:57.002Z</time></trkpt><trkpt lat="46.1598312580099" lon="9.342643613208612"><ele>203.5</ele><time>2026-04-26T10:04:58.002Z</time></trkpt><trkpt lat="46.15966994637559" lon="9.342398012556519"><ele>204.0</ele><time>2026-04-26T10:04:59.002Z</time></trkpt><trkpt lat="46.159509847210764" lon="9.34215015713323"><ele>206.33333333333331</ele><time>2026-04-26T10:05:00.002Z</time></trkpt><trkpt lat="46.15935452380348" lon="9.341897554172153"><ele>208.66666666666666</ele><time>2026-04-26T10:05:01.002Z</time></trkpt><trkpt lat="46.15921791546596" lon="9.341665326956619"><ele>211.0</ele><time>2026-04-26T10:05:02.002Z</time></trkpt><trkpt lat="46.15909604390065" lon="9.341448171348762"><ele>208.0</ele><time>2026-04-26T10:05:03.002Z</time></trkpt><trkpt lat="46.15897880138526" lon="9.341236341700204"><ele>205.0</ele><time>2026-04-26T10:05:04.002Z</time></trkpt><trkpt lat="46.15888054507549" lon="9.341033508442244"><ele>202.0</ele><time>2026-04-26T10:05:05.002Z</time></trkpt><trkpt lat="46.158793082735336" lon="9.340829923561833"><ele>202.0</ele><time>2026-04-26T10:05:06.002Z</time></trkpt><trkpt lat="46.15871668012974" lon="9.340625937875295"><ele>202.0</ele><time>2026-04-26T10:05:07.002Z</time></trkpt><trkpt lat="46.15864321690122" lon="9.340430595887069"><ele>202.0</ele><time>2026-04-26T10:05:08.002Z</time></trkpt><trkpt lat="46.158572216013596" lon="9.340247951271511"><ele>204.5</ele><time>2026-04-26T10:05:09.002Z</time></trkpt><trkpt lat="46.15850389077022" lon="9.340072188478493"><ele>207.0</ele><time>2026-04-26T10:05:10.002Z</time></trkpt><trkpt lat="46.158438596283546" lon="9.339904222133281"><ele>209.5</ele><time>2026-04-26T10:05:11.002Z</time></trkpt><trkpt lat="46.158378107390874" lon="9.339748617905569"><ele>212.0</ele><time>2026-04-26T10:05:12.002Z</time></trkpt><trkpt lat="46.15820946534773" lon="9.339685344405293"><ele>210.25</ele><time>2026-04-26T10:05:13.002Z</time></trkpt><trkpt lat="46.15809799835516" lon="9.339568455053847"><ele>208.5</ele><time>2026-04-26T10:05:14.001Z</time></trkpt><trkpt lat="46.15800363765829" lon="9.339443799600627"><ele>206.75</ele><time>2026-04-26T10:05:15.001Z</time></trkpt><trkpt lat="46.15788375347147" lon="9.339326833878715"><ele>205.0</ele><time>2026-04-26T10:05:16.001Z</time></trkpt><trkpt lat="46.15780332760182" lon="9.339253958369204"><ele>204.99999999999997</ele><time>2026-04-26T10:05:17.001Z</time></trkpt><trkpt lat="46.15774554759067" lon="9.339136939192892"><ele>205.0</ele><time>2026-04-26T10:05:18.001Z</time></trkpt><trkpt lat="46.15768442353199" lon="9.339043884883116"><ele>205.0</ele><time>2026-04-26T10:05:19.001Z</time></trkpt><trkpt lat="46.15762339256248" lon="9.338955677850194"><ele>205.0</ele><time>2026-04-26T10:05:20.001Z</time></trkpt><trkpt lat="46.15756676097509" lon="9.338859242237616"><ele>204.99999999999997</ele><time>2026-04-26T10:05:21.001Z</time></trkpt><trkpt lat="46.15752003364076" lon="9.338757262750969"><ele>205.0</ele><time>2026-04-26T10:05:22.001Z</time></trkpt><trkpt lat="46.1574754895498" lon="9.338656296538794"><ele>204.33333333333331</ele><time>2026-04-26T10:05:23.001Z</time></trkpt><trkpt lat="46.157428559142936" lon="9.33854859513738"><ele>203.66666666666666</ele><time>2026-04-26T10:05:24.001Z</time></trkpt><trkpt lat="46.15738451978498" lon="9.338449435305462"><ele>203.0</ele><time>2026-04-26T10:05:25.001Z</time></trkpt><trkpt lat="46.15733363854832" lon="9.33835938916746"><ele>202.33333333333331</ele><time>2026-04-26T10:05:26.001Z</time></trkpt><trkpt lat="46.1572756938005" lon="9.338275957901875"><ele>201.66666666666666</ele><time>2026-04-26T10:05:27.001Z</time></trkpt><trkpt lat="46.157209447067466" lon="9.338210574300783"><ele>201.0</ele><time>2026-04-26T10:05:28.001Z</time></trkpt><trkpt lat="46.15713250939148" lon="9.338161695332078"><ele>201.0</ele><time>2026-04-26T10:05:29.001Z</time></trkpt><trkpt lat="46.157063203160554" lon="9.338137193154447"><ele>201.0</ele><time>2026-04-26T10:05:30.001Z</time></trkpt><trkpt lat="46.15698608548345" lon="9.338131061772227"><ele>201.0</ele><time>2026-04-26T10:05:31.001Z</time></trkpt><trkpt lat="46.156903082450434" lon="9.33813193959861"><ele>201.0</ele><time>2026-04-26T10:05:32.001Z</time></trkpt><trkpt lat="46.15678751468059" lon="9.338124363207573"><ele>201.0</ele><time>2026-04-26T10:05:33.001Z</time></trkpt><trkpt lat="46.15665206564675" lon="9.338123075615615"><ele>200.5</ele><time>2026-04-26T10:05:34.001Z</time></trkpt><trkpt lat="46.156489392301395" lon="9.338083824385812"><ele>200.0</ele><time>2026-04-26T10:05:35.001Z</time></trkpt><trkpt lat="46.15634448527946" lon="9.338043231804235"><ele>199.5</ele><time>2026-04-26T10:05:36.001Z</time></trkpt><trkpt lat="46.15621912083778" lon="9.33801305242431"><ele>199.0</ele><time>2026-04-26T10:05:37.002Z</time></trkpt><trkpt lat="46.15610642361029" lon="9.337970306812672"><ele>199.75</ele><time>2026-04-26T10:05:38.002Z</time></trkpt><trkpt lat="46.15599317078711" lon="9.337920611199023"><ele>200.5</ele><time>2026-04-26T10:05:39.002Z</time></trkpt><trkpt lat="46.15588395226736" lon="9.337855109665965"><ele>201.25</ele><time>2026-04-26T10:05:40.002Z</time></trkpt><trkpt lat="46.15577112532291" lon="9.337757915085886"><ele>202.0</ele><time>2026-04-26T10:05:41.002Z</time></trkpt><trkpt lat="46.15564917462002" lon="9.337649258561655"><ele>202.0</ele><time>2026-04-26T10:05:42.002Z</time></trkpt><trkpt lat="46.15551813894316" lon="9.337523648332166"><ele>202.0</ele><time>2026-04-26T10:05:43.002Z</time></trkpt><trkpt lat="46.15537539255752" lon="9.33736954515746"><ele>202.0</ele><time>2026-04-26T10:05:44.002Z</time></trkpt><trkpt lat="46.15523676281643" lon="9.337208519260814"><ele>202.0</ele><time>2026-04-26T10:05:45.002Z</time></trkpt><trkpt lat="46.155096790452745" lon="9.337040091065127"><ele>202.0</ele><time>2026-04-26T10:05:46.002Z</time></trkpt><trkpt lat="46.15497588982439" lon="9.336901971549004"><ele>202.0</ele><time>2026-04-26T10:05:47.002Z</time></trkpt><trkpt lat="46.15485739651692" lon="9.336777403344872"><ele>202.0</ele><time>2026-04-26T10:05:48.002Z</time></trkpt><trkpt lat="46.15475142755061" lon="9.336657113813512"><ele>202.0</ele><time>2026-04-26T10:05:49.002Z</time></trkpt><trkpt lat="46.15465160164214" lon="9.336551703156559"><ele>202.0</ele><time>2026-04-26T10:05:50.002Z</time></trkpt><trkpt lat="46.154568747180114" lon="9.336456269882747"><ele>202.0</ele><time>2026-04-26T10:05:51.002Z</time></trkpt><trkpt lat="46.15448386898931" lon="9.336367149831228"><ele>202.2</ele><time>2026-04-26T10:05:52.002Z</time></trkpt><trkpt lat="46.15439915736676" lon="9.3362753324559"><ele>202.39999999999998</ele><time>2026-04-26T10:05:53.002Z</time></trkpt><trkpt lat="46.15430791280342" lon="9.336170643419306"><ele>202.60000000000002</ele><time>2026-04-26T10:05:54.002Z</time></trkpt><trkpt lat="46.15422282570541" lon="9.336074804923319"><ele>202.8</ele><time>2026-04-26T10:05:55.002Z</time></trkpt><trkpt lat="46.15413490299644" lon="9.335980813461486"><ele>203.0</ele><time>2026-04-26T10:05:56.002Z</time></trkpt><trkpt lat="46.15405917205801" lon="9.335897929213006"><ele>203.16666666666669</ele><time>2026-04-26T10:05:57.002Z</time></trkpt><trkpt lat="46.1539896387751" lon="9.335819998744876"><ele>203.33333333333334</ele><time>2026-04-26T10:05:58.002Z</time></trkpt><trkpt lat="46.15391686935727" lon="9.33574446808368"><ele>203.5</ele><time>2026-04-26T10:05:59.002Z</time></trkpt><trkpt lat="46.15385240690963" lon="9.335669994755902"><ele>203.66666666666669</ele><time>2026-04-26T10:06:00.002Z</time></trkpt><trkpt lat="46.153780823924045" lon="9.335595604772893"><ele>203.83333333333334</ele><time>2026-04-26T10:06:01.002Z</time></trkpt><trkpt lat="46.15372330224821" lon="9.335529835935821"><ele>204.0</ele><time>2026-04-26T10:06:02.002Z</time></trkpt><trkpt lat="46.15365951739247" lon="9.335458012830479"><ele>204.2</ele><time>2026-04-26T10:06:03.002Z</time></trkpt><trkpt lat="46.15358909426985" lon="9.3353836346452"><ele>204.39999999999998</ele><time>2026-04-26T10:06:04.002Z</time></trkpt><trkpt lat="46.15351563149774" lon="9.335299345857477"><ele>204.6</ele><time>2026-04-26T10:06:05.002Z</time></trkpt><trkpt lat="46.153432422569225" lon="9.335212934488274"><ele>204.8</ele><time>2026-04-26T10:06:06.002Z</time></trkpt><trkpt lat="46.15333281175262" lon="9.335110463794638"><ele>205.0</ele><time>2026-04-26T10:06:07.002Z</time></trkpt><trkpt lat="46.15322623139114" lon="9.334997669638474"><ele>205.0</ele><time>2026-04-26T10:06:08.002Z</time></trkpt><trkpt lat="46.15313676641185" lon="9.33489406078084"><ele>205.0</ele><time>2026-04-26T10:06:09.002Z</time></trkpt><trkpt lat="46.15305793598628" lon="9.334801423225063"><ele>205.0</ele><time>2026-04-26T10:06:10.002Z</time></trkpt><trkpt lat="46.15298066608816" lon="9.334717373447459"><ele>205.0</ele><time>2026-04-26T10:06:11.002Z</time></trkpt><trkpt lat="46.15290590673261" lon="9.334632171468082"><ele>205.0</ele><time>2026-04-26T10:06:12.002Z</time></trkpt><trkpt lat="46.152820689145955" lon="9.334545152978842"><ele>205.25</ele><time>2026-04-26T10:06:13.002Z</time></trkpt><trkpt lat="46.152736169158" lon="9.334457899280759"><ele>205.5</ele><time>2026-04-26T10:06:14.002Z</time></trkpt><trkpt lat="46.15263987019813" lon="9.33435490466361"><ele>205.75</ele><time>2026-04-26T10:06:15.002Z</time></trkpt><trkpt lat="46.15254278739036" lon="9.334246309618148"><ele>206.0</ele><time>2026-04-26T10:06:16.002Z</time></trkpt><trkpt lat="46.15245911364381" lon="9.334103879769694"><ele>205.75</ele><time>2026-04-26T10:06:17.002Z</time></trkpt><trkpt lat="46.152356552238395" lon="9.333991561582758"><ele>205.5</ele><time>2026-04-26T10:06:18.002Z</time></trkpt><trkpt lat="46.15225719798278" lon="9.33388340944597"><ele>205.25</ele><time>2026-04-26T10:06:19.002Z</time></trkpt><trkpt lat="46.15214363902724" lon="9.333816920933941"><ele>205.0</ele><time>2026-04-26T10:06:20.002Z</time></trkpt><trkpt lat="46.15204131941745" lon="9.333706078667348"><ele>205.0</ele><time>2026-04-26T10:06:21.002Z</time></trkpt><trkpt lat="46.1518988628542" lon="9.333569032559586"><ele>205.0</ele><time>2026-04-26T10:06:22.002Z</time></trkpt><trkpt lat="46.15173270235392" lon="9.333384887922334"><ele>205.0</ele><time>2026-04-26T10:06:23.002Z</time></trkpt><trkpt lat="46.15158307100827" lon="9.333150025056431"><ele>205.0</ele><time>2026-04-26T10:06:24.002Z</time></trkpt><trkpt lat="46.15143642640631" lon="9.332975064188814"><ele>205.0</ele><time>2026-04-26T10:06:25.002Z</time></trkpt><trkpt lat="46.151311806400095" lon="9.332799052506086"><ele>205.0</ele><time>2026-04-26T10:06:26.002Z</time></trkpt><trkpt lat="46.151195040746565" lon="9.332619468100436"><ele>205.0</ele><time>2026-04-26T10:06:27.002Z</time></trkpt><trkpt lat="46.15107841498394" lon="9.332417303349231"><ele>205.0</ele><time>2026-04-26T10:06:28.003Z</time></trkpt><trkpt lat="46.150977770906444" lon="9.332192567381028"><ele>205.0</ele><time>2026-04-26T10:06:29.003Z</time></trkpt><trkpt lat="46.15089070257912" lon="9.331969599347559"><ele>205.0</ele><time>2026-04-26T10:06:30.003Z</time></trkpt><trkpt lat="46.15081625471939" lon="9.331740391031031"><ele>205.0</ele><time>2026-04-26T10:06:31.003Z</time></trkpt><trkpt lat="46.15075201124816" lon="9.331499333499359"><ele>205.0</ele><time>2026-04-26T10:06:32.003Z</time></trkpt><trkpt lat="46.15070503229335" lon="9.331262708371012"><ele>205.0</ele><time>2026-04-26T10:06:33.003Z</time></trkpt><trkpt lat="46.150667523229636" lon="9.331030833418986"><ele>205.0</ele><time>2026-04-26T10:06:34.003Z</time></trkpt><trkpt lat="46.15063646448022" lon="9.3307877612608"><ele>205.0</ele><time>2026-04-26T10:06:35.003Z</time></trkpt><trkpt lat="46.15059943576737" lon="9.33053575610145"><ele>204.33333333333331</ele><time>2026-04-26T10:06:36.003Z</time></trkpt><trkpt lat="46.15053979456918" lon="9.330288606959945"><ele>203.66666666666669</ele><time>2026-04-26T10:06:37.003Z</time></trkpt><trkpt lat="46.150451194842155" lon="9.330067453645881"><ele>203.0</ele><time>2026-04-26T10:06:38.003Z</time></trkpt><trkpt lat="46.150347974932615" lon="9.329884152461915"><ele>203.0</ele><time>2026-04-26T10:06:39.003Z</time></trkpt><trkpt lat="46.15022132468558" lon="9.329732684321005"><ele>203.0</ele><time>2026-04-26T10:06:40.003Z</time></trkpt><trkpt lat="46.150072170318445" lon="9.32964052581235"><ele>203.0</ele><time>2026-04-26T10:06:41.003Z</time></trkpt><trkpt lat="46.14992993869371" lon="9.329565399528768"><ele>202.75</ele><time>2026-04-26T10:06:42.003Z</time></trkpt><trkpt lat="46.14982768784846" lon="9.329433625830825"><ele>202.5</ele><time>2026-04-26T10:06:43.003Z</time></trkpt><trkpt lat="46.149758410177036" lon="9.329291355776839"><ele>202.25</ele><time>2026-04-26T10:06:44.003Z</time></trkpt><trkpt lat="46.149713310608824" lon="9.329136826079411"><ele>202.0</ele><time>2026-04-26T10:06:45.003Z</time></trkpt><trkpt lat="46.14970520826097" lon="9.328979068525564"><ele>202.5</ele><time>2026-04-26T10:06:46.003Z</time></trkpt><trkpt lat="46.14973882195571" lon="9.328821307530353"><ele>203.0</ele><time>2026-04-26T10:06:47.003Z</time></trkpt><trkpt lat="46.14980072072294" lon="9.328657981197141"><ele>203.5</ele><time>2026-04-26T10:06:48.003Z</time></trkpt><trkpt lat="46.149875305077884" lon="9.328432516824558"><ele>204.0</ele><time>2026-04-26T10:06:49.003Z</time></trkpt><trkpt lat="46.149964059036584" lon="9.328164132600175"><ele>203.66666666666669</ele><time>2026-04-26T10:06:50.003Z</time></trkpt><trkpt lat="46.150059796471766" lon="9.327876927503207"><ele>203.33333333333334</ele><time>2026-04-26T10:06:51.003Z</time></trkpt><trkpt lat="46.15014505217713" lon="9.327620483017274"><ele>203.0</ele><time>2026-04-26T10:06:52.003Z</time></trkpt><trkpt lat="46.150223428430124" lon="9.327382825461465"><ele>202.25</ele><time>2026-04-26T10:06:53.003Z</time></trkpt><trkpt lat="46.15029260938689" lon="9.327174077883264"><ele>201.5</ele><time>2026-04-26T10:06:54.003Z</time></trkpt><trkpt lat="46.15035741096998" lon="9.326976663467203"><ele>200.75</ele><time>2026-04-26T10:06:55.003Z</time></trkpt><trkpt lat="46.15040007381591" lon="9.32680611446227"><ele>200.0</ele><time>2026-04-26T10:06:56.003Z</time></trkpt><trkpt lat="46.150462163128154" lon="9.326656887728207"><ele>200.00000000000003</ele><time>2026-04-26T10:06:57.003Z</time></trkpt><trkpt lat="46.15049813307808" lon="9.326547580364622"><ele>200.0</ele><time>2026-04-26T10:06:58.003Z</time></trkpt><trkpt lat="46.15052713031378" lon="9.326459462053265"><ele>200.0</ele><time>2026-04-26T10:07:00.003Z</time></trkpt><trkpt lat="46.15055645383532" lon="9.32634844068062"><ele>200.0</ele><time>2026-04-26T10:07:06.002Z</time></trkpt><trkpt lat="46.150587531962714" lon="9.32625711784811"><ele>200.00000000000003</ele><time>2026-04-26T10:07:08.002Z</time></trkpt><trkpt lat="46.15064444195249" lon="9.32609360530028"><ele>200.0</ele><time>2026-04-26T10:07:10.002Z</time></trkpt><trkpt lat="46.15067082008896" lon="9.326009650127945"><ele>200.00000000000003</ele><time>2026-04-26T10:07:14.002Z</time></trkpt><trkpt lat="46.150702675382774" lon="9.325906521869996"><ele>200.0</ele><time>2026-04-26T10:07:18.002Z</time></trkpt><trkpt lat="46.1507213245859" lon="9.325808694750688"><ele>200.0</ele><time>2026-04-26T10:07:20.002Z</time></trkpt><trkpt lat="46.15074002832335" lon="9.325693681658123"><ele>200.0</ele><time>2026-04-26T10:07:22.002Z</time></trkpt><trkpt lat="46.150757509970084" lon="9.325565891914302"><ele>200.00000000000003</ele><time>2026-04-26T10:07:24.001Z</time></trkpt><trkpt lat="46.150753023111484" lon="9.325412328499471"><ele>200.0</ele><time>2026-04-26T10:07:26.001Z</time></trkpt><trkpt lat="46.15075100784547" lon="9.325310097882541"><ele>200.2</ele><time>2026-04-26T10:07:27.001Z</time></trkpt><trkpt lat="46.150738042912664" lon="9.325209523811195"><ele>200.4</ele><time>2026-04-26T10:07:29.001Z</time></trkpt><trkpt lat="46.15070835666501" lon="9.325064391476312"><ele>200.60000000000002</ele><time>2026-04-26T10:07:31.001Z</time></trkpt><trkpt lat="46.150683247622425" lon="9.324922203198474"><ele>200.8</ele><time>2026-04-26T10:07:32.001Z</time></trkpt><trkpt lat="46.15061847042899" lon="9.324751916667775"><ele>201.0</ele><time>2026-04-26T10:07:33.001Z</time></trkpt><trkpt lat="46.15050666803108" lon="9.32454437099756"><ele>202.0</ele><time>2026-04-26T10:07:34.001Z</time></trkpt><trkpt lat="46.15037228996321" lon="9.324301297464727"><ele>203.0</ele><time>2026-04-26T10:07:35.001Z</time></trkpt><trkpt lat="46.150250828239045" lon="9.32408327505565"><ele>204.0</ele><time>2026-04-26T10:07:36.001Z</time></trkpt><trkpt lat="46.15016187039508" lon="9.32393432978891"><ele>204.33333333333334</ele><time>2026-04-26T10:07:37.001Z</time></trkpt><trkpt lat="46.150095886284305" lon="9.323809055371639"><ele>204.66666666666669</ele><time>2026-04-26T10:07:38.001Z</time></trkpt><trkpt lat="46.15003559762766" lon="9.32371399870079"><ele>205.0</ele><time>2026-04-26T10:07:39.001Z</time></trkpt><trkpt lat="46.15000004383986" lon="9.323622980984899"><ele>205.33333333333334</ele><time>2026-04-26T10:07:40.001Z</time></trkpt><trkpt lat="46.14995466425102" lon="9.32353345586639"><ele>205.66666666666669</ele><time>2026-04-26T10:07:41.001Z</time></trkpt><trkpt lat="46.149902096322165" lon="9.323422312607725"><ele>206.0</ele><time>2026-04-26T10:07:42.001Z</time></trkpt><trkpt lat="46.14985875079854" lon="9.323309712485955"><ele>204.25</ele><time>2026-04-26T10:07:43.001Z</time></trkpt><trkpt lat="46.14982983352897" lon="9.323173751125305"><ele>202.5</ele><time>2026-04-26T10:07:44.001Z</time></trkpt><trkpt lat="46.14981590748619" lon="9.323007666032789"><ele>200.75</ele><time>2026-04-26T10:07:45.001Z</time></trkpt><trkpt lat="46.149791937936044" lon="9.322814595661098"><ele>199.0</ele><time>2026-04-26T10:07:46.001Z</time></trkpt><trkpt lat="46.14976071596745" lon="9.322572042468542"><ele>199.0</ele><time>2026-04-26T10:07:47.001Z</time></trkpt><trkpt lat="46.14973034437853" lon="9.322350117787465"><ele>199.0</ele><time>2026-04-26T10:07:48.001Z</time></trkpt><trkpt lat="46.14969575551599" lon="9.322181024724953"><ele>199.0</ele><time>2026-04-26T10:07:49.002Z</time></trkpt><trkpt lat="46.14968956892794" lon="9.32201702803052"><ele>199.0</ele><time>2026-04-26T10:07:50.002Z</time></trkpt><trkpt lat="46.149649586113775" lon="9.321913715732936"><ele>199.6</ele><time>2026-04-26T10:07:51.002Z</time></trkpt><trkpt lat="46.14957900498137" lon="9.321772942374816"><ele>200.2</ele><time>2026-04-26T10:07:53.002Z</time></trkpt><trkpt lat="46.14953923923039" lon="9.321680400780243"><ele>200.79999999999998</ele><time>2026-04-26T10:07:54.002Z</time></trkpt><trkpt lat="46.149487979105935" lon="9.321576506998216"><ele>201.39999999999998</ele><time>2026-04-26T10:07:55.002Z</time></trkpt><trkpt lat="46.14943759144514" lon="9.321478459869057"><ele>202.0</ele><time>2026-04-26T10:07:56.002Z</time></trkpt><trkpt lat="46.14937968782489" lon="9.321371533355114"><ele>202.0</ele><time>2026-04-26T10:07:57.002Z</time></trkpt><trkpt lat="46.14932425370373" lon="9.321256462056935"><ele>202.0</ele><time>2026-04-26T10:07:58.002Z</time></trkpt><trkpt lat="46.14927196317152" lon="9.321132079328901"><ele>202.0</ele><time>2026-04-26T10:07:59.002Z</time></trkpt><trkpt lat="46.149216617415604" lon="9.32100812949607"><ele>202.0</ele><time>2026-04-26T10:08:00.002Z</time></trkpt><trkpt lat="46.14917010344669" lon="9.320857863023175"><ele>202.0</ele><time>2026-04-26T10:08:01.002Z</time></trkpt><trkpt lat="46.14915073509043" lon="9.320698812615761"><ele>202.8</ele><time>2026-04-26T10:08:02.002Z</time></trkpt><trkpt lat="46.14912853700445" lon="9.320551192827422"><ele>203.6</ele><time>2026-04-26T10:08:03.002Z</time></trkpt><trkpt lat="46.14911560526786" lon="9.320416061054706"><ele>204.4</ele><time>2026-04-26T10:08:04.002Z</time></trkpt><trkpt lat="46.149108563421855" lon="9.3202850092345"><ele>205.20000000000002</ele><time>2026-04-26T10:08:05.002Z</time></trkpt><trkpt lat="46.149098941529736" lon="9.320185082037332"><ele>206.0</ele><time>2026-04-26T10:08:06.002Z</time></trkpt><trkpt lat="46.14909527678911" lon="9.32003990779204"><ele>206.00000000000003</ele><time>2026-04-26T10:08:07.002Z</time></trkpt><trkpt lat="46.149080755170125" lon="9.319925054688047"><ele>206.0</ele><time>2026-04-26T10:08:08.002Z</time></trkpt><trkpt lat="46.14908195079388" lon="9.319816790901676"><ele>206.0</ele><time>2026-04-26T10:08:09.002Z</time></trkpt><trkpt lat="46.14909248076058" lon="9.319725459736302"><ele>206.0</ele><time>2026-04-26T10:08:10.002Z</time></trkpt><trkpt lat="46.149082527248986" lon="9.319612141631694"><ele>206.00000000000003</ele><time>2026-04-26T10:08:11.002Z</time></trkpt><trkpt lat="46.14909188701362" lon="9.319497812811813"><ele>206.0</ele><time>2026-04-26T10:08:12.002Z</time></trkpt><trkpt lat="46.149095833255274" lon="9.31938928747469"><ele>206.0</ele><time>2026-04-26T10:08:13.002Z</time></trkpt><trkpt lat="46.14909043598935" lon="9.3192590299018"><ele>206.0</ele><time>2026-04-26T10:08:14.002Z</time></trkpt><trkpt lat="46.14909949816705" lon="9.319130641979807"><ele>206.0</ele><time>2026-04-26T10:08:15.002Z</time></trkpt><trkpt lat="46.14911008108183" lon="9.318998263827766"><ele>206.0</ele><time>2026-04-26T10:08:16.002Z</time></trkpt><trkpt lat="46.14912638030951" lon="9.318851321913245"><ele>206.0</ele><time>2026-04-26T10:08:17.002Z</time></trkpt><trkpt lat="46.149141242231494" lon="9.318697081625206"><ele>206.75</ele><time>2026-04-26T10:08:18.002Z</time></trkpt><trkpt lat="46.1491559262485" lon="9.318532121551883"><ele>207.5</ele><time>2026-04-26T10:08:19.002Z</time></trkpt><trkpt lat="46.149183938047514" lon="9.318354447714754"><ele>208.25</ele><time>2026-04-26T10:08:20.002Z</time></trkpt><trkpt lat="46.14919523466423" lon="9.318207106252151"><ele>209.0</ele><time>2026-04-26T10:08:21.002Z</time></trkpt><trkpt lat="46.14921659670768" lon="9.318030300917838"><ele>209.66666666666669</ele><time>2026-04-26T10:08:22.002Z</time></trkpt><trkpt lat="46.14926549267429" lon="9.317777524890573"><ele>210.33333333333331</ele><time>2026-04-26T10:08:23.002Z</time></trkpt><trkpt lat="46.149311554664244" lon="9.31746057207742"><ele>211.0</ele><time>2026-04-26T10:08:24.002Z</time></trkpt><trkpt lat="46.14936441966396" lon="9.31710248942437"><ele>211.0</ele><time>2026-04-26T10:08:25.002Z</time></trkpt><trkpt lat="46.14941451910667" lon="9.316793608284613"><ele>211.0</ele><time>2026-04-26T10:08:26.002Z</time></trkpt><trkpt lat="46.1494447230191" lon="9.316509807834894"><ele>211.0</ele><time>2026-04-26T10:08:27.002Z</time></trkpt><trkpt lat="46.149463450093634" lon="9.316261647052709"><ele>211.0</ele><time>2026-04-26T10:08:28.002Z</time></trkpt><trkpt lat="46.1494565939794" lon="9.316046815408493"><ele>211.0</ele><time>2026-04-26T10:08:29.002Z</time></trkpt><trkpt lat="46.14944010585676" lon="9.31590941610318"><ele>211.0</ele><time>2026-04-26T10:08:30.002Z</time></trkpt><trkpt lat="46.1494080292493" lon="9.31571145770473"><ele>211.0</ele><time>2026-04-26T10:08:32.002Z</time></trkpt><trkpt lat="46.14939168146566" lon="9.315576770347187"><ele>211.5</ele><time>2026-04-26T10:08:33.002Z</time></trkpt><trkpt lat="46.149375875755716" lon="9.315422002671774"><ele>212.0</ele><time>2026-04-26T10:08:34.002Z</time></trkpt><trkpt lat="46.14934397102351" lon="9.315271058565681"><ele>212.5</ele><time>2026-04-26T10:08:35.002Z</time></trkpt><trkpt lat="46.149293711760095" lon="9.315115857341207"><ele>213.0</ele><time>2026-04-26T10:08:36.002Z</time></trkpt><trkpt lat="46.1492696942652" lon="9.314942822849574"><ele>213.0</ele><time>2026-04-26T10:08:37.002Z</time></trkpt><trkpt lat="46.14924465913183" lon="9.314744700997034"><ele>213.0</ele><time>2026-04-26T10:08:38.002Z</time></trkpt><trkpt lat="46.1492277420906" lon="9.314521553865802"><ele>213.0</ele><time>2026-04-26T10:08:39.002Z</time></trkpt><trkpt lat="46.14921437653077" lon="9.314276080575274"><ele>214.66666666666669</ele><time>2026-04-26T10:08:40.002Z</time></trkpt><trkpt lat="46.14920715094794" lon="9.314025475206474"><ele>216.33333333333334</ele><time>2026-04-26T10:08:41.002Z</time></trkpt><trkpt lat="46.14919758029212" lon="9.313783460339408"><ele>218.0</ele><time>2026-04-26T10:08:42.002Z</time></trkpt><trkpt lat="46.1491931738531" lon="9.313562205184857"><ele>218.25</ele><time>2026-04-26T10:08:43.002Z</time></trkpt><trkpt lat="46.14919703385416" lon="9.313336254914983"><ele>218.5</ele><time>2026-04-26T10:08:44.002Z</time></trkpt><trkpt lat="46.14919138524402" lon="9.313143989508797"><ele>218.75</ele><time>2026-04-26T10:08:45.002Z</time></trkpt><trkpt lat="46.149185010382766" lon="9.312955810356314"><ele>219.0</ele><time>2026-04-26T10:08:46.002Z</time></trkpt><trkpt lat="46.149173470464405" lon="9.312777753237869"><ele>219.25</ele><time>2026-04-26T10:08:47.002Z</time></trkpt><trkpt lat="46.1491433708081" lon="9.312586968998156"><ele>219.5</ele><time>2026-04-26T10:08:48.002Z</time></trkpt><trkpt lat="46.14912746755975" lon="9.312401549301093"><ele>219.75</ele><time>2026-04-26T10:08:49.002Z</time></trkpt><trkpt lat="46.14910683108102" lon="9.312212047945335"><ele>220.0</ele><time>2026-04-26T10:08:50.002Z</time></trkpt><trkpt lat="46.149075894298484" lon="9.312021118498526"><ele>220.75</ele><time>2026-04-26T10:08:51.002Z</time></trkpt><trkpt lat="46.14904985203693" lon="9.311837680371406"><ele>221.5</ele><time>2026-04-26T10:08:52.002Z</time></trkpt><trkpt lat="46.14903213550222" lon="9.311636161068433"><ele>222.25</ele><time>2026-04-26T10:08:53.003Z</time></trkpt><trkpt lat="46.14900826715207" lon="9.311447395136216"><ele>223.0</ele><time>2026-04-26T10:08:54.003Z</time></trkpt><trkpt lat="46.14898239972441" lon="9.311240946898256"><ele>219.75</ele><time>2026-04-26T10:08:55.003Z</time></trkpt><trkpt lat="46.148958301535295" lon="9.311047017806695"><ele>216.5</ele><time>2026-04-26T10:08:56.003Z</time></trkpt><trkpt lat="46.148935089607036" lon="9.310859939477657"><ele>213.25</ele><time>2026-04-26T10:08:57.003Z</time></trkpt><trkpt lat="46.1489119728192" lon="9.310673627935147"><ele>210.0</ele><time>2026-04-26T10:08:58.003Z</time></trkpt><trkpt lat="46.148891093112425" lon="9.310505346319898"><ele>210.0</ele><time>2026-04-26T10:08:59.003Z</time></trkpt><trkpt lat="46.14886498458666" lon="9.310366203698559"><ele>210.0</ele><time>2026-04-26T10:09:00.003Z</time></trkpt><trkpt lat="46.14885365168881" lon="9.310266426602071"><ele>210.0</ele><time>2026-04-26T10:09:01.003Z</time></trkpt><trkpt lat="46.14883671201553" lon="9.310116547973504"><ele>210.0</ele><time>2026-04-26T10:09:03.003Z</time></trkpt><trkpt lat="46.14882169642533" lon="9.31000153413681"><ele>210.0</ele><time>2026-04-26T10:09:06.003Z</time></trkpt><trkpt lat="46.148810258474384" lon="9.309863421875137"><ele>211.75</ele><time>2026-04-26T10:09:41.001Z</time></trkpt><trkpt lat="46.14878360480268" lon="9.309669341754953"><ele>213.5</ele><time>2026-04-26T10:09:43.001Z</time></trkpt><trkpt lat="46.14876275865483" lon="9.309517549428985"><ele>215.25</ele><time>2026-04-26T10:09:44.001Z</time></trkpt><trkpt lat="46.14873782910539" lon="9.309336023587495"><ele>217.0</ele><time>2026-04-26T10:09:45.001Z</time></trkpt><trkpt lat="46.14871487551788" lon="9.309168885825777"><ele>216.99999999999997</ele><time>2026-04-26T10:09:46.001Z</time></trkpt><trkpt lat="46.14868970620792" lon="9.30902896244204"><ele>217.0</ele><time>2026-04-26T10:09:47.001Z</time></trkpt><trkpt lat="46.148674934507014" lon="9.308895100045353"><ele>217.0</ele><time>2026-04-26T10:09:48.001Z</time></trkpt><trkpt lat="46.14866136497901" lon="9.308762566511597"><ele>217.0</ele><time>2026-04-26T10:09:49.001Z</time></trkpt><trkpt lat="46.14864967360087" lon="9.30863431616215"><ele>216.99999999999997</ele><time>2026-04-26T10:09:50.001Z</time></trkpt><trkpt lat="46.148653611302464" lon="9.308536193250816"><ele>217.0</ele><time>2026-04-26T10:09:51.001Z</time></trkpt><trkpt lat="46.14862737290582" lon="9.308412572532989"><ele>217.39999999999998</ele><time>2026-04-26T10:09:53.001Z</time></trkpt><trkpt lat="46.148636156084486" lon="9.308307615249747"><ele>217.79999999999998</ele><time>2026-04-26T10:09:55.001Z</time></trkpt><trkpt lat="46.14865813301644" lon="9.308136810134153"><ele>218.2</ele><time>2026-04-26T10:09:57.001Z</time></trkpt><trkpt lat="46.14867576337822" lon="9.308042402211584"><ele>218.6</ele><time>2026-04-26T10:09:58.001Z</time></trkpt><trkpt lat="46.148669632951716" lon="9.307869111276993"><ele>219.0</ele><time>2026-04-26T10:10:00.001Z</time></trkpt><trkpt lat="46.14863105890363" lon="9.307703255056454"><ele>220.0</ele><time>2026-04-26T10:10:02.001Z</time></trkpt><trkpt lat="46.148600258102284" lon="9.307526505838865"><ele>220.99999999999997</ele><time>2026-04-26T10:10:04.001Z</time></trkpt><trkpt lat="46.14857258826853" lon="9.307341748406865"><ele>221.99999999999997</ele><time>2026-04-26T10:10:06.001Z</time></trkpt><trkpt lat="46.14855850887075" lon="9.307239997936508"><ele>223.0</ele><time>2026-04-26T10:10:07.001Z</time></trkpt><trkpt lat="46.14854364303378" lon="9.307132510742623"><ele>224.0</ele><time>2026-04-26T10:10:08.001Z</time></trkpt><trkpt lat="46.14852952629221" lon="9.307024284747646"><ele>224.16666666666669</ele><time>2026-04-26T10:10:09.001Z</time></trkpt><trkpt lat="46.148514865460264" lon="9.30691267916266"><ele>224.33333333333334</ele><time>2026-04-26T10:10:10.001Z</time></trkpt><trkpt lat="46.148500333322225" lon="9.306805692510194"><ele>224.5</ele><time>2026-04-26T10:10:11.001Z</time></trkpt><trkpt lat="46.14848480034917" lon="9.306691520637317"><ele>224.66666666666669</ele><time>2026-04-26T10:10:13.001Z</time></trkpt><trkpt lat="46.148465498150806" lon="9.306570415226455"><ele>224.83333333333334</ele><time>2026-04-26T10:10:15.001Z</time></trkpt><trkpt lat="46.14844783626225" lon="9.306456295027111"><ele>225.0</ele><time>2026-04-26T10:10:16.001Z</time></trkpt><trkpt lat="46.14842294612262" lon="9.306295470317776"><ele>225.0</ele><time>2026-04-26T10:10:17.001Z</time></trkpt><trkpt lat="46.148398207123684" lon="9.306118316507133"><ele>225.0</ele><time>2026-04-26T10:10:18.001Z</time></trkpt><trkpt lat="46.14830506591417" lon="9.305995331071747"><ele>225.0</ele><time>2026-04-26T10:10:19.001Z</time></trkpt><trkpt lat="46.14824487428323" lon="9.305860740277122"><ele>225.0</ele><time>2026-04-26T10:10:20.001Z</time></trkpt><trkpt lat="46.1481777378097" lon="9.305743130349416"><ele>224.0</ele><time>2026-04-26T10:10:21.001Z</time></trkpt><trkpt lat="46.14836004294576" lon="9.305533962738144"><ele>223.0</ele><time>2026-04-26T10:10:23.001Z</time></trkpt><trkpt lat="46.148425809232464" lon="9.30539358959306"><ele>222.0</ele><time>2026-04-26T10:10:25.001Z</time></trkpt><trkpt lat="46.14847587728469" lon="9.305244624841396"><ele>222.0</ele><time>2026-04-26T10:10:26.001Z</time></trkpt><trkpt lat="46.14852832018454" lon="9.305084431591723"><ele>222.0</ele><time>2026-04-26T10:10:27.001Z</time></trkpt><trkpt lat="46.148606856383125" lon="9.304789455493253"><ele>222.0</ele><time>2026-04-26T10:10:28.001Z</time></trkpt><trkpt lat="46.148615783582215" lon="9.30461958704453"><ele>223.5</ele><time>2026-04-26T10:10:29.001Z</time></trkpt><trkpt lat="46.14857713174641" lon="9.304409214710251"><ele>225.0</ele><time>2026-04-26T10:10:30.002Z</time></trkpt><trkpt lat="46.14850166947483" lon="9.304245386063856"><ele>226.5</ele><time>2026-04-26T10:10:31.002Z</time></trkpt><trkpt lat="46.14842096254975" lon="9.304101045131281"><ele>228.0</ele><time>2026-04-26T10:10:32.002Z</time></trkpt><trkpt lat="46.1483800995529" lon="9.304000257433545"><ele>227.75</ele><time>2026-04-26T10:10:33.002Z</time></trkpt><trkpt lat="46.14830515579162" lon="9.30388123106965"><ele>227.5</ele><time>2026-04-26T10:10:34.002Z</time></trkpt><trkpt lat="46.148214669561085" lon="9.303745629034006"><ele>227.25</ele><time>2026-04-26T10:10:35.002Z</time></trkpt><trkpt lat="46.148103589330915" lon="9.303574006922581"><ele>227.0</ele><time>2026-04-26T10:10:36.002Z</time></trkpt><trkpt lat="46.14798917891257" lon="9.303389628931743"><ele>227.0</ele><time>2026-04-26T10:10:37.002Z</time></trkpt><trkpt lat="46.14789991361047" lon="9.303236533768017"><ele>227.0</ele><time>2026-04-26T10:10:38.002Z</time></trkpt><trkpt lat="46.14782401562332" lon="9.303112540806382"><ele>227.0</ele><time>2026-04-26T10:10:39.002Z</time></trkpt><trkpt lat="46.14776377103335" lon="9.303014830383423"><ele>227.0</ele><time>2026-04-26T10:10:40.002Z</time></trkpt><trkpt lat="46.14771297966261" lon="9.302936195990945"><ele>227.0</ele><time>2026-04-26T10:10:41.002Z</time></trkpt><trkpt lat="46.14767008655651" lon="9.302853788401961"><ele>227.0</ele><time>2026-04-26T10:10:42.002Z</time></trkpt><trkpt lat="46.147628276236375" lon="9.302782573998547"><ele>227.0</ele><time>2026-04-26T10:10:43.002Z</time></trkpt><trkpt lat="46.14754355114085" lon="9.302641294892378"><ele>227.0</ele><time>2026-04-26T10:10:45.002Z</time></trkpt><trkpt lat="46.14746806622519" lon="9.30253915593717"><ele>227.0</ele><time>2026-04-26T10:10:47.002Z</time></trkpt><trkpt lat="46.14735639747924" lon="9.30249434439462"><ele>227.0</ele><time>2026-04-26T10:10:49.002Z</time></trkpt><trkpt lat="46.14727391785869" lon="9.30248589725722"><ele>227.0</ele><time>2026-04-26T10:10:50.002Z</time></trkpt><trkpt lat="46.14719473942757" lon="9.30248382275131"><ele>227.0</ele><time>2026-04-26T10:10:51.002Z</time></trkpt><trkpt lat="46.14709218996761" lon="9.302470346307091"><ele>227.0</ele><time>2026-04-26T10:10:52.002Z</time></trkpt><trkpt lat="46.14698687360486" lon="9.30245548162565"><ele>227.0</ele><time>2026-04-26T10:10:53.002Z</time></trkpt><trkpt lat="46.146864416948354" lon="9.302452468340556"><ele>227.0</ele><time>2026-04-26T10:10:54.002Z</time></trkpt><trkpt lat="46.14669660177536" lon="9.302446331003663"><ele>227.25</ele><time>2026-04-26T10:10:55.002Z</time></trkpt><trkpt lat="46.146533512089924" lon="9.302404082802163"><ele>227.5</ele><time>2026-04-26T10:10:56.002Z</time></trkpt><trkpt lat="46.14639473826079" lon="9.302351912770694"><ele>227.75</ele><time>2026-04-26T10:10:57.002Z</time></trkpt><trkpt lat="46.146272653679596" lon="9.302297297799152"><ele>228.0</ele><time>2026-04-26T10:10:58.002Z</time></trkpt><trkpt lat="46.1461801574708" lon="9.302197981505387"><ele>228.0</ele><time>2026-04-26T10:10:59.002Z</time></trkpt><trkpt lat="46.14609830822908" lon="9.302086736199188"><ele>228.0</ele><time>2026-04-26T10:11:00.002Z</time></trkpt><trkpt lat="46.14599443182283" lon="9.301956923222475"><ele>228.0</ele><time>2026-04-26T10:11:01.002Z</time></trkpt><trkpt lat="46.14586429787597" lon="9.301793022463178"><ele>228.0</ele><time>2026-04-26T10:11:02.002Z</time></trkpt><trkpt lat="46.14573086605972" lon="9.301624968181374"><ele>228.0</ele><time>2026-04-26T10:11:03.002Z</time></trkpt><trkpt lat="46.145601860448544" lon="9.301462488467791"><ele>228.0</ele><time>2026-04-26T10:11:04.002Z</time></trkpt><trkpt lat="46.145480669508885" lon="9.301322083145054"><ele>228.0</ele><time>2026-04-26T10:11:05.002Z</time></trkpt><trkpt lat="46.14537165613758" lon="9.301187501231986"><ele>228.0</ele><time>2026-04-26T10:11:06.002Z</time></trkpt><trkpt lat="46.145278084965256" lon="9.301073620908769"><ele>228.0</ele><time>2026-04-26T10:11:07.002Z</time></trkpt><trkpt lat="46.14519012763471" lon="9.30096699009898"><ele>228.0</ele><time>2026-04-26T10:11:08.002Z</time></trkpt><trkpt lat="46.1451036793603" lon="9.300877109424999"><ele>228.0</ele><time>2026-04-26T10:11:09.002Z</time></trkpt><trkpt lat="46.14500912199895" lon="9.30076484599676"><ele>228.0</ele><time>2026-04-26T10:11:10.002Z</time></trkpt><trkpt lat="46.14490848827485" lon="9.300697451805261"><ele>228.0</ele><time>2026-04-26T10:11:11.002Z</time></trkpt><trkpt lat="46.14480912164778" lon="9.300570297789491"><ele>228.0</ele><time>2026-04-26T10:11:12.002Z</time></trkpt><trkpt lat="46.14471933184921" lon="9.300441192525755"><ele>228.0</ele><time>2026-04-26T10:11:13.002Z</time></trkpt><trkpt lat="46.14464794332255" lon="9.300337220426876"><ele>227.0</ele><time>2026-04-26T10:11:14.002Z</time></trkpt><trkpt lat="46.144592762256956" lon="9.30024988702746"><ele>226.0</ele><time>2026-04-26T10:11:15.001Z</time></trkpt><trkpt lat="46.14455378559639" lon="9.300157443211624"><ele>225.0</ele><time>2026-04-26T10:11:16.001Z</time></trkpt><trkpt lat="46.14450970736301" lon="9.300087995364217"><ele>224.0</ele><time>2026-04-26T10:11:17.001Z</time></trkpt><trkpt lat="46.14443481101859" lon="9.299981856816476"><ele>223.0</ele><time>2026-04-26T10:11:19.001Z</time></trkpt><trkpt lat="46.14438276867077" lon="9.299855408499525"><ele>222.0</ele><time>2026-04-26T10:11:21.001Z</time></trkpt><trkpt lat="46.14433353440137" lon="9.299745984750185"><ele>222.0</ele><time>2026-04-26T10:11:22.001Z</time></trkpt><trkpt lat="46.144295944907455" lon="9.299624116542775"><ele>222.0</ele><time>2026-04-26T10:11:23.001Z</time></trkpt><trkpt lat="46.144287258750026" lon="9.299503579024412"><ele>222.0</ele><time>2026-04-26T10:11:24.001Z</time></trkpt><trkpt lat="46.144263883059004" lon="9.299376572815161"><ele>222.0</ele><time>2026-04-26T10:11:25.001Z</time></trkpt><trkpt lat="46.144236257883904" lon="9.299236043511684"><ele>222.0</ele><time>2026-04-26T10:11:26.001Z</time></trkpt><trkpt lat="46.144207089600414" lon="9.299103441906183"><ele>222.0</ele><time>2026-04-26T10:11:27.001Z</time></trkpt><trkpt lat="46.144161123147605" lon="9.298976683743676"><ele>222.0</ele><time>2026-04-26T10:11:28.001Z</time></trkpt><trkpt lat="46.144156472124" lon="9.298820220318678"><ele>222.0</ele><time>2026-04-26T10:11:29.001Z</time></trkpt><trkpt lat="46.14410056734312" lon="9.298655665999899"><ele>222.0</ele><time>2026-04-26T10:11:30.001Z</time></trkpt><trkpt lat="46.14405438237987" lon="9.2985011970764"><ele>220.5</ele><time>2026-04-26T10:11:31.001Z</time></trkpt><trkpt lat="46.1440353852182" lon="9.298334539507417"><ele>219.0</ele><time>2026-04-26T10:11:32.001Z</time></trkpt><trkpt lat="46.143991847257716" lon="9.298181502095138"><ele>217.5</ele><time>2026-04-26T10:11:33.001Z</time></trkpt><trkpt lat="46.143950863182205" lon="9.298014213729"><ele>216.0</ele><time>2026-04-26T10:11:34.001Z</time></trkpt><trkpt lat="46.143908237973456" lon="9.297836250387464"><ele>216.0</ele><time>2026-04-26T10:11:35.001Z</time></trkpt><trkpt lat="46.143868590916384" lon="9.297655338258375"><ele>216.0</ele><time>2026-04-26T10:11:36.001Z</time></trkpt><trkpt lat="46.14383274712679" lon="9.29748264362122"><ele>216.0</ele><time>2026-04-26T10:11:37.001Z</time></trkpt><trkpt lat="46.14379742319645" lon="9.297315135143315"><ele>216.0</ele><time>2026-04-26T10:11:38.001Z</time></trkpt><trkpt lat="46.143762425705646" lon="9.297147778116988"><ele>217.25</ele><time>2026-04-26T10:11:39.001Z</time></trkpt><trkpt lat="46.143713183689044" lon="9.296988368057935"><ele>218.5</ele><time>2026-04-26T10:11:40.001Z</time></trkpt><trkpt lat="46.143658966676824" lon="9.296848050334642"><ele>219.75</ele><time>2026-04-26T10:11:41.001Z</time></trkpt><trkpt lat="46.14356616277301" lon="9.296722309906954"><ele>221.0</ele><time>2026-04-26T10:11:42.001Z</time></trkpt><trkpt lat="46.14344524748361" lon="9.296618276460233"><ele>221.0</ele><time>2026-04-26T10:11:43.001Z</time></trkpt><trkpt lat="46.14328190288513" lon="9.29650572802608"><ele>221.0</ele><time>2026-04-26T10:11:44.001Z</time></trkpt><trkpt lat="46.1431078299665" lon="9.296316153856052"><ele>221.0</ele><time>2026-04-26T10:11:45.001Z</time></trkpt><trkpt lat="46.142919766415666" lon="9.296139056881346"><ele>220.0</ele><time>2026-04-26T10:11:46.001Z</time></trkpt><trkpt lat="46.142751512284875" lon="9.29600620264978"><ele>219.0</ele><time>2026-04-26T10:11:47.001Z</time></trkpt><trkpt lat="46.14261258017539" lon="9.29585041154209"><ele>218.0</ele><time>2026-04-26T10:11:48.001Z</time></trkpt><trkpt lat="46.14247686769883" lon="9.29571784085601"><ele>216.66666666666669</ele><time>2026-04-26T10:11:49.001Z</time></trkpt><trkpt lat="46.14234625578598" lon="9.295569882236606"><ele>215.33333333333331</ele><time>2026-04-26T10:11:50.001Z</time></trkpt><trkpt lat="46.14222360401899" lon="9.295387471903009"><ele>214.0</ele><time>2026-04-26T10:11:51.001Z</time></trkpt><trkpt lat="46.142129515507726" lon="9.295154399917884"><ele>214.0</ele><time>2026-04-26T10:11:52.001Z</time></trkpt><trkpt lat="46.14202315844433" lon="9.294922911972154"><ele>214.0</ele><time>2026-04-26T10:11:53.001Z</time></trkpt><trkpt lat="46.14192350703456" lon="9.294708896796212"><ele>214.0</ele><time>2026-04-26T10:11:54.001Z</time></trkpt><trkpt lat="46.14183303750154" lon="9.29451507364404"><ele>214.0</ele><time>2026-04-26T10:11:55.001Z</time></trkpt><trkpt lat="46.14174877728233" lon="9.29433533691752"><ele>214.0</ele><time>2026-04-26T10:11:56.001Z</time></trkpt><trkpt lat="46.141660922007105" lon="9.294146640048096"><ele>214.0</ele><time>2026-04-26T10:11:57.001Z</time></trkpt><trkpt lat="46.141575382653095" lon="9.293958263178974"><ele>213.0</ele><time>2026-04-26T10:11:58.001Z</time></trkpt><trkpt lat="46.14149347449792" lon="9.293777640424285"><ele>212.0</ele><time>2026-04-26T10:11:59.001Z</time></trkpt><trkpt lat="46.141403494571534" lon="9.293586292306244"><ele>211.0</ele><time>2026-04-26T10:12:00.001Z</time></trkpt><trkpt lat="46.141318588314796" lon="9.293405733663882"><ele>211.0</ele><time>2026-04-26T10:12:01.001Z</time></trkpt><trkpt lat="46.141234536124145" lon="9.293225886506056"><ele>211.0</ele><time>2026-04-26T10:12:02.001Z</time></trkpt><trkpt lat="46.1411430086119" lon="9.293029182641055"><ele>211.0</ele><time>2026-04-26T10:12:03.001Z</time></trkpt><trkpt lat="46.14101743751356" lon="9.292866927958157"><ele>211.0</ele><time>2026-04-26T10:12:04.001Z</time></trkpt><trkpt lat="46.14093746565682" lon="9.292661415193214"><ele>211.0</ele><time>2026-04-26T10:12:05.001Z</time></trkpt><trkpt lat="46.14083645245411" lon="9.292459200099334"><ele>211.0</ele><time>2026-04-26T10:12:06.001Z</time></trkpt><trkpt lat="46.140763293622236" lon="9.2923002381459"><ele>210.5</ele><time>2026-04-26T10:12:07.001Z</time></trkpt><trkpt lat="46.14067774992356" lon="9.29215038900879"><ele>210.0</ele><time>2026-04-26T10:12:08.001Z</time></trkpt><trkpt lat="46.14060013719544" lon="9.292029440944686"><ele>209.5</ele><time>2026-04-26T10:12:09.001Z</time></trkpt><trkpt lat="46.14050521575497" lon="9.291914718095539"><ele>209.0</ele><time>2026-04-26T10:12:10.001Z</time></trkpt><trkpt lat="46.14038719006002" lon="9.291761385912379"><ele>209.0</ele><time>2026-04-26T10:12:11.001Z</time></trkpt><trkpt lat="46.14022476561107" lon="9.291627769744762"><ele>209.0</ele><time>2026-04-26T10:12:12.001Z</time></trkpt><trkpt lat="46.140057683211566" lon="9.291467136896985"><ele>209.0</ele><time>2026-04-26T10:12:13.001Z</time></trkpt><trkpt lat="46.139888481568136" lon="9.291315341169744"><ele>208.0</ele><time>2026-04-26T10:12:14.001Z</time></trkpt><trkpt lat="46.13971506658261" lon="9.29116801324301"><ele>207.0</ele><time>2026-04-26T10:12:15.001Z</time></trkpt><trkpt lat="46.13955337723123" lon="9.291028458917948"><ele>206.0</ele><time>2026-04-26T10:12:16.001Z</time></trkpt><trkpt lat="46.139405032767435" lon="9.29090038779876"><ele>206.0</ele><time>2026-04-26T10:12:17.001Z</time></trkpt><trkpt lat="46.13926309916605" lon="9.290781060646108"><ele>206.0</ele><time>2026-04-26T10:12:18.001Z</time></trkpt><trkpt lat="46.13912434137286" lon="9.290663536352612"><ele>206.0</ele><time>2026-04-26T10:12:19.001Z</time></trkpt><trkpt lat="46.138978943719586" lon="9.29053528331928"><ele>205.33333333333334</ele><time>2026-04-26T10:12:20.001Z</time></trkpt><trkpt lat="46.13883448096621" lon="9.290424061886105"><ele>204.66666666666669</ele><time>2026-04-26T10:12:21.001Z</time></trkpt><trkpt lat="46.13869068834671" lon="9.2903062894647"><ele>204.0</ele><time>2026-04-26T10:12:22.001Z</time></trkpt><trkpt lat="46.138540035785574" lon="9.290176717786963"><ele>204.0</ele><time>2026-04-26T10:12:23.001Z</time></trkpt><trkpt lat="46.138389651058056" lon="9.290046639807029"><ele>204.0</ele><time>2026-04-26T10:12:24.001Z</time></trkpt><trkpt lat="46.13824929745036" lon="9.289928427948437"><ele>204.0</ele><time>2026-04-26T10:12:25.001Z</time></trkpt><trkpt lat="46.13810123417815" lon="9.289801227680469"><ele>203.33333333333331</ele><time>2026-04-26T10:12:26.001Z</time></trkpt><trkpt lat="46.13795547147814" lon="9.28967554764635"><ele>202.66666666666666</ele><time>2026-04-26T10:12:27.001Z</time></trkpt><trkpt lat="46.13781617506246" lon="9.289556467313965"><ele>202.0</ele><time>2026-04-26T10:12:28.001Z</time></trkpt><trkpt lat="46.13768742751203" lon="9.289447495480319"><ele>202.0</ele><time>2026-04-26T10:12:29.001Z</time></trkpt><trkpt lat="46.13757443473232" lon="9.28935304407342"><ele>202.0</ele><time>2026-04-26T10:12:30.001Z</time></trkpt><trkpt lat="46.13745971538283" lon="9.289263274616166"><ele>202.0</ele><time>2026-04-26T10:12:31.001Z</time></trkpt><trkpt lat="46.13734330777916" lon="9.289157456568997"><ele>202.0</ele><time>2026-04-26T10:12:32.001Z</time></trkpt><trkpt lat="46.137210569206644" lon="9.28903105775249"><ele>203.66666666666666</ele><time>2026-04-26T10:12:33.001Z</time></trkpt><trkpt lat="46.13704557937139" lon="9.288890239289358"><ele>205.33333333333331</ele><time>2026-04-26T10:12:34.001Z</time></trkpt><trkpt lat="46.13687910583668" lon="9.28874796732261"><ele>207.0</ele><time>2026-04-26T10:12:35.001Z</time></trkpt><trkpt lat="46.136705324698546" lon="9.288621330088423"><ele>207.0</ele><time>2026-04-26T10:12:36.001Z</time></trkpt><trkpt lat="46.13655831498831" lon="9.28847046067669"><ele>207.0</ele><time>2026-04-26T10:12:37.001Z</time></trkpt><trkpt lat="46.13640022621616" lon="9.28835781163392"><ele>207.0</ele><time>2026-04-26T10:12:38.001Z</time></trkpt><trkpt lat="46.136248361339895" lon="9.288232466543064"><ele>206.33333333333331</ele><time>2026-04-26T10:12:39.001Z</time></trkpt><trkpt lat="46.136098374020406" lon="9.288119835859044"><ele>205.66666666666666</ele><time>2026-04-26T10:12:40.001Z</time></trkpt><trkpt lat="46.13597339683789" lon="9.2879992826577"><ele>205.0</ele><time>2026-04-26T10:12:41.001Z</time></trkpt><trkpt lat="46.135841295073035" lon="9.287887214803252"><ele>205.0</ele><time>2026-04-26T10:12:42.001Z</time></trkpt><trkpt lat="46.135716695359754" lon="9.28778532929454"><ele>205.0</ele><time>2026-04-26T10:12:43.001Z</time></trkpt><trkpt lat="46.135604811981764" lon="9.287694951644824"><ele>205.0</ele><time>2026-04-26T10:12:44.001Z</time></trkpt><trkpt lat="46.13551707751058" lon="9.2876143566934"><ele>205.0</ele><time>2026-04-26T10:12:45.001Z</time></trkpt><trkpt lat="46.1354264426583" lon="9.28758004392511"><ele>204.99999999999997</ele><time>2026-04-26T10:12:46.001Z</time></trkpt><trkpt lat="46.13534935391554" lon="9.287504517346228"><ele>205.0</ele><time>2026-04-26T10:12:47.001Z</time></trkpt><trkpt lat="46.13528277989412" lon="9.287445277372768"><ele>205.0</ele><time>2026-04-26T10:12:48.001Z</time></trkpt><trkpt lat="46.13523534773017" lon="9.287346532890757"><ele>205.0</ele><time>2026-04-26T10:12:49.001Z</time></trkpt><trkpt lat="46.135175434723365" lon="9.28729261873869"><ele>204.99999999999997</ele><time>2026-04-26T10:12:50.001Z</time></trkpt><trkpt lat="46.1350996154269" lon="9.287254326661275"><ele>205.0</ele><time>2026-04-26T10:12:51.001Z</time></trkpt><trkpt lat="46.13500131958854" lon="9.287203712783658"><ele>205.0</ele><time>2026-04-26T10:12:52.001Z</time></trkpt><trkpt lat="46.134877590285214" lon="9.287131760402113"><ele>205.0</ele><time>2026-04-26T10:12:53.001Z</time></trkpt><trkpt lat="46.1347382051948" lon="9.287050391941836"><ele>205.0</ele><time>2026-04-26T10:12:54.001Z</time></trkpt><trkpt lat="46.13459961680836" lon="9.286970290291528"><ele>205.0</ele><time>2026-04-26T10:12:55.001Z</time></trkpt><trkpt lat="46.13444262968071" lon="9.28689543575106"><ele>205.0</ele><time>2026-04-26T10:12:56.001Z</time></trkpt><trkpt lat="46.13428514116857" lon="9.286821344882291"><ele>205.0</ele><time>2026-04-26T10:12:57.001Z</time></trkpt><trkpt lat="46.134114441651256" lon="9.286772250805642"><ele>205.0</ele><time>2026-04-26T10:12:58.001Z</time></trkpt><trkpt lat="46.13393833427076" lon="9.286740754802748"><ele>205.66666666666666</ele><time>2026-04-26T10:12:59.001Z</time></trkpt><trkpt lat="46.1337529451982" lon="9.286715744767218"><ele>206.33333333333331</ele><time>2026-04-26T10:13:00.001Z</time></trkpt><trkpt lat="46.133562176471216" lon="9.286686860440069"><ele>207.0</ele><time>2026-04-26T10:13:01.001Z</time></trkpt><trkpt lat="46.133383463396385" lon="9.28666149540194"><ele>207.0</ele><time>2026-04-26T10:13:02.001Z</time></trkpt><trkpt lat="46.133210801641965" lon="9.286642841724506"><ele>207.0</ele><time>2026-04-26T10:13:03.001Z</time></trkpt><trkpt lat="46.133040284349626" lon="9.28662703306018"><ele>207.0</ele><time>2026-04-26T10:13:04.001Z</time></trkpt><trkpt lat="46.132865588897516" lon="9.286612748490398"><ele>207.0</ele><time>2026-04-26T10:13:05.001Z</time></trkpt><trkpt lat="46.13269515198729" lon="9.286597376873468"><ele>207.0</ele><time>2026-04-26T10:13:06.001Z</time></trkpt><trkpt lat="46.132530601751576" lon="9.286573840926488"><ele>207.0</ele><time>2026-04-26T10:13:07.001Z</time></trkpt><trkpt lat="46.13237493132298" lon="9.28655489847315"><ele>207.25</ele><time>2026-04-26T10:13:08.001Z</time></trkpt><trkpt lat="46.1322282120008" lon="9.28654058070134"><ele>207.5</ele><time>2026-04-26T10:13:09.001Z</time></trkpt><trkpt lat="46.13209032233106" lon="9.286520563049573"><ele>207.75</ele><time>2026-04-26T10:13:10.001Z</time></trkpt><trkpt lat="46.13196200167154" lon="9.286498408980144"><ele>208.0</ele><time>2026-04-26T10:13:11.001Z</time></trkpt><trkpt lat="46.13184823202346" lon="9.286498061062911"><ele>208.0</ele><time>2026-04-26T10:13:12.001Z</time></trkpt><trkpt lat="46.131735814870616" lon="9.28646775597703"><ele>208.0</ele><time>2026-04-26T10:13:13.001Z</time></trkpt><trkpt lat="46.13159327559786" lon="9.286473074627736"><ele>208.0</ele><time>2026-04-26T10:13:14.001Z</time></trkpt><trkpt lat="46.13145186687526" lon="9.286434431351498"><ele>208.0</ele><time>2026-04-26T10:13:15.001Z</time></trkpt><trkpt lat="46.131304815588095" lon="9.286433336814136"><ele>207.33333333333331</ele><time>2026-04-26T10:13:16.001Z</time></trkpt><trkpt lat="46.13113995298727" lon="9.286413957563795"><ele>206.66666666666669</ele><time>2026-04-26T10:13:17.001Z</time></trkpt><trkpt lat="46.130981894249054" lon="9.286347440832834"><ele>206.0</ele><time>2026-04-26T10:13:18.001Z</time></trkpt><trkpt lat="46.13081423758331" lon="9.286290802415147"><ele>205.66666666666669</ele><time>2026-04-26T10:13:19.001Z</time></trkpt><trkpt lat="46.13063589280732" lon="9.286229057657081"><ele>205.33333333333331</ele><time>2026-04-26T10:13:20.001Z</time></trkpt><trkpt lat="46.13045554088349" lon="9.28616473626529"><ele>205.0</ele><time>2026-04-26T10:13:21Z</time></trkpt><trkpt lat="46.130267773754305" lon="9.286095455945699"><ele>205.0</ele><time>2026-04-26T10:13:22Z</time></trkpt><trkpt lat="46.1300793973618" lon="9.286015552005612"><ele>205.0</ele><time>2026-04-26T10:13:23Z</time></trkpt><trkpt lat="46.12988773827182" lon="9.285942433855642"><ele>205.0</ele><time>2026-04-26T10:13:24Z</time></trkpt><trkpt lat="46.12971784392837" lon="9.28579685716371"><ele>204.66666666666666</ele><time>2026-04-26T10:13:25Z</time></trkpt><trkpt lat="46.12954484742326" lon="9.285652788328106"><ele>204.33333333333331</ele><time>2026-04-26T10:13:26Z</time></trkpt><trkpt lat="46.12937292238404" lon="9.28550588224823"><ele>204.0</ele><time>2026-04-26T10:13:27Z</time></trkpt><trkpt lat="46.129208020403254" lon="9.285363597150017"><ele>203.33333333333331</ele><time>2026-04-26T10:13:28Z</time></trkpt><trkpt lat="46.12905689477643" lon="9.285234184147518"><ele>202.66666666666666</ele><time>2026-04-26T10:13:29Z</time></trkpt><trkpt lat="46.128907722215814" lon="9.285106464422885"><ele>202.0</ele><time>2026-04-26T10:13:30Z</time></trkpt><trkpt lat="46.12876811154083" lon="9.284986884791513"><ele>202.0</ele><time>2026-04-26T10:13:31Z</time></trkpt><trkpt lat="46.12863563388816" lon="9.284873359938128"><ele>202.0</ele><time>2026-04-26T10:13:32Z</time></trkpt><trkpt lat="46.1285313779389" lon="9.284784022547242"><ele>202.0</ele><time>2026-04-26T10:13:33Z</time></trkpt><trkpt lat="46.128421929811836" lon="9.284690235983172"><ele>202.0</ele><time>2026-04-26T10:13:34Z</time></trkpt><trkpt lat="46.12833828982839" lon="9.284618564509904"><ele>202.6</ele><time>2026-04-26T10:13:35Z</time></trkpt><trkpt lat="46.12827868810956" lon="9.284567493299082"><ele>203.2</ele><time>2026-04-26T10:13:36Z</time></trkpt><trkpt lat="46.12819839646191" lon="9.284498690855735"><ele>203.8</ele><time>2026-04-26T10:13:38Z</time></trkpt><trkpt lat="46.12808761356673" lon="9.284399841380226"><ele>204.4</ele><time>2026-04-26T10:13:40Z</time></trkpt><trkpt lat="46.12800528808025" lon="9.284307909609963"><ele>205.0</ele><time>2026-04-26T10:13:41Z</time></trkpt><trkpt lat="46.12790467702578" lon="9.284175593984484"><ele>205.0</ele><time>2026-04-26T10:13:42Z</time></trkpt><trkpt lat="46.12780413489687" lon="9.28407641562054"><ele>205.0</ele><time>2026-04-26T10:13:43Z</time></trkpt><trkpt lat="46.1276892356498" lon="9.283943210461508"><ele>205.0</ele><time>2026-04-26T10:13:44Z</time></trkpt><trkpt lat="46.127599949276295" lon="9.283823882029687"><ele>205.0</ele><time>2026-04-26T10:13:45Z</time></trkpt><trkpt lat="46.12750098288535" lon="9.283675243568178"><ele>205.5</ele><time>2026-04-26T10:13:46Z</time></trkpt><trkpt lat="46.12742158268603" lon="9.28349637170856"><ele>206.0</ele><time>2026-04-26T10:13:47Z</time></trkpt><trkpt lat="46.127371602181775" lon="9.283329757401948"><ele>206.5</ele><time>2026-04-26T10:13:48Z</time></trkpt><trkpt lat="46.12733694434945" lon="9.283197629438801"><ele>207.0</ele><time>2026-04-26T10:13:49Z</time></trkpt><trkpt lat="46.127306074393616" lon="9.283079943226356"><ele>207.6</ele><time>2026-04-26T10:13:51Z</time></trkpt><trkpt lat="46.12721448097242" lon="9.283035920874546"><ele>208.2</ele><time>2026-04-26T10:13:52Z</time></trkpt><trkpt lat="46.12718168600863" lon="9.282910894782892"><ele>208.8</ele><time>2026-04-26T10:13:54Z</time></trkpt><trkpt lat="46.12714859193942" lon="9.282784731383053"><ele>209.4</ele><time>2026-04-26T10:13:56Z</time></trkpt><trkpt lat="46.127130648472786" lon="9.282633276785583"><ele>210.0</ele><time>2026-04-26T10:13:59Z</time></trkpt><trkpt lat="46.127107348186456" lon="9.282544963989897"><ele>210.0</ele><time>2026-04-26T10:14:00Z</time></trkpt><trkpt lat="46.12706314391896" lon="9.282463299264359"><ele>210.0</ele><time>2026-04-26T10:14:01Z</time></trkpt><trkpt lat="46.126992237577426" lon="9.282373231968242"><ele>210.0</ele><time>2026-04-26T10:14:02Z</time></trkpt><trkpt lat="46.126911849385834" lon="9.282242633900344"><ele>210.0</ele><time>2026-04-26T10:14:03Z</time></trkpt><trkpt lat="46.126811380072766" lon="9.282131436308688"><ele>210.0</ele><time>2026-04-26T10:14:04Z</time></trkpt><trkpt lat="46.12667258484821" lon="9.282035489787868"><ele>209.0</ele><time>2026-04-26T10:14:05Z</time></trkpt><trkpt lat="46.12651129478328" lon="9.281936363047405"><ele>208.0</ele><time>2026-04-26T10:14:06Z</time></trkpt><trkpt lat="46.12636067627388" lon="9.281834326475524"><ele>207.0</ele><time>2026-04-26T10:14:07Z</time></trkpt><trkpt lat="46.12623938485018" lon="9.281751169556909"><ele>207.0</ele><time>2026-04-26T10:14:08Z</time></trkpt><trkpt lat="46.12613696860768" lon="9.281682232508752"><ele>207.0</ele><time>2026-04-26T10:14:09Z</time></trkpt><trkpt lat="46.1260609710339" lon="9.281631825338962"><ele>207.0</ele><time>2026-04-26T10:14:10.001Z</time></trkpt><trkpt lat="46.125981275594235" lon="9.2815719497098"><ele>207.0</ele><time>2026-04-26T10:14:12.001Z</time></trkpt><trkpt lat="46.12590005587714" lon="9.281513638842982"><ele>207.0</ele><time>2026-04-26T10:14:14.001Z</time></trkpt><trkpt lat="46.125818402820464" lon="9.281432892456783"><ele>207.0</ele><time>2026-04-26T10:14:16.001Z</time></trkpt><trkpt lat="46.12574974984667" lon="9.28138598328534"><ele>207.0</ele><time>2026-04-26T10:14:17.001Z</time></trkpt><trkpt lat="46.12567167073008" lon="9.281357293704088"><ele>207.0</ele><time>2026-04-26T10:14:18.001Z</time></trkpt><trkpt lat="46.125593367445354" lon="9.281308085805184"><ele>207.0</ele><time>2026-04-26T10:14:19.001Z</time></trkpt><trkpt lat="46.125510856872545" lon="9.281272337031398"><ele>207.0</ele><time>2026-04-26T10:14:20.001Z</time></trkpt><trkpt lat="46.12541121089669" lon="9.281260950291458"><ele>207.0</ele><time>2026-04-26T10:14:21.001Z</time></trkpt><trkpt lat="46.12530071984382" lon="9.281282647211675"><ele>207.0</ele><time>2026-04-26T10:14:22.001Z</time></trkpt><trkpt lat="46.12519039950777" lon="9.281335455234617"><ele>207.0</ele><time>2026-04-26T10:14:23.001Z</time></trkpt><trkpt lat="46.125100711547695" lon="9.281400186782742"><ele>207.0</ele><time>2026-04-26T10:14:24.001Z</time></trkpt><trkpt lat="46.12500529536707" lon="9.28145927548638"><ele>207.0</ele><time>2026-04-26T10:14:25.001Z</time></trkpt><trkpt lat="46.124881658528395" lon="9.281522287277609"><ele>206.66666666666669</ele><time>2026-04-26T10:14:26.001Z</time></trkpt><trkpt lat="46.124760155897555" lon="9.281596991370193"><ele>206.33333333333334</ele><time>2026-04-26T10:14:27.001Z</time></trkpt><trkpt lat="46.1245915758482" lon="9.281695787094613"><ele>206.0</ele><time>2026-04-26T10:14:28.001Z</time></trkpt><trkpt lat="46.12437564159312" lon="9.281796441925541"><ele>206.0</ele><time>2026-04-26T10:14:29.001Z</time></trkpt><trkpt lat="46.12417170465786" lon="9.281903016495688"><ele>206.0</ele><time>2026-04-26T10:14:30.001Z</time></trkpt><trkpt lat="46.123985467988746" lon="9.281989738700293"><ele>206.0</ele><time>2026-04-26T10:14:31.001Z</time></trkpt><trkpt lat="46.1238223963085" lon="9.282077267101338"><ele>206.25</ele><time>2026-04-26T10:14:32.001Z</time></trkpt><trkpt lat="46.12368799681227" lon="9.28215121669547"><ele>206.5</ele><time>2026-04-26T10:14:33.001Z</time></trkpt><trkpt lat="46.12357802523846" lon="9.282182643158508"><ele>206.75</ele><time>2026-04-26T10:14:34.001Z</time></trkpt><trkpt lat="46.12347401968441" lon="9.282156783300831"><ele>207.0</ele><time>2026-04-26T10:14:35.001Z</time></trkpt><trkpt lat="46.12337759094661" lon="9.282066454584816"><ele>207.0</ele><time>2026-04-26T10:14:36.001Z</time></trkpt><trkpt lat="46.12336775419073" lon="9.281890549793003"><ele>207.0</ele><time>2026-04-26T10:14:37.001Z</time></trkpt><trkpt lat="46.12331102445788" lon="9.281730786500344"><ele>207.0</ele><time>2026-04-26T10:14:38.001Z</time></trkpt><trkpt lat="46.123247994950326" lon="9.281558632938816"><ele>207.0</ele><time>2026-04-26T10:14:39.001Z</time></trkpt><trkpt lat="46.12316802592811" lon="9.281361046273886"><ele>206.0</ele><time>2026-04-26T10:14:40.001Z</time></trkpt><trkpt lat="46.123101513369576" lon="9.28119615178873"><ele>205.0</ele><time>2026-04-26T10:14:41.001Z</time></trkpt><trkpt lat="46.12304213451421" lon="9.281045528855813"><ele>204.0</ele><time>2026-04-26T10:14:42.001Z</time></trkpt><trkpt lat="46.122990202750124" lon="9.28091073599853"><ele>203.0</ele><time>2026-04-26T10:14:43.001Z</time></trkpt><trkpt lat="46.12294558190206" lon="9.280784559569476"><ele>203.00000000000003</ele><time>2026-04-26T10:14:44.001Z</time></trkpt><trkpt lat="46.12290464230272" lon="9.280666596663654"><ele>203.0</ele><time>2026-04-26T10:14:45.001Z</time></trkpt><trkpt lat="46.12286623368836" lon="9.28054776275164"><ele>203.0</ele><time>2026-04-26T10:14:46.001Z</time></trkpt><trkpt lat="46.12282992945926" lon="9.280446117160997"><ele>203.0</ele><time>2026-04-26T10:14:47.001Z</time></trkpt><trkpt lat="46.12278595953654" lon="9.280331027827392"><ele>203.00000000000003</ele><time>2026-04-26T10:14:49.001Z</time></trkpt><trkpt lat="46.12274219941731" lon="9.280219538305074"><ele>203.0</ele><time>2026-04-26T10:14:55.001Z</time></trkpt><trkpt lat="46.12270970924936" lon="9.280134330070522"><ele>202.85714285714286</ele><time>2026-04-26T10:14:57.001Z</time></trkpt><trkpt lat="46.12268128476058" lon="9.28005315150191"><ele>202.71428571428572</ele><time>2026-04-26T10:15:00.001Z</time></trkpt><trkpt lat="46.12264763819056" lon="9.279951649424259"><ele>202.57142857142856</ele><time>2026-04-26T10:15:03.001Z</time></trkpt><trkpt lat="46.122616395978056" lon="9.279863901061209"><ele>202.42857142857144</ele><time>2026-04-26T10:15:06.001Z</time></trkpt><trkpt lat="46.1225714698105" lon="9.279769456493181"><ele>202.28571428571428</ele><time>2026-04-26T10:15:15.001Z</time></trkpt><trkpt lat="46.122549565955886" lon="9.279677584788306"><ele>202.14285714285714</ele><time>2026-04-26T10:15:18.001Z</time></trkpt><trkpt lat="46.12250462656454" lon="9.279570059145973"><ele>202.0</ele><time>2026-04-26T10:15:22.001Z</time></trkpt><trkpt lat="46.12246592330527" lon="9.279487258175452"><ele>202.66666666666666</ele><time>2026-04-26T10:15:26.001Z</time></trkpt><trkpt lat="46.12242060262373" lon="9.279413867579818"><ele>203.33333333333331</ele><time>2026-04-26T10:15:28.001Z</time></trkpt><trkpt lat="46.12235217746726" lon="9.279309608781249"><ele>204.0</ele><time>2026-04-26T10:15:30.001Z</time></trkpt><trkpt lat="46.12227049571401" lon="9.279212064366343"><ele>204.66666666666669</ele><time>2026-04-26T10:15:32.001Z</time></trkpt><trkpt lat="46.122214238309645" lon="9.279161395630764"><ele>205.33333333333334</ele><time>2026-04-26T10:15:33.001Z</time></trkpt><trkpt lat="46.122157072921006" lon="9.279120707121828"><ele>206.0</ele><time>2026-04-26T10:15:34.001Z</time></trkpt><trkpt lat="46.12209153693806" lon="9.279107945969637"><ele>206.20000000000002</ele><time>2026-04-26T10:15:35.001Z</time></trkpt><trkpt lat="46.12203210563478" lon="9.279073635981243"><ele>206.4</ele><time>2026-04-26T10:15:36.001Z</time></trkpt><trkpt lat="46.12193062250947" lon="9.279048477213896"><ele>206.6</ele><time>2026-04-26T10:15:38Z</time></trkpt><trkpt lat="46.121794461306784" lon="9.27905739272801"><ele>206.8</ele><time>2026-04-26T10:15:40Z</time></trkpt><trkpt lat="46.12171718582444" lon="9.27906647177251"><ele>207.0</ele><time>2026-04-26T10:15:41Z</time></trkpt><trkpt lat="46.12163094495618" lon="9.279105874525499"><ele>215.0</ele><time>2026-04-26T10:15:42Z</time></trkpt><trkpt lat="46.12155051716951" lon="9.279151832909722"><ele>223.0</ele><time>2026-04-26T10:15:43Z</time></trkpt><trkpt lat="46.12145011896055" lon="9.279269649167668"><ele>231.0</ele><time>2026-04-26T10:15:44Z</time></trkpt><trkpt lat="46.12134208441931" lon="9.27940600514079"><ele>239.0</ele><time>2026-04-26T10:15:45Z</time></trkpt><trkpt lat="46.121258490200944" lon="9.279533082278476"><ele>239.0</ele><time>2026-04-26T10:15:46Z</time></trkpt><trkpt lat="46.121174228629684" lon="9.279610375050904"><ele>239.0</ele><time>2026-04-26T10:15:47Z</time></trkpt><trkpt lat="46.12107042170885" lon="9.279661417218662"><ele>239.0</ele><time>2026-04-26T10:15:48Z</time></trkpt><trkpt lat="46.12095084028172" lon="9.279656816222923"><ele>239.0</ele><time>2026-04-26T10:15:49Z</time></trkpt><trkpt lat="46.12082952269052" lon="9.279641327853211"><ele>235.79999999999998</ele><time>2026-04-26T10:15:50Z</time></trkpt><trkpt lat="46.12072677706585" lon="9.27967025259283"><ele>232.59999999999997</ele><time>2026-04-26T10:15:51Z</time></trkpt><trkpt lat="46.12062293451846" lon="9.279671228409052"><ele>229.4</ele><time>2026-04-26T10:15:52Z</time></trkpt><trkpt lat="46.12053292876831" lon="9.27969036143724"><ele>226.2</ele><time>2026-04-26T10:15:53Z</time></trkpt><trkpt lat="46.12042593430229" lon="9.27973000664736"><ele>223.0</ele><time>2026-04-26T10:15:54Z</time></trkpt><trkpt lat="46.12031114565524" lon="9.279771495616936"><ele>223.0</ele><time>2026-04-26T10:15:55Z</time></trkpt><trkpt lat="46.120188017022336" lon="9.27981023960127"><ele>223.0</ele><time>2026-04-26T10:15:56Z</time></trkpt><trkpt lat="46.12005874387702" lon="9.279809851504593"><ele>223.0</ele><time>2026-04-26T10:15:57Z</time></trkpt><trkpt lat="46.119943056493476" lon="9.279806832286614"><ele>223.0</ele><time>2026-04-26T10:15:58Z</time></trkpt><trkpt lat="46.119826375588886" lon="9.27984711312083"><ele>228.0</ele><time>2026-04-26T10:15:59Z</time></trkpt><trkpt lat="46.11971870502791" lon="9.27984872351193"><ele>233.0</ele><time>2026-04-26T10:16:00Z</time></trkpt><trkpt lat="46.11960896314719" lon="9.279848354205763"><ele>238.0</ele><time>2026-04-26T10:16:01Z</time></trkpt><trkpt lat="46.11949864728026" lon="9.279870674067492"><ele>243.0</ele><time>2026-04-26T10:16:02Z</time></trkpt><trkpt lat="46.1193841323481" lon="9.27985131268048"><ele>248.0</ele><time>2026-04-26T10:16:03.014Z</time></trkpt><trkpt lat="46.119265322552636" lon="9.279822777547999"><ele>248.0</ele><time>2026-04-26T10:16:04.014Z</time></trkpt><trkpt lat="46.119168361846434" lon="9.279790908540958"><ele>248.0</ele><time>2026-04-26T10:16:05.023Z</time></trkpt><trkpt lat="46.1190814836279" lon="9.279751177523554"><ele>248.0</ele><time>2026-04-26T10:16:06.02Z</time></trkpt><trkpt lat="46.118605897477785" lon="9.279413024013387"><ele>255.4</ele><time>2026-04-26T10:16:10.855Z</time></trkpt><trkpt lat="46.11850488476381" lon="9.279341278417833"><ele>262.8</ele><time>2026-04-26T10:16:11.855Z</time></trkpt><trkpt lat="46.11841735031255" lon="9.279242252901842"><ele>270.2</ele><time>2026-04-26T10:16:12.855Z</time></trkpt><trkpt lat="46.11833452849311" lon="9.279135079818467"><ele>277.6</ele><time>2026-04-26T10:16:13.856Z</time></trkpt><trkpt lat="46.11825605301993" lon="9.279021447001677"><ele>285.0</ele><time>2026-04-26T10:16:14.855Z</time></trkpt><trkpt lat="46.118178288270975" lon="9.27890675151704"><ele>285.2</ele><time>2026-04-26T10:16:15.855Z</time></trkpt><trkpt lat="46.118100322142794" lon="9.2787923217451"><ele>285.4</ele><time>2026-04-26T10:16:16.855Z</time></trkpt><trkpt lat="46.11802234892259" lon="9.27867788156431"><ele>285.6</ele><time>2026-04-26T10:16:17.855Z</time></trkpt><trkpt lat="46.11795626599433" lon="9.278546695621266"><ele>285.8</ele><time>2026-04-26T10:16:18.855Z</time></trkpt><trkpt lat="46.11787820201009" lon="9.278432122225226"><ele>286.0</ele><time>2026-04-26T10:16:19.856Z</time></trkpt><trkpt lat="46.11779957119853" lon="9.278318350735264"><ele>286.0</ele><time>2026-04-26T10:16:20.855Z</time></trkpt><trkpt lat="46.11772030181735" lon="9.278205685072262"><ele>286.0</ele><time>2026-04-26T10:16:21.856Z</time></trkpt><trkpt lat="46.117629435838836" lon="9.27811006361877"><ele>286.0</ele><time>2026-04-26T10:16:22.855Z</time></trkpt><trkpt lat="46.117563252114394" lon="9.27797899597871"><ele>286.0</ele><time>2026-04-26T10:16:23.856Z</time></trkpt><trkpt lat="46.11747356997426" lon="9.277881085339237"><ele>286.0</ele><time>2026-04-26T10:16:24.855Z</time></trkpt><trkpt lat="46.11739576374527" lon="9.277766407686457"><ele>210.0</ele><time>2026-04-26T10:16:25.855Z</time></trkpt><trkpt lat="46.116461449166444" lon="9.27840654018677"><ele>210.0</ele><time>2026-04-26T10:16:27.001Z</time></trkpt><trkpt lat="46.11638037594312" lon="9.278223644510032"><ele>210.0</ele><time>2026-04-26T10:16:28.001Z</time></trkpt><trkpt lat="46.11628243069991" lon="9.278125874236805"><ele>210.0</ele><time>2026-04-26T10:16:29.001Z</time></trkpt><trkpt lat="46.116199405546205" lon="9.278070118700064"><ele>210.0</ele><time>2026-04-26T10:16:30.001Z</time></trkpt><trkpt lat="46.11613535478711" lon="9.27803987139634"><ele>210.0</ele><time>2026-04-26T10:16:31.001Z</time></trkpt><trkpt lat="46.117537720195365" lon="9.278677240309177"><ele>217.0</ele><time>2026-04-26T10:16:32.001Z</time></trkpt><trkpt lat="46.117405190161634" lon="9.278556483867082"><ele>224.0</ele><time>2026-04-26T10:16:34.001Z</time></trkpt><trkpt lat="46.11721663018195" lon="9.278372520582902"><ele>231.0</ele><time>2026-04-26T10:16:35.001Z</time></trkpt><trkpt lat="46.11610216558577" lon="9.278009925046264"><ele>233.0</ele><time>2026-04-26T10:16:37.001Z</time></trkpt><trkpt lat="46.117324590056846" lon="9.278533693653255"><ele>233.0</ele><time>2026-04-26T10:16:48.001Z</time></trkpt><trkpt lat="46.11689951698679" lon="9.278365386182244"><ele>233.0</ele><time>2026-04-26T10:16:51.001Z</time></trkpt><trkpt lat="46.11675893235005" lon="9.278320970899689"><ele>231.0</ele><time>2026-04-26T10:16:52.001Z</time></trkpt><trkpt lat="46.11608731365568" lon="9.277979373589329"><ele>231.0</ele><time>2026-04-26T10:16:53.001Z</time></trkpt><trkpt lat="46.11601567866709" lon="9.27794075504814"><ele>231.00000000000003</ele><time>2026-04-26T10:16:55.001Z</time></trkpt><trkpt lat="46.11589794755557" lon="9.277845920440038"><ele>231.00000000000003</ele><time>2026-04-26T10:17:24.001Z</time></trkpt><trkpt lat="46.115813231494776" lon="9.277791633132319"><ele>231.0</ele><time>2026-04-26T10:17:25.001Z</time></trkpt><trkpt lat="46.115725106893365" lon="9.27775532912664"><ele>231.0</ele><time>2026-04-26T10:17:26.001Z</time></trkpt><trkpt lat="46.11563794271212" lon="9.277750795789032"><ele>227.83333333333334</ele><time>2026-04-26T10:17:27.001Z</time></trkpt><trkpt lat="46.115541584383514" lon="9.277757460101453"><ele>224.66666666666669</ele><time>2026-04-26T10:17:28.001Z</time></trkpt><trkpt lat="46.11544553955546" lon="9.277762762478837"><ele>221.5</ele><time>2026-04-26T10:17:29.001Z</time></trkpt><trkpt lat="46.11535464298411" lon="9.277761297616113"><ele>218.33333333333334</ele><time>2026-04-26T10:17:30.001Z</time></trkpt><trkpt lat="46.11528142821808" lon="9.277721729846325"><ele>215.16666666666669</ele><time>2026-04-26T10:17:31.001Z</time></trkpt><trkpt lat="46.115212693925905" lon="9.277654585156617"><ele>212.0</ele><time>2026-04-26T10:17:32.001Z</time></trkpt><trkpt lat="46.115135886112064" lon="9.277587370556882"><ele>212.0</ele><time>2026-04-26T10:17:33.001Z</time></trkpt><trkpt lat="46.115057996727685" lon="9.277487758997832"><ele>212.0</ele><time>2026-04-26T10:17:34.001Z</time></trkpt><trkpt lat="46.11499590379397" lon="9.27739440980522"><ele>212.0</ele><time>2026-04-26T10:17:35.001Z</time></trkpt><trkpt lat="46.11491459903692" lon="9.277348074545177"><ele>212.0</ele><time>2026-04-26T10:17:36.001Z</time></trkpt><trkpt lat="46.1148599053685" lon="9.277242414906302"><ele>212.0</ele><time>2026-04-26T10:17:37.001Z</time></trkpt><trkpt lat="46.114817353470464" lon="9.277122741218095"><ele>212.39999999999998</ele><time>2026-04-26T10:17:38.001Z</time></trkpt><trkpt lat="46.11477625130899" lon="9.276994325221562"><ele>212.79999999999998</ele><time>2026-04-26T10:17:39.001Z</time></trkpt><trkpt lat="46.114710168605065" lon="9.276892130490719"><ele>213.2</ele><time>2026-04-26T10:17:40.001Z</time></trkpt><trkpt lat="46.114628726316525" lon="9.2767862154829"><ele>213.6</ele><time>2026-04-26T10:17:41.001Z</time></trkpt><trkpt lat="46.11454836213348" lon="9.27674048455885"><ele>214.0</ele><time>2026-04-26T10:17:42Z</time></trkpt><trkpt lat="46.11445792504998" lon="9.276688062028594"><ele>214.0</ele><time>2026-04-26T10:17:43Z</time></trkpt><trkpt lat="46.114354441913726" lon="9.276679050514087"><ele>213.99999999999997</ele><time>2026-04-26T10:17:44Z</time></trkpt><trkpt lat="46.114233775426634" lon="9.276641840517899"><ele>213.99999999999997</ele><time>2026-04-26T10:17:45Z</time></trkpt><trkpt lat="46.1141480022194" lon="9.27658500485354"><ele>214.0</ele><time>2026-04-26T10:17:46Z</time></trkpt><trkpt lat="46.114060246674256" lon="9.276595230310194"><ele>214.0</ele><time>2026-04-26T10:17:47Z</time></trkpt><trkpt lat="46.11398149030641" lon="9.27662795694567"><ele>213.2</ele><time>2026-04-26T10:17:48Z</time></trkpt><trkpt lat="46.11388876397001" lon="9.276580594562681"><ele>212.39999999999998</ele><time>2026-04-26T10:17:49Z</time></trkpt><trkpt lat="46.11374351958492" lon="9.276552499478239"><ele>211.6</ele><time>2026-04-26T10:17:50Z</time></trkpt><trkpt lat="46.11366189036404" lon="9.276565597972438"><ele>210.8</ele><time>2026-04-26T10:17:51Z</time></trkpt><trkpt lat="46.11356540668198" lon="9.27657487474414"><ele>210.0</ele><time>2026-04-26T10:17:52Z</time></trkpt><trkpt lat="46.113473596754666" lon="9.276589213460285"><ele>210.0</ele><time>2026-04-26T10:17:53Z</time></trkpt><trkpt lat="46.11337532249793" lon="9.276580658663239"><ele>210.0</ele><time>2026-04-26T10:17:54Z</time></trkpt><trkpt lat="46.11324657838215" lon="9.276588580281938"><ele>210.0</ele><time>2026-04-26T10:17:55Z</time></trkpt><trkpt lat="46.11314992600055" lon="9.276591502426443"><ele>210.0</ele><time>2026-04-26T10:17:56Z</time></trkpt><trkpt lat="46.11304268366194" lon="9.2765930671064"><ele>210.0</ele><time>2026-04-26T10:17:57Z</time></trkpt><trkpt lat="46.11293285875476" lon="9.276596895180807"><ele>210.6</ele><time>2026-04-26T10:17:58Z</time></trkpt><trkpt lat="46.112819033474494" lon="9.276592900280919"><ele>211.2</ele><time>2026-04-26T10:17:59Z</time></trkpt><trkpt lat="46.112713114293754" lon="9.276595306212476"><ele>211.8</ele><time>2026-04-26T10:18:00Z</time></trkpt><trkpt lat="46.11260897689582" lon="9.276595633481561"><ele>212.4</ele><time>2026-04-26T10:18:01Z</time></trkpt><trkpt lat="46.112508923660016" lon="9.276576107560581"><ele>213.0</ele><time>2026-04-26T10:18:02Z</time></trkpt><trkpt lat="46.112407957062906" lon="9.276556837069862"><ele>213.25</ele><time>2026-04-26T10:18:03Z</time></trkpt><trkpt lat="46.11229893002381" lon="9.276535684149078"><ele>213.5</ele><time>2026-04-26T10:18:04Z</time></trkpt><trkpt lat="46.11219379127475" lon="9.276508374814883"><ele>213.75</ele><time>2026-04-26T10:18:05Z</time></trkpt><trkpt lat="46.11207861460419" lon="9.276506937844001"><ele>214.0</ele><time>2026-04-26T10:18:06Z</time></trkpt><trkpt lat="46.11195455186465" lon="9.276485329822322"><ele>214.0</ele><time>2026-04-26T10:18:07Z</time></trkpt><trkpt lat="46.11181392593701" lon="9.276487010246305"><ele>214.0</ele><time>2026-04-26T10:18:08Z</time></trkpt><trkpt lat="46.11168685998894" lon="9.276518992124075"><ele>214.0</ele><time>2026-04-26T10:18:09Z</time></trkpt><trkpt lat="46.111557996560094" lon="9.276556868017062"><ele>214.0</ele><time>2026-04-26T10:18:10Z</time></trkpt><trkpt lat="46.11141821086551" lon="9.276608459871484"><ele>215.25</ele><time>2026-04-26T10:18:11Z</time></trkpt><trkpt lat="46.111276342663345" lon="9.276654030183638"><ele>216.5</ele><time>2026-04-26T10:18:12Z</time></trkpt><trkpt lat="46.11113066838091" lon="9.27670265786148"><ele>217.75</ele><time>2026-04-26T10:18:13Z</time></trkpt><trkpt lat="46.110981795806644" lon="9.27674783901682"><ele>219.0</ele><time>2026-04-26T10:18:14Z</time></trkpt><trkpt lat="46.110834425593396" lon="9.276790420232725"><ele>219.66666666666669</ele><time>2026-04-26T10:18:15Z</time></trkpt><trkpt lat="46.11068857413496" lon="9.27685414308009"><ele>220.33333333333334</ele><time>2026-04-26T10:18:16Z</time></trkpt><trkpt lat="46.110543487246055" lon="9.276901997021362"><ele>221.0</ele><time>2026-04-26T10:18:17Z</time></trkpt><trkpt lat="46.1103936278508" lon="9.276947502888255"><ele>221.0</ele><time>2026-04-26T10:18:18Z</time></trkpt><trkpt lat="46.11024814841533" lon="9.276991401701784"><ele>221.0</ele><time>2026-04-26T10:18:19Z</time></trkpt><trkpt lat="46.11010518285166" lon="9.27702730919993"><ele>221.0</ele><time>2026-04-26T10:18:20Z</time></trkpt><trkpt lat="46.10996388724262" lon="9.27706212626028"><ele>221.0</ele><time>2026-04-26T10:18:21Z</time></trkpt><trkpt lat="46.109827284249704" lon="9.277094297644789"><ele>220.5</ele><time>2026-04-26T10:18:22Z</time></trkpt><trkpt lat="46.109686531093686" lon="9.27710005139537"><ele>220.0</ele><time>2026-04-26T10:18:23Z</time></trkpt><trkpt lat="46.10953834138552" lon="9.277109032081782"><ele>219.5</ele><time>2026-04-26T10:18:24.001Z</time></trkpt><trkpt lat="46.109388814549064" lon="9.277105145332635"><ele>219.0</ele><time>2026-04-26T10:18:25.001Z</time></trkpt><trkpt lat="46.10922117750532" lon="9.277084072995473"><ele>218.75</ele><time>2026-04-26T10:18:26.001Z</time></trkpt><trkpt lat="46.10905900313681" lon="9.27704459482459"><ele>218.5</ele><time>2026-04-26T10:18:27.001Z</time></trkpt><trkpt lat="46.10893070890805" lon="9.277018931945396"><ele>218.25</ele><time>2026-04-26T10:18:28.001Z</time></trkpt><trkpt lat="46.108781366191934" lon="9.277006407816517"><ele>218.0</ele><time>2026-04-26T10:18:29.001Z</time></trkpt><trkpt lat="46.10863283111282" lon="9.276986950467203"><ele>218.0</ele><time>2026-04-26T10:18:30.001Z</time></trkpt><trkpt lat="46.10847974648343" lon="9.27695496055566"><ele>218.0</ele><time>2026-04-26T10:18:31.001Z</time></trkpt><trkpt lat="46.10833874242246" lon="9.276914415493856"><ele>218.0</ele><time>2026-04-26T10:18:32.001Z</time></trkpt><trkpt lat="46.108189529783466" lon="9.276878015925393"><ele>217.25</ele><time>2026-04-26T10:18:33.001Z</time></trkpt><trkpt lat="46.10805203468412" lon="9.276829781355044"><ele>216.5</ele><time>2026-04-26T10:18:34.001Z</time></trkpt><trkpt lat="46.10791385876449" lon="9.276776698224111"><ele>215.75</ele><time>2026-04-26T10:18:35.001Z</time></trkpt><trkpt lat="46.10777016025587" lon="9.276750483355082"><ele>215.0</ele><time>2026-04-26T10:18:36.001Z</time></trkpt><trkpt lat="46.107628495080675" lon="9.276712662216875"><ele>215.0</ele><time>2026-04-26T10:18:37.001Z</time></trkpt><trkpt lat="46.10748357637594" lon="9.276652089662734"><ele>215.0</ele><time>2026-04-26T10:18:38.001Z</time></trkpt><trkpt lat="46.107337581895706" lon="9.276600939550805"><ele>215.0</ele><time>2026-04-26T10:18:39.001Z</time></trkpt><trkpt lat="46.10720037681434" lon="9.276545073916667"><ele>215.0</ele><time>2026-04-26T10:18:40.001Z</time></trkpt><trkpt lat="46.10705989295894" lon="9.276495922725298"><ele>215.25</ele><time>2026-04-26T10:18:41.001Z</time></trkpt><trkpt lat="46.10692930112046" lon="9.276442283983489"><ele>215.5</ele><time>2026-04-26T10:18:42.001Z</time></trkpt><trkpt lat="46.10680095163303" lon="9.276398313457385"><ele>215.75</ele><time>2026-04-26T10:18:43.001Z</time></trkpt><trkpt lat="46.106675941717945" lon="9.276364136123021"><ele>216.0</ele><time>2026-04-26T10:18:44.001Z</time></trkpt><trkpt lat="46.10655899824463" lon="9.276336774080022"><ele>216.5</ele><time>2026-04-26T10:18:45.001Z</time></trkpt><trkpt lat="46.10643655158518" lon="9.276334080661501"><ele>217.0</ele><time>2026-04-26T10:18:46.001Z</time></trkpt><trkpt lat="46.10631735542961" lon="9.276346299024038"><ele>217.5</ele><time>2026-04-26T10:18:47.001Z</time></trkpt><trkpt lat="46.10619978775688" lon="9.276391282904406"><ele>218.0</ele><time>2026-04-26T10:18:48.001Z</time></trkpt><trkpt lat="46.10608057497756" lon="9.276485307457271"><ele>218.0</ele><time>2026-04-26T10:18:49.001Z</time></trkpt><trkpt lat="46.105965506512085" lon="9.276605338911033"><ele>218.0</ele><time>2026-04-26T10:18:50.001Z</time></trkpt><trkpt lat="46.1058488898471" lon="9.276713044703161"><ele>218.0</ele><time>2026-04-26T10:18:51.001Z</time></trkpt><trkpt lat="46.10571965933613" lon="9.276813988340216"><ele>218.0</ele><time>2026-04-26T10:18:52.001Z</time></trkpt><trkpt lat="46.10559322205631" lon="9.276912946358541"><ele>216.75</ele><time>2026-04-26T10:18:53.001Z</time></trkpt><trkpt lat="46.10546713575887" lon="9.277015936588608"><ele>215.5</ele><time>2026-04-26T10:18:54.001Z</time></trkpt><trkpt lat="46.1053334278611" lon="9.277110739306911"><ele>214.25</ele><time>2026-04-26T10:18:55.001Z</time></trkpt><trkpt lat="46.105193464794944" lon="9.277195684486237"><ele>213.0</ele><time>2026-04-26T10:18:56.001Z</time></trkpt><trkpt lat="46.10505928662492" lon="9.27727862293242"><ele>213.66666666666669</ele><time>2026-04-26T10:18:57.001Z</time></trkpt><trkpt lat="46.10490839995871" lon="9.277355433972295"><ele>214.33333333333334</ele><time>2026-04-26T10:18:58.001Z</time></trkpt><trkpt lat="46.104763601686166" lon="9.277427974866143"><ele>215.0</ele><time>2026-04-26T10:18:59.001Z</time></trkpt><trkpt lat="46.104612148466714" lon="9.277490217858107"><ele>215.0</ele><time>2026-04-26T10:19:00.001Z</time></trkpt><trkpt lat="46.10445917421456" lon="9.277539671817399"><ele>215.0</ele><time>2026-04-26T10:19:01.001Z</time></trkpt><trkpt lat="46.10431397211819" lon="9.277573703660487"><ele>215.0</ele><time>2026-04-26T10:19:02.001Z</time></trkpt><trkpt lat="46.10417502802004" lon="9.27757947658085"><ele>215.0</ele><time>2026-04-26T10:19:03.001Z</time></trkpt><trkpt lat="46.10404856574819" lon="9.277554543516441"><ele>213.75</ele><time>2026-04-26T10:19:04.001Z</time></trkpt><trkpt lat="46.10393418941736" lon="9.277494256718716"><ele>212.5</ele><time>2026-04-26T10:19:05.001Z</time></trkpt><trkpt lat="46.10382683800595" lon="9.277395912954058"><ele>211.25</ele><time>2026-04-26T10:19:06.001Z</time></trkpt><trkpt lat="46.10370577776907" lon="9.277283936718101"><ele>210.0</ele><time>2026-04-26T10:19:07.001Z</time></trkpt><trkpt lat="46.10358159247779" lon="9.27717097881144"><ele>212.0</ele><time>2026-04-26T10:19:08.001Z</time></trkpt><trkpt lat="46.10346393640315" lon="9.277059349894728"><ele>214.0</ele><time>2026-04-26T10:19:09.001Z</time></trkpt><trkpt lat="46.10333676134806" lon="9.276943329843562"><ele>216.0</ele><time>2026-04-26T10:19:10.001Z</time></trkpt><trkpt lat="46.103210279513675" lon="9.276854685574037"><ele>218.0</ele><time>2026-04-26T10:19:11.001Z</time></trkpt><trkpt lat="46.10307556330992" lon="9.276810218455786"><ele>218.0</ele><time>2026-04-26T10:19:12.001Z</time></trkpt><trkpt lat="46.10293922021532" lon="9.27676665095267"><ele>218.0</ele><time>2026-04-26T10:19:13.001Z</time></trkpt><trkpt lat="46.102801405410325" lon="9.276753841722275"><ele>218.0</ele><time>2026-04-26T10:19:14.001Z</time></trkpt><trkpt lat="46.102668438022164" lon="9.27676450180671"><ele>218.0</ele><time>2026-04-26T10:19:15.001Z</time></trkpt><trkpt lat="46.10255076742147" lon="9.276765326192686"><ele>218.0</ele><time>2026-04-26T10:19:16.001Z</time></trkpt><trkpt lat="46.1024450053343" lon="9.276744800581001"><ele>218.0</ele><time>2026-04-26T10:19:17.001Z</time></trkpt><trkpt lat="46.10233647604247" lon="9.276746182787328"><ele>218.0</ele><time>2026-04-26T10:19:18.001Z</time></trkpt><trkpt lat="46.10222254530069" lon="9.276740494041295"><ele>218.0</ele><time>2026-04-26T10:19:19.001Z</time></trkpt><trkpt lat="46.10210146887862" lon="9.27672635749337"><ele>217.2</ele><time>2026-04-26T10:19:20.001Z</time></trkpt><trkpt lat="46.10198665279265" lon="9.276697819799997"><ele>216.4</ele><time>2026-04-26T10:19:21.001Z</time></trkpt><trkpt lat="46.101858479997894" lon="9.276640375210317"><ele>215.59999999999997</ele><time>2026-04-26T10:19:22.001Z</time></trkpt><trkpt lat="46.10178052034522" lon="9.276585812749586"><ele>214.79999999999998</ele><time>2026-04-26T10:19:23.001Z</time></trkpt><trkpt lat="46.10169078608545" lon="9.27650829485239"><ele>214.0</ele><time>2026-04-26T10:19:24.001Z</time></trkpt><trkpt lat="46.10158461333126" lon="9.276412233451243"><ele>214.75</ele><time>2026-04-26T10:19:25.001Z</time></trkpt><trkpt lat="46.10147939867031" lon="9.276309237017168"><ele>215.5</ele><time>2026-04-26T10:19:26.001Z</time></trkpt><trkpt lat="46.101382221169224" lon="9.276207387719369"><ele>216.25</ele><time>2026-04-26T10:19:27.001Z</time></trkpt><trkpt lat="46.10127978056932" lon="9.276096643453377"><ele>217.0</ele><time>2026-04-26T10:19:28.001Z</time></trkpt><trkpt lat="46.101174794288575" lon="9.275997459509023"><ele>217.0</ele><time>2026-04-26T10:19:29.001Z</time></trkpt><trkpt lat="46.10106110875439" lon="9.275908816160117"><ele>217.0</ele><time>2026-04-26T10:19:30.001Z</time></trkpt><trkpt lat="46.10093591110422" lon="9.275865488687236"><ele>217.0</ele><time>2026-04-26T10:19:31.001Z</time></trkpt><trkpt lat="46.10081349509201" lon="9.275829495131525"><ele>217.0</ele><time>2026-04-26T10:19:32.001Z</time></trkpt><trkpt lat="46.100682529213174" lon="9.275821344573165"><ele>216.75</ele><time>2026-04-26T10:19:33.001Z</time></trkpt><trkpt lat="46.10054651312877" lon="9.275820141058821"><ele>216.5</ele><time>2026-04-26T10:19:34.001Z</time></trkpt><trkpt lat="46.1004090127551" lon="9.275814931181438"><ele>216.25</ele><time>2026-04-26T10:19:35.001Z</time></trkpt><trkpt lat="46.10027257070413" lon="9.275810620420891"><ele>216.0</ele><time>2026-04-26T10:19:36.001Z</time></trkpt><trkpt lat="46.10013858699569" lon="9.275808198511427"><ele>216.0</ele><time>2026-04-26T10:19:37.001Z</time></trkpt><trkpt lat="46.10000251591867" lon="9.27578232029424"><ele>216.0</ele><time>2026-04-26T10:19:38.001Z</time></trkpt><trkpt lat="46.09986915084009" lon="9.275821523673535"><ele>216.0</ele><time>2026-04-26T10:19:39Z</time></trkpt><trkpt lat="46.09973232890341" lon="9.275866871424292"><ele>216.0</ele><time>2026-04-26T10:19:40Z</time></trkpt><trkpt lat="46.099595762524835" lon="9.275935485159998"><ele>218.33333333333331</ele><time>2026-04-26T10:19:41Z</time></trkpt><trkpt lat="46.09943559961382" lon="9.275996927351514"><ele>220.66666666666666</ele><time>2026-04-26T10:19:42Z</time></trkpt><trkpt lat="46.099298746397544" lon="9.276066065497728"><ele>223.0</ele><time>2026-04-26T10:19:43Z</time></trkpt><trkpt lat="46.09916361987323" lon="9.276149007504154"><ele>223.0</ele><time>2026-04-26T10:19:44Z</time></trkpt><trkpt lat="46.099030541135285" lon="9.276209983397802"><ele>223.0</ele><time>2026-04-26T10:19:45Z</time></trkpt><trkpt lat="46.09889531408965" lon="9.276274845812065"><ele>223.0</ele><time>2026-04-26T10:19:46Z</time></trkpt><trkpt lat="46.098784969755876" lon="9.276376025713061"><ele>223.0</ele><time>2026-04-26T10:19:47Z</time></trkpt><trkpt lat="46.09867850308076" lon="9.27649530839198"><ele>223.0</ele><time>2026-04-26T10:19:48Z</time></trkpt><trkpt lat="46.09860102620877" lon="9.27663559323139"><ele>223.0</ele><time>2026-04-26T10:19:49Z</time></trkpt><trkpt lat="46.09852847484967" lon="9.276799268358637"><ele>223.0</ele><time>2026-04-26T10:19:50Z</time></trkpt><trkpt lat="46.09843058409355" lon="9.276945506133988"><ele>223.0</ele><time>2026-04-26T10:19:51Z</time></trkpt><trkpt lat="46.09834269236023" lon="9.277097720612048"><ele>223.0</ele><time>2026-04-26T10:19:52Z</time></trkpt><trkpt lat="46.09825241338882" lon="9.2772540693969"><ele>223.0</ele><time>2026-04-26T10:19:53Z</time></trkpt><trkpt lat="46.09816146540662" lon="9.27741157679194"><ele>223.0</ele><time>2026-04-26T10:19:54Z</time></trkpt><trkpt lat="46.098079670718406" lon="9.277553232139201"><ele>223.0</ele><time>2026-04-26T10:19:55Z</time></trkpt><trkpt lat="46.09800989873881" lon="9.277677395716601"><ele>225.2</ele><time>2026-04-26T10:19:56Z</time></trkpt><trkpt lat="46.097940154521545" lon="9.277802659158237"><ele>227.4</ele><time>2026-04-26T10:19:57Z</time></trkpt><trkpt lat="46.09785623914783" lon="9.277953392520434"><ele>229.59999999999997</ele><time>2026-04-26T10:19:58Z</time></trkpt><trkpt lat="46.09776529753999" lon="9.278026678296799"><ele>231.79999999999998</ele><time>2026-04-26T10:19:59Z</time></trkpt><trkpt lat="46.09767182367521" lon="9.278073417441728"><ele>234.0</ele><time>2026-04-26T10:20:00Z</time></trkpt><trkpt lat="46.09756684178439" lon="9.278054659383267"><ele>234.0</ele><time>2026-04-26T10:20:01Z</time></trkpt><trkpt lat="46.097455009406794" lon="9.27806377912293"><ele>233.99999999999997</ele><time>2026-04-26T10:20:02Z</time></trkpt><trkpt lat="46.09734707933361" lon="9.278098780767593"><ele>233.99999999999997</ele><time>2026-04-26T10:20:03Z</time></trkpt><trkpt lat="46.09724763268313" lon="9.27816491074955"><ele>234.0</ele><time>2026-04-26T10:20:04Z</time></trkpt><trkpt lat="46.09715458807103" lon="9.278241059977564"><ele>234.0</ele><time>2026-04-26T10:20:05Z</time></trkpt><trkpt lat="46.09704583864876" lon="9.278384719241956"><ele>232.75</ele><time>2026-04-26T10:20:06Z</time></trkpt><trkpt lat="46.09694034263198" lon="9.278511795948004"><ele>231.5</ele><time>2026-04-26T10:20:07Z</time></trkpt><trkpt lat="46.09682757962935" lon="9.278602386171112"><ele>230.25</ele><time>2026-04-26T10:20:08Z</time></trkpt><trkpt lat="46.096718144739356" lon="9.278675782609373"><ele>229.0</ele><time>2026-04-26T10:20:09Z</time></trkpt><trkpt lat="46.09660877089825" lon="9.278704521881414"><ele>227.79999999999998</ele><time>2026-04-26T10:20:10Z</time></trkpt><trkpt lat="46.096506175423" lon="9.278680839609288"><ele>226.59999999999997</ele><time>2026-04-26T10:20:11Z</time></trkpt><trkpt lat="46.09639465690119" lon="9.27864254526696"><ele>225.4</ele><time>2026-04-26T10:20:12Z</time></trkpt><trkpt lat="46.09630617197098" lon="9.278573251222069"><ele>224.2</ele><time>2026-04-26T10:20:13Z</time></trkpt><trkpt lat="46.096203969431585" lon="9.278488554865918"><ele>223.0</ele><time>2026-04-26T10:20:14Z</time></trkpt><trkpt lat="46.096103134309686" lon="9.278399017459108"><ele>223.0</ele><time>2026-04-26T10:20:15Z</time></trkpt><trkpt lat="46.09599436338381" lon="9.278302209904458"><ele>223.0</ele><time>2026-04-26T10:20:16Z</time></trkpt><trkpt lat="46.095884923457376" lon="9.278193490387062"><ele>223.0</ele><time>2026-04-26T10:20:17Z</time></trkpt><trkpt lat="46.09576273803212" lon="9.278136660429139"><ele>223.0</ele><time>2026-04-26T10:20:18Z</time></trkpt><trkpt lat="46.09566330572505" lon="9.278090656072235"><ele>227.60000000000002</ele><time>2026-04-26T10:20:19Z</time></trkpt><trkpt lat="46.09557812000438" lon="9.278092426784923"><ele>232.20000000000002</ele><time>2026-04-26T10:20:20Z</time></trkpt><trkpt lat="46.09549712389634" lon="9.278150724734376"><ele>236.8</ele><time>2026-04-26T10:20:21Z</time></trkpt><trkpt lat="46.09543539358745" lon="9.27826278163905"><ele>241.4</ele><time>2026-04-26T10:20:22Z</time></trkpt><trkpt lat="46.09537627021827" lon="9.278398905012532"><ele>246.0</ele><time>2026-04-26T10:20:23Z</time></trkpt><trkpt lat="46.095311088050224" lon="9.278533614827126"><ele>246.0</ele><time>2026-04-26T10:20:24Z</time></trkpt><trkpt lat="46.095251127196455" lon="9.278685584954355"><ele>246.0</ele><time>2026-04-26T10:20:25Z</time></trkpt><trkpt lat="46.09523430975936" lon="9.278868782889827"><ele>246.0</ele><time>2026-04-26T10:20:26Z</time></trkpt><trkpt lat="46.09524121820246" lon="9.279065470947286"><ele>246.0</ele><time>2026-04-26T10:20:27Z</time></trkpt><trkpt lat="46.095203963816175" lon="9.279229637284939"><ele>243.0</ele><time>2026-04-26T10:20:28Z</time></trkpt><trkpt lat="46.09512917982704" lon="9.279319882966977"><ele>240.00000000000003</ele><time>2026-04-26T10:20:29Z</time></trkpt><trkpt lat="46.09505174474717" lon="9.27943332816505"><ele>237.00000000000003</ele><time>2026-04-26T10:20:30Z</time></trkpt><trkpt lat="46.09495643005425" lon="9.279511886934392"><ele>234.0</ele><time>2026-04-26T10:20:31Z</time></trkpt><trkpt lat="46.094858842856105" lon="9.279588305550028"><ele>231.0</ele><time>2026-04-26T10:20:32Z</time></trkpt><trkpt lat="46.09475273603397" lon="9.279646546262093"><ele>231.0</ele><time>2026-04-26T10:20:33Z</time></trkpt><trkpt lat="46.094632123174506" lon="9.279675051161002"><ele>231.00000000000003</ele><time>2026-04-26T10:20:34Z</time></trkpt><trkpt lat="46.09451843748268" lon="9.279722631468037"><ele>231.00000000000003</ele><time>2026-04-26T10:20:35Z</time></trkpt><trkpt lat="46.09441830343934" lon="9.279675156565155"><ele>231.0</ele><time>2026-04-26T10:20:36Z</time></trkpt><trkpt lat="46.0943296807202" lon="9.27960078676256"><ele>231.0</ele><time>2026-04-26T10:20:37Z</time></trkpt><trkpt lat="46.09424447546551" lon="9.279494415940054"><ele>231.0</ele><time>2026-04-26T10:20:38Z</time></trkpt><trkpt lat="46.09413830304278" lon="9.279442673154158"><ele>231.0</ele><time>2026-04-26T10:20:39Z</time></trkpt><trkpt lat="46.09403399888821" lon="9.279422267282861"><ele>231.0</ele><time>2026-04-26T10:20:40Z</time></trkpt><trkpt lat="46.09392574403659" lon="9.27947241053908"><ele>231.0</ele><time>2026-04-26T10:20:41Z</time></trkpt><trkpt lat="46.093814256115245" lon="9.279550537698839"><ele>231.20000000000002</ele><time>2026-04-26T10:20:42Z</time></trkpt><trkpt lat="46.0936985990224" lon="9.279622787232817"><ele>231.40000000000003</ele><time>2026-04-26T10:20:43Z</time></trkpt><trkpt lat="46.09359162408764" lon="9.279659138094905"><ele>231.6</ele><time>2026-04-26T10:20:44Z</time></trkpt><trkpt lat="46.09348831215926" lon="9.279638930874919"><ele>231.8</ele><time>2026-04-26T10:20:45Z</time></trkpt><trkpt lat="46.09340330374028" lon="9.279581963334907"><ele>232.0</ele><time>2026-04-26T10:20:46Z</time></trkpt><trkpt lat="46.09330430241576" lon="9.279524048368355"><ele>229.25</ele><time>2026-04-26T10:20:47Z</time></trkpt><trkpt lat="46.093193185988994" lon="9.27948606192827"><ele>226.5</ele><time>2026-04-26T10:20:48Z</time></trkpt><trkpt lat="46.093090871779516" lon="9.279398228815749"><ele>223.75</ele><time>2026-04-26T10:20:49Z</time></trkpt><trkpt lat="46.092986028847385" lon="9.279344618104714"><ele>221.0</ele><time>2026-04-26T10:20:50Z</time></trkpt><trkpt lat="46.09289774177006" lon="9.27926037671006"><ele>221.0</ele><time>2026-04-26T10:20:51Z</time></trkpt><trkpt lat="46.09280267619037" lon="9.279172775332473"><ele>221.0</ele><time>2026-04-26T10:20:52Z</time></trkpt><trkpt lat="46.092708933486016" lon="9.279080011492681"><ele>221.0</ele><time>2026-04-26T10:20:53Z</time></trkpt><trkpt lat="46.09259180833596" lon="9.279018006466725"><ele>221.0</ele><time>2026-04-26T10:20:54Z</time></trkpt><trkpt lat="46.09247796632069" lon="9.278960762980097"><ele>220.60000000000002</ele><time>2026-04-26T10:20:55.001Z</time></trkpt><trkpt lat="46.092364211449905" lon="9.278932603252347"><ele>220.20000000000002</ele><time>2026-04-26T10:20:56.001Z</time></trkpt><trkpt lat="46.09226161290981" lon="9.278939290995405"><ele>219.79999999999998</ele><time>2026-04-26T10:20:57.001Z</time></trkpt><trkpt lat="46.0921703019509" lon="9.278970185793"><ele>219.39999999999998</ele><time>2026-04-26T10:20:58.001Z</time></trkpt><trkpt lat="46.092102170259416" lon="9.278986498433653"><ele>219.0</ele><time>2026-04-26T10:20:59.001Z</time></trkpt><trkpt lat="46.09200731789542" lon="9.278943889202097"><ele>221.79999999999998</ele><time>2026-04-26T10:21:01.001Z</time></trkpt><trkpt lat="46.091923569349845" lon="9.278904900576888"><ele>224.59999999999997</ele><time>2026-04-26T10:21:03.001Z</time></trkpt><trkpt lat="46.09185223602111" lon="9.278884078371192"><ele>227.4</ele><time>2026-04-26T10:21:05.001Z</time></trkpt><trkpt lat="46.091772253517874" lon="9.278855936521355"><ele>230.2</ele><time>2026-04-26T10:21:08.001Z</time></trkpt><trkpt lat="46.09169697837858" lon="9.27883421769166"><ele>233.0</ele><time>2026-04-26T10:25:21Z</time></trkpt><trkpt lat="46.09156364154144" lon="9.278807468729116"><ele>233.0</ele><time>2026-04-26T10:25:23Z</time></trkpt><trkpt lat="46.09148460603783" lon="9.278825708637639"><ele>233.0</ele><time>2026-04-26T10:25:24Z</time></trkpt><trkpt lat="46.09139027224503" lon="9.278865279747485"><ele>233.0</ele><time>2026-04-26T10:25:25Z</time></trkpt><trkpt lat="46.09129376204988" lon="9.27890022525523"><ele>233.0</ele><time>2026-04-26T10:25:26Z</time></trkpt><trkpt lat="46.09118906139265" lon="9.27891351196566"><ele>233.0</ele><time>2026-04-26T10:25:27Z</time></trkpt><trkpt lat="46.09108582286759" lon="9.278929205960655"><ele>229.4</ele><time>2026-04-26T10:25:28Z</time></trkpt><trkpt lat="46.09097753780772" lon="9.278969182021976"><ele>225.8</ele><time>2026-04-26T10:25:29.001Z</time></trkpt><trkpt lat="46.09087484862857" lon="9.279000876863877"><ele>222.2</ele><time>2026-04-26T10:25:30.001Z</time></trkpt><trkpt lat="46.09077859603483" lon="9.279038617752736"><ele>218.6</ele><time>2026-04-26T10:25:31.001Z</time></trkpt><trkpt lat="46.09069803627812" lon="9.279048824356071"><ele>215.0</ele><time>2026-04-26T10:25:32.001Z</time></trkpt><trkpt lat="46.0906197805201" lon="9.27905845647113"><ele>215.0</ele><time>2026-04-26T10:25:33.001Z</time></trkpt><trkpt lat="46.09054078771741" lon="9.27905196498959"><ele>215.0</ele><time>2026-04-26T10:25:34.001Z</time></trkpt><trkpt lat="46.090454965448615" lon="9.279031288001502"><ele>215.0</ele><time>2026-04-26T10:25:35.001Z</time></trkpt><trkpt lat="46.09035349798274" lon="9.278992613930836"><ele>215.0</ele><time>2026-04-26T10:25:36.001Z</time></trkpt><trkpt lat="46.09024783440796" lon="9.278936826655148"><ele>215.0</ele><time>2026-04-26T10:25:37.001Z</time></trkpt><trkpt lat="46.09014532232023" lon="9.278889880961954"><ele>215.2</ele><time>2026-04-26T10:25:38.001Z</time></trkpt><trkpt lat="46.09005334017687" lon="9.278810762815528"><ele>215.4</ele><time>2026-04-26T10:25:39.001Z</time></trkpt><trkpt lat="46.08994715886666" lon="9.278777240439158"><ele>215.60000000000002</ele><time>2026-04-26T10:25:40.001Z</time></trkpt><trkpt lat="46.089849132068736" lon="9.278714919199741"><ele>215.8</ele><time>2026-04-26T10:25:41.001Z</time></trkpt><trkpt lat="46.08974709631413" lon="9.27865907921028"><ele>216.0</ele><time>2026-04-26T10:25:42.001Z</time></trkpt><trkpt lat="46.08964010242253" lon="9.278605530715115"><ele>216.0</ele><time>2026-04-26T10:25:43.001Z</time></trkpt><trkpt lat="46.089532704697675" lon="9.278562591473724"><ele>216.0</ele><time>2026-04-26T10:25:44.001Z</time></trkpt><trkpt lat="46.08942940397434" lon="9.278521654356304"><ele>216.0</ele><time>2026-04-26T10:25:45.001Z</time></trkpt><trkpt lat="46.08931589550448" lon="9.278488552376796"><ele>216.0</ele><time>2026-04-26T10:25:46.001Z</time></trkpt><trkpt lat="46.08920582918572" lon="9.278427836749897"><ele>215.75</ele><time>2026-04-26T10:25:47.001Z</time></trkpt><trkpt lat="46.089091857198795" lon="9.278348872204969"><ele>215.5</ele><time>2026-04-26T10:25:48.001Z</time></trkpt><trkpt lat="46.08900208632763" lon="9.278229586696796"><ele>215.25</ele><time>2026-04-26T10:25:49.001Z</time></trkpt><trkpt lat="46.08890031824977" lon="9.278111798605634"><ele>215.0</ele><time>2026-04-26T10:25:50.001Z</time></trkpt><trkpt lat="46.088802921469636" lon="9.277978280795104"><ele>215.0</ele><time>2026-04-26T10:25:51.001Z</time></trkpt><trkpt lat="46.088703394607364" lon="9.277853578148628"><ele>215.0</ele><time>2026-04-26T10:25:52.001Z</time></trkpt><trkpt lat="46.08860293495314" lon="9.277803012959781"><ele>215.0</ele><time>2026-04-26T10:25:53.001Z</time></trkpt><trkpt lat="46.08854570480431" lon="9.277719302034498"><ele>215.0</ele><time>2026-04-26T10:25:54.001Z</time></trkpt><trkpt lat="46.08850149943236" lon="9.277631029481503"><ele>215.0</ele><time>2026-04-26T10:25:55.001Z</time></trkpt><trkpt lat="46.088437271532634" lon="9.277551640478475"><ele>215.0</ele><time>2026-04-26T10:25:56.001Z</time></trkpt><trkpt lat="46.088373494223106" lon="9.277466362212053"><ele>215.0</ele><time>2026-04-26T10:25:57Z</time></trkpt><trkpt lat="46.08830470095825" lon="9.277399897160521"><ele>215.0</ele><time>2026-04-26T10:25:58Z</time></trkpt><trkpt lat="46.08821689278299" lon="9.277349973017769"><ele>215.0</ele><time>2026-04-26T10:25:59Z</time></trkpt><trkpt lat="46.08813203750349" lon="9.277321095603128"><ele>215.0</ele><time>2026-04-26T10:26:00Z</time></trkpt><trkpt lat="46.088029674046375" lon="9.277309521109665"><ele>214.0</ele><time>2026-04-26T10:26:01Z</time></trkpt><trkpt lat="46.08790679456119" lon="9.277305074440543"><ele>213.0</ele><time>2026-04-26T10:26:02Z</time></trkpt><trkpt lat="46.08778109171297" lon="9.277238041926008"><ele>212.0</ele><time>2026-04-26T10:26:03Z</time></trkpt><trkpt lat="46.08764435962561" lon="9.277206152600478"><ele>211.0</ele><time>2026-04-26T10:26:04Z</time></trkpt><trkpt lat="46.08750007349816" lon="9.277171924455532"><ele>219.0</ele><time>2026-04-26T10:26:05Z</time></trkpt><trkpt lat="46.08735007325156" lon="9.2771363407894"><ele>227.0</ele><time>2026-04-26T10:26:06Z</time></trkpt><trkpt lat="46.08717764518076" lon="9.27709543669716"><ele>235.0</ele><time>2026-04-26T10:26:07Z</time></trkpt><trkpt lat="46.087006230327226" lon="9.277054772966219"><ele>235.0</ele><time>2026-04-26T10:26:08Z</time></trkpt><trkpt lat="46.086846195000355" lon="9.277025588236983"><ele>235.0</ele><time>2026-04-26T10:26:09Z</time></trkpt><trkpt lat="46.086688419002996" lon="9.277002560098918"><ele>235.0</ele><time>2026-04-26T10:26:10Z</time></trkpt><trkpt lat="46.08653102696144" lon="9.277015692325708"><ele>231.0</ele><time>2026-04-26T10:26:11Z</time></trkpt><trkpt lat="46.08638050025796" lon="9.277089650220404"><ele>227.0</ele><time>2026-04-26T10:26:12Z</time></trkpt><trkpt lat="46.08622745523884" lon="9.27720011795878"><ele>223.0</ele><time>2026-04-26T10:26:13Z</time></trkpt><trkpt lat="46.08606701778919" lon="9.2773230990441"><ele>223.0</ele><time>2026-04-26T10:26:14Z</time></trkpt><trkpt lat="46.08591404599047" lon="9.277428619238403"><ele>223.0</ele><time>2026-04-26T10:26:15Z</time></trkpt><trkpt lat="46.08576623742963" lon="9.277519466599184"><ele>223.0</ele><time>2026-04-26T10:26:16Z</time></trkpt><trkpt lat="46.08563178758192" lon="9.277590072638423"><ele>226.0</ele><time>2026-04-26T10:26:17Z</time></trkpt><trkpt lat="46.08551494370132" lon="9.277650379087689"><ele>229.0</ele><time>2026-04-26T10:26:18Z</time></trkpt><trkpt lat="46.08540830730867" lon="9.27769802448242"><ele>232.0</ele><time>2026-04-26T10:26:19Z</time></trkpt><trkpt lat="46.08528733897542" lon="9.27771119157315"><ele>235.0</ele><time>2026-04-26T10:26:20Z</time></trkpt><trkpt lat="46.08514394627292" lon="9.277745297587165"><ele>235.0</ele><time>2026-04-26T10:26:21Z</time></trkpt><trkpt lat="46.085008521994006" lon="9.277780119127492"><ele>235.0</ele><time>2026-04-26T10:26:22Z</time></trkpt><trkpt lat="46.084891607034564" lon="9.277807853389492"><ele>235.0</ele><time>2026-04-26T10:26:23Z</time></trkpt><trkpt lat="46.08477627668339" lon="9.277831546818994"><ele>235.0</ele><time>2026-04-26T10:26:24Z</time></trkpt><trkpt lat="46.08463980120868" lon="9.277850387563165"><ele>232.5</ele><time>2026-04-26T10:26:25Z</time></trkpt><trkpt lat="46.084496150906894" lon="9.277846125783906"><ele>230.0</ele><time>2026-04-26T10:26:26Z</time></trkpt><trkpt lat="46.08433764677968" lon="9.277804643416712"><ele>227.5</ele><time>2026-04-26T10:26:27Z</time></trkpt><trkpt lat="46.0842052681454" lon="9.27774137028226"><ele>225.0</ele><time>2026-04-26T10:26:28Z</time></trkpt><trkpt lat="46.08406982365939" lon="9.27764894368535"><ele>226.66666666666669</ele><time>2026-04-26T10:26:29Z</time></trkpt><trkpt lat="46.0839377459426" lon="9.277518474490455"><ele>228.33333333333334</ele><time>2026-04-26T10:26:30Z</time></trkpt><trkpt lat="46.083799899639445" lon="9.277379471973855"><ele>230.0</ele><time>2026-04-26T10:26:31Z</time></trkpt><trkpt lat="46.0836649332113" lon="9.277242786327786"><ele>230.0</ele><time>2026-04-26T10:26:32Z</time></trkpt><trkpt lat="46.08352501729009" lon="9.277121601180523"><ele>230.0</ele><time>2026-04-26T10:26:33Z</time></trkpt><trkpt lat="46.08339032389994" lon="9.276973602087711"><ele>230.0</ele><time>2026-04-26T10:26:34Z</time></trkpt><trkpt lat="46.0832388310691" lon="9.27688107914268"><ele>225.0</ele><time>2026-04-26T10:26:35Z</time></trkpt><trkpt lat="46.08308446594238" lon="9.276791098075114"><ele>220.0</ele><time>2026-04-26T10:26:36Z</time></trkpt><trkpt lat="46.082921598254245" lon="9.27673982410771"><ele>215.0</ele><time>2026-04-26T10:26:37Z</time></trkpt><trkpt lat="46.08275311087627" lon="9.27668944143057"><ele>215.0</ele><time>2026-04-26T10:26:38Z</time></trkpt><trkpt lat="46.082588413844725" lon="9.276647913403348"><ele>215.0</ele><time>2026-04-26T10:26:39Z</time></trkpt><trkpt lat="46.08242404603878" lon="9.276603526658644"><ele>215.0</ele><time>2026-04-26T10:26:40Z</time></trkpt><trkpt lat="46.08226360723595" lon="9.276551609435003"><ele>214.66666666666669</ele><time>2026-04-26T10:26:41Z</time></trkpt><trkpt lat="46.082099314475435" lon="9.276505193828532"><ele>214.33333333333331</ele><time>2026-04-26T10:26:42Z</time></trkpt><trkpt lat="46.08194296610325" lon="9.276438238380916"><ele>214.0</ele><time>2026-04-26T10:26:43Z</time></trkpt><trkpt lat="46.08177784313928" lon="9.276366470113336"><ele>221.0</ele><time>2026-04-26T10:26:44Z</time></trkpt><trkpt lat="46.081608835711876" lon="9.276291441799826"><ele>228.0</ele><time>2026-04-26T10:26:45Z</time></trkpt><trkpt lat="46.08144403911321" lon="9.276225625794373"><ele>235.0</ele><time>2026-04-26T10:26:46Z</time></trkpt><trkpt lat="46.08129008103437" lon="9.276156810663345"><ele>239.25</ele><time>2026-04-26T10:26:47Z</time></trkpt><trkpt lat="46.08114864498202" lon="9.276101434967307"><ele>243.5</ele><time>2026-04-26T10:26:48Z</time></trkpt><trkpt lat="46.081011607501935" lon="9.276048381172858"><ele>247.75</ele><time>2026-04-26T10:26:49Z</time></trkpt><trkpt lat="46.08087031707139" lon="9.275995832889139"><ele>252.0</ele><time>2026-04-26T10:26:50Z</time></trkpt><trkpt lat="46.0807281749998" lon="9.275938001830237"><ele>253.5</ele><time>2026-04-26T10:26:51.015Z</time></trkpt><trkpt lat="46.080591663880526" lon="9.275860241151863"><ele>255.0</ele><time>2026-04-26T10:26:52.017Z</time></trkpt><trkpt lat="46.08044654108846" lon="9.275825315436183"><ele>256.5</ele><time>2026-04-26T10:26:53.021Z</time></trkpt><trkpt lat="46.080305506716435" lon="9.275776287262792"><ele>258.0</ele><time>2026-04-26T10:26:54.017Z</time></trkpt><trkpt lat="46.08016459778132" lon="9.275721248475083"><ele>291.0</ele><time>2026-04-26T10:26:55.019Z</time></trkpt><trkpt lat="46.078175038756115" lon="9.276125525186014"><ele>291.0</ele><time>2026-04-26T10:26:58.858Z</time></trkpt><trkpt lat="46.077575854944804" lon="9.276404687585991"><ele>263.0</ele><time>2026-04-26T10:26:59.858Z</time></trkpt><trkpt lat="46.07697605378073" lon="9.276683306120917"><ele>280.0</ele><time>2026-04-26T10:27:00.859Z</time></trkpt><trkpt lat="46.076374561209256" lon="9.276950738571625"><ele>291.0</ele><time>2026-04-26T10:27:01.859Z</time></trkpt><trkpt lat="46.07576353594023" lon="9.277168328786178"><ele>255.0</ele><time>2026-04-26T10:27:02.859Z</time></trkpt><trkpt lat="46.07514316228824" lon="9.277316301987458"><ele>265.0</ele><time>2026-04-26T10:27:03.858Z</time></trkpt><trkpt lat="46.074514061094256" lon="9.277360268487486"><ele>267.0</ele><time>2026-04-26T10:27:04.859Z</time></trkpt><trkpt lat="46.073886642262934" lon="9.277286532735191"><ele>257.0</ele><time>2026-04-26T10:27:05.859Z</time></trkpt><trkpt lat="46.073268837692524" lon="9.27711882470498"><ele>235.0</ele><time>2026-04-26T10:27:06.859Z</time></trkpt><trkpt lat="46.071882890580284" lon="9.276222568013962"><ele>235.0</ele><time>2026-04-26T10:27:54Z</time></trkpt><trkpt lat="46.071723087234815" lon="9.276088753212733"><ele>235.0</ele><time>2026-04-26T10:27:55Z</time></trkpt><trkpt lat="46.07153166701563" lon="9.275944586895816"><ele>235.0</ele><time>2026-04-26T10:27:56Z</time></trkpt><trkpt lat="46.07137699853953" lon="9.275809272049317"><ele>233.33333333333331</ele><time>2026-04-26T10:27:57Z</time></trkpt><trkpt lat="46.071221450059916" lon="9.275656581300337"><ele>231.66666666666669</ele><time>2026-04-26T10:27:58Z</time></trkpt><trkpt lat="46.071057283101446" lon="9.275494791187645"><ele>230.0</ele><time>2026-04-26T10:27:59Z</time></trkpt><trkpt lat="46.07088669921315" lon="9.275336205406756"><ele>236.0</ele><time>2026-04-26T10:28:00Z</time></trkpt><trkpt lat="46.070714674600914" lon="9.275161228419586"><ele>242.0</ele><time>2026-04-26T10:28:01Z</time></trkpt><trkpt lat="46.07053436920662" lon="9.274983408605198"><ele>248.0</ele><time>2026-04-26T10:28:02.019Z</time></trkpt><trkpt lat="46.07035839768698" lon="9.27481019703296"><ele>244.0</ele><time>2026-04-26T10:28:03.024Z</time></trkpt><trkpt lat="46.0700145583108" lon="9.274464216339158"><ele>240.0</ele><time>2026-04-26T10:28:05.019Z</time></trkpt><trkpt lat="46.06983864602345" lon="9.274290815464106"><ele>204.0</ele><time>2026-04-26T10:28:06.013Z</time></trkpt><trkpt lat="46.06774394870369" lon="9.272435205065898"><ele>204.0</ele><time>2026-04-26T10:28:17.001Z</time></trkpt><trkpt lat="46.06753740380092" lon="9.272288116832758"><ele>204.0</ele><time>2026-04-26T10:28:18Z</time></trkpt><trkpt lat="46.067350638753304" lon="9.272363674900273"><ele>204.0</ele><time>2026-04-26T10:28:19Z</time></trkpt><trkpt lat="46.06716502223983" lon="9.272301587273384"><ele>203.66666666666669</ele><time>2026-04-26T10:28:20Z</time></trkpt><trkpt lat="46.066984515782885" lon="9.272170342883063"><ele>203.33333333333334</ele><time>2026-04-26T10:28:21Z</time></trkpt><trkpt lat="46.066817712871284" lon="9.272044377409845"><ele>203.0</ele><time>2026-04-26T10:28:22Z</time></trkpt><trkpt lat="46.06667770765399" lon="9.271903641602906"><ele>202.33333333333334</ele><time>2026-04-26T10:28:23Z</time></trkpt><trkpt lat="46.066540452809804" lon="9.271731596798727"><ele>201.66666666666669</ele><time>2026-04-26T10:28:24Z</time></trkpt><trkpt lat="46.06642295458739" lon="9.271542819590794"><ele>201.0</ele><time>2026-04-26T10:28:25Z</time></trkpt><trkpt lat="46.06631829074594" lon="9.27133068213168"><ele>201.0</ele><time>2026-04-26T10:28:26Z</time></trkpt><trkpt lat="46.066225911284214" lon="9.271104709641323"><ele>201.0</ele><time>2026-04-26T10:28:27Z</time></trkpt><trkpt lat="46.06613621697742" lon="9.27087776465153"><ele>201.0</ele><time>2026-04-26T10:28:28Z</time></trkpt><trkpt lat="46.06604593012257" lon="9.270655111928914"><ele>201.66666666666669</ele><time>2026-04-26T10:28:29Z</time></trkpt><trkpt lat="46.06595609366184" lon="9.270433843161612"><ele>202.33333333333334</ele><time>2026-04-26T10:28:30Z</time></trkpt><trkpt lat="46.065864618536374" lon="9.270206918278785"><ele>203.0</ele><time>2026-04-26T10:28:31Z</time></trkpt><trkpt lat="46.06577204488169" lon="9.26998373887616"><ele>203.0</ele><time>2026-04-26T10:28:32Z</time></trkpt><trkpt lat="46.06564253824584" lon="9.269805134859086"><ele>203.0</ele><time>2026-04-26T10:28:33Z</time></trkpt><trkpt lat="46.06550511126037" lon="9.269639074068735"><ele>203.0</ele><time>2026-04-26T10:28:34Z</time></trkpt><trkpt lat="46.06535425654463" lon="9.269495289023801"><ele>203.0</ele><time>2026-04-26T10:28:35Z</time></trkpt><trkpt lat="46.06518145816975" lon="9.269382730912413"><ele>203.0</ele><time>2026-04-26T10:28:36Z</time></trkpt><trkpt lat="46.06500046045574" lon="9.269321696276107"><ele>203.0</ele><time>2026-04-26T10:28:37Z</time></trkpt><trkpt lat="46.06480875687379" lon="9.269289573528871"><ele>203.0</ele><time>2026-04-26T10:28:38Z</time></trkpt><trkpt lat="46.06462699879745" lon="9.269275016206441"><ele>203.0</ele><time>2026-04-26T10:28:39Z</time></trkpt><trkpt lat="46.06446183041069" lon="9.26922810272436"><ele>203.0</ele><time>2026-04-26T10:28:40Z</time></trkpt><trkpt lat="46.0642941632219" lon="9.269197287858812"><ele>203.0</ele><time>2026-04-26T10:28:41Z</time></trkpt><trkpt lat="46.06411759597704" lon="9.269164837298744"><ele>203.0</ele><time>2026-04-26T10:28:42Z</time></trkpt><trkpt lat="46.06394995402544" lon="9.269134027080613"><ele>203.0</ele><time>2026-04-26T10:28:43Z</time></trkpt><trkpt lat="46.063772864152654" lon="9.269101177956331"><ele>203.33333333333334</ele><time>2026-04-26T10:28:44Z</time></trkpt><trkpt lat="46.06360461242494" lon="9.269070326188668"><ele>203.66666666666669</ele><time>2026-04-26T10:28:45Z</time></trkpt><trkpt lat="46.06345184770047" lon="9.269042519929334"><ele>204.0</ele><time>2026-04-26T10:28:46Z</time></trkpt><trkpt lat="46.0633260265857" lon="9.269019617937493"><ele>203.6</ele><time>2026-04-26T10:28:47Z</time></trkpt><trkpt lat="46.06322617291347" lon="9.268999779588592"><ele>203.2</ele><time>2026-04-26T10:28:48Z</time></trkpt><trkpt lat="46.0631214905513" lon="9.268978503232955"><ele>202.79999999999998</ele><time>2026-04-26T10:28:49Z</time></trkpt><trkpt lat="46.06300909986084" lon="9.268945074425869"><ele>202.39999999999998</ele><time>2026-04-26T10:28:50Z</time></trkpt><trkpt lat="46.06289137342867" lon="9.268890178585728"><ele>202.0</ele><time>2026-04-26T10:28:51Z</time></trkpt><trkpt lat="46.0627775451258" lon="9.268815239777423"><ele>202.0</ele><time>2026-04-26T10:28:52Z</time></trkpt><trkpt lat="46.06266899040932" lon="9.26871668093452"><ele>202.0</ele><time>2026-04-26T10:28:53Z</time></trkpt><trkpt lat="46.062571203543484" lon="9.26860209236074"><ele>202.0</ele><time>2026-04-26T10:28:54Z</time></trkpt><trkpt lat="46.06248764259432" lon="9.26847535445096"><ele>202.0</ele><time>2026-04-26T10:28:55Z</time></trkpt><trkpt lat="46.062415397955284" lon="9.268337142980887"><ele>201.25</ele><time>2026-04-26T10:28:56Z</time></trkpt><trkpt lat="46.06235111280174" lon="9.268175563422353"><ele>200.5</ele><time>2026-04-26T10:28:57Z</time></trkpt><trkpt lat="46.06228977601098" lon="9.267992110080405"><ele>199.75</ele><time>2026-04-26T10:28:58Z</time></trkpt><trkpt lat="46.06222750795432" lon="9.267799356724144"><ele>199.0</ele><time>2026-04-26T10:28:59Z</time></trkpt><trkpt lat="46.06217128196034" lon="9.267624387817031"><ele>199.0</ele><time>2026-04-26T10:29:00Z</time></trkpt><trkpt lat="46.06212100507607" lon="9.2674679325124"><ele>199.0</ele><time>2026-04-26T10:29:01Z</time></trkpt><trkpt lat="46.06207684702138" lon="9.267336297861705"><ele>199.0</ele><time>2026-04-26T10:29:02Z</time></trkpt><trkpt lat="46.062021662857354" lon="9.267195180505583"><ele>199.0</ele><time>2026-04-26T10:29:03Z</time></trkpt><trkpt lat="46.06194925214929" lon="9.267079462129669"><ele>199.0</ele><time>2026-04-26T10:29:04Z</time></trkpt><trkpt lat="46.0618731927691" lon="9.266961929970181"><ele>198.75</ele><time>2026-04-26T10:29:05Z</time></trkpt><trkpt lat="46.061770922673105" lon="9.266832027375454"><ele>198.5</ele><time>2026-04-26T10:29:06Z</time></trkpt><trkpt lat="46.06165549024907" lon="9.266692132472992"><ele>198.25</ele><time>2026-04-26T10:29:07Z</time></trkpt><trkpt lat="46.06158357388789" lon="9.26656959635978"><ele>198.0</ele><time>2026-04-26T10:29:08Z</time></trkpt><trkpt lat="46.06153533707865" lon="9.266448880369007"><ele>198.2</ele><time>2026-04-26T10:29:09Z</time></trkpt><trkpt lat="46.061502392228284" lon="9.26632248409158"><ele>198.4</ele><time>2026-04-26T10:29:10Z</time></trkpt><trkpt lat="46.06147523923767" lon="9.26619280220022"><ele>198.6</ele><time>2026-04-26T10:29:11Z</time></trkpt><trkpt lat="46.06144728749942" lon="9.266047446725189"><ele>198.79999999999998</ele><time>2026-04-26T10:29:12Z</time></trkpt><trkpt lat="46.0614193434557" lon="9.265915437446578"><ele>199.0</ele><time>2026-04-26T10:29:13Z</time></trkpt><trkpt lat="46.06136837615656" lon="9.265791053714807"><ele>199.0</ele><time>2026-04-26T10:29:14Z</time></trkpt><trkpt lat="46.06132177161999" lon="9.26566848263706"><ele>199.0</ele><time>2026-04-26T10:29:15Z</time></trkpt><trkpt lat="46.06124789571943" lon="9.265535336564623"><ele>199.0</ele><time>2026-04-26T10:29:16Z</time></trkpt><trkpt lat="46.06117236505824" lon="9.265332579640782"><ele>199.0</ele><time>2026-04-26T10:29:17Z</time></trkpt><trkpt lat="46.061051734773145" lon="9.26516519661495"><ele>201.0</ele><time>2026-04-26T10:29:18Z</time></trkpt><trkpt lat="46.06092828173551" lon="9.26499660092235"><ele>203.0</ele><time>2026-04-26T10:29:19Z</time></trkpt><trkpt lat="46.060799944019834" lon="9.264818646321288"><ele>205.0</ele><time>2026-04-26T10:29:20Z</time></trkpt><trkpt lat="46.06066165844329" lon="9.264658927702971"><ele>205.0</ele><time>2026-04-26T10:29:21Z</time></trkpt><trkpt lat="46.06054006332592" lon="9.264462899132875"><ele>205.0</ele><time>2026-04-26T10:29:22Z</time></trkpt><trkpt lat="46.060429484636764" lon="9.264286676129212"><ele>205.0</ele><time>2026-04-26T10:29:23Z</time></trkpt><trkpt lat="46.06034333330331" lon="9.264091962712483"><ele>207.0</ele><time>2026-04-26T10:29:24Z</time></trkpt><trkpt lat="46.06027245451408" lon="9.263870823142447"><ele>209.0</ele><time>2026-04-26T10:29:25Z</time></trkpt><trkpt lat="46.06018699584593" lon="9.26362446795198"><ele>211.0</ele><time>2026-04-26T10:29:26Z</time></trkpt><trkpt lat="46.060071997118385" lon="9.263416841361424"><ele>210.0</ele><time>2026-04-26T10:29:27Z</time></trkpt><trkpt lat="46.05993598074181" lon="9.263216099666444"><ele>209.0</ele><time>2026-04-26T10:29:28Z</time></trkpt><trkpt lat="46.059798664608046" lon="9.263008823187729"><ele>208.0</ele><time>2026-04-26T10:29:29Z</time></trkpt><trkpt lat="46.059657220063706" lon="9.262794841779836"><ele>208.0</ele><time>2026-04-26T10:29:30Z</time></trkpt><trkpt lat="46.05952347698828" lon="9.26259138178713"><ele>208.0</ele><time>2026-04-26T10:29:31Z</time></trkpt><trkpt lat="46.05937662950469" lon="9.262365352055415"><ele>208.0</ele><time>2026-04-26T10:29:32Z</time></trkpt><trkpt lat="46.059251211903764" lon="9.262161224198097"><ele>207.0</ele><time>2026-04-26T10:29:33Z</time></trkpt><trkpt lat="46.05912807331391" lon="9.261953033941893"><ele>206.0</ele><time>2026-04-26T10:29:34Z</time></trkpt><trkpt lat="46.059004440429426" lon="9.261745041941833"><ele>205.0</ele><time>2026-04-26T10:29:35Z</time></trkpt><trkpt lat="46.05887731248192" lon="9.261533289749755"><ele>210.5</ele><time>2026-04-26T10:29:36Z</time></trkpt><trkpt lat="46.05870763284486" lon="9.26128696563631"><ele>216.0</ele><time>2026-04-26T10:29:37Z</time></trkpt><trkpt lat="46.05850746248127" lon="9.261105651395901"><ele>216.0</ele><time>2026-04-26T10:29:38Z</time></trkpt><trkpt lat="46.05833242858374" lon="9.261003535788742"><ele>216.0</ele><time>2026-04-26T10:29:39Z</time></trkpt><trkpt lat="46.058321005131674" lon="9.260911257681109"><ele>216.0</ele><time>2026-04-26T10:29:40Z</time></trkpt><trkpt lat="46.058155921309684" lon="9.260833679582014"><ele>216.0</ele><time>2026-04-26T10:29:41Z</time></trkpt><trkpt lat="46.05799189367036" lon="9.2607701021916"><ele>217.0</ele><time>2026-04-26T10:29:42Z</time></trkpt><trkpt lat="46.05785331519286" lon="9.260629763839429"><ele>218.0</ele><time>2026-04-26T10:29:43Z</time></trkpt><trkpt lat="46.057735021131066" lon="9.260455143373507"><ele>219.0</ele><time>2026-04-26T10:29:44Z</time></trkpt><trkpt lat="46.05759562156982" lon="9.260300606258093"><ele>219.0</ele><time>2026-04-26T10:29:45Z</time></trkpt><trkpt lat="46.05746405794746" lon="9.26013717028177"><ele>219.0</ele><time>2026-04-26T10:29:46Z</time></trkpt><trkpt lat="46.057317084280406" lon="9.260031894443573"><ele>219.0</ele><time>2026-04-26T10:29:47Z</time></trkpt><trkpt lat="46.057158081752874" lon="9.25996426624242"><ele>219.0</ele><time>2026-04-26T10:29:48Z</time></trkpt><trkpt lat="46.056994716421535" lon="9.259825873228786"><ele>219.0</ele><time>2026-04-26T10:29:49Z</time></trkpt><trkpt lat="46.05685861926542" lon="9.25964537495486"><ele>219.0</ele><time>2026-04-26T10:29:50Z</time></trkpt><trkpt lat="46.056705096935" lon="9.25947292032692"><ele>216.66666666666669</ele><time>2026-04-26T10:29:51Z</time></trkpt><trkpt lat="46.056552495290724" lon="9.259276788179868"><ele>214.33333333333334</ele><time>2026-04-26T10:29:52Z</time></trkpt><trkpt lat="46.0563921527095" lon="9.259107921484416"><ele>212.0</ele><time>2026-04-26T10:29:53Z</time></trkpt><trkpt lat="46.05623473714321" lon="9.258954829565074"><ele>218.0</ele><time>2026-04-26T10:29:54Z</time></trkpt><trkpt lat="46.05608655653724" lon="9.258813390079618"><ele>224.0</ele><time>2026-04-26T10:29:55Z</time></trkpt><trkpt lat="46.05593813017579" lon="9.258685658996475"><ele>230.0</ele><time>2026-04-26T10:29:56Z</time></trkpt><trkpt lat="46.05578790262497" lon="9.258607812508354"><ele>229.0</ele><time>2026-04-26T10:29:57Z</time></trkpt><trkpt lat="46.05562955346979" lon="9.258592129108912"><ele>228.0</ele><time>2026-04-26T10:29:58Z</time></trkpt><trkpt lat="46.055458726825165" lon="9.258605029396273"><ele>227.0</ele><time>2026-04-26T10:29:59Z</time></trkpt><trkpt lat="46.05529451338129" lon="9.25867206552484"><ele>227.0</ele><time>2026-04-26T10:30:00Z</time></trkpt><trkpt lat="46.055133098869696" lon="9.258739581459675"><ele>227.0</ele><time>2026-04-26T10:30:01Z</time></trkpt><trkpt lat="46.05495224818404" lon="9.258798688687957"><ele>227.0</ele><time>2026-04-26T10:30:02Z</time></trkpt><trkpt lat="46.054769842064346" lon="9.258833697867491"><ele>227.66666666666669</ele><time>2026-04-26T10:30:03Z</time></trkpt><trkpt lat="46.05459448806105" lon="9.258872268880538"><ele>228.33333333333331</ele><time>2026-04-26T10:30:04Z</time></trkpt><trkpt lat="46.05442787433932" lon="9.258914432287016"><ele>229.0</ele><time>2026-04-26T10:30:05Z</time></trkpt><trkpt lat="46.05428008231383" lon="9.258949153163197"><ele>230.0</ele><time>2026-04-26T10:30:06Z</time></trkpt><trkpt lat="46.05412254460738" lon="9.2589806091315"><ele>231.0</ele><time>2026-04-26T10:30:07Z</time></trkpt><trkpt lat="46.05396901266824" lon="9.258957444491227"><ele>232.0</ele><time>2026-04-26T10:30:08Z</time></trkpt><trkpt lat="46.05381495102615" lon="9.258929970954318"><ele>232.0</ele><time>2026-04-26T10:30:09Z</time></trkpt><trkpt lat="46.053646282862225" lon="9.25892087290167"><ele>232.0</ele><time>2026-04-26T10:30:10Z</time></trkpt><trkpt lat="46.0534573084944" lon="9.258878093004773"><ele>232.0</ele><time>2026-04-26T10:30:11Z</time></trkpt><trkpt lat="46.05327594897216" lon="9.25889028858275"><ele>230.33333333333331</ele><time>2026-04-26T10:30:12Z</time></trkpt><trkpt lat="46.05310296782128" lon="9.258932828448183"><ele>228.66666666666669</ele><time>2026-04-26T10:30:13Z</time></trkpt><trkpt lat="46.05292050089083" lon="9.25893224298419"><ele>227.0</ele><time>2026-04-26T10:30:14Z</time></trkpt><trkpt lat="46.05274664257242" lon="9.258929400821698"><ele>227.0</ele><time>2026-04-26T10:30:15Z</time></trkpt><trkpt lat="46.05257659005964" lon="9.258869548075467"><ele>227.0</ele><time>2026-04-26T10:30:16Z</time></trkpt><trkpt lat="46.05241172127605" lon="9.258780600096998"><ele>227.0</ele><time>2026-04-26T10:30:17Z</time></trkpt><trkpt lat="46.052261782036545" lon="9.258682746116433"><ele>222.66666666666669</ele><time>2026-04-26T10:30:18Z</time></trkpt><trkpt lat="46.052123385506164" lon="9.258559500949646"><ele>218.33333333333331</ele><time>2026-04-26T10:30:19Z</time></trkpt><trkpt lat="46.05198754631731" lon="9.25840456499674"><ele>214.0</ele><time>2026-04-26T10:30:20Z</time></trkpt><trkpt lat="46.0518594573037" lon="9.258220153574419"><ele>215.33333333333331</ele><time>2026-04-26T10:30:21Z</time></trkpt><trkpt lat="46.0517212432546" lon="9.258022296431509"><ele>216.66666666666669</ele><time>2026-04-26T10:30:22Z</time></trkpt><trkpt lat="46.051570944432015" lon="9.257842775541322"><ele>218.0</ele><time>2026-04-26T10:30:23Z</time></trkpt><trkpt lat="46.05139252043563" lon="9.257710441015842"><ele>218.0</ele><time>2026-04-26T10:30:24Z</time></trkpt><trkpt lat="46.051201949012714" lon="9.257587071534047"><ele>218.0</ele><time>2026-04-26T10:30:25Z</time></trkpt><trkpt lat="46.051003062198035" lon="9.257478088186147"><ele>218.0</ele><time>2026-04-26T10:30:26Z</time></trkpt><trkpt lat="46.05079319634956" lon="9.25736165066146"><ele>220.0</ele><time>2026-04-26T10:30:27Z</time></trkpt><trkpt lat="46.050595195815944" lon="9.257242878369"><ele>222.0</ele><time>2026-04-26T10:30:28Z</time></trkpt><trkpt lat="46.05040181267383" lon="9.257130485099422"><ele>224.0</ele><time>2026-04-26T10:30:29Z</time></trkpt><trkpt lat="46.05023593515785" lon="9.257012895100363"><ele>224.0</ele><time>2026-04-26T10:30:30Z</time></trkpt><trkpt lat="46.0500852564327" lon="9.256860628660096"><ele>224.0</ele><time>2026-04-26T10:30:31Z</time></trkpt><trkpt lat="46.04996988869766" lon="9.25669582095848"><ele>224.0</ele><time>2026-04-26T10:30:32Z</time></trkpt><trkpt lat="46.049866506783175" lon="9.256502144163331"><ele>223.66666666666669</ele><time>2026-04-26T10:30:33Z</time></trkpt><trkpt lat="46.049772615304256" lon="9.256296619722109"><ele>223.33333333333331</ele><time>2026-04-26T10:30:34Z</time></trkpt><trkpt lat="46.04968294780541" lon="9.256095014355525"><ele>223.0</ele><time>2026-04-26T10:30:35Z</time></trkpt><trkpt lat="46.049590612522934" lon="9.255907104878359"><ele>223.0</ele><time>2026-04-26T10:30:36Z</time></trkpt><trkpt lat="46.049504153332656" lon="9.25571119252039"><ele>223.0</ele><time>2026-04-26T10:30:37Z</time></trkpt><trkpt lat="46.04941397249564" lon="9.255507962768222"><ele>223.0</ele><time>2026-04-26T10:30:38.013Z</time></trkpt><trkpt lat="46.049325240598996" lon="9.255302360230068"><ele>229.66666666666666</ele><time>2026-04-26T10:30:39.015Z</time></trkpt><trkpt lat="46.04921709816259" lon="9.255120973443777"><ele>236.33333333333331</ele><time>2026-04-26T10:30:40.025Z</time></trkpt><trkpt lat="46.04909575386183" lon="9.254978385049633"><ele>243.0</ele><time>2026-04-26T10:30:41.023Z</time></trkpt><trkpt lat="46.04897424603064" lon="9.254863399667904"><ele>216.0</ele><time>2026-04-26T10:30:42.021Z</time></trkpt><trkpt lat="46.047282516307554" lon="9.254263308926536"><ele>216.0</ele><time>2026-04-26T10:30:45.859Z</time></trkpt><trkpt lat="46.046633790290024" lon="9.25403525122372"><ele>212.33333333333331</ele><time>2026-04-26T10:30:53Z</time></trkpt><trkpt lat="46.046444739501304" lon="9.253977774956452"><ele>208.66666666666666</ele><time>2026-04-26T10:30:54Z</time></trkpt><trkpt lat="46.04623511340369" lon="9.25388879475357"><ele>205.0</ele><time>2026-04-26T10:30:55Z</time></trkpt><trkpt lat="46.046055296753096" lon="9.253792272716911"><ele>214.33333333333331</ele><time>2026-04-26T10:30:56Z</time></trkpt><trkpt lat="46.04589395994009" lon="9.253647647044067"><ele>223.66666666666669</ele><time>2026-04-26T10:30:57Z</time></trkpt><trkpt lat="46.04573362587224" lon="9.25352806007432"><ele>233.0</ele><time>2026-04-26T10:30:58Z</time></trkpt><trkpt lat="46.045558724634276" lon="9.253391701397861"><ele>233.0</ele><time>2026-04-26T10:30:59Z</time></trkpt><trkpt lat="46.04538616833168" lon="9.253260037905394"><ele>233.0</ele><time>2026-04-26T10:31:00Z</time></trkpt><trkpt lat="46.0452077888175" lon="9.253123979127073"><ele>233.0</ele><time>2026-04-26T10:31:01.022Z</time></trkpt><trkpt lat="46.04503382207663" lon="9.252992367628734"><ele>243.33333333333334</ele><time>2026-04-26T10:31:02.022Z</time></trkpt><trkpt lat="46.04485835887885" lon="9.25285962399952"><ele>253.66666666666669</ele><time>2026-04-26T10:31:03.017Z</time></trkpt><trkpt lat="46.04468054167372" lon="9.252724572614154"><ele>264.0</ele><time>2026-04-26T10:31:04.015Z</time></trkpt><trkpt lat="46.044500924362886" lon="9.25258688218974"><ele>248.0</ele><time>2026-04-26T10:31:05.023Z</time></trkpt><trkpt lat="46.04293471445847" lon="9.251546849652367"><ele>280.0</ele><time>2026-04-26T10:31:08.86Z</time></trkpt><trkpt lat="46.042509779544595" lon="9.251334458407893"><ele>270.0</ele><time>2026-04-26T10:31:09.86Z</time></trkpt><trkpt lat="46.04207847357208" lon="9.251152268507878"><ele>260.0</ele><time>2026-04-26T10:31:10.86Z</time></trkpt><trkpt lat="46.041646712845996" lon="9.250968596964604"><ele>249.0</ele><time>2026-04-26T10:31:11.861Z</time></trkpt><trkpt lat="46.04121419565258" lon="9.250793553738749"><ele>238.0</ele><time>2026-04-26T10:31:12.86Z</time></trkpt><trkpt lat="46.04079502696515" lon="9.25056373198278"><ele>225.0</ele><time>2026-04-26T10:31:13.86Z</time></trkpt><trkpt lat="46.0407098" lon="9.2504883"><ele>212.0</ele><time>2026-04-26T10:31:14.86Z</time></trkpt><trkpt lat="46.040236554151434" lon="9.249642714866669"><ele>211.66666666666669</ele><time>2026-04-26T10:31:29Z</time></trkpt><trkpt lat="46.04014484103776" lon="9.249450762341795"><ele>211.33333333333331</ele><time>2026-04-26T10:31:30Z</time></trkpt><trkpt lat="46.03999321633569" lon="9.249428174230701"><ele>211.0</ele><time>2026-04-26T10:31:31Z</time></trkpt><trkpt lat="46.04003370631699" lon="9.249107919540899"><ele>213.66666666666666</ele><time>2026-04-26T10:31:32Z</time></trkpt><trkpt lat="46.040138950813805" lon="9.248816586375275"><ele>216.33333333333331</ele><time>2026-04-26T10:31:33Z</time></trkpt><trkpt lat="46.04018990327856" lon="9.248587605753759"><ele>219.0</ele><time>2026-04-26T10:31:34Z</time></trkpt><trkpt lat="46.04021337008584" lon="9.248340111860903"><ele>220.33333333333331</ele><time>2026-04-26T10:31:35Z</time></trkpt><trkpt lat="46.04023904005554" lon="9.248082571016896"><ele>221.66666666666666</ele><time>2026-04-26T10:31:36Z</time></trkpt><trkpt lat="46.04026504695716" lon="9.247821649872801"><ele>223.0</ele><time>2026-04-26T10:31:37Z</time></trkpt><trkpt lat="46.04029143482201" lon="9.24755690646346"><ele>223.0</ele><time>2026-04-26T10:31:38.019Z</time></trkpt><trkpt lat="46.04031853608366" lon="9.247302583452694"><ele>223.0</ele><time>2026-04-26T10:31:39.016Z</time></trkpt><trkpt lat="46.0403458584667" lon="9.247046897438196"><ele>223.0</ele><time>2026-04-26T10:31:40.018Z</time></trkpt><trkpt lat="46.040367317810954" lon="9.246783030712226"><ele>210.5</ele><time>2026-04-26T10:31:41.014Z</time></trkpt><trkpt lat="46.04038362955484" lon="9.246515299257881"><ele>198.0</ele><time>2026-04-26T10:31:42.016Z</time></trkpt><trkpt lat="46.03977349019489" lon="9.243781994455293"><ele>203.0</ele><time>2026-04-26T10:31:45.86Z</time></trkpt><trkpt lat="46.03810696401264" lon="9.240304604181311"><ele>203.0</ele><time>2026-04-26T10:32:09Z</time></trkpt><trkpt lat="46.0380964793655" lon="9.240151752183337"><ele>203.0</ele><time>2026-04-26T10:32:10Z</time></trkpt><trkpt lat="46.038180363650696" lon="9.2399511593299"><ele>203.0</ele><time>2026-04-26T10:32:11Z</time></trkpt><trkpt lat="46.03813592901331" lon="9.239855394749961"><ele>203.0</ele><time>2026-04-26T10:32:12Z</time></trkpt><trkpt lat="46.03805542967931" lon="9.239786184750058"><ele>203.0</ele><time>2026-04-26T10:32:13Z</time></trkpt><trkpt lat="46.03796007722792" lon="9.239748434613555"><ele>203.0</ele><time>2026-04-26T10:32:14Z</time></trkpt><trkpt lat="46.03787536217377" lon="9.239761608032317"><ele>203.0</ele><time>2026-04-26T10:32:15Z</time></trkpt><trkpt lat="46.037771162300835" lon="9.239867292474479"><ele>203.0</ele><time>2026-04-26T10:32:16Z</time></trkpt><trkpt lat="46.037621749252466" lon="9.239875170337116"><ele>203.0</ele><time>2026-04-26T10:32:17Z</time></trkpt><trkpt lat="46.03751188097022" lon="9.239822459952006"><ele>203.5</ele><time>2026-04-26T10:32:18Z</time></trkpt><trkpt lat="46.03742009133992" lon="9.239723698531593"><ele>204.0</ele><time>2026-04-26T10:32:19Z</time></trkpt><trkpt lat="46.03732681284706" lon="9.239587462511892"><ele>204.5</ele><time>2026-04-26T10:32:20Z</time></trkpt><trkpt lat="46.03721297140481" lon="9.239448880105273"><ele>205.0</ele><time>2026-04-26T10:32:21Z</time></trkpt><trkpt lat="46.037097681637064" lon="9.239292891068567"><ele>205.0</ele><time>2026-04-26T10:32:22Z</time></trkpt><trkpt lat="46.03697299302625" lon="9.239121802215431"><ele>205.0</ele><time>2026-04-26T10:32:23Z</time></trkpt><trkpt lat="46.036853871825315" lon="9.238935643243524"><ele>205.0</ele><time>2026-04-26T10:32:24Z</time></trkpt><trkpt lat="46.03673248595771" lon="9.238783980214949"><ele>205.66666666666666</ele><time>2026-04-26T10:32:25.001Z</time></trkpt><trkpt lat="46.03662292132809" lon="9.238623884975642"><ele>206.33333333333331</ele><time>2026-04-26T10:32:26.001Z</time></trkpt><trkpt lat="46.0365084172318" lon="9.238473117270809"><ele>207.0</ele><time>2026-04-26T10:32:27.001Z</time></trkpt><trkpt lat="46.03639270337336" lon="9.238325690921593"><ele>207.0</ele><time>2026-04-26T10:32:28.001Z</time></trkpt><trkpt lat="46.03627033419518" lon="9.238205079632602"><ele>207.0</ele><time>2026-04-26T10:32:29Z</time></trkpt><trkpt lat="46.03615564269148" lon="9.238076754842096"><ele>207.0</ele><time>2026-04-26T10:32:30Z</time></trkpt><trkpt lat="46.03600708389156" lon="9.238000102736668"><ele>206.66666666666669</ele><time>2026-04-26T10:32:31Z</time></trkpt><trkpt lat="46.03584678787693" lon="9.237929684873041"><ele>206.33333333333334</ele><time>2026-04-26T10:32:32Z</time></trkpt><trkpt lat="46.03568446172668" lon="9.237853069026524"><ele>206.0</ele><time>2026-04-26T10:32:33Z</time></trkpt><trkpt lat="46.03551701688998" lon="9.237774546644456"><ele>206.0</ele><time>2026-04-26T10:32:34Z</time></trkpt><trkpt lat="46.035351853472655" lon="9.237689663474063"><ele>206.0</ele><time>2026-04-26T10:32:35Z</time></trkpt><trkpt lat="46.03520022404088" lon="9.237616120065121"><ele>206.0</ele><time>2026-04-26T10:32:36Z</time></trkpt><trkpt lat="46.03505182110885" lon="9.237550847076008"><ele>205.33333333333334</ele><time>2026-04-26T10:32:37Z</time></trkpt><trkpt lat="46.0349092039532" lon="9.23746377359742"><ele>204.66666666666669</ele><time>2026-04-26T10:32:38Z</time></trkpt><trkpt lat="46.03476208638073" lon="9.237386524176694"><ele>204.0</ele><time>2026-04-26T10:32:39Z</time></trkpt><trkpt lat="46.034598985980566" lon="9.23735103528753"><ele>204.0</ele><time>2026-04-26T10:32:40Z</time></trkpt><trkpt lat="46.03444048507288" lon="9.237341350215479"><ele>204.0</ele><time>2026-04-26T10:32:41Z</time></trkpt><trkpt lat="46.03428909040062" lon="9.237353742314015"><ele>204.0</ele><time>2026-04-26T10:32:42Z</time></trkpt><trkpt lat="46.03414095881846" lon="9.237336377656824"><ele>203.25</ele><time>2026-04-26T10:32:43Z</time></trkpt><trkpt lat="46.03399431399036" lon="9.237329803075845"><ele>202.5</ele><time>2026-04-26T10:32:44Z</time></trkpt><trkpt lat="46.03384504397092" lon="9.237322863068224"><ele>201.75</ele><time>2026-04-26T10:32:45Z</time></trkpt><trkpt lat="46.033702019323286" lon="9.237309201269676"><ele>201.0</ele><time>2026-04-26T10:32:46Z</time></trkpt><trkpt lat="46.03356205815491" lon="9.237272065911833"><ele>203.33333333333331</ele><time>2026-04-26T10:32:47Z</time></trkpt><trkpt lat="46.033415750800906" lon="9.237201471044159"><ele>205.66666666666666</ele><time>2026-04-26T10:32:48Z</time></trkpt><trkpt lat="46.03326234472317" lon="9.237121639836042"><ele>208.0</ele><time>2026-04-26T10:32:49Z</time></trkpt><trkpt lat="46.033104589899985" lon="9.23703589486369"><ele>208.66666666666666</ele><time>2026-04-26T10:32:50Z</time></trkpt><trkpt lat="46.032941454931" lon="9.236941903459376"><ele>209.33333333333331</ele><time>2026-04-26T10:32:51Z</time></trkpt><trkpt lat="46.03278756657564" lon="9.236851012661026"><ele>210.0</ele><time>2026-04-26T10:32:52Z</time></trkpt><trkpt lat="46.03262927464417" lon="9.236767460354741"><ele>213.0</ele><time>2026-04-26T10:32:53Z</time></trkpt><trkpt lat="46.03246462087438" lon="9.236693153996805"><ele>216.0</ele><time>2026-04-26T10:32:54Z</time></trkpt><trkpt lat="46.032310312020336" lon="9.236641726408088"><ele>219.0</ele><time>2026-04-26T10:32:55Z</time></trkpt><trkpt lat="46.03215261379113" lon="9.23661074058136"><ele>219.0</ele><time>2026-04-26T10:32:56Z</time></trkpt><trkpt lat="46.03199598572765" lon="9.236607645974589"><ele>219.0</ele><time>2026-04-26T10:32:57Z</time></trkpt><trkpt lat="46.03183143676711" lon="9.236625167280204"><ele>219.0</ele><time>2026-04-26T10:32:58Z</time></trkpt><trkpt lat="46.03166717980252" lon="9.2366534452398"><ele>224.66666666666669</ele><time>2026-04-26T10:32:59Z</time></trkpt><trkpt lat="46.03150175048562" lon="9.236680794252871"><ele>230.33333333333334</ele><time>2026-04-26T10:33:00Z</time></trkpt><trkpt lat="46.03133429928754" lon="9.236705687189593"><ele>236.0</ele><time>2026-04-26T10:33:01Z</time></trkpt><trkpt lat="46.03116406555635" lon="9.236732928007422"><ele>236.0</ele><time>2026-04-26T10:33:02Z</time></trkpt><trkpt lat="46.030984199865436" lon="9.236776952473312"><ele>236.0</ele><time>2026-04-26T10:33:03Z</time></trkpt><trkpt lat="46.030810087213986" lon="9.23687317058135"><ele>236.0</ele><time>2026-04-26T10:33:04Z</time></trkpt><trkpt lat="46.03063026603703" lon="9.236958208871846"><ele>238.33333333333334</ele><time>2026-04-26T10:33:05Z</time></trkpt><trkpt lat="46.030449450693695" lon="9.236988657197537"><ele>240.66666666666669</ele><time>2026-04-26T10:33:06Z</time></trkpt><trkpt lat="46.03028333613563" lon="9.236997077530733"><ele>243.0</ele><time>2026-04-26T10:33:07Z</time></trkpt><trkpt lat="46.0301106441876" lon="9.236981766656642"><ele>251.5</ele><time>2026-04-26T10:33:08Z</time></trkpt><trkpt lat="46.02989796061026" lon="9.236986452589912"><ele>260.0</ele><time>2026-04-26T10:33:09Z</time></trkpt><trkpt lat="46.02963305100229" lon="9.236983239099605"><ele>260.0</ele><time>2026-04-26T10:33:10Z</time></trkpt><trkpt lat="46.02938718576847" lon="9.23697422728405"><ele>260.0</ele><time>2026-04-26T10:33:11Z</time></trkpt><trkpt lat="46.02930066699641" lon="9.237016122935911"><ele>260.0</ele><time>2026-04-26T10:33:12Z</time></trkpt><trkpt lat="46.02910774248812" lon="9.236988129188736"><ele>276.6666666666667</ele><time>2026-04-26T10:33:13Z</time></trkpt><trkpt lat="46.02892663292748" lon="9.236981166977056"><ele>293.3333333333333</ele><time>2026-04-26T10:33:14Z</time></trkpt><trkpt lat="46.02874198595337" lon="9.236972334830293"><ele>310.0</ele><time>2026-04-26T10:33:15Z</time></trkpt><trkpt lat="46.02855768431668" lon="9.236962219545719"><ele>310.0</ele><time>2026-04-26T10:33:16Z</time></trkpt><trkpt lat="46.02838085182844" lon="9.236955107978822"><ele>310.0</ele><time>2026-04-26T10:33:17Z</time></trkpt><trkpt lat="46.02820189236366" lon="9.23695600297951"><ele>310.0</ele><time>2026-04-26T10:33:18Z</time></trkpt><trkpt lat="46.028022903442434" lon="9.236930149449385"><ele>310.3333333333333</ele><time>2026-04-26T10:33:19Z</time></trkpt><trkpt lat="46.02784141992178" lon="9.23690517008168"><ele>310.6666666666667</ele><time>2026-04-26T10:33:20.014Z</time></trkpt><trkpt lat="46.027662720107436" lon="9.236883043613538"><ele>311.0</ele><time>2026-04-26T10:33:21.014Z</time></trkpt><trkpt lat="46.02748300785824" lon="9.236892335823551"><ele>303.0</ele><time>2026-04-26T10:33:22.015Z</time></trkpt><trkpt lat="46.027304560260596" lon="9.236892195940651"><ele>295.0</ele><time>2026-04-26T10:33:23.023Z</time></trkpt><trkpt lat="46.02663612708913" lon="9.237164693454725"><ele>292.66666666666663</ele><time>2026-04-26T10:33:26.86Z</time></trkpt><trkpt lat="46.02647503408587" lon="9.237278838684638"><ele>290.3333333333333</ele><time>2026-04-26T10:33:27.86Z</time></trkpt><trkpt lat="46.026323215764066" lon="9.237416401805127"><ele>288.0</ele><time>2026-04-26T10:33:28.86Z</time></trkpt><trkpt lat="46.02617921095102" lon="9.237570715688634"><ele>268.5</ele><time>2026-04-26T10:33:29.86Z</time></trkpt><trkpt lat="46.02584784389103" lon="9.237931519755383"><ele>249.0</ele><time>2026-04-26T10:33:32Z</time></trkpt><trkpt lat="46.02570017331337" lon="9.23809076775827"><ele>237.66666666666669</ele><time>2026-04-26T10:33:33Z</time></trkpt><trkpt lat="46.02555529174172" lon="9.23822302301774"><ele>226.33333333333334</ele><time>2026-04-26T10:33:34Z</time></trkpt><trkpt lat="46.02539491747447" lon="9.238381678741373"><ele>215.0</ele><time>2026-04-26T10:33:35Z</time></trkpt><trkpt lat="46.02524240341108" lon="9.23850077902773"><ele>215.0</ele><time>2026-04-26T10:33:36Z</time></trkpt><trkpt lat="46.02507892313519" lon="9.238596376445496"><ele>215.0</ele><time>2026-04-26T10:33:37Z</time></trkpt><trkpt lat="46.02490360857496" lon="9.2386712214162"><ele>215.0</ele><time>2026-04-26T10:33:38Z</time></trkpt><trkpt lat="46.024724450377136" lon="9.238744450060755"><ele>215.0</ele><time>2026-04-26T10:33:39Z</time></trkpt><trkpt lat="46.024551756339086" lon="9.238815022170085"><ele>215.0</ele><time>2026-04-26T10:33:40Z</time></trkpt><trkpt lat="46.024387551329916" lon="9.238878209597676"><ele>215.0</ele><time>2026-04-26T10:33:41Z</time></trkpt><trkpt lat="46.02423452259042" lon="9.238937514080009"><ele>214.0</ele><time>2026-04-26T10:33:42Z</time></trkpt><trkpt lat="46.02408741525772" lon="9.238994693031753"><ele>213.0</ele><time>2026-04-26T10:33:43Z</time></trkpt><trkpt lat="46.02394635737884" lon="9.239034090652247"><ele>212.0</ele><time>2026-04-26T10:33:44Z</time></trkpt><trkpt lat="46.023814286241226" lon="9.239040806836641"><ele>211.0</ele><time>2026-04-26T10:33:45Z</time></trkpt><trkpt lat="46.0236624607097" lon="9.239033582483065"><ele>211.0</ele><time>2026-04-26T10:33:46Z</time></trkpt><trkpt lat="46.02350369483182" lon="9.239022123521604"><ele>211.0</ele><time>2026-04-26T10:33:47Z</time></trkpt><trkpt lat="46.02334283627681" lon="9.2390085180795"><ele>211.0</ele><time>2026-04-26T10:33:48Z</time></trkpt><trkpt lat="46.02317779586837" lon="9.23899399765759"><ele>211.0</ele><time>2026-04-26T10:33:49Z</time></trkpt><trkpt lat="46.023016382162616" lon="9.238979796114018"><ele>211.0</ele><time>2026-04-26T10:33:50Z</time></trkpt><trkpt lat="46.02285507587979" lon="9.238985651962563"><ele>211.0</ele><time>2026-04-26T10:33:51Z</time></trkpt><trkpt lat="46.02269591742272" lon="9.238950977774586"><ele>211.0</ele><time>2026-04-26T10:33:52Z</time></trkpt><trkpt lat="46.02255106068544" lon="9.238939136808781"><ele>211.0</ele><time>2026-04-26T10:33:53Z</time></trkpt><trkpt lat="46.0224194520332" lon="9.238926072401412"><ele>211.0</ele><time>2026-04-26T10:33:54Z</time></trkpt><trkpt lat="46.02227766031282" lon="9.238911235535532"><ele>211.0</ele><time>2026-04-26T10:33:55Z</time></trkpt><trkpt lat="46.02213107815263" lon="9.238895138189683"><ele>211.33333333333331</ele><time>2026-04-26T10:33:56Z</time></trkpt><trkpt lat="46.021975971149686" lon="9.238880475954392"><ele>211.66666666666669</ele><time>2026-04-26T10:33:57Z</time></trkpt><trkpt lat="46.02181620379971" lon="9.238869457518103"><ele>212.0</ele><time>2026-04-26T10:33:58Z</time></trkpt><trkpt lat="46.02166201866568" lon="9.238858824057555"><ele>212.0</ele><time>2026-04-26T10:33:59.001Z</time></trkpt><trkpt lat="46.02151339159677" lon="9.238840174357964"><ele>212.0</ele><time>2026-04-26T10:34:00.001Z</time></trkpt><trkpt lat="46.02137140863095" lon="9.23880019868658"><ele>212.0</ele><time>2026-04-26T10:34:01.001Z</time></trkpt><trkpt lat="46.02125089952769" lon="9.238749285023603"><ele>212.0</ele><time>2026-04-26T10:34:02.001Z</time></trkpt><trkpt lat="46.021144298281826" lon="9.238688833054178"><ele>212.0</ele><time>2026-04-26T10:34:03.001Z</time></trkpt><trkpt lat="46.02103153829704" lon="9.238619886115526"><ele>212.0</ele><time>2026-04-26T10:34:04.001Z</time></trkpt><trkpt lat="46.02093114858115" lon="9.238558164944386"><ele>212.0</ele><time>2026-04-26T10:34:05.001Z</time></trkpt><trkpt lat="46.02082277077659" lon="9.238491139206788"><ele>212.0</ele><time>2026-04-26T10:34:06.001Z</time></trkpt><trkpt lat="46.02070128626903" lon="9.238412611699042"><ele>212.25</ele><time>2026-04-26T10:34:07.001Z</time></trkpt><trkpt lat="46.02057017298951" lon="9.238327513023707"><ele>212.5</ele><time>2026-04-26T10:34:08.001Z</time></trkpt><trkpt lat="46.020447746797224" lon="9.238251690445601"><ele>212.75</ele><time>2026-04-26T10:34:09.001Z</time></trkpt><trkpt lat="46.02031679913195" lon="9.238179432360035"><ele>213.0</ele><time>2026-04-26T10:34:10.001Z</time></trkpt><trkpt lat="46.02021096482835" lon="9.238106939685151"><ele>213.0</ele><time>2026-04-26T10:34:11.001Z</time></trkpt><trkpt lat="46.02009700610606" lon="9.238044963238018"><ele>213.0</ele><time>2026-04-26T10:34:12.001Z</time></trkpt><trkpt lat="46.01999560033224" lon="9.238000196870331"><ele>213.0</ele><time>2026-04-26T10:34:13.001Z</time></trkpt><trkpt lat="46.01989606115456" lon="9.237962749956779"><ele>213.0</ele><time>2026-04-26T10:34:14.001Z</time></trkpt><trkpt lat="46.019811714139806" lon="9.237875398511797"><ele>213.0</ele><time>2026-04-26T10:34:15.001Z</time></trkpt><trkpt lat="46.01970998571415" lon="9.237800045508653"><ele>211.2</ele><time>2026-04-26T10:34:16.001Z</time></trkpt><trkpt lat="46.01959823645762" lon="9.237759747378448"><ele>209.4</ele><time>2026-04-26T10:34:17.001Z</time></trkpt><trkpt lat="46.01949355813472" lon="9.237672544610168"><ele>207.6</ele><time>2026-04-26T10:34:18.001Z</time></trkpt><trkpt lat="46.01939666729605" lon="9.237604176401463"><ele>205.79999999999998</ele><time>2026-04-26T10:34:19.001Z</time></trkpt><trkpt lat="46.01931066792994" lon="9.237538366848172"><ele>204.0</ele><time>2026-04-26T10:34:20.001Z</time></trkpt><trkpt lat="46.01925355437775" lon="9.237457928308304"><ele>204.0</ele><time>2026-04-26T10:34:21.001Z</time></trkpt><trkpt lat="46.01921208984255" lon="9.237381871441528"><ele>204.0</ele><time>2026-04-26T10:34:22.001Z</time></trkpt><trkpt lat="46.01916289540746" lon="9.23729207250963"><ele>204.0</ele><time>2026-04-26T10:34:24.001Z</time></trkpt><trkpt lat="46.01912465368508" lon="9.2372060659547"><ele>204.0</ele><time>2026-04-26T10:34:27.001Z</time></trkpt><trkpt lat="46.0190681480376" lon="9.237084670145112"><ele>204.0</ele><time>2026-04-26T10:34:58Z</time></trkpt><trkpt lat="46.019004241135335" lon="9.236947373243027"><ele>204.0</ele><time>2026-04-26T10:34:59Z</time></trkpt><trkpt lat="46.0189480859205" lon="9.236826730255405"><ele>204.79999999999998</ele><time>2026-04-26T10:35:00Z</time></trkpt><trkpt lat="46.01890801120461" lon="9.236740633482535"><ele>205.6</ele><time>2026-04-26T10:35:01Z</time></trkpt><trkpt lat="46.01886553042206" lon="9.236643277857343"><ele>206.4</ele><time>2026-04-26T10:35:04Z</time></trkpt><trkpt lat="46.0188150169571" lon="9.236517307036198"><ele>207.2</ele><time>2026-04-26T10:35:06Z</time></trkpt><trkpt lat="46.01870922121369" lon="9.236467436405984"><ele>208.0</ele><time>2026-04-26T10:35:07Z</time></trkpt><trkpt lat="46.018622888752766" lon="9.236425404601327"><ele>210.0</ele><time>2026-04-26T10:35:08Z</time></trkpt><trkpt lat="46.01852407127193" lon="9.236378003825209"><ele>212.0</ele><time>2026-04-26T10:35:09Z</time></trkpt><trkpt lat="46.01841653058309" lon="9.236335775719812"><ele>214.0</ele><time>2026-04-26T10:35:10Z</time></trkpt><trkpt lat="46.01831773489675" lon="9.236330139703668"><ele>216.0</ele><time>2026-04-26T10:35:11Z</time></trkpt><trkpt lat="46.01820029620576" lon="9.236290685715975"><ele>218.0</ele><time>2026-04-26T10:35:12Z</time></trkpt><trkpt lat="46.018073510105694" lon="9.236249561146927"><ele>218.2</ele><time>2026-04-26T10:35:13Z</time></trkpt><trkpt lat="46.01794569017885" lon="9.236243290911862"><ele>218.4</ele><time>2026-04-26T10:35:14Z</time></trkpt><trkpt lat="46.01783806196902" lon="9.236210939643275"><ele>218.59999999999997</ele><time>2026-04-26T10:35:15Z</time></trkpt><trkpt lat="46.017745585024755" lon="9.236191677443468"><ele>218.79999999999998</ele><time>2026-04-26T10:35:16Z</time></trkpt><trkpt lat="46.017636297244536" lon="9.236173430096787"><ele>219.0</ele><time>2026-04-26T10:35:17Z</time></trkpt><trkpt lat="46.01751909040333" lon="9.236182855126808"><ele>222.0</ele><time>2026-04-26T10:35:18Z</time></trkpt><trkpt lat="46.017391186162094" lon="9.236199846423355"><ele>225.0</ele><time>2026-04-26T10:35:19Z</time></trkpt><trkpt lat="46.017238320906095" lon="9.236251683796525"><ele>228.0</ele><time>2026-04-26T10:35:20Z</time></trkpt><trkpt lat="46.0170428019914" lon="9.236219635580227"><ele>228.0</ele><time>2026-04-26T10:35:21Z</time></trkpt><trkpt lat="46.01686033381226" lon="9.23622799310817"><ele>228.0</ele><time>2026-04-26T10:35:22Z</time></trkpt><trkpt lat="46.01668112074782" lon="9.236224391027665"><ele>228.0</ele><time>2026-04-26T10:35:23Z</time></trkpt><trkpt lat="46.01649501095838" lon="9.236216733558765"><ele>228.33333333333331</ele><time>2026-04-26T10:35:24Z</time></trkpt><trkpt lat="46.01628804216262" lon="9.236207427511047"><ele>228.66666666666666</ele><time>2026-04-26T10:35:25Z</time></trkpt><trkpt lat="46.01608939309984" lon="9.236196676511646"><ele>229.0</ele><time>2026-04-26T10:35:26Z</time></trkpt><trkpt lat="46.01590527188701" lon="9.236186711779512"><ele>231.0</ele><time>2026-04-26T10:35:27Z</time></trkpt><trkpt lat="46.01573408391292" lon="9.236181651459136"><ele>233.0</ele><time>2026-04-26T10:35:28Z</time></trkpt><trkpt lat="46.01558215951035" lon="9.236210393205889"><ele>235.0</ele><time>2026-04-26T10:35:29Z</time></trkpt><trkpt lat="46.01543586696795" lon="9.236289157684455"><ele>235.0</ele><time>2026-04-26T10:35:30Z</time></trkpt><trkpt lat="46.01530208653765" lon="9.236434469277993"><ele>235.0</ele><time>2026-04-26T10:35:31Z</time></trkpt><trkpt lat="46.0151813662397" lon="9.236602097604147"><ele>235.0</ele><time>2026-04-26T10:35:32Z</time></trkpt><trkpt lat="46.015057947239406" lon="9.23675565474441"><ele>230.5</ele><time>2026-04-26T10:35:33Z</time></trkpt><trkpt lat="46.01492745114583" lon="9.236869128205432"><ele>226.0</ele><time>2026-04-26T10:35:34Z</time></trkpt><trkpt lat="46.01479791704089" lon="9.236932333524267"><ele>221.5</ele><time>2026-04-26T10:35:35Z</time></trkpt><trkpt lat="46.01466152322663" lon="9.236949408921802"><ele>217.0</ele><time>2026-04-26T10:35:36Z</time></trkpt><trkpt lat="46.014516752166884" lon="9.236893439259651"><ele>217.0</ele><time>2026-04-26T10:35:37Z</time></trkpt><trkpt lat="46.01436955539059" lon="9.236843197539036"><ele>217.0</ele><time>2026-04-26T10:35:38Z</time></trkpt><trkpt lat="46.014237159332126" lon="9.236755606868806"><ele>217.0</ele><time>2026-04-26T10:35:39Z</time></trkpt><trkpt lat="46.01410140912401" lon="9.236635691344562"><ele>215.66666666666666</ele><time>2026-04-26T10:35:40Z</time></trkpt><trkpt lat="46.013960569669095" lon="9.236495428974038"><ele>214.33333333333331</ele><time>2026-04-26T10:35:41Z</time></trkpt><trkpt lat="46.01380341389424" lon="9.236368602846438"><ele>213.0</ele><time>2026-04-26T10:35:42Z</time></trkpt><trkpt lat="46.01365512671336" lon="9.236241381069165"><ele>216.0</ele><time>2026-04-26T10:35:43Z</time></trkpt><trkpt lat="46.01348610840991" lon="9.236179645409093"><ele>219.0</ele><time>2026-04-26T10:35:44Z</time></trkpt><trkpt lat="46.01332004147201" lon="9.23614004185882"><ele>222.0</ele><time>2026-04-26T10:35:45Z</time></trkpt><trkpt lat="46.01314640161605" lon="9.236125382398106"><ele>222.0</ele><time>2026-04-26T10:35:46Z</time></trkpt><trkpt lat="46.01295888249121" lon="9.236118029790768"><ele>222.0</ele><time>2026-04-26T10:35:47Z</time></trkpt><trkpt lat="46.01278745424646" lon="9.236089999815718"><ele>222.0</ele><time>2026-04-26T10:35:48Z</time></trkpt><trkpt lat="46.01263247092668" lon="9.236037890368081"><ele>222.0</ele><time>2026-04-26T10:35:49.001Z</time></trkpt><trkpt lat="46.012494711995934" lon="9.235945704055485"><ele>222.0</ele><time>2026-04-26T10:35:50.001Z</time></trkpt><trkpt lat="46.01235894411399" lon="9.235831932560375"><ele>222.0</ele><time>2026-04-26T10:35:51.001Z</time></trkpt><trkpt lat="46.01222160534238" lon="9.235693901088263"><ele>231.33333333333331</ele><time>2026-04-26T10:35:52.001Z</time></trkpt><trkpt lat="46.01209164397272" lon="9.23556826130652"><ele>240.66666666666666</ele><time>2026-04-26T10:35:53.001Z</time></trkpt><trkpt lat="46.011970339636015" lon="9.235469494012193"><ele>250.0</ele><time>2026-04-26T10:35:54.001Z</time></trkpt><trkpt lat="46.011829970890844" lon="9.23537700587705"><ele>250.0</ele><time>2026-04-26T10:35:55.001Z</time></trkpt><trkpt lat="46.01169824281824" lon="9.235328713072011"><ele>250.0</ele><time>2026-04-26T10:35:56.001Z</time></trkpt><trkpt lat="46.011546986396596" lon="9.235302956907498"><ele>250.0</ele><time>2026-04-26T10:35:57.001Z</time></trkpt><trkpt lat="46.0113930767886" lon="9.235286094271055"><ele>250.0</ele><time>2026-04-26T10:35:58.001Z</time></trkpt><trkpt lat="46.01124253935829" lon="9.235268891475236"><ele>247.33333333333331</ele><time>2026-04-26T10:35:59.001Z</time></trkpt><trkpt lat="46.011076554655624" lon="9.23524942019077"><ele>244.66666666666669</ele><time>2026-04-26T10:36:00.021Z</time></trkpt><trkpt lat="46.010905001372244" lon="9.235229295674975"><ele>242.0</ele><time>2026-04-26T10:36:01.014Z</time></trkpt><trkpt lat="46.01072399588352" lon="9.235208667134984"><ele>236.5</ele><time>2026-04-26T10:36:02.015Z</time></trkpt><trkpt lat="46.010549721484985" lon="9.235195868753223"><ele>231.0</ele><time>2026-04-26T10:36:03.001Z</time></trkpt><trkpt lat="46.01027741943313" lon="9.23509602185183"><ele>231.0</ele><time>2026-04-26T10:36:04.001Z</time></trkpt><trkpt lat="46.01008199650123" lon="9.235041694452406"><ele>231.0</ele><time>2026-04-26T10:36:05.001Z</time></trkpt><trkpt lat="46.00985678163363" lon="9.235048579770579"><ele>231.0</ele><time>2026-04-26T10:36:06.001Z</time></trkpt><trkpt lat="46.00967872474332" lon="9.234945642948919"><ele>232.33333333333331</ele><time>2026-04-26T10:36:07.001Z</time></trkpt><trkpt lat="46.00949941169232" lon="9.234846133730231"><ele>233.66666666666666</ele><time>2026-04-26T10:36:08.001Z</time></trkpt><trkpt lat="46.00932580987609" lon="9.2347860356419"><ele>235.0</ele><time>2026-04-26T10:36:09.001Z</time></trkpt><trkpt lat="46.00913199192881" lon="9.234776002744791"><ele>235.0</ele><time>2026-04-26T10:36:10.001Z</time></trkpt><trkpt lat="46.00893953660552" lon="9.234780621280526"><ele>235.0</ele><time>2026-04-26T10:36:11.001Z</time></trkpt><trkpt lat="46.008770410087706" lon="9.234856517835542"><ele>235.0</ele><time>2026-04-26T10:36:12.001Z</time></trkpt><trkpt lat="46.008599700703634" lon="9.234895348033682"><ele>229.33333333333331</ele><time>2026-04-26T10:36:13.001Z</time></trkpt><trkpt lat="46.008443376108865" lon="9.234829023372475"><ele>223.66666666666669</ele><time>2026-04-26T10:36:14.001Z</time></trkpt><trkpt lat="46.00828370679684" lon="9.234755319148011"><ele>218.0</ele><time>2026-04-26T10:36:15.001Z</time></trkpt><trkpt lat="46.00810938669637" lon="9.234674320109455"><ele>218.0</ele><time>2026-04-26T10:36:16.001Z</time></trkpt><trkpt lat="46.007946002174" lon="9.234598404219149"><ele>218.0</ele><time>2026-04-26T10:36:17.001Z</time></trkpt><trkpt lat="46.00777925734023" lon="9.23452111143714"><ele>218.0</ele><time>2026-04-26T10:36:18.001Z</time></trkpt><trkpt lat="46.007600934859894" lon="9.23444069723054"><ele>215.0</ele><time>2026-04-26T10:36:19.001Z</time></trkpt><trkpt lat="46.007429848795375" lon="9.234391584809783"><ele>212.0</ele><time>2026-04-26T10:36:20.001Z</time></trkpt><trkpt lat="46.00726519610814" lon="9.234305487943795"><ele>209.0</ele><time>2026-04-26T10:36:21.001Z</time></trkpt><trkpt lat="46.00708880849586" lon="9.234257984791178"><ele>209.0</ele><time>2026-04-26T10:36:22.001Z</time></trkpt><trkpt lat="46.00692329423262" lon="9.234205680909495"><ele>209.0</ele><time>2026-04-26T10:36:23.001Z</time></trkpt><trkpt lat="46.006756498784526" lon="9.234162236656422"><ele>209.0</ele><time>2026-04-26T10:36:24.001Z</time></trkpt><trkpt lat="46.006604598743415" lon="9.234137263106298"><ele>207.75</ele><time>2026-04-26T10:36:25.001Z</time></trkpt><trkpt lat="46.00646599162151" lon="9.234111045878086"><ele>206.5</ele><time>2026-04-26T10:36:26.001Z</time></trkpt><trkpt lat="46.00633432363413" lon="9.234058444699127"><ele>205.25</ele><time>2026-04-26T10:36:27.001Z</time></trkpt><trkpt lat="46.00621149720141" lon="9.233993641325819"><ele>204.0</ele><time>2026-04-26T10:36:28.001Z</time></trkpt><trkpt lat="46.00610366168123" lon="9.233882721076743"><ele>204.5</ele><time>2026-04-26T10:36:29.001Z</time></trkpt><trkpt lat="46.00593135202435" lon="9.233797728970709"><ele>205.0</ele><time>2026-04-26T10:36:30.001Z</time></trkpt><trkpt lat="46.00577203355236" lon="9.23383043617586"><ele>205.5</ele><time>2026-04-26T10:36:31.001Z</time></trkpt><trkpt lat="46.005724801145384" lon="9.233890403492746"><ele>206.0</ele><time>2026-04-26T10:36:32.001Z</time></trkpt><trkpt lat="46.005591148123685" lon="9.233982116348566"><ele>206.0</ele><time>2026-04-26T10:36:33.001Z</time></trkpt><trkpt lat="46.005455009259855" lon="9.23404792049497"><ele>206.0</ele><time>2026-04-26T10:36:34.001Z</time></trkpt><trkpt lat="46.005305517970314" lon="9.234127533657333"><ele>206.0</ele><time>2026-04-26T10:36:35.001Z</time></trkpt><trkpt lat="46.00515169030028" lon="9.234197959666657"><ele>206.0</ele><time>2026-04-26T10:36:36.001Z</time></trkpt><trkpt lat="46.00500004543449" lon="9.234256689608221"><ele>206.0</ele><time>2026-04-26T10:36:37.001Z</time></trkpt><trkpt lat="46.00485803994703" lon="9.234300478868857"><ele>206.0</ele><time>2026-04-26T10:36:38.001Z</time></trkpt><trkpt lat="46.00473444792061" lon="9.234337459265836"><ele>206.0</ele><time>2026-04-26T10:36:39.001Z</time></trkpt><trkpt lat="46.004620055907466" lon="9.23437299410539"><ele>210.75</ele><time>2026-04-26T10:36:40.001Z</time></trkpt><trkpt lat="46.00450736008974" lon="9.234420027164523"><ele>215.5</ele><time>2026-04-26T10:36:41.001Z</time></trkpt><trkpt lat="46.004390448152726" lon="9.234496804541083"><ele>220.25</ele><time>2026-04-26T10:36:42.001Z</time></trkpt><trkpt lat="46.0042681087462" lon="9.23443003371388"><ele>225.0</ele><time>2026-04-26T10:36:43.001Z</time></trkpt><trkpt lat="46.00414265563083" lon="9.234439233773415"><ele>225.0</ele><time>2026-04-26T10:36:44.001Z</time></trkpt><trkpt lat="46.003997028786834" lon="9.23445084371659"><ele>225.0</ele><time>2026-04-26T10:36:45.001Z</time></trkpt><trkpt lat="46.003842210521455" lon="9.234463321618477"><ele>225.0</ele><time>2026-04-26T10:36:46.001Z</time></trkpt><trkpt lat="46.00368465625509" lon="9.23447742089673"><ele>225.0</ele><time>2026-04-26T10:36:47.001Z</time></trkpt><trkpt lat="46.00354192732682" lon="9.234479591517188"><ele>225.0</ele><time>2026-04-26T10:36:48.001Z</time></trkpt><trkpt lat="46.003390686336274" lon="9.234448936925952"><ele>225.0</ele><time>2026-04-26T10:36:49.001Z</time></trkpt><trkpt lat="46.003228720835814" lon="9.234403049468655"><ele>223.66666666666669</ele><time>2026-04-26T10:36:50.001Z</time></trkpt><trkpt lat="46.003081364238255" lon="9.234415365435172"><ele>222.33333333333334</ele><time>2026-04-26T10:36:51.001Z</time></trkpt><trkpt lat="46.00293668023629" lon="9.23443146634735"><ele>221.0</ele><time>2026-04-26T10:36:52.001Z</time></trkpt><trkpt lat="46.002775492186665" lon="9.23451693702196"><ele>221.0</ele><time>2026-04-26T10:36:53.001Z</time></trkpt><trkpt lat="46.00259880511536" lon="9.234622187512194"><ele>221.0</ele><time>2026-04-26T10:36:54Z</time></trkpt><trkpt lat="46.00240078611893" lon="9.23471402622022"><ele>221.0</ele><time>2026-04-26T10:36:55Z</time></trkpt><trkpt lat="46.00223377930367" lon="9.234820037534867"><ele>218.0</ele><time>2026-04-26T10:36:56Z</time></trkpt><trkpt lat="46.00207920425096" lon="9.234922723554728"><ele>215.0</ele><time>2026-04-26T10:36:57Z</time></trkpt><trkpt lat="46.00192717570234" lon="9.23507745535423"><ele>212.0</ele><time>2026-04-26T10:36:58Z</time></trkpt><trkpt lat="46.00177336926049" lon="9.235279903135535"><ele>211.66666666666669</ele><time>2026-04-26T10:36:59Z</time></trkpt><trkpt lat="46.00160253102624" lon="9.235444883647622"><ele>211.33333333333331</ele><time>2026-04-26T10:37:00Z</time></trkpt><trkpt lat="46.00143878550529" lon="9.235623904277372"><ele>211.0</ele><time>2026-04-26T10:37:01Z</time></trkpt><trkpt lat="46.00128382285181" lon="9.23579597033621"><ele>211.0</ele><time>2026-04-26T10:37:02Z</time></trkpt><trkpt lat="46.001142098087335" lon="9.235951004621361"><ele>211.0</ele><time>2026-04-26T10:37:03Z</time></trkpt><trkpt lat="46.001014907987724" lon="9.236115080816095"><ele>211.0</ele><time>2026-04-26T10:37:04Z</time></trkpt><trkpt lat="46.000880644390534" lon="9.23626776771334"><ele>213.33333333333331</ele><time>2026-04-26T10:37:05Z</time></trkpt><trkpt lat="46.00074988682074" lon="9.236414330204047"><ele>215.66666666666669</ele><time>2026-04-26T10:37:06Z</time></trkpt><trkpt lat="46.00061676216885" lon="9.236485701980287"><ele>218.0</ele><time>2026-04-26T10:37:07Z</time></trkpt><trkpt lat="46.00047878748537" lon="9.236567647193338"><ele>213.0</ele><time>2026-04-26T10:37:08Z</time></trkpt><trkpt lat="46.00032567987656" lon="9.236618205266705"><ele>208.0</ele><time>2026-04-26T10:37:09Z</time></trkpt><trkpt lat="46.00015177166312" lon="9.236645066052372"><ele>203.0</ele><time>2026-04-26T10:37:10Z</time></trkpt><trkpt lat="45.999963786740864" lon="9.236658652317653"><ele>203.0</ele><time>2026-04-26T10:37:11Z</time></trkpt><trkpt lat="45.99977424377148" lon="9.236669746064726"><ele>203.0</ele><time>2026-04-26T10:37:12Z</time></trkpt><trkpt lat="45.99958558789794" lon="9.236709535188862"><ele>203.0</ele><time>2026-04-26T10:37:13Z</time></trkpt><trkpt lat="45.99942289941883" lon="9.236789382468675"><ele>203.0</ele><time>2026-04-26T10:37:14Z</time></trkpt><trkpt lat="45.99926910019068" lon="9.236889939741626"><ele>203.0</ele><time>2026-04-26T10:37:15Z</time></trkpt><trkpt lat="45.99912516369255" lon="9.23701670709223"><ele>203.0</ele><time>2026-04-26T10:37:16Z</time></trkpt><trkpt lat="45.99899089516211" lon="9.237167982758072"><ele>201.66666666666669</ele><time>2026-04-26T10:37:17Z</time></trkpt><trkpt lat="45.99885437456054" lon="9.237333530871657"><ele>200.33333333333331</ele><time>2026-04-26T10:37:18Z</time></trkpt><trkpt lat="45.99871721064086" lon="9.237487996974723"><ele>199.0</ele><time>2026-04-26T10:37:19Z</time></trkpt><trkpt lat="45.998575122759966" lon="9.2376332965124"><ele>199.0</ele><time>2026-04-26T10:37:20Z</time></trkpt><trkpt lat="45.998414397372336" lon="9.237775933234824"><ele>199.0</ele><time>2026-04-26T10:37:21Z</time></trkpt><trkpt lat="45.99826202498421" lon="9.237913941264457"><ele>199.0</ele><time>2026-04-26T10:37:22Z</time></trkpt><trkpt lat="45.99810795246755" lon="9.23803038848797"><ele>200.33333333333331</ele><time>2026-04-26T10:37:23Z</time></trkpt><trkpt lat="45.99795043579342" lon="9.238133217988779"><ele>201.66666666666669</ele><time>2026-04-26T10:37:24Z</time></trkpt><trkpt lat="45.99780478223837" lon="9.238218844161398"><ele>203.0</ele><time>2026-04-26T10:37:25Z</time></trkpt><trkpt lat="45.99765590638784" lon="9.23829664602636"><ele>203.0</ele><time>2026-04-26T10:37:26Z</time></trkpt><trkpt lat="45.99750410200899" lon="9.238365236314724"><ele>203.0</ele><time>2026-04-26T10:37:27Z</time></trkpt><trkpt lat="45.997338727960134" lon="9.238420150961952"><ele>203.0</ele><time>2026-04-26T10:37:28Z</time></trkpt><trkpt lat="45.99716308623444" lon="9.238464960769448"><ele>205.0</ele><time>2026-04-26T10:37:29Z</time></trkpt><trkpt lat="45.99695881754293" lon="9.23851003824889"><ele>207.0</ele><time>2026-04-26T10:37:30Z</time></trkpt><trkpt lat="45.996732820664924" lon="9.238549556620862"><ele>209.0</ele><time>2026-04-26T10:37:31Z</time></trkpt><trkpt lat="45.996489817645724" lon="9.238590413527751"><ele>209.5</ele><time>2026-04-26T10:37:32Z</time></trkpt><trkpt lat="45.996248740028065" lon="9.238630946704458"><ele>210.0</ele><time>2026-04-26T10:37:33Z</time></trkpt><trkpt lat="45.99603198473994" lon="9.238686333555664"><ele>211.0</ele><time>2026-04-26T10:37:34Z</time></trkpt><trkpt lat="45.99583162943134" lon="9.238705302954775"><ele>212.0</ele><time>2026-04-26T10:37:35Z</time></trkpt><trkpt lat="45.99562436892604" lon="9.23874055859981"><ele>213.0</ele><time>2026-04-26T10:37:36Z</time></trkpt><trkpt lat="45.99541817122902" lon="9.238819434051738"><ele>213.0</ele><time>2026-04-26T10:37:37Z</time></trkpt><trkpt lat="45.99522788684254" lon="9.238909337239624"><ele>213.0</ele><time>2026-04-26T10:37:38Z</time></trkpt><trkpt lat="45.995049055646454" lon="9.239006365828706"><ele>213.0</ele><time>2026-04-26T10:37:39Z</time></trkpt><trkpt lat="45.99488110061871" lon="9.23910390394251"><ele>210.5</ele><time>2026-04-26T10:37:40Z</time></trkpt><trkpt lat="45.9947281144832" lon="9.239195932999879"><ele>208.0</ele><time>2026-04-26T10:37:41Z</time></trkpt><trkpt lat="45.994594604475516" lon="9.239225071904611"><ele>205.5</ele><time>2026-04-26T10:37:42Z</time></trkpt><trkpt lat="45.994482260229276" lon="9.239192796852768"><ele>203.0</ele><time>2026-04-26T10:37:43Z</time></trkpt><trkpt lat="45.99435245801324" lon="9.239143419875413"><ele>203.0</ele><time>2026-04-26T10:37:44Z</time></trkpt><trkpt lat="45.99421323763318" lon="9.239090541311102"><ele>203.0</ele><time>2026-04-26T10:37:45Z</time></trkpt><trkpt lat="45.99411050860788" lon="9.239051522855647"><ele>203.0</ele><time>2026-04-26T10:37:46Z</time></trkpt><trkpt lat="45.994024517575035" lon="9.239023925999229"><ele>203.0</ele><time>2026-04-26T10:37:47Z</time></trkpt><trkpt lat="45.993953539139206" lon="9.23900262795223"><ele>203.0</ele><time>2026-04-26T10:37:48Z</time></trkpt><trkpt lat="45.99387027465556" lon="9.238952752898417"><ele>205.00000000000003</ele><time>2026-04-26T10:37:50Z</time></trkpt><trkpt lat="45.9937912197472" lon="9.238886925965186"><ele>207.0</ele><time>2026-04-26T10:38:05Z</time></trkpt><trkpt lat="45.99372862067864" lon="9.238848364625285"><ele>209.0</ele><time>2026-04-26T10:38:07Z</time></trkpt><trkpt lat="45.99363802445524" lon="9.238823338966705"><ele>211.0</ele><time>2026-04-26T10:38:10Z</time></trkpt><trkpt lat="45.99354980646022" lon="9.238784352950736"><ele>213.00000000000003</ele><time>2026-04-26T10:38:12Z</time></trkpt><trkpt lat="45.993477194556036" lon="9.238752089587857"><ele>215.0</ele><time>2026-04-26T10:38:13Z</time></trkpt><trkpt lat="45.99341404621631" lon="9.238718887167618"><ele>213.8</ele><time>2026-04-26T10:38:14Z</time></trkpt><trkpt lat="45.993331891573156" lon="9.238683903572738"><ele>212.6</ele><time>2026-04-26T10:38:15Z</time></trkpt><trkpt lat="45.99326238171036" lon="9.238642582536157"><ele>211.39999999999998</ele><time>2026-04-26T10:38:16Z</time></trkpt><trkpt lat="45.99317835021113" lon="9.238596843472173"><ele>210.2</ele><time>2026-04-26T10:38:17Z</time></trkpt><trkpt lat="45.99308899870549" lon="9.238551147645337"><ele>209.0</ele><time>2026-04-26T10:38:18Z</time></trkpt><trkpt lat="45.99299105300756" lon="9.238480081532536"><ele>209.0</ele><time>2026-04-26T10:38:19Z</time></trkpt><trkpt lat="45.99287143019308" lon="9.238425163660418"><ele>209.0</ele><time>2026-04-26T10:38:20Z</time></trkpt><trkpt lat="45.992763221152785" lon="9.238375485758572"><ele>209.0</ele><time>2026-04-26T10:38:21Z</time></trkpt><trkpt lat="45.99265077897835" lon="9.23832289354174"><ele>209.0</ele><time>2026-04-26T10:38:22Z</time></trkpt><trkpt lat="45.992544592793756" lon="9.23827243954554"><ele>208.39999999999998</ele><time>2026-04-26T10:38:23Z</time></trkpt><trkpt lat="45.99244205240428" lon="9.238221684855919"><ele>207.8</ele><time>2026-04-26T10:38:24Z</time></trkpt><trkpt lat="45.99235021059302" lon="9.238170535243977"><ele>207.2</ele><time>2026-04-26T10:38:25Z</time></trkpt><trkpt lat="45.992256434315024" lon="9.23811654825331"><ele>206.60000000000002</ele><time>2026-04-26T10:38:26Z</time></trkpt><trkpt lat="45.99215768732295" lon="9.238056049132403"><ele>206.0</ele><time>2026-04-26T10:38:27Z</time></trkpt><trkpt lat="45.992071987764916" lon="9.238004098542753"><ele>207.33333333333334</ele><time>2026-04-26T10:38:28Z</time></trkpt><trkpt lat="45.99197876451975" lon="9.237951618128537"><ele>208.66666666666669</ele><time>2026-04-26T10:38:29Z</time></trkpt><trkpt lat="45.99187816170667" lon="9.237894983372568"><ele>210.0</ele><time>2026-04-26T10:38:30Z</time></trkpt><trkpt lat="45.99181034893135" lon="9.237856906723382"><ele>211.33333333333331</ele><time>2026-04-26T10:38:31Z</time></trkpt><trkpt lat="45.99174926607212" lon="9.237822701083616"><ele>212.66666666666666</ele><time>2026-04-26T10:38:32Z</time></trkpt><trkpt lat="45.991681330696025" lon="9.237784658113762"><ele>214.0</ele><time>2026-04-26T10:38:33Z</time></trkpt><trkpt lat="45.99156421155379" lon="9.237719072840754"><ele>214.0</ele><time>2026-04-26T10:38:35Z</time></trkpt><trkpt lat="45.991488247097344" lon="9.237676102448567"><ele>213.99999999999997</ele><time>2026-04-26T10:38:36Z</time></trkpt><trkpt lat="45.991395494378615" lon="9.237622914745888"><ele>213.99999999999997</ele><time>2026-04-26T10:38:37Z</time></trkpt><trkpt lat="45.99130811636039" lon="9.237572300132465"><ele>214.0</ele><time>2026-04-26T10:38:38Z</time></trkpt><trkpt lat="45.99119928643043" lon="9.237508898806915"><ele>214.0</ele><time>2026-04-26T10:38:39Z</time></trkpt><trkpt lat="45.991034382020985" lon="9.237412830001546"><ele>214.0</ele><time>2026-04-26T10:38:40Z</time></trkpt><trkpt lat="45.9908696078793" lon="9.237315489743713"><ele>214.0</ele><time>2026-04-26T10:38:41Z</time></trkpt><trkpt lat="45.990698428450614" lon="9.237215116137053"><ele>214.0</ele><time>2026-04-26T10:38:42Z</time></trkpt><trkpt lat="45.9905424264641" lon="9.237127797267682"><ele>213.75</ele><time>2026-04-26T10:38:43Z</time></trkpt><trkpt lat="45.99040068803606" lon="9.237051817164202"><ele>213.5</ele><time>2026-04-26T10:38:44.001Z</time></trkpt><trkpt lat="45.990262699692344" lon="9.236996676864635"><ele>213.25</ele><time>2026-04-26T10:38:45.001Z</time></trkpt><trkpt lat="45.990130306402804" lon="9.23691032546672"><ele>213.0</ele><time>2026-04-26T10:38:46.001Z</time></trkpt><trkpt lat="45.990007107050985" lon="9.236836163351002"><ele>213.0</ele><time>2026-04-26T10:38:47Z</time></trkpt><trkpt lat="45.989898297856506" lon="9.236748281828293"><ele>213.0</ele><time>2026-04-26T10:38:48Z</time></trkpt><trkpt lat="45.98979156627197" lon="9.23665237648403"><ele>213.0</ele><time>2026-04-26T10:38:49Z</time></trkpt><trkpt lat="45.98969196207735" lon="9.236580378326838"><ele>213.0</ele><time>2026-04-26T10:38:50Z</time></trkpt><trkpt lat="45.98959453207918" lon="9.236488255824248"><ele>213.75</ele><time>2026-04-26T10:38:51Z</time></trkpt><trkpt lat="45.98949069690295" lon="9.236406208141563"><ele>214.5</ele><time>2026-04-26T10:38:52Z</time></trkpt><trkpt lat="45.98937762809689" lon="9.236340012104213"><ele>215.25</ele><time>2026-04-26T10:38:53Z</time></trkpt><trkpt lat="45.989269322812355" lon="9.23623545426867"><ele>216.0</ele><time>2026-04-26T10:38:54Z</time></trkpt><trkpt lat="45.989128334939544" lon="9.236136326122033"><ele>216.0</ele><time>2026-04-26T10:38:55Z</time></trkpt><trkpt lat="45.98902223574187" lon="9.236066716698378"><ele>216.0</ele><time>2026-04-26T10:38:56Z</time></trkpt><trkpt lat="45.98894211426836" lon="9.236023810384163"><ele>216.0</ele><time>2026-04-26T10:38:57Z</time></trkpt><trkpt lat="45.98890856077976" lon="9.235913717226357"><ele>216.0</ele><time>2026-04-26T10:38:58Z</time></trkpt><trkpt lat="45.98874763252498" lon="9.235865447693717"><ele>216.0</ele><time>2026-04-26T10:38:59Z</time></trkpt><trkpt lat="45.98863851733755" lon="9.235772913719021"><ele>216.0</ele><time>2026-04-26T10:39:00Z</time></trkpt><trkpt lat="45.98852178352314" lon="9.235667376556457"><ele>216.0</ele><time>2026-04-26T10:39:01Z</time></trkpt><trkpt lat="45.98841731022751" lon="9.23557012292101"><ele>216.0</ele><time>2026-04-26T10:39:02Z</time></trkpt><trkpt lat="45.98831454841421" lon="9.235483222755278"><ele>214.4</ele><time>2026-04-26T10:39:03Z</time></trkpt><trkpt lat="45.988215850569475" lon="9.23539840257374"><ele>212.8</ele><time>2026-04-26T10:39:04Z</time></trkpt><trkpt lat="45.98813104672837" lon="9.235302561090313"><ele>211.20000000000002</ele><time>2026-04-26T10:39:05Z</time></trkpt><trkpt lat="45.9880551655331" lon="9.235193928126458"><ele>209.60000000000002</ele><time>2026-04-26T10:39:06Z</time></trkpt><trkpt lat="45.987998884220545" lon="9.23504447498796"><ele>208.0</ele><time>2026-04-26T10:39:07Z</time></trkpt><trkpt lat="45.98792394809178" lon="9.234860924554663"><ele>211.75</ele><time>2026-04-26T10:39:08Z</time></trkpt><trkpt lat="45.98785531187602" lon="9.234692811849117"><ele>215.5</ele><time>2026-04-26T10:39:09Z</time></trkpt><trkpt lat="45.98778581665731" lon="9.234520010632338"><ele>219.25</ele><time>2026-04-26T10:39:10Z</time></trkpt><trkpt lat="45.98771290050602" lon="9.234334557741159"><ele>223.0</ele><time>2026-04-26T10:39:11Z</time></trkpt><trkpt lat="45.98762477571963" lon="9.234184086675192"><ele>223.0</ele><time>2026-04-26T10:39:12Z</time></trkpt><trkpt lat="45.987553560131516" lon="9.234038307508431"><ele>223.0</ele><time>2026-04-26T10:39:13Z</time></trkpt><trkpt lat="45.987472994952164" lon="9.233900915808022"><ele>223.0</ele><time>2026-04-26T10:39:14Z</time></trkpt><trkpt lat="45.98740821134827" lon="9.2337530647203"><ele>223.0</ele><time>2026-04-26T10:39:15Z</time></trkpt><trkpt lat="45.987353415477386" lon="9.233622217732373"><ele>222.2</ele><time>2026-04-26T10:39:16Z</time></trkpt><trkpt lat="45.98730091096994" lon="9.23347220650442"><ele>221.4</ele><time>2026-04-26T10:39:17Z</time></trkpt><trkpt lat="45.98723721455724" lon="9.233351437602057"><ele>220.59999999999997</ele><time>2026-04-26T10:39:18Z</time></trkpt><trkpt lat="45.987175567429546" lon="9.23324141082687"><ele>219.79999999999998</ele><time>2026-04-26T10:39:19Z</time></trkpt><trkpt lat="45.98712288722455" lon="9.233155687295804"><ele>219.0</ele><time>2026-04-26T10:39:20Z</time></trkpt><trkpt lat="45.98704307631167" lon="9.233002144161256"><ele>223.25</ele><time>2026-04-26T10:39:22Z</time></trkpt><trkpt lat="45.986977515106" lon="9.232890324956784"><ele>227.5</ele><time>2026-04-26T10:39:23Z</time></trkpt><trkpt lat="45.986897022874636" lon="9.232750303510599"><ele>231.75</ele><time>2026-04-26T10:39:24Z</time></trkpt><trkpt lat="45.98681509589313" lon="9.23260053533067"><ele>236.0</ele><time>2026-04-26T10:39:25Z</time></trkpt><trkpt lat="45.98673375111901" lon="9.232456466278173"><ele>231.75</ele><time>2026-04-26T10:39:26Z</time></trkpt><trkpt lat="45.98665577874365" lon="9.232312474450824"><ele>227.5</ele><time>2026-04-26T10:39:27Z</time></trkpt><trkpt lat="45.98657676939107" lon="9.232174783682932"><ele>223.25</ele><time>2026-04-26T10:39:28Z</time></trkpt><trkpt lat="45.98650678411827" lon="9.23203098406586"><ele>219.0</ele><time>2026-04-26T10:39:29Z</time></trkpt><trkpt lat="45.98642757111005" lon="9.231900505977787"><ele>219.0</ele><time>2026-04-26T10:39:30Z</time></trkpt><trkpt lat="45.98631699127494" lon="9.231791242246137"><ele>219.0</ele><time>2026-04-26T10:39:31Z</time></trkpt><trkpt lat="45.986218823124055" lon="9.231684125781571"><ele>219.0</ele><time>2026-04-26T10:39:32Z</time></trkpt><trkpt lat="45.986124421038426" lon="9.231563074936261"><ele>219.0</ele><time>2026-04-26T10:39:33Z</time></trkpt><trkpt lat="45.98602973356574" lon="9.231402906103725"><ele>217.25</ele><time>2026-04-26T10:39:34Z</time></trkpt><trkpt lat="45.98596321058358" lon="9.23121409811345"><ele>215.5</ele><time>2026-04-26T10:39:35Z</time></trkpt><trkpt lat="45.98588898762357" lon="9.231049756249416"><ele>213.75</ele><time>2026-04-26T10:39:36Z</time></trkpt><trkpt lat="45.985804045568784" lon="9.230927417043524"><ele>212.0</ele><time>2026-04-26T10:39:37Z</time></trkpt><trkpt lat="45.98572767505105" lon="9.23080244510595"><ele>212.0</ele><time>2026-04-26T10:39:38Z</time></trkpt><trkpt lat="45.98566420035747" lon="9.230683760374776"><ele>212.0</ele><time>2026-04-26T10:39:39Z</time></trkpt><trkpt lat="45.98563738998309" lon="9.230537152642928"><ele>212.0</ele><time>2026-04-26T10:39:40Z</time></trkpt><trkpt lat="45.98559772576403" lon="9.23038842729633"><ele>212.0</ele><time>2026-04-26T10:39:41Z</time></trkpt><trkpt lat="45.98555961434533" lon="9.230254282057755"><ele>212.0</ele><time>2026-04-26T10:39:42Z</time></trkpt><trkpt lat="45.98553051301365" lon="9.23014057399158"><ele>214.33333333333334</ele><time>2026-04-26T10:39:43Z</time></trkpt><trkpt lat="45.98550083988705" lon="9.230060009844319"><ele>216.66666666666669</ele><time>2026-04-26T10:39:44Z</time></trkpt><trkpt lat="45.98547291097619" lon="9.229978019107223"><ele>219.0</ele><time>2026-04-26T10:39:45Z</time></trkpt><trkpt lat="45.98542642274607" lon="9.22980595794891"><ele>221.33333333333331</ele><time>2026-04-26T10:39:47Z</time></trkpt><trkpt lat="45.98538302737432" lon="9.229705667020394"><ele>223.66666666666666</ele><time>2026-04-26T10:39:48Z</time></trkpt><trkpt lat="45.98533473278227" lon="9.22964450230156"><ele>226.0</ele><time>2026-04-26T10:39:49Z</time></trkpt><trkpt lat="45.98528839301407" lon="9.229541821177648"><ele>224.99999999999997</ele><time>2026-04-26T10:39:52Z</time></trkpt><trkpt lat="45.98523055194263" lon="9.229436416349278"><ele>224.0</ele><time>2026-04-26T10:39:55Z</time></trkpt><trkpt lat="45.985191718370785" lon="9.229361939957775"><ele>223.0</ele><time>2026-04-26T10:39:58Z</time></trkpt><trkpt lat="45.98514525820567" lon="9.229261682152124"><ele>222.0</ele><time>2026-04-26T10:40:05Z</time></trkpt><trkpt lat="45.98509267037018" lon="9.2291667867808"><ele>220.99999999999997</ele><time>2026-04-26T10:40:06Z</time></trkpt><trkpt lat="45.985037625825946" lon="9.229069908039898"><ele>220.0</ele><time>2026-04-26T10:40:07Z</time></trkpt><trkpt lat="45.98498984857421" lon="9.228963694179187"><ele>220.0</ele><time>2026-04-26T10:40:08Z</time></trkpt><trkpt lat="45.98493402287103" lon="9.228867577074352"><ele>220.0</ele><time>2026-04-26T10:40:09Z</time></trkpt><trkpt lat="45.984892430973844" lon="9.228793044485403"><ele>220.0</ele><time>2026-04-26T10:40:10Z</time></trkpt><trkpt lat="45.98481873149509" lon="9.228703536124021"><ele>220.0</ele><time>2026-04-26T10:40:12Z</time></trkpt><trkpt lat="45.98475565941648" lon="9.228594364836377"><ele>220.0</ele><time>2026-04-26T10:40:14Z</time></trkpt><trkpt lat="45.98465578304775" lon="9.2284694775852"><ele>220.0</ele><time>2026-04-26T10:40:16Z</time></trkpt><trkpt lat="45.98459929446534" lon="9.22839409556708"><ele>220.0</ele><time>2026-04-26T10:40:17Z</time></trkpt><trkpt lat="45.9845565366104" lon="9.22832218693358"><ele>220.0</ele><time>2026-04-26T10:40:18Z</time></trkpt><trkpt lat="45.98448565600613" lon="9.228180447477323"><ele>220.0</ele><time>2026-04-26T10:40:20Z</time></trkpt><trkpt lat="45.98439535186099" lon="9.228059838388528"><ele>220.0</ele><time>2026-04-26T10:40:22Z</time></trkpt><trkpt lat="45.984324472539505" lon="9.227994909589672"><ele>220.83333333333331</ele><time>2026-04-26T10:40:23Z</time></trkpt><trkpt lat="45.984254228593954" lon="9.227924950375833"><ele>221.66666666666666</ele><time>2026-04-26T10:40:24Z</time></trkpt><trkpt lat="45.984198289002954" lon="9.227847186380059"><ele>222.5</ele><time>2026-04-26T10:40:25Z</time></trkpt><trkpt lat="45.984142129328774" lon="9.227778934409985"><ele>223.33333333333331</ele><time>2026-04-26T10:40:26Z</time></trkpt><trkpt lat="45.98408885365696" lon="9.227709876182306"><ele>224.16666666666666</ele><time>2026-04-26T10:40:27Z</time></trkpt><trkpt lat="45.98403675624339" lon="9.227635324015761"><ele>225.0</ele><time>2026-04-26T10:40:28Z</time></trkpt><trkpt lat="45.98396940985868" lon="9.227556997837159"><ele>224.83333333333334</ele><time>2026-04-26T10:40:29Z</time></trkpt><trkpt lat="45.98391935792003" lon="9.22744938033697"><ele>224.66666666666669</ele><time>2026-04-26T10:40:30Z</time></trkpt><trkpt lat="45.983864609116374" lon="9.227367115203215"><ele>224.5</ele><time>2026-04-26T10:40:31Z</time></trkpt><trkpt lat="45.98383873341124" lon="9.227284412130592"><ele>224.33333333333334</ele><time>2026-04-26T10:40:32Z</time></trkpt><trkpt lat="45.98381221475982" lon="9.227179065928432"><ele>224.16666666666669</ele><time>2026-04-26T10:40:35Z</time></trkpt><trkpt lat="45.9837655819657" lon="9.227041399921072"><ele>224.0</ele><time>2026-04-26T10:40:38Z</time></trkpt><trkpt lat="45.983708332257024" lon="9.226910821548573"><ele>224.00000000000003</ele><time>2026-04-26T10:40:40Z</time></trkpt><trkpt lat="45.98365230730667" lon="9.22677728822216"><ele>224.0</ele><time>2026-04-26T10:40:42Z</time></trkpt><trkpt lat="45.98360503502831" lon="9.22665076301251"><ele>224.0</ele><time>2026-04-26T10:40:44Z</time></trkpt><trkpt lat="45.983559607259764" lon="9.226560399065711"><ele>224.0</ele><time>2026-04-26T10:40:46Z</time></trkpt><trkpt lat="45.98352555303711" lon="9.226468081193252"><ele>224.00000000000003</ele><time>2026-04-26T10:40:49Z</time></trkpt><trkpt lat="45.98347996171498" lon="9.226363756196283"><ele>224.0</ele><time>2026-04-26T10:40:53Z</time></trkpt><trkpt lat="45.98342854611156" lon="9.226257817183125"><ele>223.16666666666669</ele><time>2026-04-26T10:40:55Z</time></trkpt><trkpt lat="45.983387130328396" lon="9.226181769119844"><ele>222.33333333333334</ele><time>2026-04-26T10:40:56Z</time></trkpt><trkpt lat="45.98333223421061" lon="9.226092797148077"><ele>221.5</ele><time>2026-04-26T10:40:57Z</time></trkpt><trkpt lat="45.98329216449071" lon="9.225966782572975"><ele>220.66666666666669</ele><time>2026-04-26T10:40:58Z</time></trkpt><trkpt lat="45.98322886316393" lon="9.225847044903189"><ele>219.83333333333334</ele><time>2026-04-26T10:40:59Z</time></trkpt><trkpt lat="45.98317328905712" lon="9.225730896930143"><ele>219.0</ele><time>2026-04-26T10:41:00Z</time></trkpt><trkpt lat="45.983126219854846" lon="9.225612812459854"><ele>219.0</ele><time>2026-04-26T10:41:01Z</time></trkpt><trkpt lat="45.983078427845356" lon="9.225510047911008"><ele>219.0</ele><time>2026-04-26T10:41:02Z</time></trkpt><trkpt lat="45.983038343069566" lon="9.225428014996218"><ele>219.0</ele><time>2026-04-26T10:41:03Z</time></trkpt><trkpt lat="45.98300302881598" lon="9.225346440418656"><ele>219.0</ele><time>2026-04-26T10:41:04Z</time></trkpt><trkpt lat="45.982959415814" lon="9.225250667173635"><ele>219.0</ele><time>2026-04-26T10:41:05Z</time></trkpt><trkpt lat="45.982916764823266" lon="9.225142853023032"><ele>219.0</ele><time>2026-04-26T10:41:06Z</time></trkpt><trkpt lat="45.98289852984539" lon="9.225013177334706"><ele>219.0</ele><time>2026-04-26T10:41:07Z</time></trkpt><trkpt lat="45.982866002747414" lon="9.224917922909318"><ele>219.0</ele><time>2026-04-26T10:41:08Z</time></trkpt><trkpt lat="45.98284712945843" lon="9.224817516181353"><ele>219.0</ele><time>2026-04-26T10:41:09Z</time></trkpt><trkpt lat="45.98284867618794" lon="9.224677603116259"><ele>219.0</ele><time>2026-04-26T10:41:10Z</time></trkpt><trkpt lat="45.98284199571875" lon="9.224553211047512"><ele>219.0</ele><time>2026-04-26T10:41:11Z</time></trkpt><trkpt lat="45.98283984435743" lon="9.224457292651268"><ele>219.0</ele><time>2026-04-26T10:41:12Z</time></trkpt><trkpt lat="45.98282809980756" lon="9.224368176109573"><ele>220.0</ele><time>2026-04-26T10:41:13Z</time></trkpt><trkpt lat="45.98283432420588" lon="9.224266070218464"><ele>220.99999999999997</ele><time>2026-04-26T10:41:14Z</time></trkpt><trkpt lat="45.98282715765479" lon="9.22413701890295"><ele>221.99999999999997</ele><time>2026-04-26T10:41:15Z</time></trkpt><trkpt lat="45.98281805904781" lon="9.223995126619705"><ele>223.0</ele><time>2026-04-26T10:41:16Z</time></trkpt><trkpt lat="45.98279493087902" lon="9.223826285333747"><ele>224.0</ele><time>2026-04-26T10:41:17Z</time></trkpt><trkpt lat="45.9827349681029" lon="9.223653050288593"><ele>225.66666666666669</ele><time>2026-04-26T10:41:18Z</time></trkpt><trkpt lat="45.982657771144076" lon="9.22348797748934"><ele>227.33333333333331</ele><time>2026-04-26T10:41:19Z</time></trkpt><trkpt lat="45.982542147570065" lon="9.223316325149396"><ele>229.0</ele><time>2026-04-26T10:41:20Z</time></trkpt><trkpt lat="45.98242738889605" lon="9.22314199621155"><ele>226.79999999999998</ele><time>2026-04-26T10:41:21Z</time></trkpt><trkpt lat="45.982332851723285" lon="9.223022344508577"><ele>224.59999999999997</ele><time>2026-04-26T10:41:22Z</time></trkpt><trkpt lat="45.98225776731309" lon="9.222915174808108"><ele>222.4</ele><time>2026-04-26T10:41:23Z</time></trkpt><trkpt lat="45.982208883273294" lon="9.222823972219219"><ele>220.2</ele><time>2026-04-26T10:41:24Z</time></trkpt><trkpt lat="45.98215601501419" lon="9.222759442382323"><ele>218.0</ele><time>2026-04-26T10:41:25Z</time></trkpt><trkpt lat="45.982064509818194" lon="9.22262197813085"><ele>218.0</ele><time>2026-04-26T10:41:27Z</time></trkpt><trkpt lat="45.98200067175938" lon="9.222522257385242"><ele>218.0</ele><time>2026-04-26T10:41:28Z</time></trkpt><trkpt lat="45.98190847861572" lon="9.222366141205585"><ele>218.0</ele><time>2026-04-26T10:41:29Z</time></trkpt><trkpt lat="45.9818171689754" lon="9.22216727912921"><ele>218.0</ele><time>2026-04-26T10:41:30Z</time></trkpt><trkpt lat="45.981739516146376" lon="9.221954204985883"><ele>218.0</ele><time>2026-04-26T10:41:31Z</time></trkpt><trkpt lat="45.98170639635495" lon="9.221734958128197"><ele>218.0</ele><time>2026-04-26T10:41:32Z</time></trkpt><trkpt lat="45.98168864356343" lon="9.221490855973466"><ele>218.0</ele><time>2026-04-26T10:41:33Z</time></trkpt><trkpt lat="45.98168984587125" lon="9.221204923477792"><ele>218.0</ele><time>2026-04-26T10:41:34Z</time></trkpt><trkpt lat="45.98170696284879" lon="9.220908250649584"><ele>218.0</ele><time>2026-04-26T10:41:35Z</time></trkpt><trkpt lat="45.98172317501077" lon="9.220620055179307"><ele>218.0</ele><time>2026-04-26T10:41:36Z</time></trkpt><trkpt lat="45.981753279811564" lon="9.220371895439458"><ele>217.75</ele><time>2026-04-26T10:41:37Z</time></trkpt><trkpt lat="45.98175867083217" lon="9.220141474937217"><ele>217.5</ele><time>2026-04-26T10:41:38Z</time></trkpt><trkpt lat="45.98179902178118" lon="9.219943730830536"><ele>217.25</ele><time>2026-04-26T10:41:39Z</time></trkpt><trkpt lat="45.98185310497817" lon="9.219780299340444"><ele>217.0</ele><time>2026-04-26T10:41:40Z</time></trkpt><trkpt lat="45.98192165323222" lon="9.219599372396132"><ele>216.0</ele><time>2026-04-26T10:41:41Z</time></trkpt><trkpt lat="45.98197699852288" lon="9.219414329406797"><ele>215.0</ele><time>2026-04-26T10:41:42Z</time></trkpt><trkpt lat="45.98203912094235" lon="9.219240004773914"><ele>214.0</ele><time>2026-04-26T10:41:43Z</time></trkpt><trkpt lat="45.98209567275484" lon="9.219080436386632"><ele>213.0</ele><time>2026-04-26T10:41:44Z</time></trkpt><trkpt lat="45.98216968709235" lon="9.218926097757352"><ele>212.8</ele><time>2026-04-26T10:41:45Z</time></trkpt><trkpt lat="45.98220371437315" lon="9.218752154177349"><ele>212.60000000000002</ele><time>2026-04-26T10:41:46Z</time></trkpt><trkpt lat="45.98224492363106" lon="9.218604601050396"><ele>212.39999999999998</ele><time>2026-04-26T10:41:47Z</time></trkpt><trkpt lat="45.98227389380724" lon="9.218465014813829"><ele>212.2</ele><time>2026-04-26T10:41:48Z</time></trkpt><trkpt lat="45.98229864575987" lon="9.218331261890626"><ele>212.0</ele><time>2026-04-26T10:41:49Z</time></trkpt><trkpt lat="45.98231797955965" lon="9.218222817984287"><ele>210.8</ele><time>2026-04-26T10:41:50Z</time></trkpt><trkpt lat="45.98234068453932" lon="9.218105997137439"><ele>209.6</ele><time>2026-04-26T10:41:51Z</time></trkpt><trkpt lat="45.982361767329344" lon="9.217972978598812"><ele>208.4</ele><time>2026-04-26T10:41:52Z</time></trkpt><trkpt lat="45.98237390086536" lon="9.21779992702886"><ele>207.20000000000002</ele><time>2026-04-26T10:41:53Z</time></trkpt><trkpt lat="45.98240514914345" lon="9.21762070966019"><ele>206.0</ele><time>2026-04-26T10:41:54Z</time></trkpt><trkpt lat="45.982444535337244" lon="9.217403482217609"><ele>204.66666666666669</ele><time>2026-04-26T10:41:55Z</time></trkpt><trkpt lat="45.98249245077895" lon="9.217186704735136"><ele>203.33333333333331</ele><time>2026-04-26T10:41:56Z</time></trkpt><trkpt lat="45.982547321898885" lon="9.216951158218421"><ele>202.0</ele><time>2026-04-26T10:41:57Z</time></trkpt><trkpt lat="45.98262632907795" lon="9.21670537650827"><ele>208.0</ele><time>2026-04-26T10:41:58Z</time></trkpt><trkpt lat="45.98267154951654" lon="9.216479175350038"><ele>214.0</ele><time>2026-04-26T10:41:59Z</time></trkpt><trkpt lat="45.98266585309123" lon="9.21624593011977"><ele>220.0</ele><time>2026-04-26T10:42:00Z</time></trkpt><trkpt lat="45.98266653926764" lon="9.216026797232551"><ele>220.0</ele><time>2026-04-26T10:42:01Z</time></trkpt><trkpt lat="45.98265908724111" lon="9.215839196259072"><ele>220.0</ele><time>2026-04-26T10:42:02Z</time></trkpt><trkpt lat="45.98248861375104" lon="9.21548549524724"><ele>220.0</ele><time>2026-04-26T10:42:03Z</time></trkpt><trkpt lat="45.98237681441751" lon="9.215249240765162"><ele>218.33333333333331</ele><time>2026-04-26T10:42:04Z</time></trkpt><trkpt lat="45.98225314528856" lon="9.215046230370731"><ele>216.66666666666669</ele><time>2026-04-26T10:42:05Z</time></trkpt><trkpt lat="45.98217119285044" lon="9.214852245734171"><ele>215.0</ele><time>2026-04-26T10:42:06Z</time></trkpt><trkpt lat="45.98209822109011" lon="9.214642941158925"><ele>215.0</ele><time>2026-04-26T10:42:07Z</time></trkpt><trkpt lat="45.982004681436344" lon="9.214477304120331"><ele>215.0</ele><time>2026-04-26T10:42:08Z</time></trkpt><trkpt lat="45.98189582152231" lon="9.214360927634088"><ele>215.0</ele><time>2026-04-26T10:42:09Z</time></trkpt><trkpt lat="45.98179616268891" lon="9.214272825359538"><ele>215.0</ele><time>2026-04-26T10:42:10Z</time></trkpt><trkpt lat="45.98171952561866" lon="9.214156615108173"><ele>213.75</ele><time>2026-04-26T10:42:11Z</time></trkpt><trkpt lat="45.98164883612226" lon="9.213989976584104"><ele>212.5</ele><time>2026-04-26T10:42:12Z</time></trkpt><trkpt lat="45.98156658343041" lon="9.213821967306874"><ele>211.25</ele><time>2026-04-26T10:42:13Z</time></trkpt><trkpt lat="45.98148572137475" lon="9.213643903542328"><ele>210.0</ele><time>2026-04-26T10:42:14Z</time></trkpt><trkpt lat="45.98142237763343" lon="9.213487205077996"><ele>210.0</ele><time>2026-04-26T10:42:15Z</time></trkpt><trkpt lat="45.981374978061545" lon="9.213326055956632"><ele>210.0</ele><time>2026-04-26T10:42:16Z</time></trkpt><trkpt lat="45.98133852481517" lon="9.213180991849972"><ele>210.0</ele><time>2026-04-26T10:42:17Z</time></trkpt><trkpt lat="45.98129320424398" lon="9.212966409714157"><ele>210.0</ele><time>2026-04-26T10:42:18Z</time></trkpt><trkpt lat="45.981247716715124" lon="9.212739381831556"><ele>211.0</ele><time>2026-04-26T10:42:19Z</time></trkpt><trkpt lat="45.981204618984655" lon="9.212524281515925"><ele>212.0</ele><time>2026-04-26T10:42:20Z</time></trkpt><trkpt lat="45.9811585328389" lon="9.212333678512035"><ele>213.0</ele><time>2026-04-26T10:42:21Z</time></trkpt><trkpt lat="45.981123372814054" lon="9.21215840451034"><ele>214.0</ele><time>2026-04-26T10:42:22Z</time></trkpt><trkpt lat="45.98112201243826" lon="9.211973146555293"><ele>214.5</ele><time>2026-04-26T10:42:23Z</time></trkpt><trkpt lat="45.98114022228326" lon="9.211778335532667"><ele>215.0</ele><time>2026-04-26T10:42:24Z</time></trkpt><trkpt lat="45.98115797669851" lon="9.211581926756713"><ele>215.5</ele><time>2026-04-26T10:42:25Z</time></trkpt><trkpt lat="45.9811805399992" lon="9.211331845484944"><ele>216.0</ele><time>2026-04-26T10:42:26Z</time></trkpt><trkpt lat="45.9812781761775" lon="9.211107544068957"><ele>216.0</ele><time>2026-04-26T10:42:27Z</time></trkpt><trkpt lat="45.98136665337964" lon="9.21083611773418"><ele>216.0</ele><time>2026-04-26T10:42:28Z</time></trkpt><trkpt lat="45.98129131518949" lon="9.210584635218773"><ele>216.0</ele><time>2026-04-26T10:42:29Z</time></trkpt><trkpt lat="45.98122441970533" lon="9.210476012307057"><ele>216.0</ele><time>2026-04-26T10:42:30Z</time></trkpt><trkpt lat="45.981188789326296" lon="9.21033454547919"><ele>216.0</ele><time>2026-04-26T10:42:31Z</time></trkpt><trkpt lat="45.981171900986496" lon="9.21016397966526"><ele>216.0</ele><time>2026-04-26T10:42:32Z</time></trkpt><trkpt lat="45.98115203746754" lon="9.209963364820329"><ele>216.0</ele><time>2026-04-26T10:42:33Z</time></trkpt><trkpt lat="45.98112463248619" lon="9.209691600202374"><ele>216.0</ele><time>2026-04-26T10:42:34Z</time></trkpt><trkpt lat="45.98111773794635" lon="9.209502722229221"><ele>216.0</ele><time>2026-04-26T10:42:35Z</time></trkpt><trkpt lat="45.98114510754335" lon="9.209331386714586"><ele>216.0</ele><time>2026-04-26T10:42:36Z</time></trkpt><trkpt lat="45.98119948804811" lon="9.209164129855047"><ele>216.0</ele><time>2026-04-26T10:42:37Z</time></trkpt><trkpt lat="45.98126034414738" lon="9.209002141232887"><ele>215.75</ele><time>2026-04-26T10:42:38Z</time></trkpt><trkpt lat="45.98132713220257" lon="9.208842004545245"><ele>215.5</ele><time>2026-04-26T10:42:39Z</time></trkpt><trkpt lat="45.98142952984861" lon="9.208672134578377"><ele>215.25</ele><time>2026-04-26T10:42:40Z</time></trkpt><trkpt lat="45.98146340047312" lon="9.208521102152995"><ele>215.0</ele><time>2026-04-26T10:42:41Z</time></trkpt><trkpt lat="45.98140683615347" lon="9.208363470354229"><ele>215.0</ele><time>2026-04-26T10:42:42Z</time></trkpt><trkpt lat="45.98141322698985" lon="9.208210512016285"><ele>215.0</ele><time>2026-04-26T10:42:43Z</time></trkpt><trkpt lat="45.98141288984299" lon="9.208059489247466"><ele>215.0</ele><time>2026-04-26T10:42:44Z</time></trkpt><trkpt lat="45.98138743695175" lon="9.20789308366078"><ele>215.0</ele><time>2026-04-26T10:42:45Z</time></trkpt><trkpt lat="45.9813781089415" lon="9.207742996930078"><ele>215.0</ele><time>2026-04-26T10:42:46Z</time></trkpt><trkpt lat="45.98136331430294" lon="9.207574052514174"><ele>215.5</ele><time>2026-04-26T10:42:47Z</time></trkpt><trkpt lat="45.98133836928019" lon="9.207420489354249"><ele>216.0</ele><time>2026-04-26T10:42:48Z</time></trkpt><trkpt lat="45.98128466297265" lon="9.207265362595388"><ele>216.5</ele><time>2026-04-26T10:42:49Z</time></trkpt><trkpt lat="45.98122734692854" lon="9.207111756512491"><ele>217.0</ele><time>2026-04-26T10:42:50Z</time></trkpt><trkpt lat="45.98117940869258" lon="9.206967120323858"><ele>217.75</ele><time>2026-04-26T10:42:51Z</time></trkpt><trkpt lat="45.98111383077698" lon="9.206831131150414"><ele>218.5</ele><time>2026-04-26T10:42:52Z</time></trkpt><trkpt lat="45.981045189045105" lon="9.206679264466647"><ele>219.25</ele><time>2026-04-26T10:42:53Z</time></trkpt><trkpt lat="45.98096544294887" lon="9.206518145606365"><ele>220.0</ele><time>2026-04-26T10:42:54Z</time></trkpt><trkpt lat="45.98088740606383" lon="9.20636992305272"><ele>219.25</ele><time>2026-04-26T10:42:55Z</time></trkpt><trkpt lat="45.980832517083144" lon="9.206200460108992"><ele>218.5</ele><time>2026-04-26T10:42:56Z</time></trkpt><trkpt lat="45.980779868248774" lon="9.206006730829575"><ele>217.75</ele><time>2026-04-26T10:42:57Z</time></trkpt><trkpt lat="45.98072247955897" lon="9.205820567763903"><ele>217.0</ele><time>2026-04-26T10:42:58Z</time></trkpt><trkpt lat="45.980649486913265" lon="9.205653752438723"><ele>218.5</ele><time>2026-04-26T10:42:59Z</time></trkpt><trkpt lat="45.98056578709198" lon="9.205472138109785"><ele>220.0</ele><time>2026-04-26T10:43:00Z</time></trkpt><trkpt lat="45.9804771273866" lon="9.205312939598464"><ele>221.5</ele><time>2026-04-26T10:43:01Z</time></trkpt><trkpt lat="45.98039787979712" lon="9.205122726960058"><ele>223.0</ele><time>2026-04-26T10:43:02Z</time></trkpt><trkpt lat="45.98029082077939" lon="9.204932499714154"><ele>222.0</ele><time>2026-04-26T10:43:03Z</time></trkpt><trkpt lat="45.980180975684846" lon="9.204747686576205"><ele>221.0</ele><time>2026-04-26T10:43:04Z</time></trkpt><trkpt lat="45.980073190590105" lon="9.204581957546345"><ele>220.0</ele><time>2026-04-26T10:43:05Z</time></trkpt><trkpt lat="45.979951051054464" lon="9.204427202439886"><ele>220.0</ele><time>2026-04-26T10:43:06Z</time></trkpt><trkpt lat="45.97982510453499" lon="9.204275404722754"><ele>220.0</ele><time>2026-04-26T10:43:07Z</time></trkpt><trkpt lat="45.9797107945624" lon="9.204099883751093"><ele>220.0</ele><time>2026-04-26T10:43:08Z</time></trkpt><trkpt lat="45.97959703046422" lon="9.203925291201102"><ele>221.0</ele><time>2026-04-26T10:43:09Z</time></trkpt><trkpt lat="45.979470200578675" lon="9.2037863803616"><ele>222.0</ele><time>2026-04-26T10:43:10Z</time></trkpt><trkpt lat="45.97933106802422" lon="9.203688971599059"><ele>223.0</ele><time>2026-04-26T10:43:11Z</time></trkpt><trkpt lat="45.97918720164653" lon="9.203593858999831"><ele>221.0</ele><time>2026-04-26T10:43:12Z</time></trkpt><trkpt lat="45.97903725194324" lon="9.203495265407813"><ele>219.0</ele><time>2026-04-26T10:43:13Z</time></trkpt><trkpt lat="45.97891044744305" lon="9.203408438462615"><ele>217.0</ele><time>2026-04-26T10:43:14Z</time></trkpt><trkpt lat="45.978780756212856" lon="9.203316928114045"><ele>217.0</ele><time>2026-04-26T10:43:15Z</time></trkpt><trkpt lat="45.97866779880221" lon="9.203214562805533"><ele>217.0</ele><time>2026-04-26T10:43:16Z</time></trkpt><trkpt lat="45.97857347884465" lon="9.203100290882524"><ele>217.0</ele><time>2026-04-26T10:43:17Z</time></trkpt><trkpt lat="45.978473522095" lon="9.202962157691811"><ele>217.0</ele><time>2026-04-26T10:43:18Z</time></trkpt><trkpt lat="45.97837882331041" lon="9.202821987696948"><ele>216.0</ele><time>2026-04-26T10:43:19Z</time></trkpt><trkpt lat="45.978284943557405" lon="9.202682029325103"><ele>215.0</ele><time>2026-04-26T10:43:20Z</time></trkpt><trkpt lat="45.9781913327949" lon="9.202539418717569"><ele>214.0</ele><time>2026-04-26T10:43:21Z</time></trkpt><trkpt lat="45.97811005619496" lon="9.202413831398516"><ele>213.0</ele><time>2026-04-26T10:43:22Z</time></trkpt><trkpt lat="45.97802889018122" lon="9.202288658430444"><ele>215.4</ele><time>2026-04-26T10:43:23Z</time></trkpt><trkpt lat="45.97794852456017" lon="9.202165610538747"><ele>217.8</ele><time>2026-04-26T10:43:24Z</time></trkpt><trkpt lat="45.977870974033266" lon="9.202047444866146"><ele>220.2</ele><time>2026-04-26T10:43:25Z</time></trkpt><trkpt lat="45.977797766805715" lon="9.201936809258624"><ele>222.6</ele><time>2026-04-26T10:43:26Z</time></trkpt><trkpt lat="45.97772087294793" lon="9.201820602212157"><ele>225.0</ele><time>2026-04-26T10:43:27Z</time></trkpt><trkpt lat="45.97762799068899" lon="9.201720629306191"><ele>225.0</ele><time>2026-04-26T10:43:28Z</time></trkpt><trkpt lat="45.97755338256586" lon="9.201622587626375"><ele>225.0</ele><time>2026-04-26T10:43:29Z</time></trkpt><trkpt lat="45.97748890965612" lon="9.20151910107376"><ele>225.0</ele><time>2026-04-26T10:43:30Z</time></trkpt><trkpt lat="45.97740496230608" lon="9.201455898342907"><ele>225.0</ele><time>2026-04-26T10:43:31Z</time></trkpt><trkpt lat="45.97734306534331" lon="9.201367494162202"><ele>225.0</ele><time>2026-04-26T10:43:32Z</time></trkpt><trkpt lat="45.9772807803213" lon="9.201290178586403"><ele>225.33333333333334</ele><time>2026-04-26T10:43:33Z</time></trkpt><trkpt lat="45.97721124418402" lon="9.20121884523858"><ele>225.66666666666669</ele><time>2026-04-26T10:43:34Z</time></trkpt><trkpt lat="45.97716591756506" lon="9.201121366946992"><ele>226.0</ele><time>2026-04-26T10:43:35Z</time></trkpt><trkpt lat="45.977110811217194" lon="9.201019769417837"><ele>226.33333333333334</ele><time>2026-04-26T10:43:36Z</time></trkpt><trkpt lat="45.97705472439224" lon="9.200906063607613"><ele>226.66666666666669</ele><time>2026-04-26T10:43:37Z</time></trkpt><trkpt lat="45.97701407516681" lon="9.200809501789237"><ele>227.0</ele><time>2026-04-26T10:43:38Z</time></trkpt><trkpt lat="45.97697458266051" lon="9.200713115871329"><ele>228.2</ele><time>2026-04-26T10:43:39Z</time></trkpt><trkpt lat="45.97692409676483" lon="9.200589770823576"><ele>229.39999999999998</ele><time>2026-04-26T10:43:40Z</time></trkpt><trkpt lat="45.97687213624862" lon="9.20046114713443"><ele>230.60000000000002</ele><time>2026-04-26T10:43:41Z</time></trkpt><trkpt lat="45.97681374957013" lon="9.200292190871226"><ele>231.8</ele><time>2026-04-26T10:43:42Z</time></trkpt><trkpt lat="45.97674577990301" lon="9.200194028494154"><ele>233.0</ele><time>2026-04-26T10:43:43Z</time></trkpt><trkpt lat="45.9766899437238" lon="9.200061570847536"><ele>229.66666666666669</ele><time>2026-04-26T10:43:44Z</time></trkpt><trkpt lat="45.97662311309344" lon="9.199906122962709"><ele>226.33333333333331</ele><time>2026-04-26T10:43:45Z</time></trkpt><trkpt lat="45.97652675279619" lon="9.199753789515283"><ele>223.0</ele><time>2026-04-26T10:43:46Z</time></trkpt><trkpt lat="45.976387663716324" lon="9.199580010869012"><ele>223.0</ele><time>2026-04-26T10:43:47Z</time></trkpt><trkpt lat="45.97624995429863" lon="9.199378001269027"><ele>223.0</ele><time>2026-04-26T10:43:48Z</time></trkpt><trkpt lat="45.97612629422345" lon="9.199154676275981"><ele>223.0</ele><time>2026-04-26T10:43:49Z</time></trkpt><trkpt lat="45.9759964558034" lon="9.198974743057631"><ele>222.0</ele><time>2026-04-26T10:43:50Z</time></trkpt><trkpt lat="45.97588795531147" lon="9.19881742941498"><ele>221.0</ele><time>2026-04-26T10:43:51Z</time></trkpt><trkpt lat="45.97578474876019" lon="9.19866715094987"><ele>220.0</ele><time>2026-04-26T10:43:52Z</time></trkpt><trkpt lat="45.975687927363296" lon="9.19853285645753"><ele>219.0</ele><time>2026-04-26T10:43:53Z</time></trkpt><trkpt lat="45.97560521489493" lon="9.198413558497757"><ele>219.0</ele><time>2026-04-26T10:43:54Z</time></trkpt><trkpt lat="45.97555690764529" lon="9.198321298046038"><ele>219.0</ele><time>2026-04-26T10:43:55Z</time></trkpt><trkpt lat="45.975501414921354" lon="9.198265925277983"><ele>219.0</ele><time>2026-04-26T10:43:56Z</time></trkpt><trkpt lat="45.975453326480064" lon="9.198201168484609"><ele>219.0</ele><time>2026-04-26T10:43:58Z</time></trkpt><trkpt lat="45.97539437989777" lon="9.198117815280764"><ele>219.0</ele><time>2026-04-26T10:44:19Z</time></trkpt><trkpt lat="45.97535840563587" lon="9.198022333398876"><ele>219.0</ele><time>2026-04-26T10:44:20Z</time></trkpt><trkpt lat="45.975307212465744" lon="9.197931283959328"><ele>218.79999999999998</ele><time>2026-04-26T10:44:21Z</time></trkpt><trkpt lat="45.975240297561164" lon="9.19780865846409"><ele>218.59999999999997</ele><time>2026-04-26T10:44:22Z</time></trkpt><trkpt lat="45.97517389271201" lon="9.197708794249422"><ele>218.4</ele><time>2026-04-26T10:44:23Z</time></trkpt><trkpt lat="45.97508628601363" lon="9.197589452943031"><ele>218.2</ele><time>2026-04-26T10:44:24Z</time></trkpt><trkpt lat="45.974993532643815" lon="9.19747190612059"><ele>218.0</ele><time>2026-04-26T10:44:25Z</time></trkpt><trkpt lat="45.974875583381206" lon="9.197327829141145"><ele>220.0</ele><time>2026-04-26T10:44:26Z</time></trkpt><trkpt lat="45.974755949950904" lon="9.197181484713417"><ele>222.0</ele><time>2026-04-26T10:44:27Z</time></trkpt><trkpt lat="45.97462743033084" lon="9.197024270088205"><ele>224.0</ele><time>2026-04-26T10:44:28Z</time></trkpt><trkpt lat="45.97448192336014" lon="9.196846275276133"><ele>224.0</ele><time>2026-04-26T10:44:29Z</time></trkpt><trkpt lat="45.97434181837355" lon="9.196676507574699"><ele>224.0</ele><time>2026-04-26T10:44:30Z</time></trkpt><trkpt lat="45.97420936337023" lon="9.196516490493623"><ele>224.0</ele><time>2026-04-26T10:44:31Z</time></trkpt><trkpt lat="45.97409078788027" lon="9.196371385716212"><ele>221.33333333333334</ele><time>2026-04-26T10:44:32Z</time></trkpt><trkpt lat="45.97397021197362" lon="9.196237768318818"><ele>218.66666666666669</ele><time>2026-04-26T10:44:33Z</time></trkpt><trkpt lat="45.973852895255" lon="9.196105151796273"><ele>216.0</ele><time>2026-04-26T10:44:34Z</time></trkpt><trkpt lat="45.97374708438107" lon="9.195945456197833"><ele>216.0</ele><time>2026-04-26T10:44:35Z</time></trkpt><trkpt lat="45.973625920075065" lon="9.195828989601202"><ele>216.0</ele><time>2026-04-26T10:44:36Z</time></trkpt><trkpt lat="45.97351021621388" lon="9.19566521723783"><ele>216.0</ele><time>2026-04-26T10:44:37Z</time></trkpt><trkpt lat="45.973390345884454" lon="9.195529651487487"><ele>215.0</ele><time>2026-04-26T10:44:38Z</time></trkpt><trkpt lat="45.973264072008774" lon="9.19538889384196"><ele>214.0</ele><time>2026-04-26T10:44:39Z</time></trkpt><trkpt lat="45.97314179254951" lon="9.195254713255308"><ele>213.0</ele><time>2026-04-26T10:44:40Z</time></trkpt><trkpt lat="45.97301184130344" lon="9.195115234681632"><ele>213.0</ele><time>2026-04-26T10:44:41Z</time></trkpt><trkpt lat="45.97288460440268" lon="9.194988879992529"><ele>213.0</ele><time>2026-04-26T10:44:42Z</time></trkpt><trkpt lat="45.97275089412325" lon="9.19490845602078"><ele>213.0</ele><time>2026-04-26T10:44:43Z</time></trkpt><trkpt lat="45.97261544605764" lon="9.194807309401012"><ele>214.5</ele><time>2026-04-26T10:44:44Z</time></trkpt><trkpt lat="45.972499482343984" lon="9.194706475405653"><ele>216.0</ele><time>2026-04-26T10:44:45Z</time></trkpt><trkpt lat="45.97238790615531" lon="9.19464235438574"><ele>217.5</ele><time>2026-04-26T10:44:46Z</time></trkpt><trkpt lat="45.972287108880906" lon="9.194580196022423"><ele>219.0</ele><time>2026-04-26T10:44:47Z</time></trkpt><trkpt lat="45.97220684430901" lon="9.19449798334073"><ele>219.0</ele><time>2026-04-26T10:44:48Z</time></trkpt><trkpt lat="45.972126458335076" lon="9.194438196024793"><ele>218.99999999999997</ele><time>2026-04-26T10:44:49Z</time></trkpt><trkpt lat="45.9720520666538" lon="9.194382866900696"><ele>218.99999999999997</ele><time>2026-04-26T10:44:50Z</time></trkpt><trkpt lat="45.97196105366207" lon="9.194314803808059"><ele>219.0</ele><time>2026-04-26T10:44:51Z</time></trkpt><trkpt lat="45.97186133453219" lon="9.194240232660789"><ele>219.0</ele><time>2026-04-26T10:44:52Z</time></trkpt><trkpt lat="45.97176697380999" lon="9.194169668585122"><ele>219.2</ele><time>2026-04-26T10:44:53Z</time></trkpt><trkpt lat="45.97166989020857" lon="9.194097060914006"><ele>219.39999999999998</ele><time>2026-04-26T10:44:54Z</time></trkpt><trkpt lat="45.97157179183252" lon="9.194024336339867"><ele>219.6</ele><time>2026-04-26T10:44:55Z</time></trkpt><trkpt lat="45.971470868457324" lon="9.193977144975625"><ele>219.8</ele><time>2026-04-26T10:44:56Z</time></trkpt><trkpt lat="45.971382792659355" lon="9.19390495891087"><ele>220.0</ele><time>2026-04-26T10:44:57Z</time></trkpt><trkpt lat="45.97128918825106" lon="9.193836359881814"><ele>220.0</ele><time>2026-04-26T10:44:58Z</time></trkpt><trkpt lat="45.971196715097335" lon="9.193761876740947"><ele>220.0</ele><time>2026-04-26T10:44:59Z</time></trkpt><trkpt lat="45.97110545546901" lon="9.193689779695294"><ele>220.0</ele><time>2026-04-26T10:45:00Z</time></trkpt><trkpt lat="45.97101102160228" lon="9.193597474835139"><ele>220.0</ele><time>2026-04-26T10:45:01Z</time></trkpt><trkpt lat="45.970916859241534" lon="9.193527952492795"><ele>220.0</ele><time>2026-04-26T10:45:02Z</time></trkpt><trkpt lat="45.970822678300436" lon="9.193455286074814"><ele>220.2</ele><time>2026-04-26T10:45:03Z</time></trkpt><trkpt lat="45.97074009803911" lon="9.193391821997773"><ele>220.4</ele><time>2026-04-26T10:45:04Z</time></trkpt><trkpt lat="45.970633327716676" lon="9.193336391975375"><ele>220.60000000000002</ele><time>2026-04-26T10:45:05Z</time></trkpt><trkpt lat="45.97053119168261" lon="9.193257744152692"><ele>220.8</ele><time>2026-04-26T10:45:06Z</time></trkpt><trkpt lat="45.97042798412048" lon="9.193176934318213"><ele>221.0</ele><time>2026-04-26T10:45:07Z</time></trkpt><trkpt lat="45.97032176854514" lon="9.193102908088209"><ele>221.0</ele><time>2026-04-26T10:45:08Z</time></trkpt><trkpt lat="45.97021642632895" lon="9.193020436066465"><ele>221.0</ele><time>2026-04-26T10:45:09Z</time></trkpt><trkpt lat="45.9701151892386" lon="9.192931001500941"><ele>221.0</ele><time>2026-04-26T10:45:10Z</time></trkpt><trkpt lat="45.97001205511488" lon="9.192850715400098"><ele>221.0</ele><time>2026-04-26T10:45:11Z</time></trkpt><trkpt lat="45.9699277698111" lon="9.192763669534273"><ele>220.75</ele><time>2026-04-26T10:45:12Z</time></trkpt><trkpt lat="45.969838402140866" lon="9.19266019833911"><ele>220.5</ele><time>2026-04-26T10:45:13Z</time></trkpt><trkpt lat="45.96976649950841" lon="9.1925408347069"><ele>220.25</ele><time>2026-04-26T10:45:14Z</time></trkpt><trkpt lat="45.969698877168625" lon="9.192412888331228"><ele>220.0</ele><time>2026-04-26T10:45:15Z</time></trkpt><trkpt lat="45.96964178149391" lon="9.192256617271129"><ele>220.4</ele><time>2026-04-26T10:45:16Z</time></trkpt><trkpt lat="45.96959507643032" lon="9.192098247628314"><ele>220.8</ele><time>2026-04-26T10:45:17Z</time></trkpt><trkpt lat="45.96955472412003" lon="9.191941864976638"><ele>221.2</ele><time>2026-04-26T10:45:18Z</time></trkpt><trkpt lat="45.96951616016295" lon="9.191794148489652"><ele>221.6</ele><time>2026-04-26T10:45:19Z</time></trkpt><trkpt lat="45.96946674051193" lon="9.191673222149275"><ele>222.0</ele><time>2026-04-26T10:45:20Z</time></trkpt><trkpt lat="45.96943893960448" lon="9.191561890410332"><ele>222.39999999999998</ele><time>2026-04-26T10:45:21Z</time></trkpt><trkpt lat="45.96940467525441" lon="9.191439912373275"><ele>222.79999999999998</ele><time>2026-04-26T10:45:22Z</time></trkpt><trkpt lat="45.96937311257877" lon="9.191318180622066"><ele>223.2</ele><time>2026-04-26T10:45:23Z</time></trkpt><trkpt lat="45.96934465179271" lon="9.191196804452657"><ele>223.6</ele><time>2026-04-26T10:45:24Z</time></trkpt><trkpt lat="45.96931338375005" lon="9.19107237372391"><ele>224.0</ele><time>2026-04-26T10:45:25Z</time></trkpt><trkpt lat="45.96928539315271" lon="9.190952685818825"><ele>224.00000000000003</ele><time>2026-04-26T10:45:26Z</time></trkpt><trkpt lat="45.96925291107215" lon="9.190833447235658"><ele>224.0</ele><time>2026-04-26T10:45:27Z</time></trkpt><trkpt lat="45.96924057601235" lon="9.190727073199131"><ele>224.0</ele><time>2026-04-26T10:45:28Z</time></trkpt><trkpt lat="45.969218377905534" lon="9.190638935222026"><ele>224.0</ele><time>2026-04-26T10:45:29Z</time></trkpt><trkpt lat="45.96919215356861" lon="9.190534810963403"><ele>224.00000000000003</ele><time>2026-04-26T10:45:30Z</time></trkpt><trkpt lat="45.96916454644" lon="9.190427176817408"><ele>224.0</ele><time>2026-04-26T10:45:31Z</time></trkpt><trkpt lat="45.96913383343007" lon="9.19030767420457"><ele>223.79999999999998</ele><time>2026-04-26T10:45:32Z</time></trkpt><trkpt lat="45.96909899645167" lon="9.190177177306335"><ele>223.59999999999997</ele><time>2026-04-26T10:45:33Z</time></trkpt><trkpt lat="45.96906498257222" lon="9.19004956650476"><ele>223.4</ele><time>2026-04-26T10:45:34Z</time></trkpt><trkpt lat="45.96902988668652" lon="9.189917897223427"><ele>223.2</ele><time>2026-04-26T10:45:35Z</time></trkpt><trkpt lat="45.96899242173573" lon="9.189776188137632"><ele>223.0</ele><time>2026-04-26T10:45:36Z</time></trkpt><trkpt lat="45.96895404040201" lon="9.189628614645489"><ele>223.4</ele><time>2026-04-26T10:45:37Z</time></trkpt><trkpt lat="45.968917884560824" lon="9.189489597804414"><ele>223.8</ele><time>2026-04-26T10:45:38Z</time></trkpt><trkpt lat="45.96888020689818" lon="9.189344731654113"><ele>224.2</ele><time>2026-04-26T10:45:39Z</time></trkpt><trkpt lat="45.96884389255155" lon="9.189202678609663"><ele>224.6</ele><time>2026-04-26T10:45:40Z</time></trkpt><trkpt lat="45.96880712614089" lon="9.189059171651937"><ele>225.0</ele><time>2026-04-26T10:45:41Z</time></trkpt><trkpt lat="45.96876730014943" lon="9.188903722570947"><ele>225.25</ele><time>2026-04-26T10:45:42Z</time></trkpt><trkpt lat="45.96872708863968" lon="9.188746768988914"><ele>225.5</ele><time>2026-04-26T10:45:43Z</time></trkpt><trkpt lat="45.96868608950517" lon="9.188585752103895"><ele>225.75</ele><time>2026-04-26T10:45:44Z</time></trkpt><trkpt lat="45.968644371209315" lon="9.188421809167355"><ele>226.0</ele><time>2026-04-26T10:45:45Z</time></trkpt><trkpt lat="45.96860135055737" lon="9.188254325175746"><ele>225.5</ele><time>2026-04-26T10:45:46Z</time></trkpt><trkpt lat="45.96855595589634" lon="9.188081138569297"><ele>225.0</ele><time>2026-04-26T10:45:47Z</time></trkpt><trkpt lat="45.96849427841922" lon="9.187910434116363"><ele>224.5</ele><time>2026-04-26T10:45:48Z</time></trkpt><trkpt lat="45.96844478529824" lon="9.187723384416767"><ele>224.0</ele><time>2026-04-26T10:45:49Z</time></trkpt><trkpt lat="45.96840431602197" lon="9.187535816217697"><ele>221.75</ele><time>2026-04-26T10:45:50Z</time></trkpt><trkpt lat="45.96835674780071" lon="9.187349332024507"><ele>219.5</ele><time>2026-04-26T10:45:51Z</time></trkpt><trkpt lat="45.96830702184531" lon="9.187163711392815"><ele>217.25</ele><time>2026-04-26T10:45:52Z</time></trkpt><trkpt lat="45.96825728949258" lon="9.186975481345296"><ele>215.0</ele><time>2026-04-26T10:45:53Z</time></trkpt><trkpt lat="45.96820700043282" lon="9.18678615460187"><ele>214.0</ele><time>2026-04-26T10:45:54Z</time></trkpt><trkpt lat="45.96817347956764" lon="9.186593666723745"><ele>213.0</ele><time>2026-04-26T10:45:55Z</time></trkpt><trkpt lat="45.968123756411394" lon="9.186403388697858"><ele>212.0</ele><time>2026-04-26T10:45:56Z</time></trkpt><trkpt lat="45.968074754303736" lon="9.18621361212769"><ele>211.0</ele><time>2026-04-26T10:45:57Z</time></trkpt><trkpt lat="45.968026096408394" lon="9.186025750637725"><ele>211.0</ele><time>2026-04-26T10:45:58Z</time></trkpt><trkpt lat="45.967978055332814" lon="9.185843350231984"><ele>211.0</ele><time>2026-04-26T10:45:59Z</time></trkpt><trkpt lat="45.96792468442642" lon="9.185664629263732"><ele>211.0</ele><time>2026-04-26T10:46:00Z</time></trkpt><trkpt lat="45.96787394241779" lon="9.185496657963714"><ele>211.0</ele><time>2026-04-26T10:46:01Z</time></trkpt><trkpt lat="45.96782517291012" lon="9.185348444224823"><ele>210.75</ele><time>2026-04-26T10:46:02Z</time></trkpt><trkpt lat="45.96778380585173" lon="9.185182408484353"><ele>210.5</ele><time>2026-04-26T10:46:03Z</time></trkpt><trkpt lat="45.96763662682871" lon="9.185112944051449"><ele>210.25</ele><time>2026-04-26T10:46:04Z</time></trkpt><trkpt lat="45.96752650888415" lon="9.185018451131858"><ele>210.0</ele><time>2026-04-26T10:46:05Z</time></trkpt><trkpt lat="45.96742823265086" lon="9.184910274235856"><ele>210.4</ele><time>2026-04-26T10:46:06Z</time></trkpt><trkpt lat="45.967353869201546" lon="9.18478543274586"><ele>210.8</ele><time>2026-04-26T10:46:07Z</time></trkpt><trkpt lat="45.96733646521582" lon="9.18463176413036"><ele>211.2</ele><time>2026-04-26T10:46:08Z</time></trkpt><trkpt lat="45.96732954159665" lon="9.184490894111374"><ele>211.6</ele><time>2026-04-26T10:46:09Z</time></trkpt><trkpt lat="45.96735170892446" lon="9.184353959338795"><ele>212.0</ele><time>2026-04-26T10:46:10Z</time></trkpt><trkpt lat="45.967403853363315" lon="9.184235220335887"><ele>212.00000000000003</ele><time>2026-04-26T10:46:11Z</time></trkpt><trkpt lat="45.96744679884964" lon="9.18416346273915"><ele>212.0</ele><time>2026-04-26T10:46:12Z</time></trkpt><trkpt lat="45.967493603795276" lon="9.184058256295845"><ele>212.0</ele><time>2026-04-26T10:46:17Z</time></trkpt><trkpt lat="45.96754454957892" lon="9.183946164721018"><ele>212.0</ele><time>2026-04-26T10:46:19Z</time></trkpt><trkpt lat="45.967581471889005" lon="9.183770785823235"><ele>212.00000000000003</ele><time>2026-04-26T10:46:21Z</time></trkpt><trkpt lat="45.96758913760979" lon="9.18366628351087"><ele>212.0</ele><time>2026-04-26T10:46:22Z</time></trkpt><trkpt lat="45.96760233908497" lon="9.18355558301241"><ele>214.33333333333334</ele><time>2026-04-26T10:46:23Z</time></trkpt><trkpt lat="45.96761094481282" lon="9.18345182536868"><ele>216.66666666666669</ele><time>2026-04-26T10:46:24Z</time></trkpt><trkpt lat="45.96762048501017" lon="9.183336229062638"><ele>219.0</ele><time>2026-04-26T10:46:25Z</time></trkpt><trkpt lat="45.9676254283664" lon="9.18321249983169"><ele>221.33333333333331</ele><time>2026-04-26T10:46:26Z</time></trkpt><trkpt lat="45.96761084722863" lon="9.183077557206405"><ele>223.66666666666666</ele><time>2026-04-26T10:46:27Z</time></trkpt><trkpt lat="45.967598660339014" lon="9.18295487006837"><ele>226.0</ele><time>2026-04-26T10:46:28Z</time></trkpt><trkpt lat="45.96759246322397" lon="9.182820952094847"><ele>226.0</ele><time>2026-04-26T10:46:29Z</time></trkpt><trkpt lat="45.96757330736124" lon="9.18267747563313"><ele>226.00000000000003</ele><time>2026-04-26T10:46:30Z</time></trkpt><trkpt lat="45.967555318870936" lon="9.18252689834281"><ele>226.00000000000003</ele><time>2026-04-26T10:46:31Z</time></trkpt><trkpt lat="45.96755894504369" lon="9.182380575999384"><ele>226.0</ele><time>2026-04-26T10:46:32Z</time></trkpt><trkpt lat="45.967558232003526" lon="9.18223076980271"><ele>226.0</ele><time>2026-04-26T10:46:33Z</time></trkpt><trkpt lat="45.9675680895161" lon="9.182052833953039"><ele>226.0</ele><time>2026-04-26T10:46:34Z</time></trkpt><trkpt lat="45.96756679489241" lon="9.181908430083098"><ele>226.00000000000003</ele><time>2026-04-26T10:46:35Z</time></trkpt><trkpt lat="45.96758189348571" lon="9.181756019584565"><ele>226.00000000000003</ele><time>2026-04-26T10:46:36Z</time></trkpt><trkpt lat="45.96759710115756" lon="9.181595112119604"><ele>226.0</ele><time>2026-04-26T10:46:37Z</time></trkpt><trkpt lat="45.96760577501572" lon="9.181444689470927"><ele>226.0</ele><time>2026-04-26T10:46:38Z</time></trkpt><trkpt lat="45.967615930368524" lon="9.181286800691188"><ele>226.0</ele><time>2026-04-26T10:46:39Z</time></trkpt><trkpt lat="45.96762751010212" lon="9.181129935423877"><ele>226.00000000000003</ele><time>2026-04-26T10:46:40Z</time></trkpt><trkpt lat="45.96763802217055" lon="9.18095889005012"><ele>226.00000000000003</ele><time>2026-04-26T10:46:41Z</time></trkpt><trkpt lat="45.96765258616869" lon="9.180793919867902"><ele>226.0</ele><time>2026-04-26T10:46:42Z</time></trkpt><trkpt lat="45.96767227479353" lon="9.180650021352555"><ele>226.0</ele><time>2026-04-26T10:46:43Z</time></trkpt><trkpt lat="45.96769003804344" lon="9.180485511369735"><ele>225.75</ele><time>2026-04-26T10:46:44Z</time></trkpt><trkpt lat="45.967716273905495" lon="9.180321912686868"><ele>225.5</ele><time>2026-04-26T10:46:45Z</time></trkpt><trkpt lat="45.967736643587976" lon="9.180143386279026"><ele>225.25</ele><time>2026-04-26T10:46:46Z</time></trkpt><trkpt lat="45.96774955704925" lon="9.17995117668677"><ele>225.0</ele><time>2026-04-26T10:46:47Z</time></trkpt><trkpt lat="45.967781291005764" lon="9.179776217928335"><ele>224.0</ele><time>2026-04-26T10:46:48Z</time></trkpt><trkpt lat="45.96780873791351" lon="9.179600951481955"><ele>223.0</ele><time>2026-04-26T10:46:49Z</time></trkpt><trkpt lat="45.967850931756715" lon="9.17942521920973"><ele>222.0</ele><time>2026-04-26T10:46:50Z</time></trkpt><trkpt lat="45.967867533492694" lon="9.179258516556635"><ele>221.0</ele><time>2026-04-26T10:46:51Z</time></trkpt><trkpt lat="45.96790077123953" lon="9.17910027886494"><ele>220.20000000000002</ele><time>2026-04-26T10:46:52Z</time></trkpt><trkpt lat="45.96794658964169" lon="9.178950783602065"><ele>219.40000000000003</ele><time>2026-04-26T10:46:53Z</time></trkpt><trkpt lat="45.96798010981752" lon="9.17880088133357"><ele>218.6</ele><time>2026-04-26T10:46:54Z</time></trkpt><trkpt lat="45.96801938966034" lon="9.1786582272866"><ele>217.8</ele><time>2026-04-26T10:46:55Z</time></trkpt><trkpt lat="45.96804788323317" lon="9.17852750018253"><ele>217.0</ele><time>2026-04-26T10:46:56Z</time></trkpt><trkpt lat="45.96807224673232" lon="9.178407652616112"><ele>217.0</ele><time>2026-04-26T10:46:57Z</time></trkpt><trkpt lat="45.968098632146074" lon="9.178296332844381"><ele>217.0</ele><time>2026-04-26T10:46:58Z</time></trkpt><trkpt lat="45.96812948988853" lon="9.178182561888464"><ele>217.0</ele><time>2026-04-26T10:46:59Z</time></trkpt><trkpt lat="45.96816799901254" lon="9.178064815182163"><ele>217.0</ele><time>2026-04-26T10:47:00Z</time></trkpt><trkpt lat="45.968210620466465" lon="9.177925660626485"><ele>217.0</ele><time>2026-04-26T10:47:01Z</time></trkpt><trkpt lat="45.96826462058668" lon="9.177777828740853"><ele>215.75</ele><time>2026-04-26T10:47:02Z</time></trkpt><trkpt lat="45.968348354933795" lon="9.177637666504303"><ele>214.5</ele><time>2026-04-26T10:47:03Z</time></trkpt><trkpt lat="45.968411113334874" lon="9.17750686549656"><ele>213.25</ele><time>2026-04-26T10:47:04Z</time></trkpt><trkpt lat="45.968529006532144" lon="9.177315673587035"><ele>212.0</ele><time>2026-04-26T10:47:05Z</time></trkpt><trkpt lat="45.968632273706575" lon="9.177147667015477"><ele>212.75</ele><time>2026-04-26T10:47:06Z</time></trkpt><trkpt lat="45.96873294274112" lon="9.176998271256144"><ele>213.5</ele><time>2026-04-26T10:47:07Z</time></trkpt><trkpt lat="45.96879984027114" lon="9.176812897702076"><ele>214.25</ele><time>2026-04-26T10:47:08Z</time></trkpt><trkpt lat="45.96885844720174" lon="9.17662146993107"><ele>215.0</ele><time>2026-04-26T10:47:09Z</time></trkpt><trkpt lat="45.96892797902198" lon="9.17647182674406"><ele>215.0</ele><time>2026-04-26T10:47:10Z</time></trkpt><trkpt lat="45.96898576032315" lon="9.176319183043711"><ele>215.0</ele><time>2026-04-26T10:47:10.999Z</time></trkpt><trkpt lat="45.96900754098603" lon="9.176179669506789"><ele>215.0</ele><time>2026-04-26T10:47:11.999Z</time></trkpt><trkpt lat="45.96904002720465" lon="9.176057169434939"><ele>215.0</ele><time>2026-04-26T10:47:12.999Z</time></trkpt><trkpt lat="45.96906072858421" lon="9.175944762532417"><ele>215.0</ele><time>2026-04-26T10:47:13.999Z</time></trkpt><trkpt lat="45.969124504752905" lon="9.175868418383123"><ele>215.0</ele><time>2026-04-26T10:47:15.999Z</time></trkpt><trkpt lat="45.969143473585106" lon="9.175747734999584"><ele>215.0</ele><time>2026-04-26T10:47:18.999Z</time></trkpt><trkpt lat="45.96918860137536" lon="9.175516552724536"><ele>215.0</ele><time>2026-04-26T10:47:20.999Z</time></trkpt><trkpt lat="45.969217870836836" lon="9.175345942534106"><ele>215.0</ele><time>2026-04-26T10:47:22Z</time></trkpt><trkpt lat="45.96919044373973" lon="9.175161790386817"><ele>215.4</ele><time>2026-04-26T10:47:23Z</time></trkpt><trkpt lat="45.969175020629486" lon="9.175065502125824"><ele>215.8</ele><time>2026-04-26T10:47:24Z</time></trkpt><trkpt lat="45.969121134280684" lon="9.17496168896339"><ele>216.2</ele><time>2026-04-26T10:47:25Z</time></trkpt><trkpt lat="45.96909056801605" lon="9.174845357313592"><ele>216.6</ele><time>2026-04-26T10:47:26Z</time></trkpt><trkpt lat="45.96902594432371" lon="9.174742006726811"><ele>217.0</ele><time>2026-04-26T10:47:27Z</time></trkpt><trkpt lat="45.96892788727167" lon="9.174644670496065"><ele>220.8</ele><time>2026-04-26T10:47:28Z</time></trkpt><trkpt lat="45.96883347115646" lon="9.174556756904332"><ele>224.6</ele><time>2026-04-26T10:47:29Z</time></trkpt><trkpt lat="45.968775557318295" lon="9.174430509143967"><ele>228.40000000000003</ele><time>2026-04-26T10:47:30Z</time></trkpt><trkpt lat="45.96872238615483" lon="9.174293821588767"><ele>232.20000000000002</ele><time>2026-04-26T10:47:31Z</time></trkpt><trkpt lat="45.968656927573306" lon="9.174161636243227"><ele>236.0</ele><time>2026-04-26T10:47:32Z</time></trkpt><trkpt lat="45.96861376037657" lon="9.174037344743844"><ele>239.20000000000002</ele><time>2026-04-26T10:47:33Z</time></trkpt><trkpt lat="45.96857145381929" lon="9.173931242881293"><ele>242.40000000000003</ele><time>2026-04-26T10:47:34Z</time></trkpt><trkpt lat="45.968517823073945" lon="9.173814173068546"><ele>245.6</ele><time>2026-04-26T10:47:35Z</time></trkpt><trkpt lat="45.96846253099847" lon="9.173683804605242"><ele>248.8</ele><time>2026-04-26T10:47:36Z</time></trkpt><trkpt lat="45.96842017644448" lon="9.173540725462093"><ele>252.0</ele><time>2026-04-26T10:47:37Z</time></trkpt><trkpt lat="45.968366505856444" lon="9.17340715379183"><ele>245.75</ele><time>2026-04-26T10:47:38Z</time></trkpt><trkpt lat="45.96830227215118" lon="9.17326946220317"><ele>239.5</ele><time>2026-04-26T10:47:39Z</time></trkpt><trkpt lat="45.968241221973294" lon="9.17311744569902"><ele>233.25</ele><time>2026-04-26T10:47:40Z</time></trkpt><trkpt lat="45.96818704110536" lon="9.172948358321213"><ele>227.0</ele><time>2026-04-26T10:47:41Z</time></trkpt><trkpt lat="45.96811505271046" lon="9.172769450180086"><ele>227.0</ele><time>2026-04-26T10:47:42Z</time></trkpt><trkpt lat="45.96803275380432" lon="9.17258056562034"><ele>227.0</ele><time>2026-04-26T10:47:43Z</time></trkpt><trkpt lat="45.96787349111671" lon="9.172378401221557"><ele>227.0</ele><time>2026-04-26T10:47:44Z</time></trkpt><trkpt lat="45.96770563075583" lon="9.172252304975874"><ele>227.0</ele><time>2026-04-26T10:47:45Z</time></trkpt><trkpt lat="45.9678775351413" lon="9.172359177947326"><ele>227.0</ele><time>2026-04-26T10:47:46Z</time></trkpt><trkpt lat="45.967772540631195" lon="9.172274122080786"><ele>227.0</ele><time>2026-04-26T10:47:47Z</time></trkpt><trkpt lat="45.96766057588971" lon="9.172201606415317"><ele>227.0</ele><time>2026-04-26T10:47:48Z</time></trkpt><trkpt lat="45.96754908561046" lon="9.172141943413177"><ele>225.0</ele><time>2026-04-26T10:47:49Z</time></trkpt><trkpt lat="45.96743508296413" lon="9.172077348671408"><ele>223.0</ele><time>2026-04-26T10:47:50Z</time></trkpt><trkpt lat="45.96732756030498" lon="9.17199838077814"><ele>221.0</ele><time>2026-04-26T10:47:51Z</time></trkpt><trkpt lat="45.96720636229334" lon="9.17189727538669"><ele>219.0</ele><time>2026-04-26T10:47:52Z</time></trkpt><trkpt lat="45.96711721833731" lon="9.171776959741733"><ele>219.0</ele><time>2026-04-26T10:47:53Z</time></trkpt><trkpt lat="45.9670227602734" lon="9.171646496501095"><ele>219.0</ele><time>2026-04-26T10:47:54Z</time></trkpt><trkpt lat="45.96701375608318" lon="9.171438547046632"><ele>219.0</ele><time>2026-04-26T10:47:55Z</time></trkpt><trkpt lat="45.96694378300088" lon="9.171242357203456"><ele>219.0</ele><time>2026-04-26T10:47:56Z</time></trkpt><trkpt lat="45.966859575632" lon="9.171003207155476"><ele>219.0</ele><time>2026-04-26T10:47:57Z</time></trkpt><trkpt lat="45.966772749203955" lon="9.170758362518754"><ele>219.0</ele><time>2026-04-26T10:47:58Z</time></trkpt><trkpt lat="45.96670419647168" lon="9.170550008532715"><ele>219.0</ele><time>2026-04-26T10:47:59Z</time></trkpt><trkpt lat="45.966643749342715" lon="9.170345187296794"><ele>219.0</ele><time>2026-04-26T10:48:00Z</time></trkpt><trkpt lat="45.96658833399337" lon="9.170158427053282"><ele>218.99999999999997</ele><time>2026-04-26T10:48:01Z</time></trkpt><trkpt lat="45.966543689970074" lon="9.17001412056956"><ele>218.99999999999997</ele><time>2026-04-26T10:48:02Z</time></trkpt><trkpt lat="45.96650203691486" lon="9.169876360768253"><ele>219.0</ele><time>2026-04-26T10:48:03Z</time></trkpt><trkpt lat="45.966466030594624" lon="9.169754720002526"><ele>219.0</ele><time>2026-04-26T10:48:04Z</time></trkpt><trkpt lat="45.96643361619723" lon="9.169645101693929"><ele>221.16666666666666</ele><time>2026-04-26T10:48:05Z</time></trkpt><trkpt lat="45.96640157970928" lon="9.169536292367601"><ele>223.33333333333331</ele><time>2026-04-26T10:48:06Z</time></trkpt><trkpt lat="45.96637750680372" lon="9.169440959329952"><ele>225.5</ele><time>2026-04-26T10:48:07Z</time></trkpt><trkpt lat="45.96635475441207" lon="9.16935274626823"><ele>227.66666666666666</ele><time>2026-04-26T10:48:08Z</time></trkpt><trkpt lat="45.96632609783031" lon="9.169266502448462"><ele>229.83333333333331</ele><time>2026-04-26T10:48:09Z</time></trkpt><trkpt lat="45.96625076208229" lon="9.169120177899645"><ele>232.0</ele><time>2026-04-26T10:48:11Z</time></trkpt><trkpt lat="45.96617428632218" lon="9.1690537500854"><ele>230.99999999999997</ele><time>2026-04-26T10:48:12Z</time></trkpt><trkpt lat="45.96611326847799" lon="9.168958792569988"><ele>230.0</ele><time>2026-04-26T10:48:13Z</time></trkpt><trkpt lat="45.966057466972025" lon="9.168871624162188"><ele>229.0</ele><time>2026-04-26T10:48:14Z</time></trkpt><trkpt lat="45.96598061615763" lon="9.168797294189666"><ele>228.0</ele><time>2026-04-26T10:48:15Z</time></trkpt><trkpt lat="45.96592002642129" lon="9.168721332393467"><ele>226.99999999999997</ele><time>2026-04-26T10:48:16Z</time></trkpt><trkpt lat="45.96583272294174" lon="9.168646999084663"><ele>226.0</ele><time>2026-04-26T10:48:17Z</time></trkpt><trkpt lat="45.96575950806021" lon="9.16861070794908"><ele>225.99999999999997</ele><time>2026-04-26T10:48:18Z</time></trkpt><trkpt lat="45.96568997217099" lon="9.168526779958981"><ele>226.0</ele><time>2026-04-26T10:48:20Z</time></trkpt><trkpt lat="45.965627081832196" lon="9.168480185600316"><ele>226.0</ele><time>2026-04-26T10:48:23Z</time></trkpt><trkpt lat="45.965546609846314" lon="9.168414011866549"><ele>226.0</ele><time>2026-04-26T10:48:26Z</time></trkpt><trkpt lat="45.96549207724437" lon="9.168335087192663"><ele>225.99999999999997</ele><time>2026-04-26T10:48:28Z</time></trkpt><trkpt lat="45.96543972847989" lon="9.168277944123872"><ele>226.0</ele><time>2026-04-26T10:48:31Z</time></trkpt><trkpt lat="45.96539674761615" lon="9.168169852062652"><ele>228.8</ele><time>2026-04-26T10:48:33Z</time></trkpt><trkpt lat="45.96535584718962" lon="9.168100249682576"><ele>231.60000000000002</ele><time>2026-04-26T10:48:34Z</time></trkpt><trkpt lat="45.965299394423766" lon="9.168012908210423"><ele>234.4</ele><time>2026-04-26T10:48:35Z</time></trkpt><trkpt lat="45.9652443369977" lon="9.1679300790858"><ele>237.2</ele><time>2026-04-26T10:48:36Z</time></trkpt><trkpt lat="45.96516759057645" lon="9.167821167906537"><ele>240.0</ele><time>2026-04-26T10:48:37Z</time></trkpt><trkpt lat="45.96505169827084" lon="9.167673384208644"><ele>239.0</ele><time>2026-04-26T10:48:38Z</time></trkpt><trkpt lat="45.964927282614674" lon="9.167520200116362"><ele>238.0</ele><time>2026-04-26T10:48:39Z</time></trkpt><trkpt lat="45.964791268770455" lon="9.167351654537919"><ele>237.0</ele><time>2026-04-26T10:48:40Z</time></trkpt><trkpt lat="45.96462940906895" lon="9.16717285023204"><ele>237.0</ele><time>2026-04-26T10:48:41Z</time></trkpt><trkpt lat="45.96449006871267" lon="9.166993502295364"><ele>237.0</ele><time>2026-04-26T10:48:42Z</time></trkpt><trkpt lat="45.96433391571066" lon="9.166832763717505"><ele>237.0</ele><time>2026-04-26T10:48:43Z</time></trkpt><trkpt lat="45.96417683777759" lon="9.166670081855106"><ele>235.66666666666669</ele><time>2026-04-26T10:48:44Z</time></trkpt><trkpt lat="45.96401852978014" lon="9.166513637317731"><ele>234.33333333333334</ele><time>2026-04-26T10:48:45Z</time></trkpt><trkpt lat="45.963862082007516" lon="9.166363896492538"><ele>233.0</ele><time>2026-04-26T10:48:46Z</time></trkpt><trkpt lat="45.96370992684432" lon="9.166218386061706"><ele>233.0</ele><time>2026-04-26T10:48:47Z</time></trkpt><trkpt lat="45.963554536490335" lon="9.166069782168107"><ele>233.0</ele><time>2026-04-26T10:48:48Z</time></trkpt><trkpt lat="45.963396323280506" lon="9.165906471064488"><ele>233.0</ele><time>2026-04-26T10:48:49Z</time></trkpt><trkpt lat="45.963227108611775" lon="9.165746855607477"><ele>235.0</ele><time>2026-04-26T10:48:50Z</time></trkpt><trkpt lat="45.96306229714335" lon="9.165594578325766"><ele>237.0</ele><time>2026-04-26T10:48:51Z</time></trkpt><trkpt lat="45.96289965465794" lon="9.165444305075214"><ele>239.0</ele><time>2026-04-26T10:48:52Z</time></trkpt><trkpt lat="45.962740678061735" lon="9.165297418938113"><ele>239.0</ele><time>2026-04-26T10:48:53Z</time></trkpt><trkpt lat="45.96258472918529" lon="9.165153330288405"><ele>239.0</ele><time>2026-04-26T10:48:54Z</time></trkpt><trkpt lat="45.96243258259299" lon="9.165008097367735"><ele>239.0</ele><time>2026-04-26T10:48:55Z</time></trkpt><trkpt lat="45.962311937890334" lon="9.164867105129119"><ele>240.0</ele><time>2026-04-26T10:48:56Z</time></trkpt><trkpt lat="45.96221060917495" lon="9.16469729304378"><ele>241.0</ele><time>2026-04-26T10:48:57Z</time></trkpt><trkpt lat="45.962118094219754" lon="9.164481582056943"><ele>242.0</ele><time>2026-04-26T10:48:58Z</time></trkpt><trkpt lat="45.96204405935967" lon="9.164228324764839"><ele>248.66666666666669</ele><time>2026-04-26T10:48:59Z</time></trkpt><trkpt lat="45.96197300188316" lon="9.163965382735805"><ele>255.33333333333331</ele><time>2026-04-26T10:49:00Z</time></trkpt><trkpt lat="45.96188709074392" lon="9.163696134598858"><ele>262.0</ele><time>2026-04-26T10:49:01Z</time></trkpt><trkpt lat="45.961808042140234" lon="9.163458002348895"><ele>262.0</ele><time>2026-04-26T10:49:02Z</time></trkpt><trkpt lat="45.9617207448464" lon="9.163204066211746"><ele>262.0</ele><time>2026-04-26T10:49:03Z</time></trkpt><trkpt lat="45.96160413853261" lon="9.162994174762167"><ele>262.0</ele><time>2026-04-26T10:49:04Z</time></trkpt><trkpt lat="45.96148734199287" lon="9.162790478988946"><ele>257.3333333333333</ele><time>2026-04-26T10:49:05Z</time></trkpt><trkpt lat="45.961347994849085" lon="9.162612339446119"><ele>252.66666666666669</ele><time>2026-04-26T10:49:06Z</time></trkpt><trkpt lat="45.961211643643" lon="9.162434187511396"><ele>248.0</ele><time>2026-04-26T10:49:07Z</time></trkpt><trkpt lat="45.96108839557025" lon="9.16223365906289"><ele>248.0</ele><time>2026-04-26T10:49:08Z</time></trkpt><trkpt lat="45.96095969992265" lon="9.162063388436042"><ele>248.0</ele><time>2026-04-26T10:49:09Z</time></trkpt><trkpt lat="45.9608287712733" lon="9.161904962481497"><ele>248.0</ele><time>2026-04-26T10:49:10Z</time></trkpt><trkpt lat="45.96069271391418" lon="9.161745436987724"><ele>246.0</ele><time>2026-04-26T10:49:11Z</time></trkpt><trkpt lat="45.960563900254186" lon="9.161594981251383"><ele>244.0</ele><time>2026-04-26T10:49:12Z</time></trkpt><trkpt lat="45.960426261438506" lon="9.16143104370774"><ele>242.0</ele><time>2026-04-26T10:49:13Z</time></trkpt><trkpt lat="45.960286327286475" lon="9.16126437235545"><ele>242.0</ele><time>2026-04-26T10:49:14Z</time></trkpt><trkpt lat="45.96015396533349" lon="9.161103229043562"><ele>242.0</ele><time>2026-04-26T10:49:15Z</time></trkpt><trkpt lat="45.960040039680095" lon="9.160933497523311"><ele>242.0</ele><time>2026-04-26T10:49:16Z</time></trkpt><trkpt lat="45.95996399608323" lon="9.16074558751277"><ele>237.66666666666669</ele><time>2026-04-26T10:49:16.999Z</time></trkpt><trkpt lat="45.959877916741" lon="9.160516892147504"><ele>233.33333333333331</ele><time>2026-04-26T10:49:17.999Z</time></trkpt><trkpt lat="45.95978928741643" lon="9.160298564602758"><ele>229.0</ele><time>2026-04-26T10:49:18.999Z</time></trkpt><trkpt lat="45.959671619988086" lon="9.160140830779929"><ele>229.0</ele><time>2026-04-26T10:49:19.999Z</time></trkpt><trkpt lat="45.95954344148152" lon="9.159988614938419"><ele>229.0</ele><time>2026-04-26T10:49:20.999Z</time></trkpt><trkpt lat="45.95941764459642" lon="9.159838555645257"><ele>229.0</ele><time>2026-04-26T10:49:21.999Z</time></trkpt><trkpt lat="45.95929491041462" lon="9.159681887773374"><ele>226.0</ele><time>2026-04-26T10:49:22.999Z</time></trkpt><trkpt lat="45.95919765241351" lon="9.159503025495322"><ele>223.0</ele><time>2026-04-26T10:49:23.999Z</time></trkpt><trkpt lat="45.959095405407915" lon="9.159307427051841"><ele>220.0</ele><time>2026-04-26T10:49:24.999Z</time></trkpt><trkpt lat="45.95900547881779" lon="9.15913073623107"><ele>220.5</ele><time>2026-04-26T10:49:25.999Z</time></trkpt><trkpt lat="45.95894699148206" lon="9.158978941354293"><ele>221.0</ele><time>2026-04-26T10:49:26.999Z</time></trkpt><trkpt lat="45.95892564574449" lon="9.158821682382847"><ele>221.5</ele><time>2026-04-26T10:49:27.999Z</time></trkpt><trkpt lat="45.958921552149626" lon="9.158640766482849"><ele>222.0</ele><time>2026-04-26T10:49:28.999Z</time></trkpt><trkpt lat="45.95891456082808" lon="9.158432422520079"><ele>222.0</ele><time>2026-04-26T10:49:30Z</time></trkpt><trkpt lat="45.95888096411033" lon="9.158253392119997"><ele>222.0</ele><time>2026-04-26T10:49:31Z</time></trkpt><trkpt lat="45.95882926670299" lon="9.158078264021933"><ele>222.0</ele><time>2026-04-26T10:49:32Z</time></trkpt><trkpt lat="45.95874657911341" lon="9.157909958168009"><ele>222.0</ele><time>2026-04-26T10:49:33Z</time></trkpt><trkpt lat="45.95868719404958" lon="9.157730213754048"><ele>224.39999999999998</ele><time>2026-04-26T10:49:34Z</time></trkpt><trkpt lat="45.958627221093515" lon="9.157578916890106"><ele>226.79999999999998</ele><time>2026-04-26T10:49:35Z</time></trkpt><trkpt lat="45.95857618589457" lon="9.15743574251491"><ele>229.2</ele><time>2026-04-26T10:49:36Z</time></trkpt><trkpt lat="45.958542387662185" lon="9.157337050904642"><ele>231.6</ele><time>2026-04-26T10:49:37Z</time></trkpt><trkpt lat="45.95850621277932" lon="9.157169400513107"><ele>234.0</ele><time>2026-04-26T10:49:38Z</time></trkpt><trkpt lat="45.95848771817215" lon="9.157008570613634"><ele>238.75</ele><time>2026-04-26T10:49:39Z</time></trkpt><trkpt lat="45.95847092190673" lon="9.15683524696998"><ele>243.5</ele><time>2026-04-26T10:49:40Z</time></trkpt><trkpt lat="45.95845985110192" lon="9.156661132289937"><ele>248.25</ele><time>2026-04-26T10:49:41Z</time></trkpt><trkpt lat="45.95844916548031" lon="9.156472047339847"><ele>253.0</ele><time>2026-04-26T10:49:42Z</time></trkpt><trkpt lat="45.95843854842481" lon="9.156308454370778"><ele>255.4</ele><time>2026-04-26T10:49:43Z</time></trkpt><trkpt lat="45.958409447999365" lon="9.156168612653987"><ele>257.8</ele><time>2026-04-26T10:49:44Z</time></trkpt><trkpt lat="45.95840503803264" lon="9.156017627045323"><ele>260.2</ele><time>2026-04-26T10:49:45Z</time></trkpt><trkpt lat="45.95832995689627" lon="9.155908666581723"><ele>262.6</ele><time>2026-04-26T10:49:46Z</time></trkpt><trkpt lat="45.95821839508069" lon="9.155820928131291"><ele>265.0</ele><time>2026-04-26T10:49:47Z</time></trkpt><trkpt lat="45.958099166254215" lon="9.15574412659275"><ele>257.0</ele><time>2026-04-26T10:49:48Z</time></trkpt><trkpt lat="45.95798049560098" lon="9.155638591860622"><ele>249.0</ele><time>2026-04-26T10:49:49Z</time></trkpt><trkpt lat="45.95788683154393" lon="9.15552185805504"><ele>241.0</ele><time>2026-04-26T10:49:50Z</time></trkpt><trkpt lat="45.95779638971831" lon="9.155378278055434"><ele>233.0</ele><time>2026-04-26T10:49:51Z</time></trkpt><trkpt lat="45.95771155364184" lon="9.155226238138585"><ele>233.0</ele><time>2026-04-26T10:49:52Z</time></trkpt><trkpt lat="45.957621638582175" lon="9.155102579608577"><ele>233.0</ele><time>2026-04-26T10:49:53Z</time></trkpt><trkpt lat="45.95754602916676" lon="9.154980630917422"><ele>233.0</ele><time>2026-04-26T10:49:54Z</time></trkpt><trkpt lat="45.95747645500538" lon="9.154851510683189"><ele>233.0</ele><time>2026-04-26T10:49:55Z</time></trkpt><trkpt lat="45.95740950655906" lon="9.154713120691861"><ele>231.25</ele><time>2026-04-26T10:49:56Z</time></trkpt><trkpt lat="45.957352176094204" lon="9.154547055627564"><ele>229.5</ele><time>2026-04-26T10:49:57Z</time></trkpt><trkpt lat="45.95734045010099" lon="9.154381552767216"><ele>227.75</ele><time>2026-04-26T10:49:58Z</time></trkpt><trkpt lat="45.95732857805202" lon="9.1542111801516"><ele>226.0</ele><time>2026-04-26T10:49:59Z</time></trkpt><trkpt lat="45.95729765650923" lon="9.15399940089319"><ele>230.5</ele><time>2026-04-26T10:50:00Z</time></trkpt><trkpt lat="45.95724137482413" lon="9.153833037910571"><ele>235.0</ele><time>2026-04-26T10:50:01Z</time></trkpt><trkpt lat="45.957171322197546" lon="9.153651485289167"><ele>239.5</ele><time>2026-04-26T10:50:02Z</time></trkpt><trkpt lat="45.957105948483175" lon="9.153458195546841"><ele>244.0</ele><time>2026-04-26T10:50:03Z</time></trkpt><trkpt lat="45.957038894452026" lon="9.153268058359917"><ele>247.25</ele><time>2026-04-26T10:50:04Z</time></trkpt><trkpt lat="45.95697854860369" lon="9.153079682589828"><ele>250.5</ele><time>2026-04-26T10:50:05Z</time></trkpt><trkpt lat="45.95690670242649" lon="9.152901922643794"><ele>253.75</ele><time>2026-04-26T10:50:06Z</time></trkpt><trkpt lat="45.95684231190833" lon="9.152740431178003"><ele>257.0</ele><time>2026-04-26T10:50:07Z</time></trkpt><trkpt lat="45.956780641078176" lon="9.152576238878769"><ele>257.0</ele><time>2026-04-26T10:50:08Z</time></trkpt><trkpt lat="45.956706931529844" lon="9.152418343638944"><ele>257.0</ele><time>2026-04-26T10:50:09Z</time></trkpt><trkpt lat="45.956654942860595" lon="9.152240730657901"><ele>257.0</ele><time>2026-04-26T10:50:10Z</time></trkpt><trkpt lat="45.95659254364203" lon="9.152074494226248"><ele>257.0</ele><time>2026-04-26T10:50:11Z</time></trkpt><trkpt lat="45.956533651697164" lon="9.151928337576743"><ele>257.6</ele><time>2026-04-26T10:50:12Z</time></trkpt><trkpt lat="45.9564705793168" lon="9.151798747132645"><ele>258.2</ele><time>2026-04-26T10:50:13Z</time></trkpt><trkpt lat="45.956419602128555" lon="9.15167657225085"><ele>258.8</ele><time>2026-04-26T10:50:14Z</time></trkpt><trkpt lat="45.9563698983468" lon="9.151566815324976"><ele>259.4</ele><time>2026-04-26T10:50:15Z</time></trkpt><trkpt lat="45.95635005063012" lon="9.151458249008442"><ele>260.0</ele><time>2026-04-26T10:50:16Z</time></trkpt><trkpt lat="45.95629610450093" lon="9.151389857608176"><ele>260.0</ele><time>2026-04-26T10:50:17Z</time></trkpt><trkpt lat="45.956256092201" lon="9.151305608400891"><ele>260.0</ele><time>2026-04-26T10:50:18Z</time></trkpt><trkpt lat="45.956220292680975" lon="9.15122907364235"><ele>260.0</ele><time>2026-04-26T10:50:19Z</time></trkpt><trkpt lat="45.95618142424626" lon="9.151140103102618"><ele>260.0</ele><time>2026-04-26T10:50:20Z</time></trkpt><trkpt lat="45.95613943676229" lon="9.15104361183604"><ele>260.0</ele><time>2026-04-26T10:50:21Z</time></trkpt><trkpt lat="45.95610004527871" lon="9.150910332643232"><ele>260.0</ele><time>2026-04-26T10:50:22Z</time></trkpt><trkpt lat="45.956028760160436" lon="9.15078933980709"><ele>254.6</ele><time>2026-04-26T10:50:23Z</time></trkpt><trkpt lat="45.955969939987654" lon="9.150659634920698"><ele>249.2</ele><time>2026-04-26T10:50:24Z</time></trkpt><trkpt lat="45.95590112819305" lon="9.150531381317961"><ele>243.8</ele><time>2026-04-26T10:50:25Z</time></trkpt><trkpt lat="45.955840462257626" lon="9.150402400411474"><ele>238.4</ele><time>2026-04-26T10:50:26Z</time></trkpt><trkpt lat="45.95577380677745" lon="9.150286192044273"><ele>233.0</ele><time>2026-04-26T10:50:27Z</time></trkpt><trkpt lat="45.95571195168554" lon="9.150159048564108"><ele>233.0</ele><time>2026-04-26T10:50:28Z</time></trkpt><trkpt lat="45.95565920663172" lon="9.150038932137512"><ele>233.0</ele><time>2026-04-26T10:50:29Z</time></trkpt><trkpt lat="45.955602327930514" lon="9.14992259668595"><ele>233.0</ele><time>2026-04-26T10:50:30Z</time></trkpt><trkpt lat="45.955543389309305" lon="9.14981228370413"><ele>233.0</ele><time>2026-04-26T10:50:31Z</time></trkpt><trkpt lat="45.95548811505327" lon="9.14971299318261"><ele>233.0</ele><time>2026-04-26T10:50:32Z</time></trkpt><trkpt lat="45.95543867651069" lon="9.149603531893478"><ele>237.66666666666669</ele><time>2026-04-26T10:50:33Z</time></trkpt><trkpt lat="45.95540039972226" lon="9.149499892109457"><ele>242.33333333333334</ele><time>2026-04-26T10:50:34Z</time></trkpt><trkpt lat="45.955368069748" lon="9.149362491787612"><ele>247.0</ele><time>2026-04-26T10:50:35Z</time></trkpt><trkpt lat="45.955344494492195" lon="9.149239127536804"><ele>251.66666666666669</ele><time>2026-04-26T10:50:36Z</time></trkpt><trkpt lat="45.95532071665697" lon="9.149126706736544"><ele>256.3333333333333</ele><time>2026-04-26T10:50:37Z</time></trkpt><trkpt lat="45.95529693327213" lon="9.14900867426833"><ele>261.0</ele><time>2026-04-26T10:50:38Z</time></trkpt><trkpt lat="45.95525832662506" lon="9.14889615279674"><ele>265.6666666666667</ele><time>2026-04-26T10:50:39Z</time></trkpt><trkpt lat="45.95521973713321" lon="9.14879041830233"><ele>270.3333333333333</ele><time>2026-04-26T10:50:40Z</time></trkpt><trkpt lat="45.955192602266166" lon="9.148695309005168"><ele>275.0</ele><time>2026-04-26T10:50:41Z</time></trkpt><trkpt lat="45.95516393342876" lon="9.148593366982812"><ele>279.66666666666663</ele><time>2026-04-26T10:50:42Z</time></trkpt><trkpt lat="45.95514573067889" lon="9.148469403138597"><ele>284.3333333333333</ele><time>2026-04-26T10:50:43Z</time></trkpt><trkpt lat="45.95510117033809" lon="9.148360724466158"><ele>289.0</ele><time>2026-04-26T10:50:44Z</time></trkpt><trkpt lat="45.95505552050271" lon="9.148262757427272"><ele>281.16666666666663</ele><time>2026-04-26T10:50:45Z</time></trkpt><trkpt lat="45.95501462186553" lon="9.148156571457344"><ele>273.3333333333333</ele><time>2026-04-26T10:50:46Z</time></trkpt><trkpt lat="45.95498034299244" lon="9.14806563971614"><ele>265.5</ele><time>2026-04-26T10:50:47Z</time></trkpt><trkpt lat="45.954951188494256" lon="9.147966637115205"><ele>257.6666666666667</ele><time>2026-04-26T10:50:48Z</time></trkpt><trkpt lat="45.95490678534737" lon="9.147870466123093"><ele>249.83333333333334</ele><time>2026-04-26T10:50:49Z</time></trkpt><trkpt lat="45.95485299779033" lon="9.147769287864438"><ele>242.0</ele><time>2026-04-26T10:50:50Z</time></trkpt><trkpt lat="45.95480220706336" lon="9.147673703571765"><ele>242.00000000000003</ele><time>2026-04-26T10:50:51Z</time></trkpt><trkpt lat="45.954763613472664" lon="9.147571925980055"><ele>242.0</ele><time>2026-04-26T10:50:52Z</time></trkpt><trkpt lat="45.95472764466931" lon="9.147467796170345"><ele>242.0</ele><time>2026-04-26T10:50:53Z</time></trkpt><trkpt lat="45.954684791444315" lon="9.147361753145653"><ele>242.0</ele><time>2026-04-26T10:50:54Z</time></trkpt><trkpt lat="45.95464007364713" lon="9.14725206119968"><ele>242.00000000000003</ele><time>2026-04-26T10:50:55Z</time></trkpt><trkpt lat="45.95459120987823" lon="9.147142519718264"><ele>242.0</ele><time>2026-04-26T10:50:56Z</time></trkpt><trkpt lat="45.9545417435548" lon="9.147014513536597"><ele>250.0</ele><time>2026-04-26T10:50:57Z</time></trkpt><trkpt lat="45.95449187463102" lon="9.146868315166412"><ele>258.0</ele><time>2026-04-26T10:50:58Z</time></trkpt><trkpt lat="45.954427780237346" lon="9.146704807241948"><ele>266.0</ele><time>2026-04-26T10:50:59Z</time></trkpt><trkpt lat="45.95438054574541" lon="9.146538961864293"><ele>274.0</ele><time>2026-04-26T10:51:00Z</time></trkpt><trkpt lat="45.954334201817026" lon="9.146366745464295"><ele>274.0</ele><time>2026-04-26T10:51:01Z</time></trkpt><trkpt lat="45.95425383787998" lon="9.146168928594612"><ele>274.0</ele><time>2026-04-26T10:51:02Z</time></trkpt><trkpt lat="45.954158253404614" lon="9.145942725200596"><ele>274.0</ele><time>2026-04-26T10:51:03Z</time></trkpt><trkpt lat="45.95403523092332" lon="9.14565626474553"><ele>274.0</ele><time>2026-04-26T10:51:04Z</time></trkpt><trkpt lat="45.95392165684251" lon="9.14540555651196"><ele>274.0</ele><time>2026-04-26T10:51:05Z</time></trkpt><trkpt lat="45.95382016868132" lon="9.145205449027772"><ele>274.0</ele><time>2026-04-26T10:51:06Z</time></trkpt><trkpt lat="45.95372635272437" lon="9.145033063526492"><ele>282.0</ele><time>2026-04-26T10:51:07Z</time></trkpt><trkpt lat="45.953638381919895" lon="9.14487297085122"><ele>290.0</ele><time>2026-04-26T10:51:08Z</time></trkpt><trkpt lat="45.95354772128896" lon="9.144714334072136"><ele>298.0</ele><time>2026-04-26T10:51:09Z</time></trkpt><trkpt lat="45.95346191823551" lon="9.144556012342273"><ele>306.0</ele><time>2026-04-26T10:51:10Z</time></trkpt><trkpt lat="45.953381046272746" lon="9.144411024810182"><ele>298.8</ele><time>2026-04-26T10:51:11Z</time></trkpt><trkpt lat="45.95331091246178" lon="9.144288810081763"><ele>291.6</ele><time>2026-04-26T10:51:12Z</time></trkpt><trkpt lat="45.95324685388484" lon="9.144177178515475"><ele>284.4</ele><time>2026-04-26T10:51:13Z</time></trkpt><trkpt lat="45.953164651347954" lon="9.144062311105866"><ele>277.2</ele><time>2026-04-26T10:51:15Z</time></trkpt><trkpt lat="45.953131747266156" lon="9.143976581311016"><ele>270.0</ele><time>2026-04-26T10:51:16Z</time></trkpt><trkpt lat="45.953072922815494" lon="9.14387479506786"><ele>270.0</ele><time>2026-04-26T10:51:17Z</time></trkpt><trkpt lat="45.95299613979059" lon="9.14371559479816"><ele>270.0</ele><time>2026-04-26T10:51:18Z</time></trkpt><trkpt lat="45.95291799554197" lon="9.143483594401195"><ele>270.0</ele><time>2026-04-26T10:51:19Z</time></trkpt><trkpt lat="45.95280381046468" lon="9.143201720535835"><ele>288.5</ele><time>2026-04-26T10:51:20Z</time></trkpt><trkpt lat="45.95265739704866" lon="9.142873921850198"><ele>307.0</ele><time>2026-04-26T10:51:21Z</time></trkpt><trkpt lat="45.95252722953598" lon="9.142519948286393"><ele>290.0</ele><time>2026-04-26T10:51:22Z</time></trkpt><trkpt lat="45.95239830289843" lon="9.142209303864611"><ele>273.0</ele><time>2026-04-26T10:51:23Z</time></trkpt><trkpt lat="45.952283302599376" lon="9.141906092993258"><ele>273.0</ele><time>2026-04-26T10:51:24Z</time></trkpt><trkpt lat="45.95216996648263" lon="9.1416149946841"><ele>273.0</ele><time>2026-04-26T10:51:25Z</time></trkpt><trkpt lat="45.95205856697942" lon="9.141348189363374"><ele>273.0</ele><time>2026-04-26T10:51:26Z</time></trkpt><trkpt lat="45.95193472712662" lon="9.14109522410997"><ele>276.3333333333333</ele><time>2026-04-26T10:51:27Z</time></trkpt><trkpt lat="45.95182143849417" lon="9.14085407456252"><ele>279.66666666666663</ele><time>2026-04-26T10:51:28Z</time></trkpt><trkpt lat="45.951728631217016" lon="9.140602538769533"><ele>283.0</ele><time>2026-04-26T10:51:29Z</time></trkpt><trkpt lat="45.95161316152846" lon="9.140427850581428"><ele>283.0</ele><time>2026-04-26T10:51:30Z</time></trkpt><trkpt lat="45.951512779494514" lon="9.140259786323098"><ele>283.0</ele><time>2026-04-26T10:51:31Z</time></trkpt><trkpt lat="45.95139733207619" lon="9.140066149929186"><ele>283.0</ele><time>2026-04-26T10:51:32Z</time></trkpt><trkpt lat="45.95127293864738" lon="9.13985723794901"><ele>296.5</ele><time>2026-04-26T10:51:33Z</time></trkpt><trkpt lat="45.95116894831508" lon="9.139684393444465"><ele>310.0</ele><time>2026-04-26T10:51:34Z</time></trkpt><trkpt lat="45.951081439996955" lon="9.139540647808245"><ele>323.5</ele><time>2026-04-26T10:51:35Z</time></trkpt><trkpt lat="45.95098668987814" lon="9.139359430671542"><ele>337.0</ele><time>2026-04-26T10:51:36Z</time></trkpt><trkpt lat="45.95089184837562" lon="9.139172095296475"><ele>327.0</ele><time>2026-04-26T10:51:37Z</time></trkpt><trkpt lat="45.950812324757784" lon="9.139002627732271"><ele>317.0</ele><time>2026-04-26T10:51:38Z</time></trkpt><trkpt lat="45.950729888747006" lon="9.13884627566565"><ele>307.0</ele><time>2026-04-26T10:51:39Z</time></trkpt><trkpt lat="45.950979663769175" lon="9.138269755008714"><ele>321.0</ele><time>2026-04-26T10:51:40Z</time></trkpt><trkpt lat="45.95084373128315" lon="9.138121780607895"><ele>335.0</ele><time>2026-04-26T10:51:41Z</time></trkpt><trkpt lat="45.95076111277085" lon="9.137959882536267"><ele>349.0</ele><time>2026-04-26T10:51:42Z</time></trkpt><trkpt lat="45.95064200843462" lon="9.137790392963353"><ele>349.0</ele><time>2026-04-26T10:51:43Z</time></trkpt><trkpt lat="45.950386306804745" lon="9.137651849603847"><ele>349.0</ele><time>2026-04-26T10:51:44Z</time></trkpt><trkpt lat="45.9500968282056" lon="9.137542158245513"><ele>339.0</ele><time>2026-04-26T10:51:45Z</time></trkpt><trkpt lat="45.94981841100645" lon="9.137473400293526"><ele>329.0</ele><time>2026-04-26T10:51:46Z</time></trkpt><trkpt lat="45.94964769135865" lon="9.137340901019552"><ele>329.0</ele><time>2026-04-26T10:51:47Z</time></trkpt><trkpt lat="45.94951045717712" lon="9.137212430418233"><ele>329.0</ele><time>2026-04-26T10:51:48Z</time></trkpt><trkpt lat="45.94939019655258" lon="9.137086923967681"><ele>329.0</ele><time>2026-04-26T10:51:49Z</time></trkpt><trkpt lat="45.94929322919243" lon="9.136940209887326"><ele>315.0</ele><time>2026-04-26T10:51:50Z</time></trkpt><trkpt lat="45.94919810025096" lon="9.136788052248653"><ele>301.0</ele><time>2026-04-26T10:51:51Z</time></trkpt><trkpt lat="45.94910858643579" lon="9.136638639426772"><ele>287.0</ele><time>2026-04-26T10:51:52Z</time></trkpt><trkpt lat="45.949031439653375" lon="9.136492989734363"><ele>273.0</ele><time>2026-04-26T10:51:53Z</time></trkpt><trkpt lat="45.948966626834434" lon="9.13631482451953"><ele>273.0</ele><time>2026-04-26T10:51:54Z</time></trkpt><trkpt lat="45.94890013313533" lon="9.136057574325388"><ele>273.0</ele><time>2026-04-26T10:51:55Z</time></trkpt><trkpt lat="45.94883477263482" lon="9.135784537828311"><ele>273.0</ele><time>2026-04-26T10:51:56Z</time></trkpt><trkpt lat="45.94871996905117" lon="9.135490521847153"><ele>283.0</ele><time>2026-04-26T10:51:57Z</time></trkpt><trkpt lat="45.94858254120961" lon="9.135225216899983"><ele>293.0</ele><time>2026-04-26T10:51:58Z</time></trkpt><trkpt lat="45.948393754243504" lon="9.135038590773567"><ele>282.6666666666667</ele><time>2026-04-26T10:51:59Z</time></trkpt><trkpt lat="45.94826980467476" lon="9.134794916313812"><ele>272.3333333333333</ele><time>2026-04-26T10:52:00Z</time></trkpt><trkpt lat="45.94815028870323" lon="9.134592500356202"><ele>262.0</ele><time>2026-04-26T10:52:01Z</time></trkpt><trkpt lat="45.94806313966354" lon="9.134388630599831"><ele>262.0</ele><time>2026-04-26T10:52:02Z</time></trkpt><trkpt lat="45.94796512536861" lon="9.13419906440945"><ele>262.0</ele><time>2026-04-26T10:52:03Z</time></trkpt><trkpt lat="45.9478657590105" lon="9.134037364152238"><ele>262.0</ele><time>2026-04-26T10:52:04Z</time></trkpt><trkpt lat="45.9477834637604" lon="9.133830855152889"><ele>271.66666666666663</ele><time>2026-04-26T10:52:05Z</time></trkpt><trkpt lat="45.94768860054848" lon="9.133599125362235"><ele>281.3333333333333</ele><time>2026-04-26T10:52:06Z</time></trkpt><trkpt lat="45.94761462744212" lon="9.133378664464079"><ele>291.0</ele><time>2026-04-26T10:52:07Z</time></trkpt><trkpt lat="45.94755479518377" lon="9.133148061159376"><ele>273.6666666666667</ele><time>2026-04-26T10:52:08Z</time></trkpt><trkpt lat="45.947501884375114" lon="9.132915207959956"><ele>256.33333333333337</ele><time>2026-04-26T10:52:09Z</time></trkpt><trkpt lat="45.94745891029853" lon="9.132699567776953"><ele>239.0</ele><time>2026-04-26T10:52:10Z</time></trkpt><trkpt lat="45.94741756495287" lon="9.132480096094907"><ele>241.66666666666669</ele><time>2026-04-26T10:52:11Z</time></trkpt><trkpt lat="45.94737126457575" lon="9.132235577206032"><ele>244.33333333333331</ele><time>2026-04-26T10:52:12Z</time></trkpt><trkpt lat="45.947315707995834" lon="9.13194614602235"><ele>247.0</ele><time>2026-04-26T10:52:13Z</time></trkpt><trkpt lat="45.94725396364393" lon="9.131645194836024"><ele>253.66666666666666</ele><time>2026-04-26T10:52:14Z</time></trkpt><trkpt lat="45.94717256339967" lon="9.13138573138367"><ele>260.3333333333333</ele><time>2026-04-26T10:52:15Z</time></trkpt><trkpt lat="45.94708683897471" lon="9.131158439053642"><ele>267.0</ele><time>2026-04-26T10:52:16Z</time></trkpt><trkpt lat="45.946973043126405" lon="9.130951368309423"><ele>267.0</ele><time>2026-04-26T10:52:17Z</time></trkpt><trkpt lat="45.946862733069885" lon="9.130765448534682"><ele>267.0</ele><time>2026-04-26T10:52:18Z</time></trkpt><trkpt lat="45.946747071218724" lon="9.13060547224262"><ele>267.0</ele><time>2026-04-26T10:52:19Z</time></trkpt><trkpt lat="45.946665244114556" lon="9.130429906392006"><ele>260.6666666666667</ele><time>2026-04-26T10:52:20Z</time></trkpt><trkpt lat="45.946550492344485" lon="9.130224915668572"><ele>254.33333333333334</ele><time>2026-04-26T10:52:21Z</time></trkpt><trkpt lat="45.94643274686643" lon="9.130008573247078"><ele>248.0</ele><time>2026-04-26T10:52:22Z</time></trkpt><trkpt lat="45.946329794653245" lon="9.129819440684031"><ele>248.0</ele><time>2026-04-26T10:52:23Z</time></trkpt><trkpt lat="45.946224108956656" lon="9.129654759893837"><ele>248.0</ele><time>2026-04-26T10:52:24Z</time></trkpt><trkpt lat="45.94613051801859" lon="9.129475479738002"><ele>248.0</ele><time>2026-04-26T10:52:25Z</time></trkpt><trkpt lat="45.94602173231151" lon="9.129298285010915"><ele>248.0</ele><time>2026-04-26T10:52:26Z</time></trkpt><trkpt lat="45.945928223014285" lon="9.129147811810054"><ele>248.0</ele><time>2026-04-26T10:52:27Z</time></trkpt><trkpt lat="45.94582713293888" lon="9.129020676738051"><ele>248.0</ele><time>2026-04-26T10:52:28Z</time></trkpt><trkpt lat="45.945748168114456" lon="9.128865405493574"><ele>248.0</ele><time>2026-04-26T10:52:29Z</time></trkpt><trkpt lat="45.945651034763486" lon="9.12872202845843"><ele>243.25</ele><time>2026-04-26T10:52:30Z</time></trkpt><trkpt lat="45.94553932339616" lon="9.12861866713202"><ele>238.5</ele><time>2026-04-26T10:52:31Z</time></trkpt><trkpt lat="45.94544213801161" lon="9.12850712505638"><ele>233.75</ele><time>2026-04-26T10:52:32Z</time></trkpt><trkpt lat="45.945346387804534" lon="9.12839369647747"><ele>229.0</ele><time>2026-04-26T10:52:33Z</time></trkpt><trkpt lat="45.94523898286846" lon="9.128321614675178"><ele>230.0</ele><time>2026-04-26T10:52:34Z</time></trkpt><trkpt lat="45.94513864883715" lon="9.12822348416827"><ele>230.99999999999997</ele><time>2026-04-26T10:52:35Z</time></trkpt><trkpt lat="45.945061256222395" lon="9.128176649256549"><ele>231.99999999999997</ele><time>2026-04-26T10:52:36Z</time></trkpt><trkpt lat="45.94497840500549" lon="9.128122035943079"><ele>233.0</ele><time>2026-04-26T10:52:37Z</time></trkpt><trkpt lat="45.94490342620834" lon="9.128073387626621"><ele>234.0</ele><time>2026-04-26T10:52:38Z</time></trkpt><trkpt lat="45.9448344937001" lon="9.128027374628484"><ele>234.0</ele><time>2026-04-26T10:52:39Z</time></trkpt><trkpt lat="45.94477231321664" lon="9.12794552396465"><ele>233.99999999999997</ele><time>2026-04-26T10:52:40Z</time></trkpt><trkpt lat="45.94470065488179" lon="9.127876980755207"><ele>233.99999999999997</ele><time>2026-04-26T10:52:41Z</time></trkpt><trkpt lat="45.944621056256445" lon="9.1278046296894"><ele>234.0</ele><time>2026-04-26T10:52:42Z</time></trkpt><trkpt lat="45.94453893237206" lon="9.12773415341551"><ele>234.0</ele><time>2026-04-26T10:52:43Z</time></trkpt><trkpt lat="45.94444857279671" lon="9.127692722276718"><ele>234.0</ele><time>2026-04-26T10:52:44Z</time></trkpt><trkpt lat="45.944361988254016" lon="9.127637892564168"><ele>234.0</ele><time>2026-04-26T10:52:45Z</time></trkpt><trkpt lat="45.944277862530875" lon="9.12762817816117"><ele>234.0</ele><time>2026-04-26T10:52:46Z</time></trkpt><trkpt lat="45.94419862856278" lon="9.127669422392218"><ele>234.0</ele><time>2026-04-26T10:52:47Z</time></trkpt><trkpt lat="45.94413415541447" lon="9.127732083756836"><ele>234.0</ele><time>2026-04-26T10:52:48Z</time></trkpt><trkpt lat="45.944109244871726" lon="9.12782152202813"><ele>234.0</ele><time>2026-04-26T10:52:49Z</time></trkpt><trkpt lat="45.94405997818671" lon="9.127918413272624"><ele>230.83333333333334</ele><time>2026-04-26T10:52:50Z</time></trkpt><trkpt lat="45.94400794382268" lon="9.128002036524327"><ele>227.66666666666669</ele><time>2026-04-26T10:52:51Z</time></trkpt><trkpt lat="45.94395127554873" lon="9.12809381863015"><ele>224.5</ele><time>2026-04-26T10:52:52Z</time></trkpt><trkpt lat="45.94389216209832" lon="9.128184473725257"><ele>221.33333333333334</ele><time>2026-04-26T10:52:53Z</time></trkpt><trkpt lat="45.94383479771197" lon="9.12827892937854"><ele>218.16666666666669</ele><time>2026-04-26T10:52:54Z</time></trkpt><trkpt lat="45.94377197066692" lon="9.128367900372984"><ele>215.0</ele><time>2026-04-26T10:52:55Z</time></trkpt><trkpt lat="45.943702994820086" lon="9.128452943188524"><ele>213.7142857142857</ele><time>2026-04-26T10:52:56Z</time></trkpt><trkpt lat="45.943616166794584" lon="9.128474691851734"><ele>212.42857142857144</ele><time>2026-04-26T10:52:57Z</time></trkpt><trkpt lat="45.9435346287868" lon="9.12848729463571"><ele>211.14285714285714</ele><time>2026-04-26T10:52:59Z</time></trkpt><trkpt lat="45.94347108770585" lon="9.128478205489918"><ele>209.85714285714283</ele><time>2026-04-26T10:53:03Z</time></trkpt><trkpt lat="45.943406885356886" lon="9.128477453108864"><ele>208.57142857142856</ele><time>2026-04-26T10:53:05Z</time></trkpt><trkpt lat="45.94333236541985" lon="9.128442906538336"><ele>207.28571428571428</ele><time>2026-04-26T10:53:09Z</time></trkpt><trkpt lat="45.94327871158771" lon="9.128375115569789"><ele>206.0</ele><time>2026-04-26T10:53:11Z</time></trkpt><trkpt lat="45.94321574676268" lon="9.128330714431927"><ele>205.99999999999997</ele><time>2026-04-26T10:53:15.001Z</time></trkpt><trkpt lat="45.94315471844387" lon="9.128291619226324"><ele>206.0</ele><time>2026-04-26T10:53:18.001Z</time></trkpt><trkpt lat="45.943095567301484" lon="9.128254754652534"><ele>206.0</ele><time>2026-04-26T10:53:28.001Z</time></trkpt><trkpt lat="45.943033413823784" lon="9.128219676234304"><ele>206.0</ele><time>2026-04-26T10:53:30Z</time></trkpt><trkpt lat="45.94293554480898" lon="9.128178662996342"><ele>206.0</ele><time>2026-04-26T10:53:32Z</time></trkpt><trkpt lat="45.94287241866815" lon="9.128155631057"><ele>205.99999999999997</ele><time>2026-04-26T10:53:34Z</time></trkpt><trkpt lat="45.94279548862634" lon="9.128131053853338"><ele>206.0</ele><time>2026-04-26T10:53:37Z</time></trkpt><trkpt lat="45.942701004278845" lon="9.128108593599455"><ele>207.60000000000002</ele><time>2026-04-26T10:53:39Z</time></trkpt><trkpt lat="45.942573027265595" lon="9.128115965977049"><ele>209.2</ele><time>2026-04-26T10:53:41Z</time></trkpt><trkpt lat="45.942467724262904" lon="9.128091895221141"><ele>210.79999999999998</ele><time>2026-04-26T10:53:43Z</time></trkpt><trkpt lat="45.94238532572469" lon="9.128095102357117"><ele>212.39999999999998</ele><time>2026-04-26T10:53:44Z</time></trkpt><trkpt lat="45.942295093523846" lon="9.128100226026486"><ele>214.0</ele><time>2026-04-26T10:53:45Z</time></trkpt><trkpt lat="45.942214322098636" lon="9.128109319329518"><ele>215.6</ele><time>2026-04-26T10:53:46Z</time></trkpt><trkpt lat="45.94211469215957" lon="9.128118650950077"><ele>217.2</ele><time>2026-04-26T10:53:47Z</time></trkpt><trkpt lat="45.94201137563412" lon="9.128119175061327"><ele>218.79999999999998</ele><time>2026-04-26T10:53:48Z</time></trkpt><trkpt lat="45.94188705454979" lon="9.128109308419704"><ele>220.39999999999998</ele><time>2026-04-26T10:53:49Z</time></trkpt><trkpt lat="45.94176653056251" lon="9.128094293280151"><ele>222.0</ele><time>2026-04-26T10:53:50Z</time></trkpt><trkpt lat="45.94164413822091" lon="9.128098336496842"><ele>225.0</ele><time>2026-04-26T10:53:51Z</time></trkpt><trkpt lat="45.941525576922" lon="9.128083284920546"><ele>228.0</ele><time>2026-04-26T10:53:52Z</time></trkpt><trkpt lat="45.94141222447952" lon="9.128081711110362"><ele>231.0</ele><time>2026-04-26T10:53:53Z</time></trkpt><trkpt lat="45.94128347007617" lon="9.128078597141991"><ele>234.0</ele><time>2026-04-26T10:53:54Z</time></trkpt><trkpt lat="45.94115810195508" lon="9.128109985186168"><ele>234.0</ele><time>2026-04-26T10:53:55Z</time></trkpt><trkpt lat="45.941061217371015" lon="9.12813411435188"><ele>234.0</ele><time>2026-04-26T10:53:56Z</time></trkpt><trkpt lat="45.94097626142482" lon="9.128155492389894"><ele>234.0</ele><time>2026-04-26T10:53:57Z</time></trkpt><trkpt lat="45.94089100254176" lon="9.128176982923165"><ele>234.0</ele><time>2026-04-26T10:53:58Z</time></trkpt><trkpt lat="45.94080384053071" lon="9.128198953163286"><ele>234.0</ele><time>2026-04-26T10:53:59Z</time></trkpt><trkpt lat="45.9407242908595" lon="9.128217881931505"><ele>234.0</ele><time>2026-04-26T10:54:00Z</time></trkpt><trkpt lat="45.94062294574124" lon="9.128226642423366"><ele>236.0</ele><time>2026-04-26T10:54:01Z</time></trkpt><trkpt lat="45.94052071633186" lon="9.128213780581007"><ele>237.99999999999997</ele><time>2026-04-26T10:54:02Z</time></trkpt><trkpt lat="45.94041922446905" lon="9.12819923203713"><ele>239.99999999999997</ele><time>2026-04-26T10:54:03Z</time></trkpt><trkpt lat="45.940307445546416" lon="9.128182664882042"><ele>242.0</ele><time>2026-04-26T10:54:04Z</time></trkpt><trkpt lat="45.94021324960384" lon="9.12817712909555"><ele>244.0</ele><time>2026-04-26T10:54:05Z</time></trkpt><trkpt lat="45.940111780770856" lon="9.128203311003812"><ele>245.0</ele><time>2026-04-26T10:54:06Z</time></trkpt><trkpt lat="45.940021318409805" lon="9.128191316220144"><ele>245.99999999999997</ele><time>2026-04-26T10:54:07Z</time></trkpt><trkpt lat="45.93992169170683" lon="9.128164455151138"><ele>246.99999999999997</ele><time>2026-04-26T10:54:08Z</time></trkpt><trkpt lat="45.93981417994421" lon="9.128098230970611"><ele>248.0</ele><time>2026-04-26T10:54:10Z</time></trkpt><trkpt lat="45.93974276542578" lon="9.128015314161132"><ele>249.0</ele><time>2026-04-26T10:54:11Z</time></trkpt><trkpt lat="45.93966216064487" lon="9.127930182619707"><ele>249.0</ele><time>2026-04-26T10:54:12Z</time></trkpt><trkpt lat="45.939580207473526" lon="9.12787383180704"><ele>248.99999999999997</ele><time>2026-04-26T10:54:13Z</time></trkpt><trkpt lat="45.93948566597743" lon="9.127859946845119"><ele>248.99999999999997</ele><time>2026-04-26T10:54:14Z</time></trkpt><trkpt lat="45.939399597447164" lon="9.127830883773104"><ele>249.0</ele><time>2026-04-26T10:54:15Z</time></trkpt><trkpt lat="45.939301273927995" lon="9.12784221419719"><ele>249.0</ele><time>2026-04-26T10:54:16Z</time></trkpt><trkpt lat="45.93918747710802" lon="9.127876239486936"><ele>252.0</ele><time>2026-04-26T10:54:17Z</time></trkpt><trkpt lat="45.93902314618296" lon="9.127883115166274"><ele>255.0</ele><time>2026-04-26T10:54:18Z</time></trkpt><trkpt lat="45.93879675921609" lon="9.12791433017017"><ele>258.0</ele><time>2026-04-26T10:54:19Z</time></trkpt><trkpt lat="45.93854479179288" lon="9.12794942264351"><ele>254.5</ele><time>2026-04-26T10:54:20Z</time></trkpt><trkpt lat="45.93829957126261" lon="9.128001525401872"><ele>251.0</ele><time>2026-04-26T10:54:21Z</time></trkpt><trkpt lat="45.93806781982151" lon="9.128031099322186"><ele>251.0</ele><time>2026-04-26T10:54:22Z</time></trkpt><trkpt lat="45.93785604847897" lon="9.128052480764508"><ele>251.0</ele><time>2026-04-26T10:54:23Z</time></trkpt><trkpt lat="45.93765882035902" lon="9.128087381621505"><ele>251.0</ele><time>2026-04-26T10:54:24Z</time></trkpt><trkpt lat="45.9374597314388" lon="9.128149292945121"><ele>240.0</ele><time>2026-04-26T10:54:25Z</time></trkpt><trkpt lat="45.93725357102064" lon="9.128236529597562"><ele>229.0</ele><time>2026-04-26T10:54:26Z</time></trkpt><trkpt lat="45.9370592279579" lon="9.128307345906688"><ele>218.0</ele><time>2026-04-26T10:54:27Z</time></trkpt><trkpt lat="45.93687316525213" lon="9.12835827974248"><ele>223.66666666666669</ele><time>2026-04-26T10:54:28Z</time></trkpt><trkpt lat="45.93669498311319" lon="9.128379353316966"><ele>229.33333333333331</ele><time>2026-04-26T10:54:29Z</time></trkpt><trkpt lat="45.93650821373624" lon="9.128364415140023"><ele>235.0</ele><time>2026-04-26T10:54:30Z</time></trkpt><trkpt lat="45.93631077298918" lon="9.128337938236257"><ele>235.0</ele><time>2026-04-26T10:54:31Z</time></trkpt><trkpt lat="45.93609144471608" lon="9.12831488065044"><ele>235.0</ele><time>2026-04-26T10:54:32Z</time></trkpt><trkpt lat="45.93585987767586" lon="9.12825250894409"><ele>230.66666666666666</ele><time>2026-04-26T10:54:33Z</time></trkpt><trkpt lat="45.93562895890905" lon="9.128228949938242"><ele>226.33333333333331</ele><time>2026-04-26T10:54:34Z</time></trkpt><trkpt lat="45.93541400331368" lon="9.128188212040508"><ele>222.0</ele><time>2026-04-26T10:54:35Z</time></trkpt><trkpt lat="45.93520550634734" lon="9.128155245134842"><ele>240.33333333333331</ele><time>2026-04-26T10:54:36Z</time></trkpt><trkpt lat="45.93500066120182" lon="9.128125948246117"><ele>258.66666666666663</ele><time>2026-04-26T10:54:37Z</time></trkpt><trkpt lat="45.93478369757208" lon="9.128102064642071"><ele>277.0</ele><time>2026-04-26T10:54:38Z</time></trkpt><trkpt lat="45.9345699235975" lon="9.12814226634993"><ele>277.0</ele><time>2026-04-26T10:54:39Z</time></trkpt><trkpt lat="45.93435318517658" lon="9.128163580558516"><ele>277.0</ele><time>2026-04-26T10:54:40Z</time></trkpt><trkpt lat="45.934123104656265" lon="9.128222598060958"><ele>257.66666666666663</ele><time>2026-04-26T10:54:41Z</time></trkpt><trkpt lat="45.93390764582229" lon="9.128296327217129"><ele>238.33333333333331</ele><time>2026-04-26T10:54:42Z</time></trkpt><trkpt lat="45.93370454601908" lon="9.128369600129025"><ele>219.0</ele><time>2026-04-26T10:54:43Z</time></trkpt><trkpt lat="45.93351354924125" lon="9.128435672596163"><ele>221.0</ele><time>2026-04-26T10:54:44Z</time></trkpt><trkpt lat="45.93333293750836" lon="9.128486458290697"><ele>223.0</ele><time>2026-04-26T10:54:45Z</time></trkpt><trkpt lat="45.93315976719225" lon="9.128531810161867"><ele>225.0</ele><time>2026-04-26T10:54:46Z</time></trkpt><trkpt lat="45.9329916371145" lon="9.128517418135715"><ele>225.0</ele><time>2026-04-26T10:54:47Z</time></trkpt><trkpt lat="45.932830731815855" lon="9.128471625561867"><ele>225.0</ele><time>2026-04-26T10:54:48Z</time></trkpt><trkpt lat="45.93266706615414" lon="9.12844367850946"><ele>225.0</ele><time>2026-04-26T10:54:49Z</time></trkpt><trkpt lat="45.93251367424167" lon="9.128383296857002"><ele>224.75</ele><time>2026-04-26T10:54:50Z</time></trkpt><trkpt lat="45.93237030107666" lon="9.1283204616532"><ele>224.5</ele><time>2026-04-26T10:54:51Z</time></trkpt><trkpt lat="45.93223495428827" lon="9.128245601958422"><ele>224.25</ele><time>2026-04-26T10:54:52Z</time></trkpt><trkpt lat="45.93211060757689" lon="9.12816259638912"><ele>224.0</ele><time>2026-04-26T10:54:53Z</time></trkpt><trkpt lat="45.93199665816782" lon="9.128115949731932"><ele>237.5</ele><time>2026-04-26T10:54:54Z</time></trkpt><trkpt lat="45.93189107836434" lon="9.12811047831811"><ele>251.0</ele><time>2026-04-26T10:54:55Z</time></trkpt><trkpt lat="45.931771561904085" lon="9.128104422872038"><ele>264.5</ele><time>2026-04-26T10:54:56Z</time></trkpt><trkpt lat="45.931620170518535" lon="9.128132985362203"><ele>278.0</ele><time>2026-04-26T10:54:57Z</time></trkpt><trkpt lat="45.931439892111435" lon="9.128179223886951"><ele>278.0</ele><time>2026-04-26T10:54:58Z</time></trkpt><trkpt lat="45.93128471529996" lon="9.128217325039989"><ele>278.0</ele><time>2026-04-26T10:54:59Z</time></trkpt><trkpt lat="45.93114435094726" lon="9.12825178926943"><ele>278.0</ele><time>2026-04-26T10:55:00Z</time></trkpt><trkpt lat="45.931028577112016" lon="9.128280215675137"><ele>278.0</ele><time>2026-04-26T10:55:01Z</time></trkpt><trkpt lat="45.93066312365753" lon="9.12848485918949"><ele>268.25</ele><time>2026-04-26T10:55:02Z</time></trkpt><trkpt lat="45.930529741577885" lon="9.128514915526983"><ele>258.5</ele><time>2026-04-26T10:55:03Z</time></trkpt><trkpt lat="45.93040374904487" lon="9.128545423906392"><ele>248.75</ele><time>2026-04-26T10:55:04Z</time></trkpt><trkpt lat="45.93027942537392" lon="9.128583963669431"><ele>239.0</ele><time>2026-04-26T10:55:05Z</time></trkpt><trkpt lat="45.93015887033268" lon="9.128637992144801"><ele>232.0</ele><time>2026-04-26T10:55:06Z</time></trkpt><trkpt lat="45.93004685476086" lon="9.12873379217855"><ele>225.0</ele><time>2026-04-26T10:55:07Z</time></trkpt><trkpt lat="45.92994666375074" lon="9.128887945321727"><ele>218.0</ele><time>2026-04-26T10:55:08.001Z</time></trkpt><trkpt lat="45.92983250331747" lon="9.129099526053253"><ele>218.0</ele><time>2026-04-26T10:55:09.001Z</time></trkpt><trkpt lat="45.929692499217204" lon="9.12930873535927"><ele>218.0</ele><time>2026-04-26T10:55:10.001Z</time></trkpt><trkpt lat="45.92954829787084" lon="9.129465640396427"><ele>218.0</ele><time>2026-04-26T10:55:11.001Z</time></trkpt><trkpt lat="45.929388523196685" lon="9.129573457131112"><ele>229.33333333333334</ele><time>2026-04-26T10:55:12.001Z</time></trkpt><trkpt lat="45.92919824752581" lon="9.129652859325669"><ele>240.66666666666669</ele><time>2026-04-26T10:55:13.001Z</time></trkpt><trkpt lat="45.92900015762475" lon="9.129733644621776"><ele>252.0</ele><time>2026-04-26T10:55:14.001Z</time></trkpt><trkpt lat="45.92880734415125" lon="9.12981383524216"><ele>252.0</ele><time>2026-04-26T10:55:15.001Z</time></trkpt><trkpt lat="45.92862294201152" lon="9.12986998460994"><ele>252.0</ele><time>2026-04-26T10:55:16.001Z</time></trkpt><trkpt lat="45.92846569496709" lon="9.129954098498372"><ele>252.0</ele><time>2026-04-26T10:55:17.001Z</time></trkpt><trkpt lat="45.9282912319715" lon="9.13000770461341"><ele>244.0</ele><time>2026-04-26T10:55:18.001Z</time></trkpt><trkpt lat="45.92813933888663" lon="9.130070534866142"><ele>236.0</ele><time>2026-04-26T10:55:19.001Z</time></trkpt><trkpt lat="45.92800063693084" lon="9.130127069149676"><ele>228.0</ele><time>2026-04-26T10:55:20.001Z</time></trkpt><trkpt lat="45.927867588691825" lon="9.130181543108687"><ele>220.0</ele><time>2026-04-26T10:55:21.001Z</time></trkpt><trkpt lat="45.92773637127084" lon="9.130235267015227"><ele>220.0</ele><time>2026-04-26T10:55:22.001Z</time></trkpt><trkpt lat="45.927613448211964" lon="9.130302653109016"><ele>220.0</ele><time>2026-04-26T10:55:23.001Z</time></trkpt><trkpt lat="45.92748833705744" lon="9.130360988839252"><ele>220.0</ele><time>2026-04-26T10:55:24.001Z</time></trkpt><trkpt lat="45.92736905828861" lon="9.130393035099436"><ele>220.0</ele><time>2026-04-26T10:55:25.001Z</time></trkpt><trkpt lat="45.92724392825899" lon="9.130460565275255"><ele>215.33333333333331</ele><time>2026-04-26T10:55:26.001Z</time></trkpt><trkpt lat="45.92709962502477" lon="9.130528239991971"><ele>210.66666666666669</ele><time>2026-04-26T10:55:27.001Z</time></trkpt><trkpt lat="45.92693336565513" lon="9.13066168029674"><ele>206.0</ele><time>2026-04-26T10:55:28.001Z</time></trkpt><trkpt lat="45.92674181761666" lon="9.130764808778439"><ele>212.0</ele><time>2026-04-26T10:55:29.001Z</time></trkpt><trkpt lat="45.926557582749076" lon="9.130835300354375"><ele>218.0</ele><time>2026-04-26T10:55:30.001Z</time></trkpt><trkpt lat="45.92639811217505" lon="9.130854667919564"><ele>224.0</ele><time>2026-04-26T10:55:31.001Z</time></trkpt><trkpt lat="45.92623402778754" lon="9.130869776006055"><ele>224.0</ele><time>2026-04-26T10:55:32.001Z</time></trkpt><trkpt lat="45.92609390112344" lon="9.13088805146528"><ele>224.0</ele><time>2026-04-26T10:55:33.001Z</time></trkpt><trkpt lat="45.925939061250276" lon="9.13092008134082"><ele>224.0</ele><time>2026-04-26T10:55:34.001Z</time></trkpt><trkpt lat="45.92579341521599" lon="9.130954367545556"><ele>224.0</ele><time>2026-04-26T10:55:35Z</time></trkpt><trkpt lat="45.92567972686286" lon="9.13097775268103"><ele>225.75</ele><time>2026-04-26T10:55:36Z</time></trkpt><trkpt lat="45.92554840041743" lon="9.13099551319533"><ele>227.5</ele><time>2026-04-26T10:55:37Z</time></trkpt><trkpt lat="45.92541657073634" lon="9.130990945195878"><ele>229.25</ele><time>2026-04-26T10:55:38Z</time></trkpt><trkpt lat="45.92528300472779" lon="9.130969636834724"><ele>231.0</ele><time>2026-04-26T10:55:39Z</time></trkpt><trkpt lat="45.92514014177622" lon="9.130921663681857"><ele>232.0</ele><time>2026-04-26T10:55:40Z</time></trkpt><trkpt lat="45.92499026534959" lon="9.130868373417973"><ele>233.0</ele><time>2026-04-26T10:55:41Z</time></trkpt><trkpt lat="45.924847828322946" lon="9.130827730238472"><ele>234.0</ele><time>2026-04-26T10:55:42Z</time></trkpt><trkpt lat="45.92472985844289" lon="9.130828472483254"><ele>235.0</ele><time>2026-04-26T10:55:43Z</time></trkpt><trkpt lat="45.92461504015261" lon="9.130825731928313"><ele>235.0</ele><time>2026-04-26T10:55:44Z</time></trkpt><trkpt lat="45.92448869138899" lon="9.130908470261009"><ele>235.0</ele><time>2026-04-26T10:55:45Z</time></trkpt><trkpt lat="45.92436326873639" lon="9.13097921292575"><ele>235.0</ele><time>2026-04-26T10:55:46Z</time></trkpt><trkpt lat="45.92420918623857" lon="9.131043209180303"><ele>235.0</ele><time>2026-04-26T10:55:47Z</time></trkpt><trkpt lat="45.9240251624273" lon="9.131137104752396"><ele>243.0</ele><time>2026-04-26T10:55:48Z</time></trkpt><trkpt lat="45.92379182441547" lon="9.131255353853295"><ele>251.0</ele><time>2026-04-26T10:55:49Z</time></trkpt><trkpt lat="45.9235468534442" lon="9.131361383311896"><ele>253.5</ele><time>2026-04-26T10:55:50Z</time></trkpt><trkpt lat="45.92331206719536" lon="9.13142087242781"><ele>256.0</ele><time>2026-04-26T10:55:51Z</time></trkpt><trkpt lat="45.92309737918333" lon="9.131423067198705"><ele>256.0</ele><time>2026-04-26T10:55:52Z</time></trkpt><trkpt lat="45.922903253322325" lon="9.13139438324169"><ele>256.0</ele><time>2026-04-26T10:55:53Z</time></trkpt><trkpt lat="45.922715432791314" lon="9.131354595682982"><ele>256.0</ele><time>2026-04-26T10:55:54Z</time></trkpt><trkpt lat="45.92254611419308" lon="9.131317491293066"><ele>257.0</ele><time>2026-04-26T10:55:55Z</time></trkpt><trkpt lat="45.9223830732191" lon="9.13128012157112"><ele>258.0</ele><time>2026-04-26T10:55:56Z</time></trkpt><trkpt lat="45.92223535134834" lon="9.13124692268146"><ele>259.0</ele><time>2026-04-26T10:55:57Z</time></trkpt><trkpt lat="45.92211144214894" lon="9.131219402505046"><ele>260.0</ele><time>2026-04-26T10:55:58Z</time></trkpt><trkpt lat="45.921973405426264" lon="9.131191689909583"><ele>260.0</ele><time>2026-04-26T10:55:59Z</time></trkpt><trkpt lat="45.921847150032235" lon="9.13118381168153"><ele>260.0</ele><time>2026-04-26T10:56:00Z</time></trkpt><trkpt lat="45.92176617147621" lon="9.13119836200095"><ele>260.0</ele><time>2026-04-26T10:56:01Z</time></trkpt><trkpt lat="45.9216606610297" lon="9.13122183184399"><ele>260.0</ele><time>2026-04-26T10:56:02Z</time></trkpt><trkpt lat="45.92156019301572" lon="9.131251201885838"><ele>260.0</ele><time>2026-04-26T10:56:03Z</time></trkpt><trkpt lat="45.921464500558415" lon="9.131295736617973"><ele>258.4</ele><time>2026-04-26T10:56:04Z</time></trkpt><trkpt lat="45.92138184021639" lon="9.131337004397558"><ele>256.8</ele><time>2026-04-26T10:56:05Z</time></trkpt><trkpt lat="45.921300421290894" lon="9.131371105007096"><ele>255.2</ele><time>2026-04-26T10:56:06Z</time></trkpt><trkpt lat="45.92121232248558" lon="9.13138664545589"><ele>253.6</ele><time>2026-04-26T10:56:07Z</time></trkpt><trkpt lat="45.92111684103538" lon="9.131419313779459"><ele>252.0</ele><time>2026-04-26T10:56:08Z</time></trkpt><trkpt lat="45.921010433904584" lon="9.13147303276975"><ele>253.0</ele><time>2026-04-26T10:56:09Z</time></trkpt><trkpt lat="45.92089255655193" lon="9.131479589197156"><ele>254.0</ele><time>2026-04-26T10:56:10Z</time></trkpt><trkpt lat="45.92078588908158" lon="9.131501196035508"><ele>255.0</ele><time>2026-04-26T10:56:11Z</time></trkpt><trkpt lat="45.92067065027823" lon="9.131504343902703"><ele>256.0</ele><time>2026-04-26T10:56:12Z</time></trkpt><trkpt lat="45.92052303641769" lon="9.131520961009803"><ele>256.0</ele><time>2026-04-26T10:56:13Z</time></trkpt><trkpt lat="45.92034445848496" lon="9.131524059939235"><ele>256.0</ele><time>2026-04-26T10:56:14Z</time></trkpt><trkpt lat="45.92016190985639" lon="9.131537578527288"><ele>256.0</ele><time>2026-04-26T10:56:15Z</time></trkpt><trkpt lat="45.91996502001699" lon="9.131591402148283"><ele>239.0</ele><time>2026-04-26T10:56:16Z</time></trkpt><trkpt lat="45.91972018055809" lon="9.1316713703137"><ele>222.0</ele><time>2026-04-26T10:56:17Z</time></trkpt><trkpt lat="45.91945237581326" lon="9.131773325914498"><ele>229.0</ele><time>2026-04-26T10:56:18Z</time></trkpt><trkpt lat="45.91918181381225" lon="9.131850606317187"><ele>236.0</ele><time>2026-04-26T10:56:19Z</time></trkpt><trkpt lat="45.918941169958856" lon="9.13188813971495"><ele>236.0</ele><time>2026-04-26T10:56:20Z</time></trkpt><trkpt lat="45.91871076048457" lon="9.131919166209867"><ele>236.0</ele><time>2026-04-26T10:56:21Z</time></trkpt><trkpt lat="45.918483663706574" lon="9.131938182660798"><ele>247.5</ele><time>2026-04-26T10:56:22Z</time></trkpt><trkpt lat="45.91825203029895" lon="9.131957299475562"><ele>259.0</ele><time>2026-04-26T10:56:23.022Z</time></trkpt><trkpt lat="45.91803345169803" lon="9.1321309462968"><ele>259.0</ele><time>2026-04-26T10:56:24.016Z</time></trkpt><trkpt lat="45.917805003092774" lon="9.13197625455366"><ele>259.0</ele><time>2026-04-26T10:56:25.013Z</time></trkpt><trkpt lat="45.91759768000059" lon="9.131943097631545"><ele>264.5</ele><time>2026-04-26T10:56:26.015Z</time></trkpt><trkpt lat="45.91738021785995" lon="9.131942089187335"><ele>270.0</ele><time>2026-04-26T10:56:27.015Z</time></trkpt><trkpt lat="45.91506953520135" lon="9.131929377051424"><ele>261.3333333333333</ele><time>2026-04-26T10:56:38.178Z</time></trkpt><trkpt lat="45.914936908219595" lon="9.131926171710694"><ele>252.66666666666666</ele><time>2026-04-26T10:56:38.903Z</time></trkpt><trkpt lat="45.91475694058809" lon="9.13192122035459"><ele>244.0</ele><time>2026-04-26T10:56:39.878Z</time></trkpt><trkpt lat="45.91444801651122" lon="9.131917026176879"><ele>238.5</ele><time>2026-04-26T10:56:41.585Z</time></trkpt><trkpt lat="45.91404266532201" lon="9.13191464219228"><ele>233.0</ele><time>2026-04-26T10:56:43.889Z</time></trkpt><trkpt lat="45.913895705026" lon="9.13191377845834"><ele>220.0</ele><time>2026-04-26T10:56:44.745Z</time></trkpt><trkpt lat="45.91319885440611" lon="9.13190693634666"><ele>237.0</ele><time>2026-04-26T10:56:48.955Z</time></trkpt><trkpt lat="45.9087502258326" lon="9.130963264041702"><ele>237.0</ele><time>2026-04-26T10:57:16.001Z</time></trkpt><trkpt lat="45.90860375313866" lon="9.131005000561434"><ele>237.0</ele><time>2026-04-26T10:57:17.001Z</time></trkpt><trkpt lat="45.90844606377058" lon="9.131104705169601"><ele>237.0</ele><time>2026-04-26T10:57:18.001Z</time></trkpt><trkpt lat="45.90823441834343" lon="9.131083797359212"><ele>240.33333333333331</ele><time>2026-04-26T10:57:19.001Z</time></trkpt><trkpt lat="45.908036651680334" lon="9.131117853065357"><ele>243.66666666666666</ele><time>2026-04-26T10:57:20.001Z</time></trkpt><trkpt lat="45.9078292435524" lon="9.131181257210324"><ele>247.0</ele><time>2026-04-26T10:57:21.001Z</time></trkpt><trkpt lat="45.90763118752275" lon="9.131223761704922"><ele>248.33333333333331</ele><time>2026-04-26T10:57:22.001Z</time></trkpt><trkpt lat="45.90744924454029" lon="9.131267531935535"><ele>249.66666666666669</ele><time>2026-04-26T10:57:23.001Z</time></trkpt><trkpt lat="45.9072734883392" lon="9.131304702532868"><ele>251.0</ele><time>2026-04-26T10:57:24.001Z</time></trkpt><trkpt lat="45.907111312732034" lon="9.13133780466485"><ele>251.0</ele><time>2026-04-26T10:57:25.001Z</time></trkpt><trkpt lat="45.906990841565225" lon="9.131371223129179"><ele>251.00000000000003</ele><time>2026-04-26T10:57:26.001Z</time></trkpt><trkpt lat="45.906894403198386" lon="9.131406988513222"><ele>251.00000000000003</ele><time>2026-04-26T10:57:27.001Z</time></trkpt><trkpt lat="45.90682097290095" lon="9.13143539583953"><ele>251.0</ele><time>2026-04-26T10:57:28.001Z</time></trkpt><trkpt lat="45.90675085502116" lon="9.131463897097882"><ele>251.0</ele><time>2026-04-26T10:57:29.001Z</time></trkpt><trkpt lat="45.906664688852345" lon="9.131493813181857"><ele>251.50000000000003</ele><time>2026-04-26T10:57:31.001Z</time></trkpt><trkpt lat="45.90658115271609" lon="9.131504474368894"><ele>252.0</ele><time>2026-04-26T10:57:33.001Z</time></trkpt><trkpt lat="45.90648266486788" lon="9.131549292770547"><ele>252.5</ele><time>2026-04-26T10:57:35.001Z</time></trkpt><trkpt lat="45.9064149096913" lon="9.131574132553558"><ele>253.0</ele><time>2026-04-26T10:57:36.001Z</time></trkpt><trkpt lat="45.90632920135621" lon="9.131619912447878"><ele>253.50000000000003</ele><time>2026-04-26T10:57:37.001Z</time></trkpt><trkpt lat="45.90624482049585" lon="9.13165227550721"><ele>254.0</ele><time>2026-04-26T10:57:38.001Z</time></trkpt><trkpt lat="45.90615279394911" lon="9.131681414066835"><ele>245.33333333333334</ele><time>2026-04-26T10:57:39.001Z</time></trkpt><trkpt lat="45.90604669990219" lon="9.131722445056583"><ele>236.66666666666669</ele><time>2026-04-26T10:57:40.001Z</time></trkpt><trkpt lat="45.90589136198267" lon="9.131820076050294"><ele>228.0</ele><time>2026-04-26T10:57:41Z</time></trkpt><trkpt lat="45.905708082820325" lon="9.131960340222877"><ele>228.0</ele><time>2026-04-26T10:57:42Z</time></trkpt><trkpt lat="45.90551928893684" lon="9.132168057236967"><ele>228.0</ele><time>2026-04-26T10:57:43Z</time></trkpt><trkpt lat="45.90531564499936" lon="9.132426857988664"><ele>233.0</ele><time>2026-04-26T10:57:44Z</time></trkpt><trkpt lat="45.90510297316235" lon="9.132676608268778"><ele>238.0</ele><time>2026-04-26T10:57:45Z</time></trkpt><trkpt lat="45.904867985114855" lon="9.132863065387909"><ele>238.0</ele><time>2026-04-26T10:57:46Z</time></trkpt><trkpt lat="45.904647665592464" lon="9.133022358646787"><ele>238.0</ele><time>2026-04-26T10:57:47Z</time></trkpt><trkpt lat="45.90442120425349" lon="9.133183061374124"><ele>236.0</ele><time>2026-04-26T10:57:48Z</time></trkpt><trkpt lat="45.90421477758894" lon="9.133399229737368"><ele>234.0</ele><time>2026-04-26T10:57:49Z</time></trkpt><trkpt lat="45.903990198783475" lon="9.13361698391312"><ele>234.0</ele><time>2026-04-26T10:57:50Z</time></trkpt><trkpt lat="45.903772193539645" lon="9.133825910969005"><ele>234.0</ele><time>2026-04-26T10:57:51Z</time></trkpt><trkpt lat="45.903579662618846" lon="9.133996977644404"><ele>228.5</ele><time>2026-04-26T10:57:52Z</time></trkpt><trkpt lat="45.903374106494745" lon="9.13411263503225"><ele>223.0</ele><time>2026-04-26T10:57:53Z</time></trkpt><trkpt lat="45.90314186138097" lon="9.134236270435732"><ele>223.0</ele><time>2026-04-26T10:57:54Z</time></trkpt><trkpt lat="45.90290231193043" lon="9.134384140564734"><ele>223.0</ele><time>2026-04-26T10:57:55Z</time></trkpt><trkpt lat="45.902652221179196" lon="9.134606890855464"><ele>217.0</ele><time>2026-04-26T10:57:56Z</time></trkpt><trkpt lat="45.902383922056586" lon="9.134815995205061"><ele>211.0</ele><time>2026-04-26T10:57:57Z</time></trkpt><trkpt lat="45.902110184706125" lon="9.135026650532303"><ele>211.0</ele><time>2026-04-26T10:57:58Z</time></trkpt><trkpt lat="45.901865485825525" lon="9.135212887156186"><ele>211.0</ele><time>2026-04-26T10:57:59Z</time></trkpt><trkpt lat="45.90162902479256" lon="9.135372398246346"><ele>224.5</ele><time>2026-04-26T10:58:00Z</time></trkpt><trkpt lat="45.90140919129001" lon="9.135529820662168"><ele>238.0</ele><time>2026-04-26T10:58:01Z</time></trkpt><trkpt lat="45.90122236095802" lon="9.135718068569565"><ele>236.33333333333331</ele><time>2026-04-26T10:58:02Z</time></trkpt><trkpt lat="45.90103380311256" lon="9.13588713592695"><ele>234.66666666666669</ele><time>2026-04-26T10:58:03Z</time></trkpt><trkpt lat="45.90083269741003" lon="9.136036493853283"><ele>233.0</ele><time>2026-04-26T10:58:04Z</time></trkpt><trkpt lat="45.90064342537305" lon="9.136185210295787"><ele>233.0</ele><time>2026-04-26T10:58:05Z</time></trkpt><trkpt lat="45.9004722358134" lon="9.136320542935017"><ele>233.0</ele><time>2026-04-26T10:58:06Z</time></trkpt><trkpt lat="45.90031591386281" lon="9.136459705395731"><ele>233.0</ele><time>2026-04-26T10:58:07Z</time></trkpt><trkpt lat="45.900171290183984" lon="9.136589133179127"><ele>229.66666666666669</ele><time>2026-04-26T10:58:08Z</time></trkpt><trkpt lat="45.90002949869007" lon="9.136692024221363"><ele>226.33333333333331</ele><time>2026-04-26T10:58:09Z</time></trkpt><trkpt lat="45.89988109356013" lon="9.136783861637761"><ele>223.0</ele><time>2026-04-26T10:58:10Z</time></trkpt><trkpt lat="45.89972248660523" lon="9.13686620109132"><ele>223.0</ele><time>2026-04-26T10:58:11Z</time></trkpt><trkpt lat="45.89954534607038" lon="9.136919853068518"><ele>223.0</ele><time>2026-04-26T10:58:12Z</time></trkpt><trkpt lat="45.89935251370657" lon="9.136970754450362"><ele>223.0</ele><time>2026-04-26T10:58:13Z</time></trkpt><trkpt lat="45.89916091484168" lon="9.137070475006402"><ele>228.5</ele><time>2026-04-26T10:58:14Z</time></trkpt><trkpt lat="45.89897402502841" lon="9.137233471454662"><ele>234.0</ele><time>2026-04-26T10:58:15Z</time></trkpt><trkpt lat="45.89876628836079" lon="9.137407078097098"><ele>222.0</ele><time>2026-04-26T10:58:16Z</time></trkpt><trkpt lat="45.89855273456238" lon="9.137641602397947"><ele>210.0</ele><time>2026-04-26T10:58:17Z</time></trkpt><trkpt lat="45.89847326553975" lon="9.13738865154534"><ele>216.33333333333331</ele><time>2026-04-26T10:58:18Z</time></trkpt><trkpt lat="45.89830912587845" lon="9.13752446560874"><ele>222.66666666666666</ele><time>2026-04-26T10:58:19Z</time></trkpt><trkpt lat="45.89814756057165" lon="9.137719884954466"><ele>229.0</ele><time>2026-04-26T10:58:20Z</time></trkpt><trkpt lat="45.89797367778567" lon="9.137929262192856"><ele>229.0</ele><time>2026-04-26T10:58:21Z</time></trkpt><trkpt lat="45.89779945582991" lon="9.138139146505068"><ele>229.0</ele><time>2026-04-26T10:58:22Z</time></trkpt><trkpt lat="45.89763450402323" lon="9.138351841153398"><ele>229.0</ele><time>2026-04-26T10:58:23Z</time></trkpt><trkpt lat="45.89745746206184" lon="9.138524338686214"><ele>231.0</ele><time>2026-04-26T10:58:24Z</time></trkpt><trkpt lat="45.897272800477914" lon="9.138699307621032"><ele>233.0</ele><time>2026-04-26T10:58:25Z</time></trkpt><trkpt lat="45.89708702522532" lon="9.138844100363116"><ele>235.0</ele><time>2026-04-26T10:58:26Z</time></trkpt><trkpt lat="45.89690718476521" lon="9.138987654900925"><ele>233.33333333333331</ele><time>2026-04-26T10:58:27Z</time></trkpt><trkpt lat="45.89673740302843" lon="9.13913815288603"><ele>231.66666666666669</ele><time>2026-04-26T10:58:28Z</time></trkpt><trkpt lat="45.89657348006867" lon="9.139316370961106"><ele>230.0</ele><time>2026-04-26T10:58:29Z</time></trkpt><trkpt lat="45.89642316339802" lon="9.139518843612674"><ele>230.0</ele><time>2026-04-26T10:58:30Z</time></trkpt><trkpt lat="45.89628663890438" lon="9.139755053152076"><ele>230.0</ele><time>2026-04-26T10:58:31Z</time></trkpt><trkpt lat="45.896143971066934" lon="9.139998722384943"><ele>230.0</ele><time>2026-04-26T10:58:32Z</time></trkpt><trkpt lat="45.89600856454086" lon="9.140228097533937"><ele>227.66666666666669</ele><time>2026-04-26T10:58:33Z</time></trkpt><trkpt lat="45.89587701422568" lon="9.140482024215496"><ele>225.33333333333331</ele><time>2026-04-26T10:58:34Z</time></trkpt><trkpt lat="45.895752926399" lon="9.140754280613555"><ele>223.0</ele><time>2026-04-26T10:58:35Z</time></trkpt><trkpt lat="45.895615002308766" lon="9.14101251092297"><ele>223.0</ele><time>2026-04-26T10:58:36Z</time></trkpt><trkpt lat="45.895508401606364" lon="9.141267393657941"><ele>223.0</ele><time>2026-04-26T10:58:37Z</time></trkpt><trkpt lat="45.89537696103957" lon="9.14147241824087"><ele>223.0</ele><time>2026-04-26T10:58:38Z</time></trkpt><trkpt lat="45.89522325916957" lon="9.141667309775643"><ele>226.33333333333331</ele><time>2026-04-26T10:58:39Z</time></trkpt><trkpt lat="45.89506712243578" lon="9.141829459445319"><ele>229.66666666666669</ele><time>2026-04-26T10:58:40Z</time></trkpt><trkpt lat="45.89491276884991" lon="9.141991643131021"><ele>233.0</ele><time>2026-04-26T10:58:41Z</time></trkpt><trkpt lat="45.89475564133216" lon="9.142119468835212"><ele>233.0</ele><time>2026-04-26T10:58:42Z</time></trkpt><trkpt lat="45.89457478303652" lon="9.142260245898568"><ele>233.0</ele><time>2026-04-26T10:58:43Z</time></trkpt><trkpt lat="45.894389546657926" lon="9.142354199648564"><ele>233.0</ele><time>2026-04-26T10:58:44Z</time></trkpt><trkpt lat="45.89419663083449" lon="9.142447183630242"><ele>230.66666666666669</ele><time>2026-04-26T10:58:45Z</time></trkpt><trkpt lat="45.89400118454542" lon="9.142559457902362"><ele>228.33333333333331</ele><time>2026-04-26T10:58:46Z</time></trkpt><trkpt lat="45.89380216488815" lon="9.142713184130377"><ele>226.0</ele><time>2026-04-26T10:58:47Z</time></trkpt><trkpt lat="45.89361512887085" lon="9.142848581463596"><ele>226.0</ele><time>2026-04-26T10:58:48Z</time></trkpt><trkpt lat="45.89342914328594" lon="9.142968109489775"><ele>226.0</ele><time>2026-04-26T10:58:49Z</time></trkpt><trkpt lat="45.893256149983806" lon="9.143090766970127"><ele>226.0</ele><time>2026-04-26T10:58:50Z</time></trkpt><trkpt lat="45.89308590384192" lon="9.143223689978782"><ele>223.66666666666666</ele><time>2026-04-26T10:58:51Z</time></trkpt><trkpt lat="45.8929185604719" lon="9.143368636045977"><ele>221.33333333333331</ele><time>2026-04-26T10:58:52Z</time></trkpt><trkpt lat="45.892752817966105" lon="9.143496624553865"><ele>219.0</ele><time>2026-04-26T10:58:53Z</time></trkpt><trkpt lat="45.89256413376486" lon="9.143641965780965"><ele>223.66666666666669</ele><time>2026-04-26T10:58:54.001Z</time></trkpt><trkpt lat="45.8924072308689" lon="9.143746388993424"><ele>228.33333333333334</ele><time>2026-04-26T10:58:55.001Z</time></trkpt><trkpt lat="45.89226868367308" lon="9.143858368610928"><ele>233.0</ele><time>2026-04-26T10:58:56.001Z</time></trkpt><trkpt lat="45.89210685822045" lon="9.143939573306794"><ele>233.0</ele><time>2026-04-26T10:58:57.001Z</time></trkpt><trkpt lat="45.891925070401896" lon="9.143993368532389"><ele>233.0</ele><time>2026-04-26T10:58:58.001Z</time></trkpt><trkpt lat="45.89174084251001" lon="9.143994252307005"><ele>233.0</ele><time>2026-04-26T10:58:59.001Z</time></trkpt><trkpt lat="45.89157223055486" lon="9.143968146587195"><ele>235.33333333333334</ele><time>2026-04-26T10:59:00.001Z</time></trkpt><trkpt lat="45.89141885056156" lon="9.143885212034293"><ele>237.66666666666669</ele><time>2026-04-26T10:59:01.001Z</time></trkpt><trkpt lat="45.891258899612126" lon="9.143772662887098"><ele>240.0</ele><time>2026-04-26T10:59:02.001Z</time></trkpt><trkpt lat="45.89106098747357" lon="9.143660352019605"><ele>238.66666666666669</ele><time>2026-04-26T10:59:03.001Z</time></trkpt><trkpt lat="45.89088490650901" lon="9.14355179347408"><ele>237.33333333333334</ele><time>2026-04-26T10:59:04.001Z</time></trkpt><trkpt lat="45.89067480831347" lon="9.14340862574391"><ele>236.0</ele><time>2026-04-26T10:59:05.001Z</time></trkpt><trkpt lat="45.8904623284802" lon="9.143258155685716"><ele>240.33333333333334</ele><time>2026-04-26T10:59:06.001Z</time></trkpt><trkpt lat="45.89028681574971" lon="9.143080052641755"><ele>244.66666666666669</ele><time>2026-04-26T10:59:07.001Z</time></trkpt><trkpt lat="45.89009944078024" lon="9.1429402038623"><ele>249.0</ele><time>2026-04-26T10:59:08.001Z</time></trkpt><trkpt lat="45.88989408704587" lon="9.142832043826555"><ele>249.0</ele><time>2026-04-26T10:59:09.001Z</time></trkpt><trkpt lat="45.88968638583652" lon="9.142762954393124"><ele>249.0</ele><time>2026-04-26T10:59:10.001Z</time></trkpt><trkpt lat="45.88945306527936" lon="9.142738771803346"><ele>249.0</ele><time>2026-04-26T10:59:11.001Z</time></trkpt><trkpt lat="45.889213650910634" lon="9.142720832022285"><ele>246.33333333333331</ele><time>2026-04-26T10:59:12.001Z</time></trkpt><trkpt lat="45.8889914927204" lon="9.142682200049698"><ele>243.66666666666666</ele><time>2026-04-26T10:59:13.001Z</time></trkpt><trkpt lat="45.888785284303744" lon="9.142651174971817"><ele>241.0</ele><time>2026-04-26T10:59:14.001Z</time></trkpt><trkpt lat="45.8885972906631" lon="9.14258396337576"><ele>235.0</ele><time>2026-04-26T10:59:15.001Z</time></trkpt><trkpt lat="45.88841759664088" lon="9.142487106738091"><ele>229.0</ele><time>2026-04-26T10:59:16.001Z</time></trkpt><trkpt lat="45.88826926266064" lon="9.1423082749306"><ele>223.0</ele><time>2026-04-26T10:59:17.001Z</time></trkpt><trkpt lat="45.888142416455395" lon="9.142154965298298"><ele>236.33333333333331</ele><time>2026-04-26T10:59:18.001Z</time></trkpt><trkpt lat="45.88803779401131" lon="9.141963903425054"><ele>249.66666666666669</ele><time>2026-04-26T10:59:19.001Z</time></trkpt><trkpt lat="45.8879144639802" lon="9.141735366514945"><ele>263.0</ele><time>2026-04-26T10:59:20.001Z</time></trkpt><trkpt lat="45.88777956072382" lon="9.141513537959128"><ele>261.33333333333337</ele><time>2026-04-26T10:59:21.001Z</time></trkpt><trkpt lat="45.88764089948602" lon="9.141295255140504"><ele>259.6666666666667</ele><time>2026-04-26T10:59:22.001Z</time></trkpt><trkpt lat="45.887506302818295" lon="9.141070958463263"><ele>258.0</ele><time>2026-04-26T10:59:23.001Z</time></trkpt><trkpt lat="45.88738688925071" lon="9.1409055241132"><ele>258.0</ele><time>2026-04-26T10:59:24.001Z</time></trkpt><trkpt lat="45.887236616483044" lon="9.140775967248056"><ele>258.0</ele><time>2026-04-26T10:59:25.001Z</time></trkpt><trkpt lat="45.88706270587778" lon="9.140699365835935"><ele>258.0</ele><time>2026-04-26T10:59:26.001Z</time></trkpt><trkpt lat="45.88687812081293" lon="9.140663439614373"><ele>264.0</ele><time>2026-04-26T10:59:27.001Z</time></trkpt><trkpt lat="45.886681464605076" lon="9.14065962130465"><ele>270.0</ele><time>2026-04-26T10:59:28.001Z</time></trkpt><trkpt lat="45.886469779214835" lon="9.140708589439733"><ele>276.0</ele><time>2026-04-26T10:59:29.001Z</time></trkpt><trkpt lat="45.88626836429642" lon="9.140735476698023"><ele>264.6666666666667</ele><time>2026-04-26T10:59:30.001Z</time></trkpt><trkpt lat="45.88605701812757" lon="9.140790841063904"><ele>253.33333333333334</ele><time>2026-04-26T10:59:31.001Z</time></trkpt><trkpt lat="45.88587396454592" lon="9.140824401626638"><ele>242.0</ele><time>2026-04-26T10:59:32.001Z</time></trkpt><trkpt lat="45.885696390219586" lon="9.14079112768424"><ele>242.0</ele><time>2026-04-26T10:59:33.001Z</time></trkpt><trkpt lat="45.88552410185065" lon="9.140738021204667"><ele>242.0</ele><time>2026-04-26T10:59:34.001Z</time></trkpt><trkpt lat="45.8853547607379" lon="9.14063467218452"><ele>242.0</ele><time>2026-04-26T10:59:35.001Z</time></trkpt><trkpt lat="45.88520269502381" lon="9.140487957856033"><ele>246.33333333333334</ele><time>2026-04-26T10:59:36.001Z</time></trkpt><trkpt lat="45.885057092607795" lon="9.140315907386631"><ele>250.66666666666669</ele><time>2026-04-26T10:59:37.001Z</time></trkpt><trkpt lat="45.88491578468627" lon="9.140144612973232"><ele>255.0</ele><time>2026-04-26T10:59:38.001Z</time></trkpt><trkpt lat="45.88477085451052" lon="9.13996792987256"><ele>263.0</ele><time>2026-04-26T10:59:39.001Z</time></trkpt><trkpt lat="45.88462293800564" lon="9.139788567771177"><ele>271.0</ele><time>2026-04-26T10:59:40.001Z</time></trkpt><trkpt lat="45.88447267866079" lon="9.13960802916488"><ele>279.0</ele><time>2026-04-26T10:59:41.001Z</time></trkpt><trkpt lat="45.88432239224704" lon="9.139424768785867"><ele>283.0</ele><time>2026-04-26T10:59:42.001Z</time></trkpt><trkpt lat="45.88416207511735" lon="9.139228339380523"><ele>287.0</ele><time>2026-04-26T10:59:43.001Z</time></trkpt><trkpt lat="45.88399012950631" lon="9.139020051452306"><ele>291.0</ele><time>2026-04-26T10:59:44.001Z</time></trkpt><trkpt lat="45.88383712829407" lon="9.138835543148197"><ele>291.0</ele><time>2026-04-26T10:59:45.001Z</time></trkpt><trkpt lat="45.883681854971925" lon="9.13864843723397"><ele>291.0</ele><time>2026-04-26T10:59:46.001Z</time></trkpt><trkpt lat="45.88354331352196" lon="9.138480819143208"><ele>291.0</ele><time>2026-04-26T10:59:47Z</time></trkpt><trkpt lat="45.88341734026592" lon="9.138327923083164"><ele>286.3333333333333</ele><time>2026-04-26T10:59:48Z</time></trkpt><trkpt lat="45.883289558023264" lon="9.138172831420734"><ele>281.66666666666663</ele><time>2026-04-26T10:59:49Z</time></trkpt><trkpt lat="45.883143679730054" lon="9.137994823153706"><ele>277.0</ele><time>2026-04-26T10:59:50Z</time></trkpt><trkpt lat="45.88298216558263" lon="9.137837684727609"><ele>277.0</ele><time>2026-04-26T10:59:51Z</time></trkpt><trkpt lat="45.882818779882875" lon="9.137646025527127"><ele>277.0</ele><time>2026-04-26T10:59:52Z</time></trkpt><trkpt lat="45.88263990575712" lon="9.137459497440844"><ele>277.0</ele><time>2026-04-26T10:59:53Z</time></trkpt><trkpt lat="45.88242669205358" lon="9.137319033433698"><ele>277.5</ele><time>2026-04-26T10:59:54Z</time></trkpt><trkpt lat="45.88220597550396" lon="9.137176133281487"><ele>278.0</ele><time>2026-04-26T10:59:55Z</time></trkpt><trkpt lat="45.881945199066465" lon="9.137035981626049"><ele>272.5</ele><time>2026-04-26T10:59:56Z</time></trkpt><trkpt lat="45.88165573505952" lon="9.136878097843624"><ele>267.0</ele><time>2026-04-26T10:59:57Z</time></trkpt><trkpt lat="45.88142924112388" lon="9.136752945011008"><ele>267.0</ele><time>2026-04-26T10:59:58Z</time></trkpt><trkpt lat="45.881168891524666" lon="9.136709027095648"><ele>267.0</ele><time>2026-04-26T10:59:59Z</time></trkpt><trkpt lat="45.88089822433318" lon="9.136590270439493"><ele>273.0</ele><time>2026-04-26T11:00:00Z</time></trkpt><trkpt lat="45.88064518081832" lon="9.136469665988889"><ele>279.0</ele><time>2026-04-26T11:00:01Z</time></trkpt><trkpt lat="45.88041272814044" lon="9.13630600607247"><ele>279.0</ele><time>2026-04-26T11:00:02Z</time></trkpt><trkpt lat="45.88019966800804" lon="9.136086752322624"><ele>279.0</ele><time>2026-04-26T11:00:03Z</time></trkpt><trkpt lat="45.879955746202" lon="9.135957661720742"><ele>285.0</ele><time>2026-04-26T11:00:04Z</time></trkpt><trkpt lat="45.879713889971256" lon="9.13582587863733"><ele>291.0</ele><time>2026-04-26T11:00:05Z</time></trkpt><trkpt lat="45.87947938059201" lon="9.135700746566107"><ele>291.0</ele><time>2026-04-26T11:00:06Z</time></trkpt><trkpt lat="45.87928842154328" lon="9.135585957698192"><ele>291.0</ele><time>2026-04-26T11:00:07Z</time></trkpt><trkpt lat="45.87912943316088" lon="9.135457166606978"><ele>291.0</ele><time>2026-04-26T11:00:08Z</time></trkpt><trkpt lat="45.878994982830434" lon="9.135310029307231"><ele>292.6666666666667</ele><time>2026-04-26T11:00:09Z</time></trkpt><trkpt lat="45.87888359169475" lon="9.135111796790921"><ele>294.33333333333337</ele><time>2026-04-26T11:00:10Z</time></trkpt><trkpt lat="45.87876776390476" lon="9.134895996640212"><ele>296.0</ele><time>2026-04-26T11:00:11Z</time></trkpt><trkpt lat="45.87864935128624" lon="9.13467664710027"><ele>296.0</ele><time>2026-04-26T11:00:12Z</time></trkpt><trkpt lat="45.87853160446672" lon="9.13445826420002"><ele>296.0</ele><time>2026-04-26T11:00:13Z</time></trkpt><trkpt lat="45.87842873370018" lon="9.134266404259941"><ele>296.0</ele><time>2026-04-26T11:00:14Z</time></trkpt><trkpt lat="45.878327921175625" lon="9.134078342891327"><ele>293.6666666666667</ele><time>2026-04-26T11:00:15Z</time></trkpt><trkpt lat="45.87822692562665" lon="9.133892580333136"><ele>291.3333333333333</ele><time>2026-04-26T11:00:16Z</time></trkpt><trkpt lat="45.878124380679836" lon="9.133701868650183"><ele>289.0</ele><time>2026-04-26T11:00:17Z</time></trkpt><trkpt lat="45.87802826070472" lon="9.133540801955228"><ele>289.0</ele><time>2026-04-26T11:00:18Z</time></trkpt><trkpt lat="45.877929837942474" lon="9.133328194470925"><ele>289.0</ele><time>2026-04-26T11:00:19Z</time></trkpt><trkpt lat="45.87781223262739" lon="9.133152457958365"><ele>289.0</ele><time>2026-04-26T11:00:20Z</time></trkpt><trkpt lat="45.877707684450506" lon="9.132927098638303"><ele>286.66666666666663</ele><time>2026-04-26T11:00:21Z</time></trkpt><trkpt lat="45.877582763333166" lon="9.132694760999575"><ele>284.3333333333333</ele><time>2026-04-26T11:00:22Z</time></trkpt><trkpt lat="45.87745289965082" lon="9.132453231737111"><ele>282.0</ele><time>2026-04-26T11:00:23Z</time></trkpt><trkpt lat="45.877317296868256" lon="9.132201047951645"><ele>282.0</ele><time>2026-04-26T11:00:24Z</time></trkpt><trkpt lat="45.87717859471919" lon="9.131975794343083"><ele>282.0</ele><time>2026-04-26T11:00:25Z</time></trkpt><trkpt lat="45.87706120113336" lon="9.1317179308081"><ele>282.0</ele><time>2026-04-26T11:00:26Z</time></trkpt><trkpt lat="45.87692136484646" lon="9.131485263028921"><ele>278.3333333333333</ele><time>2026-04-26T11:00:27Z</time></trkpt><trkpt lat="45.876812118363205" lon="9.131277242221696"><ele>274.66666666666663</ele><time>2026-04-26T11:00:28Z</time></trkpt><trkpt lat="45.87667926425389" lon="9.13106329772531"><ele>271.0</ele><time>2026-04-26T11:00:29Z</time></trkpt><trkpt lat="45.87654777609469" lon="9.130863095064484"><ele>276.66666666666663</ele><time>2026-04-26T11:00:30Z</time></trkpt><trkpt lat="45.87643931806263" lon="9.13067614656025"><ele>282.3333333333333</ele><time>2026-04-26T11:00:31Z</time></trkpt><trkpt lat="45.87632973443342" lon="9.130512160316316"><ele>288.0</ele><time>2026-04-26T11:00:32Z</time></trkpt><trkpt lat="45.876232234444835" lon="9.130336499503917"><ele>288.0</ele><time>2026-04-26T11:00:33Z</time></trkpt><trkpt lat="45.876109121397434" lon="9.130145950974141"><ele>288.0</ele><time>2026-04-26T11:00:34Z</time></trkpt><trkpt lat="45.87599369052161" lon="9.129949819112914"><ele>288.0</ele><time>2026-04-26T11:00:35Z</time></trkpt><trkpt lat="45.87589099845725" lon="9.129781902782458"><ele>286.75</ele><time>2026-04-26T11:00:36Z</time></trkpt><trkpt lat="45.87581191423342" lon="9.129637024786772"><ele>285.5</ele><time>2026-04-26T11:00:37Z</time></trkpt><trkpt lat="45.875714389189724" lon="9.129486778024528"><ele>284.25</ele><time>2026-04-26T11:00:38Z</time></trkpt><trkpt lat="45.87562287131047" lon="9.12933509132704"><ele>283.0</ele><time>2026-04-26T11:00:39Z</time></trkpt><trkpt lat="45.87551857578325" lon="9.129173594571165"><ele>292.66666666666663</ele><time>2026-04-26T11:00:40Z</time></trkpt><trkpt lat="45.87543583194899" lon="9.128981995967136"><ele>302.3333333333333</ele><time>2026-04-26T11:00:41Z</time></trkpt><trkpt lat="45.875361196140965" lon="9.128775327212503"><ele>312.0</ele><time>2026-04-26T11:00:42Z</time></trkpt><trkpt lat="45.87529526287984" lon="9.128597495260635"><ele>312.0</ele><time>2026-04-26T11:00:43Z</time></trkpt><trkpt lat="45.87523616442872" lon="9.128437235088281"><ele>312.0</ele><time>2026-04-26T11:00:44Z</time></trkpt><trkpt lat="45.87516901451351" lon="9.12827205801998"><ele>312.0</ele><time>2026-04-26T11:00:45Z</time></trkpt><trkpt lat="45.87509905900088" lon="9.12808820221107"><ele>312.0</ele><time>2026-04-26T11:00:46Z</time></trkpt><trkpt lat="45.87503882946678" lon="9.12792655340259"><ele>310.75</ele><time>2026-04-26T11:00:47Z</time></trkpt><trkpt lat="45.87496056603784" lon="9.127762893466578"><ele>309.5</ele><time>2026-04-26T11:00:48Z</time></trkpt><trkpt lat="45.87491094169804" lon="9.127586437813125"><ele>308.25</ele><time>2026-04-26T11:00:49Z</time></trkpt><trkpt lat="45.874841871220404" lon="9.127403228617707"><ele>307.0</ele><time>2026-04-26T11:00:50Z</time></trkpt><trkpt lat="45.87476104257411" lon="9.127211484704224"><ele>307.0</ele><time>2026-04-26T11:00:51Z</time></trkpt><trkpt lat="45.87466610201846" lon="9.126986526557213"><ele>307.0</ele><time>2026-04-26T11:00:52Z</time></trkpt><trkpt lat="45.874565347862344" lon="9.1267294916409"><ele>307.0</ele><time>2026-04-26T11:00:53Z</time></trkpt><trkpt lat="45.874443429457756" lon="9.126444015498496"><ele>321.0</ele><time>2026-04-26T11:00:54Z</time></trkpt><trkpt lat="45.874322005348354" lon="9.126134235700126"><ele>335.0</ele><time>2026-04-26T11:00:55Z</time></trkpt><trkpt lat="45.874184245209086" lon="9.125776250878804"><ele>320.5</ele><time>2026-04-26T11:00:56Z</time></trkpt><trkpt lat="45.874037815793805" lon="9.12539112626275"><ele>306.0</ele><time>2026-04-26T11:00:57Z</time></trkpt><trkpt lat="45.873864768464216" lon="9.125026325911128"><ele>327.5</ele><time>2026-04-26T11:00:58Z</time></trkpt><trkpt lat="45.873672894118315" lon="9.1247019583382"><ele>349.0</ele><time>2026-04-26T11:00:59Z</time></trkpt><trkpt lat="45.873481423697484" lon="9.1244190223776"><ele>333.5</ele><time>2026-04-26T11:01:00Z</time></trkpt><trkpt lat="45.87331149731709" lon="9.124191555329064"><ele>318.0</ele><time>2026-04-26T11:01:01Z</time></trkpt><trkpt lat="45.87315303833343" lon="9.123947314514044"><ele>318.0</ele><time>2026-04-26T11:01:02Z</time></trkpt><trkpt lat="45.872952612248824" lon="9.123761353513016"><ele>318.0</ele><time>2026-04-26T11:01:03Z</time></trkpt><trkpt lat="45.873025110267314" lon="9.123385870800544"><ele>326.0</ele><time>2026-04-26T11:01:04Z</time></trkpt><trkpt lat="45.87293314077099" lon="9.123206094199212"><ele>334.0</ele><time>2026-04-26T11:01:05Z</time></trkpt><trkpt lat="45.8728318373609" lon="9.123048791113892"><ele>342.0</ele><time>2026-04-26T11:01:06Z</time></trkpt><trkpt lat="45.87269305960268" lon="9.12285494965632"><ele>335.0</ele><time>2026-04-26T11:01:07Z</time></trkpt><trkpt lat="45.87252934440035" lon="9.122634558622067"><ele>328.0</ele><time>2026-04-26T11:01:08.001Z</time></trkpt><trkpt lat="45.87241738137317" lon="9.122396317328322"><ele>321.0</ele><time>2026-04-26T11:01:09.001Z</time></trkpt><trkpt lat="45.87232583699299" lon="9.122186557356478"><ele>321.0</ele><time>2026-04-26T11:01:10.001Z</time></trkpt><trkpt lat="45.87224637969555" lon="9.122007733351134"><ele>321.0</ele><time>2026-04-26T11:01:11.001Z</time></trkpt><trkpt lat="45.872163993914164" lon="9.121851759927065"><ele>321.0</ele><time>2026-04-26T11:01:12.001Z</time></trkpt><trkpt lat="45.87208342703581" lon="9.121688561239537"><ele>321.0</ele><time>2026-04-26T11:01:13.001Z</time></trkpt><trkpt lat="45.8719725336369" lon="9.121487199678796"><ele>325.3333333333333</ele><time>2026-04-26T11:01:14.001Z</time></trkpt><trkpt lat="45.871867920721485" lon="9.121245358859094"><ele>329.66666666666663</ele><time>2026-04-26T11:01:15.001Z</time></trkpt><trkpt lat="45.871761590132756" lon="9.121006701249458"><ele>334.0</ele><time>2026-04-26T11:01:16.001Z</time></trkpt><trkpt lat="45.87164716483114" lon="9.120806165107004"><ele>325.3333333333333</ele><time>2026-04-26T11:01:17.001Z</time></trkpt><trkpt lat="45.87151870670548" lon="9.120640770941957"><ele>316.6666666666667</ele><time>2026-04-26T11:01:18.001Z</time></trkpt><trkpt lat="45.871402625873024" lon="9.12049535717533"><ele>308.0</ele><time>2026-04-26T11:01:19.001Z</time></trkpt><trkpt lat="45.87129196293462" lon="9.120343302228985"><ele>308.0</ele><time>2026-04-26T11:01:20.001Z</time></trkpt><trkpt lat="45.871203311659414" lon="9.12018348806976"><ele>308.0</ele><time>2026-04-26T11:01:21.001Z</time></trkpt><trkpt lat="45.871130665472776" lon="9.12000548404805"><ele>308.0</ele><time>2026-04-26T11:01:22.001Z</time></trkpt><trkpt lat="45.87108098369112" lon="9.119809041839815"><ele>308.0</ele><time>2026-04-26T11:01:23.001Z</time></trkpt><trkpt lat="45.87104676632929" lon="9.119591601106963"><ele>311.33333333333337</ele><time>2026-04-26T11:01:24.001Z</time></trkpt><trkpt lat="45.8710358820545" lon="9.119347498099437"><ele>314.6666666666667</ele><time>2026-04-26T11:01:25.001Z</time></trkpt><trkpt lat="45.87107328393431" lon="9.119079975894172"><ele>318.0</ele><time>2026-04-26T11:01:26.001Z</time></trkpt><trkpt lat="45.87106187106072" lon="9.11886216367902"><ele>320.75</ele><time>2026-04-26T11:01:27.001Z</time></trkpt><trkpt lat="45.87105713303476" lon="9.118672280009834"><ele>323.5</ele><time>2026-04-26T11:01:28.001Z</time></trkpt><trkpt lat="45.87104058056924" lon="9.11848012853258"><ele>326.25</ele><time>2026-04-26T11:01:29.001Z</time></trkpt><trkpt lat="45.87099871916516" lon="9.118315745230506"><ele>329.0</ele><time>2026-04-26T11:01:30.001Z</time></trkpt><trkpt lat="45.87094714937573" lon="9.118168963571652"><ele>323.25</ele><time>2026-04-26T11:01:31.001Z</time></trkpt><trkpt lat="45.87088374144375" lon="9.118045064570705"><ele>317.5</ele><time>2026-04-26T11:01:32.001Z</time></trkpt><trkpt lat="45.870807488052705" lon="9.11791632148707"><ele>311.75</ele><time>2026-04-26T11:01:33.001Z</time></trkpt><trkpt lat="45.87073090023325" lon="9.117755293811383"><ele>306.0</ele><time>2026-04-26T11:01:34.001Z</time></trkpt><trkpt lat="45.87062333005934" lon="9.117551639012868"><ele>309.0</ele><time>2026-04-26T11:01:35.001Z</time></trkpt><trkpt lat="45.87051910445478" lon="9.117356071397158"><ele>312.0</ele><time>2026-04-26T11:01:36.001Z</time></trkpt><trkpt lat="45.87042086289893" lon="9.117172958517104"><ele>315.0</ele><time>2026-04-26T11:01:37.001Z</time></trkpt><trkpt lat="45.87034302216672" lon="9.11700875118786"><ele>315.0</ele><time>2026-04-26T11:01:38.001Z</time></trkpt><trkpt lat="45.87028758678965" lon="9.116849354187934"><ele>315.0</ele><time>2026-04-26T11:01:39.001Z</time></trkpt><trkpt lat="45.87025289783324" lon="9.116698733274468"><ele>315.0</ele><time>2026-04-26T11:01:40.001Z</time></trkpt><trkpt lat="45.870232463922534" lon="9.116555035678202"><ele>315.0</ele><time>2026-04-26T11:01:41.001Z</time></trkpt><trkpt lat="45.87022526925491" lon="9.116398679602492"><ele>315.0</ele><time>2026-04-26T11:01:42.001Z</time></trkpt><trkpt lat="45.87022814944434" lon="9.11621360076079"><ele>316.3333333333333</ele><time>2026-04-26T11:01:43.001Z</time></trkpt><trkpt lat="45.870256844006235" lon="9.116003778491057"><ele>317.66666666666663</ele><time>2026-04-26T11:01:44.001Z</time></trkpt><trkpt lat="45.87025462458715" lon="9.115755199956006"><ele>319.0</ele><time>2026-04-26T11:01:45.001Z</time></trkpt><trkpt lat="45.870298776251055" lon="9.115489693681127"><ele>319.0</ele><time>2026-04-26T11:01:46.001Z</time></trkpt><trkpt lat="45.87032635849193" lon="9.11526534581804"><ele>319.0</ele><time>2026-04-26T11:01:47.001Z</time></trkpt><trkpt lat="45.8703169316175" lon="9.115049383524926"><ele>319.0</ele><time>2026-04-26T11:01:48.001Z</time></trkpt><trkpt lat="45.87027226936428" lon="9.1148732031108"><ele>319.0</ele><time>2026-04-26T11:01:49.001Z</time></trkpt><trkpt lat="45.870220823581306" lon="9.114709436065747"><ele>318.25</ele><time>2026-04-26T11:01:50.001Z</time></trkpt><trkpt lat="45.87014604271499" lon="9.114580915942165"><ele>317.5</ele><time>2026-04-26T11:01:51.001Z</time></trkpt><trkpt lat="45.87006732260643" lon="9.114431272001656"><ele>316.75</ele><time>2026-04-26T11:01:52.001Z</time></trkpt><trkpt lat="45.86993611148202" lon="9.114282494236544"><ele>316.0</ele><time>2026-04-26T11:01:53Z</time></trkpt><trkpt lat="45.86977311836213" lon="9.114159930171757"><ele>315.66666666666663</ele><time>2026-04-26T11:01:54Z</time></trkpt><trkpt lat="45.86960014165589" lon="9.114097736503838"><ele>315.3333333333333</ele><time>2026-04-26T11:01:55Z</time></trkpt><trkpt lat="45.869416941671886" lon="9.11404469555423"><ele>315.0</ele><time>2026-04-26T11:01:56Z</time></trkpt><trkpt lat="45.86922328463162" lon="9.113953392599601"><ele>315.0</ele><time>2026-04-26T11:01:57Z</time></trkpt><trkpt lat="45.869041813073856" lon="9.113896570436644"><ele>315.0</ele><time>2026-04-26T11:01:58Z</time></trkpt><trkpt lat="45.86887856352018" lon="9.113809734351973"><ele>315.0</ele><time>2026-04-26T11:01:59Z</time></trkpt><trkpt lat="45.8687357647257" lon="9.113702917616767"><ele>315.0</ele><time>2026-04-26T11:02:00Z</time></trkpt><trkpt lat="45.86860740112812" lon="9.113571606122097"><ele>315.0</ele><time>2026-04-26T11:02:01Z</time></trkpt><trkpt lat="45.86850337493887" lon="9.113386342265894"><ele>315.0</ele><time>2026-04-26T11:02:02Z</time></trkpt><trkpt lat="45.868439551023634" lon="9.113164978423466"><ele>312.3333333333333</ele><time>2026-04-26T11:02:03Z</time></trkpt><trkpt lat="45.86835696564781" lon="9.11293469141148"><ele>309.66666666666663</ele><time>2026-04-26T11:02:04Z</time></trkpt><trkpt lat="45.868265650329214" lon="9.112676055710356"><ele>307.0</ele><time>2026-04-26T11:02:05Z</time></trkpt><trkpt lat="45.86815736226451" lon="9.11240917845797"><ele>315.66666666666663</ele><time>2026-04-26T11:02:06Z</time></trkpt><trkpt lat="45.86805995752528" lon="9.112128618050408"><ele>324.3333333333333</ele><time>2026-04-26T11:02:07Z</time></trkpt><trkpt lat="45.86796824174065" lon="9.111847157932072"><ele>333.0</ele><time>2026-04-26T11:02:08Z</time></trkpt><trkpt lat="45.86786431167654" lon="9.11153863566675"><ele>339.3333333333333</ele><time>2026-04-26T11:02:09Z</time></trkpt><trkpt lat="45.86776527500971" lon="9.111279521637059"><ele>345.66666666666663</ele><time>2026-04-26T11:02:10Z</time></trkpt><trkpt lat="45.867633105893944" lon="9.111031356872637"><ele>352.0</ele><time>2026-04-26T11:02:11Z</time></trkpt><trkpt lat="45.867457824989664" lon="9.110803912397854"><ele>341.5</ele><time>2026-04-26T11:02:12Z</time></trkpt><trkpt lat="45.86726738055951" lon="9.110597443103313"><ele>331.0</ele><time>2026-04-26T11:02:13Z</time></trkpt><trkpt lat="45.86713025289862" lon="9.110358836077275"><ele>331.0</ele><time>2026-04-26T11:02:14Z</time></trkpt><trkpt lat="45.867022161973196" lon="9.110114543992418"><ele>331.0</ele><time>2026-04-26T11:02:15Z</time></trkpt><trkpt lat="45.866936181205496" lon="9.109834408260426"><ele>331.0</ele><time>2026-04-26T11:02:16Z</time></trkpt><trkpt lat="45.866849239411884" lon="9.109525192087117"><ele>327.0</ele><time>2026-04-26T11:02:17Z</time></trkpt><trkpt lat="45.86675936746617" lon="9.109254217383295"><ele>323.0</ele><time>2026-04-26T11:02:18Z</time></trkpt><trkpt lat="45.86669552910307" lon="9.109045313305646"><ele>319.0</ele><time>2026-04-26T11:02:19Z</time></trkpt><trkpt lat="45.8666114159368" lon="9.108852547600131"><ele>319.0</ele><time>2026-04-26T11:02:20Z</time></trkpt><trkpt lat="45.866506713848146" lon="9.108673124928652"><ele>319.0</ele><time>2026-04-26T11:02:21Z</time></trkpt><trkpt lat="45.86639449447041" lon="9.108504606049019"><ele>319.0</ele><time>2026-04-26T11:02:22Z</time></trkpt><trkpt lat="45.86630064332096" lon="9.108340504231096"><ele>324.5</ele><time>2026-04-26T11:02:23Z</time></trkpt><trkpt lat="45.86621314325777" lon="9.10819187364088"><ele>330.0</ele><time>2026-04-26T11:02:24Z</time></trkpt><trkpt lat="45.86612412684261" lon="9.108050709314634"><ele>335.5</ele><time>2026-04-26T11:02:25Z</time></trkpt><trkpt lat="45.86603790575226" lon="9.107913375046344"><ele>341.0</ele><time>2026-04-26T11:02:26Z</time></trkpt><trkpt lat="45.86593306636061" lon="9.1077555960887"><ele>335.33333333333337</ele><time>2026-04-26T11:02:27Z</time></trkpt><trkpt lat="45.86581211649762" lon="9.107536123755654"><ele>329.6666666666667</ele><time>2026-04-26T11:02:28Z</time></trkpt><trkpt lat="45.865676267327984" lon="9.107295793946678"><ele>324.0</ele><time>2026-04-26T11:02:29Z</time></trkpt><trkpt lat="45.865538265998374" lon="9.107035787647984"><ele>324.0</ele><time>2026-04-26T11:02:30Z</time></trkpt><trkpt lat="45.865379531612184" lon="9.106780837705946"><ele>324.0</ele><time>2026-04-26T11:02:31Z</time></trkpt><trkpt lat="45.86519543867455" lon="9.10656091481555"><ele>317.3333333333333</ele><time>2026-04-26T11:02:32Z</time></trkpt><trkpt lat="45.86504689340109" lon="9.106353982584038"><ele>310.66666666666663</ele><time>2026-04-26T11:02:33Z</time></trkpt><trkpt lat="45.8648833339699" lon="9.106196460774195"><ele>304.0</ele><time>2026-04-26T11:02:34Z</time></trkpt><trkpt lat="45.8647241198321" lon="9.10603071535822"><ele>304.0</ele><time>2026-04-26T11:02:35Z</time></trkpt><trkpt lat="45.86460942498823" lon="9.105834905686708"><ele>304.0</ele><time>2026-04-26T11:02:36Z</time></trkpt><trkpt lat="45.8644990058827" lon="9.10560521986476"><ele>304.0</ele><time>2026-04-26T11:02:37Z</time></trkpt><trkpt lat="45.864397751783265" lon="9.105362777717355"><ele>302.66666666666663</ele><time>2026-04-26T11:02:38Z</time></trkpt><trkpt lat="45.86427216228788" lon="9.105175692382439"><ele>301.3333333333333</ele><time>2026-04-26T11:02:39Z</time></trkpt><trkpt lat="45.86417023520753" lon="9.104993663183379"><ele>300.0</ele><time>2026-04-26T11:02:40Z</time></trkpt><trkpt lat="45.864085438975685" lon="9.104827401704561"><ele>300.0</ele><time>2026-04-26T11:02:41Z</time></trkpt><trkpt lat="45.86400977034433" lon="9.104683202188633"><ele>300.0</ele><time>2026-04-26T11:02:42Z</time></trkpt><trkpt lat="45.86393660776077" lon="9.104542975928004"><ele>300.0</ele><time>2026-04-26T11:02:43Z</time></trkpt><trkpt lat="45.8638718839523" lon="9.104408115090953"><ele>300.0</ele><time>2026-04-26T11:02:44Z</time></trkpt><trkpt lat="45.86380195545505" lon="9.104273315296442"><ele>300.0</ele><time>2026-04-26T11:02:45Z</time></trkpt><trkpt lat="45.8637233201293" lon="9.104124358136817"><ele>300.0</ele><time>2026-04-26T11:02:46Z</time></trkpt><trkpt lat="45.863643530149915" lon="9.103984824471462"><ele>300.0</ele><time>2026-04-26T11:02:47Z</time></trkpt><trkpt lat="45.86356406705409" lon="9.103847412984752"><ele>300.0</ele><time>2026-04-26T11:02:48Z</time></trkpt><trkpt lat="45.86351454656393" lon="9.103711925161262"><ele>298.6</ele><time>2026-04-26T11:02:49Z</time></trkpt><trkpt lat="45.86346782374222" lon="9.103621622180247"><ele>297.2</ele><time>2026-04-26T11:02:50Z</time></trkpt><trkpt lat="45.86340860668659" lon="9.103546760472003"><ele>295.8</ele><time>2026-04-26T11:02:51Z</time></trkpt><trkpt lat="45.863372244751396" lon="9.103435824424741"><ele>294.4</ele><time>2026-04-26T11:02:52Z</time></trkpt><trkpt lat="45.863308348169696" lon="9.103308635431878"><ele>293.0</ele><time>2026-04-26T11:02:53Z</time></trkpt><trkpt lat="45.863227193965386" lon="9.10312833261221"><ele>293.0</ele><time>2026-04-26T11:02:54Z</time></trkpt><trkpt lat="45.863163545296516" lon="9.102940533515879"><ele>293.0</ele><time>2026-04-26T11:02:55Z</time></trkpt><trkpt lat="45.86312142464495" lon="9.10276226015246"><ele>293.0</ele><time>2026-04-26T11:02:56Z</time></trkpt><trkpt lat="45.86309807677824" lon="9.102597684038365"><ele>293.0</ele><time>2026-04-26T11:02:57Z</time></trkpt><trkpt lat="45.86308562734998" lon="9.102438688164227"><ele>295.0</ele><time>2026-04-26T11:02:58Z</time></trkpt><trkpt lat="45.86308284364132" lon="9.102270026812839"><ele>297.0</ele><time>2026-04-26T11:02:59Z</time></trkpt><trkpt lat="45.86308840171258" lon="9.102027266775027"><ele>299.0</ele><time>2026-04-26T11:03:00Z</time></trkpt><trkpt lat="45.86309756345808" lon="9.1017142593227"><ele>296.5</ele><time>2026-04-26T11:03:01Z</time></trkpt><trkpt lat="45.86310803779934" lon="9.101356407568135"><ele>294.0</ele><time>2026-04-26T11:03:02Z</time></trkpt><trkpt lat="45.86311983788951" lon="9.100969078698617"><ele>293.3333333333333</ele><time>2026-04-26T11:03:03Z</time></trkpt><trkpt lat="45.86311887193562" lon="9.100625718457664"><ele>292.66666666666663</ele><time>2026-04-26T11:03:04Z</time></trkpt><trkpt lat="45.8631372718768" lon="9.100363322120343"><ele>292.0</ele><time>2026-04-26T11:03:05Z</time></trkpt><trkpt lat="45.863123250574695" lon="9.100139490754719"><ele>292.66666666666663</ele><time>2026-04-26T11:03:06Z</time></trkpt><trkpt lat="45.86311351937511" lon="9.099904671886508"><ele>293.3333333333333</ele><time>2026-04-26T11:03:07Z</time></trkpt><trkpt lat="45.863119634427015" lon="9.0996447256096"><ele>294.0</ele><time>2026-04-26T11:03:08Z</time></trkpt><trkpt lat="45.86312910565802" lon="9.099370471707823"><ele>294.0</ele><time>2026-04-26T11:03:09Z</time></trkpt><trkpt lat="45.863152237012756" lon="9.099127375972067"><ele>294.0</ele><time>2026-04-26T11:03:10Z</time></trkpt><trkpt lat="45.863146924100796" lon="9.098922052697178"><ele>294.0</ele><time>2026-04-26T11:03:11Z</time></trkpt><trkpt lat="45.86310993415537" lon="9.098756871647526"><ele>294.0</ele><time>2026-04-26T11:03:12Z</time></trkpt><trkpt lat="45.86304627167764" lon="9.09860635884722"><ele>295.25</ele><time>2026-04-26T11:03:13Z</time></trkpt><trkpt lat="45.862969472165496" lon="9.098467402311545"><ele>296.5</ele><time>2026-04-26T11:03:14Z</time></trkpt><trkpt lat="45.86288599383943" lon="9.098345431579144"><ele>297.75</ele><time>2026-04-26T11:03:15Z</time></trkpt><trkpt lat="45.862790257549236" lon="9.098236334242241"><ele>299.0</ele><time>2026-04-26T11:03:16Z</time></trkpt><trkpt lat="45.86269323474003" lon="9.098145286941055"><ele>300.25</ele><time>2026-04-26T11:03:17Z</time></trkpt><trkpt lat="45.86258060699341" lon="9.098066341446343"><ele>301.5</ele><time>2026-04-26T11:03:18Z</time></trkpt><trkpt lat="45.86245215182271" lon="9.098011144143102"><ele>302.75</ele><time>2026-04-26T11:03:19Z</time></trkpt><trkpt lat="45.86230902583242" lon="9.09800426291462"><ele>304.0</ele><time>2026-04-26T11:03:20Z</time></trkpt><trkpt lat="45.86219075256381" lon="9.097993939251433"><ele>304.0</ele><time>2026-04-26T11:03:21Z</time></trkpt><trkpt lat="45.86207469126336" lon="9.097980082032056"><ele>304.0</ele><time>2026-04-26T11:03:22Z</time></trkpt><trkpt lat="45.8619529127127" lon="9.097971515288014"><ele>304.0</ele><time>2026-04-26T11:03:23Z</time></trkpt><trkpt lat="45.86180960213191" lon="9.097964335815494"><ele>304.0</ele><time>2026-04-26T11:03:24Z</time></trkpt><trkpt lat="45.86166992062116" lon="9.097949574536054"><ele>302.5</ele><time>2026-04-26T11:03:25.001Z</time></trkpt><trkpt lat="45.861556954700355" lon="9.097916305666512"><ele>301.0</ele><time>2026-04-26T11:03:26.001Z</time></trkpt><trkpt lat="45.86143857783313" lon="9.097881478222666"><ele>299.5</ele><time>2026-04-26T11:03:27.001Z</time></trkpt><trkpt lat="45.861313998333515" lon="9.097865526289521"><ele>298.0</ele><time>2026-04-26T11:03:28.001Z</time></trkpt><trkpt lat="45.86120181345713" lon="9.097817101511744"><ele>298.0</ele><time>2026-04-26T11:03:29.001Z</time></trkpt><trkpt lat="45.861098862672236" lon="9.09773636245483"><ele>298.0</ele><time>2026-04-26T11:03:30.001Z</time></trkpt><trkpt lat="45.86100426550772" lon="9.097647594719588"><ele>298.0</ele><time>2026-04-26T11:03:31.001Z</time></trkpt><trkpt lat="45.860917628416914" lon="9.097544110590302"><ele>298.0</ele><time>2026-04-26T11:03:32.001Z</time></trkpt><trkpt lat="45.860856142937934" lon="9.097398634130624"><ele>297.66666666666663</ele><time>2026-04-26T11:03:33.001Z</time></trkpt><trkpt lat="45.860771209875665" lon="9.097217973113297"><ele>297.3333333333333</ele><time>2026-04-26T11:03:34.001Z</time></trkpt><trkpt lat="45.860661143722425" lon="9.096970337192609"><ele>297.0</ele><time>2026-04-26T11:03:35.001Z</time></trkpt><trkpt lat="45.860546953511914" lon="9.096754603270835"><ele>297.0</ele><time>2026-04-26T11:03:36.001Z</time></trkpt><trkpt lat="45.86046564363281" lon="9.096588981559215"><ele>297.0</ele><time>2026-04-26T11:03:37.001Z</time></trkpt><trkpt lat="45.86036391999629" lon="9.09643505013377"><ele>297.0</ele><time>2026-04-26T11:03:38.001Z</time></trkpt><trkpt lat="45.86024956460741" lon="9.09631226207662"><ele>297.0</ele><time>2026-04-26T11:03:39.001Z</time></trkpt><trkpt lat="45.86012957162868" lon="9.096191289815271"><ele>291.3333333333333</ele><time>2026-04-26T11:03:40.001Z</time></trkpt><trkpt lat="45.86000663966361" lon="9.096041498107098"><ele>285.66666666666663</ele><time>2026-04-26T11:03:41.001Z</time></trkpt><trkpt lat="45.85986473515218" lon="9.095894086410237"><ele>280.0</ele><time>2026-04-26T11:03:42.001Z</time></trkpt><trkpt lat="45.85967877495987" lon="9.095722893810885"><ele>280.3333333333333</ele><time>2026-04-26T11:03:43.001Z</time></trkpt><trkpt lat="45.85951799825539" lon="9.095560024834723"><ele>280.6666666666667</ele><time>2026-04-26T11:03:44.001Z</time></trkpt><trkpt lat="45.859382300573714" lon="9.09540603647526"><ele>281.0</ele><time>2026-04-26T11:03:45.001Z</time></trkpt><trkpt lat="45.85924864931005" lon="9.095270827799883"><ele>281.0</ele><time>2026-04-26T11:03:46.001Z</time></trkpt><trkpt lat="45.85913390379208" lon="9.095120429367936"><ele>281.0</ele><time>2026-04-26T11:03:47.001Z</time></trkpt><trkpt lat="45.85902807985649" lon="9.094981699758709"><ele>281.0</ele><time>2026-04-26T11:03:48.001Z</time></trkpt><trkpt lat="45.85893067181761" lon="9.09482692011411"><ele>281.0</ele><time>2026-04-26T11:03:49.001Z</time></trkpt><trkpt lat="45.85883461485079" lon="9.094627021656496"><ele>299.0</ele><time>2026-04-26T11:03:50.001Z</time></trkpt><trkpt lat="45.85872689488244" lon="9.094364742097984"><ele>317.0</ele><time>2026-04-26T11:03:51.001Z</time></trkpt><trkpt lat="45.85860108857482" lon="9.094040630743253"><ele>303.5</ele><time>2026-04-26T11:03:52.001Z</time></trkpt><trkpt lat="45.858475797142226" lon="9.093711323854476"><ele>290.0</ele><time>2026-04-26T11:03:53.001Z</time></trkpt><trkpt lat="45.85835825727785" lon="9.093405379246018"><ele>307.0</ele><time>2026-04-26T11:03:54.001Z</time></trkpt><trkpt lat="45.85824728809056" lon="9.093127910089363"><ele>324.0</ele><time>2026-04-26T11:03:55.001Z</time></trkpt><trkpt lat="45.85812538814399" lon="9.092874583804093"><ele>341.0</ele><time>2026-04-26T11:03:56.001Z</time></trkpt><trkpt lat="45.85798202416681" lon="9.092662142455033"><ele>341.0</ele><time>2026-04-26T11:03:57.001Z</time></trkpt><trkpt lat="45.85780294730381" lon="9.09251500514636"><ele>341.0</ele><time>2026-04-26T11:03:58.001Z</time></trkpt><trkpt lat="45.85761923960059" lon="9.09238714706284"><ele>341.0</ele><time>2026-04-26T11:03:59Z</time></trkpt><trkpt lat="45.857440487240254" lon="9.092298212333965"><ele>340.33333333333337</ele><time>2026-04-26T11:04:00Z</time></trkpt><trkpt lat="45.85727219169616" lon="9.092227327089851"><ele>339.6666666666667</ele><time>2026-04-26T11:04:01Z</time></trkpt><trkpt lat="45.857134927196896" lon="9.092101624792111"><ele>339.0</ele><time>2026-04-26T11:04:02Z</time></trkpt><trkpt lat="45.857005283438156" lon="9.092034346512127"><ele>339.0</ele><time>2026-04-26T11:04:03.021Z</time></trkpt><trkpt lat="45.85689412549061" lon="9.091976661400096"><ele>339.0</ele><time>2026-04-26T11:04:04.014Z</time></trkpt><trkpt lat="45.85679780657235" lon="9.091926678799277"><ele>339.0</ele><time>2026-04-26T11:04:05.024Z</time></trkpt><trkpt lat="45.85671705138087" lon="9.091884771158831"><ele>339.0</ele><time>2026-04-26T11:04:06.022Z</time></trkpt><trkpt lat="45.85663920137324" lon="9.091844371081983"><ele>339.0</ele><time>2026-04-26T11:04:07.016Z</time></trkpt><trkpt lat="45.85581729192832" lon="9.091455079623582"><ele>334.0</ele><time>2026-04-26T11:04:12Z</time></trkpt><trkpt lat="45.855680977382185" lon="9.091389301915099"><ele>329.0</ele><time>2026-04-26T11:04:13Z</time></trkpt><trkpt lat="45.85556973218358" lon="9.091289053631082"><ele>324.0</ele><time>2026-04-26T11:04:14Z</time></trkpt><trkpt lat="45.85544497318375" lon="9.0912223762496"><ele>319.0</ele><time>2026-04-26T11:04:15Z</time></trkpt><trkpt lat="45.85532835155508" lon="9.09115629779403"><ele>319.0</ele><time>2026-04-26T11:04:16Z</time></trkpt><trkpt lat="45.85522245828777" lon="9.09108771934035"><ele>319.0</ele><time>2026-04-26T11:04:17Z</time></trkpt><trkpt lat="45.855107423447976" lon="9.091006186647038"><ele>319.0</ele><time>2026-04-26T11:04:18Z</time></trkpt><trkpt lat="45.854995524500325" lon="9.090922704227932"><ele>319.0</ele><time>2026-04-26T11:04:19Z</time></trkpt><trkpt lat="45.85493363565019" lon="9.090875806296602"><ele>319.0</ele><time>2026-04-26T11:04:20Z</time></trkpt><trkpt lat="45.85474739043849" lon="9.0907598490079"><ele>323.66666666666663</ele><time>2026-04-26T11:04:21Z</time></trkpt><trkpt lat="45.85461003470282" lon="9.090629697684957"><ele>328.3333333333333</ele><time>2026-04-26T11:04:22Z</time></trkpt><trkpt lat="45.85445515547845" lon="9.090511907177042"><ele>333.0</ele><time>2026-04-26T11:04:23Z</time></trkpt><trkpt lat="45.85429548482127" lon="9.090390472485183"><ele>319.3333333333333</ele><time>2026-04-26T11:04:24Z</time></trkpt><trkpt lat="45.85415074586254" lon="9.090280393931668"><ele>305.66666666666663</ele><time>2026-04-26T11:04:25Z</time></trkpt><trkpt lat="45.853998965724095" lon="9.090170404137718"><ele>292.0</ele><time>2026-04-26T11:04:26Z</time></trkpt><trkpt lat="45.853870597660524" lon="9.090069213364366"><ele>292.0</ele><time>2026-04-26T11:04:27Z</time></trkpt><trkpt lat="45.85373540721157" lon="9.089968477103376"><ele>292.0</ele><time>2026-04-26T11:04:28Z</time></trkpt><trkpt lat="45.85360489802681" lon="9.089872030497547"><ele>292.0</ele><time>2026-04-26T11:04:29.014Z</time></trkpt><trkpt lat="45.85347271799592" lon="9.08977258974085"><ele>292.0</ele><time>2026-04-26T11:04:30.02Z</time></trkpt><trkpt lat="45.85334174067916" lon="9.089675281807093"><ele>292.75</ele><time>2026-04-26T11:04:31.022Z</time></trkpt><trkpt lat="45.85323950089316" lon="9.08961557501286"><ele>293.5</ele><time>2026-04-26T11:04:32.016Z</time></trkpt><trkpt lat="45.85314561461716" lon="9.089520404913687"><ele>294.25</ele><time>2026-04-26T11:04:35Z</time></trkpt><trkpt lat="45.85303500382894" lon="9.089404340805181"><ele>295.0</ele><time>2026-04-26T11:04:36Z</time></trkpt><trkpt lat="45.852932271100435" lon="9.08934628685753"><ele>295.0</ele><time>2026-04-26T11:04:37Z</time></trkpt><trkpt lat="45.85281363952721" lon="9.089244802787862"><ele>295.0</ele><time>2026-04-26T11:04:38Z</time></trkpt><trkpt lat="45.85272063901877" lon="9.089119188595031"><ele>295.0</ele><time>2026-04-26T11:04:39Z</time></trkpt><trkpt lat="45.85258317840466" lon="9.08900704292061"><ele>295.0</ele><time>2026-04-26T11:04:40Z</time></trkpt><trkpt lat="45.85244139170662" lon="9.088927712834968"><ele>300.75</ele><time>2026-04-26T11:04:41Z</time></trkpt><trkpt lat="45.85231418661853" lon="9.088844076301779"><ele>306.5</ele><time>2026-04-26T11:04:43Z</time></trkpt><trkpt lat="45.85224135591362" lon="9.088838444000915"><ele>312.25</ele><time>2026-04-26T11:04:44Z</time></trkpt><trkpt lat="45.8520979730689" lon="9.088944888959352"><ele>318.0</ele><time>2026-04-26T11:04:45Z</time></trkpt><trkpt lat="45.85193321108673" lon="9.088920689690083"><ele>312.25</ele><time>2026-04-26T11:04:46Z</time></trkpt><trkpt lat="45.85176659782606" lon="9.088926255347605"><ele>306.5</ele><time>2026-04-26T11:04:47Z</time></trkpt><trkpt lat="45.85162303213079" lon="9.0889004205343"><ele>300.75</ele><time>2026-04-26T11:04:48Z</time></trkpt><trkpt lat="45.8515118012535" lon="9.08887831644783"><ele>295.0</ele><time>2026-04-26T11:04:49Z</time></trkpt><trkpt lat="45.85142633711842" lon="9.088861720471296"><ele>295.0</ele><time>2026-04-26T11:04:50Z</time></trkpt><trkpt lat="45.851301168277715" lon="9.088828457280174"><ele>295.0</ele><time>2026-04-26T11:04:52Z</time></trkpt><trkpt lat="45.85120074812635" lon="9.088887220836398"><ele>295.0</ele><time>2026-04-26T11:04:53Z</time></trkpt><trkpt lat="45.85108306114611" lon="9.089007623429644"><ele>295.0</ele><time>2026-04-26T11:04:54Z</time></trkpt><trkpt lat="45.85093479438269" lon="9.08905186907001"><ele>283.5</ele><time>2026-04-26T11:04:55Z</time></trkpt><trkpt lat="45.85081292702443" lon="9.089111620155293"><ele>272.0</ele><time>2026-04-26T11:04:56Z</time></trkpt><trkpt lat="45.85069405793371" lon="9.089124462156898"><ele>260.5</ele><time>2026-04-26T11:04:57Z</time></trkpt><trkpt lat="45.850584772996136" lon="9.089131943785532"><ele>249.0</ele><time>2026-04-26T11:04:58Z</time></trkpt><trkpt lat="45.850461785930044" lon="9.089146033882411"><ele>249.0</ele><time>2026-04-26T11:04:59Z</time></trkpt><trkpt lat="45.850347546873884" lon="9.08912112124408"><ele>248.99999999999997</ele><time>2026-04-26T11:05:00Z</time></trkpt><trkpt lat="45.85024593729425" lon="9.089087841821245"><ele>248.99999999999997</ele><time>2026-04-26T11:05:01Z</time></trkpt><trkpt lat="45.850157948257376" lon="9.089038885698294"><ele>249.0</ele><time>2026-04-26T11:05:02Z</time></trkpt><trkpt lat="45.85004256776995" lon="9.089026496713963"><ele>249.0</ele><time>2026-04-26T11:05:03Z</time></trkpt><trkpt lat="45.849914390226225" lon="9.0889795679534"><ele>262.6666666666667</ele><time>2026-04-26T11:05:04Z</time></trkpt><trkpt lat="45.849763122476524" lon="9.088931769627024"><ele>276.33333333333337</ele><time>2026-04-26T11:05:05Z</time></trkpt><trkpt lat="45.84962239424961" lon="9.088867710066179"><ele>290.0</ele><time>2026-04-26T11:05:06Z</time></trkpt><trkpt lat="45.84946178856909" lon="9.088821216685147"><ele>290.0</ele><time>2026-04-26T11:05:07Z</time></trkpt><trkpt lat="45.849305326489386" lon="9.088780609714942"><ele>290.0</ele><time>2026-04-26T11:05:08Z</time></trkpt><trkpt lat="45.84912401960831" lon="9.088772736966634"><ele>290.0</ele><time>2026-04-26T11:05:09Z</time></trkpt><trkpt lat="45.84893769009682" lon="9.088791577572183"><ele>287.33333333333337</ele><time>2026-04-26T11:05:10Z</time></trkpt><trkpt lat="45.848738130727305" lon="9.08881980634525"><ele>284.6666666666667</ele><time>2026-04-26T11:05:11Z</time></trkpt><trkpt lat="45.848522802238634" lon="9.088831459845547"><ele>282.0</ele><time>2026-04-26T11:05:12Z</time></trkpt><trkpt lat="45.84833117450018" lon="9.088819278106413"><ele>279.0</ele><time>2026-04-26T11:05:13Z</time></trkpt><trkpt lat="45.84814216979809" lon="9.088796941727251"><ele>276.0</ele><time>2026-04-26T11:05:14Z</time></trkpt><trkpt lat="45.84795257774787" lon="9.088812012352015"><ele>273.0</ele><time>2026-04-26T11:05:15Z</time></trkpt><trkpt lat="45.84776250341341" lon="9.08884152338213"><ele>270.0</ele><time>2026-04-26T11:05:16Z</time></trkpt><trkpt lat="45.847586954333515" lon="9.088859025381709"><ele>267.0</ele><time>2026-04-26T11:05:17Z</time></trkpt><trkpt lat="45.8474167719432" lon="9.088877362015724"><ele>264.0</ele><time>2026-04-26T11:05:18Z</time></trkpt><trkpt lat="45.84724901420257" lon="9.088874227206814"><ele>264.0</ele><time>2026-04-26T11:05:19Z</time></trkpt><trkpt lat="45.847090313283864" lon="9.088821660983044"><ele>264.0</ele><time>2026-04-26T11:05:20Z</time></trkpt><trkpt lat="45.84693858084123" lon="9.088734226928892"><ele>264.0</ele><time>2026-04-26T11:05:21Z</time></trkpt><trkpt lat="45.846816578815336" lon="9.088636513488762"><ele>260.75</ele><time>2026-04-26T11:05:22Z</time></trkpt><trkpt lat="45.84669734730759" lon="9.08851353264651"><ele>257.5</ele><time>2026-04-26T11:05:23Z</time></trkpt><trkpt lat="45.846586084641814" lon="9.088375550850698"><ele>254.25</ele><time>2026-04-26T11:05:24Z</time></trkpt><trkpt lat="45.84651432105469" lon="9.088180810659264"><ele>251.0</ele><time>2026-04-26T11:05:25Z</time></trkpt><trkpt lat="45.84643276876889" lon="9.087983388927961"><ele>251.0</ele><time>2026-04-26T11:05:26Z</time></trkpt><trkpt lat="45.846347908680485" lon="9.087766827031928"><ele>251.0</ele><time>2026-04-26T11:05:27Z</time></trkpt><trkpt lat="45.84625598504858" lon="9.0875307290401"><ele>251.0</ele><time>2026-04-26T11:05:28Z</time></trkpt><trkpt lat="45.84616981775336" lon="9.087309416078762"><ele>251.33333333333334</ele><time>2026-04-26T11:05:29Z</time></trkpt><trkpt lat="45.846086452336486" lon="9.087104805201491"><ele>251.66666666666669</ele><time>2026-04-26T11:05:30Z</time></trkpt><trkpt lat="45.84601172573089" lon="9.086920265514562"><ele>252.0</ele><time>2026-04-26T11:05:31Z</time></trkpt><trkpt lat="45.845977352625766" lon="9.086729014455488"><ele>251.0</ele><time>2026-04-26T11:05:32Z</time></trkpt><trkpt lat="45.84598639566147" lon="9.086533571699022"><ele>250.0</ele><time>2026-04-26T11:05:33Z</time></trkpt><trkpt lat="45.8460397610783" lon="9.086374086038514"><ele>249.0</ele><time>2026-04-26T11:05:34Z</time></trkpt><trkpt lat="45.84611309994533" lon="9.086169762056258"><ele>248.0</ele><time>2026-04-26T11:05:35Z</time></trkpt><trkpt lat="45.84619896338921" lon="9.085929977101884"><ele>245.66666666666669</ele><time>2026-04-26T11:05:36Z</time></trkpt><trkpt lat="45.84628520297276" lon="9.085672746504907"><ele>243.33333333333331</ele><time>2026-04-26T11:05:37Z</time></trkpt><trkpt lat="45.84636472195984" lon="9.085414968394572"><ele>241.0</ele><time>2026-04-26T11:05:38Z</time></trkpt><trkpt lat="45.846416376620724" lon="9.085164639045427"><ele>238.33333333333331</ele><time>2026-04-26T11:05:39Z</time></trkpt><trkpt lat="45.846463606594206" lon="9.084885073667396"><ele>235.66666666666669</ele><time>2026-04-26T11:05:40Z</time></trkpt><trkpt lat="45.84649933069776" lon="9.084577132657243"><ele>233.0</ele><time>2026-04-26T11:05:41Z</time></trkpt><trkpt lat="45.8465578835224" lon="9.084269132300017"><ele>228.33333333333334</ele><time>2026-04-26T11:05:42Z</time></trkpt><trkpt lat="45.846580195168315" lon="9.083980578957112"><ele>223.66666666666669</ele><time>2026-04-26T11:05:43Z</time></trkpt><trkpt lat="45.84661295952765" lon="9.083694011449285"><ele>219.0</ele><time>2026-04-26T11:05:44Z</time></trkpt><trkpt lat="45.84659398015023" lon="9.083400953282725"><ele>225.66666666666669</ele><time>2026-04-26T11:05:45Z</time></trkpt><trkpt lat="45.846575295189126" lon="9.08311700661715"><ele>232.33333333333334</ele><time>2026-04-26T11:05:46Z</time></trkpt><trkpt lat="45.846560740648165" lon="9.082859210963653"><ele>239.0</ele><time>2026-04-26T11:05:47Z</time></trkpt><trkpt lat="45.84653979699147" lon="9.082595371736868"><ele>236.66666666666669</ele><time>2026-04-26T11:05:48Z</time></trkpt><trkpt lat="45.846521534716494" lon="9.082394000314052"><ele>234.33333333333331</ele><time>2026-04-26T11:05:49Z</time></trkpt><trkpt lat="45.84650549517084" lon="9.082173241721907"><ele>232.0</ele><time>2026-04-26T11:05:50Z</time></trkpt><trkpt lat="45.84648378940454" lon="9.081953622611035"><ele>232.0</ele><time>2026-04-26T11:05:51Z</time></trkpt><trkpt lat="45.84646548777196" lon="9.081740033533173"><ele>232.0</ele><time>2026-04-26T11:05:52Z</time></trkpt><trkpt lat="45.8464454796938" lon="9.081538411662365"><ele>232.0</ele><time>2026-04-26T11:05:53Z</time></trkpt><trkpt lat="45.846428886841785" lon="9.081341543116636"><ele>232.0</ele><time>2026-04-26T11:05:54Z</time></trkpt><trkpt lat="45.84642592593331" lon="9.081134553182375"><ele>235.0</ele><time>2026-04-26T11:05:55Z</time></trkpt><trkpt lat="45.846411264503566" lon="9.080943941892441"><ele>238.0</ele><time>2026-04-26T11:05:56Z</time></trkpt><trkpt lat="45.846398127200935" lon="9.080771649539164"><ele>241.0</ele><time>2026-04-26T11:05:57Z</time></trkpt><trkpt lat="45.84638457482593" lon="9.080601702004433"><ele>244.0</ele><time>2026-04-26T11:05:58Z</time></trkpt><trkpt lat="45.846381082514064" lon="9.080422253593891"><ele>244.75</ele><time>2026-04-26T11:05:59Z</time></trkpt><trkpt lat="45.84635866107662" lon="9.080282755392949"><ele>245.5</ele><time>2026-04-26T11:06:00Z</time></trkpt><trkpt lat="45.846351229057156" lon="9.080125456276088"><ele>246.25</ele><time>2026-04-26T11:06:01Z</time></trkpt><trkpt lat="45.846316790098186" lon="9.079907097527194"><ele>247.0</ele><time>2026-04-26T11:06:02Z</time></trkpt><trkpt lat="45.84631780417092" lon="9.079700015503606"><ele>247.66666666666666</ele><time>2026-04-26T11:06:03Z</time></trkpt><trkpt lat="45.84628176742532" lon="9.079482514008662"><ele>248.33333333333331</ele><time>2026-04-26T11:06:04Z</time></trkpt><trkpt lat="45.84619581196694" lon="9.07925643002738"><ele>249.0</ele><time>2026-04-26T11:06:05Z</time></trkpt><trkpt lat="45.846093779470195" lon="9.07906281190867"><ele>240.66666666666669</ele><time>2026-04-26T11:06:06Z</time></trkpt><trkpt lat="45.84593995958897" lon="9.078906052502438"><ele>232.33333333333334</ele><time>2026-04-26T11:06:07Z</time></trkpt><trkpt lat="45.84579395817036" lon="9.07880647084583"><ele>224.0</ele><time>2026-04-26T11:06:08Z</time></trkpt><trkpt lat="45.84564600569201" lon="9.078712092771202"><ele>224.0</ele><time>2026-04-26T11:06:09Z</time></trkpt><trkpt lat="45.845470342353536" lon="9.078649611189658"><ele>224.0</ele><time>2026-04-26T11:06:10Z</time></trkpt><trkpt lat="45.84529318708089" lon="9.078604731846136"><ele>224.0</ele><time>2026-04-26T11:06:11Z</time></trkpt><trkpt lat="45.84509756153314" lon="9.07855655129182"><ele>221.33333333333334</ele><time>2026-04-26T11:06:12Z</time></trkpt><trkpt lat="45.84491618251531" lon="9.078502219567595"><ele>218.66666666666669</ele><time>2026-04-26T11:06:13Z</time></trkpt><trkpt lat="45.84474952749758" lon="9.078477812277931"><ele>216.0</ele><time>2026-04-26T11:06:14Z</time></trkpt><trkpt lat="45.84460558218851" lon="9.078421599751039"><ele>216.0</ele><time>2026-04-26T11:06:15Z</time></trkpt><trkpt lat="45.84447574788661" lon="9.07830047672041"><ele>216.0</ele><time>2026-04-26T11:06:16Z</time></trkpt><trkpt lat="45.84434734683296" lon="9.078189926229028"><ele>216.0</ele><time>2026-04-26T11:06:17Z</time></trkpt><trkpt lat="45.84421375309822" lon="9.07812688249184"><ele>216.0</ele><time>2026-04-26T11:06:18Z</time></trkpt><trkpt lat="45.84408650900204" lon="9.078057410980254"><ele>217.5</ele><time>2026-04-26T11:06:19Z</time></trkpt><trkpt lat="45.84394175431214" lon="9.078024839747497"><ele>219.0</ele><time>2026-04-26T11:06:20Z</time></trkpt><trkpt lat="45.84381813337976" lon="9.077977626239509"><ele>220.5</ele><time>2026-04-26T11:06:21Z</time></trkpt><trkpt lat="45.843698955121695" lon="9.077940275112148"><ele>222.0</ele><time>2026-04-26T11:06:22Z</time></trkpt><trkpt lat="45.84358621617335" lon="9.077903938027607"><ele>222.0</ele><time>2026-04-26T11:06:23Z</time></trkpt><trkpt lat="45.84346721265844" lon="9.077865581718141"><ele>222.0</ele><time>2026-04-26T11:06:24Z</time></trkpt><trkpt lat="45.84337728569969" lon="9.077836597161069"><ele>222.0</ele><time>2026-04-26T11:06:25Z</time></trkpt><trkpt lat="45.84330288190857" lon="9.07782336832219"><ele>222.0</ele><time>2026-04-26T11:06:26Z</time></trkpt><trkpt lat="45.84323059795065" lon="9.077809027845728"><ele>222.0</ele><time>2026-04-26T11:06:27Z</time></trkpt><trkpt lat="45.84315350044028" lon="9.077788138855011"><ele>222.0</ele><time>2026-04-26T11:06:28Z</time></trkpt><trkpt lat="45.843046481436076" lon="9.077760311355263"><ele>220.5</ele><time>2026-04-26T11:06:29Z</time></trkpt><trkpt lat="45.842893182717305" lon="9.077713734292082"><ele>219.0</ele><time>2026-04-26T11:06:30Z</time></trkpt><trkpt lat="45.84274573266564" lon="9.077662062605457"><ele>217.5</ele><time>2026-04-26T11:06:31Z</time></trkpt><trkpt lat="45.84262416808713" lon="9.077650052731316"><ele>216.0</ele><time>2026-04-26T11:06:32Z</time></trkpt><trkpt lat="45.84256345448399" lon="9.077613486940455"><ele>215.5</ele><time>2026-04-26T11:06:33Z</time></trkpt><trkpt lat="45.84244058051894" lon="9.077575259809329"><ele>215.0</ele><time>2026-04-26T11:06:35Z</time></trkpt><trkpt lat="45.842344730603216" lon="9.077533454628274"><ele>214.5</ele><time>2026-04-26T11:06:37Z</time></trkpt><trkpt lat="45.84223099066876" lon="9.077472610570966"><ele>214.0</ele><time>2026-04-26T11:06:39Z</time></trkpt><trkpt lat="45.84210785644048" lon="9.077423279392878"><ele>214.0</ele><time>2026-04-26T11:06:41Z</time></trkpt><trkpt lat="45.84198549591559" lon="9.077331743231086"><ele>213.99999999999997</ele><time>2026-04-26T11:06:43Z</time></trkpt><trkpt lat="45.8419251217031" lon="9.077274023134908"><ele>213.99999999999997</ele><time>2026-04-26T11:06:44Z</time></trkpt><trkpt lat="45.841826896099406" lon="9.07716836355525"><ele>214.0</ele><time>2026-04-26T11:06:46Z</time></trkpt><trkpt lat="45.841761549541026" lon="9.0771089338182"><ele>214.0</ele><time>2026-04-26T11:06:47Z</time></trkpt><trkpt lat="45.841702074614496" lon="9.077046710101873"><ele>213.79999999999998</ele><time>2026-04-26T11:06:48Z</time></trkpt><trkpt lat="45.84165120546809" lon="9.076989462715096"><ele>213.59999999999997</ele><time>2026-04-26T11:06:49Z</time></trkpt><trkpt lat="45.84157840352781" lon="9.076913208392387"><ele>213.4</ele><time>2026-04-26T11:06:50Z</time></trkpt><trkpt lat="45.84152197755565" lon="9.07686117074942"><ele>213.2</ele><time>2026-04-26T11:06:51Z</time></trkpt><trkpt lat="45.8414413432647" lon="9.076745914428264"><ele>213.0</ele><time>2026-04-26T11:06:53Z</time></trkpt><trkpt lat="45.84130366266316" lon="9.0766166140357"><ele>213.0</ele><time>2026-04-26T11:06:55Z</time></trkpt><trkpt lat="45.84124572318992" lon="9.076556005536661"><ele>213.0</ele><time>2026-04-26T11:06:56Z</time></trkpt><trkpt lat="45.84118950153963" lon="9.076494117953006"><ele>213.0</ele><time>2026-04-26T11:06:57Z</time></trkpt><trkpt lat="45.84112689537625" lon="9.076421866774815"><ele>213.0</ele><time>2026-04-26T11:06:58Z</time></trkpt><trkpt lat="45.84103493996359" lon="9.07630207009656"><ele>213.0</ele><time>2026-04-26T11:07:00Z</time></trkpt><trkpt lat="45.84098776418841" lon="9.076232588766029"><ele>213.0</ele><time>2026-04-26T11:07:01Z</time></trkpt><trkpt lat="45.84092953504445" lon="9.076145173356407"><ele>213.14285714285714</ele><time>2026-04-26T11:07:02Z</time></trkpt><trkpt lat="45.840874733476426" lon="9.076062903592792"><ele>213.28571428571428</ele><time>2026-04-26T11:07:03Z</time></trkpt><trkpt lat="45.84082082304851" lon="9.075981972409505"><ele>213.42857142857144</ele><time>2026-04-26T11:07:04Z</time></trkpt><trkpt lat="45.84077118825464" lon="9.075906668861005"><ele>213.57142857142856</ele><time>2026-04-26T11:07:05Z</time></trkpt><trkpt lat="45.840726566055714" lon="9.075838816798857"><ele>213.71428571428572</ele><time>2026-04-26T11:07:06Z</time></trkpt><trkpt lat="45.840682133516204" lon="9.075771183311902"><ele>213.85714285714286</ele><time>2026-04-26T11:07:07Z</time></trkpt><trkpt lat="45.840629446917404" lon="9.075695503666434"><ele>214.0</ele><time>2026-04-26T11:07:09Z</time></trkpt><trkpt lat="45.84057483359104" lon="9.075618594846153"><ele>214.00000000000003</ele><time>2026-04-26T11:07:11Z</time></trkpt><trkpt lat="45.84052982244961" lon="9.075554139402167"><ele>214.0</ele><time>2026-04-26T11:07:12Z</time></trkpt><trkpt lat="45.84048534508344" lon="9.075488529646604"><ele>214.0</ele><time>2026-04-26T11:07:15Z</time></trkpt><trkpt lat="45.84045384060372" lon="9.075407341285823"><ele>214.0</ele><time>2026-04-26T11:07:17Z</time></trkpt><trkpt lat="45.84041605266971" lon="9.075287545289159"><ele>214.0</ele><time>2026-04-26T11:07:19Z</time></trkpt><trkpt lat="45.84040843648569" lon="9.075195443461938"><ele>214.00000000000003</ele><time>2026-04-26T11:07:21Z</time></trkpt><trkpt lat="45.84033631207678" lon="9.075137528979722"><ele>214.0</ele><time>2026-04-26T11:07:23Z</time></trkpt><trkpt lat="45.840271256590114" lon="9.075141404381208"><ele>213.99999999999997</ele><time>2026-04-26T11:07:25Z</time></trkpt><trkpt lat="45.84024133548077" lon="9.075041246509496"><ele>214.0</ele><time>2026-04-26T11:07:26Z</time></trkpt><trkpt lat="45.840150499585015" lon="9.074924071894143"><ele>214.0</ele><time>2026-04-26T11:07:28Z</time></trkpt><trkpt lat="45.84009870943013" lon="9.074861205732324"><ele>214.0</ele><time>2026-04-26T11:07:29Z</time></trkpt><trkpt lat="45.84004143147848" lon="9.07480126500301"><ele>213.99999999999997</ele><time>2026-04-26T11:07:30Z</time></trkpt><trkpt lat="45.83997890962224" lon="9.074751379884464"><ele>214.0</ele><time>2026-04-26T11:07:31Z</time></trkpt><trkpt lat="45.8399110011376" lon="9.074697802921913"><ele>213.2857142857143</ele><time>2026-04-26T11:07:32Z</time></trkpt><trkpt lat="45.83983692861798" lon="9.07466376746251"><ele>212.57142857142858</ele><time>2026-04-26T11:07:33Z</time></trkpt><trkpt lat="45.83977464230493" lon="9.07463850850264"><ele>211.85714285714286</ele><time>2026-04-26T11:07:34Z</time></trkpt><trkpt lat="45.83970766397233" lon="9.074614518745069"><ele>211.14285714285717</ele><time>2026-04-26T11:07:35Z</time></trkpt><trkpt lat="45.83964080015791" lon="9.07458952866845"><ele>210.42857142857142</ele><time>2026-04-26T11:07:36Z</time></trkpt><trkpt lat="45.8395729544228" lon="9.07456417163891"><ele>209.71428571428572</ele><time>2026-04-26T11:07:37Z</time></trkpt><trkpt lat="45.8395073543869" lon="9.074539653889746"><ele>209.0</ele><time>2026-04-26T11:07:38Z</time></trkpt><trkpt lat="45.8394428794649" lon="9.074515556790875"><ele>209.00000000000003</ele><time>2026-04-26T11:07:39Z</time></trkpt><trkpt lat="45.839348851182066" lon="9.074460607288586"><ele>209.0</ele><time>2026-04-26T11:07:41Z</time></trkpt><trkpt lat="45.839290774588385" lon="9.07442050807822"><ele>209.0</ele><time>2026-04-26T11:07:42Z</time></trkpt><trkpt lat="45.83920802392928" lon="9.074397422748698"><ele>209.0</ele><time>2026-04-26T11:07:44Z</time></trkpt><trkpt lat="45.83912159165738" lon="9.074355546559966"><ele>209.00000000000003</ele><time>2026-04-26T11:07:46Z</time></trkpt><trkpt lat="45.83906486250025" lon="9.074411532469767"><ele>209.0</ele><time>2026-04-26T11:07:47Z</time></trkpt><trkpt lat="45.83897853116793" lon="9.074360530901721"><ele>208.79999999999998</ele><time>2026-04-26T11:07:49Z</time></trkpt><trkpt lat="45.83887350288938" lon="9.07434502000358"><ele>208.6</ele><time>2026-04-26T11:07:51Z</time></trkpt><trkpt lat="45.83881735232455" lon="9.074300361877226"><ele>208.4</ele><time>2026-04-26T11:07:52Z</time></trkpt><trkpt lat="45.83869421623863" lon="9.074276683544046"><ele>208.2</ele><time>2026-04-26T11:07:54Z</time></trkpt><trkpt lat="45.83862676007671" lon="9.074226452081847"><ele>208.0</ele><time>2026-04-26T11:07:55Z</time></trkpt><trkpt lat="45.838542133709645" lon="9.074195564594051"><ele>207.60000000000002</ele><time>2026-04-26T11:07:56Z</time></trkpt><trkpt lat="45.83844594091186" lon="9.074180494464217"><ele>207.20000000000002</ele><time>2026-04-26T11:07:57Z</time></trkpt><trkpt lat="45.838371282392565" lon="9.074127986861033"><ele>206.8</ele><time>2026-04-26T11:07:58Z</time></trkpt><trkpt lat="45.838290680867736" lon="9.074097738313654"><ele>206.4</ele><time>2026-04-26T11:07:59Z</time></trkpt><trkpt lat="45.83819293088027" lon="9.07414379170498"><ele>206.0</ele><time>2026-04-26T11:08:00Z</time></trkpt><trkpt lat="45.83808065634437" lon="9.074173566099395"><ele>206.0</ele><time>2026-04-26T11:08:01Z</time></trkpt><trkpt lat="45.83794612651742" lon="9.074216245419947"><ele>206.0</ele><time>2026-04-26T11:08:02Z</time></trkpt><trkpt lat="45.83780094842549" lon="9.07425547273941"><ele>206.0</ele><time>2026-04-26T11:08:03Z</time></trkpt><trkpt lat="45.837695106973634" lon="9.07411390988713"><ele>206.0</ele><time>2026-04-26T11:08:04Z</time></trkpt><trkpt lat="45.83757671059318" lon="9.074062360497111"><ele>206.4</ele><time>2026-04-26T11:08:05Z</time></trkpt><trkpt lat="45.83747962064657" lon="9.074022652442991"><ele>206.8</ele><time>2026-04-26T11:08:06Z</time></trkpt><trkpt lat="45.837409705201" lon="9.073997094432858"><ele>207.20000000000002</ele><time>2026-04-26T11:08:07Z</time></trkpt><trkpt lat="45.837310467386956" lon="9.073969700091478"><ele>207.60000000000002</ele><time>2026-04-26T11:08:09Z</time></trkpt><trkpt lat="45.83717345252286" lon="9.073966986651362"><ele>208.0</ele><time>2026-04-26T11:08:11Z</time></trkpt><trkpt lat="45.83704034194618" lon="9.073970637408085"><ele>208.0</ele><time>2026-04-26T11:08:12Z</time></trkpt><trkpt lat="45.83694182026234" lon="9.074000634697956"><ele>208.0</ele><time>2026-04-26T11:08:13Z</time></trkpt><trkpt lat="45.83680969596997" lon="9.074009820177173"><ele>208.0</ele><time>2026-04-26T11:08:14Z</time></trkpt><trkpt lat="45.836734217253316" lon="9.074088262507727"><ele>208.0</ele><time>2026-04-26T11:08:15Z</time></trkpt><trkpt lat="45.836495242678325" lon="9.073483328707155"><ele>208.33333333333331</ele><time>2026-04-26T11:08:16Z</time></trkpt><trkpt lat="45.83634710860585" lon="9.073392383029853"><ele>208.66666666666669</ele><time>2026-04-26T11:08:17Z</time></trkpt><trkpt lat="45.83619093883845" lon="9.073317043830874"><ele>209.0</ele><time>2026-04-26T11:08:18Z</time></trkpt><trkpt lat="45.836019258726544" lon="9.073244259826717"><ele>206.66666666666669</ele><time>2026-04-26T11:08:19Z</time></trkpt><trkpt lat="45.83585566383885" lon="9.073186174978026"><ele>204.33333333333331</ele><time>2026-04-26T11:08:20Z</time></trkpt><trkpt lat="45.83570138525046" lon="9.073109356384508"><ele>202.0</ele><time>2026-04-26T11:08:21Z</time></trkpt><trkpt lat="45.835550161245564" lon="9.073052328365177"><ele>202.0</ele><time>2026-04-26T11:08:22Z</time></trkpt><trkpt lat="45.835391531991064" lon="9.072991254750931"><ele>202.0</ele><time>2026-04-26T11:08:23Z</time></trkpt><trkpt lat="45.835252328771425" lon="9.072947299012274"><ele>202.0</ele><time>2026-04-26T11:08:24Z</time></trkpt><trkpt lat="45.83512389050839" lon="9.072900057889479"><ele>202.0</ele><time>2026-04-26T11:08:25Z</time></trkpt><trkpt lat="45.8350038739766" lon="9.072854920936825"><ele>202.2</ele><time>2026-04-26T11:08:26Z</time></trkpt><trkpt lat="45.8348989166302" lon="9.072830857200826"><ele>202.39999999999998</ele><time>2026-04-26T11:08:27Z</time></trkpt><trkpt lat="45.83481397740332" lon="9.07275952283365"><ele>202.60000000000002</ele><time>2026-04-26T11:08:28Z</time></trkpt><trkpt lat="45.834787852041835" lon="9.072612495627785"><ele>202.8</ele><time>2026-04-26T11:08:29Z</time></trkpt><trkpt lat="45.8347396303961" lon="9.072502006585431"><ele>203.0</ele><time>2026-04-26T11:08:30Z</time></trkpt><trkpt lat="45.83469816821966" lon="9.072401227065162"><ele>203.0</ele><time>2026-04-26T11:08:31Z</time></trkpt><trkpt lat="45.83463655103106" lon="9.072335796288094"><ele>203.0</ele><time>2026-04-26T11:08:32Z</time></trkpt><trkpt lat="45.83453982537792" lon="9.072350196557148"><ele>203.0</ele><time>2026-04-26T11:08:33Z</time></trkpt><trkpt lat="45.834428840013835" lon="9.072445169098467"><ele>203.0</ele><time>2026-04-26T11:08:34Z</time></trkpt><trkpt lat="45.834297318378574" lon="9.072506475112704"><ele>203.0</ele><time>2026-04-26T11:08:35Z</time></trkpt><trkpt lat="45.83417010825722" lon="9.072521614175916"><ele>203.0</ele><time>2026-04-26T11:08:36Z</time></trkpt><trkpt lat="45.834045034756215" lon="9.0724954625214"><ele>203.0</ele><time>2026-04-26T11:08:37Z</time></trkpt><trkpt lat="45.83393915198662" lon="9.072443894466955"><ele>203.0</ele><time>2026-04-26T11:08:38Z</time></trkpt><trkpt lat="45.83383388775756" lon="9.07241001106298"><ele>203.0</ele><time>2026-04-26T11:08:39Z</time></trkpt><trkpt lat="45.83371906518543" lon="9.072409692741003"><ele>203.0</ele><time>2026-04-26T11:08:40Z</time></trkpt><trkpt lat="45.83362101944687" lon="9.072350608014101"><ele>203.0</ele><time>2026-04-26T11:08:41Z</time></trkpt><trkpt lat="45.833536302145305" lon="9.072309045233455"><ele>203.0</ele><time>2026-04-26T11:08:42Z</time></trkpt><trkpt lat="45.833456828029725" lon="9.07228407277164"><ele>203.0</ele><time>2026-04-26T11:08:43Z</time></trkpt><trkpt lat="45.83338710899661" lon="9.072240720931951"><ele>203.0</ele><time>2026-04-26T11:08:44Z</time></trkpt><trkpt lat="45.83328512988558" lon="9.07220215937136"><ele>203.5</ele><time>2026-04-26T11:08:45Z</time></trkpt><trkpt lat="45.83313345275495" lon="9.072144805458464"><ele>204.0</ele><time>2026-04-26T11:08:46Z</time></trkpt><trkpt lat="45.8330024179244" lon="9.072094422733489"><ele>204.5</ele><time>2026-04-26T11:08:47Z</time></trkpt><trkpt lat="45.83285757882344" lon="9.072039376562374"><ele>205.0</ele><time>2026-04-26T11:08:48Z</time></trkpt><trkpt lat="45.832730738699965" lon="9.071991485054866"><ele>205.0</ele><time>2026-04-26T11:08:49Z</time></trkpt><trkpt lat="45.8326125135231" lon="9.07194684643011"><ele>205.0</ele><time>2026-04-26T11:08:50Z</time></trkpt><trkpt lat="45.83251645101421" lon="9.07192394784035"><ele>205.0</ele><time>2026-04-26T11:08:51Z</time></trkpt><trkpt lat="45.83242492228048" lon="9.071889227650079"><ele>205.0</ele><time>2026-04-26T11:08:52Z</time></trkpt><trkpt lat="45.83234898503319" lon="9.071871429855348"><ele>205.0</ele><time>2026-04-26T11:08:53Z</time></trkpt><trkpt lat="45.83227063032263" lon="9.07185133137724"><ele>205.0</ele><time>2026-04-26T11:08:54Z</time></trkpt><trkpt lat="45.83214748827511" lon="9.071810649096289"><ele>205.0</ele><time>2026-04-26T11:08:55Z</time></trkpt><trkpt lat="45.83200097645903" lon="9.071845429790434"><ele>205.0</ele><time>2026-04-26T11:08:56Z</time></trkpt><trkpt lat="45.831853572270845" lon="9.071854557266567"><ele>205.0</ele><time>2026-04-26T11:08:57Z</time></trkpt><trkpt lat="45.83172138371938" lon="9.071859674475643"><ele>204.4</ele><time>2026-04-26T11:08:58Z</time></trkpt><trkpt lat="45.83162968429341" lon="9.071858202099856"><ele>203.8</ele><time>2026-04-26T11:08:59Z</time></trkpt><trkpt lat="45.831511323555844" lon="9.07185989303049"><ele>203.2</ele><time>2026-04-26T11:09:23Z</time></trkpt><trkpt lat="45.831402325951196" lon="9.071897997373583"><ele>202.6</ele><time>2026-04-26T11:09:24Z</time></trkpt><trkpt lat="45.83127912416143" lon="9.071921965310768"><ele>202.0</ele><time>2026-04-26T11:09:25Z</time></trkpt><trkpt lat="45.83113892942432" lon="9.071943919414759"><ele>202.0</ele><time>2026-04-26T11:09:26Z</time></trkpt><trkpt lat="45.83099453970884" lon="9.071954920119348"><ele>202.0</ele><time>2026-04-26T11:09:27Z</time></trkpt><trkpt lat="45.83083865952441" lon="9.071967323861562"><ele>202.0</ele><time>2026-04-26T11:09:28Z</time></trkpt><trkpt lat="45.830680911372895" lon="9.071923467880117"><ele>205.33333333333331</ele><time>2026-04-26T11:09:29Z</time></trkpt><trkpt lat="45.83051648713395" lon="9.07186214692642"><ele>208.66666666666669</ele><time>2026-04-26T11:09:30Z</time></trkpt><trkpt lat="45.83034621399495" lon="9.071800079051133"><ele>212.0</ele><time>2026-04-26T11:09:31Z</time></trkpt><trkpt lat="45.830175014655595" lon="9.071693018213665"><ele>220.33333333333334</ele><time>2026-04-26T11:09:32Z</time></trkpt><trkpt lat="45.830006675137135" lon="9.07156835135685"><ele>228.66666666666669</ele><time>2026-04-26T11:09:33Z</time></trkpt><trkpt lat="45.82983305494427" lon="9.071432858166459"><ele>237.0</ele><time>2026-04-26T11:09:34Z</time></trkpt><trkpt lat="45.82966837563958" lon="9.071309342474425"><ele>237.0</ele><time>2026-04-26T11:09:35Z</time></trkpt><trkpt lat="45.82952891012968" lon="9.071161380953946"><ele>237.0</ele><time>2026-04-26T11:09:36Z</time></trkpt><trkpt lat="45.82938836525539" lon="9.071005527190394"><ele>237.0</ele><time>2026-04-26T11:09:37Z</time></trkpt><trkpt lat="45.829249208808456" lon="9.070836063454191"><ele>240.0</ele><time>2026-04-26T11:09:38Z</time></trkpt><trkpt lat="45.82911524362568" lon="9.070659645821157"><ele>243.0</ele><time>2026-04-26T11:09:39Z</time></trkpt><trkpt lat="45.82897578795076" lon="9.070503226978294"><ele>246.0</ele><time>2026-04-26T11:09:40Z</time></trkpt><trkpt lat="45.82884735168082" lon="9.07032539271333"><ele>246.0</ele><time>2026-04-26T11:09:41Z</time></trkpt><trkpt lat="45.828732310107696" lon="9.070139258198298"><ele>246.0</ele><time>2026-04-26T11:09:42Z</time></trkpt><trkpt lat="45.82860494809042" lon="9.069992067146654"><ele>246.0</ele><time>2026-04-26T11:09:43Z</time></trkpt><trkpt lat="45.82847447428211" lon="9.069904017911304"><ele>249.66666666666669</ele><time>2026-04-26T11:09:44Z</time></trkpt><trkpt lat="45.828325342996926" lon="9.069872749156545"><ele>253.33333333333334</ele><time>2026-04-26T11:09:45Z</time></trkpt><trkpt lat="45.82812367592904" lon="9.069931404616858"><ele>257.0</ele><time>2026-04-26T11:09:46Z</time></trkpt><trkpt lat="45.827942898552685" lon="9.069946822639386"><ele>257.0</ele><time>2026-04-26T11:09:47Z</time></trkpt><trkpt lat="45.82776827824708" lon="9.069900873596106"><ele>257.0</ele><time>2026-04-26T11:09:48Z</time></trkpt><trkpt lat="45.82762452515129" lon="9.069827474002848"><ele>257.0</ele><time>2026-04-26T11:09:49Z</time></trkpt><trkpt lat="45.82746925440081" lon="9.069716724205094"><ele>251.66666666666669</ele><time>2026-04-26T11:09:50Z</time></trkpt><trkpt lat="45.82732126530713" lon="9.069591713394203"><ele>246.33333333333331</ele><time>2026-04-26T11:09:51Z</time></trkpt><trkpt lat="45.82715364118666" lon="9.06945422118517"><ele>241.0</ele><time>2026-04-26T11:09:52Z</time></trkpt><trkpt lat="45.826972610492454" lon="9.069305485963598"><ele>242.66666666666666</ele><time>2026-04-26T11:09:53Z</time></trkpt><trkpt lat="45.82678848882402" lon="9.06915184643752"><ele>244.33333333333331</ele><time>2026-04-26T11:09:54Z</time></trkpt><trkpt lat="45.82659498264809" lon="9.068982130565676"><ele>246.0</ele><time>2026-04-26T11:09:55Z</time></trkpt><trkpt lat="45.82639805461894" lon="9.068808410398265"><ele>246.0</ele><time>2026-04-26T11:09:56Z</time></trkpt><trkpt lat="45.82621295109696" lon="9.068665871951236"><ele>246.0</ele><time>2026-04-26T11:09:57Z</time></trkpt><trkpt lat="45.82603677796551" lon="9.068525625695466"><ele>246.0</ele><time>2026-04-26T11:09:58Z</time></trkpt><trkpt lat="45.82588159095372" lon="9.068422045578801"><ele>236.66666666666669</ele><time>2026-04-26T11:09:59Z</time></trkpt><trkpt lat="45.82572707906363" lon="9.068361317487163"><ele>227.33333333333334</ele><time>2026-04-26T11:10:00Z</time></trkpt><trkpt lat="45.82551832937136" lon="9.068368084691167"><ele>218.0</ele><time>2026-04-26T11:10:01Z</time></trkpt><trkpt lat="45.82532172961308" lon="9.06837420624864"><ele>218.0</ele><time>2026-04-26T11:10:02Z</time></trkpt><trkpt lat="45.82514732781059" lon="9.068374554311028"><ele>218.0</ele><time>2026-04-26T11:10:03Z</time></trkpt><trkpt lat="45.82498207701726" lon="9.068382690909148"><ele>218.0</ele><time>2026-04-26T11:10:04.001Z</time></trkpt><trkpt lat="45.82482757444436" lon="9.068353398565854"><ele>216.5</ele><time>2026-04-26T11:10:05.001Z</time></trkpt><trkpt lat="45.82468271510984" lon="9.06831909406566"><ele>215.0</ele><time>2026-04-26T11:10:06.001Z</time></trkpt><trkpt lat="45.82455094962813" lon="9.068264428352244"><ele>213.5</ele><time>2026-04-26T11:10:07.001Z</time></trkpt><trkpt lat="45.824423799330866" lon="9.068202300437676"><ele>212.0</ele><time>2026-04-26T11:10:08.001Z</time></trkpt><trkpt lat="45.82429553634034" lon="9.06813780140138"><ele>219.5</ele><time>2026-04-26T11:10:09.001Z</time></trkpt><trkpt lat="45.8241900852544" lon="9.068084773702298"><ele>227.0</ele><time>2026-04-26T11:10:10.001Z</time></trkpt><trkpt lat="45.8240765174516" lon="9.068038017114644"><ele>234.5</ele><time>2026-04-26T11:10:11.001Z</time></trkpt><trkpt lat="45.8239590191107" lon="9.06798553616196"><ele>242.0</ele><time>2026-04-26T11:10:12.001Z</time></trkpt><trkpt lat="45.82384499873648" lon="9.067924332356036"><ele>242.0</ele><time>2026-04-26T11:10:13.001Z</time></trkpt><trkpt lat="45.82373061842114" lon="9.06786228293462"><ele>242.0</ele><time>2026-04-26T11:10:14.001Z</time></trkpt><trkpt lat="45.82361566352513" lon="9.067800182539036"><ele>242.0</ele><time>2026-04-26T11:10:15.001Z</time></trkpt><trkpt lat="45.82349704892584" lon="9.067772540874362"><ele>242.0</ele><time>2026-04-26T11:10:16.001Z</time></trkpt><trkpt lat="45.8233579889406" lon="9.06777885081508"><ele>235.66666666666669</ele><time>2026-04-26T11:10:16.999Z</time></trkpt><trkpt lat="45.82319569137542" lon="9.06775903261011"><ele>229.33333333333331</ele><time>2026-04-26T11:10:17.999Z</time></trkpt><trkpt lat="45.82304939617145" lon="9.067750043374696"><ele>223.0</ele><time>2026-04-26T11:10:18.999Z</time></trkpt><trkpt lat="45.822903154582015" lon="9.067746044356795"><ele>223.0</ele><time>2026-04-26T11:10:19.999Z</time></trkpt><trkpt lat="45.82279359751793" lon="9.067708181706038"><ele>223.0</ele><time>2026-04-26T11:10:20.999Z</time></trkpt><trkpt lat="45.82268857230514" lon="9.067693005826053"><ele>223.0</ele><time>2026-04-26T11:10:21.999Z</time></trkpt><trkpt lat="45.82259706655047" lon="9.067674873229203"><ele>223.0</ele><time>2026-04-26T11:10:22.999Z</time></trkpt><trkpt lat="45.82251281341607" lon="9.067648637366805"><ele>223.0</ele><time>2026-04-26T11:10:24Z</time></trkpt><trkpt lat="45.82243926812866" lon="9.067580349621025"><ele>221.2</ele><time>2026-04-26T11:10:25Z</time></trkpt><trkpt lat="45.82235854266586" lon="9.067542264552564"><ele>219.4</ele><time>2026-04-26T11:10:26Z</time></trkpt><trkpt lat="45.82228471330915" lon="9.067458802301829"><ele>217.59999999999997</ele><time>2026-04-26T11:10:27Z</time></trkpt><trkpt lat="45.82220415549514" lon="9.067389603772378"><ele>215.79999999999998</ele><time>2026-04-26T11:10:28Z</time></trkpt><trkpt lat="45.82210943940285" lon="9.0673273459871"><ele>214.0</ele><time>2026-04-26T11:10:29Z</time></trkpt><trkpt lat="45.82200765880476" lon="9.067257459080171"><ele>215.0</ele><time>2026-04-26T11:10:30Z</time></trkpt><trkpt lat="45.82189994217931" lon="9.067190448695811"><ele>215.99999999999997</ele><time>2026-04-26T11:10:31Z</time></trkpt><trkpt lat="45.821805991580355" lon="9.067132912073564"><ele>216.99999999999997</ele><time>2026-04-26T11:10:32Z</time></trkpt><trkpt lat="45.82174479307355" lon="9.067104334755923"><ele>218.0</ele><time>2026-04-26T11:10:34Z</time></trkpt><trkpt lat="45.821633362492754" lon="9.067053996945388"><ele>219.0</ele><time>2026-04-26T11:10:37Z</time></trkpt><trkpt lat="45.821544310968164" lon="9.06700558654793"><ele>219.0</ele><time>2026-04-26T11:10:38Z</time></trkpt><trkpt lat="45.82144782420475" lon="9.066949787367239"><ele>219.0</ele><time>2026-04-26T11:10:39Z</time></trkpt><trkpt lat="45.82132792612395" lon="9.06687893673992"><ele>219.0</ele><time>2026-04-26T11:10:40Z</time></trkpt><trkpt lat="45.82117935543276" lon="9.066794453612347"><ele>219.0</ele><time>2026-04-26T11:10:41Z</time></trkpt><trkpt lat="45.821035830307984" lon="9.066698374320293"><ele>219.25</ele><time>2026-04-26T11:10:42Z</time></trkpt><trkpt lat="45.820907147746794" lon="9.066601536462978"><ele>219.5</ele><time>2026-04-26T11:10:43Z</time></trkpt><trkpt lat="45.82080495086053" lon="9.066480879176954"><ele>219.75</ele><time>2026-04-26T11:10:44Z</time></trkpt><trkpt lat="45.820726130950554" lon="9.066324853558863"><ele>220.0</ele><time>2026-04-26T11:10:45Z</time></trkpt><trkpt lat="45.82066219151212" lon="9.066128524329521"><ele>220.0</ele><time>2026-04-26T11:10:46Z</time></trkpt><trkpt lat="45.820600122913746" lon="9.065912982959492"><ele>220.0</ele><time>2026-04-26T11:10:47Z</time></trkpt><trkpt lat="45.8205094253136" lon="9.065698885712253"><ele>220.0</ele><time>2026-04-26T11:10:48Z</time></trkpt><trkpt lat="45.82042221272131" lon="9.065473450434052"><ele>222.66666666666666</ele><time>2026-04-26T11:10:49Z</time></trkpt><trkpt lat="45.8203493716187" lon="9.065253234885025"><ele>225.33333333333331</ele><time>2026-04-26T11:10:50Z</time></trkpt><trkpt lat="45.82028397314251" lon="9.065052527805527"><ele>228.0</ele><time>2026-04-26T11:10:51Z</time></trkpt><trkpt lat="45.820216839910614" lon="9.064865489251293"><ele>228.0</ele><time>2026-04-26T11:10:52Z</time></trkpt><trkpt lat="45.82016354921831" lon="9.064669462797545"><ele>228.0</ele><time>2026-04-26T11:10:53Z</time></trkpt><trkpt lat="45.82009894287978" lon="9.064517125518902"><ele>228.0</ele><time>2026-04-26T11:10:54Z</time></trkpt><trkpt lat="45.820051148504355" lon="9.064333234128917"><ele>228.0</ele><time>2026-04-26T11:10:55Z</time></trkpt><trkpt lat="45.81999487450264" lon="9.064163373535846"><ele>226.0</ele><time>2026-04-26T11:10:56Z</time></trkpt><trkpt lat="45.81993885343942" lon="9.063995570624096"><ele>224.0</ele><time>2026-04-26T11:10:57Z</time></trkpt><trkpt lat="45.81987761785829" lon="9.063830811647389"><ele>222.0</ele><time>2026-04-26T11:10:58Z</time></trkpt><trkpt lat="45.819809728152855" lon="9.063686538723735"><ele>220.0</ele><time>2026-04-26T11:10:59Z</time></trkpt><trkpt lat="45.819738202271274" lon="9.063567068274006"><ele>220.0</ele><time>2026-04-26T11:11:00Z</time></trkpt><trkpt lat="45.81964352161422" lon="9.063450500348033"><ele>220.0</ele><time>2026-04-26T11:11:01Z</time></trkpt><trkpt lat="45.81953238674666" lon="9.063365112539328"><ele>220.0</ele><time>2026-04-26T11:11:02Z</time></trkpt><trkpt lat="45.81945195308123" lon="9.063275255285998"><ele>220.0</ele><time>2026-04-26T11:11:03Z</time></trkpt><trkpt lat="45.819379598877504" lon="9.063203124102019"><ele>220.0</ele><time>2026-04-26T11:11:04Z</time></trkpt><trkpt lat="45.819293036895694" lon="9.063193917904014"><ele>220.6</ele><time>2026-04-26T11:11:05Z</time></trkpt><trkpt lat="45.819225084080614" lon="9.063245639599591"><ele>221.2</ele><time>2026-04-26T11:11:06Z</time></trkpt><trkpt lat="45.819106769061285" lon="9.063235989008902"><ele>221.8</ele><time>2026-04-26T11:11:08Z</time></trkpt><trkpt lat="45.81902643050701" lon="9.063197398091816"><ele>222.4</ele><time>2026-04-26T11:11:10Z</time></trkpt><trkpt lat="45.818943277252984" lon="9.06314635135557"><ele>223.0</ele><time>2026-04-26T11:11:14Z</time></trkpt><trkpt lat="45.81886195881626" lon="9.063082557716609"><ele>223.0</ele><time>2026-04-26T11:11:16Z</time></trkpt><trkpt lat="45.81875257651429" lon="9.063162001373756"><ele>223.0</ele><time>2026-04-26T11:11:18Z</time></trkpt><trkpt lat="45.81864763149221" lon="9.063290394041228"><ele>223.0</ele><time>2026-04-26T11:11:20Z</time></trkpt><trkpt lat="45.81857670362179" lon="9.063395399757036"><ele>223.0</ele><time>2026-04-26T11:11:21Z</time></trkpt><trkpt lat="45.818480249795904" lon="9.063512660958363"><ele>221.33333333333331</ele><time>2026-04-26T11:11:22Z</time></trkpt><trkpt lat="45.81836850074634" lon="9.063650621025898"><ele>219.66666666666669</ele><time>2026-04-26T11:11:23Z</time></trkpt><trkpt lat="45.81824387042033" lon="9.063784232077039"><ele>218.0</ele><time>2026-04-26T11:11:24Z</time></trkpt><trkpt lat="45.818115865251336" lon="9.06390620999907"><ele>218.0</ele><time>2026-04-26T11:11:25Z</time></trkpt><trkpt lat="45.817991373409136" lon="9.064039856558718"><ele>218.0</ele><time>2026-04-26T11:11:26Z</time></trkpt><trkpt lat="45.81787276699578" lon="9.06417686334707"><ele>218.0</ele><time>2026-04-26T11:11:27Z</time></trkpt><trkpt lat="45.81776621187706" lon="9.064314551442456"><ele>216.75</ele><time>2026-04-26T11:11:28Z</time></trkpt><trkpt lat="45.81765169551796" lon="9.06442545514314"><ele>215.5</ele><time>2026-04-26T11:11:29Z</time></trkpt><trkpt lat="45.817557313110335" lon="9.064532136952781"><ele>214.25</ele><time>2026-04-26T11:11:30Z</time></trkpt><trkpt lat="45.81746853823134" lon="9.064638795330076"><ele>213.0</ele><time>2026-04-26T11:11:31Z</time></trkpt><trkpt lat="45.81738153286715" lon="9.064739992441302"><ele>213.0</ele><time>2026-04-26T11:11:32Z</time></trkpt><trkpt lat="45.81729432244025" lon="9.064842049702419"><ele>213.0</ele><time>2026-04-26T11:11:33Z</time></trkpt><trkpt lat="45.81721274184791" lon="9.064936012392948"><ele>213.0</ele><time>2026-04-26T11:11:34Z</time></trkpt><trkpt lat="45.81713586658308" lon="9.065022847766215"><ele>213.0</ele><time>2026-04-26T11:11:35Z</time></trkpt><trkpt lat="45.817049705109795" lon="9.065120373079319"><ele>213.0</ele><time>2026-04-26T11:11:36Z</time></trkpt><trkpt lat="45.816965299565055" lon="9.065223751027675"><ele>212.0</ele><time>2026-04-26T11:11:37Z</time></trkpt><trkpt lat="45.8168797234296" lon="9.065321288650114"><ele>211.0</ele><time>2026-04-26T11:11:38Z</time></trkpt><trkpt lat="45.81679909360717" lon="9.065414238529247"><ele>210.0</ele><time>2026-04-26T11:11:39Z</time></trkpt><trkpt lat="45.81671996144446" lon="9.065508823581728"><ele>209.0</ele><time>2026-04-26T11:11:40Z</time></trkpt><trkpt lat="45.816660180175155" lon="9.065586330406555"><ele>208.0</ele><time>2026-04-26T11:11:41Z</time></trkpt><trkpt lat="45.81659190248917" lon="9.065634339836837"><ele>207.5</ele><time>2026-04-26T11:11:42Z</time></trkpt><trkpt lat="45.81651995041601" lon="9.06569108872548"><ele>207.0</ele><time>2026-04-26T11:11:43Z</time></trkpt><trkpt lat="45.816352848373846" lon="9.06573188850317"><ele>206.5</ele><time>2026-04-26T11:11:44Z</time></trkpt><trkpt lat="45.816245488296715" lon="9.065811067386132"><ele>206.0</ele><time>2026-04-26T11:11:45Z</time></trkpt><trkpt lat="45.81610024413314" lon="9.06591542076682"><ele>206.0</ele><time>2026-04-26T11:11:46Z</time></trkpt><trkpt lat="45.815940361645964" lon="9.065979108603967"><ele>206.0</ele><time>2026-04-26T11:11:47Z</time></trkpt><trkpt lat="45.815846889787906" lon="9.066010463588965"><ele>206.0</ele><time>2026-04-26T11:11:48Z</time></trkpt><trkpt lat="45.8157642889255" lon="9.066070881688272"><ele>206.0</ele><time>2026-04-26T11:11:49Z</time></trkpt><trkpt lat="45.815672739317954" lon="9.066150608882255"><ele>206.0</ele><time>2026-04-26T11:11:50Z</time></trkpt><trkpt lat="45.81554184536845" lon="9.066200248458193"><ele>206.0</ele><time>2026-04-26T11:11:51Z</time></trkpt><trkpt lat="45.81541796573063" lon="9.066290918001668"><ele>206.0</ele><time>2026-04-26T11:11:52Z</time></trkpt><trkpt lat="45.8153426600276" lon="9.066413657205644"><ele>206.0</ele><time>2026-04-26T11:11:53Z</time></trkpt><trkpt lat="45.815272503936654" lon="9.06652803168447"><ele>205.8</ele><time>2026-04-26T11:11:54Z</time></trkpt><trkpt lat="45.815205623731984" lon="9.066613354452551"><ele>205.60000000000002</ele><time>2026-04-26T11:11:55Z</time></trkpt><trkpt lat="45.81513015776796" lon="9.066690890393087"><ele>205.4</ele><time>2026-04-26T11:11:56Z</time></trkpt><trkpt lat="45.81506546146044" lon="9.066816592790614"><ele>205.2</ele><time>2026-04-26T11:11:57Z</time></trkpt><trkpt lat="45.815010245564096" lon="9.066977647181291"><ele>205.0</ele><time>2026-04-26T11:11:58Z</time></trkpt><trkpt lat="45.81495635195794" lon="9.067155649870475"><ele>205.5</ele><time>2026-04-26T11:11:59.001Z</time></trkpt><trkpt lat="45.81489002602088" lon="9.06733165189399"><ele>206.0</ele><time>2026-04-26T11:12:00.001Z</time></trkpt><trkpt lat="45.814822486474206" lon="9.067507401491266"><ele>206.5</ele><time>2026-04-26T11:12:01.001Z</time></trkpt><trkpt lat="45.814754327460896" lon="9.067671806169992"><ele>207.0</ele><time>2026-04-26T11:12:02.001Z</time></trkpt><trkpt lat="45.8146818402195" lon="9.067816977939003"><ele>207.0</ele><time>2026-04-26T11:12:03.001Z</time></trkpt><trkpt lat="45.814621267403226" lon="9.06796307786994"><ele>207.0</ele><time>2026-04-26T11:12:04.001Z</time></trkpt><trkpt lat="45.814568927831324" lon="9.068088965949647"><ele>207.0</ele><time>2026-04-26T11:12:05.001Z</time></trkpt><trkpt lat="45.81451431905158" lon="9.068209057956265"><ele>207.0</ele><time>2026-04-26T11:12:06.001Z</time></trkpt><trkpt lat="45.81445366740309" lon="9.068318701309218"><ele>207.0</ele><time>2026-04-26T11:12:07.001Z</time></trkpt><trkpt lat="45.814383725998546" lon="9.068415754804207"><ele>207.2</ele><time>2026-04-26T11:12:08.001Z</time></trkpt><trkpt lat="45.81430998812107" lon="9.068523245493962"><ele>207.39999999999998</ele><time>2026-04-26T11:12:09.001Z</time></trkpt><trkpt lat="45.81424432616864" lon="9.068625824308361"><ele>207.60000000000002</ele><time>2026-04-26T11:12:10.001Z</time></trkpt><trkpt lat="45.81416401581073" lon="9.068719384276521"><ele>207.8</ele><time>2026-04-26T11:12:11.001Z</time></trkpt><trkpt lat="45.81406434319627" lon="9.068814642945885"><ele>208.0</ele><time>2026-04-26T11:12:12.001Z</time></trkpt><trkpt lat="45.81394568469727" lon="9.06889049209207"><ele>208.0</ele><time>2026-04-26T11:12:13.001Z</time></trkpt><trkpt lat="45.81380909714121" lon="9.069011954714187"><ele>208.0</ele><time>2026-04-26T11:12:14.001Z</time></trkpt><trkpt lat="45.81368173087049" lon="9.069084625173065"><ele>208.0</ele><time>2026-04-26T11:12:15.001Z</time></trkpt><trkpt lat="45.813543080834876" lon="9.069162368471508"><ele>208.0</ele><time>2026-04-26T11:12:16.001Z</time></trkpt><trkpt lat="45.81340200475997" lon="9.06923081185146"><ele>207.75</ele><time>2026-04-26T11:12:17.001Z</time></trkpt><trkpt lat="45.81327604236393" lon="9.069276177437375"><ele>207.5</ele><time>2026-04-26T11:12:18.001Z</time></trkpt><trkpt lat="45.81314231719928" lon="9.069301544437678"><ele>207.25</ele><time>2026-04-26T11:12:19.001Z</time></trkpt><trkpt lat="45.813011709349404" lon="9.069426678993164"><ele>207.0</ele><time>2026-04-26T11:12:20.001Z</time></trkpt><trkpt lat="45.81290641314035" lon="9.069525463119843"><ele>207.0</ele><time>2026-04-26T11:12:21.001Z</time></trkpt><trkpt lat="45.812801059064505" lon="9.069603531731554"><ele>207.0</ele><time>2026-04-26T11:12:22.001Z</time></trkpt><trkpt lat="45.81269182004775" lon="9.069693399110886"><ele>207.0</ele><time>2026-04-26T11:12:23Z</time></trkpt><trkpt lat="45.81259414869927" lon="9.069710157114564"><ele>207.0</ele><time>2026-04-26T11:12:24Z</time></trkpt><trkpt lat="45.81249262250392" lon="9.069754460175622"><ele>207.0</ele><time>2026-04-26T11:12:25Z</time></trkpt><trkpt lat="45.81242786531255" lon="9.069810529724752"><ele>207.0</ele><time>2026-04-26T11:12:26Z</time></trkpt><trkpt lat="45.812336606160095" lon="9.069864920663097"><ele>207.0</ele><time>2026-04-26T11:12:28Z</time></trkpt><trkpt lat="45.81225221402487" lon="9.069911367692715"><ele>207.0</ele><time>2026-04-26T11:12:30Z</time></trkpt><trkpt lat="45.81217294758287" lon="9.069994598837303"><ele>207.0</ele><time>2026-04-26T11:12:32Z</time></trkpt><trkpt lat="45.81219494965473" lon="9.07015723437876"><ele>207.0</ele><time>2026-04-26T11:12:34Z</time></trkpt><trkpt lat="45.81225256981246" lon="9.070274796210972"><ele>207.0</ele><time>2026-04-26T11:12:35Z</time></trkpt><trkpt lat="45.81228993033396" lon="9.070426285226478"><ele>207.0</ele><time>2026-04-26T11:12:36Z</time></trkpt><trkpt lat="45.812322419511794" lon="9.070608272143943"><ele>207.0</ele><time>2026-04-26T11:12:37Z</time></trkpt><trkpt lat="45.812348012771395" lon="9.07080312675735"><ele>207.0</ele><time>2026-04-26T11:12:38Z</time></trkpt><trkpt lat="45.8123639167512" lon="9.070998603948256"><ele>207.0</ele><time>2026-04-26T11:12:39Z</time></trkpt><trkpt lat="45.81238345415275" lon="9.071192150194356"><ele>207.0</ele><time>2026-04-26T11:12:40Z</time></trkpt><trkpt lat="45.81239918668313" lon="9.071358026899553"><ele>207.0</ele><time>2026-04-26T11:12:41Z</time></trkpt><trkpt lat="45.812421435345534" lon="9.071502321321566"><ele>207.0</ele><time>2026-04-26T11:12:42Z</time></trkpt><trkpt lat="45.81244153560201" lon="9.071639335984681"><ele>207.0</ele><time>2026-04-26T11:12:43Z</time></trkpt><trkpt lat="45.81244016012212" lon="9.071769977286548"><ele>207.0</ele><time>2026-04-26T11:12:44Z</time></trkpt><trkpt lat="45.81241826672357" lon="9.071897962587407"><ele>207.0</ele><time>2026-04-26T11:12:45Z</time></trkpt><trkpt lat="45.81234823390867" lon="9.072044746619591"><ele>207.0</ele><time>2026-04-26T11:12:46Z</time></trkpt><trkpt lat="45.81227791663573" lon="9.072186454814881"><ele>207.0</ele><time>2026-04-26T11:12:47Z</time></trkpt><trkpt lat="45.8121880564288" lon="9.072323408680745"><ele>207.0</ele><time>2026-04-26T11:12:48Z</time></trkpt><trkpt lat="45.8120687124286" lon="9.07242895664353"><ele>207.0</ele><time>2026-04-26T11:12:49Z</time></trkpt><trkpt lat="45.81195475393082" lon="9.072554684810305"><ele>207.0</ele><time>2026-04-26T11:12:50Z</time></trkpt><trkpt lat="45.811831150150375" lon="9.072687126966517"><ele>207.0</ele><time>2026-04-26T11:12:51Z</time></trkpt><trkpt lat="45.811723968303966" lon="9.072824659611436"><ele>206.75</ele><time>2026-04-26T11:12:52Z</time></trkpt><trkpt lat="45.811605527130624" lon="9.07294396375654"><ele>206.5</ele><time>2026-04-26T11:12:53Z</time></trkpt><trkpt lat="45.811511805067454" lon="9.073070323908993"><ele>206.25</ele><time>2026-04-26T11:12:54Z</time></trkpt><trkpt lat="45.811391342155446" lon="9.073162139082521"><ele>206.0</ele><time>2026-04-26T11:12:55Z</time></trkpt><trkpt lat="45.811280017581666" lon="9.073297584154616"><ele>206.4</ele><time>2026-04-26T11:12:56Z</time></trkpt><trkpt lat="45.81119336854119" lon="9.073410384018908"><ele>206.8</ele><time>2026-04-26T11:12:57Z</time></trkpt><trkpt lat="45.81112696818959" lon="9.073493999543974"><ele>207.20000000000002</ele><time>2026-04-26T11:12:58Z</time></trkpt><trkpt lat="45.81102363199232" lon="9.073591682022343"><ele>207.60000000000002</ele><time>2026-04-26T11:12:59Z</time></trkpt><trkpt lat="45.81095301162871" lon="9.073715000785391"><ele>208.0</ele><time>2026-04-26T11:13:00Z</time></trkpt><trkpt lat="45.81087811594135" lon="9.073816085627413"><ele>208.0</ele><time>2026-04-26T11:13:01Z</time></trkpt><trkpt lat="45.81085695128245" lon="9.073940847813354"><ele>208.0</ele><time>2026-04-26T11:13:02Z</time></trkpt><trkpt lat="45.81080303437756" lon="9.074068504726888"><ele>208.0</ele><time>2026-04-26T11:13:03Z</time></trkpt><trkpt lat="45.81070913966598" lon="9.074149446255188"><ele>208.0</ele><time>2026-04-26T11:13:04Z</time></trkpt><trkpt lat="45.81057896224172" lon="9.07407140730104"><ele>208.0</ele><time>2026-04-26T11:13:05Z</time></trkpt><trkpt lat="45.810460178564426" lon="9.074117336207223"><ele>208.5</ele><time>2026-04-26T11:13:06Z</time></trkpt><trkpt lat="45.81035322138472" lon="9.074182847005183"><ele>209.0</ele><time>2026-04-26T11:13:07Z</time></trkpt><trkpt lat="45.81024772104856" lon="9.074252519683357"><ele>209.5</ele><time>2026-04-26T11:13:08Z</time></trkpt><trkpt lat="45.81014527199196" lon="9.074335025161728"><ele>210.0</ele><time>2026-04-26T11:13:09Z</time></trkpt><trkpt lat="45.81005170517871" lon="9.074420178683345"><ele>210.0</ele><time>2026-04-26T11:13:10Z</time></trkpt><trkpt lat="45.80997522847307" lon="9.074522974404404"><ele>210.0</ele><time>2026-04-26T11:13:11Z</time></trkpt><trkpt lat="45.80988537708557" lon="9.074610237255463"><ele>210.0</ele><time>2026-04-26T11:13:12Z</time></trkpt><trkpt lat="45.809793246899744" lon="9.074693082647128"><ele>210.0</ele><time>2026-04-26T11:13:13Z</time></trkpt><trkpt lat="45.80970441318179" lon="9.074784058516205"><ele>210.0</ele><time>2026-04-26T11:13:14Z</time></trkpt><trkpt lat="45.80962252913805" lon="9.074870456634065"><ele>209.8</ele><time>2026-04-26T11:13:15Z</time></trkpt><trkpt lat="45.80953814928932" lon="9.074952072121897"><ele>209.6</ele><time>2026-04-26T11:13:16Z</time></trkpt><trkpt lat="45.80945202853041" lon="9.07504308812474"><ele>209.39999999999998</ele><time>2026-04-26T11:13:17Z</time></trkpt><trkpt lat="45.80935942290528" lon="9.075129941047429"><ele>209.2</ele><time>2026-04-26T11:13:18Z</time></trkpt><trkpt lat="45.80925403438567" lon="9.075227020704043"><ele>209.0</ele><time>2026-04-26T11:13:19Z</time></trkpt><trkpt lat="45.80916576961782" lon="9.075333679031257"><ele>208.0</ele><time>2026-04-26T11:13:20Z</time></trkpt><trkpt lat="45.809064604566586" lon="9.075431949891517"><ele>207.0</ele><time>2026-04-26T11:13:21Z</time></trkpt><trkpt lat="45.80895514268353" lon="9.075534150920975"><ele>206.0</ele><time>2026-04-26T11:13:22Z</time></trkpt><trkpt lat="45.808837407572604" lon="9.075638909286411"><ele>205.0</ele><time>2026-04-26T11:13:23Z</time></trkpt><trkpt lat="45.808720231534544" lon="9.075745912562093"><ele>205.25</ele><time>2026-04-26T11:13:24Z</time></trkpt><trkpt lat="45.80860722943382" lon="9.075849931928861"><ele>205.5</ele><time>2026-04-26T11:13:25Z</time></trkpt><trkpt lat="45.80849477907594" lon="9.075951900914067"><ele>205.75</ele><time>2026-04-26T11:13:26Z</time></trkpt><trkpt lat="45.808382099156894" lon="9.0760569660292"><ele>206.0</ele><time>2026-04-26T11:13:27Z</time></trkpt><trkpt lat="45.808262527929166" lon="9.07615855326823"><ele>206.0</ele><time>2026-04-26T11:13:28Z</time></trkpt><trkpt lat="45.80815885745618" lon="9.076249161201563"><ele>206.0</ele><time>2026-04-26T11:13:29Z</time></trkpt><trkpt lat="45.80807203554676" lon="9.076339090418307"><ele>206.0</ele><time>2026-04-26T11:13:30Z</time></trkpt><trkpt lat="45.80797684882026" lon="9.076431629199709"><ele>206.0</ele><time>2026-04-26T11:13:31Z</time></trkpt><trkpt lat="45.80789363607724" lon="9.076514105312889"><ele>206.0</ele><time>2026-04-26T11:13:32Z</time></trkpt><trkpt lat="45.80781336251303" lon="9.076585065608354"><ele>205.75</ele><time>2026-04-26T11:13:33Z</time></trkpt><trkpt lat="45.8077360083123" lon="9.076651668880649"><ele>205.5</ele><time>2026-04-26T11:13:34Z</time></trkpt><trkpt lat="45.80765225131979" lon="9.076740371394962"><ele>205.25</ele><time>2026-04-26T11:13:35Z</time></trkpt><trkpt lat="45.80757847505195" lon="9.0768418821695"><ele>205.0</ele><time>2026-04-26T11:13:36Z</time></trkpt><trkpt lat="45.80745153233223" lon="9.076984102496635"><ele>206.0</ele><time>2026-04-26T11:13:37Z</time></trkpt><trkpt lat="45.8073152069853" lon="9.077121977673992"><ele>207.0</ele><time>2026-04-26T11:13:38Z</time></trkpt><trkpt lat="45.80716055422145" lon="9.077250284611678"><ele>208.0</ele><time>2026-04-26T11:13:39Z</time></trkpt><trkpt lat="45.80698617151776" lon="9.077387686483846"><ele>207.66666666666666</ele><time>2026-04-26T11:13:40Z</time></trkpt><trkpt lat="45.80682136455637" lon="9.077549547082388"><ele>207.33333333333331</ele><time>2026-04-26T11:13:41Z</time></trkpt><trkpt lat="45.806647280787885" lon="9.077709082985537"><ele>207.0</ele><time>2026-04-26T11:13:42Z</time></trkpt><trkpt lat="45.806466381605055" lon="9.077879069948949"><ele>207.0</ele><time>2026-04-26T11:13:43Z</time></trkpt><trkpt lat="45.806286625213154" lon="9.078052724152712"><ele>207.0</ele><time>2026-04-26T11:13:44Z</time></trkpt><trkpt lat="45.80613064563723" lon="9.07825122287812"><ele>207.0</ele><time>2026-04-26T11:13:45.001Z</time></trkpt><trkpt lat="45.806000176799785" lon="9.078477580553413"><ele>207.33333333333331</ele><time>2026-04-26T11:13:46.001Z</time></trkpt><trkpt lat="45.80587657904638" lon="9.078697007623266"><ele>207.66666666666666</ele><time>2026-04-26T11:13:47.001Z</time></trkpt><trkpt lat="45.805751816416894" lon="9.07890742835628"><ele>208.0</ele><time>2026-04-26T11:13:48.001Z</time></trkpt><trkpt lat="45.80561956868396" lon="9.079117025700675"><ele>208.33333333333331</ele><time>2026-04-26T11:13:49.001Z</time></trkpt><trkpt lat="45.80548721427624" lon="9.079350765062609"><ele>208.66666666666669</ele><time>2026-04-26T11:13:50.001Z</time></trkpt><trkpt lat="45.805338105525244" lon="9.079607561793905"><ele>209.0</ele><time>2026-04-26T11:13:51.001Z</time></trkpt><trkpt lat="45.80517901368388" lon="9.079867204496482"><ele>209.0</ele><time>2026-04-26T11:13:52.001Z</time></trkpt><trkpt lat="45.805032489231394" lon="9.080108166195878"><ele>209.0</ele><time>2026-04-26T11:13:53.001Z</time></trkpt><trkpt lat="45.8048855719499" lon="9.080335970881173"><ele>209.0</ele><time>2026-04-26T11:13:54.001Z</time></trkpt><trkpt lat="45.80476311261062" lon="9.080532302497462"><ele>209.0</ele><time>2026-04-26T11:13:55.001Z</time></trkpt><trkpt lat="45.80463818413744" lon="9.08071953080652"><ele>209.0</ele><time>2026-04-26T11:13:56.001Z</time></trkpt><trkpt lat="45.804525336429236" lon="9.080909860645392"><ele>209.0</ele><time>2026-04-26T11:13:57.001Z</time></trkpt><trkpt lat="45.80442060687232" lon="9.081106013632592"><ele>210.0</ele><time>2026-04-26T11:13:58.001Z</time></trkpt><trkpt lat="45.80431982276665" lon="9.081294198955197"><ele>211.0</ele><time>2026-04-26T11:13:59.001Z</time></trkpt><trkpt lat="45.80422767720243" lon="9.081473527745187"><ele>212.0</ele><time>2026-04-26T11:14:00.001Z</time></trkpt><trkpt lat="45.80413000431905" lon="9.081651937684596"><ele>212.0</ele><time>2026-04-26T11:14:01.001Z</time></trkpt><trkpt lat="45.804041607609456" lon="9.081821952199228"><ele>212.0</ele><time>2026-04-26T11:14:02.001Z</time></trkpt><trkpt lat="45.80394468625083" lon="9.081938371019925"><ele>212.0</ele><time>2026-04-26T11:14:03.001Z</time></trkpt><trkpt lat="45.80387651421428" lon="9.08206845963645"><ele>212.0</ele><time>2026-04-26T11:14:04.001Z</time></trkpt><trkpt lat="45.80380500814614" lon="9.08217654915097"><ele>212.0</ele><time>2026-04-26T11:14:05.001Z</time></trkpt><trkpt lat="45.80374933691218" lon="9.082273005050151"><ele>212.0</ele><time>2026-04-26T11:14:06.001Z</time></trkpt><trkpt lat="45.8036747339028" lon="9.08234912515776"><ele>212.0</ele><time>2026-04-26T11:14:07.001Z</time></trkpt><trkpt lat="45.803615868939396" lon="9.082430752468786"><ele>212.0</ele><time>2026-04-26T11:14:08.001Z</time></trkpt><trkpt lat="45.80354836851584" lon="9.082524806776926"><ele>212.0</ele><time>2026-04-26T11:14:09.001Z</time></trkpt><trkpt lat="45.8034727509131" lon="9.08263084399093"><ele>212.0</ele><time>2026-04-26T11:14:10.001Z</time></trkpt><trkpt lat="45.80340519426269" lon="9.082772225753466"><ele>212.0</ele><time>2026-04-26T11:14:11.001Z</time></trkpt><trkpt lat="45.80330970345663" lon="9.082895659171697"><ele>212.0</ele><time>2026-04-26T11:14:12.001Z</time></trkpt><trkpt lat="45.80322468248741" lon="9.083027579678413"><ele>212.0</ele><time>2026-04-26T11:14:13.001Z</time></trkpt><trkpt lat="45.80316404955653" lon="9.083167293362179"><ele>212.0</ele><time>2026-04-26T11:14:14.001Z</time></trkpt><trkpt lat="45.80305201660003" lon="9.083226766434501"><ele>212.0</ele><time>2026-04-26T11:14:15.001Z</time></trkpt><trkpt lat="45.802948945824504" lon="9.083372792432229"><ele>212.0</ele><time>2026-04-26T11:14:16.001Z</time></trkpt><trkpt lat="45.80286075596411" lon="9.083534557723675"><ele>212.0</ele><time>2026-04-26T11:14:17.001Z</time></trkpt><trkpt lat="45.80275312142989" lon="9.083670451657273"><ele>212.0</ele><time>2026-04-26T11:14:18.001Z</time></trkpt><trkpt lat="45.80264922183542" lon="9.083795687102166"><ele>212.0</ele><time>2026-04-26T11:14:19.001Z</time></trkpt><trkpt lat="45.80254990642743" lon="9.083878576075081"><ele>212.0</ele><time>2026-04-26T11:14:20.001Z</time></trkpt><trkpt lat="45.80243982137765" lon="9.084014266081429"><ele>212.0</ele><time>2026-04-26T11:14:21.001Z</time></trkpt><trkpt lat="45.80235947725567" lon="9.084150355839007"><ele>212.39999999999998</ele><time>2026-04-26T11:14:22.001Z</time></trkpt><trkpt lat="45.8022787159024" lon="9.084248855937968"><ele>212.79999999999998</ele><time>2026-04-26T11:14:23.001Z</time></trkpt><trkpt lat="45.80221538048278" lon="9.084351382845735"><ele>213.2</ele><time>2026-04-26T11:14:24.001Z</time></trkpt><trkpt lat="45.80213927274829" lon="9.084425528728271"><ele>213.6</ele><time>2026-04-26T11:14:26.001Z</time></trkpt><trkpt lat="45.802080123747665" lon="9.084503783033416"><ele>214.0</ele><time>2026-04-26T11:15:07Z</time></trkpt><trkpt lat="45.80209171910024" lon="9.084700451051374"><ele>214.0</ele><time>2026-04-26T11:15:09Z</time></trkpt><trkpt lat="45.802102953770344" lon="9.084874551376227"><ele>214.0</ele><time>2026-04-26T11:15:10Z</time></trkpt><trkpt lat="45.80211349254615" lon="9.085056216709868"><ele>214.0</ele><time>2026-04-26T11:15:11Z</time></trkpt><trkpt lat="45.8021156353761" lon="9.085256414626564"><ele>214.0</ele><time>2026-04-26T11:15:12Z</time></trkpt><trkpt lat="45.8021365244321" lon="9.085440615212782"><ele>214.5</ele><time>2026-04-26T11:15:13Z</time></trkpt><trkpt lat="45.80213999778606" lon="9.085628387185865"><ele>215.0</ele><time>2026-04-26T11:15:14Z</time></trkpt><trkpt lat="45.80214803465843" lon="9.085824274841318"><ele>215.5</ele><time>2026-04-26T11:15:15Z</time></trkpt><trkpt lat="45.80215422956141" lon="9.086038102173779"><ele>216.0</ele><time>2026-04-26T11:15:16Z</time></trkpt><trkpt lat="45.80214718612518" lon="9.086243612892076"><ele>216.0</ele><time>2026-04-26T11:15:17Z</time></trkpt><trkpt lat="45.80216688579343" lon="9.08643957966009"><ele>216.0</ele><time>2026-04-26T11:15:18Z</time></trkpt><trkpt lat="45.80218068261633" lon="9.08663059041899"><ele>216.0</ele><time>2026-04-26T11:15:19Z</time></trkpt><trkpt lat="45.80218214232518" lon="9.08680634491584"><ele>216.0</ele><time>2026-04-26T11:15:20Z</time></trkpt><trkpt lat="45.80214578084249" lon="9.086966997439736"><ele>216.0</ele><time>2026-04-26T11:15:21Z</time></trkpt><trkpt lat="45.80208256530779" lon="9.087093018660473"><ele>216.0</ele><time>2026-04-26T11:15:22Z</time></trkpt><trkpt lat="45.802006658700336" lon="9.087246295494687"><ele>216.0</ele><time>2026-04-26T11:15:23Z</time></trkpt><trkpt lat="45.80193242737945" lon="9.087416007591985"><ele>216.0</ele><time>2026-04-26T11:15:24Z</time></trkpt><trkpt lat="45.80184352913135" lon="9.087595598144588"><ele>217.25</ele><time>2026-04-26T11:15:25Z</time></trkpt><trkpt lat="45.801750169309855" lon="9.087774755341995"><ele>218.5</ele><time>2026-04-26T11:15:26Z</time></trkpt><trkpt lat="45.801669213561105" lon="9.087951531406706"><ele>219.75</ele><time>2026-04-26T11:15:27Z</time></trkpt><trkpt lat="45.80158876546664" lon="9.088095010193491"><ele>221.0</ele><time>2026-04-26T11:15:28Z</time></trkpt><trkpt lat="45.8015151646022" lon="9.088232019522462"><ele>220.75</ele><time>2026-04-26T11:15:29Z</time></trkpt><trkpt lat="45.80143946022566" lon="9.08837233200231"><ele>220.5</ele><time>2026-04-26T11:15:30Z</time></trkpt><trkpt lat="45.80136146315107" lon="9.088519877080884"><ele>220.25</ele><time>2026-04-26T11:15:31Z</time></trkpt><trkpt lat="45.801290190881794" lon="9.088654533818406"><ele>220.0</ele><time>2026-04-26T11:15:32Z</time></trkpt><trkpt lat="45.80122541691774" lon="9.088801511653921"><ele>220.0</ele><time>2026-04-26T11:15:33Z</time></trkpt><trkpt lat="45.8011734343515" lon="9.088934210429018"><ele>220.0</ele><time>2026-04-26T11:15:34Z</time></trkpt><trkpt lat="45.80114031327565" lon="9.089100735394737"><ele>220.0</ele><time>2026-04-26T11:15:35Z</time></trkpt><trkpt lat="45.801149811019656" lon="9.089251482015833"><ele>220.0</ele><time>2026-04-26T11:15:36Z</time></trkpt><trkpt lat="45.80116335011988" lon="9.089408130153787"><ele>220.0</ele><time>2026-04-26T11:15:37Z</time></trkpt><trkpt lat="45.80119243616035" lon="9.089534706127214"><ele>219.83333333333331</ele><time>2026-04-26T11:15:38Z</time></trkpt><trkpt lat="45.801214086510306" lon="9.08965375916953"><ele>219.66666666666666</ele><time>2026-04-26T11:15:39Z</time></trkpt><trkpt lat="45.80125728134496" lon="9.089734162233366"><ele>219.5</ele><time>2026-04-26T11:15:40Z</time></trkpt><trkpt lat="45.80130532924469" lon="9.089880453562024"><ele>219.33333333333331</ele><time>2026-04-26T11:15:42Z</time></trkpt><trkpt lat="45.80133309792145" lon="9.089965000331366"><ele>219.16666666666666</ele><time>2026-04-26T11:15:44Z</time></trkpt><trkpt lat="45.80136446927355" lon="9.090064704438376"><ele>219.0</ele><time>2026-04-26T11:15:47.001Z</time></trkpt><trkpt lat="45.80137651946895" lon="9.090157230923085"><ele>219.0</ele><time>2026-04-26T11:15:54.001Z</time></trkpt><trkpt lat="45.80142985651688" lon="9.090214150199206"><ele>218.99999999999997</ele><time>2026-04-26T11:18:27.001Z</time></trkpt><trkpt lat="45.801461262588724" lon="9.09032123406419"><ele>218.99999999999997</ele><time>2026-04-26T11:18:30.001Z</time></trkpt><trkpt lat="45.801492226858144" lon="9.090426052152985"><ele>219.0</ele><time>2026-04-26T11:18:33.001Z</time></trkpt><trkpt lat="45.80156749387972" lon="9.09066494080178"><ele>219.0</ele><time>2026-04-26T11:18:35.001Z</time></trkpt><trkpt lat="45.80160133654375" lon="9.09075419979001"><ele>218.83333333333334</ele><time>2026-04-26T11:18:36.001Z</time></trkpt><trkpt lat="45.801642591503665" lon="9.090853369512395"><ele>218.66666666666669</ele><time>2026-04-26T11:18:37.001Z</time></trkpt><trkpt lat="45.80168390166109" lon="9.090951120346846"><ele>218.5</ele><time>2026-04-26T11:18:38.001Z</time></trkpt><trkpt lat="45.80172830462534" lon="9.091056189629318"><ele>218.33333333333334</ele><time>2026-04-26T11:18:39.001Z</time></trkpt><trkpt lat="45.80177634073387" lon="9.091169855824752"><ele>218.16666666666669</ele><time>2026-04-26T11:18:40.001Z</time></trkpt><trkpt lat="45.801827559103785" lon="9.091291052141221"><ele>218.0</ele><time>2026-04-26T11:18:41Z</time></trkpt><trkpt lat="45.80187810649289" lon="9.091385938110989"><ele>218.0</ele><time>2026-04-26T11:18:42Z</time></trkpt><trkpt lat="45.80193511051415" lon="9.091537259193375"><ele>218.0</ele><time>2026-04-26T11:18:43Z</time></trkpt><trkpt lat="45.80199952230327" lon="9.091697054093522"><ele>218.0</ele><time>2026-04-26T11:18:44Z</time></trkpt><trkpt lat="45.802080474291586" lon="9.091865309484458"><ele>218.0</ele><time>2026-04-26T11:18:45Z</time></trkpt><trkpt lat="45.80214652911971" lon="9.092040323460354"><ele>217.75</ele><time>2026-04-26T11:18:46Z</time></trkpt><trkpt lat="45.80222384206772" lon="9.09221920124962"><ele>217.5</ele><time>2026-04-26T11:18:47Z</time></trkpt><trkpt lat="45.802298620254376" lon="9.092408746523"><ele>217.25</ele><time>2026-04-26T11:18:48Z</time></trkpt><trkpt lat="45.80237370780394" lon="9.092595821537977"><ele>217.0</ele><time>2026-04-26T11:18:49Z</time></trkpt><trkpt lat="45.802450581786644" lon="9.09278139082783"><ele>217.0</ele><time>2026-04-26T11:18:50Z</time></trkpt><trkpt lat="45.80252335481913" lon="9.09296841587262"><ele>217.0</ele><time>2026-04-26T11:18:51Z</time></trkpt><trkpt lat="45.80260011674292" lon="9.093165214846769"><ele>217.0</ele><time>2026-04-26T11:18:52Z</time></trkpt><trkpt lat="45.802699545236614" lon="9.093352445079796"><ele>221.66666666666666</ele><time>2026-04-26T11:18:53Z</time></trkpt><trkpt lat="45.802792780696755" lon="9.093543874738517"><ele>226.33333333333331</ele><time>2026-04-26T11:18:54Z</time></trkpt><trkpt lat="45.80288907741258" lon="9.093746946147968"><ele>231.0</ele><time>2026-04-26T11:18:55Z</time></trkpt><trkpt lat="45.80299372945426" lon="9.093951999698046"><ele>231.66666666666669</ele><time>2026-04-26T11:18:56Z</time></trkpt><trkpt lat="45.80309788878507" lon="9.094153687803956"><ele>232.33333333333334</ele><time>2026-04-26T11:18:57Z</time></trkpt><trkpt lat="45.8032017638727" lon="9.094347682014611"><ele>233.0</ele><time>2026-04-26T11:18:58Z</time></trkpt><trkpt lat="45.8032998160186" lon="9.094529999662441"><ele>233.0</ele><time>2026-04-26T11:18:59Z</time></trkpt><trkpt lat="45.80339459221936" lon="9.094698107897708"><ele>233.0</ele><time>2026-04-26T11:19:00Z</time></trkpt><trkpt lat="45.80346124157828" lon="9.094815836653703"><ele>233.0</ele><time>2026-04-26T11:19:01Z</time></trkpt><trkpt lat="45.80353948811249" lon="9.094969383987165"><ele>233.0</ele><time>2026-04-26T11:19:02Z</time></trkpt><trkpt lat="45.803630202744486" lon="9.095140075692772"><ele>230.0</ele><time>2026-04-26T11:19:03Z</time></trkpt><trkpt lat="45.80369349164198" lon="9.095338918455038"><ele>227.0</ele><time>2026-04-26T11:19:04Z</time></trkpt><trkpt lat="45.80378525217876" lon="9.095540459332002"><ele>224.0</ele><time>2026-04-26T11:19:05Z</time></trkpt><trkpt lat="45.803883500425194" lon="9.095768300253873"><ele>223.0</ele><time>2026-04-26T11:19:06Z</time></trkpt><trkpt lat="45.80398662991406" lon="9.096019297409482"><ele>222.0</ele><time>2026-04-26T11:19:07Z</time></trkpt><trkpt lat="45.80408828845077" lon="9.096264651452536"><ele>221.0</ele><time>2026-04-26T11:19:08Z</time></trkpt><trkpt lat="45.80416613709534" lon="9.096495238385895"><ele>222.0</ele><time>2026-04-26T11:19:09Z</time></trkpt><trkpt lat="45.804256730890685" lon="9.096713849775348"><ele>223.0</ele><time>2026-04-26T11:19:10Z</time></trkpt><trkpt lat="45.80434821605549" lon="9.09690713599687"><ele>224.0</ele><time>2026-04-26T11:19:11Z</time></trkpt><trkpt lat="45.80443597730913" lon="9.097109072592987"><ele>224.33333333333334</ele><time>2026-04-26T11:19:12Z</time></trkpt><trkpt lat="45.80450183842618" lon="9.097331417162257"><ele>224.66666666666669</ele><time>2026-04-26T11:19:13Z</time></trkpt><trkpt lat="45.804560675647146" lon="9.09756323572492"><ele>225.0</ele><time>2026-04-26T11:19:14Z</time></trkpt><trkpt lat="45.80462039625807" lon="9.097794763560412"><ele>225.5</ele><time>2026-04-26T11:19:15Z</time></trkpt><trkpt lat="45.80464466244133" lon="9.098008637980612"><ele>226.0</ele><time>2026-04-26T11:19:16Z</time></trkpt><trkpt lat="45.804678467964656" lon="9.09820018248604"><ele>226.5</ele><time>2026-04-26T11:19:17Z</time></trkpt><trkpt lat="45.80470652996693" lon="9.098372048307699"><ele>227.0</ele><time>2026-04-26T11:19:18Z</time></trkpt><trkpt lat="45.8047285177552" lon="9.098476093711977"><ele>227.5</ele><time>2026-04-26T11:19:19Z</time></trkpt><trkpt lat="45.804751249055485" lon="9.098565603993352"><ele>228.0</ele><time>2026-04-26T11:19:20Z</time></trkpt><trkpt lat="45.80478447662397" lon="9.098708208598255"><ele>228.5</ele><time>2026-04-26T11:19:22Z</time></trkpt><trkpt lat="45.80480174860035" lon="9.09886666606852"><ele>229.0</ele><time>2026-04-26T11:19:44Z</time></trkpt><trkpt lat="45.80462045376606" lon="9.09893609163621"><ele>229.0</ele><time>2026-04-26T11:19:45Z</time></trkpt><trkpt lat="45.80452556321899" lon="9.098989734727285"><ele>229.0</ele><time>2026-04-26T11:19:46Z</time></trkpt><trkpt lat="45.80440638122926" lon="9.099068113142522"><ele>229.0</ele><time>2026-04-26T11:19:47Z</time></trkpt><trkpt lat="45.80429131472358" lon="9.099148187918185"><ele>229.0</ele><time>2026-04-26T11:19:48Z</time></trkpt><trkpt lat="45.80413519468121" lon="9.099238859562718"><ele>231.5</ele><time>2026-04-26T11:19:49Z</time></trkpt><trkpt lat="45.804002217929124" lon="9.099324371374145"><ele>234.0</ele><time>2026-04-26T11:19:50Z</time></trkpt><trkpt lat="45.803902567280446" lon="9.09941936139652"><ele>236.5</ele><time>2026-04-26T11:19:51Z</time></trkpt><trkpt lat="45.80384290698668" lon="9.099582166368247"><ele>239.0</ele><time>2026-04-26T11:19:52Z</time></trkpt><trkpt lat="45.803812019717306" lon="9.099761044201392"><ele>238.75</ele><time>2026-04-26T11:19:53Z</time></trkpt><trkpt lat="45.80381183963383" lon="9.09996137058186"><ele>238.5</ele><time>2026-04-26T11:19:54Z</time></trkpt><trkpt lat="45.80387215977229" lon="9.100102180043656"><ele>238.25</ele><time>2026-04-26T11:19:55Z</time></trkpt><trkpt lat="45.80395741803678" lon="9.100266971917362"><ele>238.0</ele><time>2026-04-26T11:19:56Z</time></trkpt><trkpt lat="45.80406868134096" lon="9.100470799932712"><ele>238.0</ele><time>2026-04-26T11:19:57.001Z</time></trkpt><trkpt lat="45.80420667882057" lon="9.100712087643194"><ele>238.0</ele><time>2026-04-26T11:19:58.001Z</time></trkpt><trkpt lat="45.80432466969186" lon="9.10091568770914"><ele>238.0</ele><time>2026-04-26T11:19:59.001Z</time></trkpt><trkpt lat="45.80439859569823" lon="9.101087614805873"><ele>238.60000000000002</ele><time>2026-04-26T11:20:00.001Z</time></trkpt><trkpt lat="45.80443133691577" lon="9.101240624487025"><ele>239.20000000000002</ele><time>2026-04-26T11:20:01.001Z</time></trkpt><trkpt lat="45.80439112787095" lon="9.101385716864035"><ele>239.8</ele><time>2026-04-26T11:20:02.001Z</time></trkpt><trkpt lat="45.80433206929013" lon="9.101479926281932"><ele>240.4</ele><time>2026-04-26T11:20:03.001Z</time></trkpt><trkpt lat="45.80423740526704" lon="9.101577735325394"><ele>241.0</ele><time>2026-04-26T11:20:04.001Z</time></trkpt><trkpt lat="45.80412041183728" lon="9.101722793178366"><ele>245.33333333333331</ele><time>2026-04-26T11:20:05.001Z</time></trkpt><trkpt lat="45.80397834357498" lon="9.101916001519713"><ele>249.66666666666669</ele><time>2026-04-26T11:20:06.001Z</time></trkpt><trkpt lat="45.80380437499625" lon="9.102115787988986"><ele>254.0</ele><time>2026-04-26T11:20:07.001Z</time></trkpt><trkpt lat="45.80361841415987" lon="9.102338343654907"><ele>257.0</ele><time>2026-04-26T11:20:08.001Z</time></trkpt><trkpt lat="45.8034291530291" lon="9.102577190534268"><ele>260.0</ele><time>2026-04-26T11:20:09.001Z</time></trkpt><trkpt lat="45.803240148537235" lon="9.10275881254438"><ele>260.0</ele><time>2026-04-26T11:20:10.001Z</time></trkpt><trkpt lat="45.80305611953613" lon="9.102890801706753"><ele>260.0</ele><time>2026-04-26T11:20:11.001Z</time></trkpt><trkpt lat="45.80287501569637" lon="9.10300972117125"><ele>260.0</ele><time>2026-04-26T11:20:12.001Z</time></trkpt><trkpt lat="45.80269306896845" lon="9.103076869114185"><ele>258.6666666666667</ele><time>2026-04-26T11:20:13.001Z</time></trkpt><trkpt lat="45.802500477161345" lon="9.10309641501837"><ele>257.3333333333333</ele><time>2026-04-26T11:20:14.001Z</time></trkpt><trkpt lat="45.8023000742786" lon="9.103147875769427"><ele>256.0</ele><time>2026-04-26T11:20:15.001Z</time></trkpt><trkpt lat="45.802087686017586" lon="9.103172308350944"><ele>256.0</ele><time>2026-04-26T11:20:16.001Z</time></trkpt><trkpt lat="45.80187923837248" lon="9.103203080332708"><ele>256.0</ele><time>2026-04-26T11:20:17.001Z</time></trkpt><trkpt lat="45.801696379517075" lon="9.103231848770168"><ele>256.0</ele><time>2026-04-26T11:20:18.001Z</time></trkpt><trkpt lat="45.80154566154225" lon="9.103251627208282"><ele>259.0</ele><time>2026-04-26T11:20:19.001Z</time></trkpt><trkpt lat="45.80141999285238" lon="9.103275396533306"><ele>262.0</ele><time>2026-04-26T11:20:20.001Z</time></trkpt><trkpt lat="45.801326732006785" lon="9.103336985340611"><ele>265.0</ele><time>2026-04-26T11:20:21.001Z</time></trkpt><trkpt lat="45.801283592654606" lon="9.103466068290784"><ele>268.0</ele><time>2026-04-26T11:20:22.001Z</time></trkpt><trkpt lat="45.80128958245468" lon="9.103611616895614"><ele>271.0</ele><time>2026-04-26T11:20:23.001Z</time></trkpt><trkpt lat="45.80133252062164" lon="9.103745970566415"><ele>271.0</ele><time>2026-04-26T11:20:24.001Z</time></trkpt><trkpt lat="45.80144178130356" lon="9.10382324643024"><ele>271.0</ele><time>2026-04-26T11:20:25.001Z</time></trkpt><trkpt lat="45.80155913533067" lon="9.103817553571192"><ele>271.0</ele><time>2026-04-26T11:20:26.001Z</time></trkpt><trkpt lat="45.801693997823264" lon="9.103810158611486"><ele>271.0</ele><time>2026-04-26T11:20:27.001Z</time></trkpt><trkpt lat="45.801842497211744" lon="9.103758808922649"><ele>272.0</ele><time>2026-04-26T11:20:28.001Z</time></trkpt><trkpt lat="45.80201129683466" lon="9.103727444506282"><ele>273.0</ele><time>2026-04-26T11:20:29.001Z</time></trkpt><trkpt lat="45.80221224769294" lon="9.10371477046641"><ele>274.0</ele><time>2026-04-26T11:20:30.001Z</time></trkpt><trkpt lat="45.80238841800417" lon="9.103691153713587"><ele>274.0</ele><time>2026-04-26T11:20:31.001Z</time></trkpt><trkpt lat="45.80254784492289" lon="9.103675241897204"><ele>274.0</ele><time>2026-04-26T11:20:32.001Z</time></trkpt><trkpt lat="45.802666922630564" lon="9.10366363071576"><ele>274.0</ele><time>2026-04-26T11:20:33.001Z</time></trkpt><trkpt lat="45.802775185586825" lon="9.10368839386135"><ele>274.0</ele><time>2026-04-26T11:20:34.001Z</time></trkpt><trkpt lat="45.802864603416054" lon="9.103751619989739"><ele>274.8</ele><time>2026-04-26T11:20:35.001Z</time></trkpt><trkpt lat="45.80291976077889" lon="9.103861091750458"><ele>275.59999999999997</ele><time>2026-04-26T11:20:36.001Z</time></trkpt><trkpt lat="45.802951606842655" lon="9.103999204279887"><ele>276.4</ele><time>2026-04-26T11:20:37.001Z</time></trkpt><trkpt lat="45.80292019444907" lon="9.104153298476543"><ele>277.2</ele><time>2026-04-26T11:20:38.001Z</time></trkpt><trkpt lat="45.802889645570964" lon="9.104304429481198"><ele>278.0</ele><time>2026-04-26T11:20:39.001Z</time></trkpt><trkpt lat="45.802779086646005" lon="9.104380771306008"><ele>280.75</ele><time>2026-04-26T11:20:40.001Z</time></trkpt><trkpt lat="45.80268054369125" lon="9.104433404836218"><ele>283.5</ele><time>2026-04-26T11:20:41.001Z</time></trkpt><trkpt lat="45.80254742296768" lon="9.104509389151703"><ele>286.25</ele><time>2026-04-26T11:20:42.001Z</time></trkpt><trkpt lat="45.802434060458296" lon="9.10459279178484"><ele>289.0</ele><time>2026-04-26T11:20:43.001Z</time></trkpt><trkpt lat="45.80233322797073" lon="9.104630055370972"><ele>289.59999999999997</ele><time>2026-04-26T11:20:44.001Z</time></trkpt><trkpt lat="45.80223151771465" lon="9.10468172355192"><ele>290.2</ele><time>2026-04-26T11:20:45.001Z</time></trkpt><trkpt lat="45.80214184417071" lon="9.104729165940615"><ele>290.79999999999995</ele><time>2026-04-26T11:20:46.001Z</time></trkpt><trkpt lat="45.80205297949045" lon="9.104773742244461"><ele>291.4</ele><time>2026-04-26T11:20:46.999Z</time></trkpt><trkpt lat="45.80196699244179" lon="9.104810668341827"><ele>292.0</ele><time>2026-04-26T11:20:47.999Z</time></trkpt><trkpt lat="45.80188103408801" lon="9.104842493761428"><ele>292.2</ele><time>2026-04-26T11:20:48.999Z</time></trkpt><trkpt lat="45.80180752453213" lon="9.10486820507447"><ele>292.4</ele><time>2026-04-26T11:20:49.999Z</time></trkpt><trkpt lat="45.80173219076632" lon="9.104885256251062"><ele>292.6</ele><time>2026-04-26T11:20:50.999Z</time></trkpt><trkpt lat="45.801631731260926" lon="9.104899946181261"><ele>292.8</ele><time>2026-04-26T11:20:52Z</time></trkpt><trkpt lat="45.801518963403176" lon="9.104915513052312"><ele>293.0</ele><time>2026-04-26T11:20:53Z</time></trkpt><trkpt lat="45.8014026107686" lon="9.104957934930239"><ele>293.0</ele><time>2026-04-26T11:20:54Z</time></trkpt><trkpt lat="45.80128037440091" lon="9.10500338002545"><ele>293.0</ele><time>2026-04-26T11:20:55Z</time></trkpt><trkpt lat="45.80115699543915" lon="9.105041451886676"><ele>293.0</ele><time>2026-04-26T11:20:56Z</time></trkpt><trkpt lat="45.80100766848008" lon="9.105143835994904"><ele>293.0</ele><time>2026-04-26T11:20:57Z</time></trkpt><trkpt lat="45.8008660107018" lon="9.105291445843216"><ele>295.5</ele><time>2026-04-26T11:20:58Z</time></trkpt><trkpt lat="45.8007282869778" lon="9.105396537856711"><ele>298.0</ele><time>2026-04-26T11:20:59Z</time></trkpt><trkpt lat="45.80061357172066" lon="9.10549309725913"><ele>300.5</ele><time>2026-04-26T11:21:00Z</time></trkpt><trkpt lat="45.800519462560295" lon="9.105550449797336"><ele>303.0</ele><time>2026-04-26T11:21:01Z</time></trkpt><trkpt lat="45.800428420215795" lon="9.10561830321559"><ele>303.0</ele><time>2026-04-26T11:21:02Z</time></trkpt><trkpt lat="45.8003285261238" lon="9.105684529377216"><ele>303.0</ele><time>2026-04-26T11:21:03Z</time></trkpt><trkpt lat="45.80022446819366" lon="9.105748676051153"><ele>303.0</ele><time>2026-04-26T11:21:04Z</time></trkpt><trkpt lat="45.800113960694404" lon="9.105816561137987"><ele>303.0</ele><time>2026-04-26T11:21:05Z</time></trkpt><trkpt lat="45.79998865856743" lon="9.105895947795423"><ele>305.0</ele><time>2026-04-26T11:21:06Z</time></trkpt><trkpt lat="45.799852856459076" lon="9.105982597294933"><ele>307.0</ele><time>2026-04-26T11:21:07Z</time></trkpt><trkpt lat="45.79973549905746" lon="9.106058726339768"><ele>309.0</ele><time>2026-04-26T11:21:08Z</time></trkpt><trkpt lat="45.799649815293236" lon="9.106136946003211"><ele>311.0</ele><time>2026-04-26T11:21:09Z</time></trkpt><trkpt lat="45.7995665687918" lon="9.10618275900692"><ele>311.0</ele><time>2026-04-26T11:21:11Z</time></trkpt><trkpt lat="45.79950550784136" lon="9.106235614533674"><ele>311.0</ele><time>2026-04-26T11:21:14Z</time></trkpt><trkpt lat="45.79942276363249" lon="9.106308929249655"><ele>311.0</ele><time>2026-04-26T11:21:15Z</time></trkpt><trkpt lat="45.79932962413125" lon="9.10641395344854"><ele>311.0</ele><time>2026-04-26T11:21:16Z</time></trkpt><trkpt lat="45.79924406381575" lon="9.106578368959644"><ele>311.0</ele><time>2026-04-26T11:21:17Z</time></trkpt><trkpt lat="45.799192751493415" lon="9.10676096407839"><ele>313.33333333333337</ele><time>2026-04-26T11:21:18Z</time></trkpt><trkpt lat="45.79916157249623" lon="9.106950813313906"><ele>315.6666666666667</ele><time>2026-04-26T11:21:19Z</time></trkpt><trkpt lat="45.79915694880295" lon="9.107166119147083"><ele>318.0</ele><time>2026-04-26T11:21:20Z</time></trkpt><trkpt lat="45.79916221771128" lon="9.107423030131626"><ele>319.6666666666667</ele><time>2026-04-26T11:21:21Z</time></trkpt><trkpt lat="45.79917579065994" lon="9.107708303324433"><ele>321.33333333333337</ele><time>2026-04-26T11:21:22Z</time></trkpt><trkpt lat="45.79919076926736" lon="9.107997279503865"><ele>323.0</ele><time>2026-04-26T11:21:23Z</time></trkpt><trkpt lat="45.799191957033955" lon="9.10829984587002"><ele>324.33333333333337</ele><time>2026-04-26T11:21:24Z</time></trkpt><trkpt lat="45.799189594849054" lon="9.108615002893249"><ele>325.6666666666667</ele><time>2026-04-26T11:21:25Z</time></trkpt><trkpt lat="45.799183634894355" lon="9.10891980563951"><ele>327.0</ele><time>2026-04-26T11:21:26Z</time></trkpt><trkpt lat="45.799180329521256" lon="9.10922275756116"><ele>327.6666666666667</ele><time>2026-04-26T11:21:27Z</time></trkpt><trkpt lat="45.79917688693247" lon="9.10951690216717"><ele>328.33333333333337</ele><time>2026-04-26T11:21:28Z</time></trkpt><trkpt lat="45.79916445462992" lon="9.109795569769014"><ele>329.0</ele><time>2026-04-26T11:21:29Z</time></trkpt><trkpt lat="45.79916050858473" lon="9.110074734895388"><ele>329.6666666666667</ele><time>2026-04-26T11:21:30Z</time></trkpt><trkpt lat="45.79914822861542" lon="9.110337209287108"><ele>330.3333333333333</ele><time>2026-04-26T11:21:31Z</time></trkpt><trkpt lat="45.79912049762878" lon="9.110588920693274"><ele>331.0</ele><time>2026-04-26T11:21:32Z</time></trkpt><trkpt lat="45.799071019056136" lon="9.110826541050432"><ele>332.0</ele><time>2026-04-26T11:21:33Z</time></trkpt><trkpt lat="45.79898744518361" lon="9.111060033112622"><ele>333.0</ele><time>2026-04-26T11:21:34Z</time></trkpt><trkpt lat="45.79887686356449" lon="9.111309359814562"><ele>334.0</ele><time>2026-04-26T11:21:35Z</time></trkpt><trkpt lat="45.79874423701002" lon="9.111554796332422"><ele>335.5</ele><time>2026-04-26T11:21:36Z</time></trkpt><trkpt lat="45.798616077958684" lon="9.111828374065377"><ele>337.0</ele><time>2026-04-26T11:21:37Z</time></trkpt><trkpt lat="45.79846903758882" lon="9.11208789223767"><ele>337.66666666666663</ele><time>2026-04-26T11:21:38Z</time></trkpt><trkpt lat="45.7983381175591" lon="9.112359957467055"><ele>338.3333333333333</ele><time>2026-04-26T11:21:39Z</time></trkpt><trkpt lat="45.79821457853351" lon="9.11259941691728"><ele>339.0</ele><time>2026-04-26T11:21:40Z</time></trkpt><trkpt lat="45.79811820601972" lon="9.112835082298325"><ele>339.0</ele><time>2026-04-26T11:21:41Z</time></trkpt><trkpt lat="45.798012975834844" lon="9.113066401833526"><ele>339.0</ele><time>2026-04-26T11:21:42Z</time></trkpt><trkpt lat="45.79790381721363" lon="9.11331364246749"><ele>339.0</ele><time>2026-04-26T11:21:43Z</time></trkpt><trkpt lat="45.79779387527678" lon="9.113514027413407"><ele>338.6666666666667</ele><time>2026-04-26T11:21:44Z</time></trkpt><trkpt lat="45.79768485420747" lon="9.113708657277462"><ele>338.33333333333337</ele><time>2026-04-26T11:21:45Z</time></trkpt><trkpt lat="45.79762001045395" lon="9.113888716689791"><ele>338.0</ele><time>2026-04-26T11:21:46Z</time></trkpt><trkpt lat="45.797555805434136" lon="9.114068525609545"><ele>338.25</ele><time>2026-04-26T11:21:47Z</time></trkpt><trkpt lat="45.79749333367588" lon="9.11425178128422"><ele>338.5</ele><time>2026-04-26T11:21:48Z</time></trkpt><trkpt lat="45.79738795067633" lon="9.114389849133014"><ele>338.75</ele><time>2026-04-26T11:21:49Z</time></trkpt><trkpt lat="45.797312148120405" lon="9.114520895861126"><ele>339.0</ele><time>2026-04-26T11:21:50Z</time></trkpt><trkpt lat="45.797254633818945" lon="9.114623050530684"><ele>339.0</ele><time>2026-04-26T11:21:51Z</time></trkpt><trkpt lat="45.79718801596227" lon="9.114775076846387"><ele>339.0</ele><time>2026-04-26T11:21:53Z</time></trkpt><trkpt lat="45.79711789743459" lon="9.114814216845812"><ele>339.0</ele><time>2026-04-26T11:21:54Z</time></trkpt><trkpt lat="45.79703595721001" lon="9.11484406597436"><ele>339.0</ele><time>2026-04-26T11:21:55Z</time></trkpt><trkpt lat="45.79695072671559" lon="9.11492074196028"><ele>339.0</ele><time>2026-04-26T11:21:56Z</time></trkpt><trkpt lat="45.79691769974485" lon="9.115059058980853"><ele>339.0</ele><time>2026-04-26T11:21:57Z</time></trkpt><trkpt lat="45.79691252476928" lon="9.1152357124047"><ele>339.0</ele><time>2026-04-26T11:21:58.001Z</time></trkpt><trkpt lat="45.79689566951461" lon="9.115485037515754"><ele>339.0</ele><time>2026-04-26T11:21:59.001Z</time></trkpt><trkpt lat="45.7969089582142" lon="9.115798168008489"><ele>339.0</ele><time>2026-04-26T11:22:00.001Z</time></trkpt><trkpt lat="45.79690531088963" lon="9.116173288997382"><ele>339.0</ele><time>2026-04-26T11:22:01.001Z</time></trkpt><trkpt lat="45.79689222891453" lon="9.116590004693842"><ele>339.0</ele><time>2026-04-26T11:22:02.001Z</time></trkpt><trkpt lat="45.79690859444998" lon="9.117036631624314"><ele>339.0</ele><time>2026-04-26T11:22:03.001Z</time></trkpt><trkpt lat="45.79693635202316" lon="9.11750995484141"><ele>339.0</ele><time>2026-04-26T11:22:04.001Z</time></trkpt><trkpt lat="45.7969750613586" lon="9.118000157610338"><ele>339.0</ele><time>2026-04-26T11:22:05.001Z</time></trkpt><trkpt lat="45.796997138447814" lon="9.118439470420116"><ele>340.0</ele><time>2026-04-26T11:22:06.001Z</time></trkpt><trkpt lat="45.79700375390477" lon="9.118828806695415"><ele>341.0</ele><time>2026-04-26T11:22:07.001Z</time></trkpt><trkpt lat="45.7970214451419" lon="9.119178364496538"><ele>342.5</ele><time>2026-04-26T11:22:08.001Z</time></trkpt><trkpt lat="45.79703908856896" lon="9.11950404537942"><ele>344.0</ele><time>2026-04-26T11:22:09.001Z</time></trkpt><trkpt lat="45.797057453020294" lon="9.119832386210044"><ele>348.0</ele><time>2026-04-26T11:22:10.001Z</time></trkpt><trkpt lat="45.79707877248254" lon="9.120165527025463"><ele>352.0</ele><time>2026-04-26T11:22:11.001Z</time></trkpt><trkpt lat="45.79709761748143" lon="9.120488958197225"><ele>354.0</ele><time>2026-04-26T11:22:12.001Z</time></trkpt><trkpt lat="45.797105406029814" lon="9.120791268514328"><ele>356.0</ele><time>2026-04-26T11:22:13.001Z</time></trkpt><trkpt lat="45.797109095786176" lon="9.121075825152525"><ele>358.0</ele><time>2026-04-26T11:22:14.001Z</time></trkpt><trkpt lat="45.797115642681774" lon="9.121336925333209"><ele>359.66666666666663</ele><time>2026-04-26T11:22:15.001Z</time></trkpt><trkpt lat="45.7971288900917" lon="9.121588283066453"><ele>361.3333333333333</ele><time>2026-04-26T11:22:16.001Z</time></trkpt><trkpt lat="45.7971187877668" lon="9.121831638459811"><ele>363.0</ele><time>2026-04-26T11:22:17.001Z</time></trkpt><trkpt lat="45.79707469889935" lon="9.122090358070537"><ele>363.0</ele><time>2026-04-26T11:22:18.001Z</time></trkpt><trkpt lat="45.79699664360431" lon="9.122345924016567"><ele>363.0</ele><time>2026-04-26T11:22:19.001Z</time></trkpt><trkpt lat="45.796905728712" lon="9.122588803177042"><ele>363.0</ele><time>2026-04-26T11:22:20.001Z</time></trkpt><trkpt lat="45.79678937242948" lon="9.122833148877334"><ele>364.6666666666667</ele><time>2026-04-26T11:22:21.001Z</time></trkpt><trkpt lat="45.7966528564788" lon="9.123051447969878"><ele>366.33333333333337</ele><time>2026-04-26T11:22:22.001Z</time></trkpt><trkpt lat="45.79653432956679" lon="9.123292081272986"><ele>368.0</ele><time>2026-04-26T11:22:23.001Z</time></trkpt><trkpt lat="45.796444954951575" lon="9.12349587969298"><ele>368.0</ele><time>2026-04-26T11:22:24.001Z</time></trkpt><trkpt lat="45.796367127039204" lon="9.12366687632333"><ele>368.0</ele><time>2026-04-26T11:22:25.001Z</time></trkpt><trkpt lat="45.79628785532323" lon="9.123851404284054"><ele>368.0</ele><time>2026-04-26T11:22:26.001Z</time></trkpt><trkpt lat="45.79621188750791" lon="9.124035046324174"><ele>368.0</ele><time>2026-04-26T11:22:27.001Z</time></trkpt><trkpt lat="45.79611901080606" lon="9.124237260635471"><ele>367.6666666666667</ele><time>2026-04-26T11:22:28.001Z</time></trkpt><trkpt lat="45.796024296481626" lon="9.124429215157335"><ele>367.3333333333333</ele><time>2026-04-26T11:22:29.001Z</time></trkpt><trkpt lat="45.795932599216776" lon="9.12460819658691"><ele>367.0</ele><time>2026-04-26T11:22:30.001Z</time></trkpt><trkpt lat="45.795783137509254" lon="9.124699817123508"><ele>367.0</ele><time>2026-04-26T11:22:31.001Z</time></trkpt><trkpt lat="45.795760683773" lon="9.124923045845604"><ele>367.0</ele><time>2026-04-26T11:22:32.001Z</time></trkpt><trkpt lat="45.79567920460303" lon="9.125027050986837"><ele>367.0</ele><time>2026-04-26T11:22:33.001Z</time></trkpt><trkpt lat="45.7956400584705" lon="9.12512011273902"><ele>367.0</ele><time>2026-04-26T11:22:34.001Z</time></trkpt><trkpt lat="45.79559310204321" lon="9.12519384303764"><ele>367.0</ele><time>2026-04-26T11:22:35.001Z</time></trkpt><trkpt lat="45.7955058399278" lon="9.125306283108499"><ele>367.0</ele><time>2026-04-26T11:22:37.001Z</time></trkpt><trkpt lat="45.79544803510247" lon="9.125360407490033"><ele>367.0</ele><time>2026-04-26T11:22:38.001Z</time></trkpt><trkpt lat="45.79538080879807" lon="9.125417439914166"><ele>367.0</ele><time>2026-04-26T11:22:39.001Z</time></trkpt><trkpt lat="45.7953277597773" lon="9.125513897266181"><ele>367.0</ele><time>2026-04-26T11:22:40.001Z</time></trkpt><trkpt lat="45.79531450481706" lon="9.125661010165425"><ele>367.0</ele><time>2026-04-26T11:22:41.001Z</time></trkpt><trkpt lat="45.795325422370446" lon="9.125850210730412"><ele>366.75</ele><time>2026-04-26T11:22:42.001Z</time></trkpt><trkpt lat="45.79526691287233" lon="9.126049303097467"><ele>366.5</ele><time>2026-04-26T11:22:43.001Z</time></trkpt><trkpt lat="45.79521244481323" lon="9.126158296725148"><ele>366.25</ele><time>2026-04-26T11:22:44.001Z</time></trkpt><trkpt lat="45.7951502174028" lon="9.12631609618644"><ele>366.0</ele><time>2026-04-26T11:22:45.001Z</time></trkpt><trkpt lat="45.79507940194818" lon="9.126444140602313"><ele>366.5</ele><time>2026-04-26T11:22:46.001Z</time></trkpt><trkpt lat="45.79501415860255" lon="9.126554405642345"><ele>367.0</ele><time>2026-04-26T11:22:47.001Z</time></trkpt><trkpt lat="45.79498020151586" lon="9.126662767289126"><ele>367.5</ele><time>2026-04-26T11:22:48.001Z</time></trkpt><trkpt lat="45.79499095347469" lon="9.126774343682625"><ele>368.0</ele><time>2026-04-26T11:22:49.001Z</time></trkpt><trkpt lat="45.79503718814852" lon="9.126898263194901"><ele>368.5</ele><time>2026-04-26T11:22:50.001Z</time></trkpt><trkpt lat="45.79496834982119" lon="9.126951854829457"><ele>369.0</ele><time>2026-04-26T11:22:51.001Z</time></trkpt><trkpt lat="45.79517104174206" lon="9.12716204348318"><ele>369.0</ele><time>2026-04-26T11:22:52.001Z</time></trkpt><trkpt lat="45.79520595877716" lon="9.127374372443315"><ele>369.0</ele><time>2026-04-26T11:22:53Z</time></trkpt><trkpt lat="45.7952270557773" lon="9.12756269504804"><ele>369.0</ele><time>2026-04-26T11:22:54Z</time></trkpt><trkpt lat="45.79526405390037" lon="9.127741740675138"><ele>369.0</ele><time>2026-04-26T11:22:55Z</time></trkpt><trkpt lat="45.79532235050752" lon="9.127924204591446"><ele>371.0</ele><time>2026-04-26T11:22:56Z</time></trkpt><trkpt lat="45.795414248264294" lon="9.128127568506697"><ele>373.0</ele><time>2026-04-26T11:22:57Z</time></trkpt><trkpt lat="45.79550873698584" lon="9.128335035393379"><ele>375.0</ele><time>2026-04-26T11:22:58Z</time></trkpt><trkpt lat="45.79558779450148" lon="9.128525842802963"><ele>378.33333333333337</ele><time>2026-04-26T11:22:59Z</time></trkpt><trkpt lat="45.79565835356557" lon="9.128734678196441"><ele>381.6666666666667</ele><time>2026-04-26T11:23:00Z</time></trkpt><trkpt lat="45.7957420801842" lon="9.128971195731356"><ele>385.0</ele><time>2026-04-26T11:23:01Z</time></trkpt><trkpt lat="45.795815720909204" lon="9.129211842964164"><ele>387.0</ele><time>2026-04-26T11:23:02Z</time></trkpt><trkpt lat="45.7958944615682" lon="9.129459878307696"><ele>389.0</ele><time>2026-04-26T11:23:03Z</time></trkpt><trkpt lat="45.795972332005924" lon="9.129714391451248"><ele>391.0</ele><time>2026-04-26T11:23:04Z</time></trkpt><trkpt lat="45.79604536014227" lon="9.129956815313127"><ele>391.0</ele><time>2026-04-26T11:23:05Z</time></trkpt><trkpt lat="45.79611037034732" lon="9.130200151156291"><ele>391.0</ele><time>2026-04-26T11:23:06Z</time></trkpt><trkpt lat="45.79614906232601" lon="9.130439933328722"><ele>391.0</ele><time>2026-04-26T11:23:07Z</time></trkpt><trkpt lat="45.79615674885944" lon="9.130688880641634"><ele>391.0</ele><time>2026-04-26T11:23:08Z</time></trkpt><trkpt lat="45.796151075404474" lon="9.13093724975407"><ele>391.0</ele><time>2026-04-26T11:23:09Z</time></trkpt><trkpt lat="45.79611971577169" lon="9.131182011810674"><ele>391.0</ele><time>2026-04-26T11:23:10Z</time></trkpt><trkpt lat="45.796065477653435" lon="9.131411052935528"><ele>396.0</ele><time>2026-04-26T11:23:11Z</time></trkpt><trkpt lat="45.796000520834035" lon="9.131633555300862"><ele>401.0</ele><time>2026-04-26T11:23:12Z</time></trkpt><trkpt lat="45.795921088886" lon="9.131829164153828"><ele>406.0</ele><time>2026-04-26T11:23:13Z</time></trkpt><trkpt lat="45.79584493139729" lon="9.132006081575536"><ele>406.0</ele><time>2026-04-26T11:23:14Z</time></trkpt><trkpt lat="45.79576785238781" lon="9.132188863599515"><ele>406.0</ele><time>2026-04-26T11:23:15Z</time></trkpt><trkpt lat="45.79565148614207" lon="9.132406863023638"><ele>406.0</ele><time>2026-04-26T11:23:16Z</time></trkpt><trkpt lat="45.79555593681982" lon="9.132613221269132"><ele>405.0</ele><time>2026-04-26T11:23:17Z</time></trkpt><trkpt lat="45.795466506916675" lon="9.132824672485963"><ele>404.0</ele><time>2026-04-26T11:23:18Z</time></trkpt><trkpt lat="45.795375429366935" lon="9.133059989464623"><ele>403.0</ele><time>2026-04-26T11:23:19Z</time></trkpt><trkpt lat="45.795270129319356" lon="9.133305313057798"><ele>408.5</ele><time>2026-04-26T11:23:20Z</time></trkpt><trkpt lat="45.795156655987164" lon="9.133587979558309"><ele>414.0</ele><time>2026-04-26T11:23:21Z</time></trkpt><trkpt lat="45.79504639196457" lon="9.133866233342792"><ele>414.66666666666663</ele><time>2026-04-26T11:23:22Z</time></trkpt><trkpt lat="45.79494281671579" lon="9.134132680627133"><ele>415.3333333333333</ele><time>2026-04-26T11:23:23Z</time></trkpt><trkpt lat="45.7948572974184" lon="9.134360262747869"><ele>416.0</ele><time>2026-04-26T11:23:24Z</time></trkpt><trkpt lat="45.794789679788295" lon="9.13459981426917"><ele>416.0</ele><time>2026-04-26T11:23:25Z</time></trkpt><trkpt lat="45.7947502933713" lon="9.13482370144949"><ele>416.0</ele><time>2026-04-26T11:23:26Z</time></trkpt><trkpt lat="45.79474483142213" lon="9.135021773518382"><ele>416.0</ele><time>2026-04-26T11:23:27Z</time></trkpt><trkpt lat="45.79475781228156" lon="9.135238411310263"><ele>415.3333333333333</ele><time>2026-04-26T11:23:28Z</time></trkpt><trkpt lat="45.794770901308254" lon="9.135497600255773"><ele>414.66666666666663</ele><time>2026-04-26T11:23:29Z</time></trkpt><trkpt lat="45.79477175282853" lon="9.135787657850335"><ele>414.0</ele><time>2026-04-26T11:23:30Z</time></trkpt><trkpt lat="45.79476729553958" lon="9.136093404553915"><ele>413.0</ele><time>2026-04-26T11:23:31Z</time></trkpt><trkpt lat="45.794771185761135" lon="9.136397834576597"><ele>412.0</ele><time>2026-04-26T11:23:32Z</time></trkpt><trkpt lat="45.794774009417544" lon="9.136679129814771"><ele>411.0</ele><time>2026-04-26T11:23:33Z</time></trkpt><trkpt lat="45.79477079056375" lon="9.136936490088202"><ele>411.0</ele><time>2026-04-26T11:23:34Z</time></trkpt><trkpt lat="45.794763582115905" lon="9.137181931617935"><ele>411.0</ele><time>2026-04-26T11:23:35Z</time></trkpt><trkpt lat="45.79476055638299" lon="9.137421841595396"><ele>411.0</ele><time>2026-04-26T11:23:36Z</time></trkpt><trkpt lat="45.7947634109914" lon="9.137652280224104"><ele>411.0</ele><time>2026-04-26T11:23:37Z</time></trkpt><trkpt lat="45.79476961776361" lon="9.137890351885988"><ele>411.0</ele><time>2026-04-26T11:23:38Z</time></trkpt><trkpt lat="45.79478020369397" lon="9.138119738431294"><ele>411.0</ele><time>2026-04-26T11:23:39Z</time></trkpt><trkpt lat="45.79477786800518" lon="9.138349106857243"><ele>411.0</ele><time>2026-04-26T11:23:40Z</time></trkpt><trkpt lat="45.794790636459226" lon="9.138575289759485"><ele>411.0</ele><time>2026-04-26T11:23:41Z</time></trkpt><trkpt lat="45.79479570097706" lon="9.13881555730203"><ele>411.0</ele><time>2026-04-26T11:23:42Z</time></trkpt><trkpt lat="45.79479693119412" lon="9.13907953623392"><ele>411.0</ele><time>2026-04-26T11:23:43Z</time></trkpt><trkpt lat="45.79481609869625" lon="9.139352363610884"><ele>411.0</ele><time>2026-04-26T11:23:44Z</time></trkpt><trkpt lat="45.794816249725905" lon="9.139625661104434"><ele>411.0</ele><time>2026-04-26T11:23:45Z</time></trkpt><trkpt lat="45.79481562071312" lon="9.13987460033921"><ele>410.33333333333337</ele><time>2026-04-26T11:23:46Z</time></trkpt><trkpt lat="45.79483237047421" lon="9.140117821711792"><ele>409.6666666666667</ele><time>2026-04-26T11:23:47Z</time></trkpt><trkpt lat="45.794855796183725" lon="9.14036058760279"><ele>409.0</ele><time>2026-04-26T11:23:48Z</time></trkpt><trkpt lat="45.79487714852115" lon="9.140588921437878"><ele>409.0</ele><time>2026-04-26T11:23:49Z</time></trkpt><trkpt lat="45.79489440492722" lon="9.140794444974775"><ele>409.0</ele><time>2026-04-26T11:23:50Z</time></trkpt><trkpt lat="45.794901078230694" lon="9.140956383000729"><ele>409.0</ele><time>2026-04-26T11:23:51.001Z</time></trkpt><trkpt lat="45.79489019882582" lon="9.141090706542908"><ele>409.0</ele><time>2026-04-26T11:23:52.001Z</time></trkpt><trkpt lat="45.79486309547122" lon="9.141229831391108"><ele>409.0</ele><time>2026-04-26T11:23:53.001Z</time></trkpt><trkpt lat="45.79484161077044" lon="9.141391135962529"><ele>409.0</ele><time>2026-04-26T11:23:54.001Z</time></trkpt><trkpt lat="45.794844548865235" lon="9.141572922763574"><ele>409.0</ele><time>2026-04-26T11:23:55.001Z</time></trkpt><trkpt lat="45.79484379407707" lon="9.141771949777095"><ele>409.0</ele><time>2026-04-26T11:23:56.001Z</time></trkpt><trkpt lat="45.794852219799004" lon="9.142006173619583"><ele>410.6666666666667</ele><time>2026-04-26T11:23:57.001Z</time></trkpt><trkpt lat="45.7948326495473" lon="9.14228823136862"><ele>412.33333333333337</ele><time>2026-04-26T11:23:58.001Z</time></trkpt><trkpt lat="45.794819432349406" lon="9.142627037638785"><ele>414.0</ele><time>2026-04-26T11:23:59.001Z</time></trkpt><trkpt lat="45.794816213763674" lon="9.143036703280286"><ele>412.5</ele><time>2026-04-26T11:24:00.001Z</time></trkpt><trkpt lat="45.79478347403893" lon="9.143464067365699"><ele>411.0</ele><time>2026-04-26T11:24:01.001Z</time></trkpt><trkpt lat="45.794754211121244" lon="9.143922802628145"><ele>410.5</ele><time>2026-04-26T11:24:02.001Z</time></trkpt><trkpt lat="45.794721998912266" lon="9.1443417626134"><ele>410.0</ele><time>2026-04-26T11:24:03.001Z</time></trkpt><trkpt lat="45.79469502965684" lon="9.144715903702185"><ele>408.5</ele><time>2026-04-26T11:24:04.001Z</time></trkpt><trkpt lat="45.79466773895242" lon="9.14505884656148"><ele>407.0</ele><time>2026-04-26T11:24:05.001Z</time></trkpt><trkpt lat="45.794643490439114" lon="9.145392538175878"><ele>406.66666666666663</ele><time>2026-04-26T11:24:06.001Z</time></trkpt><trkpt lat="45.79462822049406" lon="9.145719741959619"><ele>406.33333333333337</ele><time>2026-04-26T11:24:07.001Z</time></trkpt><trkpt lat="45.79460315015911" lon="9.146031105637347"><ele>406.0</ele><time>2026-04-26T11:24:08.001Z</time></trkpt><trkpt lat="45.79458046052863" lon="9.146323981026464"><ele>406.0</ele><time>2026-04-26T11:24:09.001Z</time></trkpt><trkpt lat="45.79455594752237" lon="9.146591152780017"><ele>406.0</ele><time>2026-04-26T11:24:10.001Z</time></trkpt><trkpt lat="45.79454214696675" lon="9.14685024582607"><ele>406.0</ele><time>2026-04-26T11:24:11.001Z</time></trkpt><trkpt lat="45.79452149656515" lon="9.147087644216425"><ele>406.0</ele><time>2026-04-26T11:24:12.001Z</time></trkpt><trkpt lat="45.79450688240737" lon="9.147307920688386"><ele>406.0</ele><time>2026-04-26T11:24:13.001Z</time></trkpt><trkpt lat="45.79448881130467" lon="9.147524443331802"><ele>406.0</ele><time>2026-04-26T11:24:14.001Z</time></trkpt><trkpt lat="45.794475805525515" lon="9.147726594267276"><ele>406.0</ele><time>2026-04-26T11:24:15.001Z</time></trkpt><trkpt lat="45.794462365477564" lon="9.147927299685444"><ele>406.0</ele><time>2026-04-26T11:24:16.001Z</time></trkpt><trkpt lat="45.79445557505943" lon="9.148133368396229"><ele>406.0</ele><time>2026-04-26T11:24:17.001Z</time></trkpt><trkpt lat="45.7944480185042" lon="9.148356585661615"><ele>406.0</ele><time>2026-04-26T11:24:18.001Z</time></trkpt><trkpt lat="45.79443830908136" lon="9.1485941786978"><ele>406.0</ele><time>2026-04-26T11:24:19.001Z</time></trkpt><trkpt lat="45.79441833843381" lon="9.148832549233592"><ele>406.0</ele><time>2026-04-26T11:24:20.001Z</time></trkpt><trkpt lat="45.794386823750436" lon="9.149060550722941"><ele>406.0</ele><time>2026-04-26T11:24:21.001Z</time></trkpt><trkpt lat="45.794358125668424" lon="9.149263401865047"><ele>406.0</ele><time>2026-04-26T11:24:22.001Z</time></trkpt><trkpt lat="45.79433445515322" lon="9.149456961984722"><ele>406.0</ele><time>2026-04-26T11:24:23.001Z</time></trkpt><trkpt lat="45.79431837460228" lon="9.149638649871612"><ele>406.0</ele><time>2026-04-26T11:24:24.001Z</time></trkpt><trkpt lat="45.79430973049379" lon="9.149797518986373"><ele>406.0</ele><time>2026-04-26T11:24:25.001Z</time></trkpt><trkpt lat="45.79430246374387" lon="9.149935623299521"><ele>405.8</ele><time>2026-04-26T11:24:26.001Z</time></trkpt><trkpt lat="45.79427347380231" lon="9.150071860759208"><ele>405.6</ele><time>2026-04-26T11:24:27.001Z</time></trkpt><trkpt lat="45.7942362749918" lon="9.150216946676075"><ele>405.4</ele><time>2026-04-26T11:24:28.001Z</time></trkpt><trkpt lat="45.794212691301695" lon="9.150342457900278"><ele>405.2</ele><time>2026-04-26T11:24:29.001Z</time></trkpt><trkpt lat="45.7941738227379" lon="9.150443100069513"><ele>405.0</ele><time>2026-04-26T11:24:30.001Z</time></trkpt><trkpt lat="45.79413699924809" lon="9.150537880683192"><ele>405.0</ele><time>2026-04-26T11:24:31.001Z</time></trkpt><trkpt lat="45.79409127339207" lon="9.150659351870422"><ele>405.0</ele><time>2026-04-26T11:24:32.001Z</time></trkpt><trkpt lat="45.79401730836076" lon="9.15078382359368"><ele>405.0</ele><time>2026-04-26T11:24:33.001Z</time></trkpt><trkpt lat="45.793938145719935" lon="9.150898153896115"><ele>405.0</ele><time>2026-04-26T11:24:34.001Z</time></trkpt><trkpt lat="45.79385865008014" lon="9.151010719990396"><ele>405.0</ele><time>2026-04-26T11:24:35.001Z</time></trkpt><trkpt lat="45.79376379262202" lon="9.151164849321233"><ele>404.5</ele><time>2026-04-26T11:24:36.001Z</time></trkpt><trkpt lat="45.79363724730334" lon="9.151297208432286"><ele>404.0</ele><time>2026-04-26T11:24:37.001Z</time></trkpt><trkpt lat="45.79354367230099" lon="9.151421913309315"><ele>403.5</ele><time>2026-04-26T11:24:38.001Z</time></trkpt><trkpt lat="45.79342970462574" lon="9.151576210813563"><ele>403.0</ele><time>2026-04-26T11:24:39.001Z</time></trkpt><trkpt lat="45.793291094103765" lon="9.151768899827422"><ele>404.33333333333337</ele><time>2026-04-26T11:24:40.001Z</time></trkpt><trkpt lat="45.79313050672526" lon="9.15198229834053"><ele>405.66666666666663</ele><time>2026-04-26T11:24:41.001Z</time></trkpt><trkpt lat="45.79299245210746" lon="9.152193420249937"><ele>407.0</ele><time>2026-04-26T11:24:42.001Z</time></trkpt><trkpt lat="45.79284328109835" lon="9.152395132405246"><ele>409.66666666666663</ele><time>2026-04-26T11:24:43.001Z</time></trkpt><trkpt lat="45.79266727696047" lon="9.152596811233748"><ele>412.33333333333337</ele><time>2026-04-26T11:24:44.001Z</time></trkpt><trkpt lat="45.79250428675098" lon="9.152812902760548"><ele>415.0</ele><time>2026-04-26T11:24:45.001Z</time></trkpt><trkpt lat="45.79234750792439" lon="9.15302062483454"><ele>410.6666666666667</ele><time>2026-04-26T11:24:46.001Z</time></trkpt><trkpt lat="45.792202074639825" lon="9.153211777389668"><ele>406.33333333333337</ele><time>2026-04-26T11:24:47.001Z</time></trkpt><trkpt lat="45.79205715979926" lon="9.153401045701688"><ele>402.0</ele><time>2026-04-26T11:24:48.001Z</time></trkpt><trkpt lat="45.79191278127827" lon="9.153589655366295"><ele>403.66666666666663</ele><time>2026-04-26T11:24:49.001Z</time></trkpt><trkpt lat="45.791768760517016" lon="9.153792368842362"><ele>405.3333333333333</ele><time>2026-04-26T11:24:50.001Z</time></trkpt><trkpt lat="45.791618572587495" lon="9.153976933950437"><ele>407.0</ele><time>2026-04-26T11:24:51.001Z</time></trkpt><trkpt lat="45.79147702991451" lon="9.154157814917452"><ele>404.25</ele><time>2026-04-26T11:24:52.001Z</time></trkpt><trkpt lat="45.791357043625624" lon="9.154331805712031"><ele>401.5</ele><time>2026-04-26T11:24:53.001Z</time></trkpt><trkpt lat="45.79126181668754" lon="9.154458734890317"><ele>398.75</ele><time>2026-04-26T11:24:54.001Z</time></trkpt><trkpt lat="45.79116813656008" lon="9.154585733984527"><ele>396.0</ele><time>2026-04-26T11:24:55.001Z</time></trkpt><trkpt lat="45.7910652265833" lon="9.154739086805613"><ele>395.0</ele><time>2026-04-26T11:24:56.001Z</time></trkpt><trkpt lat="45.79092564952886" lon="9.154923833728786"><ele>394.0</ele><time>2026-04-26T11:24:57.001Z</time></trkpt><trkpt lat="45.79078057329455" lon="9.15511748325395"><ele>393.0</ele><time>2026-04-26T11:24:58.001Z</time></trkpt><trkpt lat="45.79063975265778" lon="9.155292991080424"><ele>393.0</ele><time>2026-04-26T11:24:59.001Z</time></trkpt><trkpt lat="45.79050566113243" lon="9.155470890673394"><ele>393.0</ele><time>2026-04-26T11:25:00.001Z</time></trkpt><trkpt lat="45.79038750310092" lon="9.155622516439177"><ele>393.0</ele><time>2026-04-26T11:25:01.001Z</time></trkpt><trkpt lat="45.79028458499896" lon="9.155755684099343"><ele>393.0</ele><time>2026-04-26T11:25:02.001Z</time></trkpt><trkpt lat="45.790181620207704" lon="9.155881608936655"><ele>393.0</ele><time>2026-04-26T11:25:03.001Z</time></trkpt><trkpt lat="45.790078038431" lon="9.15601169771466"><ele>393.0</ele><time>2026-04-26T11:25:04.001Z</time></trkpt><trkpt lat="45.78997788488743" lon="9.156145472794377"><ele>393.0</ele><time>2026-04-26T11:25:05.001Z</time></trkpt><trkpt lat="45.7898755485539" lon="9.156280927696724"><ele>392.5</ele><time>2026-04-26T11:25:06.001Z</time></trkpt><trkpt lat="45.78977017755762" lon="9.156412498134799"><ele>392.0</ele><time>2026-04-26T11:25:07.001Z</time></trkpt><trkpt lat="45.7896761914301" lon="9.156541215520436"><ele>391.5</ele><time>2026-04-26T11:25:08.001Z</time></trkpt><trkpt lat="45.78958626988927" lon="9.156661415633868"><ele>391.0</ele><time>2026-04-26T11:25:09.001Z</time></trkpt><trkpt lat="45.78950274947355" lon="9.156782768742953"><ele>390.6</ele><time>2026-04-26T11:25:10Z</time></trkpt><trkpt lat="45.78941133406102" lon="9.15688578923648"><ele>390.20000000000005</ele><time>2026-04-26T11:25:11Z</time></trkpt><trkpt lat="45.78933628205435" lon="9.156990924219047"><ele>389.79999999999995</ele><time>2026-04-26T11:25:12Z</time></trkpt><trkpt lat="45.789260970094716" lon="9.15708505354107"><ele>389.4</ele><time>2026-04-26T11:25:13Z</time></trkpt><trkpt lat="45.78918099087091" lon="9.15718202471433"><ele>389.0</ele><time>2026-04-26T11:25:14Z</time></trkpt><trkpt lat="45.78910040352826" lon="9.15727402697812"><ele>389.0</ele><time>2026-04-26T11:25:15Z</time></trkpt><trkpt lat="45.789024223736746" lon="9.157356278310719"><ele>389.0</ele><time>2026-04-26T11:25:16Z</time></trkpt><trkpt lat="45.78895896668504" lon="9.157446008136866"><ele>389.0</ele><time>2026-04-26T11:25:17Z</time></trkpt><trkpt lat="45.78889069237434" lon="9.157539077428948"><ele>389.0</ele><time>2026-04-26T11:25:18Z</time></trkpt><trkpt lat="45.78881035811937" lon="9.15762728920845"><ele>389.0</ele><time>2026-04-26T11:25:19Z</time></trkpt><trkpt lat="45.788715277494134" lon="9.157700647231177"><ele>389.0</ele><time>2026-04-26T11:25:20Z</time></trkpt><trkpt lat="45.78862254321822" lon="9.157762963875058"><ele>389.0</ele><time>2026-04-26T11:25:21Z</time></trkpt><trkpt lat="45.788550080551396" lon="9.157825077543386"><ele>389.0</ele><time>2026-04-26T11:25:22Z</time></trkpt><trkpt lat="45.788501918630665" lon="9.157901230989909"><ele>389.0</ele><time>2026-04-26T11:25:23Z</time></trkpt><trkpt lat="45.788457903809544" lon="9.158014287107152"><ele>389.0</ele><time>2026-04-26T11:25:24Z</time></trkpt><trkpt lat="45.788406171060444" lon="9.158164808982464"><ele>389.0</ele><time>2026-04-26T11:25:25Z</time></trkpt><trkpt lat="45.78831652621482" lon="9.158329638827771"><ele>389.0</ele><time>2026-04-26T11:25:26Z</time></trkpt><trkpt lat="45.788196998243706" lon="9.158501514779571"><ele>389.0</ele><time>2026-04-26T11:25:27Z</time></trkpt><trkpt lat="45.78807314586463" lon="9.158679819231004"><ele>389.0</ele><time>2026-04-26T11:25:28Z</time></trkpt><trkpt lat="45.78793845548743" lon="9.15887458416517"><ele>389.0</ele><time>2026-04-26T11:25:29Z</time></trkpt><trkpt lat="45.787790197193694" lon="9.159068490611965"><ele>389.0</ele><time>2026-04-26T11:25:30Z</time></trkpt><trkpt lat="45.787639033532315" lon="9.159271623543722"><ele>388.5</ele><time>2026-04-26T11:25:31Z</time></trkpt><trkpt lat="45.787463281956306" lon="9.159502505471664"><ele>388.0</ele><time>2026-04-26T11:25:32Z</time></trkpt><trkpt lat="45.78726775825387" lon="9.159761894349472"><ele>387.5</ele><time>2026-04-26T11:25:33Z</time></trkpt><trkpt lat="45.78705379787656" lon="9.160058881444709"><ele>387.0</ele><time>2026-04-26T11:25:34Z</time></trkpt><trkpt lat="45.7868047862333" lon="9.160375464646336"><ele>385.5</ele><time>2026-04-26T11:25:35Z</time></trkpt><trkpt lat="45.78655407814788" lon="9.160708764714665"><ele>384.0</ele><time>2026-04-26T11:25:36Z</time></trkpt><trkpt lat="45.78629084218521" lon="9.161058300245955"><ele>384.0</ele><time>2026-04-26T11:25:37Z</time></trkpt><trkpt lat="45.78601399037135" lon="9.161425915349824"><ele>384.0</ele><time>2026-04-26T11:25:38Z</time></trkpt><trkpt lat="45.78572694531151" lon="9.161804820797752"><ele>382.0</ele><time>2026-04-26T11:25:39Z</time></trkpt><trkpt lat="45.78544378152074" lon="9.16220744942704"><ele>380.0</ele><time>2026-04-26T11:25:40.001Z</time></trkpt><trkpt lat="45.785144202557596" lon="9.162575447246516"><ele>378.5</ele><time>2026-04-26T11:25:41.001Z</time></trkpt><trkpt lat="45.78489066233933" lon="9.162904917408916"><ele>377.0</ele><time>2026-04-26T11:25:42.001Z</time></trkpt><trkpt lat="45.78466355229036" lon="9.163217105090409"><ele>377.0</ele><time>2026-04-26T11:25:43.001Z</time></trkpt><trkpt lat="45.78445074258199" lon="9.163497098161791"><ele>377.0</ele><time>2026-04-26T11:25:44.001Z</time></trkpt><trkpt lat="45.784257593492995" lon="9.163756456099591"><ele>377.0</ele><time>2026-04-26T11:25:45.001Z</time></trkpt><trkpt lat="45.78408411676927" lon="9.163992363142592"><ele>377.0</ele><time>2026-04-26T11:25:46.001Z</time></trkpt><trkpt lat="45.7839218548202" lon="9.164199181700491"><ele>377.0</ele><time>2026-04-26T11:25:47.001Z</time></trkpt><trkpt lat="45.78377409064144" lon="9.164393607319118"><ele>377.0</ele><time>2026-04-26T11:25:48.001Z</time></trkpt><trkpt lat="45.783635168172474" lon="9.164594302057298"><ele>377.0</ele><time>2026-04-26T11:25:49.001Z</time></trkpt><trkpt lat="45.783487653464384" lon="9.164781840068477"><ele>376.33333333333337</ele><time>2026-04-26T11:25:50.001Z</time></trkpt><trkpt lat="45.78334057970256" lon="9.164974569507896"><ele>375.6666666666667</ele><time>2026-04-26T11:25:51.001Z</time></trkpt><trkpt lat="45.78319314413037" lon="9.1651874482847"><ele>375.0</ele><time>2026-04-26T11:25:52.001Z</time></trkpt><trkpt lat="45.783017146475856" lon="9.165413917520125"><ele>375.0</ele><time>2026-04-26T11:25:53.001Z</time></trkpt><trkpt lat="45.782815642591615" lon="9.165671811674978"><ele>375.0</ele><time>2026-04-26T11:25:54.001Z</time></trkpt><trkpt lat="45.78259701407519" lon="9.165958910392346"><ele>374.5</ele><time>2026-04-26T11:25:55.001Z</time></trkpt><trkpt lat="45.78237104099759" lon="9.166272780798366"><ele>374.0</ele><time>2026-04-26T11:25:56.001Z</time></trkpt><trkpt lat="45.78211348270662" lon="9.166582245894004"><ele>374.0</ele><time>2026-04-26T11:25:57.001Z</time></trkpt><trkpt lat="45.781855892068755" lon="9.166915888234909"><ele>374.0</ele><time>2026-04-26T11:25:58.001Z</time></trkpt><trkpt lat="45.78160011277132" lon="9.167261651532481"><ele>372.0</ele><time>2026-04-26T11:25:59.001Z</time></trkpt><trkpt lat="45.78134407452168" lon="9.167600082393182"><ele>370.0</ele><time>2026-04-26T11:26:00.001Z</time></trkpt><trkpt lat="45.78110521326317" lon="9.167918167468986"><ele>369.5</ele><time>2026-04-26T11:26:01.001Z</time></trkpt><trkpt lat="45.78088224959672" lon="9.168225769002387"><ele>369.0</ele><time>2026-04-26T11:26:02.001Z</time></trkpt><trkpt lat="45.78066106323415" lon="9.168531973037592"><ele>369.0</ele><time>2026-04-26T11:26:03.001Z</time></trkpt><trkpt lat="45.78044920028417" lon="9.16882528257888"><ele>369.0</ele><time>2026-04-26T11:26:04.001Z</time></trkpt><trkpt lat="45.780241951012044" lon="9.169102513378203"><ele>367.5</ele><time>2026-04-26T11:26:05.001Z</time></trkpt><trkpt lat="45.7800460585604" lon="9.169356444283828"><ele>366.0</ele><time>2026-04-26T11:26:06.001Z</time></trkpt><trkpt lat="45.77987558466417" lon="9.169572995577248"><ele>366.0</ele><time>2026-04-26T11:26:07.001Z</time></trkpt><trkpt lat="45.779741122997684" lon="9.16971963465406"><ele>366.0</ele><time>2026-04-26T11:26:08.001Z</time></trkpt><trkpt lat="45.779616279191785" lon="9.169826620557725"><ele>366.0</ele><time>2026-04-26T11:26:09.001Z</time></trkpt><trkpt lat="45.77950527630723" lon="9.169887161748443"><ele>366.0</ele><time>2026-04-26T11:26:10.001Z</time></trkpt><trkpt lat="45.77938433905929" lon="9.169919821525772"><ele>366.0</ele><time>2026-04-26T11:26:11.001Z</time></trkpt><trkpt lat="45.77927443320502" lon="9.169932965601234"><ele>366.0</ele><time>2026-04-26T11:26:12.001Z</time></trkpt><trkpt lat="45.7791756864554" lon="9.169991505164049"><ele>366.0</ele><time>2026-04-26T11:26:13.001Z</time></trkpt><trkpt lat="45.77912184502733" lon="9.170116428171537"><ele>366.0</ele><time>2026-04-26T11:26:14.001Z</time></trkpt><trkpt lat="45.77905945463243" lon="9.17027188968693"><ele>366.0</ele><time>2026-04-26T11:26:15.001Z</time></trkpt><trkpt lat="45.778966874882" lon="9.170434605289062"><ele>366.0</ele><time>2026-04-26T11:26:16.001Z</time></trkpt><trkpt lat="45.77885536962893" lon="9.170615278760785"><ele>366.0</ele><time>2026-04-26T11:26:17.001Z</time></trkpt><trkpt lat="45.778721071968846" lon="9.170811026131425"><ele>366.0</ele><time>2026-04-26T11:26:18.001Z</time></trkpt><trkpt lat="45.778567755108604" lon="9.171002200116936"><ele>365.6666666666667</ele><time>2026-04-26T11:26:19.001Z</time></trkpt><trkpt lat="45.778387098526416" lon="9.17117604579791"><ele>365.33333333333337</ele><time>2026-04-26T11:26:20.001Z</time></trkpt><trkpt lat="45.778223140768894" lon="9.171338475693256"><ele>365.0</ele><time>2026-04-26T11:26:21.001Z</time></trkpt><trkpt lat="45.77801975055572" lon="9.171526510831738"><ele>365.0</ele><time>2026-04-26T11:26:22.001Z</time></trkpt><trkpt lat="45.777813479208" lon="9.171727438231283"><ele>365.0</ele><time>2026-04-26T11:26:23.001Z</time></trkpt><trkpt lat="45.77761104269571" lon="9.171932661576484"><ele>365.0</ele><time>2026-04-26T11:26:24.001Z</time></trkpt><trkpt lat="45.77741582624899" lon="9.172127640594523"><ele>365.0</ele><time>2026-04-26T11:26:25.001Z</time></trkpt><trkpt lat="45.77722373725297" lon="9.172310746684689"><ele>364.33333333333337</ele><time>2026-04-26T11:26:26.001Z</time></trkpt><trkpt lat="45.77705270830248" lon="9.172503176786682"><ele>363.6666666666667</ele><time>2026-04-26T11:26:27.001Z</time></trkpt><trkpt lat="45.77686285008196" lon="9.172688590125922"><ele>363.0</ele><time>2026-04-26T11:26:28.001Z</time></trkpt><trkpt lat="45.77669542585168" lon="9.172873381377547"><ele>363.0</ele><time>2026-04-26T11:26:29.001Z</time></trkpt><trkpt lat="45.776539450952946" lon="9.173029511051933"><ele>363.0</ele><time>2026-04-26T11:26:30.001Z</time></trkpt><trkpt lat="45.77640704102412" lon="9.173159470874483"><ele>363.0</ele><time>2026-04-26T11:26:31.001Z</time></trkpt><trkpt lat="45.77627809917565" lon="9.173261775173508"><ele>362.75</ele><time>2026-04-26T11:26:32.001Z</time></trkpt><trkpt lat="45.7761570997967" lon="9.173316003169637"><ele>362.5</ele><time>2026-04-26T11:26:33.001Z</time></trkpt><trkpt lat="45.77604000337169" lon="9.173432336710066"><ele>362.25</ele><time>2026-04-26T11:26:34.001Z</time></trkpt><trkpt lat="45.77592437749444" lon="9.173604262065645"><ele>362.0</ele><time>2026-04-26T11:26:35.001Z</time></trkpt><trkpt lat="45.775768034782274" lon="9.173802965478648"><ele>362.0</ele><time>2026-04-26T11:26:36.001Z</time></trkpt><trkpt lat="45.77557774746283" lon="9.173974811472766"><ele>362.0</ele><time>2026-04-26T11:26:37.001Z</time></trkpt><trkpt lat="45.77538197391624" lon="9.174196874305796"><ele>361.0</ele><time>2026-04-26T11:26:38.001Z</time></trkpt><trkpt lat="45.77517882819311" lon="9.174472187276585"><ele>360.0</ele><time>2026-04-26T11:26:39.001Z</time></trkpt><trkpt lat="45.77497931575694" lon="9.17478348627374"><ele>359.5</ele><time>2026-04-26T11:26:40.001Z</time></trkpt><trkpt lat="45.77478148161724" lon="9.17507651906273"><ele>359.0</ele><time>2026-04-26T11:26:41.001Z</time></trkpt><trkpt lat="45.77458790383911" lon="9.175340451803045"><ele>359.0</ele><time>2026-04-26T11:26:42.001Z</time></trkpt><trkpt lat="45.77441288910203" lon="9.17559119268483"><ele>359.0</ele><time>2026-04-26T11:26:43.001Z</time></trkpt><trkpt lat="45.774229880166416" lon="9.175889453929186"><ele>358.0</ele><time>2026-04-26T11:26:44.001Z</time></trkpt><trkpt lat="45.774036125516155" lon="9.17618034465067"><ele>357.0</ele><time>2026-04-26T11:26:45.001Z</time></trkpt><trkpt lat="45.77383641405804" lon="9.176440471096859"><ele>357.0</ele><time>2026-04-26T11:26:46.001Z</time></trkpt><trkpt lat="45.7736515052042" lon="9.176695792862475"><ele>357.0</ele><time>2026-04-26T11:26:47.001Z</time></trkpt><trkpt lat="45.773464281128675" lon="9.176958165749406"><ele>357.0</ele><time>2026-04-26T11:26:48.001Z</time></trkpt><trkpt lat="45.773276742826766" lon="9.177234280590467"><ele>357.0</ele><time>2026-04-26T11:26:49.001Z</time></trkpt><trkpt lat="45.77308580348601" lon="9.177515668864256"><ele>357.5</ele><time>2026-04-26T11:26:50.001Z</time></trkpt><trkpt lat="45.772892562203005" lon="9.177796774562108"><ele>358.0</ele><time>2026-04-26T11:26:51.001Z</time></trkpt><trkpt lat="45.77269315281327" lon="9.17809490998838"><ele>358.0</ele><time>2026-04-26T11:26:52.001Z</time></trkpt><trkpt lat="45.77250090702725" lon="9.178390473845788"><ele>358.0</ele><time>2026-04-26T11:26:53.001Z</time></trkpt><trkpt lat="45.772300689047256" lon="9.178681136962103"><ele>358.0</ele><time>2026-04-26T11:26:54.001Z</time></trkpt><trkpt lat="45.77211253375259" lon="9.178959124253005"><ele>358.0</ele><time>2026-04-26T11:26:55.001Z</time></trkpt><trkpt lat="45.771931792688996" lon="9.179218100292362"><ele>357.5</ele><time>2026-04-26T11:26:56.001Z</time></trkpt><trkpt lat="45.771762119907116" lon="9.17946566756649"><ele>357.0</ele><time>2026-04-26T11:26:57.001Z</time></trkpt><trkpt lat="45.771605949886826" lon="9.179706705015153"><ele>357.0</ele><time>2026-04-26T11:26:58.001Z</time></trkpt><trkpt lat="45.771453319503124" lon="9.179939827162778"><ele>357.0</ele><time>2026-04-26T11:26:59.001Z</time></trkpt><trkpt lat="45.77130332527881" lon="9.180169425051375"><ele>357.0</ele><time>2026-04-26T11:27:00.001Z</time></trkpt><trkpt lat="45.77115065586292" lon="9.180399028139686"><ele>357.0</ele><time>2026-04-26T11:27:01.001Z</time></trkpt><trkpt lat="45.771007508518395" lon="9.180623510769454"><ele>357.0</ele><time>2026-04-26T11:27:02.001Z</time></trkpt><trkpt lat="45.77086447778163" lon="9.180818311775912"><ele>357.0</ele><time>2026-04-26T11:27:03.001Z</time></trkpt><trkpt lat="45.77071478029959" lon="9.18101295647109"><ele>357.0</ele><time>2026-04-26T11:27:04.001Z</time></trkpt><trkpt lat="45.770559590791024" lon="9.181199013806358"><ele>357.0</ele><time>2026-04-26T11:27:05.001Z</time></trkpt><trkpt lat="45.77041788414685" lon="9.181381726334553"><ele>357.0</ele><time>2026-04-26T11:27:06.001Z</time></trkpt><trkpt lat="45.77027320736795" lon="9.18155556731144"><ele>356.6666666666667</ele><time>2026-04-26T11:27:07.001Z</time></trkpt><trkpt lat="45.77012937135779" lon="9.181737509960055"><ele>356.33333333333337</ele><time>2026-04-26T11:27:08.001Z</time></trkpt><trkpt lat="45.76999839715095" lon="9.181887822258338"><ele>356.0</ele><time>2026-04-26T11:27:09.001Z</time></trkpt><trkpt lat="45.76987882267338" lon="9.182004686062323"><ele>356.0</ele><time>2026-04-26T11:27:10.001Z</time></trkpt><trkpt lat="45.76976755311147" lon="9.182115926968125"><ele>356.0</ele><time>2026-04-26T11:27:11.001Z</time></trkpt><trkpt lat="45.76966254122287" lon="9.182183788212644"><ele>356.0</ele><time>2026-04-26T11:27:12.001Z</time></trkpt><trkpt lat="45.769560137255105" lon="9.182255236955468"><ele>356.0</ele><time>2026-04-26T11:27:13.001Z</time></trkpt><trkpt lat="45.769478862258886" lon="9.182345851913878"><ele>356.0</ele><time>2026-04-26T11:27:14.001Z</time></trkpt><trkpt lat="45.76943018080998" lon="9.182450867379014"><ele>356.0</ele><time>2026-04-26T11:27:15.001Z</time></trkpt><trkpt lat="45.76940858735545" lon="9.182598471804235"><ele>356.0</ele><time>2026-04-26T11:27:16.001Z</time></trkpt><trkpt lat="45.76940796849665" lon="9.182762644275366"><ele>356.0</ele><time>2026-04-26T11:27:17.001Z</time></trkpt><trkpt lat="45.76938591241136" lon="9.182959894755633"><ele>356.0</ele><time>2026-04-26T11:27:18.001Z</time></trkpt><trkpt lat="45.76934607845389" lon="9.183163546346192"><ele>356.0</ele><time>2026-04-26T11:27:19.001Z</time></trkpt><trkpt lat="45.769295813013926" lon="9.183395260376557"><ele>356.0</ele><time>2026-04-26T11:27:20.001Z</time></trkpt><trkpt lat="45.769228229507306" lon="9.183644324154633"><ele>356.0</ele><time>2026-04-26T11:27:21.001Z</time></trkpt><trkpt lat="45.76917129375616" lon="9.183906809639454"><ele>356.6666666666667</ele><time>2026-04-26T11:27:22.001Z</time></trkpt><trkpt lat="45.769100816597614" lon="9.184146011911745"><ele>357.3333333333333</ele><time>2026-04-26T11:27:23.001Z</time></trkpt><trkpt lat="45.7690289975067" lon="9.184358213088645"><ele>358.0</ele><time>2026-04-26T11:27:24.001Z</time></trkpt><trkpt lat="45.76894604939658" lon="9.18455285082527"><ele>358.0</ele><time>2026-04-26T11:27:25.001Z</time></trkpt><trkpt lat="45.76886607178181" lon="9.184734325223918"><ele>358.0</ele><time>2026-04-26T11:27:26.001Z</time></trkpt><trkpt lat="45.76876271142818" lon="9.184876930806736"><ele>358.0</ele><time>2026-04-26T11:27:27.001Z</time></trkpt><trkpt lat="45.76867857549295" lon="9.185040993031228"><ele>358.0</ele><time>2026-04-26T11:27:28.001Z</time></trkpt><trkpt lat="45.76859140012158" lon="9.185171228602409"><ele>358.75</ele><time>2026-04-26T11:27:29.001Z</time></trkpt><trkpt lat="45.768520432912894" lon="9.185299769012447"><ele>359.5</ele><time>2026-04-26T11:27:30.001Z</time></trkpt><trkpt lat="45.768442689715215" lon="9.185397491937653"><ele>360.25</ele><time>2026-04-26T11:27:31.001Z</time></trkpt><trkpt lat="45.768370910214095" lon="9.185518956648842"><ele>361.0</ele><time>2026-04-26T11:27:32.001Z</time></trkpt><trkpt lat="45.76825909313857" lon="9.185628626146912"><ele>360.25</ele><time>2026-04-26T11:27:33.001Z</time></trkpt><trkpt lat="45.76817335735238" lon="9.185772003958252"><ele>359.5</ele><time>2026-04-26T11:27:34.001Z</time></trkpt><trkpt lat="45.76807518177608" lon="9.185916049879072"><ele>358.75</ele><time>2026-04-26T11:27:35.001Z</time></trkpt><trkpt lat="45.76797880845331" lon="9.186049644423418"><ele>358.0</ele><time>2026-04-26T11:27:36.001Z</time></trkpt><trkpt lat="45.767875704487075" lon="9.186190778965114"><ele>358.0</ele><time>2026-04-26T11:27:37.001Z</time></trkpt><trkpt lat="45.76777371482559" lon="9.18634032792374"><ele>358.0</ele><time>2026-04-26T11:27:38.001Z</time></trkpt><trkpt lat="45.76766801691048" lon="9.186492885696968"><ele>358.0</ele><time>2026-04-26T11:27:39.001Z</time></trkpt><trkpt lat="45.76753445889574" lon="9.186693696484461"><ele>358.0</ele><time>2026-04-26T11:27:40.001Z</time></trkpt><trkpt lat="45.767392447446554" lon="9.186943276999596"><ele>358.0</ele><time>2026-04-26T11:27:41.001Z</time></trkpt><trkpt lat="45.76726592713164" lon="9.187166494268798"><ele>358.0</ele><time>2026-04-26T11:27:42.001Z</time></trkpt><trkpt lat="45.76718166206052" lon="9.187427676300043"><ele>358.0</ele><time>2026-04-26T11:27:43.001Z</time></trkpt><trkpt lat="45.7671444266079" lon="9.187715246449793"><ele>358.0</ele><time>2026-04-26T11:27:44.001Z</time></trkpt><trkpt lat="45.767122618000705" lon="9.188029397894045"><ele>358.0</ele><time>2026-04-26T11:27:45.001Z</time></trkpt><trkpt lat="45.76713228027177" lon="9.188398335714204"><ele>357.0</ele><time>2026-04-26T11:27:46.001Z</time></trkpt><trkpt lat="45.767179294158915" lon="9.188790043107167"><ele>356.0</ele><time>2026-04-26T11:27:47.001Z</time></trkpt><trkpt lat="45.767225427545256" lon="9.18919029091021"><ele>354.0</ele><time>2026-04-26T11:27:48.001Z</time></trkpt><trkpt lat="45.76727148157583" lon="9.189583499116607"><ele>352.0</ele><time>2026-04-26T11:27:49.001Z</time></trkpt><trkpt lat="45.767314294909916" lon="9.189953140019547"><ele>351.3333333333333</ele><time>2026-04-26T11:27:50.001Z</time></trkpt><trkpt lat="45.76734490451749" lon="9.190281632379243"><ele>350.6666666666667</ele><time>2026-04-26T11:27:51.001Z</time></trkpt><trkpt lat="45.76737024214718" lon="9.190538406234587"><ele>350.0</ele><time>2026-04-26T11:27:52.001Z</time></trkpt><trkpt lat="45.76739036414193" lon="9.190756300278698"><ele>349.5</ele><time>2026-04-26T11:27:53.001Z</time></trkpt><trkpt lat="45.767419058008954" lon="9.19095934589769"><ele>349.0</ele><time>2026-04-26T11:27:54.001Z</time></trkpt><trkpt lat="45.76743786942289" lon="9.191146939550558"><ele>348.5</ele><time>2026-04-26T11:27:55.001Z</time></trkpt><trkpt lat="45.76745910056382" lon="9.191325721212152"><ele>348.0</ele><time>2026-04-26T11:27:56.001Z</time></trkpt><trkpt lat="45.767523390700354" lon="9.191490669099592"><ele>348.3333333333333</ele><time>2026-04-26T11:27:57.001Z</time></trkpt><trkpt lat="45.76762220140151" lon="9.191658073402218"><ele>348.66666666666663</ele><time>2026-04-26T11:27:58.001Z</time></trkpt><trkpt lat="45.76773649665574" lon="9.191882948284217"><ele>349.0</ele><time>2026-04-26T11:27:59.001Z</time></trkpt><trkpt lat="45.767848246443116" lon="9.192170670086435"><ele>344.0</ele><time>2026-04-26T11:28:00.001Z</time></trkpt><trkpt lat="45.767981424767164" lon="9.192507308234799"><ele>339.0</ele><time>2026-04-26T11:28:01.001Z</time></trkpt><trkpt lat="45.768126565787384" lon="9.192870126582758"><ele>337.0</ele><time>2026-04-26T11:28:02.001Z</time></trkpt><trkpt lat="45.76827732596047" lon="9.19325286151725"><ele>335.0</ele><time>2026-04-26T11:28:03.001Z</time></trkpt><trkpt lat="45.768418124255724" lon="9.19362136505838"><ele>332.5</ele><time>2026-04-26T11:28:04.001Z</time></trkpt><trkpt lat="45.76854448637536" lon="9.19396109172503"><ele>330.0</ele><time>2026-04-26T11:28:05.001Z</time></trkpt><trkpt lat="45.76866893391283" lon="9.194283788831749"><ele>329.0</ele><time>2026-04-26T11:28:06.001Z</time></trkpt><trkpt lat="45.76878810135078" lon="9.194577384370263"><ele>328.0</ele><time>2026-04-26T11:28:07.001Z</time></trkpt><trkpt lat="45.76889399983621" lon="9.194872440076995"><ele>328.0</ele><time>2026-04-26T11:28:08.001Z</time></trkpt><trkpt lat="45.7689904036802" lon="9.195151119475467"><ele>328.0</ele><time>2026-04-26T11:28:09.001Z</time></trkpt><trkpt lat="45.769060224905886" lon="9.195408372960951"><ele>328.0</ele><time>2026-04-26T11:28:10.001Z</time></trkpt><trkpt lat="45.76910511721306" lon="9.195668816948475"><ele>327.3333333333333</ele><time>2026-04-26T11:28:11.001Z</time></trkpt><trkpt lat="45.769134122100056" lon="9.195955197885754"><ele>326.6666666666667</ele><time>2026-04-26T11:28:12.001Z</time></trkpt><trkpt lat="45.76913603329212" lon="9.196242503007104"><ele>326.0</ele><time>2026-04-26T11:28:13.001Z</time></trkpt><trkpt lat="45.769117579827565" lon="9.1965062117261"><ele>325.0</ele><time>2026-04-26T11:28:14.001Z</time></trkpt><trkpt lat="45.76906640366053" lon="9.196742797611293"><ele>324.0</ele><time>2026-04-26T11:28:15.001Z</time></trkpt><trkpt lat="45.76904339140651" lon="9.196979652622316"><ele>323.0</ele><time>2026-04-26T11:28:16.001Z</time></trkpt><trkpt lat="45.769001736685205" lon="9.1972238559211"><ele>323.0</ele><time>2026-04-26T11:28:17.001Z</time></trkpt><trkpt lat="45.76894448247876" lon="9.197463798969274"><ele>323.0</ele><time>2026-04-26T11:28:18.001Z</time></trkpt><trkpt lat="45.76890803189175" lon="9.19768457083979"><ele>323.0</ele><time>2026-04-26T11:28:19.001Z</time></trkpt><trkpt lat="45.76884356782327" lon="9.197888889455427"><ele>323.0</ele><time>2026-04-26T11:28:20.001Z</time></trkpt><trkpt lat="45.768748741459525" lon="9.198067574548013"><ele>323.0</ele><time>2026-04-26T11:28:21.001Z</time></trkpt><trkpt lat="45.768655604253226" lon="9.198242923964456"><ele>323.0</ele><time>2026-04-26T11:28:22.001Z</time></trkpt><trkpt lat="45.76854927992576" lon="9.198380225434589"><ele>321.79999999999995</ele><time>2026-04-26T11:28:23.001Z</time></trkpt><trkpt lat="45.768452998534016" lon="9.198461156628378"><ele>320.59999999999997</ele><time>2026-04-26T11:28:24.001Z</time></trkpt><trkpt lat="45.76835634961292" lon="9.198508279195316"><ele>319.4</ele><time>2026-04-26T11:28:25.001Z</time></trkpt><trkpt lat="45.76826191666564" lon="9.198547450069537"><ele>318.2</ele><time>2026-04-26T11:28:26.001Z</time></trkpt><trkpt lat="45.768174358841485" lon="9.198604650677122"><ele>317.0</ele><time>2026-04-26T11:28:27.001Z</time></trkpt><trkpt lat="45.768100882981564" lon="9.198631642937533"><ele>317.0</ele><time>2026-04-26T11:28:28.001Z</time></trkpt><trkpt lat="45.76801774755407" lon="9.198693447779696"><ele>317.0</ele><time>2026-04-26T11:28:30.001Z</time></trkpt><trkpt lat="45.767949557812344" lon="9.198741053506646"><ele>317.0</ele><time>2026-04-26T11:28:32.001Z</time></trkpt><trkpt lat="45.767882750891566" lon="9.198799362761033"><ele>317.0</ele><time>2026-04-26T11:28:34.001Z</time></trkpt><trkpt lat="45.76780424118628" lon="9.198831555391052"><ele>317.0</ele><time>2026-04-26T11:28:35.001Z</time></trkpt><trkpt lat="45.7677214626548" lon="9.198848185480928"><ele>317.0</ele><time>2026-04-26T11:28:36.001Z</time></trkpt><trkpt lat="45.76766375357894" lon="9.198907759459512"><ele>316.75</ele><time>2026-04-26T11:28:37.001Z</time></trkpt><trkpt lat="45.76760749439969" lon="9.199016745061268"><ele>316.5</ele><time>2026-04-26T11:28:38.001Z</time></trkpt><trkpt lat="45.7675411067886" lon="9.199163754640962"><ele>316.25</ele><time>2026-04-26T11:28:39.001Z</time></trkpt><trkpt lat="45.767450597104336" lon="9.199300216015569"><ele>316.0</ele><time>2026-04-26T11:28:40.001Z</time></trkpt><trkpt lat="45.76733415981922" lon="9.199371137989079"><ele>316.0</ele><time>2026-04-26T11:28:41.001Z</time></trkpt><trkpt lat="45.76719998453632" lon="9.199468064487908"><ele>316.0</ele><time>2026-04-26T11:28:42.001Z</time></trkpt><trkpt lat="45.76702199537903" lon="9.199615347725915"><ele>316.0</ele><time>2026-04-26T11:28:43.001Z</time></trkpt><trkpt lat="45.76681155613603" lon="9.199755054033265"><ele>315.3333333333333</ele><time>2026-04-26T11:28:44.001Z</time></trkpt><trkpt lat="45.76662915794743" lon="9.199880861827234"><ele>314.6666666666667</ele><time>2026-04-26T11:28:45.001Z</time></trkpt><trkpt lat="45.766474403573895" lon="9.199973991963628"><ele>314.0</ele><time>2026-04-26T11:28:46.001Z</time></trkpt><trkpt lat="45.76632554570156" lon="9.200016952489602"><ele>314.0</ele><time>2026-04-26T11:28:47.001Z</time></trkpt><trkpt lat="45.766181082875036" lon="9.200052927671722"><ele>314.0</ele><time>2026-04-26T11:28:48.001Z</time></trkpt><trkpt lat="45.76602439251622" lon="9.20010588434212"><ele>314.0</ele><time>2026-04-26T11:28:49.001Z</time></trkpt><trkpt lat="45.765828855959484" lon="9.200122525440106"><ele>316.5</ele><time>2026-04-26T11:28:50.001Z</time></trkpt><trkpt lat="45.76559409287084" lon="9.200169796490425"><ele>319.0</ele><time>2026-04-26T11:28:51.001Z</time></trkpt><trkpt lat="45.76534141474422" lon="9.200224285624614"><ele>320.0</ele><time>2026-04-26T11:28:52.001Z</time></trkpt><trkpt lat="45.765122613146644" lon="9.200250239474071"><ele>321.0</ele><time>2026-04-26T11:28:53.001Z</time></trkpt><trkpt lat="45.76495222308968" lon="9.200278644737203"><ele>322.0</ele><time>2026-04-26T11:28:54.001Z</time></trkpt><trkpt lat="45.76481865929129" lon="9.200342085449092"><ele>322.0</ele><time>2026-04-26T11:28:55.001Z</time></trkpt><trkpt lat="45.76468487892504" lon="9.20043141617944"><ele>322.0</ele><time>2026-04-26T11:28:56.001Z</time></trkpt><trkpt lat="45.76457297549853" lon="9.200566181788147"><ele>322.0</ele><time>2026-04-26T11:28:57.001Z</time></trkpt><trkpt lat="45.76448985522105" lon="9.200758528527352"><ele>321.3333333333333</ele><time>2026-04-26T11:28:58.001Z</time></trkpt><trkpt lat="45.76444568439945" lon="9.200985889574644"><ele>320.6666666666667</ele><time>2026-04-26T11:28:59.001Z</time></trkpt><trkpt lat="45.764401994518025" lon="9.201253933634593"><ele>320.0</ele><time>2026-04-26T11:29:00.001Z</time></trkpt><trkpt lat="45.76433214246118" lon="9.201548179519381"><ele>320.0</ele><time>2026-04-26T11:29:01.001Z</time></trkpt><trkpt lat="45.76424044239718" lon="9.20185329032053"><ele>320.0</ele><time>2026-04-26T11:29:02.001Z</time></trkpt><trkpt lat="45.76415277418799" lon="9.20212132794365"><ele>320.0</ele><time>2026-04-26T11:29:03.001Z</time></trkpt><trkpt lat="45.764055884121944" lon="9.202352803096932"><ele>318.6666666666667</ele><time>2026-04-26T11:29:04.001Z</time></trkpt><trkpt lat="45.763935318814504" lon="9.202548736411307"><ele>317.3333333333333</ele><time>2026-04-26T11:29:05.001Z</time></trkpt><trkpt lat="45.763800223071584" lon="9.202702750870907"><ele>316.0</ele><time>2026-04-26T11:29:06.001Z</time></trkpt><trkpt lat="45.763643408657956" lon="9.202813548610974"><ele>315.0</ele><time>2026-04-26T11:29:07.001Z</time></trkpt><trkpt lat="45.7634829846038" lon="9.202867115143958"><ele>314.0</ele><time>2026-04-26T11:29:08.001Z</time></trkpt><trkpt lat="45.76333294442742" lon="9.202886141156217"><ele>313.0</ele><time>2026-04-26T11:29:09.001Z</time></trkpt><trkpt lat="45.76317060423313" lon="9.202905359318535"><ele>313.0</ele><time>2026-04-26T11:29:10.001Z</time></trkpt><trkpt lat="45.76302958779115" lon="9.202885512060599"><ele>313.0</ele><time>2026-04-26T11:29:11.001Z</time></trkpt><trkpt lat="45.76289759652771" lon="9.203154405029387"><ele>313.0</ele><time>2026-04-26T11:29:12.001Z</time></trkpt><trkpt lat="45.7627766956844" lon="9.202964151351141"><ele>312.75</ele><time>2026-04-26T11:29:13.001Z</time></trkpt><trkpt lat="45.76269171951954" lon="9.203078439993188"><ele>312.5</ele><time>2026-04-26T11:29:14.001Z</time></trkpt><trkpt lat="45.7626372405766" lon="9.203259438106516"><ele>312.25</ele><time>2026-04-26T11:29:15.001Z</time></trkpt><trkpt lat="45.76258446070206" lon="9.203477543436348"><ele>312.0</ele><time>2026-04-26T11:29:16.001Z</time></trkpt><trkpt lat="45.7625027399726" lon="9.203745701769721"><ele>312.0</ele><time>2026-04-26T11:29:17.001Z</time></trkpt><trkpt lat="45.76236377649828" lon="9.204039730945514"><ele>312.0</ele><time>2026-04-26T11:29:18.001Z</time></trkpt><trkpt lat="45.76219692769913" lon="9.20438454047728"><ele>312.0</ele><time>2026-04-26T11:29:19.001Z</time></trkpt><trkpt lat="45.76201897888793" lon="9.204765898093177"><ele>312.0</ele><time>2026-04-26T11:29:20.001Z</time></trkpt><trkpt lat="45.761834970486696" lon="9.205178611766675"><ele>311.5</ele><time>2026-04-26T11:29:21.001Z</time></trkpt><trkpt lat="45.761651496559" lon="9.205591864314638"><ele>311.0</ele><time>2026-04-26T11:29:22.001Z</time></trkpt><trkpt lat="45.76147183582159" lon="9.205972619608724"><ele>311.0</ele><time>2026-04-26T11:29:23.001Z</time></trkpt><trkpt lat="45.7613085871935" lon="9.206336685501586"><ele>311.0</ele><time>2026-04-26T11:29:24.001Z</time></trkpt><trkpt lat="45.76114612845156" lon="9.206684595916117"><ele>311.5</ele><time>2026-04-26T11:29:25.001Z</time></trkpt><trkpt lat="45.76099294973195" lon="9.207020646074055"><ele>312.0</ele><time>2026-04-26T11:29:26.001Z</time></trkpt><trkpt lat="45.7608150034475" lon="9.207295896024561"><ele>311.5</ele><time>2026-04-26T11:29:27.001Z</time></trkpt><trkpt lat="45.760616176424996" lon="9.207530873981854"><ele>311.0</ele><time>2026-04-26T11:29:28.001Z</time></trkpt><trkpt lat="45.76039908738821" lon="9.207760073395471"><ele>309.0</ele><time>2026-04-26T11:29:29.001Z</time></trkpt><trkpt lat="45.760156345548886" lon="9.208007509363224"><ele>307.0</ele><time>2026-04-26T11:29:30.001Z</time></trkpt><trkpt lat="45.75993143775935" lon="9.208303300704943"><ele>307.0</ele><time>2026-04-26T11:29:31.001Z</time></trkpt><trkpt lat="45.759694330358506" lon="9.208530713991454"><ele>307.0</ele><time>2026-04-26T11:29:32.001Z</time></trkpt><trkpt lat="45.759479139937945" lon="9.208749880211158"><ele>306.0</ele><time>2026-04-26T11:29:33.001Z</time></trkpt><trkpt lat="45.759288907470214" lon="9.208957166209823"><ele>305.0</ele><time>2026-04-26T11:29:34.001Z</time></trkpt><trkpt lat="45.75910724873275" lon="9.20911726099746"><ele>305.0</ele><time>2026-04-26T11:29:35.001Z</time></trkpt><trkpt lat="45.75892934240763" lon="9.209246743042051"><ele>305.0</ele><time>2026-04-26T11:29:36.001Z</time></trkpt><trkpt lat="45.758764031564624" lon="9.209350284345396"><ele>305.0</ele><time>2026-04-26T11:29:37.001Z</time></trkpt><trkpt lat="45.75860914026631" lon="9.209446056537448"><ele>305.25</ele><time>2026-04-26T11:29:38.001Z</time></trkpt><trkpt lat="45.758465893916885" lon="9.209518138602878"><ele>305.5</ele><time>2026-04-26T11:29:39.001Z</time></trkpt><trkpt lat="45.75832618406633" lon="9.20954218332906"><ele>305.75</ele><time>2026-04-26T11:29:40.001Z</time></trkpt><trkpt lat="45.75821313974221" lon="9.209574666792127"><ele>306.0</ele><time>2026-04-26T11:29:41.001Z</time></trkpt><trkpt lat="45.758098060050735" lon="9.209689991698717"><ele>306.25</ele><time>2026-04-26T11:29:42.001Z</time></trkpt><trkpt lat="45.75806014631611" lon="9.209855984640065"><ele>306.5</ele><time>2026-04-26T11:29:43.001Z</time></trkpt><trkpt lat="45.758047580392414" lon="9.21004775376106"><ele>306.75</ele><time>2026-04-26T11:29:44.001Z</time></trkpt><trkpt lat="45.75807352397909" lon="9.210245324631991"><ele>307.0</ele><time>2026-04-26T11:29:45.001Z</time></trkpt><trkpt lat="45.75810404419548" lon="9.210465729862019"><ele>307.0</ele><time>2026-04-26T11:29:46.001Z</time></trkpt><trkpt lat="45.75807913333561" lon="9.210696599219245"><ele>307.0</ele><time>2026-04-26T11:29:47.001Z</time></trkpt><trkpt lat="45.75802804794957" lon="9.210942645202955"><ele>307.0</ele><time>2026-04-26T11:29:48.001Z</time></trkpt><trkpt lat="45.75797077494888" lon="9.21122231483125"><ele>307.3333333333333</ele><time>2026-04-26T11:29:49.001Z</time></trkpt><trkpt lat="45.75796020882066" lon="9.211511599734523"><ele>307.6666666666667</ele><time>2026-04-26T11:29:50.001Z</time></trkpt><trkpt lat="45.75798733937279" lon="9.211793928763866"><ele>308.0</ele><time>2026-04-26T11:29:51.001Z</time></trkpt><trkpt lat="45.75805643819936" lon="9.2121400146463"><ele>310.5</ele><time>2026-04-26T11:29:52.001Z</time></trkpt><trkpt lat="45.75815556316616" lon="9.212489673244715"><ele>313.0</ele><time>2026-04-26T11:29:53.001Z</time></trkpt><trkpt lat="45.75827377038546" lon="9.212842374172359"><ele>316.0</ele><time>2026-04-26T11:29:54.001Z</time></trkpt><trkpt lat="45.75840243446498" lon="9.213228431732476"><ele>319.0</ele><time>2026-04-26T11:29:55.001Z</time></trkpt><trkpt lat="45.75852471129688" lon="9.213631693916073"><ele>313.5</ele><time>2026-04-26T11:29:56.001Z</time></trkpt><trkpt lat="45.75864470402454" lon="9.214043650481086"><ele>308.0</ele><time>2026-04-26T11:29:57.001Z</time></trkpt><trkpt lat="45.7587644875002" lon="9.21446412916257"><ele>311.0</ele><time>2026-04-26T11:29:58.001Z</time></trkpt><trkpt lat="45.75888112812568" lon="9.214873442498341"><ele>314.0</ele><time>2026-04-26T11:29:59.001Z</time></trkpt><trkpt lat="45.7589839147274" lon="9.215254482913517"><ele>314.0</ele><time>2026-04-26T11:30:00.001Z</time></trkpt><trkpt lat="45.759083905327785" lon="9.215595910471206"><ele>314.0</ele><time>2026-04-26T11:30:01.001Z</time></trkpt><trkpt lat="45.75918391582754" lon="9.21590642582574"><ele>316.6666666666667</ele><time>2026-04-26T11:30:02.001Z</time></trkpt><trkpt lat="45.759271595300596" lon="9.216193648790457"><ele>319.3333333333333</ele><time>2026-04-26T11:30:03.001Z</time></trkpt><trkpt lat="45.75934013292707" lon="9.216464146110205"><ele>322.0</ele><time>2026-04-26T11:30:04.001Z</time></trkpt><trkpt lat="45.75937078713776" lon="9.216741974187427"><ele>325.0</ele><time>2026-04-26T11:30:05.001Z</time></trkpt><trkpt lat="45.75935969209663" lon="9.2170282275119"><ele>328.0</ele><time>2026-04-26T11:30:06.001Z</time></trkpt><trkpt lat="45.75932805088452" lon="9.217340875957374"><ele>331.0</ele><time>2026-04-26T11:30:07.001Z</time></trkpt><trkpt lat="45.75930057903942" lon="9.217655483455221"><ele>332.0</ele><time>2026-04-26T11:30:08.001Z</time></trkpt><trkpt lat="45.75927756670327" lon="9.21796843766681"><ele>333.0</ele><time>2026-04-26T11:30:09.001Z</time></trkpt><trkpt lat="45.75925361077346" lon="9.218281083460548"><ele>334.0</ele><time>2026-04-26T11:30:10.001Z</time></trkpt><trkpt lat="45.75923212606338" lon="9.218593842949884"><ele>335.0</ele><time>2026-04-26T11:30:11.001Z</time></trkpt><trkpt lat="45.75921461490334" lon="9.218891160767182"><ele>336.0</ele><time>2026-04-26T11:30:12.001Z</time></trkpt><trkpt lat="45.75919837591698" lon="9.219177668138771"><ele>337.0</ele><time>2026-04-26T11:30:13.001Z</time></trkpt><trkpt lat="45.75917918283167" lon="9.219455912317953"><ele>337.3333333333333</ele><time>2026-04-26T11:30:14.001Z</time></trkpt><trkpt lat="45.75915971055022" lon="9.219735284822631"><ele>337.6666666666667</ele><time>2026-04-26T11:30:15.001Z</time></trkpt><trkpt lat="45.759134926901076" lon="9.219991059896014"><ele>338.0</ele><time>2026-04-26T11:30:16.001Z</time></trkpt><trkpt lat="45.75908659746363" lon="9.22020822362609"><ele>338.0</ele><time>2026-04-26T11:30:17.001Z</time></trkpt><trkpt lat="45.75901462131234" lon="9.22041082931746"><ele>338.0</ele><time>2026-04-26T11:30:18.001Z</time></trkpt><trkpt lat="45.758916447859356" lon="9.220615256688061"><ele>338.0</ele><time>2026-04-26T11:30:19.001Z</time></trkpt><trkpt lat="45.75880716344743" lon="9.220847286426437"><ele>337.0</ele><time>2026-04-26T11:30:20.001Z</time></trkpt><trkpt lat="45.75867996998834" lon="9.221125066050037"><ele>336.0</ele><time>2026-04-26T11:30:21.001Z</time></trkpt><trkpt lat="45.75853912813813" lon="9.221432652582834"><ele>335.5</ele><time>2026-04-26T11:30:22.001Z</time></trkpt><trkpt lat="45.75839111444858" lon="9.22176723271697"><ele>335.0</ele><time>2026-04-26T11:30:23.001Z</time></trkpt><trkpt lat="45.758246252897074" lon="9.222083381750672"><ele>334.0</ele><time>2026-04-26T11:30:24.001Z</time></trkpt><trkpt lat="45.758133512439876" lon="9.22236975113024"><ele>333.0</ele><time>2026-04-26T11:30:25.001Z</time></trkpt><trkpt lat="45.75804523237036" lon="9.222647095568389"><ele>332.0</ele><time>2026-04-26T11:30:26.001Z</time></trkpt><trkpt lat="45.757974111425526" lon="9.222923677022276"><ele>330.0</ele><time>2026-04-26T11:30:27.001Z</time></trkpt><trkpt lat="45.75790337625527" lon="9.223191727780671"><ele>328.0</ele><time>2026-04-26T11:30:28.001Z</time></trkpt><trkpt lat="45.75784112952608" lon="9.223449994292498"><ele>326.0</ele><time>2026-04-26T11:30:29.001Z</time></trkpt><trkpt lat="45.75779605316176" lon="9.223720687214936"><ele>325.0</ele><time>2026-04-26T11:30:30.001Z</time></trkpt><trkpt lat="45.75777788661844" lon="9.223986724707064"><ele>324.0</ele><time>2026-04-26T11:30:31.001Z</time></trkpt><trkpt lat="45.75777421387617" lon="9.22426150241868"><ele>323.0</ele><time>2026-04-26T11:30:32.001Z</time></trkpt><trkpt lat="45.75778225460649" lon="9.224521029767157"><ele>323.0</ele><time>2026-04-26T11:30:33.001Z</time></trkpt><trkpt lat="45.75778240335173" lon="9.224755879109056"><ele>323.0</ele><time>2026-04-26T11:30:34.001Z</time></trkpt><trkpt lat="45.75777245927069" lon="9.22496056951688"><ele>323.0</ele><time>2026-04-26T11:30:35.001Z</time></trkpt><trkpt lat="45.75773698062159" lon="9.225128377667803"><ele>323.0</ele><time>2026-04-26T11:30:36.001Z</time></trkpt><trkpt lat="45.75768905861414" lon="9.225260345898173"><ele>323.79999999999995</ele><time>2026-04-26T11:30:37.001Z</time></trkpt><trkpt lat="45.757634043958234" lon="9.22533333871955"><ele>324.6</ele><time>2026-04-26T11:30:38.001Z</time></trkpt><trkpt lat="45.75755749558537" lon="9.22540126194999"><ele>325.4</ele><time>2026-04-26T11:30:39.001Z</time></trkpt><trkpt lat="45.75746587220881" lon="9.22544959178096"><ele>326.20000000000005</ele><time>2026-04-26T11:30:40.001Z</time></trkpt><trkpt lat="45.75737260336577" lon="9.225450313104279"><ele>327.0</ele><time>2026-04-26T11:30:41.001Z</time></trkpt><trkpt lat="45.75726858627762" lon="9.225419646368257"><ele>327.0</ele><time>2026-04-26T11:30:42.001Z</time></trkpt><trkpt lat="45.7571395632443" lon="9.225383500208313"><ele>327.0</ele><time>2026-04-26T11:30:43.001Z</time></trkpt><trkpt lat="45.75702048124133" lon="9.225343307986941"><ele>327.0</ele><time>2026-04-26T11:30:44.001Z</time></trkpt><trkpt lat="45.756924373724914" lon="9.225298978539882"><ele>327.0</ele><time>2026-04-26T11:30:45.001Z</time></trkpt><trkpt lat="45.756815108207064" lon="9.225215316481112"><ele>328.0</ele><time>2026-04-26T11:30:46.001Z</time></trkpt><trkpt lat="45.756691840497375" lon="9.225136285844952"><ele>329.0</ele><time>2026-04-26T11:30:47.001Z</time></trkpt><trkpt lat="45.75650774037079" lon="9.22507776427235"><ele>330.0</ele><time>2026-04-26T11:30:48.001Z</time></trkpt><trkpt lat="45.75630846349038" lon="9.224941716672408"><ele>330.0</ele><time>2026-04-26T11:30:49.001Z</time></trkpt><trkpt lat="45.756106886008816" lon="9.224813804207962"><ele>330.0</ele><time>2026-04-26T11:30:50.001Z</time></trkpt><trkpt lat="45.755918150958216" lon="9.224693350939477"><ele>330.0</ele><time>2026-04-26T11:30:51.001Z</time></trkpt><trkpt lat="45.7556808992801" lon="9.224586193237052"><ele>331.5</ele><time>2026-04-26T11:30:52.001Z</time></trkpt><trkpt lat="45.75542128587379" lon="9.224423498891799"><ele>333.0</ele><time>2026-04-26T11:30:53.001Z</time></trkpt><trkpt lat="45.75514147547822" lon="9.224249403427656"><ele>333.0</ele><time>2026-04-26T11:30:54.001Z</time></trkpt><trkpt lat="45.75487074999083" lon="9.224068053959073"><ele>333.0</ele><time>2026-04-26T11:30:55.001Z</time></trkpt><trkpt lat="45.754632175339495" lon="9.223902103048824"><ele>333.0</ele><time>2026-04-26T11:30:56.001Z</time></trkpt><trkpt lat="45.75441744587253" lon="9.223739273139008"><ele>333.0</ele><time>2026-04-26T11:30:57.001Z</time></trkpt><trkpt lat="45.754210481734575" lon="9.223614063524556"><ele>334.0</ele><time>2026-04-26T11:30:58.001Z</time></trkpt><trkpt lat="45.754017976343555" lon="9.223498585113537"><ele>335.0</ele><time>2026-04-26T11:30:59.001Z</time></trkpt><trkpt lat="45.75383437657941" lon="9.223388448359447"><ele>336.0</ele><time>2026-04-26T11:31:00.001Z</time></trkpt><trkpt lat="45.75365550159584" lon="9.223297207760437"><ele>336.3333333333333</ele><time>2026-04-26T11:31:01.001Z</time></trkpt><trkpt lat="45.75349078747983" lon="9.22319120886002"><ele>336.66666666666663</ele><time>2026-04-26T11:31:02.001Z</time></trkpt><trkpt lat="45.75330157041486" lon="9.223067051792016"><ele>337.0</ele><time>2026-04-26T11:31:03.001Z</time></trkpt><trkpt lat="45.75308986049998" lon="9.222927190301021"><ele>337.0</ele><time>2026-04-26T11:31:04.001Z</time></trkpt><trkpt lat="45.752869160800785" lon="9.222775997203417"><ele>337.0</ele><time>2026-04-26T11:31:05.001Z</time></trkpt><trkpt lat="45.752650612788486" lon="9.222639631526489"><ele>338.0</ele><time>2026-04-26T11:31:06.001Z</time></trkpt><trkpt lat="45.752430149643345" lon="9.222500488594319"><ele>339.0</ele><time>2026-04-26T11:31:07.001Z</time></trkpt><trkpt lat="45.75220433449563" lon="9.222351665537218"><ele>338.0</ele><time>2026-04-26T11:31:08.001Z</time></trkpt><trkpt lat="45.75197071902302" lon="9.222193571277986"><ele>337.0</ele><time>2026-04-26T11:31:09.001Z</time></trkpt><trkpt lat="45.75175776605168" lon="9.222047987334193"><ele>337.0</ele><time>2026-04-26T11:31:10.001Z</time></trkpt><trkpt lat="45.75156531727095" lon="9.221889867424274"><ele>337.0</ele><time>2026-04-26T11:31:11.001Z</time></trkpt><trkpt lat="45.75136772419992" lon="9.221764399106645"><ele>337.0</ele><time>2026-04-26T11:31:12.001Z</time></trkpt><trkpt lat="45.751184373714146" lon="9.221634627478583"><ele>336.66666666666663</ele><time>2026-04-26T11:31:13.001Z</time></trkpt><trkpt lat="45.75101516921529" lon="9.22149867013241"><ele>336.3333333333333</ele><time>2026-04-26T11:31:14.001Z</time></trkpt><trkpt lat="45.75084071675925" lon="9.221366406402947"><ele>336.0</ele><time>2026-04-26T11:31:15.001Z</time></trkpt><trkpt lat="45.75065122941128" lon="9.221232308587043"><ele>335.6666666666667</ele><time>2026-04-26T11:31:16.001Z</time></trkpt><trkpt lat="45.75046062391322" lon="9.22110030815065"><ele>335.33333333333337</ele><time>2026-04-26T11:31:17.001Z</time></trkpt><trkpt lat="45.75026666335805" lon="9.220989676353321"><ele>335.0</ele><time>2026-04-26T11:31:18.001Z</time></trkpt><trkpt lat="45.7500798273032" lon="9.220858449643211"><ele>335.0</ele><time>2026-04-26T11:31:19.001Z</time></trkpt><trkpt lat="45.749891281196746" lon="9.220721207011609"><ele>335.0</ele><time>2026-04-26T11:31:20.001Z</time></trkpt><trkpt lat="45.74970433172567" lon="9.220599477844587"><ele>335.0</ele><time>2026-04-26T11:31:21.001Z</time></trkpt><trkpt lat="45.749515546349954" lon="9.220491221186121"><ele>336.0</ele><time>2026-04-26T11:31:22.001Z</time></trkpt><trkpt lat="45.74933340617894" lon="9.220422761564517"><ele>337.0</ele><time>2026-04-26T11:31:23.001Z</time></trkpt><trkpt lat="45.749149682872506" lon="9.220386640666149"><ele>338.0</ele><time>2026-04-26T11:31:24.001Z</time></trkpt><trkpt lat="45.74898117520805" lon="9.220344189666402"><ele>338.0</ele><time>2026-04-26T11:31:25.001Z</time></trkpt><trkpt lat="45.74883542080058" lon="9.220320208406422"><ele>338.0</ele><time>2026-04-26T11:31:26.001Z</time></trkpt><trkpt lat="45.74872711394709" lon="9.220275917378478"><ele>338.0</ele><time>2026-04-26T11:31:27.001Z</time></trkpt><trkpt lat="45.74864453786679" lon="9.220247011829818"><ele>338.0</ele><time>2026-04-26T11:31:28.001Z</time></trkpt><trkpt lat="45.748564257824135" lon="9.220212582145567"><ele>338.0</ele><time>2026-04-26T11:31:29.001Z</time></trkpt><trkpt lat="45.748485368332304" lon="9.220133928692"><ele>338.0</ele><time>2026-04-26T11:31:30.001Z</time></trkpt><trkpt lat="45.748370469676225" lon="9.220115120391027"><ele>338.0</ele><time>2026-04-26T11:31:31.001Z</time></trkpt><trkpt lat="45.74824036264898" lon="9.220120096025118"><ele>338.0</ele><time>2026-04-26T11:31:32.001Z</time></trkpt><trkpt lat="45.748099052183" lon="9.220108111074238"><ele>338.0</ele><time>2026-04-26T11:31:33.001Z</time></trkpt><trkpt lat="45.747936102804815" lon="9.220060839200949"><ele>338.0</ele><time>2026-04-26T11:31:34.001Z</time></trkpt><trkpt lat="45.74771139633006" lon="9.21999892388616"><ele>338.0</ele><time>2026-04-26T11:31:35.001Z</time></trkpt><trkpt lat="45.74742771853681" lon="9.219913052601859"><ele>338.0</ele><time>2026-04-26T11:31:36.001Z</time></trkpt><trkpt lat="45.747116238339025" lon="9.219828830129194"><ele>338.0</ele><time>2026-04-26T11:31:37.001Z</time></trkpt><trkpt lat="45.746784534452004" lon="9.219744127171667"><ele>338.5</ele><time>2026-04-26T11:31:38.001Z</time></trkpt><trkpt lat="45.74644419594806" lon="9.219651945288039"><ele>339.0</ele><time>2026-04-26T11:31:39.001Z</time></trkpt><trkpt lat="45.74613725719433" lon="9.219566242061617"><ele>339.0</ele><time>2026-04-26T11:31:40.001Z</time></trkpt><trkpt lat="45.745849030393984" lon="9.21945936701159"><ele>339.0</ele><time>2026-04-26T11:31:41.001Z</time></trkpt><trkpt lat="45.7455794755743" lon="9.219314134977145"><ele>339.0</ele><time>2026-04-26T11:31:42.001Z</time></trkpt><trkpt lat="45.745326244717646" lon="9.219108546910093"><ele>339.0</ele><time>2026-04-26T11:31:43.001Z</time></trkpt><trkpt lat="45.74508756777034" lon="9.218848147816466"><ele>341.0</ele><time>2026-04-26T11:31:44.001Z</time></trkpt><trkpt lat="45.74482439369011" lon="9.21856564618195"><ele>343.0</ele><time>2026-04-26T11:31:45.001Z</time></trkpt><trkpt lat="45.74454690424066" lon="9.218269911770902"><ele>346.0</ele><time>2026-04-26T11:31:46.001Z</time></trkpt><trkpt lat="45.744270577036076" lon="9.217967634776297"><ele>349.0</ele><time>2026-04-26T11:31:47.001Z</time></trkpt><trkpt lat="45.743977905543304" lon="9.21766634078186"><ele>349.0</ele><time>2026-04-26T11:31:48.001Z</time></trkpt><trkpt lat="45.743691574450054" lon="9.217358754030748"><ele>349.0</ele><time>2026-04-26T11:31:49.001Z</time></trkpt><trkpt lat="45.74342574249643" lon="9.217061344473075"><ele>351.5</ele><time>2026-04-26T11:31:50.001Z</time></trkpt><trkpt lat="45.74317601091782" lon="9.216790177477659"><ele>354.0</ele><time>2026-04-26T11:31:51.001Z</time></trkpt><trkpt lat="45.74294217125779" lon="9.21653646150914"><ele>355.0</ele><time>2026-04-26T11:31:52.001Z</time></trkpt><trkpt lat="45.74271108273786" lon="9.21629225492216"><ele>356.0</ele><time>2026-04-26T11:31:53.001Z</time></trkpt><trkpt lat="45.74249039270787" lon="9.216060858269225"><ele>356.0</ele><time>2026-04-26T11:31:54.001Z</time></trkpt><trkpt lat="45.74228452219176" lon="9.215847241139967"><ele>356.0</ele><time>2026-04-26T11:31:55.001Z</time></trkpt><trkpt lat="45.74208676759942" lon="9.215654052061423"><ele>357.0</ele><time>2026-04-26T11:31:56Z</time></trkpt><trkpt lat="45.741882488189006" lon="9.215486138365552"><ele>358.0</ele><time>2026-04-26T11:31:57Z</time></trkpt><trkpt lat="45.7416667978432" lon="9.215357357396545"><ele>358.0</ele><time>2026-04-26T11:31:58Z</time></trkpt><trkpt lat="45.74144318709391" lon="9.215266709555568"><ele>358.0</ele><time>2026-04-26T11:31:59Z</time></trkpt><trkpt lat="45.7412123693684" lon="9.215203339620928"><ele>356.5</ele><time>2026-04-26T11:32:00Z</time></trkpt><trkpt lat="45.74096355548755" lon="9.215151230166642"><ele>355.0</ele><time>2026-04-26T11:32:01Z</time></trkpt><trkpt lat="45.74070465333787" lon="9.215078960249318"><ele>355.0</ele><time>2026-04-26T11:32:02Z</time></trkpt><trkpt lat="45.740435785173354" lon="9.21499615726699"><ele>355.0</ele><time>2026-04-26T11:32:03Z</time></trkpt><trkpt lat="45.7401621227264" lon="9.214924775744281"><ele>354.0</ele><time>2026-04-26T11:32:04Z</time></trkpt><trkpt lat="45.73988561665743" lon="9.214861111066552"><ele>353.0</ele><time>2026-04-26T11:32:05Z</time></trkpt><trkpt lat="45.739611588177254" lon="9.214794425735882"><ele>349.5</ele><time>2026-04-26T11:32:06Z</time></trkpt><trkpt lat="45.73934507380887" lon="9.214733736621445"><ele>346.0</ele><time>2026-04-26T11:32:07Z</time></trkpt><trkpt lat="45.73908418563872" lon="9.21466867172423"><ele>346.0</ele><time>2026-04-26T11:32:08Z</time></trkpt><trkpt lat="45.738822283780394" lon="9.214585856858829"><ele>346.0</ele><time>2026-04-26T11:32:09Z</time></trkpt><trkpt lat="45.7385367693272" lon="9.214484119312445"><ele>350.0</ele><time>2026-04-26T11:32:10Z</time></trkpt><trkpt lat="45.73824166687543" lon="9.214402540593076"><ele>354.0</ele><time>2026-04-26T11:32:11Z</time></trkpt><trkpt lat="45.737938721484845" lon="9.214334030286578"><ele>355.0</ele><time>2026-04-26T11:32:12Z</time></trkpt><trkpt lat="45.73764962494351" lon="9.214245498959688"><ele>356.0</ele><time>2026-04-26T11:32:13Z</time></trkpt><trkpt lat="45.737347052892126" lon="9.214127601740406"><ele>357.5</ele><time>2026-04-26T11:32:14Z</time></trkpt><trkpt lat="45.73703358172838" lon="9.213966882887334"><ele>359.0</ele><time>2026-04-26T11:32:15Z</time></trkpt><trkpt lat="45.73671388415177" lon="9.213799657716157"><ele>356.0</ele><time>2026-04-26T11:32:16Z</time></trkpt><trkpt lat="45.73637888375494" lon="9.213614341042225"><ele>353.0</ele><time>2026-04-26T11:32:17Z</time></trkpt><trkpt lat="45.73604138930027" lon="9.213420599012071"><ele>351.0</ele><time>2026-04-26T11:32:18Z</time></trkpt><trkpt lat="45.735726888319206" lon="9.213234476688902"><ele>349.0</ele><time>2026-04-26T11:32:19Z</time></trkpt><trkpt lat="45.73543199638692" lon="9.213057549627834"><ele>351.5</ele><time>2026-04-26T11:32:20Z</time></trkpt><trkpt lat="45.735145383214935" lon="9.21291612211363"><ele>354.0</ele><time>2026-04-26T11:32:21Z</time></trkpt><trkpt lat="45.734854547446695" lon="9.212817088300513"><ele>354.0</ele><time>2026-04-26T11:32:22Z</time></trkpt><trkpt lat="45.734574026823395" lon="9.212760414400918"><ele>354.0</ele><time>2026-04-26T11:32:23Z</time></trkpt><trkpt lat="45.73430129388745" lon="9.212763544270983"><ele>353.5</ele><time>2026-04-26T11:32:24Z</time></trkpt><trkpt lat="45.73401780440301" lon="9.212819923042776"><ele>353.0</ele><time>2026-04-26T11:32:25Z</time></trkpt><trkpt lat="45.733744844128566" lon="9.21292783059788"><ele>351.0</ele><time>2026-04-26T11:32:26Z</time></trkpt><trkpt lat="45.73346320680052" lon="9.213060881191485"><ele>349.0</ele><time>2026-04-26T11:32:27Z</time></trkpt><trkpt lat="45.7331885413434" lon="9.213201736353154"><ele>345.5</ele><time>2026-04-26T11:32:28Z</time></trkpt><trkpt lat="45.732931441863705" lon="9.213329392367484"><ele>342.0</ele><time>2026-04-26T11:32:29Z</time></trkpt><trkpt lat="45.73269864530053" lon="9.213467683317575"><ele>341.0</ele><time>2026-04-26T11:32:30Z</time></trkpt><trkpt lat="45.732459929092826" lon="9.213565278770131"><ele>340.0</ele><time>2026-04-26T11:32:31Z</time></trkpt><trkpt lat="45.732248898777776" lon="9.213654942076198"><ele>340.0</ele><time>2026-04-26T11:32:32Z</time></trkpt><trkpt lat="45.732061922098644" lon="9.213742104953203"><ele>340.0</ele><time>2026-04-26T11:32:33Z</time></trkpt><trkpt lat="45.73190215917144" lon="9.21381369633554"><ele>340.0</ele><time>2026-04-26T11:32:34Z</time></trkpt><trkpt lat="45.731761388138025" lon="9.213869277150401"><ele>339.5</ele><time>2026-04-26T11:32:35Z</time></trkpt><trkpt lat="45.731641175723716" lon="9.213916915903813"><ele>339.0</ele><time>2026-04-26T11:32:36Z</time></trkpt><trkpt lat="45.73151077530659" lon="9.213938192903543"><ele>338.5</ele><time>2026-04-26T11:32:37Z</time></trkpt><trkpt lat="45.73139807943731" lon="9.213957015382368"><ele>338.0</ele><time>2026-04-26T11:32:38Z</time></trkpt><trkpt lat="45.73127302176326" lon="9.213977862005338"><ele>335.25</ele><time>2026-04-26T11:32:39Z</time></trkpt><trkpt lat="45.73116363078942" lon="9.214053780089142"><ele>332.5</ele><time>2026-04-26T11:32:40Z</time></trkpt><trkpt lat="45.731039918714295" lon="9.214155334237986"><ele>329.75</ele><time>2026-04-26T11:32:41Z</time></trkpt><trkpt lat="45.730901757196996" lon="9.214230245033932"><ele>327.0</ele><time>2026-04-26T11:32:42Z</time></trkpt><trkpt lat="45.73077010385697" lon="9.21427669495084"><ele>325.75</ele><time>2026-04-26T11:32:43Z</time></trkpt><trkpt lat="45.73063345988891" lon="9.214314994919388"><ele>324.5</ele><time>2026-04-26T11:32:44Z</time></trkpt><trkpt lat="45.73049721101604" lon="9.214334115102597"><ele>323.25</ele><time>2026-04-26T11:32:45Z</time></trkpt><trkpt lat="45.73033182111127" lon="9.214369757872193"><ele>322.0</ele><time>2026-04-26T11:32:46Z</time></trkpt><trkpt lat="45.730141150248" lon="9.214400202281615"><ele>321.66666666666663</ele><time>2026-04-26T11:32:47Z</time></trkpt><trkpt lat="45.729952759963254" lon="9.214388269747474"><ele>321.3333333333333</ele><time>2026-04-26T11:32:48Z</time></trkpt><trkpt lat="45.729781094778104" lon="9.21442187186781"><ele>321.0</ele><time>2026-04-26T11:32:49Z</time></trkpt><trkpt lat="45.72962620308299" lon="9.214425698153143"><ele>321.0</ele><time>2026-04-26T11:32:50Z</time></trkpt><trkpt lat="45.729466985280496" lon="9.214437582413044"><ele>321.0</ele><time>2026-04-26T11:32:51Z</time></trkpt><trkpt lat="45.72929970182339" lon="9.214458335232637"><ele>321.0</ele><time>2026-04-26T11:32:52Z</time></trkpt><trkpt lat="45.729124684827475" lon="9.214486656729484"><ele>322.0</ele><time>2026-04-26T11:32:53Z</time></trkpt><trkpt lat="45.728948733968885" lon="9.214521953609353"><ele>323.0</ele><time>2026-04-26T11:32:54Z</time></trkpt><trkpt lat="45.72876951837954" lon="9.214558401444558"><ele>324.0</ele><time>2026-04-26T11:32:55Z</time></trkpt><trkpt lat="45.728563278261525" lon="9.214597226767822"><ele>325.0</ele><time>2026-04-26T11:32:56Z</time></trkpt><trkpt lat="45.728317055713" lon="9.214604639135787"><ele>326.0</ele><time>2026-04-26T11:32:57Z</time></trkpt><trkpt lat="45.72806783522756" lon="9.214638568940053"><ele>326.0</ele><time>2026-04-26T11:32:58Z</time></trkpt><trkpt lat="45.727806829679956" lon="9.214681773055554"><ele>326.0</ele><time>2026-04-26T11:32:59.001Z</time></trkpt><trkpt lat="45.72755639052997" lon="9.214707336046144"><ele>325.33333333333337</ele><time>2026-04-26T11:33:00.001Z</time></trkpt><trkpt lat="45.727328597144314" lon="9.214733049993653"><ele>324.6666666666667</ele><time>2026-04-26T11:33:01.001Z</time></trkpt><trkpt lat="45.72711892787171" lon="9.214768642920959"><ele>324.0</ele><time>2026-04-26T11:33:02.001Z</time></trkpt><trkpt lat="45.726917967220885" lon="9.214793723577783"><ele>323.0</ele><time>2026-04-26T11:33:03.001Z</time></trkpt><trkpt lat="45.72672915369885" lon="9.214816823834948"><ele>322.0</ele><time>2026-04-26T11:33:04.001Z</time></trkpt><trkpt lat="45.72654948971778" lon="9.214831263260226"><ele>321.0</ele><time>2026-04-26T11:33:05.001Z</time></trkpt><trkpt lat="45.72638179249175" lon="9.214840941964953"><ele>320.75</ele><time>2026-04-26T11:33:06.001Z</time></trkpt><trkpt lat="45.72622908779345" lon="9.214845468880661"><ele>320.5</ele><time>2026-04-26T11:33:07.001Z</time></trkpt><trkpt lat="45.72609663844591" lon="9.214848229606151"><ele>320.25</ele><time>2026-04-26T11:33:08.001Z</time></trkpt><trkpt lat="45.7259729896705" lon="9.214845066971213"><ele>320.0</ele><time>2026-04-26T11:33:09.001Z</time></trkpt><trkpt lat="45.72586791781307" lon="9.214823911356158"><ele>319.25</ele><time>2026-04-26T11:33:10.001Z</time></trkpt><trkpt lat="45.72577727162236" lon="9.214770601421082"><ele>318.5</ele><time>2026-04-26T11:33:11.001Z</time></trkpt><trkpt lat="45.72567458423388" lon="9.214750761732951"><ele>317.75</ele><time>2026-04-26T11:33:12.001Z</time></trkpt><trkpt lat="45.725567677462884" lon="9.21479336415885"><ele>317.0</ele><time>2026-04-26T11:33:13.001Z</time></trkpt><trkpt lat="45.725438258483756" lon="9.214883421493713"><ele>316.6666666666667</ele><time>2026-04-26T11:33:14.001Z</time></trkpt><trkpt lat="45.72526189466989" lon="9.21493881820447"><ele>316.3333333333333</ele><time>2026-04-26T11:33:15.001Z</time></trkpt><trkpt lat="45.725033757469426" lon="9.214989777358566"><ele>316.0</ele><time>2026-04-26T11:33:16.001Z</time></trkpt><trkpt lat="45.724767199223656" lon="9.21503840226625"><ele>314.5</ele><time>2026-04-26T11:33:17.001Z</time></trkpt><trkpt lat="45.724473748365305" lon="9.215090745375194"><ele>313.0</ele><time>2026-04-26T11:33:18.001Z</time></trkpt><trkpt lat="45.72416353497859" lon="9.2151362486717"><ele>312.5</ele><time>2026-04-26T11:33:19.001Z</time></trkpt><trkpt lat="45.72382584099748" lon="9.215172548939806"><ele>312.0</ele><time>2026-04-26T11:33:20.001Z</time></trkpt><trkpt lat="45.72347253249457" lon="9.215205799904417"><ele>311.5</ele><time>2026-04-26T11:33:21.001Z</time></trkpt><trkpt lat="45.72312018465709" lon="9.215241745271832"><ele>311.0</ele><time>2026-04-26T11:33:22.001Z</time></trkpt><trkpt lat="45.722786043185614" lon="9.21528842151847"><ele>310.5</ele><time>2026-04-26T11:33:23.001Z</time></trkpt><trkpt lat="45.72247616170345" lon="9.215314018081486"><ele>310.0</ele><time>2026-04-26T11:33:24.001Z</time></trkpt><trkpt lat="45.72218027443899" lon="9.215328435192747"><ele>310.0</ele><time>2026-04-26T11:33:25.001Z</time></trkpt><trkpt lat="45.72191309144026" lon="9.21535813896594"><ele>310.0</ele><time>2026-04-26T11:33:26.001Z</time></trkpt><trkpt lat="45.72165731877517" lon="9.215392388934045"><ele>307.5</ele><time>2026-04-26T11:33:27.001Z</time></trkpt><trkpt lat="45.72140873430418" lon="9.2154286945647"><ele>305.0</ele><time>2026-04-26T11:33:28.001Z</time></trkpt><trkpt lat="45.72120413214681" lon="9.215488878430074"><ele>305.33333333333337</ele><time>2026-04-26T11:33:29.001Z</time></trkpt><trkpt lat="45.72099142386246" lon="9.215508068499757"><ele>305.6666666666667</ele><time>2026-04-26T11:33:30.001Z</time></trkpt><trkpt lat="45.72078818093358" lon="9.215521837679027"><ele>306.0</ele><time>2026-04-26T11:33:31.001Z</time></trkpt><trkpt lat="45.720590220762084" lon="9.215565955391655"><ele>306.0</ele><time>2026-04-26T11:33:32.001Z</time></trkpt><trkpt lat="45.720426728464005" lon="9.215585620935297"><ele>306.0</ele><time>2026-04-26T11:33:33.001Z</time></trkpt><trkpt lat="45.720231692228595" lon="9.21559937509725"><ele>306.0</ele><time>2026-04-26T11:33:34.001Z</time></trkpt><trkpt lat="45.720057676392926" lon="9.21562206304739"><ele>306.0</ele><time>2026-04-26T11:33:35.001Z</time></trkpt><trkpt lat="45.71988709935888" lon="9.215646656106497"><ele>306.0</ele><time>2026-04-26T11:33:36.001Z</time></trkpt><trkpt lat="45.719724823734424" lon="9.215671829543783"><ele>306.0</ele><time>2026-04-26T11:33:37.001Z</time></trkpt><trkpt lat="45.719578740018775" lon="9.215702269783735"><ele>305.6</ele><time>2026-04-26T11:33:38.001Z</time></trkpt><trkpt lat="45.719455359099975" lon="9.215731281780227"><ele>305.20000000000005</ele><time>2026-04-26T11:33:39Z</time></trkpt><trkpt lat="45.71933738814997" lon="9.215743905953738"><ele>304.79999999999995</ele><time>2026-04-26T11:33:40Z</time></trkpt><trkpt lat="45.719226930611185" lon="9.215749531582535"><ele>304.4</ele><time>2026-04-26T11:33:41Z</time></trkpt><trkpt lat="45.71914090311903" lon="9.21577263502686"><ele>304.0</ele><time>2026-04-26T11:33:42Z</time></trkpt><trkpt lat="45.71905404625907" lon="9.215778841301116"><ele>303.4</ele><time>2026-04-26T11:33:43Z</time></trkpt><trkpt lat="45.718982735337406" lon="9.215765761110447"><ele>302.79999999999995</ele><time>2026-04-26T11:33:44Z</time></trkpt><trkpt lat="45.71891378331442" lon="9.21574163388775"><ele>302.20000000000005</ele><time>2026-04-26T11:33:45Z</time></trkpt><trkpt lat="45.7187822834416" lon="9.215730323986385"><ele>301.6</ele><time>2026-04-26T11:33:47Z</time></trkpt><trkpt lat="45.71869399491595" lon="9.215781376238716"><ele>301.0</ele><time>2026-04-26T11:33:48Z</time></trkpt><trkpt lat="45.71858656357892" lon="9.215836029491633"><ele>301.0</ele><time>2026-04-26T11:33:49Z</time></trkpt><trkpt lat="45.71845215017361" lon="9.21586014922039"><ele>301.0</ele><time>2026-04-26T11:33:50Z</time></trkpt><trkpt lat="45.718292071549975" lon="9.21586711197129"><ele>301.0</ele><time>2026-04-26T11:33:51Z</time></trkpt><trkpt lat="45.71811935554617" lon="9.215884982373053"><ele>301.0</ele><time>2026-04-26T11:33:52Z</time></trkpt><trkpt lat="45.71793566160079" lon="9.215902087295731"><ele>301.0</ele><time>2026-04-26T11:33:53Z</time></trkpt><trkpt lat="45.71774013373408" lon="9.215926239684702"><ele>301.0</ele><time>2026-04-26T11:33:54Z</time></trkpt><trkpt lat="45.71753380999163" lon="9.215959491131521"><ele>301.3333333333333</ele><time>2026-04-26T11:33:55Z</time></trkpt><trkpt lat="45.71731809776665" lon="9.215991727956075"><ele>301.6666666666667</ele><time>2026-04-26T11:33:56Z</time></trkpt><trkpt lat="45.71709584404496" lon="9.216021222416993"><ele>302.0</ele><time>2026-04-26T11:33:57Z</time></trkpt><trkpt lat="45.716871025845094" lon="9.216047817101341"><ele>302.0</ele><time>2026-04-26T11:33:58Z</time></trkpt><trkpt lat="45.71666187607889" lon="9.216072365351671"><ele>302.0</ele><time>2026-04-26T11:33:59Z</time></trkpt><trkpt lat="45.716473223104366" lon="9.216093965174936"><ele>302.0</ele><time>2026-04-26T11:34:00Z</time></trkpt><trkpt lat="45.71630565675259" lon="9.216112273117702"><ele>302.0</ele><time>2026-04-26T11:34:01Z</time></trkpt><trkpt lat="45.716161371241164" lon="9.216132650321972"><ele>302.0</ele><time>2026-04-26T11:34:02Z</time></trkpt><trkpt lat="45.71604128392302" lon="9.216117324164347"><ele>302.0</ele><time>2026-04-26T11:34:03Z</time></trkpt><trkpt lat="45.715935423888226" lon="9.216082058693381"><ele>302.0</ele><time>2026-04-26T11:34:04Z</time></trkpt><trkpt lat="45.71582603787554" lon="9.216035898443408"><ele>301.0</ele><time>2026-04-26T11:34:05Z</time></trkpt><trkpt lat="45.71571029991815" lon="9.21602536267807"><ele>300.0</ele><time>2026-04-26T11:34:06Z</time></trkpt><trkpt lat="45.71561221499008" lon="9.216049344473857"><ele>299.0</ele><time>2026-04-26T11:34:07Z</time></trkpt><trkpt lat="45.71551116671286" lon="9.216123524609749"><ele>298.0</ele><time>2026-04-26T11:34:08Z</time></trkpt><trkpt lat="45.7154029103835" lon="9.216201689712552"><ele>298.0</ele><time>2026-04-26T11:34:09Z</time></trkpt><trkpt lat="45.71531008326089" lon="9.21622742941031"><ele>298.0</ele><time>2026-04-26T11:34:10Z</time></trkpt><trkpt lat="45.715198540144726" lon="9.216203440708798"><ele>298.0</ele><time>2026-04-26T11:34:11Z</time></trkpt><trkpt lat="45.71506307407532" lon="9.216173432035497"><ele>298.0</ele><time>2026-04-26T11:34:12Z</time></trkpt><trkpt lat="45.71490444893291" lon="9.216131367884667"><ele>298.3333333333333</ele><time>2026-04-26T11:34:13Z</time></trkpt><trkpt lat="45.71473035739058" lon="9.216068808223685"><ele>298.6666666666667</ele><time>2026-04-26T11:34:14Z</time></trkpt><trkpt lat="45.7145226770516" lon="9.215985945679884"><ele>299.0</ele><time>2026-04-26T11:34:15Z</time></trkpt><trkpt lat="45.714285771844715" lon="9.21589045505524"><ele>298.0</ele><time>2026-04-26T11:34:16Z</time></trkpt><trkpt lat="45.71401945510475" lon="9.215780721959051"><ele>297.0</ele><time>2026-04-26T11:34:17Z</time></trkpt><trkpt lat="45.71372158922315" lon="9.21566193425325"><ele>294.0</ele><time>2026-04-26T11:34:18Z</time></trkpt><trkpt lat="45.71341271996715" lon="9.215538884326232"><ele>291.0</ele><time>2026-04-26T11:34:19Z</time></trkpt><trkpt lat="45.713096233395476" lon="9.215410771578469"><ele>291.0</ele><time>2026-04-26T11:34:20Z</time></trkpt><trkpt lat="45.71279237908439" lon="9.215300698974186"><ele>291.0</ele><time>2026-04-26T11:34:21Z</time></trkpt><trkpt lat="45.7125105834321" lon="9.215188659008422"><ele>291.0</ele><time>2026-04-26T11:34:22Z</time></trkpt><trkpt lat="45.71224670621438" lon="9.21508359192491"><ele>291.0</ele><time>2026-04-26T11:34:23Z</time></trkpt><trkpt lat="45.71199283704213" lon="9.214987037419174"><ele>290.5</ele><time>2026-04-26T11:34:24Z</time></trkpt><trkpt lat="45.71174761877707" lon="9.214903369975827"><ele>290.0</ele><time>2026-04-26T11:34:25Z</time></trkpt><trkpt lat="45.71151084211555" lon="9.214837426506296"><ele>290.33333333333337</ele><time>2026-04-26T11:34:26Z</time></trkpt><trkpt lat="45.71129157969597" lon="9.214798763716603"><ele>290.6666666666667</ele><time>2026-04-26T11:34:27Z</time></trkpt><trkpt lat="45.71107882589629" lon="9.214778057093381"><ele>291.0</ele><time>2026-04-26T11:34:28Z</time></trkpt><trkpt lat="45.71086810380556" lon="9.214793684340377"><ele>291.3333333333333</ele><time>2026-04-26T11:34:29Z</time></trkpt><trkpt lat="45.710649519878125" lon="9.214811165511561"><ele>291.66666666666663</ele><time>2026-04-26T11:34:30Z</time></trkpt><trkpt lat="45.710427601927165" lon="9.214816657836067"><ele>292.0</ele><time>2026-04-26T11:34:31Z</time></trkpt><trkpt lat="45.71020127030959" lon="9.214833120863307"><ele>292.0</ele><time>2026-04-26T11:34:32Z</time></trkpt><trkpt lat="45.709977474407815" lon="9.21489346631079"><ele>292.0</ele><time>2026-04-26T11:34:33Z</time></trkpt><trkpt lat="45.70974781895602" lon="9.21493034572404"><ele>292.0</ele><time>2026-04-26T11:34:34Z</time></trkpt><trkpt lat="45.7095347198132" lon="9.214958989764241"><ele>292.0</ele><time>2026-04-26T11:34:35Z</time></trkpt><trkpt lat="45.70931069190569" lon="9.214993821915456"><ele>292.0</ele><time>2026-04-26T11:34:36Z</time></trkpt><trkpt lat="45.70911962931034" lon="9.215030866885769"><ele>292.0</ele><time>2026-04-26T11:34:37Z</time></trkpt><trkpt lat="45.708936024210374" lon="9.215064158572565"><ele>292.0</ele><time>2026-04-26T11:34:38Z</time></trkpt><trkpt lat="45.70876495301802" lon="9.215091463252483"><ele>292.0</ele><time>2026-04-26T11:34:39Z</time></trkpt><trkpt lat="45.70859454536608" lon="9.215111490554403"><ele>291.3333333333333</ele><time>2026-04-26T11:34:40Z</time></trkpt><trkpt lat="45.70843459372739" lon="9.215129451891022"><ele>290.6666666666667</ele><time>2026-04-26T11:34:41Z</time></trkpt><trkpt lat="45.70827099509032" lon="9.215158504138431"><ele>290.0</ele><time>2026-04-26T11:34:42Z</time></trkpt><trkpt lat="45.70811319096871" lon="9.215182368395526"><ele>290.0</ele><time>2026-04-26T11:34:43Z</time></trkpt><trkpt lat="45.70796069953376" lon="9.215201531074051"><ele>290.0</ele><time>2026-04-26T11:34:44Z</time></trkpt><trkpt lat="45.70781887314126" lon="9.215219390141181"><ele>290.0</ele><time>2026-04-26T11:34:45Z</time></trkpt><trkpt lat="45.70768399349552" lon="9.215240364502115"><ele>290.0</ele><time>2026-04-26T11:34:46Z</time></trkpt><trkpt lat="45.707549549896676" lon="9.215262288418572"><ele>289.75</ele><time>2026-04-26T11:34:47Z</time></trkpt><trkpt lat="45.707427105063964" lon="9.215281923261738"><ele>289.5</ele><time>2026-04-26T11:34:48Z</time></trkpt><trkpt lat="45.707308148613976" lon="9.215300707367595"><ele>289.25</ele><time>2026-04-26T11:34:49Z</time></trkpt><trkpt lat="45.707194550981605" lon="9.215316857016294"><ele>289.0</ele><time>2026-04-26T11:34:50Z</time></trkpt><trkpt lat="45.70707876799978" lon="9.215329336438694"><ele>289.0</ele><time>2026-04-26T11:34:51Z</time></trkpt><trkpt lat="45.70695839934657" lon="9.21534978229604"><ele>289.0</ele><time>2026-04-26T11:34:52Z</time></trkpt><trkpt lat="45.706832038877984" lon="9.215378383547108"><ele>289.0</ele><time>2026-04-26T11:34:53Z</time></trkpt><trkpt lat="45.70670207383437" lon="9.215389428855003"><ele>289.0</ele><time>2026-04-26T11:34:54Z</time></trkpt><trkpt lat="45.70656243790308" lon="9.21541142929216"><ele>288.66666666666663</ele><time>2026-04-26T11:34:55Z</time></trkpt><trkpt lat="45.7064135521347" lon="9.215434278355868"><ele>288.3333333333333</ele><time>2026-04-26T11:34:56Z</time></trkpt><trkpt lat="45.7062512573808" lon="9.215457647328257"><ele>288.0</ele><time>2026-04-26T11:34:57Z</time></trkpt><trkpt lat="45.70608480513122" lon="9.21549197248581"><ele>288.3333333333333</ele><time>2026-04-26T11:34:58Z</time></trkpt><trkpt lat="45.70591913005285" lon="9.215520361366751"><ele>288.66666666666663</ele><time>2026-04-26T11:34:59Z</time></trkpt><trkpt lat="45.705760930281635" lon="9.215537816031038"><ele>289.0</ele><time>2026-04-26T11:35:00Z</time></trkpt><trkpt lat="45.70560130810724" lon="9.215557676298157"><ele>289.0</ele><time>2026-04-26T11:35:01Z</time></trkpt><trkpt lat="45.705466685612535" lon="9.215588044882368"><ele>289.0</ele><time>2026-04-26T11:35:02Z</time></trkpt><trkpt lat="45.705328989963284" lon="9.215600669058363"><ele>289.0</ele><time>2026-04-26T11:35:03Z</time></trkpt><trkpt lat="45.70519195797353" lon="9.21561700437114"><ele>289.0</ele><time>2026-04-26T11:35:04Z</time></trkpt><trkpt lat="45.705069927222816" lon="9.21564719513835"><ele>289.0</ele><time>2026-04-26T11:35:05Z</time></trkpt><trkpt lat="45.70494923709829" lon="9.215656086333379"><ele>289.0</ele><time>2026-04-26T11:35:06Z</time></trkpt><trkpt lat="45.70483288569761" lon="9.215662138264417"><ele>289.0</ele><time>2026-04-26T11:35:07Z</time></trkpt><trkpt lat="45.70472821545836" lon="9.21568593305793"><ele>289.0</ele><time>2026-04-26T11:35:08Z</time></trkpt><trkpt lat="45.70462703053144" lon="9.215702183775369"><ele>289.0</ele><time>2026-04-26T11:35:09Z</time></trkpt><trkpt lat="45.70451554353298" lon="9.215719637969661"><ele>288.75</ele><time>2026-04-26T11:35:10Z</time></trkpt><trkpt lat="45.704401414679054" lon="9.215732092471097"><ele>288.5</ele><time>2026-04-26T11:35:11Z</time></trkpt><trkpt lat="45.70428016086233" lon="9.215744681379592"><ele>288.25</ele><time>2026-04-26T11:35:12Z</time></trkpt><trkpt lat="45.70415180673543" lon="9.21576192040936"><ele>288.0</ele><time>2026-04-26T11:35:13Z</time></trkpt><trkpt lat="45.704019282842374" lon="9.215775319664008"><ele>288.0</ele><time>2026-04-26T11:35:14Z</time></trkpt><trkpt lat="45.70388841300859" lon="9.215794947636308"><ele>288.0</ele><time>2026-04-26T11:35:15Z</time></trkpt><trkpt lat="45.703752872752446" lon="9.21581726621486"><ele>288.0</ele><time>2026-04-26T11:35:16Z</time></trkpt><trkpt lat="45.70361761723624" lon="9.21583448114706"><ele>288.0</ele><time>2026-04-26T11:35:17Z</time></trkpt><trkpt lat="45.70348278132432" lon="9.215851790663391"><ele>287.25</ele><time>2026-04-26T11:35:18Z</time></trkpt><trkpt lat="45.70335407856106" lon="9.215876163837141"><ele>286.5</ele><time>2026-04-26T11:35:19Z</time></trkpt><trkpt lat="45.703230652448305" lon="9.215893973253134"><ele>285.75</ele><time>2026-04-26T11:35:20Z</time></trkpt><trkpt lat="45.703109091691296" lon="9.215908126653602"><ele>285.0</ele><time>2026-04-26T11:35:21Z</time></trkpt><trkpt lat="45.70299151951465" lon="9.215915519880722"><ele>285.0</ele><time>2026-04-26T11:35:22Z</time></trkpt><trkpt lat="45.70288007539822" lon="9.21592163776188"><ele>285.0</ele><time>2026-04-26T11:35:23Z</time></trkpt><trkpt lat="45.7027735173408" lon="9.215916184356741"><ele>285.0</ele><time>2026-04-26T11:35:24Z</time></trkpt><trkpt lat="45.7026783214503" lon="9.21588117919836"><ele>285.0</ele><time>2026-04-26T11:35:25Z</time></trkpt><trkpt lat="45.702589181214634" lon="9.215822438400682"><ele>285.0</ele><time>2026-04-26T11:35:26Z</time></trkpt><trkpt lat="45.702502061432455" lon="9.215768060053687"><ele>284.6</ele><time>2026-04-26T11:35:27Z</time></trkpt><trkpt lat="45.702408313434965" lon="9.215770191113224"><ele>284.2</ele><time>2026-04-26T11:35:28Z</time></trkpt><trkpt lat="45.7023206331418" lon="9.215825763970084"><ele>283.8</ele><time>2026-04-26T11:35:29Z</time></trkpt><trkpt lat="45.7022415235598" lon="9.215922978198174"><ele>283.4</ele><time>2026-04-26T11:35:30Z</time></trkpt><trkpt lat="45.70221004129204" lon="9.216071836702184"><ele>283.0</ele><time>2026-04-26T11:35:31Z</time></trkpt><trkpt lat="45.702051988631915" lon="9.216090890539958"><ele>283.0</ele><time>2026-04-26T11:35:32Z</time></trkpt><trkpt lat="45.7019315160054" lon="9.216088655132689"><ele>283.0</ele><time>2026-04-26T11:35:33Z</time></trkpt><trkpt lat="45.701806413175724" lon="9.21612677769855"><ele>283.0</ele><time>2026-04-26T11:35:34Z</time></trkpt><trkpt lat="45.70167321110214" lon="9.216138922433034"><ele>283.0</ele><time>2026-04-26T11:35:35Z</time></trkpt><trkpt lat="45.701533020759115" lon="9.216157300330606"><ele>282.3333333333333</ele><time>2026-04-26T11:35:36Z</time></trkpt><trkpt lat="45.70138644611491" lon="9.216179428894446"><ele>281.6666666666667</ele><time>2026-04-26T11:35:37Z</time></trkpt><trkpt lat="45.701234295464246" lon="9.216200407785498"><ele>281.0</ele><time>2026-04-26T11:35:38Z</time></trkpt><trkpt lat="45.70107753002587" lon="9.216223547803732"><ele>280.6666666666667</ele><time>2026-04-26T11:35:39Z</time></trkpt><trkpt lat="45.70091358005207" lon="9.216246930579594"><ele>280.3333333333333</ele><time>2026-04-26T11:35:40Z</time></trkpt><trkpt lat="45.700753725301574" lon="9.216266344166264"><ele>280.0</ele><time>2026-04-26T11:35:41Z</time></trkpt><trkpt lat="45.700595710349745" lon="9.216293157422287"><ele>280.0</ele><time>2026-04-26T11:35:42Z</time></trkpt><trkpt lat="45.700441081179214" lon="9.21631140258566"><ele>280.0</ele><time>2026-04-26T11:35:43Z</time></trkpt><trkpt lat="45.700295109012984" lon="9.216330643068884"><ele>280.0</ele><time>2026-04-26T11:35:44Z</time></trkpt><trkpt lat="45.70015098624089" lon="9.216335193431632"><ele>280.0</ele><time>2026-04-26T11:35:45Z</time></trkpt><trkpt lat="45.70001600854626" lon="9.216302607578644"><ele>279.25</ele><time>2026-04-26T11:35:46Z</time></trkpt><trkpt lat="45.69987816377003" lon="9.216298313410485"><ele>278.5</ele><time>2026-04-26T11:35:47Z</time></trkpt><trkpt lat="45.699741951787075" lon="9.216247999727956"><ele>277.75</ele><time>2026-04-26T11:35:48Z</time></trkpt><trkpt lat="45.69963070187907" lon="9.21620537765277"><ele>277.0</ele><time>2026-04-26T11:35:49Z</time></trkpt><trkpt lat="45.69951303108207" lon="9.216169040585362"><ele>276.75</ele><time>2026-04-26T11:35:50Z</time></trkpt><trkpt lat="45.69939133150752" lon="9.216105907221982"><ele>276.5</ele><time>2026-04-26T11:35:51Z</time></trkpt><trkpt lat="45.69926653564288" lon="9.216038116903785"><ele>276.25</ele><time>2026-04-26T11:35:52Z</time></trkpt><trkpt lat="45.69914033465767" lon="9.215969543142258"><ele>276.0</ele><time>2026-04-26T11:35:53Z</time></trkpt><trkpt lat="45.69902550832804" lon="9.215899044866593"><ele>276.0</ele><time>2026-04-26T11:35:54Z</time></trkpt><trkpt lat="45.69892741680392" lon="9.215811314066555"><ele>276.0</ele><time>2026-04-26T11:35:55Z</time></trkpt><trkpt lat="45.69883267460812" lon="9.215737015393863"><ele>276.0</ele><time>2026-04-26T11:35:56Z</time></trkpt><trkpt lat="45.698747261416656" lon="9.215659388268763"><ele>276.0</ele><time>2026-04-26T11:35:57Z</time></trkpt><trkpt lat="45.69867726828518" lon="9.215605837268198"><ele>276.0</ele><time>2026-04-26T11:35:58Z</time></trkpt><trkpt lat="45.69859906749343" lon="9.215562263786156"><ele>275.6</ele><time>2026-04-26T11:35:59Z</time></trkpt><trkpt lat="45.69851324527274" lon="9.21555552289471"><ele>275.20000000000005</ele><time>2026-04-26T11:36:00Z</time></trkpt><trkpt lat="45.69842526147753" lon="9.215582477096682"><ele>274.79999999999995</ele><time>2026-04-26T11:36:01Z</time></trkpt><trkpt lat="45.6983283565913" lon="9.215599933495715"><ele>274.4</ele><time>2026-04-26T11:36:02Z</time></trkpt><trkpt lat="45.698230475986136" lon="9.215577032060095"><ele>274.0</ele><time>2026-04-26T11:36:03Z</time></trkpt><trkpt lat="45.69813113205284" lon="9.21551834573481"><ele>274.0</ele><time>2026-04-26T11:36:04Z</time></trkpt><trkpt lat="45.698031117127066" lon="9.215476941187669"><ele>274.0</ele><time>2026-04-26T11:36:05Z</time></trkpt><trkpt lat="45.69793960570135" lon="9.215432069506683"><ele>274.0</ele><time>2026-04-26T11:36:06Z</time></trkpt><trkpt lat="45.697848480358346" lon="9.21539342601095"><ele>274.0</ele><time>2026-04-26T11:36:07Z</time></trkpt><trkpt lat="45.6977538010757" lon="9.215346575857774"><ele>274.0</ele><time>2026-04-26T11:36:08Z</time></trkpt><trkpt lat="45.69765104385363" lon="9.215325772238526"><ele>274.0</ele><time>2026-04-26T11:36:09Z</time></trkpt><trkpt lat="45.697565085260685" lon="9.215275650559922"><ele>274.0</ele><time>2026-04-26T11:36:10Z</time></trkpt><trkpt lat="45.69747783772967" lon="9.215224294788648"><ele>274.0</ele><time>2026-04-26T11:36:11Z</time></trkpt><trkpt lat="45.697398552307654" lon="9.215187947698187"><ele>274.0</ele><time>2026-04-26T11:36:12Z</time></trkpt><trkpt lat="45.69731305765007" lon="9.215147971027358"><ele>274.0</ele><time>2026-04-26T11:36:13Z</time></trkpt><trkpt lat="45.697230224034335" lon="9.215115908977399"><ele>274.0</ele><time>2026-04-26T11:36:14Z</time></trkpt><trkpt lat="45.69715313404949" lon="9.215079385001145"><ele>274.0</ele><time>2026-04-26T11:36:15Z</time></trkpt><trkpt lat="45.697092282672955" lon="9.215050682767266"><ele>274.0</ele><time>2026-04-26T11:36:16Z</time></trkpt><trkpt lat="45.69702042248512" lon="9.215041041871508"><ele>274.0</ele><time>2026-04-26T11:36:24Z</time></trkpt><trkpt lat="45.696902417714014" lon="9.214963167769405"><ele>274.0</ele><time>2026-04-26T11:39:49Z</time></trkpt><trkpt lat="45.69681786851827" lon="9.214932498043328"><ele>274.0</ele><time>2026-04-26T11:39:50Z</time></trkpt><trkpt lat="45.69671670272778" lon="9.214890000830087"><ele>273.59999999999997</ele><time>2026-04-26T11:39:51Z</time></trkpt><trkpt lat="45.69661936581656" lon="9.214845368391728"><ele>273.2</ele><time>2026-04-26T11:39:52Z</time></trkpt><trkpt lat="45.69654870995068" lon="9.214766002955674"><ele>272.79999999999995</ele><time>2026-04-26T11:39:53Z</time></trkpt><trkpt lat="45.696484480211254" lon="9.214696320711003"><ele>272.4</ele><time>2026-04-26T11:39:54Z</time></trkpt><trkpt lat="45.69639957394066" lon="9.21464693734045"><ele>272.0</ele><time>2026-04-26T11:39:55Z</time></trkpt><trkpt lat="45.696301543192796" lon="9.214617436769451"><ele>272.0</ele><time>2026-04-26T11:39:56Z</time></trkpt><trkpt lat="45.69616047937651" lon="9.214597999161638"><ele>272.0</ele><time>2026-04-26T11:39:57Z</time></trkpt><trkpt lat="45.69600420831092" lon="9.21456067338649"><ele>272.0</ele><time>2026-04-26T11:39:58Z</time></trkpt><trkpt lat="45.695806262635706" lon="9.214487641793514"><ele>270.5</ele><time>2026-04-26T11:39:59Z</time></trkpt><trkpt lat="45.695586201544245" lon="9.214387264575583"><ele>269.0</ele><time>2026-04-26T11:40:00Z</time></trkpt><trkpt lat="45.695365965630586" lon="9.214266746919435"><ele>269.0</ele><time>2026-04-26T11:40:01Z</time></trkpt><trkpt lat="45.695131111963114" lon="9.214145441062158"><ele>269.0</ele><time>2026-04-26T11:40:02Z</time></trkpt><trkpt lat="45.694893953524286" lon="9.214024843895999"><ele>268.5</ele><time>2026-04-26T11:40:03Z</time></trkpt><trkpt lat="45.69465177402699" lon="9.213905022079432"><ele>268.0</ele><time>2026-04-26T11:40:04Z</time></trkpt><trkpt lat="45.69442463664686" lon="9.213794033858393"><ele>268.0</ele><time>2026-04-26T11:40:05Z</time></trkpt><trkpt lat="45.69422158422021" lon="9.213692146731802"><ele>268.0</ele><time>2026-04-26T11:40:06Z</time></trkpt><trkpt lat="45.69400923759733" lon="9.213596424886635"><ele>268.0</ele><time>2026-04-26T11:40:07Z</time></trkpt><trkpt lat="45.6937940023536" lon="9.213510078948392"><ele>268.0</ele><time>2026-04-26T11:40:08Z</time></trkpt><trkpt lat="45.69359570294157" lon="9.213444848579712"><ele>268.0</ele><time>2026-04-26T11:40:09Z</time></trkpt><trkpt lat="45.69341195093414" lon="9.213393449210507"><ele>268.0</ele><time>2026-04-26T11:40:10Z</time></trkpt><trkpt lat="45.693243528526054" lon="9.213363321114562"><ele>267.0</ele><time>2026-04-26T11:40:11Z</time></trkpt><trkpt lat="45.69308318245191" lon="9.21334300276852"><ele>266.0</ele><time>2026-04-26T11:40:12Z</time></trkpt><trkpt lat="45.69291213529883" lon="9.213323333631468"><ele>265.0</ele><time>2026-04-26T11:40:13Z</time></trkpt><trkpt lat="45.692735083902086" lon="9.213317138957043"><ele>264.75</ele><time>2026-04-26T11:40:14Z</time></trkpt><trkpt lat="45.692586234624265" lon="9.213330164937098"><ele>264.5</ele><time>2026-04-26T11:40:15Z</time></trkpt><trkpt lat="45.69244055799383" lon="9.213344947755214"><ele>264.25</ele><time>2026-04-26T11:40:16Z</time></trkpt><trkpt lat="45.69230329887494" lon="9.213359154026719"><ele>264.0</ele><time>2026-04-26T11:40:17Z</time></trkpt><trkpt lat="45.69217995493625" lon="9.213374509211247"><ele>264.0</ele><time>2026-04-26T11:40:18Z</time></trkpt><trkpt lat="45.69207242849647" lon="9.21338910192836"><ele>264.0</ele><time>2026-04-26T11:40:19Z</time></trkpt><trkpt lat="45.69194900061569" lon="9.213392174985119"><ele>264.0</ele><time>2026-04-26T11:40:20Z</time></trkpt><trkpt lat="45.691844597784005" lon="9.213375331008754"><ele>264.0</ele><time>2026-04-26T11:40:21Z</time></trkpt><trkpt lat="45.69173482014863" lon="9.213348599305395"><ele>264.0</ele><time>2026-04-26T11:40:22Z</time></trkpt><trkpt lat="45.69165142616308" lon="9.213303005751524"><ele>263.8</ele><time>2026-04-26T11:40:23Z</time></trkpt><trkpt lat="45.69157008611111" lon="9.213229879811795"><ele>263.59999999999997</ele><time>2026-04-26T11:40:24Z</time></trkpt><trkpt lat="45.691483154848754" lon="9.213143306222738"><ele>263.4</ele><time>2026-04-26T11:40:25Z</time></trkpt><trkpt lat="45.69139370083276" lon="9.213082965552934"><ele>263.2</ele><time>2026-04-26T11:40:26Z</time></trkpt><trkpt lat="45.69128487979039" lon="9.213085868391927"><ele>263.0</ele><time>2026-04-26T11:40:27Z</time></trkpt><trkpt lat="45.6911825081655" lon="9.213134641766716"><ele>262.25</ele><time>2026-04-26T11:40:28Z</time></trkpt><trkpt lat="45.69110012568843" lon="9.213243023655702"><ele>261.5</ele><time>2026-04-26T11:40:29Z</time></trkpt><trkpt lat="45.69104774573701" lon="9.213398335015857"><ele>260.75</ele><time>2026-04-26T11:40:30Z</time></trkpt><trkpt lat="45.69102970934251" lon="9.213558057521352"><ele>260.0</ele><time>2026-04-26T11:40:31Z</time></trkpt><trkpt lat="45.69106026771954" lon="9.21370765362017"><ele>260.0</ele><time>2026-04-26T11:40:32Z</time></trkpt><trkpt lat="45.691131787819515" lon="9.21384563132941"><ele>260.0</ele><time>2026-04-26T11:40:33Z</time></trkpt><trkpt lat="45.69123786974663" lon="9.213921377928003"><ele>260.0</ele><time>2026-04-26T11:40:34Z</time></trkpt><trkpt lat="45.691357133831694" lon="9.213933484797792"><ele>260.0</ele><time>2026-04-26T11:40:35Z</time></trkpt><trkpt lat="45.69147752887296" lon="9.213909167328248"><ele>260.0</ele><time>2026-04-26T11:40:36Z</time></trkpt><trkpt lat="45.691602632156055" lon="9.213812573920073"><ele>260.0</ele><time>2026-04-26T11:40:37Z</time></trkpt><trkpt lat="45.691716032183315" lon="9.213696634589803"><ele>260.0</ele><time>2026-04-26T11:40:38Z</time></trkpt><trkpt lat="45.69182650341619" lon="9.213583549728643"><ele>260.0</ele><time>2026-04-26T11:40:39Z</time></trkpt><trkpt lat="45.691951985062325" lon="9.21353480111037"><ele>261.0</ele><time>2026-04-26T11:40:40Z</time></trkpt><trkpt lat="45.692090962299446" lon="9.213518233424859"><ele>262.0</ele><time>2026-04-26T11:40:41Z</time></trkpt><trkpt lat="45.69224881740466" lon="9.213502459036674"><ele>263.0</ele><time>2026-04-26T11:40:42Z</time></trkpt><trkpt lat="45.69239892843201" lon="9.213500655763083"><ele>264.0</ele><time>2026-04-26T11:40:43Z</time></trkpt><trkpt lat="45.692550112585636" lon="9.213496360217793"><ele>264.0</ele><time>2026-04-26T11:40:44Z</time></trkpt><trkpt lat="45.692707503433915" lon="9.213496413274544"><ele>264.0</ele><time>2026-04-26T11:40:45Z</time></trkpt><trkpt lat="45.69286972746497" lon="9.213487205565661"><ele>264.0</ele><time>2026-04-26T11:40:46Z</time></trkpt><trkpt lat="45.69303333114816" lon="9.213493972663588"><ele>264.3333333333333</ele><time>2026-04-26T11:40:47Z</time></trkpt><trkpt lat="45.693195219303036" lon="9.213512161591055"><ele>264.66666666666663</ele><time>2026-04-26T11:40:48Z</time></trkpt><trkpt lat="45.69335342284138" lon="9.21354333171118"><ele>265.0</ele><time>2026-04-26T11:40:49Z</time></trkpt><trkpt lat="45.693517769912695" lon="9.213576931582985"><ele>266.0</ele><time>2026-04-26T11:40:50Z</time></trkpt><trkpt lat="45.69368236893673" lon="9.21362116612495"><ele>267.0</ele><time>2026-04-26T11:40:51Z</time></trkpt><trkpt lat="45.69383989520991" lon="9.213667857469847"><ele>268.0</ele><time>2026-04-26T11:40:52Z</time></trkpt><trkpt lat="45.693999093524155" lon="9.213731060261951"><ele>268.0</ele><time>2026-04-26T11:40:53Z</time></trkpt><trkpt lat="45.69415079092105" lon="9.213800652124483"><ele>268.0</ele><time>2026-04-26T11:40:54Z</time></trkpt><trkpt lat="45.69430017164938" lon="9.213874079947864"><ele>268.0</ele><time>2026-04-26T11:40:55Z</time></trkpt><trkpt lat="45.69443661081271" lon="9.213955992668307"><ele>268.25</ele><time>2026-04-26T11:40:56Z</time></trkpt><trkpt lat="45.694560824434795" lon="9.21402613896149"><ele>268.5</ele><time>2026-04-26T11:40:57Z</time></trkpt><trkpt lat="45.69468001556644" lon="9.214091631886566"><ele>268.75</ele><time>2026-04-26T11:40:58Z</time></trkpt><trkpt lat="45.69477204132911" lon="9.214177328267185"><ele>269.0</ele><time>2026-04-26T11:40:59Z</time></trkpt><trkpt lat="45.69486907622678" lon="9.214242294254289"><ele>269.0</ele><time>2026-04-26T11:41:00Z</time></trkpt><trkpt lat="45.69494043156962" lon="9.214307252455658"><ele>269.0</ele><time>2026-04-26T11:41:01Z</time></trkpt><trkpt lat="45.69500927929528" lon="9.214374933321663"><ele>269.0</ele><time>2026-04-26T11:41:02Z</time></trkpt><trkpt lat="45.69509235613125" lon="9.214446509037108"><ele>269.0</ele><time>2026-04-26T11:41:03Z</time></trkpt><trkpt lat="45.695157932256784" lon="9.214484284270112"><ele>269.0</ele><time>2026-04-26T11:41:04Z</time></trkpt><trkpt lat="45.69522617586986" lon="9.214505481266524"><ele>269.0</ele><time>2026-04-26T11:41:05Z</time></trkpt><trkpt lat="45.69529104446904" lon="9.214581999209072"><ele>269.0</ele><time>2026-04-26T11:41:06Z</time></trkpt><trkpt lat="45.695356509482146" lon="9.21459049595381"><ele>269.0</ele><time>2026-04-26T11:41:07Z</time></trkpt><trkpt lat="45.69542692127634" lon="9.21461969860077"><ele>269.0</ele><time>2026-04-26T11:41:08Z</time></trkpt><trkpt lat="45.69551179980311" lon="9.214680055121438"><ele>269.0</ele><time>2026-04-26T11:41:10Z</time></trkpt><trkpt lat="45.695588055225855" lon="9.214714971194352"><ele>269.0</ele><time>2026-04-26T11:41:12Z</time></trkpt><trkpt lat="45.695537052513586" lon="9.214768435487999"><ele>269.0</ele><time>2026-04-26T11:50:30.999Z</time></trkpt><trkpt lat="45.69554826109305" lon="9.214867619006487"><ele>269.0</ele><time>2026-04-26T11:50:33.999Z</time></trkpt><trkpt lat="45.69560298267535" lon="9.214956257749897"><ele>268.83333333333337</ele><time>2026-04-26T11:50:36.999Z</time></trkpt><trkpt lat="45.695631485146606" lon="9.215047997508007"><ele>268.6666666666667</ele><time>2026-04-26T11:50:39.999Z</time></trkpt><trkpt lat="45.69558511048095" lon="9.21512473285236"><ele>268.5</ele><time>2026-04-26T11:50:41.999Z</time></trkpt><trkpt lat="45.69550264687623" lon="9.215195414133722"><ele>268.3333333333333</ele><time>2026-04-26T11:50:43.999Z</time></trkpt><trkpt lat="45.695437317932715" lon="9.215322512970582"><ele>268.16666666666663</ele><time>2026-04-26T11:50:45.999Z</time></trkpt><trkpt lat="45.69537896023666" lon="9.215391016056532"><ele>268.0</ele><time>2026-04-26T11:50:47.999Z</time></trkpt><trkpt lat="45.69528316132415" lon="9.21528918789422"><ele>268.0</ele><time>2026-04-26T11:51:17Z</time></trkpt><trkpt lat="45.695250919794724" lon="9.215208036154499"><ele>268.0</ele><time>2026-04-26T11:51:19Z</time></trkpt><trkpt lat="45.69519214514438" lon="9.215150199834492"><ele>268.0</ele><time>2026-04-26T11:51:26Z</time></trkpt><trkpt lat="45.69511051749105" lon="9.215039214823806"><ele>268.0</ele><time>2026-04-26T11:51:48.001Z</time></trkpt><trkpt lat="45.695175527429974" lon="9.215132900998674"><ele>268.0</ele><time>2026-04-26T11:51:49.001Z</time></trkpt><trkpt lat="45.69522184654596" lon="9.215218425804075"><ele>268.0</ele><time>2026-04-26T11:51:54.001Z</time></trkpt><trkpt lat="45.695001827033856" lon="9.21535193720922"><ele>268.0</ele><time>2026-04-26T11:52:21.999Z</time></trkpt><trkpt lat="45.69513259999228" lon="9.21535652598555"><ele>268.0</ele><time>2026-04-26T11:54:23.999Z</time></trkpt><trkpt lat="45.695195660697365" lon="9.215408985267938"><ele>268.0</ele><time>2026-04-26T11:54:30Z</time></trkpt><trkpt lat="45.69535692640381" lon="9.215672134469742"><ele>268.0</ele><time>2026-04-26T11:54:59Z</time></trkpt><trkpt lat="45.695201933400746" lon="9.215630557362184"><ele>268.0</ele><time>2026-04-26T11:56:13.002Z</time></trkpt></trkseg></trk></gpx>